<?xml version="1.0" encoding="UTF-8"?>
<gpx version="1.1" creator="https://www.youtrack.es" xsi:schemaLocation="http://www.topografix.com/GPX/1/1 http://www.topografix.com/GPX/1/1/gpx.xsd http://www.garmin.com/xmlschemas/GpxExtensions/v3 http://www.garmin.com/xmlschemas/GpxExtensionsv3.xsd http://www.garmin.com/xmlschemas/TrackPointExtension/v1 http://www.garmin.com/xmlschemas/TrackPointExtensionv1.xsd" xmlns:gpxtpx="http://www.garmin.com/xmlschemas/TrackPointExtension/v1" xmlns:gpxx="http://www.garmin.com/xmlschemas/GpxExtensions/v3" xmlns:xsi="http://www.w3.org/2001/XMLSchema-instance">
  <metadata>
    <link href="https://www.youtrack.es">
      <text>YouTrack.es</text>
    </link>
    <time>2026-05-10T17:35:26Z</time>
  </metadata>
  <trk>
    <src>https://www.youtrack.es</src>
    <link href="https://www.youtrack.es/ruta/17477-vuelta-ok">
      <text>YouTrack.es</text>
    </link>
    <trkseg>
      <trkpt lat="-40.1536430" lon="-71.3516260">
        <ele>651.1</ele>
        <time>2020-11-15T11:46:41Z</time>
      </trkpt>
      <trkpt lat="-40.1536740" lon="-71.3515960">
        <ele>651.1</ele>
        <time>2020-11-15T11:46:56Z</time>
      </trkpt>
      <trkpt lat="-40.1537810" lon="-71.3515110">
        <ele>651.0</ele>
        <time>2020-11-15T11:46:58Z</time>
      </trkpt>
      <trkpt lat="-40.1538270" lon="-71.3514800">
        <ele>651.0</ele>
        <time>2020-11-15T11:46:59Z</time>
      </trkpt>
      <trkpt lat="-40.1538630" lon="-71.3514610">
        <ele>650.9</ele>
        <time>2020-11-15T11:47:00Z</time>
      </trkpt>
      <trkpt lat="-40.1538890" lon="-71.3514490">
        <ele>650.9</ele>
        <time>2020-11-15T11:47:01Z</time>
      </trkpt>
      <trkpt lat="-40.1539050" lon="-71.3514390">
        <ele>650.9</ele>
        <time>2020-11-15T11:47:02Z</time>
      </trkpt>
      <trkpt lat="-40.1539080" lon="-71.3514260">
        <ele>650.9</ele>
        <time>2020-11-15T11:47:03Z</time>
      </trkpt>
      <trkpt lat="-40.1539140" lon="-71.3514110">
        <ele>650.9</ele>
        <time>2020-11-15T11:47:04Z</time>
      </trkpt>
      <trkpt lat="-40.1539190" lon="-71.3513960">
        <ele>650.9</ele>
        <time>2020-11-15T11:47:05Z</time>
      </trkpt>
      <trkpt lat="-40.1539220" lon="-71.3513840">
        <ele>650.9</ele>
        <time>2020-11-15T11:47:06Z</time>
      </trkpt>
      <trkpt lat="-40.1539270" lon="-71.3513700">
        <ele>650.9</ele>
        <time>2020-11-15T11:47:07Z</time>
      </trkpt>
      <trkpt lat="-40.1539310" lon="-71.3513590">
        <ele>650.9</ele>
        <time>2020-11-15T11:47:08Z</time>
      </trkpt>
      <trkpt lat="-40.1539420" lon="-71.3513420">
        <ele>650.9</ele>
        <time>2020-11-15T11:47:11Z</time>
      </trkpt>
      <trkpt lat="-40.1539420" lon="-71.3513410">
        <ele>650.9</ele>
        <time>2020-11-15T11:47:12Z</time>
      </trkpt>
      <trkpt lat="-40.1539410" lon="-71.3513390">
        <ele>650.9</ele>
        <time>2020-11-15T11:47:13Z</time>
      </trkpt>
      <trkpt lat="-40.1539390" lon="-71.3513390">
        <ele>650.9</ele>
        <time>2020-11-15T11:47:14Z</time>
      </trkpt>
      <trkpt lat="-40.1539380" lon="-71.3513420">
        <ele>650.9</ele>
        <time>2020-11-15T11:47:15Z</time>
      </trkpt>
      <trkpt lat="-40.1539390" lon="-71.3513440">
        <ele>650.9</ele>
        <time>2020-11-15T11:47:16Z</time>
      </trkpt>
      <trkpt lat="-40.1539410" lon="-71.3513480">
        <ele>650.9</ele>
        <time>2020-11-15T11:47:17Z</time>
      </trkpt>
      <trkpt lat="-40.1539440" lon="-71.3513520">
        <ele>650.9</ele>
        <time>2020-11-15T11:47:18Z</time>
      </trkpt>
      <trkpt lat="-40.1539470" lon="-71.3513580">
        <ele>650.9</ele>
        <time>2020-11-15T11:47:19Z</time>
      </trkpt>
      <trkpt lat="-40.1539500" lon="-71.3513660">
        <ele>650.9</ele>
        <time>2020-11-15T11:47:20Z</time>
      </trkpt>
      <trkpt lat="-40.1539490" lon="-71.3513720">
        <ele>650.9</ele>
        <time>2020-11-15T11:47:21Z</time>
      </trkpt>
      <trkpt lat="-40.1539470" lon="-71.3513720">
        <ele>650.9</ele>
        <time>2020-11-15T11:47:22Z</time>
      </trkpt>
      <trkpt lat="-40.1539450" lon="-71.3513680">
        <ele>650.9</ele>
        <time>2020-11-15T11:47:23Z</time>
      </trkpt>
      <trkpt lat="-40.1539280" lon="-71.3513560">
        <ele>650.9</ele>
        <time>2020-11-15T11:47:25Z</time>
      </trkpt>
      <trkpt lat="-40.1539300" lon="-71.3513570">
        <ele>650.9</ele>
        <time>2020-11-15T11:47:26Z</time>
      </trkpt>
      <trkpt lat="-40.1539360" lon="-71.3513550">
        <ele>650.9</ele>
        <time>2020-11-15T11:47:27Z</time>
      </trkpt>
      <trkpt lat="-40.1539440" lon="-71.3513540">
        <ele>650.9</ele>
        <time>2020-11-15T11:47:28Z</time>
      </trkpt>
      <trkpt lat="-40.1539500" lon="-71.3513510">
        <ele>650.9</ele>
        <time>2020-11-15T11:47:29Z</time>
      </trkpt>
      <trkpt lat="-40.1539570" lon="-71.3513490">
        <ele>650.9</ele>
        <time>2020-11-15T11:47:30Z</time>
      </trkpt>
      <trkpt lat="-40.1539630" lon="-71.3513470">
        <ele>650.9</ele>
        <time>2020-11-15T11:47:31Z</time>
      </trkpt>
      <trkpt lat="-40.1539710" lon="-71.3513470">
        <ele>650.9</ele>
        <time>2020-11-15T11:47:32Z</time>
      </trkpt>
      <trkpt lat="-40.1539810" lon="-71.3513430">
        <ele>650.9</ele>
        <time>2020-11-15T11:47:33Z</time>
      </trkpt>
      <trkpt lat="-40.1539970" lon="-71.3513410">
        <ele>650.9</ele>
        <time>2020-11-15T11:47:34Z</time>
      </trkpt>
      <trkpt lat="-40.1540170" lon="-71.3513430">
        <ele>650.9</ele>
        <time>2020-11-15T11:47:35Z</time>
      </trkpt>
      <trkpt lat="-40.1540350" lon="-71.3513480">
        <ele>650.9</ele>
        <time>2020-11-15T11:47:36Z</time>
      </trkpt>
      <trkpt lat="-40.1540500" lon="-71.3513530">
        <ele>650.9</ele>
        <time>2020-11-15T11:47:37Z</time>
      </trkpt>
      <trkpt lat="-40.1540650" lon="-71.3513510">
        <ele>650.9</ele>
        <time>2020-11-15T11:47:38Z</time>
      </trkpt>
      <trkpt lat="-40.1540540" lon="-71.3512790">
        <ele>650.9</ele>
        <time>2020-11-15T11:48:00Z</time>
      </trkpt>
      <trkpt lat="-40.1540520" lon="-71.3512400">
        <ele>650.9</ele>
        <time>2020-11-15T11:48:01Z</time>
      </trkpt>
      <trkpt lat="-40.1540390" lon="-71.3512000">
        <ele>650.9</ele>
        <time>2020-11-15T11:48:02Z</time>
      </trkpt>
      <trkpt lat="-40.1540320" lon="-71.3511330">
        <ele>650.9</ele>
        <time>2020-11-15T11:48:05Z</time>
      </trkpt>
      <trkpt lat="-40.1540260" lon="-71.3510870">
        <ele>651.0</ele>
        <time>2020-11-15T11:48:06Z</time>
      </trkpt>
      <trkpt lat="-40.1540140" lon="-71.3510760">
        <ele>651.0</ele>
        <time>2020-11-15T11:48:07Z</time>
      </trkpt>
      <trkpt lat="-40.1540080" lon="-71.3510600">
        <ele>651.0</ele>
        <time>2020-11-15T11:48:08Z</time>
      </trkpt>
      <trkpt lat="-40.1540150" lon="-71.3510680">
        <ele>651.0</ele>
        <time>2020-11-15T11:48:09Z</time>
      </trkpt>
      <trkpt lat="-40.1540270" lon="-71.3510670">
        <ele>651.0</ele>
        <time>2020-11-15T11:48:10Z</time>
      </trkpt>
      <trkpt lat="-40.1540300" lon="-71.3510750">
        <ele>651.0</ele>
        <time>2020-11-15T11:48:11Z</time>
      </trkpt>
      <trkpt lat="-40.1540300" lon="-71.3510730">
        <ele>651.0</ele>
        <time>2020-11-15T11:48:12Z</time>
      </trkpt>
      <trkpt lat="-40.1540320" lon="-71.3510620">
        <ele>651.0</ele>
        <time>2020-11-15T11:48:13Z</time>
      </trkpt>
      <trkpt lat="-40.1540380" lon="-71.3510470">
        <ele>651.0</ele>
        <time>2020-11-15T11:48:14Z</time>
      </trkpt>
      <trkpt lat="-40.1540530" lon="-71.3510280">
        <ele>651.0</ele>
        <time>2020-11-15T11:48:15Z</time>
      </trkpt>
      <trkpt lat="-40.1540710" lon="-71.3510110">
        <ele>651.0</ele>
        <time>2020-11-15T11:48:16Z</time>
      </trkpt>
      <trkpt lat="-40.1540980" lon="-71.3509970">
        <ele>651.0</ele>
        <time>2020-11-15T11:48:17Z</time>
      </trkpt>
      <trkpt lat="-40.1541290" lon="-71.3509810">
        <ele>651.0</ele>
        <time>2020-11-15T11:48:18Z</time>
      </trkpt>
      <trkpt lat="-40.1541620" lon="-71.3509640">
        <ele>651.0</ele>
        <time>2020-11-15T11:48:19Z</time>
      </trkpt>
      <trkpt lat="-40.1541950" lon="-71.3509480">
        <ele>651.1</ele>
        <time>2020-11-15T11:48:20Z</time>
      </trkpt>
      <trkpt lat="-40.1542280" lon="-71.3509290">
        <ele>651.1</ele>
        <time>2020-11-15T11:48:21Z</time>
      </trkpt>
      <trkpt lat="-40.1542600" lon="-71.3509110">
        <ele>651.1</ele>
        <time>2020-11-15T11:48:22Z</time>
      </trkpt>
      <trkpt lat="-40.1543530" lon="-71.3508600">
        <ele>651.2</ele>
        <time>2020-11-15T11:48:23Z</time>
      </trkpt>
      <trkpt lat="-40.1543590" lon="-71.3508540">
        <ele>651.2</ele>
        <time>2020-11-15T11:48:24Z</time>
      </trkpt>
      <trkpt lat="-40.1543730" lon="-71.3508440">
        <ele>651.2</ele>
        <time>2020-11-15T11:48:25Z</time>
      </trkpt>
      <trkpt lat="-40.1543920" lon="-71.3508320">
        <ele>651.2</ele>
        <time>2020-11-15T11:48:26Z</time>
      </trkpt>
      <trkpt lat="-40.1544140" lon="-71.3508230">
        <ele>651.2</ele>
        <time>2020-11-15T11:48:27Z</time>
      </trkpt>
      <trkpt lat="-40.1544400" lon="-71.3508120">
        <ele>651.2</ele>
        <time>2020-11-15T11:48:28Z</time>
      </trkpt>
      <trkpt lat="-40.1544700" lon="-71.3507960">
        <ele>651.2</ele>
        <time>2020-11-15T11:48:29Z</time>
      </trkpt>
      <trkpt lat="-40.1545010" lon="-71.3507840">
        <ele>651.3</ele>
        <time>2020-11-15T11:48:30Z</time>
      </trkpt>
      <trkpt lat="-40.1545360" lon="-71.3507680">
        <ele>651.3</ele>
        <time>2020-11-15T11:48:31Z</time>
      </trkpt>
      <trkpt lat="-40.1545700" lon="-71.3507500">
        <ele>651.3</ele>
        <time>2020-11-15T11:48:32Z</time>
      </trkpt>
      <trkpt lat="-40.1546040" lon="-71.3507300">
        <ele>651.3</ele>
        <time>2020-11-15T11:48:33Z</time>
      </trkpt>
      <trkpt lat="-40.1546370" lon="-71.3507090">
        <ele>651.4</ele>
        <time>2020-11-15T11:48:34Z</time>
      </trkpt>
      <trkpt lat="-40.1546700" lon="-71.3506890">
        <ele>651.4</ele>
        <time>2020-11-15T11:48:35Z</time>
      </trkpt>
      <trkpt lat="-40.1547040" lon="-71.3506690">
        <ele>651.4</ele>
        <time>2020-11-15T11:48:36Z</time>
      </trkpt>
      <trkpt lat="-40.1547410" lon="-71.3506490">
        <ele>651.5</ele>
        <time>2020-11-15T11:48:37Z</time>
      </trkpt>
      <trkpt lat="-40.1547770" lon="-71.3506300">
        <ele>651.5</ele>
        <time>2020-11-15T11:48:38Z</time>
      </trkpt>
      <trkpt lat="-40.1548140" lon="-71.3506110">
        <ele>651.5</ele>
        <time>2020-11-15T11:48:39Z</time>
      </trkpt>
      <trkpt lat="-40.1548500" lon="-71.3505950">
        <ele>651.6</ele>
        <time>2020-11-15T11:48:40Z</time>
      </trkpt>
      <trkpt lat="-40.1548840" lon="-71.3505790">
        <ele>651.6</ele>
        <time>2020-11-15T11:48:41Z</time>
      </trkpt>
      <trkpt lat="-40.1549150" lon="-71.3505640">
        <ele>651.7</ele>
        <time>2020-11-15T11:48:42Z</time>
      </trkpt>
      <trkpt lat="-40.1549460" lon="-71.3505510">
        <ele>651.7</ele>
        <time>2020-11-15T11:48:43Z</time>
      </trkpt>
      <trkpt lat="-40.1549760" lon="-71.3505380">
        <ele>651.7</ele>
        <time>2020-11-15T11:48:44Z</time>
      </trkpt>
      <trkpt lat="-40.1550040" lon="-71.3505250">
        <ele>651.8</ele>
        <time>2020-11-15T11:48:45Z</time>
      </trkpt>
      <trkpt lat="-40.1550310" lon="-71.3505130">
        <ele>651.8</ele>
        <time>2020-11-15T11:48:46Z</time>
      </trkpt>
      <trkpt lat="-40.1550590" lon="-71.3505010">
        <ele>651.9</ele>
        <time>2020-11-15T11:48:47Z</time>
      </trkpt>
      <trkpt lat="-40.1550860" lon="-71.3504900">
        <ele>651.9</ele>
        <time>2020-11-15T11:48:48Z</time>
      </trkpt>
      <trkpt lat="-40.1551140" lon="-71.3504780">
        <ele>652.0</ele>
        <time>2020-11-15T11:48:49Z</time>
      </trkpt>
      <trkpt lat="-40.1551450" lon="-71.3504610">
        <ele>652.0</ele>
        <time>2020-11-15T11:48:50Z</time>
      </trkpt>
      <trkpt lat="-40.1551780" lon="-71.3504440">
        <ele>652.1</ele>
        <time>2020-11-15T11:48:51Z</time>
      </trkpt>
      <trkpt lat="-40.1552120" lon="-71.3504230">
        <ele>652.2</ele>
        <time>2020-11-15T11:48:52Z</time>
      </trkpt>
      <trkpt lat="-40.1552470" lon="-71.3504040">
        <ele>652.2</ele>
        <time>2020-11-15T11:48:53Z</time>
      </trkpt>
      <trkpt lat="-40.1552800" lon="-71.3503880">
        <ele>652.3</ele>
        <time>2020-11-15T11:48:54Z</time>
      </trkpt>
      <trkpt lat="-40.1553090" lon="-71.3503700">
        <ele>652.3</ele>
        <time>2020-11-15T11:48:55Z</time>
      </trkpt>
      <trkpt lat="-40.1553340" lon="-71.3503520">
        <ele>652.4</ele>
        <time>2020-11-15T11:48:56Z</time>
      </trkpt>
      <trkpt lat="-40.1553540" lon="-71.3503360">
        <ele>652.4</ele>
        <time>2020-11-15T11:48:57Z</time>
      </trkpt>
      <trkpt lat="-40.1553730" lon="-71.3503210">
        <ele>652.5</ele>
        <time>2020-11-15T11:48:58Z</time>
      </trkpt>
      <trkpt lat="-40.1553920" lon="-71.3503010">
        <ele>652.5</ele>
        <time>2020-11-15T11:48:59Z</time>
      </trkpt>
      <trkpt lat="-40.1554070" lon="-71.3502740">
        <ele>652.7</ele>
        <time>2020-11-15T11:49:00Z</time>
      </trkpt>
      <trkpt lat="-40.1554190" lon="-71.3502440">
        <ele>652.8</ele>
        <time>2020-11-15T11:49:01Z</time>
      </trkpt>
      <trkpt lat="-40.1554170" lon="-71.3502060">
        <ele>652.8</ele>
        <time>2020-11-15T11:49:02Z</time>
      </trkpt>
      <trkpt lat="-40.1554110" lon="-71.3501640">
        <ele>652.8</ele>
        <time>2020-11-15T11:49:03Z</time>
      </trkpt>
      <trkpt lat="-40.1554030" lon="-71.3501200">
        <ele>652.8</ele>
        <time>2020-11-15T11:49:04Z</time>
      </trkpt>
      <trkpt lat="-40.1553920" lon="-71.3500750">
        <ele>652.8</ele>
        <time>2020-11-15T11:49:05Z</time>
      </trkpt>
      <trkpt lat="-40.1553810" lon="-71.3500290">
        <ele>652.8</ele>
        <time>2020-11-15T11:49:06Z</time>
      </trkpt>
      <trkpt lat="-40.1553680" lon="-71.3499830">
        <ele>652.8</ele>
        <time>2020-11-15T11:49:07Z</time>
      </trkpt>
      <trkpt lat="-40.1553550" lon="-71.3499350">
        <ele>652.8</ele>
        <time>2020-11-15T11:49:08Z</time>
      </trkpt>
      <trkpt lat="-40.1553410" lon="-71.3498860">
        <ele>652.8</ele>
        <time>2020-11-15T11:49:09Z</time>
      </trkpt>
      <trkpt lat="-40.1553270" lon="-71.3498360">
        <ele>652.8</ele>
        <time>2020-11-15T11:49:10Z</time>
      </trkpt>
      <trkpt lat="-40.1553110" lon="-71.3497850">
        <ele>652.8</ele>
        <time>2020-11-15T11:49:11Z</time>
      </trkpt>
      <trkpt lat="-40.1552970" lon="-71.3497340">
        <ele>652.9</ele>
        <time>2020-11-15T11:49:12Z</time>
      </trkpt>
      <trkpt lat="-40.1552820" lon="-71.3496810">
        <ele>652.9</ele>
        <time>2020-11-15T11:49:13Z</time>
      </trkpt>
      <trkpt lat="-40.1552670" lon="-71.3496270">
        <ele>652.9</ele>
        <time>2020-11-15T11:49:14Z</time>
      </trkpt>
      <trkpt lat="-40.1552510" lon="-71.3495730">
        <ele>652.9</ele>
        <time>2020-11-15T11:49:15Z</time>
      </trkpt>
      <trkpt lat="-40.1552360" lon="-71.3495210">
        <ele>653.0</ele>
        <time>2020-11-15T11:49:16Z</time>
      </trkpt>
      <trkpt lat="-40.1552220" lon="-71.3494690">
        <ele>653.0</ele>
        <time>2020-11-15T11:49:17Z</time>
      </trkpt>
      <trkpt lat="-40.1552080" lon="-71.3494180">
        <ele>653.0</ele>
        <time>2020-11-15T11:49:18Z</time>
      </trkpt>
      <trkpt lat="-40.1551940" lon="-71.3493660">
        <ele>653.0</ele>
        <time>2020-11-15T11:49:19Z</time>
      </trkpt>
      <trkpt lat="-40.1551810" lon="-71.3493160">
        <ele>653.1</ele>
        <time>2020-11-15T11:49:20Z</time>
      </trkpt>
      <trkpt lat="-40.1551670" lon="-71.3492660">
        <ele>653.1</ele>
        <time>2020-11-15T11:49:21Z</time>
      </trkpt>
      <trkpt lat="-40.1551540" lon="-71.3492170">
        <ele>653.1</ele>
        <time>2020-11-15T11:49:22Z</time>
      </trkpt>
      <trkpt lat="-40.1551420" lon="-71.3491690">
        <ele>653.1</ele>
        <time>2020-11-15T11:49:23Z</time>
      </trkpt>
      <trkpt lat="-40.1551300" lon="-71.3491200">
        <ele>653.2</ele>
        <time>2020-11-15T11:49:24Z</time>
      </trkpt>
      <trkpt lat="-40.1551230" lon="-71.3490720">
        <ele>653.2</ele>
        <time>2020-11-15T11:49:25Z</time>
      </trkpt>
      <trkpt lat="-40.1551220" lon="-71.3490270">
        <ele>653.2</ele>
        <time>2020-11-15T11:49:26Z</time>
      </trkpt>
      <trkpt lat="-40.1551280" lon="-71.3489850">
        <ele>653.2</ele>
        <time>2020-11-15T11:49:27Z</time>
      </trkpt>
      <trkpt lat="-40.1551400" lon="-71.3489450">
        <ele>653.3</ele>
        <time>2020-11-15T11:49:28Z</time>
      </trkpt>
      <trkpt lat="-40.1551590" lon="-71.3489110">
        <ele>653.3</ele>
        <time>2020-11-15T11:49:29Z</time>
      </trkpt>
      <trkpt lat="-40.1551840" lon="-71.3488820">
        <ele>653.3</ele>
        <time>2020-11-15T11:49:30Z</time>
      </trkpt>
      <trkpt lat="-40.1552120" lon="-71.3488570">
        <ele>653.3</ele>
        <time>2020-11-15T11:49:31Z</time>
      </trkpt>
      <trkpt lat="-40.1552450" lon="-71.3488350">
        <ele>653.3</ele>
        <time>2020-11-15T11:49:32Z</time>
      </trkpt>
      <trkpt lat="-40.1552800" lon="-71.3488140">
        <ele>653.3</ele>
        <time>2020-11-15T11:49:33Z</time>
      </trkpt>
      <trkpt lat="-40.1553180" lon="-71.3487930">
        <ele>653.3</ele>
        <time>2020-11-15T11:49:34Z</time>
      </trkpt>
      <trkpt lat="-40.1553560" lon="-71.3487710">
        <ele>653.3</ele>
        <time>2020-11-15T11:49:35Z</time>
      </trkpt>
      <trkpt lat="-40.1553940" lon="-71.3487500">
        <ele>653.3</ele>
        <time>2020-11-15T11:49:36Z</time>
      </trkpt>
      <trkpt lat="-40.1554320" lon="-71.3487280">
        <ele>653.4</ele>
        <time>2020-11-15T11:49:37Z</time>
      </trkpt>
      <trkpt lat="-40.1554710" lon="-71.3487060">
        <ele>653.4</ele>
        <time>2020-11-15T11:49:38Z</time>
      </trkpt>
      <trkpt lat="-40.1555110" lon="-71.3486840">
        <ele>653.4</ele>
        <time>2020-11-15T11:49:39Z</time>
      </trkpt>
      <trkpt lat="-40.1555500" lon="-71.3486640">
        <ele>653.4</ele>
        <time>2020-11-15T11:49:40Z</time>
      </trkpt>
      <trkpt lat="-40.1555900" lon="-71.3486430">
        <ele>653.4</ele>
        <time>2020-11-15T11:49:41Z</time>
      </trkpt>
      <trkpt lat="-40.1556290" lon="-71.3486210">
        <ele>653.4</ele>
        <time>2020-11-15T11:49:42Z</time>
      </trkpt>
      <trkpt lat="-40.1556680" lon="-71.3485970">
        <ele>653.4</ele>
        <time>2020-11-15T11:49:43Z</time>
      </trkpt>
      <trkpt lat="-40.1557050" lon="-71.3485750">
        <ele>653.5</ele>
        <time>2020-11-15T11:49:44Z</time>
      </trkpt>
      <trkpt lat="-40.1557410" lon="-71.3485530">
        <ele>653.5</ele>
        <time>2020-11-15T11:49:45Z</time>
      </trkpt>
      <trkpt lat="-40.1557760" lon="-71.3485330">
        <ele>653.5</ele>
        <time>2020-11-15T11:49:46Z</time>
      </trkpt>
      <trkpt lat="-40.1558110" lon="-71.3485130">
        <ele>653.5</ele>
        <time>2020-11-15T11:49:47Z</time>
      </trkpt>
      <trkpt lat="-40.1558460" lon="-71.3484940">
        <ele>653.5</ele>
        <time>2020-11-15T11:49:48Z</time>
      </trkpt>
      <trkpt lat="-40.1558800" lon="-71.3484760">
        <ele>653.5</ele>
        <time>2020-11-15T11:49:49Z</time>
      </trkpt>
      <trkpt lat="-40.1559160" lon="-71.3484630">
        <ele>653.5</ele>
        <time>2020-11-15T11:49:50Z</time>
      </trkpt>
      <trkpt lat="-40.1559500" lon="-71.3484570">
        <ele>653.6</ele>
        <time>2020-11-15T11:49:51Z</time>
      </trkpt>
      <trkpt lat="-40.1559760" lon="-71.3484600">
        <ele>653.6</ele>
        <time>2020-11-15T11:49:52Z</time>
      </trkpt>
      <trkpt lat="-40.1559950" lon="-71.3484710">
        <ele>653.6</ele>
        <time>2020-11-15T11:49:53Z</time>
      </trkpt>
      <trkpt lat="-40.1560080" lon="-71.3484890">
        <ele>653.3</ele>
        <time>2020-11-15T11:49:54Z</time>
      </trkpt>
      <trkpt lat="-40.1560180" lon="-71.3485120">
        <ele>653.3</ele>
        <time>2020-11-15T11:49:55Z</time>
      </trkpt>
      <trkpt lat="-40.1560250" lon="-71.3485380">
        <ele>653.1</ele>
        <time>2020-11-15T11:49:56Z</time>
      </trkpt>
      <trkpt lat="-40.1560320" lon="-71.3485640">
        <ele>653.0</ele>
        <time>2020-11-15T11:49:57Z</time>
      </trkpt>
      <trkpt lat="-40.1560410" lon="-71.3485910">
        <ele>653.0</ele>
        <time>2020-11-15T11:49:58Z</time>
      </trkpt>
      <trkpt lat="-40.1560520" lon="-71.3486170">
        <ele>653.0</ele>
        <time>2020-11-15T11:49:59Z</time>
      </trkpt>
      <trkpt lat="-40.1560630" lon="-71.3486440">
        <ele>653.0</ele>
        <time>2020-11-15T11:50:00Z</time>
      </trkpt>
      <trkpt lat="-40.1560740" lon="-71.3486690">
        <ele>653.0</ele>
        <time>2020-11-15T11:50:01Z</time>
      </trkpt>
      <trkpt lat="-40.1560830" lon="-71.3486950">
        <ele>653.0</ele>
        <time>2020-11-15T11:50:02Z</time>
      </trkpt>
      <trkpt lat="-40.1560910" lon="-71.3487210">
        <ele>653.0</ele>
        <time>2020-11-15T11:50:03Z</time>
      </trkpt>
      <trkpt lat="-40.1560980" lon="-71.3487470">
        <ele>653.0</ele>
        <time>2020-11-15T11:50:04Z</time>
      </trkpt>
      <trkpt lat="-40.1561030" lon="-71.3487730">
        <ele>653.0</ele>
        <time>2020-11-15T11:50:05Z</time>
      </trkpt>
      <trkpt lat="-40.1561040" lon="-71.3488000">
        <ele>653.0</ele>
        <time>2020-11-15T11:50:06Z</time>
      </trkpt>
      <trkpt lat="-40.1561010" lon="-71.3488240">
        <ele>653.0</ele>
        <time>2020-11-15T11:50:07Z</time>
      </trkpt>
      <trkpt lat="-40.1560940" lon="-71.3488450">
        <ele>653.0</ele>
        <time>2020-11-15T11:50:08Z</time>
      </trkpt>
      <trkpt lat="-40.1560850" lon="-71.3488650">
        <ele>653.0</ele>
        <time>2020-11-15T11:50:09Z</time>
      </trkpt>
      <trkpt lat="-40.1560750" lon="-71.3488810">
        <ele>653.0</ele>
        <time>2020-11-15T11:50:10Z</time>
      </trkpt>
      <trkpt lat="-40.1560640" lon="-71.3488970">
        <ele>653.0</ele>
        <time>2020-11-15T11:50:11Z</time>
      </trkpt>
      <trkpt lat="-40.1560540" lon="-71.3489100">
        <ele>653.0</ele>
        <time>2020-11-15T11:50:12Z</time>
      </trkpt>
      <trkpt lat="-40.1560430" lon="-71.3489200">
        <ele>653.0</ele>
        <time>2020-11-15T11:50:13Z</time>
      </trkpt>
      <trkpt lat="-40.1560330" lon="-71.3489290">
        <ele>653.0</ele>
        <time>2020-11-15T11:50:14Z</time>
      </trkpt>
      <trkpt lat="-40.1560250" lon="-71.3489370">
        <ele>653.0</ele>
        <time>2020-11-15T11:50:15Z</time>
      </trkpt>
      <trkpt lat="-40.1560210" lon="-71.3489440">
        <ele>653.0</ele>
        <time>2020-11-15T11:50:16Z</time>
      </trkpt>
      <trkpt lat="-40.1560120" lon="-71.3489670">
        <ele>653.0</ele>
        <time>2020-11-15T11:50:19Z</time>
      </trkpt>
      <trkpt lat="-40.1560090" lon="-71.3489690">
        <ele>653.0</ele>
        <time>2020-11-15T11:50:20Z</time>
      </trkpt>
      <trkpt lat="-40.1560080" lon="-71.3489710">
        <ele>653.0</ele>
        <time>2020-11-15T11:50:21Z</time>
      </trkpt>
      <trkpt lat="-40.1560080" lon="-71.3489730">
        <ele>653.0</ele>
        <time>2020-11-15T11:50:22Z</time>
      </trkpt>
      <trkpt lat="-40.1560070" lon="-71.3489750">
        <ele>653.0</ele>
        <time>2020-11-15T11:50:23Z</time>
      </trkpt>
      <trkpt lat="-40.1560090" lon="-71.3489780">
        <ele>653.0</ele>
        <time>2020-11-15T11:50:24Z</time>
      </trkpt>
      <trkpt lat="-40.1560060" lon="-71.3489850">
        <ele>653.0</ele>
        <time>2020-11-15T11:50:25Z</time>
      </trkpt>
      <trkpt lat="-40.1560040" lon="-71.3489900">
        <ele>653.0</ele>
        <time>2020-11-15T11:50:26Z</time>
      </trkpt>
      <trkpt lat="-40.1559970" lon="-71.3489970">
        <ele>653.0</ele>
        <time>2020-11-15T11:50:28Z</time>
      </trkpt>
      <trkpt lat="-40.1559960" lon="-71.3489970">
        <ele>653.0</ele>
        <time>2020-11-15T11:50:29Z</time>
      </trkpt>
      <trkpt lat="-40.1559940" lon="-71.3489960">
        <ele>653.0</ele>
        <time>2020-11-15T11:50:30Z</time>
      </trkpt>
      <trkpt lat="-40.1559940" lon="-71.3489930">
        <ele>653.0</ele>
        <time>2020-11-15T11:50:31Z</time>
      </trkpt>
      <trkpt lat="-40.1559930" lon="-71.3489910">
        <ele>653.0</ele>
        <time>2020-11-15T11:50:32Z</time>
      </trkpt>
      <trkpt lat="-40.1559920" lon="-71.3489870">
        <ele>653.0</ele>
        <time>2020-11-15T11:50:33Z</time>
      </trkpt>
      <trkpt lat="-40.1559900" lon="-71.3489820">
        <ele>653.0</ele>
        <time>2020-11-15T11:50:34Z</time>
      </trkpt>
      <trkpt lat="-40.1559870" lon="-71.3489750">
        <ele>653.0</ele>
        <time>2020-11-15T11:50:35Z</time>
      </trkpt>
      <trkpt lat="-40.1559850" lon="-71.3489740">
        <ele>653.0</ele>
        <time>2020-11-15T11:50:36Z</time>
      </trkpt>
      <trkpt lat="-40.1559840" lon="-71.3489720">
        <ele>653.0</ele>
        <time>2020-11-15T11:50:37Z</time>
      </trkpt>
      <trkpt lat="-40.1559850" lon="-71.3489690">
        <ele>653.0</ele>
        <time>2020-11-15T11:50:38Z</time>
      </trkpt>
      <trkpt lat="-40.1559880" lon="-71.3489680">
        <ele>653.0</ele>
        <time>2020-11-15T11:50:39Z</time>
      </trkpt>
      <trkpt lat="-40.1559930" lon="-71.3489690">
        <ele>653.0</ele>
        <time>2020-11-15T11:50:40Z</time>
      </trkpt>
      <trkpt lat="-40.1559980" lon="-71.3489710">
        <ele>653.0</ele>
        <time>2020-11-15T11:50:41Z</time>
      </trkpt>
      <trkpt lat="-40.1560080" lon="-71.3489780">
        <ele>653.0</ele>
        <time>2020-11-15T11:50:42Z</time>
      </trkpt>
      <trkpt lat="-40.1560170" lon="-71.3489810">
        <ele>653.0</ele>
        <time>2020-11-15T11:50:43Z</time>
      </trkpt>
      <trkpt lat="-40.1560210" lon="-71.3489820">
        <ele>653.0</ele>
        <time>2020-11-15T11:50:44Z</time>
      </trkpt>
      <trkpt lat="-40.1560240" lon="-71.3489820">
        <ele>653.0</ele>
        <time>2020-11-15T11:50:45Z</time>
      </trkpt>
      <trkpt lat="-40.1560380" lon="-71.3489830">
        <ele>653.0</ele>
        <time>2020-11-15T11:50:59Z</time>
      </trkpt>
      <trkpt lat="-40.1560360" lon="-71.3489840">
        <ele>653.1</ele>
        <time>2020-11-15T11:51:00Z</time>
      </trkpt>
      <trkpt lat="-40.1560330" lon="-71.3489860">
        <ele>653.1</ele>
        <time>2020-11-15T11:51:01Z</time>
      </trkpt>
      <trkpt lat="-40.1560280" lon="-71.3489870">
        <ele>653.1</ele>
        <time>2020-11-15T11:51:02Z</time>
      </trkpt>
      <trkpt lat="-40.1560240" lon="-71.3489910">
        <ele>653.1</ele>
        <time>2020-11-15T11:51:03Z</time>
      </trkpt>
      <trkpt lat="-40.1560200" lon="-71.3489940">
        <ele>653.1</ele>
        <time>2020-11-15T11:51:04Z</time>
      </trkpt>
      <trkpt lat="-40.1560080" lon="-71.3490020">
        <ele>653.1</ele>
        <time>2020-11-15T11:51:08Z</time>
      </trkpt>
      <trkpt lat="-40.1560090" lon="-71.3490020">
        <ele>653.1</ele>
        <time>2020-11-15T11:51:09Z</time>
      </trkpt>
      <trkpt lat="-40.1560120" lon="-71.3490020">
        <ele>653.1</ele>
        <time>2020-11-15T11:51:10Z</time>
      </trkpt>
      <trkpt lat="-40.1560170" lon="-71.3490000">
        <ele>653.1</ele>
        <time>2020-11-15T11:51:12Z</time>
      </trkpt>
      <trkpt lat="-40.1560220" lon="-71.3490000">
        <ele>653.1</ele>
        <time>2020-11-15T11:51:13Z</time>
      </trkpt>
      <trkpt lat="-40.1560300" lon="-71.3489970">
        <ele>653.1</ele>
        <time>2020-11-15T11:51:14Z</time>
      </trkpt>
      <trkpt lat="-40.1560400" lon="-71.3489940">
        <ele>653.1</ele>
        <time>2020-11-15T11:51:15Z</time>
      </trkpt>
      <trkpt lat="-40.1560480" lon="-71.3489940">
        <ele>653.1</ele>
        <time>2020-11-15T11:51:16Z</time>
      </trkpt>
      <trkpt lat="-40.1560560" lon="-71.3490020">
        <ele>653.1</ele>
        <time>2020-11-15T11:51:17Z</time>
      </trkpt>
      <trkpt lat="-40.1560620" lon="-71.3490060">
        <ele>653.1</ele>
        <time>2020-11-15T11:51:18Z</time>
      </trkpt>
      <trkpt lat="-40.1560650" lon="-71.3490090">
        <ele>653.1</ele>
        <time>2020-11-15T11:51:19Z</time>
      </trkpt>
      <trkpt lat="-40.1560650" lon="-71.3490110">
        <ele>653.1</ele>
        <time>2020-11-15T11:51:20Z</time>
      </trkpt>
      <trkpt lat="-40.1560650" lon="-71.3490100">
        <ele>653.1</ele>
        <time>2020-11-15T11:51:21Z</time>
      </trkpt>
      <trkpt lat="-40.1560330" lon="-71.3489950">
        <ele>653.1</ele>
        <time>2020-11-15T11:51:29Z</time>
      </trkpt>
      <trkpt lat="-40.1560330" lon="-71.3489940">
        <ele>653.1</ele>
        <time>2020-11-15T11:51:30Z</time>
      </trkpt>
      <trkpt lat="-40.1560300" lon="-71.3489900">
        <ele>653.1</ele>
        <time>2020-11-15T11:51:31Z</time>
      </trkpt>
      <trkpt lat="-40.1560260" lon="-71.3489870">
        <ele>653.1</ele>
        <time>2020-11-15T11:51:32Z</time>
      </trkpt>
      <trkpt lat="-40.1560200" lon="-71.3489840">
        <ele>653.1</ele>
        <time>2020-11-15T11:51:33Z</time>
      </trkpt>
      <trkpt lat="-40.1560150" lon="-71.3489820">
        <ele>653.1</ele>
        <time>2020-11-15T11:51:34Z</time>
      </trkpt>
      <trkpt lat="-40.1560070" lon="-71.3489830">
        <ele>653.1</ele>
        <time>2020-11-15T11:51:35Z</time>
      </trkpt>
      <trkpt lat="-40.1560020" lon="-71.3489850">
        <ele>653.1</ele>
        <time>2020-11-15T11:51:36Z</time>
      </trkpt>
      <trkpt lat="-40.1559980" lon="-71.3489860">
        <ele>653.1</ele>
        <time>2020-11-15T11:51:37Z</time>
      </trkpt>
      <trkpt lat="-40.1559900" lon="-71.3489850">
        <ele>653.1</ele>
        <time>2020-11-15T11:51:38Z</time>
      </trkpt>
      <trkpt lat="-40.1559820" lon="-71.3489820">
        <ele>653.0</ele>
        <time>2020-11-15T11:51:39Z</time>
      </trkpt>
      <trkpt lat="-40.1559710" lon="-71.3489800">
        <ele>653.0</ele>
        <time>2020-11-15T11:51:40Z</time>
      </trkpt>
      <trkpt lat="-40.1559590" lon="-71.3489750">
        <ele>653.0</ele>
        <time>2020-11-15T11:51:41Z</time>
      </trkpt>
      <trkpt lat="-40.1559420" lon="-71.3489740">
        <ele>652.7</ele>
        <time>2020-11-15T11:51:42Z</time>
      </trkpt>
      <trkpt lat="-40.1559240" lon="-71.3489730">
        <ele>652.7</ele>
        <time>2020-11-15T11:51:43Z</time>
      </trkpt>
      <trkpt lat="-40.1559180" lon="-71.3489690">
        <ele>652.7</ele>
        <time>2020-11-15T11:51:44Z</time>
      </trkpt>
      <trkpt lat="-40.1559160" lon="-71.3489680">
        <ele>652.5</ele>
        <time>2020-11-15T11:51:45Z</time>
      </trkpt>
      <trkpt lat="-40.1559140" lon="-71.3489760">
        <ele>652.5</ele>
        <time>2020-11-15T11:51:46Z</time>
      </trkpt>
      <trkpt lat="-40.1559120" lon="-71.3489820">
        <ele>652.5</ele>
        <time>2020-11-15T11:51:47Z</time>
      </trkpt>
      <trkpt lat="-40.1559030" lon="-71.3489720">
        <ele>652.5</ele>
        <time>2020-11-15T11:51:48Z</time>
      </trkpt>
      <trkpt lat="-40.1558890" lon="-71.3489540">
        <ele>652.5</ele>
        <time>2020-11-15T11:51:49Z</time>
      </trkpt>
      <trkpt lat="-40.1558770" lon="-71.3489430">
        <ele>652.3</ele>
        <time>2020-11-15T11:51:50Z</time>
      </trkpt>
      <trkpt lat="-40.1558680" lon="-71.3489350">
        <ele>652.3</ele>
        <time>2020-11-15T11:51:51Z</time>
      </trkpt>
      <trkpt lat="-40.1558660" lon="-71.3489250">
        <ele>652.3</ele>
        <time>2020-11-15T11:51:52Z</time>
      </trkpt>
      <trkpt lat="-40.1558650" lon="-71.3489150">
        <ele>652.3</ele>
        <time>2020-11-15T11:51:53Z</time>
      </trkpt>
      <trkpt lat="-40.1558650" lon="-71.3489060">
        <ele>652.3</ele>
        <time>2020-11-15T11:51:54Z</time>
      </trkpt>
      <trkpt lat="-40.1558730" lon="-71.3489040">
        <ele>652.3</ele>
        <time>2020-11-15T11:51:55Z</time>
      </trkpt>
      <trkpt lat="-40.1558840" lon="-71.3489030">
        <ele>652.3</ele>
        <time>2020-11-15T11:51:56Z</time>
      </trkpt>
      <trkpt lat="-40.1559000" lon="-71.3489090">
        <ele>652.5</ele>
        <time>2020-11-15T11:51:58Z</time>
      </trkpt>
      <trkpt lat="-40.1558980" lon="-71.3489160">
        <ele>652.5</ele>
        <time>2020-11-15T11:51:59Z</time>
      </trkpt>
      <trkpt lat="-40.1558950" lon="-71.3489220">
        <ele>652.5</ele>
        <time>2020-11-15T11:52:00Z</time>
      </trkpt>
      <trkpt lat="-40.1558900" lon="-71.3489250">
        <ele>652.5</ele>
        <time>2020-11-15T11:52:01Z</time>
      </trkpt>
      <trkpt lat="-40.1558770" lon="-71.3489230">
        <ele>652.3</ele>
        <time>2020-11-15T11:52:02Z</time>
      </trkpt>
      <trkpt lat="-40.1558650" lon="-71.3489230">
        <ele>652.3</ele>
        <time>2020-11-15T11:52:03Z</time>
      </trkpt>
      <trkpt lat="-40.1558470" lon="-71.3489080">
        <ele>652.1</ele>
        <time>2020-11-15T11:52:04Z</time>
      </trkpt>
      <trkpt lat="-40.1558120" lon="-71.3488780">
        <ele>652.1</ele>
        <time>2020-11-15T11:52:05Z</time>
      </trkpt>
      <trkpt lat="-40.1557710" lon="-71.3488360">
        <ele>652.1</ele>
        <time>2020-11-15T11:52:06Z</time>
      </trkpt>
      <trkpt lat="-40.1557470" lon="-71.3488220">
        <ele>652.1</ele>
        <time>2020-11-15T11:52:07Z</time>
      </trkpt>
      <trkpt lat="-40.1557270" lon="-71.3488100">
        <ele>652.1</ele>
        <time>2020-11-15T11:52:08Z</time>
      </trkpt>
      <trkpt lat="-40.1557120" lon="-71.3488010">
        <ele>652.1</ele>
        <time>2020-11-15T11:52:09Z</time>
      </trkpt>
      <trkpt lat="-40.1557070" lon="-71.3488000">
        <ele>652.1</ele>
        <time>2020-11-15T11:52:10Z</time>
      </trkpt>
      <trkpt lat="-40.1557020" lon="-71.3488020">
        <ele>652.1</ele>
        <time>2020-11-15T11:52:11Z</time>
      </trkpt>
      <trkpt lat="-40.1556960" lon="-71.3488080">
        <ele>652.1</ele>
        <time>2020-11-15T11:52:12Z</time>
      </trkpt>
      <trkpt lat="-40.1557070" lon="-71.3488180">
        <ele>652.1</ele>
        <time>2020-11-15T11:52:13Z</time>
      </trkpt>
      <trkpt lat="-40.1557300" lon="-71.3488310">
        <ele>652.1</ele>
        <time>2020-11-15T11:52:14Z</time>
      </trkpt>
      <trkpt lat="-40.1557550" lon="-71.3488500">
        <ele>652.1</ele>
        <time>2020-11-15T11:52:15Z</time>
      </trkpt>
      <trkpt lat="-40.1557810" lon="-71.3488620">
        <ele>652.1</ele>
        <time>2020-11-15T11:52:16Z</time>
      </trkpt>
      <trkpt lat="-40.1558100" lon="-71.3488700">
        <ele>652.1</ele>
        <time>2020-11-15T11:52:17Z</time>
      </trkpt>
      <trkpt lat="-40.1558400" lon="-71.3488710">
        <ele>652.1</ele>
        <time>2020-11-15T11:52:18Z</time>
      </trkpt>
      <trkpt lat="-40.1558730" lon="-71.3488680">
        <ele>652.3</ele>
        <time>2020-11-15T11:52:19Z</time>
      </trkpt>
      <trkpt lat="-40.1558950" lon="-71.3488680">
        <ele>652.5</ele>
        <time>2020-11-15T11:52:20Z</time>
      </trkpt>
      <trkpt lat="-40.1559110" lon="-71.3488710">
        <ele>652.5</ele>
        <time>2020-11-15T11:52:21Z</time>
      </trkpt>
      <trkpt lat="-40.1559160" lon="-71.3488770">
        <ele>652.5</ele>
        <time>2020-11-15T11:52:22Z</time>
      </trkpt>
      <trkpt lat="-40.1559170" lon="-71.3488830">
        <ele>652.5</ele>
        <time>2020-11-15T11:52:23Z</time>
      </trkpt>
      <trkpt lat="-40.1559240" lon="-71.3488910">
        <ele>652.8</ele>
        <time>2020-11-15T11:52:24Z</time>
      </trkpt>
      <trkpt lat="-40.1559280" lon="-71.3488980">
        <ele>652.8</ele>
        <time>2020-11-15T11:52:25Z</time>
      </trkpt>
      <trkpt lat="-40.1559530" lon="-71.3489060">
        <ele>653.0</ele>
        <time>2020-11-15T11:52:26Z</time>
      </trkpt>
      <trkpt lat="-40.1559830" lon="-71.3489120">
        <ele>653.1</ele>
        <time>2020-11-15T11:52:27Z</time>
      </trkpt>
      <trkpt lat="-40.1560090" lon="-71.3489220">
        <ele>653.1</ele>
        <time>2020-11-15T11:52:28Z</time>
      </trkpt>
      <trkpt lat="-40.1560310" lon="-71.3489480">
        <ele>653.1</ele>
        <time>2020-11-15T11:52:29Z</time>
      </trkpt>
      <trkpt lat="-40.1560460" lon="-71.3489650">
        <ele>653.1</ele>
        <time>2020-11-15T11:52:30Z</time>
      </trkpt>
      <trkpt lat="-40.1560540" lon="-71.3489740">
        <ele>653.1</ele>
        <time>2020-11-15T11:52:31Z</time>
      </trkpt>
      <trkpt lat="-40.1560560" lon="-71.3489780">
        <ele>653.1</ele>
        <time>2020-11-15T11:52:32Z</time>
      </trkpt>
      <trkpt lat="-40.1560560" lon="-71.3489790">
        <ele>653.1</ele>
        <time>2020-11-15T11:52:33Z</time>
      </trkpt>
      <trkpt lat="-40.1560590" lon="-71.3489860">
        <ele>653.1</ele>
        <time>2020-11-15T11:52:34Z</time>
      </trkpt>
      <trkpt lat="-40.1560630" lon="-71.3489970">
        <ele>653.1</ele>
        <time>2020-11-15T11:52:35Z</time>
      </trkpt>
      <trkpt lat="-40.1560720" lon="-71.3490100">
        <ele>653.1</ele>
        <time>2020-11-15T11:52:36Z</time>
      </trkpt>
      <trkpt lat="-40.1560850" lon="-71.3490230">
        <ele>653.1</ele>
        <time>2020-11-15T11:52:37Z</time>
      </trkpt>
      <trkpt lat="-40.1560960" lon="-71.3490440">
        <ele>653.1</ele>
        <time>2020-11-15T11:52:38Z</time>
      </trkpt>
      <trkpt lat="-40.1561070" lon="-71.3490680">
        <ele>653.2</ele>
        <time>2020-11-15T11:52:39Z</time>
      </trkpt>
      <trkpt lat="-40.1561210" lon="-71.3490980">
        <ele>653.2</ele>
        <time>2020-11-15T11:52:40Z</time>
      </trkpt>
      <trkpt lat="-40.1561330" lon="-71.3491190">
        <ele>653.2</ele>
        <time>2020-11-15T11:52:41Z</time>
      </trkpt>
      <trkpt lat="-40.1561350" lon="-71.3491320">
        <ele>653.2</ele>
        <time>2020-11-15T11:52:42Z</time>
      </trkpt>
      <trkpt lat="-40.1561350" lon="-71.3491460">
        <ele>653.2</ele>
        <time>2020-11-15T11:52:43Z</time>
      </trkpt>
      <trkpt lat="-40.1561380" lon="-71.3491590">
        <ele>653.2</ele>
        <time>2020-11-15T11:52:44Z</time>
      </trkpt>
      <trkpt lat="-40.1561380" lon="-71.3491730">
        <ele>653.2</ele>
        <time>2020-11-15T11:52:45Z</time>
      </trkpt>
      <trkpt lat="-40.1561380" lon="-71.3491850">
        <ele>653.2</ele>
        <time>2020-11-15T11:52:46Z</time>
      </trkpt>
      <trkpt lat="-40.1561370" lon="-71.3491970">
        <ele>653.2</ele>
        <time>2020-11-15T11:52:47Z</time>
      </trkpt>
      <trkpt lat="-40.1561310" lon="-71.3492020">
        <ele>653.2</ele>
        <time>2020-11-15T11:52:48Z</time>
      </trkpt>
      <trkpt lat="-40.1561180" lon="-71.3491900">
        <ele>653.2</ele>
        <time>2020-11-15T11:52:49Z</time>
      </trkpt>
      <trkpt lat="-40.1561000" lon="-71.3491630">
        <ele>653.2</ele>
        <time>2020-11-15T11:52:50Z</time>
      </trkpt>
      <trkpt lat="-40.1560830" lon="-71.3491390">
        <ele>653.2</ele>
        <time>2020-11-15T11:52:51Z</time>
      </trkpt>
      <trkpt lat="-40.1560680" lon="-71.3491220">
        <ele>653.2</ele>
        <time>2020-11-15T11:52:52Z</time>
      </trkpt>
      <trkpt lat="-40.1560530" lon="-71.3491090">
        <ele>653.2</ele>
        <time>2020-11-15T11:52:53Z</time>
      </trkpt>
      <trkpt lat="-40.1560340" lon="-71.3491020">
        <ele>653.2</ele>
        <time>2020-11-15T11:52:54Z</time>
      </trkpt>
      <trkpt lat="-40.1560200" lon="-71.3490960">
        <ele>653.2</ele>
        <time>2020-11-15T11:52:55Z</time>
      </trkpt>
      <trkpt lat="-40.1560040" lon="-71.3490840">
        <ele>653.2</ele>
        <time>2020-11-15T11:52:56Z</time>
      </trkpt>
      <trkpt lat="-40.1559770" lon="-71.3490540">
        <ele>653.1</ele>
        <time>2020-11-15T11:52:57Z</time>
      </trkpt>
      <trkpt lat="-40.1559530" lon="-71.3490190">
        <ele>653.1</ele>
        <time>2020-11-15T11:52:58Z</time>
      </trkpt>
      <trkpt lat="-40.1559380" lon="-71.3489900">
        <ele>652.8</ele>
        <time>2020-11-15T11:52:59Z</time>
      </trkpt>
      <trkpt lat="-40.1559320" lon="-71.3489690">
        <ele>652.8</ele>
        <time>2020-11-15T11:53:00Z</time>
      </trkpt>
      <trkpt lat="-40.1559330" lon="-71.3489520">
        <ele>652.8</ele>
        <time>2020-11-15T11:53:01Z</time>
      </trkpt>
      <trkpt lat="-40.1559390" lon="-71.3489330">
        <ele>652.8</ele>
        <time>2020-11-15T11:53:02Z</time>
      </trkpt>
      <trkpt lat="-40.1559440" lon="-71.3489110">
        <ele>652.8</ele>
        <time>2020-11-15T11:53:03Z</time>
      </trkpt>
      <trkpt lat="-40.1559470" lon="-71.3488880">
        <ele>652.8</ele>
        <time>2020-11-15T11:53:04Z</time>
      </trkpt>
      <trkpt lat="-40.1559460" lon="-71.3488670">
        <ele>652.8</ele>
        <time>2020-11-15T11:53:05Z</time>
      </trkpt>
      <trkpt lat="-40.1559370" lon="-71.3488460">
        <ele>652.8</ele>
        <time>2020-11-15T11:53:06Z</time>
      </trkpt>
      <trkpt lat="-40.1559240" lon="-71.3488220">
        <ele>652.8</ele>
        <time>2020-11-15T11:53:07Z</time>
      </trkpt>
      <trkpt lat="-40.1559050" lon="-71.3487880">
        <ele>652.6</ele>
        <time>2020-11-15T11:53:08Z</time>
      </trkpt>
      <trkpt lat="-40.1558840" lon="-71.3487370">
        <ele>652.3</ele>
        <time>2020-11-15T11:53:10Z</time>
      </trkpt>
      <trkpt lat="-40.1558780" lon="-71.3487250">
        <ele>652.4</ele>
        <time>2020-11-15T11:53:11Z</time>
      </trkpt>
      <trkpt lat="-40.1558570" lon="-71.3487050">
        <ele>652.4</ele>
        <time>2020-11-15T11:53:12Z</time>
      </trkpt>
      <trkpt lat="-40.1558400" lon="-71.3487160">
        <ele>652.3</ele>
        <time>2020-11-15T11:53:13Z</time>
      </trkpt>
      <trkpt lat="-40.1558360" lon="-71.3487710">
        <ele>652.2</ele>
        <time>2020-11-15T11:53:14Z</time>
      </trkpt>
      <trkpt lat="-40.1558760" lon="-71.3488850">
        <ele>652.4</ele>
        <time>2020-11-15T11:53:15Z</time>
      </trkpt>
      <trkpt lat="-40.1559060" lon="-71.3489640">
        <ele>652.6</ele>
        <time>2020-11-15T11:53:16Z</time>
      </trkpt>
      <trkpt lat="-40.1559260" lon="-71.3490180">
        <ele>652.9</ele>
        <time>2020-11-15T11:53:17Z</time>
      </trkpt>
      <trkpt lat="-40.1559410" lon="-71.3490520">
        <ele>652.9</ele>
        <time>2020-11-15T11:53:18Z</time>
      </trkpt>
      <trkpt lat="-40.1559540" lon="-71.3490790">
        <ele>653.1</ele>
        <time>2020-11-15T11:53:19Z</time>
      </trkpt>
      <trkpt lat="-40.1559850" lon="-71.3491450">
        <ele>653.2</ele>
        <time>2020-11-15T11:53:22Z</time>
      </trkpt>
      <trkpt lat="-40.1559820" lon="-71.3491430">
        <ele>653.1</ele>
        <time>2020-11-15T11:53:23Z</time>
      </trkpt>
      <trkpt lat="-40.1559820" lon="-71.3491440">
        <ele>653.1</ele>
        <time>2020-11-15T11:53:24Z</time>
      </trkpt>
      <trkpt lat="-40.1559800" lon="-71.3491420">
        <ele>653.1</ele>
        <time>2020-11-15T11:53:25Z</time>
      </trkpt>
      <trkpt lat="-40.1560070" lon="-71.3491580">
        <ele>653.2</ele>
        <time>2020-11-15T11:53:27Z</time>
      </trkpt>
      <trkpt lat="-40.1560010" lon="-71.3491460">
        <ele>653.2</ele>
        <time>2020-11-15T11:53:28Z</time>
      </trkpt>
      <trkpt lat="-40.1559910" lon="-71.3491260">
        <ele>653.2</ele>
        <time>2020-11-15T11:53:29Z</time>
      </trkpt>
      <trkpt lat="-40.1559650" lon="-71.3490930">
        <ele>653.1</ele>
        <time>2020-11-15T11:53:30Z</time>
      </trkpt>
      <trkpt lat="-40.1559540" lon="-71.3490660">
        <ele>653.1</ele>
        <time>2020-11-15T11:53:31Z</time>
      </trkpt>
      <trkpt lat="-40.1559470" lon="-71.3490480">
        <ele>652.9</ele>
        <time>2020-11-15T11:53:32Z</time>
      </trkpt>
      <trkpt lat="-40.1559440" lon="-71.3490380">
        <ele>652.9</ele>
        <time>2020-11-15T11:53:33Z</time>
      </trkpt>
      <trkpt lat="-40.1559390" lon="-71.3490320">
        <ele>652.9</ele>
        <time>2020-11-15T11:53:34Z</time>
      </trkpt>
      <trkpt lat="-40.1559350" lon="-71.3490260">
        <ele>652.9</ele>
        <time>2020-11-15T11:53:35Z</time>
      </trkpt>
      <trkpt lat="-40.1559340" lon="-71.3490190">
        <ele>652.9</ele>
        <time>2020-11-15T11:53:36Z</time>
      </trkpt>
      <trkpt lat="-40.1559320" lon="-71.3490100">
        <ele>652.9</ele>
        <time>2020-11-15T11:53:37Z</time>
      </trkpt>
      <trkpt lat="-40.1559340" lon="-71.3490000">
        <ele>652.9</ele>
        <time>2020-11-15T11:53:38Z</time>
      </trkpt>
      <trkpt lat="-40.1559350" lon="-71.3489950">
        <ele>652.9</ele>
        <time>2020-11-15T11:53:39Z</time>
      </trkpt>
      <trkpt lat="-40.1559370" lon="-71.3489910">
        <ele>652.9</ele>
        <time>2020-11-15T11:53:40Z</time>
      </trkpt>
      <trkpt lat="-40.1559420" lon="-71.3489830">
        <ele>652.9</ele>
        <time>2020-11-15T11:53:41Z</time>
      </trkpt>
      <trkpt lat="-40.1559430" lon="-71.3489670">
        <ele>652.9</ele>
        <time>2020-11-15T11:53:42Z</time>
      </trkpt>
      <trkpt lat="-40.1559540" lon="-71.3489520">
        <ele>653.1</ele>
        <time>2020-11-15T11:53:43Z</time>
      </trkpt>
      <trkpt lat="-40.1559600" lon="-71.3489380">
        <ele>653.1</ele>
        <time>2020-11-15T11:53:44Z</time>
      </trkpt>
      <trkpt lat="-40.1559720" lon="-71.3489310">
        <ele>653.1</ele>
        <time>2020-11-15T11:53:45Z</time>
      </trkpt>
      <trkpt lat="-40.1559860" lon="-71.3489280">
        <ele>653.2</ele>
        <time>2020-11-15T11:53:46Z</time>
      </trkpt>
      <trkpt lat="-40.1560040" lon="-71.3489340">
        <ele>653.2</ele>
        <time>2020-11-15T11:53:47Z</time>
      </trkpt>
      <trkpt lat="-40.1560200" lon="-71.3489490">
        <ele>653.2</ele>
        <time>2020-11-15T11:53:48Z</time>
      </trkpt>
      <trkpt lat="-40.1560600" lon="-71.3489680">
        <ele>653.2</ele>
        <time>2020-11-15T11:53:50Z</time>
      </trkpt>
      <trkpt lat="-40.1560630" lon="-71.3489670">
        <ele>653.2</ele>
        <time>2020-11-15T11:53:51Z</time>
      </trkpt>
      <trkpt lat="-40.1560690" lon="-71.3489650">
        <ele>653.2</ele>
        <time>2020-11-15T11:53:52Z</time>
      </trkpt>
      <trkpt lat="-40.1560760" lon="-71.3489660">
        <ele>653.2</ele>
        <time>2020-11-15T11:53:53Z</time>
      </trkpt>
      <trkpt lat="-40.1560830" lon="-71.3489650">
        <ele>653.2</ele>
        <time>2020-11-15T11:53:54Z</time>
      </trkpt>
      <trkpt lat="-40.1560740" lon="-71.3489730">
        <ele>653.2</ele>
        <time>2020-11-15T11:53:55Z</time>
      </trkpt>
      <trkpt lat="-40.1560660" lon="-71.3489810">
        <ele>653.2</ele>
        <time>2020-11-15T11:53:56Z</time>
      </trkpt>
      <trkpt lat="-40.1560580" lon="-71.3489850">
        <ele>653.2</ele>
        <time>2020-11-15T11:53:57Z</time>
      </trkpt>
      <trkpt lat="-40.1560520" lon="-71.3489900">
        <ele>653.2</ele>
        <time>2020-11-15T11:53:58Z</time>
      </trkpt>
      <trkpt lat="-40.1560420" lon="-71.3489910">
        <ele>653.2</ele>
        <time>2020-11-15T11:53:59Z</time>
      </trkpt>
      <trkpt lat="-40.1560290" lon="-71.3489920">
        <ele>653.2</ele>
        <time>2020-11-15T11:54:00Z</time>
      </trkpt>
      <trkpt lat="-40.1560160" lon="-71.3489900">
        <ele>653.2</ele>
        <time>2020-11-15T11:54:01Z</time>
      </trkpt>
      <trkpt lat="-40.1560050" lon="-71.3489840">
        <ele>653.2</ele>
        <time>2020-11-15T11:54:02Z</time>
      </trkpt>
      <trkpt lat="-40.1559950" lon="-71.3489760">
        <ele>653.2</ele>
        <time>2020-11-15T11:54:03Z</time>
      </trkpt>
      <trkpt lat="-40.1559910" lon="-71.3489710">
        <ele>653.2</ele>
        <time>2020-11-15T11:54:04Z</time>
      </trkpt>
      <trkpt lat="-40.1559930" lon="-71.3489710">
        <ele>653.2</ele>
        <time>2020-11-15T11:54:05Z</time>
      </trkpt>
      <trkpt lat="-40.1560100" lon="-71.3489920">
        <ele>653.2</ele>
        <time>2020-11-15T11:54:06Z</time>
      </trkpt>
      <trkpt lat="-40.1560360" lon="-71.3490240">
        <ele>653.2</ele>
        <time>2020-11-15T11:54:07Z</time>
      </trkpt>
      <trkpt lat="-40.1560590" lon="-71.3490500">
        <ele>653.2</ele>
        <time>2020-11-15T11:54:08Z</time>
      </trkpt>
      <trkpt lat="-40.1560770" lon="-71.3490640">
        <ele>653.2</ele>
        <time>2020-11-15T11:54:09Z</time>
      </trkpt>
      <trkpt lat="-40.1560860" lon="-71.3490680">
        <ele>653.2</ele>
        <time>2020-11-15T11:54:10Z</time>
      </trkpt>
      <trkpt lat="-40.1560960" lon="-71.3490750">
        <ele>653.2</ele>
        <time>2020-11-15T11:54:11Z</time>
      </trkpt>
      <trkpt lat="-40.1560940" lon="-71.3490600">
        <ele>653.3</ele>
        <time>2020-11-15T11:54:12Z</time>
      </trkpt>
      <trkpt lat="-40.1560860" lon="-71.3490340">
        <ele>653.3</ele>
        <time>2020-11-15T11:54:13Z</time>
      </trkpt>
      <trkpt lat="-40.1560770" lon="-71.3490200">
        <ele>653.3</ele>
        <time>2020-11-15T11:54:14Z</time>
      </trkpt>
      <trkpt lat="-40.1560720" lon="-71.3490070">
        <ele>653.3</ele>
        <time>2020-11-15T11:54:15Z</time>
      </trkpt>
      <trkpt lat="-40.1560790" lon="-71.3489950">
        <ele>653.3</ele>
        <time>2020-11-15T11:54:16Z</time>
      </trkpt>
      <trkpt lat="-40.1560840" lon="-71.3489840">
        <ele>653.3</ele>
        <time>2020-11-15T11:54:17Z</time>
      </trkpt>
      <trkpt lat="-40.1560880" lon="-71.3489760">
        <ele>653.3</ele>
        <time>2020-11-15T11:54:18Z</time>
      </trkpt>
      <trkpt lat="-40.1560960" lon="-71.3489790">
        <ele>653.3</ele>
        <time>2020-11-15T11:54:19Z</time>
      </trkpt>
      <trkpt lat="-40.1560800" lon="-71.3489740">
        <ele>653.3</ele>
        <time>2020-11-15T11:54:20Z</time>
      </trkpt>
      <trkpt lat="-40.1560700" lon="-71.3490110">
        <ele>653.3</ele>
        <time>2020-11-15T11:54:21Z</time>
      </trkpt>
      <trkpt lat="-40.1560580" lon="-71.3490330">
        <ele>653.3</ele>
        <time>2020-11-15T11:54:22Z</time>
      </trkpt>
      <trkpt lat="-40.1560500" lon="-71.3490500">
        <ele>653.3</ele>
        <time>2020-11-15T11:54:23Z</time>
      </trkpt>
      <trkpt lat="-40.1560340" lon="-71.3490710">
        <ele>653.3</ele>
        <time>2020-11-15T11:54:24Z</time>
      </trkpt>
      <trkpt lat="-40.1560200" lon="-71.3490890">
        <ele>653.3</ele>
        <time>2020-11-15T11:54:25Z</time>
      </trkpt>
      <trkpt lat="-40.1560090" lon="-71.3491020">
        <ele>653.3</ele>
        <time>2020-11-15T11:54:26Z</time>
      </trkpt>
      <trkpt lat="-40.1560010" lon="-71.3491150">
        <ele>653.3</ele>
        <time>2020-11-15T11:54:27Z</time>
      </trkpt>
      <trkpt lat="-40.1559910" lon="-71.3491200">
        <ele>653.3</ele>
        <time>2020-11-15T11:54:28Z</time>
      </trkpt>
      <trkpt lat="-40.1559840" lon="-71.3491270">
        <ele>653.3</ele>
        <time>2020-11-15T11:54:29Z</time>
      </trkpt>
      <trkpt lat="-40.1559750" lon="-71.3491250">
        <ele>653.2</ele>
        <time>2020-11-15T11:54:30Z</time>
      </trkpt>
      <trkpt lat="-40.1559700" lon="-71.3491210">
        <ele>653.2</ele>
        <time>2020-11-15T11:54:31Z</time>
      </trkpt>
      <trkpt lat="-40.1559680" lon="-71.3491180">
        <ele>653.2</ele>
        <time>2020-11-15T11:54:32Z</time>
      </trkpt>
      <trkpt lat="-40.1559650" lon="-71.3491140">
        <ele>653.2</ele>
        <time>2020-11-15T11:54:33Z</time>
      </trkpt>
      <trkpt lat="-40.1559570" lon="-71.3491060">
        <ele>653.2</ele>
        <time>2020-11-15T11:54:34Z</time>
      </trkpt>
      <trkpt lat="-40.1559490" lon="-71.3491010">
        <ele>652.9</ele>
        <time>2020-11-15T11:54:35Z</time>
      </trkpt>
      <trkpt lat="-40.1559420" lon="-71.3490950">
        <ele>652.9</ele>
        <time>2020-11-15T11:54:36Z</time>
      </trkpt>
      <trkpt lat="-40.1559350" lon="-71.3490880">
        <ele>652.9</ele>
        <time>2020-11-15T11:54:37Z</time>
      </trkpt>
      <trkpt lat="-40.1559270" lon="-71.3490790">
        <ele>652.9</ele>
        <time>2020-11-15T11:54:38Z</time>
      </trkpt>
      <trkpt lat="-40.1559210" lon="-71.3490710">
        <ele>652.9</ele>
        <time>2020-11-15T11:54:39Z</time>
      </trkpt>
      <trkpt lat="-40.1559180" lon="-71.3490660">
        <ele>652.9</ele>
        <time>2020-11-15T11:54:40Z</time>
      </trkpt>
      <trkpt lat="-40.1559140" lon="-71.3490600">
        <ele>652.7</ele>
        <time>2020-11-15T11:54:41Z</time>
      </trkpt>
      <trkpt lat="-40.1559120" lon="-71.3490560">
        <ele>652.7</ele>
        <time>2020-11-15T11:54:42Z</time>
      </trkpt>
      <trkpt lat="-40.1559060" lon="-71.3490530">
        <ele>652.7</ele>
        <time>2020-11-15T11:54:43Z</time>
      </trkpt>
      <trkpt lat="-40.1558980" lon="-71.3490510">
        <ele>652.7</ele>
        <time>2020-11-15T11:54:44Z</time>
      </trkpt>
      <trkpt lat="-40.1558870" lon="-71.3490490">
        <ele>652.7</ele>
        <time>2020-11-15T11:54:45Z</time>
      </trkpt>
      <trkpt lat="-40.1558700" lon="-71.3490550">
        <ele>652.5</ele>
        <time>2020-11-15T11:54:46Z</time>
      </trkpt>
      <trkpt lat="-40.1558500" lon="-71.3490630">
        <ele>652.3</ele>
        <time>2020-11-15T11:54:47Z</time>
      </trkpt>
      <trkpt lat="-40.1558270" lon="-71.3490690">
        <ele>652.3</ele>
        <time>2020-11-15T11:54:48Z</time>
      </trkpt>
      <trkpt lat="-40.1558020" lon="-71.3490740">
        <ele>652.3</ele>
        <time>2020-11-15T11:54:49Z</time>
      </trkpt>
      <trkpt lat="-40.1557790" lon="-71.3490810">
        <ele>652.2</ele>
        <time>2020-11-15T11:54:50Z</time>
      </trkpt>
      <trkpt lat="-40.1557550" lon="-71.3490860">
        <ele>652.2</ele>
        <time>2020-11-15T11:54:51Z</time>
      </trkpt>
      <trkpt lat="-40.1557300" lon="-71.3490900">
        <ele>652.2</ele>
        <time>2020-11-15T11:54:52Z</time>
      </trkpt>
      <trkpt lat="-40.1557070" lon="-71.3490920">
        <ele>652.1</ele>
        <time>2020-11-15T11:54:53Z</time>
      </trkpt>
      <trkpt lat="-40.1556860" lon="-71.3490960">
        <ele>651.9</ele>
        <time>2020-11-15T11:54:54Z</time>
      </trkpt>
      <trkpt lat="-40.1556800" lon="-71.3491010">
        <ele>651.9</ele>
        <time>2020-11-15T11:54:55Z</time>
      </trkpt>
      <trkpt lat="-40.1556680" lon="-71.3491060">
        <ele>651.9</ele>
        <time>2020-11-15T11:54:56Z</time>
      </trkpt>
      <trkpt lat="-40.1556970" lon="-71.3490960">
        <ele>652.1</ele>
        <time>2020-11-15T11:54:57Z</time>
      </trkpt>
      <trkpt lat="-40.1557220" lon="-71.3490840">
        <ele>652.2</ele>
        <time>2020-11-15T11:54:58Z</time>
      </trkpt>
      <trkpt lat="-40.1557750" lon="-71.3490620">
        <ele>652.3</ele>
        <time>2020-11-15T11:54:59Z</time>
      </trkpt>
      <trkpt lat="-40.1558130" lon="-71.3490450">
        <ele>652.3</ele>
        <time>2020-11-15T11:55:00Z</time>
      </trkpt>
      <trkpt lat="-40.1558960" lon="-71.3490070">
        <ele>652.7</ele>
        <time>2020-11-15T11:55:02Z</time>
      </trkpt>
      <trkpt lat="-40.1558980" lon="-71.3490080">
        <ele>652.7</ele>
        <time>2020-11-15T11:55:03Z</time>
      </trkpt>
      <trkpt lat="-40.1558980" lon="-71.3490100">
        <ele>652.7</ele>
        <time>2020-11-15T11:55:04Z</time>
      </trkpt>
      <trkpt lat="-40.1558980" lon="-71.3490120">
        <ele>652.7</ele>
        <time>2020-11-15T11:55:05Z</time>
      </trkpt>
      <trkpt lat="-40.1558980" lon="-71.3490110">
        <ele>652.7</ele>
        <time>2020-11-15T11:55:06Z</time>
      </trkpt>
      <trkpt lat="-40.1558980" lon="-71.3490110">
        <ele>652.7</ele>
        <time>2020-11-15T11:55:07Z</time>
      </trkpt>
      <trkpt lat="-40.1558480" lon="-71.3490500">
        <ele>652.3</ele>
        <time>2020-11-15T11:55:10Z</time>
      </trkpt>
      <trkpt lat="-40.1558430" lon="-71.3490510">
        <ele>652.3</ele>
        <time>2020-11-15T11:55:11Z</time>
      </trkpt>
      <trkpt lat="-40.1558410" lon="-71.3490510">
        <ele>652.3</ele>
        <time>2020-11-15T11:55:12Z</time>
      </trkpt>
      <trkpt lat="-40.1558390" lon="-71.3490510">
        <ele>652.3</ele>
        <time>2020-11-15T11:55:12Z</time>
      </trkpt>
      <trkpt lat="-40.1558410" lon="-71.3490500">
        <ele>652.3</ele>
        <time>2020-11-15T11:55:13Z</time>
      </trkpt>
      <trkpt lat="-40.1558440" lon="-71.3490520">
        <ele>652.3</ele>
        <time>2020-11-15T11:55:14Z</time>
      </trkpt>
      <trkpt lat="-40.1558470" lon="-71.3490550">
        <ele>652.3</ele>
        <time>2020-11-15T11:55:15Z</time>
      </trkpt>
      <trkpt lat="-40.1558510" lon="-71.3490600">
        <ele>652.3</ele>
        <time>2020-11-15T11:55:16Z</time>
      </trkpt>
      <trkpt lat="-40.1558540" lon="-71.3490610">
        <ele>652.5</ele>
        <time>2020-11-15T11:55:17Z</time>
      </trkpt>
      <trkpt lat="-40.1558580" lon="-71.3490620">
        <ele>652.5</ele>
        <time>2020-11-15T11:55:18Z</time>
      </trkpt>
      <trkpt lat="-40.1558630" lon="-71.3490610">
        <ele>652.5</ele>
        <time>2020-11-15T11:55:19Z</time>
      </trkpt>
      <trkpt lat="-40.1558660" lon="-71.3490570">
        <ele>652.5</ele>
        <time>2020-11-15T11:55:20Z</time>
      </trkpt>
      <trkpt lat="-40.1558870" lon="-71.3490400">
        <ele>652.7</ele>
        <time>2020-11-15T11:55:21Z</time>
      </trkpt>
      <trkpt lat="-40.1559030" lon="-71.3490260">
        <ele>652.7</ele>
        <time>2020-11-15T11:55:22Z</time>
      </trkpt>
      <trkpt lat="-40.1559150" lon="-71.3490160">
        <ele>652.7</ele>
        <time>2020-11-15T11:55:23Z</time>
      </trkpt>
      <trkpt lat="-40.1559290" lon="-71.3490130">
        <ele>653.0</ele>
        <time>2020-11-15T11:55:24Z</time>
      </trkpt>
      <trkpt lat="-40.1559460" lon="-71.3490130">
        <ele>653.0</ele>
        <time>2020-11-15T11:55:25Z</time>
      </trkpt>
      <trkpt lat="-40.1559650" lon="-71.3490140">
        <ele>653.2</ele>
        <time>2020-11-15T11:55:26Z</time>
      </trkpt>
      <trkpt lat="-40.1559880" lon="-71.3490110">
        <ele>653.3</ele>
        <time>2020-11-15T11:55:27Z</time>
      </trkpt>
      <trkpt lat="-40.1560060" lon="-71.3490070">
        <ele>653.3</ele>
        <time>2020-11-15T11:55:28Z</time>
      </trkpt>
      <trkpt lat="-40.1560650" lon="-71.3489900">
        <ele>653.3</ele>
        <time>2020-11-15T11:55:29Z</time>
      </trkpt>
      <trkpt lat="-40.1561150" lon="-71.3489760">
        <ele>653.3</ele>
        <time>2020-11-15T11:55:30Z</time>
      </trkpt>
      <trkpt lat="-40.1561580" lon="-71.3489650">
        <ele>653.3</ele>
        <time>2020-11-15T11:55:31Z</time>
      </trkpt>
      <trkpt lat="-40.1561960" lon="-71.3489550">
        <ele>653.3</ele>
        <time>2020-11-15T11:55:32Z</time>
      </trkpt>
      <trkpt lat="-40.1562290" lon="-71.3489450">
        <ele>653.3</ele>
        <time>2020-11-15T11:55:33Z</time>
      </trkpt>
      <trkpt lat="-40.1562600" lon="-71.3489360">
        <ele>653.3</ele>
        <time>2020-11-15T11:55:34Z</time>
      </trkpt>
      <trkpt lat="-40.1562800" lon="-71.3489270">
        <ele>653.3</ele>
        <time>2020-11-15T11:55:35Z</time>
      </trkpt>
      <trkpt lat="-40.1563090" lon="-71.3489140">
        <ele>653.3</ele>
        <time>2020-11-15T11:55:36Z</time>
      </trkpt>
      <trkpt lat="-40.1562900" lon="-71.3489230">
        <ele>653.3</ele>
        <time>2020-11-15T11:55:37Z</time>
      </trkpt>
      <trkpt lat="-40.1562750" lon="-71.3489300">
        <ele>653.3</ele>
        <time>2020-11-15T11:55:38Z</time>
      </trkpt>
      <trkpt lat="-40.1562600" lon="-71.3489390">
        <ele>653.3</ele>
        <time>2020-11-15T11:55:39Z</time>
      </trkpt>
      <trkpt lat="-40.1562410" lon="-71.3489490">
        <ele>653.3</ele>
        <time>2020-11-15T11:55:40Z</time>
      </trkpt>
      <trkpt lat="-40.1562260" lon="-71.3489550">
        <ele>653.4</ele>
        <time>2020-11-15T11:55:42Z</time>
      </trkpt>
      <trkpt lat="-40.1562170" lon="-71.3489610">
        <ele>653.4</ele>
        <time>2020-11-15T11:55:43Z</time>
      </trkpt>
      <trkpt lat="-40.1561860" lon="-71.3489460">
        <ele>653.4</ele>
        <time>2020-11-15T11:55:44Z</time>
      </trkpt>
      <trkpt lat="-40.1561370" lon="-71.3489340">
        <ele>653.4</ele>
        <time>2020-11-15T11:55:45Z</time>
      </trkpt>
      <trkpt lat="-40.1561180" lon="-71.3491230">
        <ele>653.3</ele>
        <time>2020-11-15T11:56:03Z</time>
      </trkpt>
      <trkpt lat="-40.1561070" lon="-71.3491150">
        <ele>653.3</ele>
        <time>2020-11-15T11:56:04Z</time>
      </trkpt>
      <trkpt lat="-40.1560820" lon="-71.3491090">
        <ele>653.3</ele>
        <time>2020-11-15T11:56:05Z</time>
      </trkpt>
      <trkpt lat="-40.1560610" lon="-71.3490800">
        <ele>653.3</ele>
        <time>2020-11-15T11:56:06Z</time>
      </trkpt>
      <trkpt lat="-40.1560450" lon="-71.3490580">
        <ele>653.3</ele>
        <time>2020-11-15T11:56:07Z</time>
      </trkpt>
      <trkpt lat="-40.1560350" lon="-71.3490430">
        <ele>653.3</ele>
        <time>2020-11-15T11:56:08Z</time>
      </trkpt>
      <trkpt lat="-40.1560300" lon="-71.3490190">
        <ele>653.3</ele>
        <time>2020-11-15T11:56:10Z</time>
      </trkpt>
      <trkpt lat="-40.1560310" lon="-71.3490080">
        <ele>653.3</ele>
        <time>2020-11-15T11:56:11Z</time>
      </trkpt>
      <trkpt lat="-40.1560340" lon="-71.3490000">
        <ele>653.3</ele>
        <time>2020-11-15T11:56:12Z</time>
      </trkpt>
      <trkpt lat="-40.1560300" lon="-71.3489930">
        <ele>653.3</ele>
        <time>2020-11-15T11:56:13Z</time>
      </trkpt>
      <trkpt lat="-40.1560210" lon="-71.3489880">
        <ele>653.3</ele>
        <time>2020-11-15T11:56:14Z</time>
      </trkpt>
      <trkpt lat="-40.1560180" lon="-71.3489840">
        <ele>653.3</ele>
        <time>2020-11-15T11:56:15Z</time>
      </trkpt>
      <trkpt lat="-40.1560160" lon="-71.3489790">
        <ele>653.3</ele>
        <time>2020-11-15T11:56:16Z</time>
      </trkpt>
      <trkpt lat="-40.1560150" lon="-71.3489730">
        <ele>653.3</ele>
        <time>2020-11-15T11:56:17Z</time>
      </trkpt>
      <trkpt lat="-40.1560150" lon="-71.3489250">
        <ele>653.3</ele>
        <time>2020-11-15T11:56:28Z</time>
      </trkpt>
      <trkpt lat="-40.1560130" lon="-71.3489250">
        <ele>653.3</ele>
        <time>2020-11-15T11:56:29Z</time>
      </trkpt>
      <trkpt lat="-40.1560140" lon="-71.3489240">
        <ele>653.3</ele>
        <time>2020-11-15T11:56:30Z</time>
      </trkpt>
      <trkpt lat="-40.1560200" lon="-71.3489220">
        <ele>653.3</ele>
        <time>2020-11-15T11:56:32Z</time>
      </trkpt>
      <trkpt lat="-40.1560220" lon="-71.3489170">
        <ele>653.3</ele>
        <time>2020-11-15T11:56:34Z</time>
      </trkpt>
      <trkpt lat="-40.1560220" lon="-71.3489180">
        <ele>653.3</ele>
        <time>2020-11-15T11:56:35Z</time>
      </trkpt>
      <trkpt lat="-40.1560230" lon="-71.3489190">
        <ele>653.3</ele>
        <time>2020-11-15T11:56:36Z</time>
      </trkpt>
      <trkpt lat="-40.1560250" lon="-71.3489210">
        <ele>653.3</ele>
        <time>2020-11-15T11:56:37Z</time>
      </trkpt>
      <trkpt lat="-40.1560150" lon="-71.3489730">
        <ele>653.3</ele>
        <time>2020-11-15T11:57:07Z</time>
      </trkpt>
      <trkpt lat="-40.1560150" lon="-71.3489720">
        <ele>653.3</ele>
        <time>2020-11-15T11:57:08Z</time>
      </trkpt>
      <trkpt lat="-40.1560170" lon="-71.3489690">
        <ele>653.3</ele>
        <time>2020-11-15T11:57:09Z</time>
      </trkpt>
      <trkpt lat="-40.1560180" lon="-71.3489630">
        <ele>653.3</ele>
        <time>2020-11-15T11:57:10Z</time>
      </trkpt>
      <trkpt lat="-40.1560250" lon="-71.3489450">
        <ele>653.3</ele>
        <time>2020-11-15T11:57:12Z</time>
      </trkpt>
      <trkpt lat="-40.1560250" lon="-71.3489440">
        <ele>653.3</ele>
        <time>2020-11-15T11:57:13Z</time>
      </trkpt>
      <trkpt lat="-40.1560260" lon="-71.3489420">
        <ele>653.3</ele>
        <time>2020-11-15T11:57:14Z</time>
      </trkpt>
      <trkpt lat="-40.1560260" lon="-71.3489390">
        <ele>653.3</ele>
        <time>2020-11-15T11:57:15Z</time>
      </trkpt>
      <trkpt lat="-40.1560280" lon="-71.3489340">
        <ele>653.3</ele>
        <time>2020-11-15T11:57:16Z</time>
      </trkpt>
      <trkpt lat="-40.1560300" lon="-71.3489310">
        <ele>653.3</ele>
        <time>2020-11-15T11:57:17Z</time>
      </trkpt>
      <trkpt lat="-40.1560350" lon="-71.3489300">
        <ele>653.3</ele>
        <time>2020-11-15T11:57:19Z</time>
      </trkpt>
      <trkpt lat="-40.1560340" lon="-71.3489300">
        <ele>653.3</ele>
        <time>2020-11-15T11:57:20Z</time>
      </trkpt>
      <trkpt lat="-40.1560350" lon="-71.3489280">
        <ele>653.3</ele>
        <time>2020-11-15T11:57:21Z</time>
      </trkpt>
      <trkpt lat="-40.1560390" lon="-71.3489280">
        <ele>653.3</ele>
        <time>2020-11-15T11:57:22Z</time>
      </trkpt>
      <trkpt lat="-40.1560410" lon="-71.3489290">
        <ele>653.3</ele>
        <time>2020-11-15T11:57:23Z</time>
      </trkpt>
      <trkpt lat="-40.1560460" lon="-71.3489310">
        <ele>653.3</ele>
        <time>2020-11-15T11:57:24Z</time>
      </trkpt>
      <trkpt lat="-40.1560470" lon="-71.3489340">
        <ele>653.3</ele>
        <time>2020-11-15T11:57:25Z</time>
      </trkpt>
      <trkpt lat="-40.1560480" lon="-71.3489350">
        <ele>653.3</ele>
        <time>2020-11-15T11:57:26Z</time>
      </trkpt>
      <trkpt lat="-40.1560490" lon="-71.3489310">
        <ele>653.3</ele>
        <time>2020-11-15T11:57:27Z</time>
      </trkpt>
      <trkpt lat="-40.1560470" lon="-71.3489210">
        <ele>653.3</ele>
        <time>2020-11-15T11:57:28Z</time>
      </trkpt>
      <trkpt lat="-40.1560440" lon="-71.3489090">
        <ele>653.3</ele>
        <time>2020-11-15T11:57:29Z</time>
      </trkpt>
      <trkpt lat="-40.1560410" lon="-71.3488990">
        <ele>653.3</ele>
        <time>2020-11-15T11:57:30Z</time>
      </trkpt>
      <trkpt lat="-40.1560390" lon="-71.3488910">
        <ele>653.3</ele>
        <time>2020-11-15T11:57:31Z</time>
      </trkpt>
      <trkpt lat="-40.1560380" lon="-71.3488830">
        <ele>653.3</ele>
        <time>2020-11-15T11:57:32Z</time>
      </trkpt>
      <trkpt lat="-40.1560380" lon="-71.3488780">
        <ele>653.3</ele>
        <time>2020-11-15T11:57:33Z</time>
      </trkpt>
      <trkpt lat="-40.1560390" lon="-71.3488720">
        <ele>653.3</ele>
        <time>2020-11-15T11:57:34Z</time>
      </trkpt>
      <trkpt lat="-40.1560400" lon="-71.3488670">
        <ele>653.3</ele>
        <time>2020-11-15T11:57:35Z</time>
      </trkpt>
      <trkpt lat="-40.1560450" lon="-71.3488580">
        <ele>653.3</ele>
        <time>2020-11-15T11:57:37Z</time>
      </trkpt>
      <trkpt lat="-40.1560450" lon="-71.3488500">
        <ele>653.3</ele>
        <time>2020-11-15T11:57:41Z</time>
      </trkpt>
      <trkpt lat="-40.1560460" lon="-71.3488500">
        <ele>653.3</ele>
        <time>2020-11-15T11:57:42Z</time>
      </trkpt>
      <trkpt lat="-40.1560490" lon="-71.3488520">
        <ele>653.3</ele>
        <time>2020-11-15T11:57:43Z</time>
      </trkpt>
      <trkpt lat="-40.1560510" lon="-71.3488570">
        <ele>653.3</ele>
        <time>2020-11-15T11:57:44Z</time>
      </trkpt>
      <trkpt lat="-40.1560520" lon="-71.3488600">
        <ele>653.3</ele>
        <time>2020-11-15T11:57:45Z</time>
      </trkpt>
      <trkpt lat="-40.1560510" lon="-71.3488640">
        <ele>653.3</ele>
        <time>2020-11-15T11:57:46Z</time>
      </trkpt>
      <trkpt lat="-40.1560460" lon="-71.3488690">
        <ele>653.3</ele>
        <time>2020-11-15T11:57:47Z</time>
      </trkpt>
      <trkpt lat="-40.1560400" lon="-71.3488740">
        <ele>653.3</ele>
        <time>2020-11-15T11:57:48Z</time>
      </trkpt>
      <trkpt lat="-40.1560340" lon="-71.3488790">
        <ele>653.3</ele>
        <time>2020-11-15T11:57:49Z</time>
      </trkpt>
      <trkpt lat="-40.1560270" lon="-71.3488830">
        <ele>653.3</ele>
        <time>2020-11-15T11:57:50Z</time>
      </trkpt>
      <trkpt lat="-40.1560200" lon="-71.3488870">
        <ele>653.3</ele>
        <time>2020-11-15T11:57:51Z</time>
      </trkpt>
      <trkpt lat="-40.1560130" lon="-71.3488900">
        <ele>653.3</ele>
        <time>2020-11-15T11:57:52Z</time>
      </trkpt>
      <trkpt lat="-40.1560090" lon="-71.3488970">
        <ele>653.3</ele>
        <time>2020-11-15T11:57:53Z</time>
      </trkpt>
      <trkpt lat="-40.1560090" lon="-71.3489030">
        <ele>653.3</ele>
        <time>2020-11-15T11:57:54Z</time>
      </trkpt>
      <trkpt lat="-40.1560110" lon="-71.3489100">
        <ele>653.3</ele>
        <time>2020-11-15T11:57:55Z</time>
      </trkpt>
      <trkpt lat="-40.1560130" lon="-71.3489160">
        <ele>653.3</ele>
        <time>2020-11-15T11:57:56Z</time>
      </trkpt>
      <trkpt lat="-40.1560120" lon="-71.3489200">
        <ele>653.3</ele>
        <time>2020-11-15T11:57:57Z</time>
      </trkpt>
      <trkpt lat="-40.1560120" lon="-71.3489240">
        <ele>653.3</ele>
        <time>2020-11-15T11:57:58Z</time>
      </trkpt>
      <trkpt lat="-40.1560120" lon="-71.3489350">
        <ele>653.3</ele>
        <time>2020-11-15T11:57:59Z</time>
      </trkpt>
      <trkpt lat="-40.1560090" lon="-71.3489400">
        <ele>653.3</ele>
        <time>2020-11-15T11:58:00Z</time>
      </trkpt>
      <trkpt lat="-40.1560020" lon="-71.3489360">
        <ele>653.3</ele>
        <time>2020-11-15T11:58:01Z</time>
      </trkpt>
      <trkpt lat="-40.1559880" lon="-71.3489230">
        <ele>653.3</ele>
        <time>2020-11-15T11:58:02Z</time>
      </trkpt>
      <trkpt lat="-40.1559800" lon="-71.3489110">
        <ele>653.3</ele>
        <time>2020-11-15T11:58:03Z</time>
      </trkpt>
      <trkpt lat="-40.1559800" lon="-71.3488810">
        <ele>653.3</ele>
        <time>2020-11-15T11:58:06Z</time>
      </trkpt>
      <trkpt lat="-40.1559780" lon="-71.3488900">
        <ele>653.3</ele>
        <time>2020-11-15T11:58:08Z</time>
      </trkpt>
      <trkpt lat="-40.1559780" lon="-71.3488920">
        <ele>653.3</ele>
        <time>2020-11-15T11:58:09Z</time>
      </trkpt>
      <trkpt lat="-40.1559780" lon="-71.3488940">
        <ele>653.3</ele>
        <time>2020-11-15T11:58:10Z</time>
      </trkpt>
      <trkpt lat="-40.1559760" lon="-71.3488960">
        <ele>653.3</ele>
        <time>2020-11-15T11:58:11Z</time>
      </trkpt>
      <trkpt lat="-40.1559650" lon="-71.3489350">
        <ele>653.3</ele>
        <time>2020-11-15T11:58:14Z</time>
      </trkpt>
      <trkpt lat="-40.1559660" lon="-71.3489340">
        <ele>653.3</ele>
        <time>2020-11-15T11:58:15Z</time>
      </trkpt>
      <trkpt lat="-40.1559680" lon="-71.3489280">
        <ele>653.3</ele>
        <time>2020-11-15T11:58:16Z</time>
      </trkpt>
      <trkpt lat="-40.1559700" lon="-71.3489240">
        <ele>653.3</ele>
        <time>2020-11-15T11:58:17Z</time>
      </trkpt>
      <trkpt lat="-40.1559720" lon="-71.3489190">
        <ele>653.3</ele>
        <time>2020-11-15T11:58:18Z</time>
      </trkpt>
      <trkpt lat="-40.1559740" lon="-71.3489140">
        <ele>653.3</ele>
        <time>2020-11-15T11:58:19Z</time>
      </trkpt>
      <trkpt lat="-40.1559720" lon="-71.3489050">
        <ele>653.3</ele>
        <time>2020-11-15T11:58:20Z</time>
      </trkpt>
      <trkpt lat="-40.1559700" lon="-71.3488970">
        <ele>653.3</ele>
        <time>2020-11-15T11:58:21Z</time>
      </trkpt>
      <trkpt lat="-40.1559680" lon="-71.3488910">
        <ele>653.3</ele>
        <time>2020-11-15T11:58:22Z</time>
      </trkpt>
      <trkpt lat="-40.1559660" lon="-71.3488870">
        <ele>653.3</ele>
        <time>2020-11-15T11:58:23Z</time>
      </trkpt>
      <trkpt lat="-40.1559660" lon="-71.3488840">
        <ele>653.3</ele>
        <time>2020-11-15T11:58:24Z</time>
      </trkpt>
      <trkpt lat="-40.1559660" lon="-71.3488820">
        <ele>653.3</ele>
        <time>2020-11-15T11:58:25Z</time>
      </trkpt>
      <trkpt lat="-40.1559650" lon="-71.3488850">
        <ele>653.3</ele>
        <time>2020-11-15T11:58:26Z</time>
      </trkpt>
      <trkpt lat="-40.1559660" lon="-71.3488900">
        <ele>653.3</ele>
        <time>2020-11-15T11:58:27Z</time>
      </trkpt>
      <trkpt lat="-40.1559520" lon="-71.3489230">
        <ele>653.3</ele>
        <time>2020-11-15T11:58:30Z</time>
      </trkpt>
      <trkpt lat="-40.1559510" lon="-71.3489230">
        <ele>653.3</ele>
        <time>2020-11-15T11:58:31Z</time>
      </trkpt>
      <trkpt lat="-40.1559500" lon="-71.3489240">
        <ele>653.3</ele>
        <time>2020-11-15T11:58:32Z</time>
      </trkpt>
      <trkpt lat="-40.1559490" lon="-71.3489240">
        <ele>653.3</ele>
        <time>2020-11-15T11:58:33Z</time>
      </trkpt>
      <trkpt lat="-40.1559490" lon="-71.3489250">
        <ele>653.3</ele>
        <time>2020-11-15T11:58:34Z</time>
      </trkpt>
      <trkpt lat="-40.1559480" lon="-71.3489300">
        <ele>653.3</ele>
        <time>2020-11-15T11:58:35Z</time>
      </trkpt>
      <trkpt lat="-40.1560070" lon="-71.3489860">
        <ele>653.3</ele>
        <time>2020-11-15T11:58:44Z</time>
      </trkpt>
      <trkpt lat="-40.1560070" lon="-71.3489850">
        <ele>653.3</ele>
        <time>2020-11-15T11:58:45Z</time>
      </trkpt>
      <trkpt lat="-40.1560120" lon="-71.3489820">
        <ele>653.3</ele>
        <time>2020-11-15T11:58:47Z</time>
      </trkpt>
      <trkpt lat="-40.1560420" lon="-71.3490080">
        <ele>653.3</ele>
        <time>2020-11-15T11:58:53Z</time>
      </trkpt>
      <trkpt lat="-40.1560420" lon="-71.3490070">
        <ele>653.3</ele>
        <time>2020-11-15T11:58:54Z</time>
      </trkpt>
      <trkpt lat="-40.1560390" lon="-71.3490040">
        <ele>653.3</ele>
        <time>2020-11-15T11:58:55Z</time>
      </trkpt>
      <trkpt lat="-40.1560380" lon="-71.3490000">
        <ele>653.3</ele>
        <time>2020-11-15T11:58:56Z</time>
      </trkpt>
      <trkpt lat="-40.1560380" lon="-71.3489940">
        <ele>653.3</ele>
        <time>2020-11-15T11:58:57Z</time>
      </trkpt>
      <trkpt lat="-40.1560390" lon="-71.3489880">
        <ele>653.3</ele>
        <time>2020-11-15T11:58:58Z</time>
      </trkpt>
      <trkpt lat="-40.1560410" lon="-71.3489820">
        <ele>653.3</ele>
        <time>2020-11-15T11:58:59Z</time>
      </trkpt>
      <trkpt lat="-40.1560450" lon="-71.3489750">
        <ele>653.3</ele>
        <time>2020-11-15T11:59:00Z</time>
      </trkpt>
      <trkpt lat="-40.1560510" lon="-71.3489680">
        <ele>653.2</ele>
        <time>2020-11-15T11:59:01Z</time>
      </trkpt>
      <trkpt lat="-40.1560590" lon="-71.3489610">
        <ele>653.2</ele>
        <time>2020-11-15T11:59:02Z</time>
      </trkpt>
      <trkpt lat="-40.1560660" lon="-71.3489520">
        <ele>653.2</ele>
        <time>2020-11-15T11:59:03Z</time>
      </trkpt>
      <trkpt lat="-40.1560730" lon="-71.3489430">
        <ele>653.2</ele>
        <time>2020-11-15T11:59:04Z</time>
      </trkpt>
      <trkpt lat="-40.1560830" lon="-71.3489330">
        <ele>653.2</ele>
        <time>2020-11-15T11:59:05Z</time>
      </trkpt>
      <trkpt lat="-40.1560940" lon="-71.3489250">
        <ele>653.2</ele>
        <time>2020-11-15T11:59:06Z</time>
      </trkpt>
      <trkpt lat="-40.1561090" lon="-71.3489230">
        <ele>653.2</ele>
        <time>2020-11-15T11:59:07Z</time>
      </trkpt>
      <trkpt lat="-40.1561380" lon="-71.3489470">
        <ele>653.2</ele>
        <time>2020-11-15T11:59:09Z</time>
      </trkpt>
      <trkpt lat="-40.1561510" lon="-71.3489690">
        <ele>653.2</ele>
        <time>2020-11-15T11:59:10Z</time>
      </trkpt>
      <trkpt lat="-40.1561660" lon="-71.3489940">
        <ele>653.2</ele>
        <time>2020-11-15T11:59:11Z</time>
      </trkpt>
      <trkpt lat="-40.1561790" lon="-71.3490210">
        <ele>653.2</ele>
        <time>2020-11-15T11:59:12Z</time>
      </trkpt>
      <trkpt lat="-40.1561900" lon="-71.3490490">
        <ele>653.2</ele>
        <time>2020-11-15T11:59:13Z</time>
      </trkpt>
      <trkpt lat="-40.1562010" lon="-71.3490740">
        <ele>653.2</ele>
        <time>2020-11-15T11:59:14Z</time>
      </trkpt>
      <trkpt lat="-40.1562100" lon="-71.3490980">
        <ele>653.2</ele>
        <time>2020-11-15T11:59:15Z</time>
      </trkpt>
      <trkpt lat="-40.1562190" lon="-71.3491220">
        <ele>653.2</ele>
        <time>2020-11-15T11:59:16Z</time>
      </trkpt>
      <trkpt lat="-40.1562300" lon="-71.3491400">
        <ele>653.2</ele>
        <time>2020-11-15T11:59:17Z</time>
      </trkpt>
      <trkpt lat="-40.1562440" lon="-71.3491530">
        <ele>653.2</ele>
        <time>2020-11-15T11:59:18Z</time>
      </trkpt>
      <trkpt lat="-40.1562600" lon="-71.3491690">
        <ele>653.2</ele>
        <time>2020-11-15T11:59:19Z</time>
      </trkpt>
      <trkpt lat="-40.1562880" lon="-71.3492150">
        <ele>653.2</ele>
        <time>2020-11-15T11:59:21Z</time>
      </trkpt>
      <trkpt lat="-40.1563030" lon="-71.3492420">
        <ele>653.1</ele>
        <time>2020-11-15T11:59:22Z</time>
      </trkpt>
      <trkpt lat="-40.1563180" lon="-71.3492690">
        <ele>653.1</ele>
        <time>2020-11-15T11:59:23Z</time>
      </trkpt>
      <trkpt lat="-40.1563310" lon="-71.3492950">
        <ele>653.1</ele>
        <time>2020-11-15T11:59:24Z</time>
      </trkpt>
      <trkpt lat="-40.1563410" lon="-71.3493200">
        <ele>653.1</ele>
        <time>2020-11-15T11:59:25Z</time>
      </trkpt>
      <trkpt lat="-40.1563560" lon="-71.3493710">
        <ele>653.1</ele>
        <time>2020-11-15T11:59:27Z</time>
      </trkpt>
      <trkpt lat="-40.1563630" lon="-71.3493970">
        <ele>653.0</ele>
        <time>2020-11-15T11:59:28Z</time>
      </trkpt>
      <trkpt lat="-40.1563700" lon="-71.3494230">
        <ele>653.0</ele>
        <time>2020-11-15T11:59:28Z</time>
      </trkpt>
      <trkpt lat="-40.1563780" lon="-71.3494500">
        <ele>653.0</ele>
        <time>2020-11-15T11:59:29Z</time>
      </trkpt>
      <trkpt lat="-40.1563820" lon="-71.3494930">
        <ele>653.0</ele>
        <time>2020-11-15T11:59:31Z</time>
      </trkpt>
      <trkpt lat="-40.1563930" lon="-71.3495350">
        <ele>653.0</ele>
        <time>2020-11-15T11:59:32Z</time>
      </trkpt>
      <trkpt lat="-40.1564060" lon="-71.3495750">
        <ele>652.9</ele>
        <time>2020-11-15T11:59:33Z</time>
      </trkpt>
      <trkpt lat="-40.1564210" lon="-71.3496120">
        <ele>652.9</ele>
        <time>2020-11-15T11:59:34Z</time>
      </trkpt>
      <trkpt lat="-40.1564370" lon="-71.3496490">
        <ele>652.9</ele>
        <time>2020-11-15T11:59:35Z</time>
      </trkpt>
      <trkpt lat="-40.1564550" lon="-71.3496850">
        <ele>652.8</ele>
        <time>2020-11-15T11:59:36Z</time>
      </trkpt>
      <trkpt lat="-40.1564740" lon="-71.3497220">
        <ele>652.8</ele>
        <time>2020-11-15T11:59:37Z</time>
      </trkpt>
      <trkpt lat="-40.1564930" lon="-71.3497610">
        <ele>652.8</ele>
        <time>2020-11-15T11:59:38Z</time>
      </trkpt>
      <trkpt lat="-40.1565130" lon="-71.3498020">
        <ele>652.7</ele>
        <time>2020-11-15T11:59:39Z</time>
      </trkpt>
      <trkpt lat="-40.1565310" lon="-71.3498450">
        <ele>652.7</ele>
        <time>2020-11-15T11:59:40Z</time>
      </trkpt>
      <trkpt lat="-40.1565510" lon="-71.3498890">
        <ele>652.7</ele>
        <time>2020-11-15T11:59:41Z</time>
      </trkpt>
      <trkpt lat="-40.1565710" lon="-71.3499350">
        <ele>652.6</ele>
        <time>2020-11-15T11:59:42Z</time>
      </trkpt>
      <trkpt lat="-40.1565900" lon="-71.3499840">
        <ele>652.6</ele>
        <time>2020-11-15T11:59:43Z</time>
      </trkpt>
      <trkpt lat="-40.1566100" lon="-71.3500340">
        <ele>652.6</ele>
        <time>2020-11-15T11:59:44Z</time>
      </trkpt>
      <trkpt lat="-40.1566290" lon="-71.3500870">
        <ele>652.5</ele>
        <time>2020-11-15T11:59:45Z</time>
      </trkpt>
      <trkpt lat="-40.1566500" lon="-71.3501430">
        <ele>652.5</ele>
        <time>2020-11-15T11:59:46Z</time>
      </trkpt>
      <trkpt lat="-40.1567010" lon="-71.3502510">
        <ele>652.4</ele>
        <time>2020-11-15T11:59:48Z</time>
      </trkpt>
      <trkpt lat="-40.1567280" lon="-71.3503050">
        <ele>652.4</ele>
        <time>2020-11-15T11:59:49Z</time>
      </trkpt>
      <trkpt lat="-40.1567520" lon="-71.3503600">
        <ele>652.3</ele>
        <time>2020-11-15T11:59:50Z</time>
      </trkpt>
      <trkpt lat="-40.1567760" lon="-71.3504140">
        <ele>652.3</ele>
        <time>2020-11-15T11:59:51Z</time>
      </trkpt>
      <trkpt lat="-40.1567960" lon="-71.3504690">
        <ele>652.3</ele>
        <time>2020-11-15T11:59:52Z</time>
      </trkpt>
      <trkpt lat="-40.1568150" lon="-71.3505240">
        <ele>652.2</ele>
        <time>2020-11-15T11:59:53Z</time>
      </trkpt>
      <trkpt lat="-40.1568350" lon="-71.3505760">
        <ele>652.2</ele>
        <time>2020-11-15T11:59:54Z</time>
      </trkpt>
      <trkpt lat="-40.1568540" lon="-71.3506270">
        <ele>652.2</ele>
        <time>2020-11-15T11:59:55Z</time>
      </trkpt>
      <trkpt lat="-40.1568730" lon="-71.3506770">
        <ele>652.2</ele>
        <time>2020-11-15T11:59:56Z</time>
      </trkpt>
      <trkpt lat="-40.1568930" lon="-71.3507230">
        <ele>652.1</ele>
        <time>2020-11-15T11:59:57Z</time>
      </trkpt>
      <trkpt lat="-40.1569150" lon="-71.3507640">
        <ele>652.1</ele>
        <time>2020-11-15T11:59:58Z</time>
      </trkpt>
      <trkpt lat="-40.1569420" lon="-71.3507990">
        <ele>652.1</ele>
        <time>2020-11-15T11:59:59Z</time>
      </trkpt>
      <trkpt lat="-40.1569730" lon="-71.3508260">
        <ele>652.1</ele>
        <time>2020-11-15T12:00:00Z</time>
      </trkpt>
      <trkpt lat="-40.1570090" lon="-71.3508450">
        <ele>652.0</ele>
        <time>2020-11-15T12:00:01Z</time>
      </trkpt>
      <trkpt lat="-40.1570470" lon="-71.3508570">
        <ele>652.0</ele>
        <time>2020-11-15T12:00:02Z</time>
      </trkpt>
      <trkpt lat="-40.1570870" lon="-71.3508580">
        <ele>651.9</ele>
        <time>2020-11-15T12:00:03Z</time>
      </trkpt>
      <trkpt lat="-40.1571270" lon="-71.3508530">
        <ele>651.9</ele>
        <time>2020-11-15T12:00:04Z</time>
      </trkpt>
      <trkpt lat="-40.1571680" lon="-71.3508420">
        <ele>651.9</ele>
        <time>2020-11-15T12:00:05Z</time>
      </trkpt>
      <trkpt lat="-40.1572090" lon="-71.3508260">
        <ele>651.9</ele>
        <time>2020-11-15T12:00:06Z</time>
      </trkpt>
      <trkpt lat="-40.1572510" lon="-71.3508080">
        <ele>651.9</ele>
        <time>2020-11-15T12:00:07Z</time>
      </trkpt>
      <trkpt lat="-40.1572930" lon="-71.3507870">
        <ele>651.9</ele>
        <time>2020-11-15T12:00:08Z</time>
      </trkpt>
      <trkpt lat="-40.1573370" lon="-71.3507660">
        <ele>651.9</ele>
        <time>2020-11-15T12:00:09Z</time>
      </trkpt>
      <trkpt lat="-40.1573810" lon="-71.3507430">
        <ele>651.9</ele>
        <time>2020-11-15T12:00:10Z</time>
      </trkpt>
      <trkpt lat="-40.1574250" lon="-71.3507190">
        <ele>651.8</ele>
        <time>2020-11-15T12:00:12Z</time>
      </trkpt>
      <trkpt lat="-40.1574680" lon="-71.3506970">
        <ele>651.8</ele>
        <time>2020-11-15T12:00:13Z</time>
      </trkpt>
      <trkpt lat="-40.1575120" lon="-71.3506730">
        <ele>651.8</ele>
        <time>2020-11-15T12:00:14Z</time>
      </trkpt>
      <trkpt lat="-40.1575570" lon="-71.3506500">
        <ele>651.8</ele>
        <time>2020-11-15T12:00:15Z</time>
      </trkpt>
      <trkpt lat="-40.1576020" lon="-71.3506270">
        <ele>651.9</ele>
        <time>2020-11-15T12:00:16Z</time>
      </trkpt>
      <trkpt lat="-40.1576470" lon="-71.3506040">
        <ele>651.9</ele>
        <time>2020-11-15T12:00:17Z</time>
      </trkpt>
      <trkpt lat="-40.1576920" lon="-71.3505820">
        <ele>651.9</ele>
        <time>2020-11-15T12:00:18Z</time>
      </trkpt>
      <trkpt lat="-40.1577380" lon="-71.3505600">
        <ele>651.9</ele>
        <time>2020-11-15T12:00:19Z</time>
      </trkpt>
      <trkpt lat="-40.1577820" lon="-71.3505390">
        <ele>651.9</ele>
        <time>2020-11-15T12:00:20Z</time>
      </trkpt>
      <trkpt lat="-40.1578240" lon="-71.3505140">
        <ele>651.8</ele>
        <time>2020-11-15T12:00:21Z</time>
      </trkpt>
      <trkpt lat="-40.1578680" lon="-71.3504870">
        <ele>651.8</ele>
        <time>2020-11-15T12:00:22Z</time>
      </trkpt>
      <trkpt lat="-40.1579120" lon="-71.3504610">
        <ele>651.8</ele>
        <time>2020-11-15T12:00:23Z</time>
      </trkpt>
      <trkpt lat="-40.1579980" lon="-71.3504100">
        <ele>651.7</ele>
        <time>2020-11-15T12:00:25Z</time>
      </trkpt>
      <trkpt lat="-40.1580410" lon="-71.3503870">
        <ele>651.7</ele>
        <time>2020-11-15T12:00:26Z</time>
      </trkpt>
      <trkpt lat="-40.1580830" lon="-71.3503660">
        <ele>651.6</ele>
        <time>2020-11-15T12:00:27Z</time>
      </trkpt>
      <trkpt lat="-40.1581230" lon="-71.3503480">
        <ele>651.6</ele>
        <time>2020-11-15T12:00:28Z</time>
      </trkpt>
      <trkpt lat="-40.1581640" lon="-71.3503300">
        <ele>651.6</ele>
        <time>2020-11-15T12:00:29Z</time>
      </trkpt>
      <trkpt lat="-40.1582050" lon="-71.3503140">
        <ele>651.6</ele>
        <time>2020-11-15T12:00:30Z</time>
      </trkpt>
      <trkpt lat="-40.1582450" lon="-71.3502970">
        <ele>651.6</ele>
        <time>2020-11-15T12:00:31Z</time>
      </trkpt>
      <trkpt lat="-40.1582870" lon="-71.3502790">
        <ele>651.6</ele>
        <time>2020-11-15T12:00:32Z</time>
      </trkpt>
      <trkpt lat="-40.1583280" lon="-71.3502600">
        <ele>651.6</ele>
        <time>2020-11-15T12:00:33Z</time>
      </trkpt>
      <trkpt lat="-40.1583690" lon="-71.3502430">
        <ele>651.6</ele>
        <time>2020-11-15T12:00:34Z</time>
      </trkpt>
      <trkpt lat="-40.1584110" lon="-71.3502240">
        <ele>651.5</ele>
        <time>2020-11-15T12:00:35Z</time>
      </trkpt>
      <trkpt lat="-40.1584540" lon="-71.3502040">
        <ele>651.5</ele>
        <time>2020-11-15T12:00:36Z</time>
      </trkpt>
      <trkpt lat="-40.1584950" lon="-71.3501830">
        <ele>651.5</ele>
        <time>2020-11-15T12:00:37Z</time>
      </trkpt>
      <trkpt lat="-40.1585360" lon="-71.3501610">
        <ele>651.5</ele>
        <time>2020-11-15T12:00:38Z</time>
      </trkpt>
      <trkpt lat="-40.1585770" lon="-71.3501380">
        <ele>651.4</ele>
        <time>2020-11-15T12:00:39Z</time>
      </trkpt>
      <trkpt lat="-40.1586170" lon="-71.3501140">
        <ele>651.4</ele>
        <time>2020-11-15T12:00:40Z</time>
      </trkpt>
      <trkpt lat="-40.1586560" lon="-71.3500890">
        <ele>651.4</ele>
        <time>2020-11-15T12:00:41Z</time>
      </trkpt>
      <trkpt lat="-40.1587090" lon="-71.3500590">
        <ele>651.4</ele>
        <time>2020-11-15T12:00:43Z</time>
      </trkpt>
      <trkpt lat="-40.1587570" lon="-71.3500350">
        <ele>651.4</ele>
        <time>2020-11-15T12:00:44Z</time>
      </trkpt>
      <trkpt lat="-40.1588050" lon="-71.3500260">
        <ele>651.5</ele>
        <time>2020-11-15T12:00:45Z</time>
      </trkpt>
      <trkpt lat="-40.1588510" lon="-71.3500290">
        <ele>651.5</ele>
        <time>2020-11-15T12:00:46Z</time>
      </trkpt>
      <trkpt lat="-40.1588920" lon="-71.3500450">
        <ele>651.6</ele>
        <time>2020-11-15T12:00:47Z</time>
      </trkpt>
      <trkpt lat="-40.1589290" lon="-71.3500700">
        <ele>651.7</ele>
        <time>2020-11-15T12:00:48Z</time>
      </trkpt>
      <trkpt lat="-40.1589610" lon="-71.3501040">
        <ele>651.7</ele>
        <time>2020-11-15T12:00:49Z</time>
      </trkpt>
      <trkpt lat="-40.1589900" lon="-71.3501460">
        <ele>651.7</ele>
        <time>2020-11-15T12:00:50Z</time>
      </trkpt>
      <trkpt lat="-40.1590170" lon="-71.3501950">
        <ele>651.6</ele>
        <time>2020-11-15T12:00:51Z</time>
      </trkpt>
      <trkpt lat="-40.1590410" lon="-71.3502470">
        <ele>651.6</ele>
        <time>2020-11-15T12:00:52Z</time>
      </trkpt>
      <trkpt lat="-40.1590640" lon="-71.3503010">
        <ele>651.6</ele>
        <time>2020-11-15T12:00:53Z</time>
      </trkpt>
      <trkpt lat="-40.1590860" lon="-71.3503570">
        <ele>651.6</ele>
        <time>2020-11-15T12:00:54Z</time>
      </trkpt>
      <trkpt lat="-40.1591060" lon="-71.3504130">
        <ele>651.6</ele>
        <time>2020-11-15T12:00:55Z</time>
      </trkpt>
      <trkpt lat="-40.1591260" lon="-71.3504690">
        <ele>651.5</ele>
        <time>2020-11-15T12:00:56Z</time>
      </trkpt>
      <trkpt lat="-40.1591460" lon="-71.3505240">
        <ele>651.5</ele>
        <time>2020-11-15T12:00:57Z</time>
      </trkpt>
      <trkpt lat="-40.1591650" lon="-71.3505790">
        <ele>651.5</ele>
        <time>2020-11-15T12:00:58Z</time>
      </trkpt>
      <trkpt lat="-40.1591830" lon="-71.3506340">
        <ele>651.5</ele>
        <time>2020-11-15T12:00:59Z</time>
      </trkpt>
      <trkpt lat="-40.1592020" lon="-71.3506870">
        <ele>651.5</ele>
        <time>2020-11-15T12:01:00Z</time>
      </trkpt>
      <trkpt lat="-40.1592200" lon="-71.3507420">
        <ele>651.5</ele>
        <time>2020-11-15T12:01:01Z</time>
      </trkpt>
      <trkpt lat="-40.1592390" lon="-71.3507990">
        <ele>651.5</ele>
        <time>2020-11-15T12:01:02Z</time>
      </trkpt>
      <trkpt lat="-40.1592590" lon="-71.3508570">
        <ele>651.5</ele>
        <time>2020-11-15T12:01:03Z</time>
      </trkpt>
      <trkpt lat="-40.1592790" lon="-71.3509160">
        <ele>651.5</ele>
        <time>2020-11-15T12:01:04Z</time>
      </trkpt>
      <trkpt lat="-40.1592990" lon="-71.3509770">
        <ele>651.5</ele>
        <time>2020-11-15T12:01:05Z</time>
      </trkpt>
      <trkpt lat="-40.1593200" lon="-71.3510390">
        <ele>651.5</ele>
        <time>2020-11-15T12:01:06Z</time>
      </trkpt>
      <trkpt lat="-40.1593390" lon="-71.3511010">
        <ele>651.4</ele>
        <time>2020-11-15T12:01:07Z</time>
      </trkpt>
      <trkpt lat="-40.1593600" lon="-71.3511610">
        <ele>651.3</ele>
        <time>2020-11-15T12:01:08Z</time>
      </trkpt>
      <trkpt lat="-40.1593800" lon="-71.3512210">
        <ele>651.3</ele>
        <time>2020-11-15T12:01:09Z</time>
      </trkpt>
      <trkpt lat="-40.1594010" lon="-71.3512820">
        <ele>651.2</ele>
        <time>2020-11-15T12:01:10Z</time>
      </trkpt>
      <trkpt lat="-40.1594210" lon="-71.3513430">
        <ele>651.2</ele>
        <time>2020-11-15T12:01:11Z</time>
      </trkpt>
      <trkpt lat="-40.1594400" lon="-71.3514030">
        <ele>651.1</ele>
        <time>2020-11-15T12:01:12Z</time>
      </trkpt>
      <trkpt lat="-40.1594600" lon="-71.3514630">
        <ele>651.1</ele>
        <time>2020-11-15T12:01:13Z</time>
      </trkpt>
      <trkpt lat="-40.1594790" lon="-71.3515250">
        <ele>651.0</ele>
        <time>2020-11-15T12:01:14Z</time>
      </trkpt>
      <trkpt lat="-40.1594970" lon="-71.3515860">
        <ele>650.9</ele>
        <time>2020-11-15T12:01:15Z</time>
      </trkpt>
      <trkpt lat="-40.1595150" lon="-71.3516450">
        <ele>650.9</ele>
        <time>2020-11-15T12:01:16Z</time>
      </trkpt>
      <trkpt lat="-40.1595340" lon="-71.3517070">
        <ele>650.8</ele>
        <time>2020-11-15T12:01:17Z</time>
      </trkpt>
      <trkpt lat="-40.1595530" lon="-71.3517690">
        <ele>650.7</ele>
        <time>2020-11-15T12:01:18Z</time>
      </trkpt>
      <trkpt lat="-40.1595720" lon="-71.3518300">
        <ele>650.6</ele>
        <time>2020-11-15T12:01:19Z</time>
      </trkpt>
      <trkpt lat="-40.1595920" lon="-71.3518920">
        <ele>650.5</ele>
        <time>2020-11-15T12:01:20Z</time>
      </trkpt>
      <trkpt lat="-40.1596110" lon="-71.3519560">
        <ele>650.4</ele>
        <time>2020-11-15T12:01:21Z</time>
      </trkpt>
      <trkpt lat="-40.1596300" lon="-71.3520210">
        <ele>650.3</ele>
        <time>2020-11-15T12:01:22Z</time>
      </trkpt>
      <trkpt lat="-40.1596500" lon="-71.3520850">
        <ele>650.3</ele>
        <time>2020-11-15T12:01:23Z</time>
      </trkpt>
      <trkpt lat="-40.1596700" lon="-71.3521480">
        <ele>650.2</ele>
        <time>2020-11-15T12:01:24Z</time>
      </trkpt>
      <trkpt lat="-40.1596890" lon="-71.3522090">
        <ele>650.1</ele>
        <time>2020-11-15T12:01:25Z</time>
      </trkpt>
      <trkpt lat="-40.1597080" lon="-71.3522680">
        <ele>650.1</ele>
        <time>2020-11-15T12:01:26Z</time>
      </trkpt>
      <trkpt lat="-40.1597280" lon="-71.3523270">
        <ele>650.0</ele>
        <time>2020-11-15T12:01:27Z</time>
      </trkpt>
      <trkpt lat="-40.1597490" lon="-71.3523870">
        <ele>650.0</ele>
        <time>2020-11-15T12:01:28Z</time>
      </trkpt>
      <trkpt lat="-40.1597710" lon="-71.3524480">
        <ele>649.9</ele>
        <time>2020-11-15T12:01:29Z</time>
      </trkpt>
      <trkpt lat="-40.1597940" lon="-71.3525090">
        <ele>649.8</ele>
        <time>2020-11-15T12:01:30Z</time>
      </trkpt>
      <trkpt lat="-40.1598160" lon="-71.3525700">
        <ele>649.8</ele>
        <time>2020-11-15T12:01:31Z</time>
      </trkpt>
      <trkpt lat="-40.1598390" lon="-71.3526300">
        <ele>649.7</ele>
        <time>2020-11-15T12:01:32Z</time>
      </trkpt>
      <trkpt lat="-40.1598620" lon="-71.3526900">
        <ele>649.7</ele>
        <time>2020-11-15T12:01:33Z</time>
      </trkpt>
      <trkpt lat="-40.1598840" lon="-71.3527490">
        <ele>649.7</ele>
        <time>2020-11-15T12:01:34Z</time>
      </trkpt>
      <trkpt lat="-40.1599050" lon="-71.3528080">
        <ele>649.7</ele>
        <time>2020-11-15T12:01:35Z</time>
      </trkpt>
      <trkpt lat="-40.1599260" lon="-71.3528670">
        <ele>649.7</ele>
        <time>2020-11-15T12:01:36Z</time>
      </trkpt>
      <trkpt lat="-40.1599460" lon="-71.3529270">
        <ele>649.6</ele>
        <time>2020-11-15T12:01:37Z</time>
      </trkpt>
      <trkpt lat="-40.1599640" lon="-71.3529850">
        <ele>649.6</ele>
        <time>2020-11-15T12:01:38Z</time>
      </trkpt>
      <trkpt lat="-40.1599830" lon="-71.3530400">
        <ele>649.6</ele>
        <time>2020-11-15T12:01:39Z</time>
      </trkpt>
      <trkpt lat="-40.1600020" lon="-71.3530920">
        <ele>649.5</ele>
        <time>2020-11-15T12:01:40Z</time>
      </trkpt>
      <trkpt lat="-40.1600190" lon="-71.3531400">
        <ele>649.5</ele>
        <time>2020-11-15T12:01:41Z</time>
      </trkpt>
      <trkpt lat="-40.1600360" lon="-71.3531850">
        <ele>649.5</ele>
        <time>2020-11-15T12:01:42Z</time>
      </trkpt>
      <trkpt lat="-40.1600530" lon="-71.3532280">
        <ele>649.5</ele>
        <time>2020-11-15T12:01:43Z</time>
      </trkpt>
      <trkpt lat="-40.1600670" lon="-71.3532680">
        <ele>649.5</ele>
        <time>2020-11-15T12:01:44Z</time>
      </trkpt>
      <trkpt lat="-40.1600820" lon="-71.3533070">
        <ele>649.5</ele>
        <time>2020-11-15T12:01:45Z</time>
      </trkpt>
      <trkpt lat="-40.1600970" lon="-71.3533410">
        <ele>649.5</ele>
        <time>2020-11-15T12:01:46Z</time>
      </trkpt>
      <trkpt lat="-40.1601100" lon="-71.3533720">
        <ele>649.5</ele>
        <time>2020-11-15T12:01:47Z</time>
      </trkpt>
      <trkpt lat="-40.1601190" lon="-71.3534020">
        <ele>649.5</ele>
        <time>2020-11-15T12:01:48Z</time>
      </trkpt>
      <trkpt lat="-40.1601260" lon="-71.3534300">
        <ele>649.4</ele>
        <time>2020-11-15T12:01:49Z</time>
      </trkpt>
      <trkpt lat="-40.1601340" lon="-71.3534600">
        <ele>649.4</ele>
        <time>2020-11-15T12:01:50Z</time>
      </trkpt>
      <trkpt lat="-40.1601410" lon="-71.3534880">
        <ele>649.4</ele>
        <time>2020-11-15T12:01:51Z</time>
      </trkpt>
      <trkpt lat="-40.1601470" lon="-71.3535160">
        <ele>649.4</ele>
        <time>2020-11-15T12:01:52Z</time>
      </trkpt>
      <trkpt lat="-40.1601530" lon="-71.3535420">
        <ele>649.4</ele>
        <time>2020-11-15T12:01:53Z</time>
      </trkpt>
      <trkpt lat="-40.1601600" lon="-71.3535670">
        <ele>649.4</ele>
        <time>2020-11-15T12:01:54Z</time>
      </trkpt>
      <trkpt lat="-40.1601670" lon="-71.3535920">
        <ele>649.4</ele>
        <time>2020-11-15T12:01:55Z</time>
      </trkpt>
      <trkpt lat="-40.1601730" lon="-71.3536180">
        <ele>649.4</ele>
        <time>2020-11-15T12:01:56Z</time>
      </trkpt>
      <trkpt lat="-40.1601790" lon="-71.3536440">
        <ele>649.4</ele>
        <time>2020-11-15T12:01:57Z</time>
      </trkpt>
      <trkpt lat="-40.1601840" lon="-71.3536690">
        <ele>649.3</ele>
        <time>2020-11-15T12:01:58Z</time>
      </trkpt>
      <trkpt lat="-40.1601930" lon="-71.3537180">
        <ele>649.3</ele>
        <time>2020-11-15T12:01:59Z</time>
      </trkpt>
      <trkpt lat="-40.1601970" lon="-71.3537410">
        <ele>649.3</ele>
        <time>2020-11-15T12:02:01Z</time>
      </trkpt>
      <trkpt lat="-40.1602030" lon="-71.3537620">
        <ele>649.3</ele>
        <time>2020-11-15T12:02:02Z</time>
      </trkpt>
      <trkpt lat="-40.1602090" lon="-71.3537840">
        <ele>649.3</ele>
        <time>2020-11-15T12:02:03Z</time>
      </trkpt>
      <trkpt lat="-40.1602150" lon="-71.3538060">
        <ele>649.2</ele>
        <time>2020-11-15T12:02:04Z</time>
      </trkpt>
      <trkpt lat="-40.1602250" lon="-71.3538540">
        <ele>649.2</ele>
        <time>2020-11-15T12:02:06Z</time>
      </trkpt>
      <trkpt lat="-40.1602310" lon="-71.3538790">
        <ele>649.2</ele>
        <time>2020-11-15T12:02:07Z</time>
      </trkpt>
      <trkpt lat="-40.1602360" lon="-71.3539000">
        <ele>649.2</ele>
        <time>2020-11-15T12:02:08Z</time>
      </trkpt>
      <trkpt lat="-40.1602420" lon="-71.3539220">
        <ele>649.2</ele>
        <time>2020-11-15T12:02:09Z</time>
      </trkpt>
      <trkpt lat="-40.1602480" lon="-71.3539440">
        <ele>649.2</ele>
        <time>2020-11-15T12:02:10Z</time>
      </trkpt>
      <trkpt lat="-40.1602530" lon="-71.3539680">
        <ele>649.2</ele>
        <time>2020-11-15T12:02:11Z</time>
      </trkpt>
      <trkpt lat="-40.1602590" lon="-71.3539920">
        <ele>649.2</ele>
        <time>2020-11-15T12:02:12Z</time>
      </trkpt>
      <trkpt lat="-40.1602740" lon="-71.3540350">
        <ele>649.2</ele>
        <time>2020-11-15T12:02:14Z</time>
      </trkpt>
      <trkpt lat="-40.1602780" lon="-71.3540540">
        <ele>649.2</ele>
        <time>2020-11-15T12:02:15Z</time>
      </trkpt>
      <trkpt lat="-40.1602770" lon="-71.3540700">
        <ele>649.2</ele>
        <time>2020-11-15T12:02:16Z</time>
      </trkpt>
      <trkpt lat="-40.1602760" lon="-71.3540850">
        <ele>649.2</ele>
        <time>2020-11-15T12:02:17Z</time>
      </trkpt>
      <trkpt lat="-40.1602770" lon="-71.3540990">
        <ele>649.2</ele>
        <time>2020-11-15T12:02:18Z</time>
      </trkpt>
      <trkpt lat="-40.1602820" lon="-71.3541140">
        <ele>649.2</ele>
        <time>2020-11-15T12:02:19Z</time>
      </trkpt>
      <trkpt lat="-40.1602890" lon="-71.3541310">
        <ele>649.2</ele>
        <time>2020-11-15T12:02:20Z</time>
      </trkpt>
      <trkpt lat="-40.1603040" lon="-71.3541710">
        <ele>649.2</ele>
        <time>2020-11-15T12:02:22Z</time>
      </trkpt>
      <trkpt lat="-40.1603140" lon="-71.3541960">
        <ele>649.2</ele>
        <time>2020-11-15T12:02:23Z</time>
      </trkpt>
      <trkpt lat="-40.1603240" lon="-71.3542230">
        <ele>649.2</ele>
        <time>2020-11-15T12:02:24Z</time>
      </trkpt>
      <trkpt lat="-40.1603350" lon="-71.3542520">
        <ele>649.2</ele>
        <time>2020-11-15T12:02:25Z</time>
      </trkpt>
      <trkpt lat="-40.1603450" lon="-71.3542820">
        <ele>649.2</ele>
        <time>2020-11-15T12:02:26Z</time>
      </trkpt>
      <trkpt lat="-40.1603540" lon="-71.3543110">
        <ele>649.2</ele>
        <time>2020-11-15T12:02:27Z</time>
      </trkpt>
      <trkpt lat="-40.1603640" lon="-71.3543400">
        <ele>649.2</ele>
        <time>2020-11-15T12:02:28Z</time>
      </trkpt>
      <trkpt lat="-40.1603760" lon="-71.3543680">
        <ele>649.2</ele>
        <time>2020-11-15T12:02:29Z</time>
      </trkpt>
      <trkpt lat="-40.1603870" lon="-71.3543920">
        <ele>649.2</ele>
        <time>2020-11-15T12:02:30Z</time>
      </trkpt>
      <trkpt lat="-40.1603990" lon="-71.3544150">
        <ele>649.2</ele>
        <time>2020-11-15T12:02:31Z</time>
      </trkpt>
      <trkpt lat="-40.1604100" lon="-71.3544380">
        <ele>649.2</ele>
        <time>2020-11-15T12:02:32Z</time>
      </trkpt>
      <trkpt lat="-40.1604230" lon="-71.3544650">
        <ele>649.2</ele>
        <time>2020-11-15T12:02:33Z</time>
      </trkpt>
      <trkpt lat="-40.1604340" lon="-71.3544940">
        <ele>649.2</ele>
        <time>2020-11-15T12:02:34Z</time>
      </trkpt>
      <trkpt lat="-40.1604460" lon="-71.3545250">
        <ele>649.2</ele>
        <time>2020-11-15T12:02:35Z</time>
      </trkpt>
      <trkpt lat="-40.1604560" lon="-71.3545560">
        <ele>649.2</ele>
        <time>2020-11-15T12:02:36Z</time>
      </trkpt>
      <trkpt lat="-40.1604650" lon="-71.3545870">
        <ele>649.2</ele>
        <time>2020-11-15T12:02:37Z</time>
      </trkpt>
      <trkpt lat="-40.1604730" lon="-71.3546190">
        <ele>649.2</ele>
        <time>2020-11-15T12:02:38Z</time>
      </trkpt>
      <trkpt lat="-40.1604810" lon="-71.3546500">
        <ele>649.2</ele>
        <time>2020-11-15T12:02:39Z</time>
      </trkpt>
      <trkpt lat="-40.1604900" lon="-71.3546800">
        <ele>649.2</ele>
        <time>2020-11-15T12:02:40Z</time>
      </trkpt>
      <trkpt lat="-40.1604990" lon="-71.3547110">
        <ele>649.2</ele>
        <time>2020-11-15T12:02:41Z</time>
      </trkpt>
      <trkpt lat="-40.1605090" lon="-71.3547460">
        <ele>649.2</ele>
        <time>2020-11-15T12:02:42Z</time>
      </trkpt>
      <trkpt lat="-40.1605180" lon="-71.3547820">
        <ele>649.2</ele>
        <time>2020-11-15T12:02:43Z</time>
      </trkpt>
      <trkpt lat="-40.1605270" lon="-71.3548180">
        <ele>649.2</ele>
        <time>2020-11-15T12:02:44Z</time>
      </trkpt>
      <trkpt lat="-40.1605360" lon="-71.3548520">
        <ele>649.2</ele>
        <time>2020-11-15T12:02:45Z</time>
      </trkpt>
      <trkpt lat="-40.1605440" lon="-71.3548860">
        <ele>649.2</ele>
        <time>2020-11-15T12:02:46Z</time>
      </trkpt>
      <trkpt lat="-40.1605490" lon="-71.3549180">
        <ele>649.2</ele>
        <time>2020-11-15T12:02:47Z</time>
      </trkpt>
      <trkpt lat="-40.1605580" lon="-71.3549450">
        <ele>649.2</ele>
        <time>2020-11-15T12:02:48Z</time>
      </trkpt>
      <trkpt lat="-40.1605690" lon="-71.3549660">
        <ele>649.2</ele>
        <time>2020-11-15T12:02:49Z</time>
      </trkpt>
      <trkpt lat="-40.1605790" lon="-71.3549720">
        <ele>649.2</ele>
        <time>2020-11-15T12:02:50Z</time>
      </trkpt>
      <trkpt lat="-40.1605770" lon="-71.3549640">
        <ele>649.2</ele>
        <time>2020-11-15T12:02:51Z</time>
      </trkpt>
      <trkpt lat="-40.1605760" lon="-71.3549560">
        <ele>649.2</ele>
        <time>2020-11-15T12:02:52Z</time>
      </trkpt>
      <trkpt lat="-40.1605740" lon="-71.3549480">
        <ele>649.1</ele>
        <time>2020-11-15T12:02:53Z</time>
      </trkpt>
      <trkpt lat="-40.1605730" lon="-71.3549400">
        <ele>649.1</ele>
        <time>2020-11-15T12:02:54Z</time>
      </trkpt>
      <trkpt lat="-40.1605710" lon="-71.3549320">
        <ele>649.1</ele>
        <time>2020-11-15T12:02:55Z</time>
      </trkpt>
      <trkpt lat="-40.1605700" lon="-71.3549240">
        <ele>649.1</ele>
        <time>2020-11-15T12:02:56Z</time>
      </trkpt>
      <trkpt lat="-40.1605680" lon="-71.3549150">
        <ele>649.1</ele>
        <time>2020-11-15T12:02:57Z</time>
      </trkpt>
      <trkpt lat="-40.1605670" lon="-71.3549070">
        <ele>649.1</ele>
        <time>2020-11-15T12:02:58Z</time>
      </trkpt>
      <trkpt lat="-40.1605650" lon="-71.3548990">
        <ele>649.1</ele>
        <time>2020-11-15T12:02:59Z</time>
      </trkpt>
      <trkpt lat="-40.1605640" lon="-71.3548910">
        <ele>649.1</ele>
        <time>2020-11-15T12:03:00Z</time>
      </trkpt>
      <trkpt lat="-40.1605620" lon="-71.3548830">
        <ele>649.1</ele>
        <time>2020-11-15T12:03:01Z</time>
      </trkpt>
      <trkpt lat="-40.1605610" lon="-71.3548750">
        <ele>649.1</ele>
        <time>2020-11-15T12:03:02Z</time>
      </trkpt>
      <trkpt lat="-40.1605590" lon="-71.3548670">
        <ele>649.1</ele>
        <time>2020-11-15T12:03:03Z</time>
      </trkpt>
      <trkpt lat="-40.1605580" lon="-71.3548590">
        <ele>649.1</ele>
        <time>2020-11-15T12:03:04Z</time>
      </trkpt>
      <trkpt lat="-40.1605570" lon="-71.3548510">
        <ele>649.1</ele>
        <time>2020-11-15T12:03:06Z</time>
      </trkpt>
      <trkpt lat="-40.1605550" lon="-71.3548430">
        <ele>649.1</ele>
        <time>2020-11-15T12:03:07Z</time>
      </trkpt>
      <trkpt lat="-40.1605540" lon="-71.3548350">
        <ele>649.1</ele>
        <time>2020-11-15T12:03:08Z</time>
      </trkpt>
      <trkpt lat="-40.1605520" lon="-71.3548270">
        <ele>649.1</ele>
        <time>2020-11-15T12:03:09Z</time>
      </trkpt>
      <trkpt lat="-40.1605510" lon="-71.3548190">
        <ele>649.1</ele>
        <time>2020-11-15T12:03:10Z</time>
      </trkpt>
      <trkpt lat="-40.1605490" lon="-71.3548110">
        <ele>649.1</ele>
        <time>2020-11-15T12:03:11Z</time>
      </trkpt>
      <trkpt lat="-40.1605480" lon="-71.3548030">
        <ele>649.1</ele>
        <time>2020-11-15T12:03:12Z</time>
      </trkpt>
      <trkpt lat="-40.1605460" lon="-71.3547950">
        <ele>649.1</ele>
        <time>2020-11-15T12:03:13Z</time>
      </trkpt>
      <trkpt lat="-40.1605450" lon="-71.3547860">
        <ele>649.1</ele>
        <time>2020-11-15T12:03:14Z</time>
      </trkpt>
      <trkpt lat="-40.1605430" lon="-71.3547780">
        <ele>649.1</ele>
        <time>2020-11-15T12:03:15Z</time>
      </trkpt>
      <trkpt lat="-40.1605420" lon="-71.3547700">
        <ele>649.1</ele>
        <time>2020-11-15T12:03:16Z</time>
      </trkpt>
      <trkpt lat="-40.1605400" lon="-71.3547620">
        <ele>649.1</ele>
        <time>2020-11-15T12:03:17Z</time>
      </trkpt>
      <trkpt lat="-40.1605390" lon="-71.3547540">
        <ele>649.1</ele>
        <time>2020-11-15T12:03:18Z</time>
      </trkpt>
      <trkpt lat="-40.1605370" lon="-71.3547460">
        <ele>649.1</ele>
        <time>2020-11-15T12:03:19Z</time>
      </trkpt>
      <trkpt lat="-40.1605360" lon="-71.3547380">
        <ele>649.1</ele>
        <time>2020-11-15T12:03:43Z</time>
      </trkpt>
      <trkpt lat="-40.1605340" lon="-71.3547300">
        <ele>649.1</ele>
        <time>2020-11-15T12:03:44Z</time>
      </trkpt>
      <trkpt lat="-40.1605330" lon="-71.3547220">
        <ele>649.1</ele>
        <time>2020-11-15T12:03:44Z</time>
      </trkpt>
      <trkpt lat="-40.1605360" lon="-71.3547210">
        <ele>649.1</ele>
        <time>2020-11-15T12:03:45Z</time>
      </trkpt>
      <trkpt lat="-40.1605650" lon="-71.3547430">
        <ele>649.1</ele>
        <time>2020-11-15T12:04:07Z</time>
      </trkpt>
      <trkpt lat="-40.1605660" lon="-71.3547470">
        <ele>649.1</ele>
        <time>2020-11-15T12:04:08Z</time>
      </trkpt>
      <trkpt lat="-40.1605680" lon="-71.3547550">
        <ele>649.1</ele>
        <time>2020-11-15T12:04:09Z</time>
      </trkpt>
      <trkpt lat="-40.1605720" lon="-71.3547660">
        <ele>649.1</ele>
        <time>2020-11-15T12:04:10Z</time>
      </trkpt>
      <trkpt lat="-40.1605770" lon="-71.3547830">
        <ele>649.1</ele>
        <time>2020-11-15T12:04:11Z</time>
      </trkpt>
      <trkpt lat="-40.1605820" lon="-71.3548040">
        <ele>649.1</ele>
        <time>2020-11-15T12:04:12Z</time>
      </trkpt>
      <trkpt lat="-40.1605890" lon="-71.3548320">
        <ele>649.1</ele>
        <time>2020-11-15T12:04:13Z</time>
      </trkpt>
      <trkpt lat="-40.1605960" lon="-71.3548630">
        <ele>649.1</ele>
        <time>2020-11-15T12:04:14Z</time>
      </trkpt>
      <trkpt lat="-40.1606050" lon="-71.3548950">
        <ele>649.1</ele>
        <time>2020-11-15T12:04:15Z</time>
      </trkpt>
      <trkpt lat="-40.1606150" lon="-71.3549290">
        <ele>649.0</ele>
        <time>2020-11-15T12:04:16Z</time>
      </trkpt>
      <trkpt lat="-40.1606260" lon="-71.3549660">
        <ele>649.0</ele>
        <time>2020-11-15T12:04:17Z</time>
      </trkpt>
      <trkpt lat="-40.1606370" lon="-71.3550050">
        <ele>649.0</ele>
        <time>2020-11-15T12:04:18Z</time>
      </trkpt>
      <trkpt lat="-40.1606480" lon="-71.3550460">
        <ele>649.0</ele>
        <time>2020-11-15T12:04:19Z</time>
      </trkpt>
      <trkpt lat="-40.1606590" lon="-71.3550880">
        <ele>649.0</ele>
        <time>2020-11-15T12:04:20Z</time>
      </trkpt>
      <trkpt lat="-40.1606710" lon="-71.3551300">
        <ele>649.0</ele>
        <time>2020-11-15T12:04:21Z</time>
      </trkpt>
      <trkpt lat="-40.1606830" lon="-71.3551720">
        <ele>649.0</ele>
        <time>2020-11-15T12:04:22Z</time>
      </trkpt>
      <trkpt lat="-40.1606950" lon="-71.3552140">
        <ele>649.0</ele>
        <time>2020-11-15T12:04:23Z</time>
      </trkpt>
      <trkpt lat="-40.1607070" lon="-71.3552560">
        <ele>649.0</ele>
        <time>2020-11-15T12:04:24Z</time>
      </trkpt>
      <trkpt lat="-40.1607190" lon="-71.3552980">
        <ele>649.0</ele>
        <time>2020-11-15T12:04:25Z</time>
      </trkpt>
      <trkpt lat="-40.1607320" lon="-71.3553430">
        <ele>649.0</ele>
        <time>2020-11-15T12:04:26Z</time>
      </trkpt>
      <trkpt lat="-40.1607460" lon="-71.3553890">
        <ele>649.0</ele>
        <time>2020-11-15T12:04:27Z</time>
      </trkpt>
      <trkpt lat="-40.1607610" lon="-71.3554340">
        <ele>648.9</ele>
        <time>2020-11-15T12:04:28Z</time>
      </trkpt>
      <trkpt lat="-40.1607780" lon="-71.3554800">
        <ele>648.9</ele>
        <time>2020-11-15T12:04:29Z</time>
      </trkpt>
      <trkpt lat="-40.1607940" lon="-71.3555280">
        <ele>648.9</ele>
        <time>2020-11-15T12:04:30Z</time>
      </trkpt>
      <trkpt lat="-40.1608110" lon="-71.3555760">
        <ele>648.9</ele>
        <time>2020-11-15T12:04:31Z</time>
      </trkpt>
      <trkpt lat="-40.1608280" lon="-71.3556240">
        <ele>648.9</ele>
        <time>2020-11-15T12:04:32Z</time>
      </trkpt>
      <trkpt lat="-40.1608450" lon="-71.3556730">
        <ele>648.9</ele>
        <time>2020-11-15T12:04:33Z</time>
      </trkpt>
      <trkpt lat="-40.1608610" lon="-71.3557210">
        <ele>648.9</ele>
        <time>2020-11-15T12:04:34Z</time>
      </trkpt>
      <trkpt lat="-40.1608770" lon="-71.3557700">
        <ele>648.9</ele>
        <time>2020-11-15T12:04:35Z</time>
      </trkpt>
      <trkpt lat="-40.1608930" lon="-71.3558180">
        <ele>648.9</ele>
        <time>2020-11-15T12:04:36Z</time>
      </trkpt>
      <trkpt lat="-40.1609100" lon="-71.3558660">
        <ele>648.9</ele>
        <time>2020-11-15T12:04:37Z</time>
      </trkpt>
      <trkpt lat="-40.1609280" lon="-71.3559170">
        <ele>648.9</ele>
        <time>2020-11-15T12:04:38Z</time>
      </trkpt>
      <trkpt lat="-40.1609440" lon="-71.3559670">
        <ele>648.8</ele>
        <time>2020-11-15T12:04:39Z</time>
      </trkpt>
      <trkpt lat="-40.1609600" lon="-71.3560170">
        <ele>648.8</ele>
        <time>2020-11-15T12:04:40Z</time>
      </trkpt>
      <trkpt lat="-40.1609780" lon="-71.3560650">
        <ele>648.8</ele>
        <time>2020-11-15T12:04:41Z</time>
      </trkpt>
      <trkpt lat="-40.1609950" lon="-71.3561130">
        <ele>648.8</ele>
        <time>2020-11-15T12:04:43Z</time>
      </trkpt>
      <trkpt lat="-40.1610120" lon="-71.3561610">
        <ele>648.8</ele>
        <time>2020-11-15T12:04:44Z</time>
      </trkpt>
      <trkpt lat="-40.1610280" lon="-71.3562080">
        <ele>648.8</ele>
        <time>2020-11-15T12:04:45Z</time>
      </trkpt>
      <trkpt lat="-40.1610440" lon="-71.3562540">
        <ele>648.7</ele>
        <time>2020-11-15T12:04:46Z</time>
      </trkpt>
      <trkpt lat="-40.1610600" lon="-71.3563010">
        <ele>648.7</ele>
        <time>2020-11-15T12:04:47Z</time>
      </trkpt>
      <trkpt lat="-40.1610750" lon="-71.3563480">
        <ele>648.7</ele>
        <time>2020-11-15T12:04:48Z</time>
      </trkpt>
      <trkpt lat="-40.1610900" lon="-71.3563940">
        <ele>648.7</ele>
        <time>2020-11-15T12:04:49Z</time>
      </trkpt>
      <trkpt lat="-40.1611050" lon="-71.3564400">
        <ele>648.7</ele>
        <time>2020-11-15T12:04:50Z</time>
      </trkpt>
      <trkpt lat="-40.1611210" lon="-71.3564840">
        <ele>648.7</ele>
        <time>2020-11-15T12:04:51Z</time>
      </trkpt>
      <trkpt lat="-40.1611350" lon="-71.3565290">
        <ele>648.8</ele>
        <time>2020-11-15T12:04:52Z</time>
      </trkpt>
      <trkpt lat="-40.1611490" lon="-71.3565760">
        <ele>648.8</ele>
        <time>2020-11-15T12:04:53Z</time>
      </trkpt>
      <trkpt lat="-40.1611640" lon="-71.3566250">
        <ele>648.8</ele>
        <time>2020-11-15T12:04:54Z</time>
      </trkpt>
      <trkpt lat="-40.1611800" lon="-71.3566770">
        <ele>648.8</ele>
        <time>2020-11-15T12:04:55Z</time>
      </trkpt>
      <trkpt lat="-40.1611960" lon="-71.3567310">
        <ele>648.9</ele>
        <time>2020-11-15T12:04:56Z</time>
      </trkpt>
      <trkpt lat="-40.1612130" lon="-71.3567870">
        <ele>648.9</ele>
        <time>2020-11-15T12:04:57Z</time>
      </trkpt>
      <trkpt lat="-40.1612310" lon="-71.3568410">
        <ele>648.9</ele>
        <time>2020-11-15T12:04:58Z</time>
      </trkpt>
      <trkpt lat="-40.1612500" lon="-71.3568930">
        <ele>648.9</ele>
        <time>2020-11-15T12:04:59Z</time>
      </trkpt>
      <trkpt lat="-40.1612690" lon="-71.3569460">
        <ele>648.9</ele>
        <time>2020-11-15T12:05:00Z</time>
      </trkpt>
      <trkpt lat="-40.1612880" lon="-71.3569980">
        <ele>648.9</ele>
        <time>2020-11-15T12:05:01Z</time>
      </trkpt>
      <trkpt lat="-40.1613060" lon="-71.3570490">
        <ele>648.9</ele>
        <time>2020-11-15T12:05:02Z</time>
      </trkpt>
      <trkpt lat="-40.1613240" lon="-71.3570990">
        <ele>648.9</ele>
        <time>2020-11-15T12:05:03Z</time>
      </trkpt>
      <trkpt lat="-40.1613420" lon="-71.3571480">
        <ele>648.9</ele>
        <time>2020-11-15T12:05:04Z</time>
      </trkpt>
      <trkpt lat="-40.1613620" lon="-71.3571940">
        <ele>648.9</ele>
        <time>2020-11-15T12:05:05Z</time>
      </trkpt>
      <trkpt lat="-40.1613820" lon="-71.3572380">
        <ele>648.8</ele>
        <time>2020-11-15T12:05:06Z</time>
      </trkpt>
      <trkpt lat="-40.1614000" lon="-71.3572820">
        <ele>648.8</ele>
        <time>2020-11-15T12:05:07Z</time>
      </trkpt>
      <trkpt lat="-40.1614170" lon="-71.3573240">
        <ele>648.8</ele>
        <time>2020-11-15T12:05:08Z</time>
      </trkpt>
      <trkpt lat="-40.1614350" lon="-71.3573670">
        <ele>648.8</ele>
        <time>2020-11-15T12:05:09Z</time>
      </trkpt>
      <trkpt lat="-40.1614540" lon="-71.3574100">
        <ele>648.8</ele>
        <time>2020-11-15T12:05:10Z</time>
      </trkpt>
      <trkpt lat="-40.1614770" lon="-71.3574530">
        <ele>648.8</ele>
        <time>2020-11-15T12:05:11Z</time>
      </trkpt>
      <trkpt lat="-40.1615040" lon="-71.3574920">
        <ele>648.8</ele>
        <time>2020-11-15T12:05:12Z</time>
      </trkpt>
      <trkpt lat="-40.1615330" lon="-71.3575250">
        <ele>648.8</ele>
        <time>2020-11-15T12:05:13Z</time>
      </trkpt>
      <trkpt lat="-40.1615660" lon="-71.3575520">
        <ele>648.8</ele>
        <time>2020-11-15T12:05:14Z</time>
      </trkpt>
      <trkpt lat="-40.1616010" lon="-71.3575650">
        <ele>648.7</ele>
        <time>2020-11-15T12:05:15Z</time>
      </trkpt>
      <trkpt lat="-40.1616380" lon="-71.3575680">
        <ele>648.7</ele>
        <time>2020-11-15T12:05:16Z</time>
      </trkpt>
      <trkpt lat="-40.1616770" lon="-71.3575640">
        <ele>648.7</ele>
        <time>2020-11-15T12:05:17Z</time>
      </trkpt>
      <trkpt lat="-40.1617160" lon="-71.3575540">
        <ele>648.7</ele>
        <time>2020-11-15T12:05:18Z</time>
      </trkpt>
      <trkpt lat="-40.1617560" lon="-71.3575410">
        <ele>648.7</ele>
        <time>2020-11-15T12:05:19Z</time>
      </trkpt>
      <trkpt lat="-40.1617970" lon="-71.3575240">
        <ele>648.7</ele>
        <time>2020-11-15T12:05:20Z</time>
      </trkpt>
      <trkpt lat="-40.1618380" lon="-71.3575040">
        <ele>648.6</ele>
        <time>2020-11-15T12:05:21Z</time>
      </trkpt>
      <trkpt lat="-40.1618780" lon="-71.3574820">
        <ele>648.6</ele>
        <time>2020-11-15T12:05:22Z</time>
      </trkpt>
      <trkpt lat="-40.1619180" lon="-71.3574610">
        <ele>648.6</ele>
        <time>2020-11-15T12:05:23Z</time>
      </trkpt>
      <trkpt lat="-40.1619590" lon="-71.3574390">
        <ele>648.6</ele>
        <time>2020-11-15T12:05:24Z</time>
      </trkpt>
      <trkpt lat="-40.1619980" lon="-71.3574170">
        <ele>648.6</ele>
        <time>2020-11-15T12:05:25Z</time>
      </trkpt>
      <trkpt lat="-40.1620370" lon="-71.3573940">
        <ele>648.6</ele>
        <time>2020-11-15T12:05:26Z</time>
      </trkpt>
      <trkpt lat="-40.1620770" lon="-71.3573700">
        <ele>648.6</ele>
        <time>2020-11-15T12:05:27Z</time>
      </trkpt>
      <trkpt lat="-40.1621170" lon="-71.3573450">
        <ele>648.5</ele>
        <time>2020-11-15T12:05:28Z</time>
      </trkpt>
      <trkpt lat="-40.1621570" lon="-71.3573210">
        <ele>648.5</ele>
        <time>2020-11-15T12:05:29Z</time>
      </trkpt>
      <trkpt lat="-40.1621950" lon="-71.3572970">
        <ele>648.5</ele>
        <time>2020-11-15T12:05:30Z</time>
      </trkpt>
      <trkpt lat="-40.1622330" lon="-71.3572720">
        <ele>648.5</ele>
        <time>2020-11-15T12:05:31Z</time>
      </trkpt>
      <trkpt lat="-40.1622690" lon="-71.3572460">
        <ele>648.5</ele>
        <time>2020-11-15T12:05:32Z</time>
      </trkpt>
      <trkpt lat="-40.1623050" lon="-71.3572190">
        <ele>648.5</ele>
        <time>2020-11-15T12:05:33Z</time>
      </trkpt>
      <trkpt lat="-40.1623390" lon="-71.3571920">
        <ele>648.5</ele>
        <time>2020-11-15T12:05:34Z</time>
      </trkpt>
      <trkpt lat="-40.1623730" lon="-71.3571640">
        <ele>648.5</ele>
        <time>2020-11-15T12:05:35Z</time>
      </trkpt>
      <trkpt lat="-40.1624070" lon="-71.3571350">
        <ele>648.6</ele>
        <time>2020-11-15T12:05:36Z</time>
      </trkpt>
      <trkpt lat="-40.1624410" lon="-71.3571060">
        <ele>648.6</ele>
        <time>2020-11-15T12:05:37Z</time>
      </trkpt>
      <trkpt lat="-40.1624750" lon="-71.3570760">
        <ele>648.7</ele>
        <time>2020-11-15T12:05:38Z</time>
      </trkpt>
      <trkpt lat="-40.1625090" lon="-71.3570450">
        <ele>648.7</ele>
        <time>2020-11-15T12:05:39Z</time>
      </trkpt>
      <trkpt lat="-40.1625430" lon="-71.3570150">
        <ele>648.8</ele>
        <time>2020-11-15T12:05:40Z</time>
      </trkpt>
      <trkpt lat="-40.1625760" lon="-71.3569840">
        <ele>648.8</ele>
        <time>2020-11-15T12:05:41Z</time>
      </trkpt>
      <trkpt lat="-40.1626100" lon="-71.3569530">
        <ele>648.9</ele>
        <time>2020-11-15T12:05:42Z</time>
      </trkpt>
      <trkpt lat="-40.1626560" lon="-71.3569080">
        <ele>649.0</ele>
        <time>2020-11-15T12:05:44Z</time>
      </trkpt>
      <trkpt lat="-40.1626980" lon="-71.3568670">
        <ele>649.1</ele>
        <time>2020-11-15T12:05:45Z</time>
      </trkpt>
      <trkpt lat="-40.1627380" lon="-71.3568280">
        <ele>649.2</ele>
        <time>2020-11-15T12:05:46Z</time>
      </trkpt>
      <trkpt lat="-40.1627760" lon="-71.3567930">
        <ele>649.3</ele>
        <time>2020-11-15T12:05:47Z</time>
      </trkpt>
      <trkpt lat="-40.1628120" lon="-71.3567600">
        <ele>649.5</ele>
        <time>2020-11-15T12:05:48Z</time>
      </trkpt>
      <trkpt lat="-40.1628470" lon="-71.3567300">
        <ele>649.6</ele>
        <time>2020-11-15T12:05:49Z</time>
      </trkpt>
      <trkpt lat="-40.1628810" lon="-71.3567030">
        <ele>649.8</ele>
        <time>2020-11-15T12:05:50Z</time>
      </trkpt>
      <trkpt lat="-40.1629140" lon="-71.3566770">
        <ele>650.0</ele>
        <time>2020-11-15T12:05:51Z</time>
      </trkpt>
      <trkpt lat="-40.1629480" lon="-71.3566530">
        <ele>650.2</ele>
        <time>2020-11-15T12:05:52Z</time>
      </trkpt>
      <trkpt lat="-40.1629810" lon="-71.3566320">
        <ele>650.4</ele>
        <time>2020-11-15T12:05:53Z</time>
      </trkpt>
      <trkpt lat="-40.1630140" lon="-71.3566130">
        <ele>650.5</ele>
        <time>2020-11-15T12:05:54Z</time>
      </trkpt>
      <trkpt lat="-40.1630470" lon="-71.3565950">
        <ele>650.7</ele>
        <time>2020-11-15T12:05:55Z</time>
      </trkpt>
      <trkpt lat="-40.1630800" lon="-71.3565780">
        <ele>650.9</ele>
        <time>2020-11-15T12:05:56Z</time>
      </trkpt>
      <trkpt lat="-40.1631130" lon="-71.3565640">
        <ele>651.1</ele>
        <time>2020-11-15T12:05:57Z</time>
      </trkpt>
      <trkpt lat="-40.1631450" lon="-71.3565510">
        <ele>651.3</ele>
        <time>2020-11-15T12:05:58Z</time>
      </trkpt>
      <trkpt lat="-40.1631770" lon="-71.3565380">
        <ele>651.5</ele>
        <time>2020-11-15T12:05:59Z</time>
      </trkpt>
      <trkpt lat="-40.1632080" lon="-71.3565240">
        <ele>651.7</ele>
        <time>2020-11-15T12:06:00Z</time>
      </trkpt>
      <trkpt lat="-40.1632380" lon="-71.3565110">
        <ele>651.9</ele>
        <time>2020-11-15T12:06:01Z</time>
      </trkpt>
      <trkpt lat="-40.1632680" lon="-71.3564990">
        <ele>652.1</ele>
        <time>2020-11-15T12:06:02Z</time>
      </trkpt>
      <trkpt lat="-40.1633260" lon="-71.3564780">
        <ele>652.6</ele>
        <time>2020-11-15T12:06:04Z</time>
      </trkpt>
      <trkpt lat="-40.1633550" lon="-71.3564670">
        <ele>652.8</ele>
        <time>2020-11-15T12:06:05Z</time>
      </trkpt>
      <trkpt lat="-40.1633830" lon="-71.3564570">
        <ele>653.0</ele>
        <time>2020-11-15T12:06:06Z</time>
      </trkpt>
      <trkpt lat="-40.1634090" lon="-71.3564470">
        <ele>653.2</ele>
        <time>2020-11-15T12:06:07Z</time>
      </trkpt>
      <trkpt lat="-40.1634630" lon="-71.3564300">
        <ele>653.6</ele>
        <time>2020-11-15T12:06:09Z</time>
      </trkpt>
      <trkpt lat="-40.1634890" lon="-71.3564220">
        <ele>653.9</ele>
        <time>2020-11-15T12:06:10Z</time>
      </trkpt>
      <trkpt lat="-40.1635150" lon="-71.3564140">
        <ele>654.1</ele>
        <time>2020-11-15T12:06:11Z</time>
      </trkpt>
      <trkpt lat="-40.1635420" lon="-71.3564090">
        <ele>654.3</ele>
        <time>2020-11-15T12:06:12Z</time>
      </trkpt>
      <trkpt lat="-40.1635700" lon="-71.3564050">
        <ele>654.6</ele>
        <time>2020-11-15T12:06:13Z</time>
      </trkpt>
      <trkpt lat="-40.1635970" lon="-71.3564030">
        <ele>654.8</ele>
        <time>2020-11-15T12:06:14Z</time>
      </trkpt>
      <trkpt lat="-40.1636240" lon="-71.3564010">
        <ele>655.1</ele>
        <time>2020-11-15T12:06:15Z</time>
      </trkpt>
      <trkpt lat="-40.1636490" lon="-71.3564010">
        <ele>655.3</ele>
        <time>2020-11-15T12:06:16Z</time>
      </trkpt>
      <trkpt lat="-40.1636730" lon="-71.3564020">
        <ele>655.5</ele>
        <time>2020-11-15T12:06:17Z</time>
      </trkpt>
      <trkpt lat="-40.1636980" lon="-71.3564030">
        <ele>655.8</ele>
        <time>2020-11-15T12:06:18Z</time>
      </trkpt>
      <trkpt lat="-40.1637220" lon="-71.3564060">
        <ele>656.0</ele>
        <time>2020-11-15T12:06:19Z</time>
      </trkpt>
      <trkpt lat="-40.1637470" lon="-71.3564090">
        <ele>656.2</ele>
        <time>2020-11-15T12:06:20Z</time>
      </trkpt>
      <trkpt lat="-40.1637720" lon="-71.3564120">
        <ele>656.4</ele>
        <time>2020-11-15T12:06:21Z</time>
      </trkpt>
      <trkpt lat="-40.1637980" lon="-71.3564140">
        <ele>656.7</ele>
        <time>2020-11-15T12:06:22Z</time>
      </trkpt>
      <trkpt lat="-40.1638240" lon="-71.3564180">
        <ele>656.9</ele>
        <time>2020-11-15T12:06:23Z</time>
      </trkpt>
      <trkpt lat="-40.1638490" lon="-71.3564200">
        <ele>657.1</ele>
        <time>2020-11-15T12:06:24Z</time>
      </trkpt>
      <trkpt lat="-40.1638740" lon="-71.3564220">
        <ele>657.3</ele>
        <time>2020-11-15T12:06:25Z</time>
      </trkpt>
      <trkpt lat="-40.1638970" lon="-71.3564230">
        <ele>657.5</ele>
        <time>2020-11-15T12:06:26Z</time>
      </trkpt>
      <trkpt lat="-40.1639200" lon="-71.3564240">
        <ele>657.7</ele>
        <time>2020-11-15T12:06:27Z</time>
      </trkpt>
      <trkpt lat="-40.1639430" lon="-71.3564270">
        <ele>657.7</ele>
        <time>2020-11-15T12:06:28Z</time>
      </trkpt>
      <trkpt lat="-40.1639660" lon="-71.3564310">
        <ele>657.8</ele>
        <time>2020-11-15T12:06:29Z</time>
      </trkpt>
      <trkpt lat="-40.1639910" lon="-71.3564340">
        <ele>657.8</ele>
        <time>2020-11-15T12:06:30Z</time>
      </trkpt>
      <trkpt lat="-40.1640160" lon="-71.3564380">
        <ele>657.9</ele>
        <time>2020-11-15T12:06:31Z</time>
      </trkpt>
      <trkpt lat="-40.1640420" lon="-71.3564430">
        <ele>658.0</ele>
        <time>2020-11-15T12:06:32Z</time>
      </trkpt>
      <trkpt lat="-40.1640670" lon="-71.3564500">
        <ele>658.2</ele>
        <time>2020-11-15T12:06:33Z</time>
      </trkpt>
      <trkpt lat="-40.1640920" lon="-71.3564570">
        <ele>658.3</ele>
        <time>2020-11-15T12:06:34Z</time>
      </trkpt>
      <trkpt lat="-40.1641180" lon="-71.3564660">
        <ele>658.5</ele>
        <time>2020-11-15T12:06:35Z</time>
      </trkpt>
      <trkpt lat="-40.1641440" lon="-71.3564760">
        <ele>658.6</ele>
        <time>2020-11-15T12:06:36Z</time>
      </trkpt>
      <trkpt lat="-40.1641700" lon="-71.3564860">
        <ele>658.8</ele>
        <time>2020-11-15T12:06:37Z</time>
      </trkpt>
      <trkpt lat="-40.1641950" lon="-71.3564940">
        <ele>659.0</ele>
        <time>2020-11-15T12:06:38Z</time>
      </trkpt>
      <trkpt lat="-40.1642180" lon="-71.3565020">
        <ele>659.1</ele>
        <time>2020-11-15T12:06:39Z</time>
      </trkpt>
      <trkpt lat="-40.1642420" lon="-71.3565090">
        <ele>659.3</ele>
        <time>2020-11-15T12:06:40Z</time>
      </trkpt>
      <trkpt lat="-40.1642670" lon="-71.3565150">
        <ele>659.4</ele>
        <time>2020-11-15T12:06:41Z</time>
      </trkpt>
      <trkpt lat="-40.1642910" lon="-71.3565220">
        <ele>659.6</ele>
        <time>2020-11-15T12:06:42Z</time>
      </trkpt>
      <trkpt lat="-40.1643150" lon="-71.3565290">
        <ele>659.8</ele>
        <time>2020-11-15T12:06:43Z</time>
      </trkpt>
      <trkpt lat="-40.1643390" lon="-71.3565360">
        <ele>659.9</ele>
        <time>2020-11-15T12:06:44Z</time>
      </trkpt>
      <trkpt lat="-40.1643630" lon="-71.3565440">
        <ele>660.1</ele>
        <time>2020-11-15T12:06:45Z</time>
      </trkpt>
      <trkpt lat="-40.1643880" lon="-71.3565510">
        <ele>660.2</ele>
        <time>2020-11-15T12:06:46Z</time>
      </trkpt>
      <trkpt lat="-40.1644120" lon="-71.3565590">
        <ele>660.4</ele>
        <time>2020-11-15T12:06:47Z</time>
      </trkpt>
      <trkpt lat="-40.1644360" lon="-71.3565660">
        <ele>660.6</ele>
        <time>2020-11-15T12:06:48Z</time>
      </trkpt>
      <trkpt lat="-40.1644610" lon="-71.3565730">
        <ele>660.8</ele>
        <time>2020-11-15T12:06:49Z</time>
      </trkpt>
      <trkpt lat="-40.1644860" lon="-71.3565780">
        <ele>660.9</ele>
        <time>2020-11-15T12:06:50Z</time>
      </trkpt>
      <trkpt lat="-40.1645100" lon="-71.3565820">
        <ele>661.1</ele>
        <time>2020-11-15T12:06:51Z</time>
      </trkpt>
      <trkpt lat="-40.1645360" lon="-71.3565870">
        <ele>661.3</ele>
        <time>2020-11-15T12:06:52Z</time>
      </trkpt>
      <trkpt lat="-40.1645610" lon="-71.3565920">
        <ele>661.4</ele>
        <time>2020-11-15T12:06:53Z</time>
      </trkpt>
      <trkpt lat="-40.1645870" lon="-71.3565970">
        <ele>661.6</ele>
        <time>2020-11-15T12:06:54Z</time>
      </trkpt>
      <trkpt lat="-40.1646130" lon="-71.3566030">
        <ele>661.8</ele>
        <time>2020-11-15T12:06:55Z</time>
      </trkpt>
      <trkpt lat="-40.1646390" lon="-71.3566090">
        <ele>662.0</ele>
        <time>2020-11-15T12:06:56Z</time>
      </trkpt>
      <trkpt lat="-40.1646660" lon="-71.3566140">
        <ele>662.2</ele>
        <time>2020-11-15T12:06:57Z</time>
      </trkpt>
      <trkpt lat="-40.1646920" lon="-71.3566170">
        <ele>662.4</ele>
        <time>2020-11-15T12:06:58Z</time>
      </trkpt>
      <trkpt lat="-40.1647180" lon="-71.3566220">
        <ele>662.5</ele>
        <time>2020-11-15T12:06:59Z</time>
      </trkpt>
      <trkpt lat="-40.1647440" lon="-71.3566280">
        <ele>662.7</ele>
        <time>2020-11-15T12:07:00Z</time>
      </trkpt>
      <trkpt lat="-40.1647700" lon="-71.3566340">
        <ele>662.9</ele>
        <time>2020-11-15T12:07:01Z</time>
      </trkpt>
      <trkpt lat="-40.1647960" lon="-71.3566410">
        <ele>663.1</ele>
        <time>2020-11-15T12:07:02Z</time>
      </trkpt>
      <trkpt lat="-40.1648210" lon="-71.3566460">
        <ele>663.3</ele>
        <time>2020-11-15T12:07:03Z</time>
      </trkpt>
      <trkpt lat="-40.1648460" lon="-71.3566520">
        <ele>663.4</ele>
        <time>2020-11-15T12:07:04Z</time>
      </trkpt>
      <trkpt lat="-40.1648710" lon="-71.3566570">
        <ele>663.6</ele>
        <time>2020-11-15T12:07:05Z</time>
      </trkpt>
      <trkpt lat="-40.1648950" lon="-71.3566620">
        <ele>663.8</ele>
        <time>2020-11-15T12:07:06Z</time>
      </trkpt>
      <trkpt lat="-40.1649190" lon="-71.3566690">
        <ele>663.9</ele>
        <time>2020-11-15T12:07:07Z</time>
      </trkpt>
      <trkpt lat="-40.1649440" lon="-71.3566770">
        <ele>664.1</ele>
        <time>2020-11-15T12:07:08Z</time>
      </trkpt>
      <trkpt lat="-40.1649680" lon="-71.3566850">
        <ele>664.3</ele>
        <time>2020-11-15T12:07:09Z</time>
      </trkpt>
      <trkpt lat="-40.1649920" lon="-71.3566910">
        <ele>664.4</ele>
        <time>2020-11-15T12:07:10Z</time>
      </trkpt>
      <trkpt lat="-40.1650170" lon="-71.3566980">
        <ele>664.6</ele>
        <time>2020-11-15T12:07:11Z</time>
      </trkpt>
      <trkpt lat="-40.1650420" lon="-71.3567060">
        <ele>664.8</ele>
        <time>2020-11-15T12:07:12Z</time>
      </trkpt>
      <trkpt lat="-40.1650670" lon="-71.3567130">
        <ele>664.9</ele>
        <time>2020-11-15T12:07:13Z</time>
      </trkpt>
      <trkpt lat="-40.1650920" lon="-71.3567200">
        <ele>665.1</ele>
        <time>2020-11-15T12:07:14Z</time>
      </trkpt>
      <trkpt lat="-40.1651170" lon="-71.3567260">
        <ele>665.2</ele>
        <time>2020-11-15T12:07:15Z</time>
      </trkpt>
      <trkpt lat="-40.1651430" lon="-71.3567320">
        <ele>665.4</ele>
        <time>2020-11-15T12:07:16Z</time>
      </trkpt>
      <trkpt lat="-40.1651690" lon="-71.3567420">
        <ele>665.6</ele>
        <time>2020-11-15T12:07:17Z</time>
      </trkpt>
      <trkpt lat="-40.1651950" lon="-71.3567520">
        <ele>665.8</ele>
        <time>2020-11-15T12:07:18Z</time>
      </trkpt>
      <trkpt lat="-40.1652200" lon="-71.3567620">
        <ele>665.9</ele>
        <time>2020-11-15T12:07:19Z</time>
      </trkpt>
      <trkpt lat="-40.1652460" lon="-71.3567700">
        <ele>666.1</ele>
        <time>2020-11-15T12:07:20Z</time>
      </trkpt>
      <trkpt lat="-40.1652720" lon="-71.3567770">
        <ele>666.3</ele>
        <time>2020-11-15T12:07:21Z</time>
      </trkpt>
      <trkpt lat="-40.1652990" lon="-71.3567830">
        <ele>666.5</ele>
        <time>2020-11-15T12:07:22Z</time>
      </trkpt>
      <trkpt lat="-40.1653270" lon="-71.3567900">
        <ele>666.6</ele>
        <time>2020-11-15T12:07:23Z</time>
      </trkpt>
      <trkpt lat="-40.1653550" lon="-71.3567980">
        <ele>666.8</ele>
        <time>2020-11-15T12:07:24Z</time>
      </trkpt>
      <trkpt lat="-40.1654090" lon="-71.3568070">
        <ele>667.1</ele>
        <time>2020-11-15T12:07:26Z</time>
      </trkpt>
      <trkpt lat="-40.1654350" lon="-71.3568130">
        <ele>667.3</ele>
        <time>2020-11-15T12:07:27Z</time>
      </trkpt>
      <trkpt lat="-40.1654610" lon="-71.3568210">
        <ele>667.4</ele>
        <time>2020-11-15T12:07:28Z</time>
      </trkpt>
      <trkpt lat="-40.1654880" lon="-71.3568290">
        <ele>667.6</ele>
        <time>2020-11-15T12:07:29Z</time>
      </trkpt>
      <trkpt lat="-40.1655140" lon="-71.3568350">
        <ele>667.7</ele>
        <time>2020-11-15T12:07:30Z</time>
      </trkpt>
      <trkpt lat="-40.1655400" lon="-71.3568400">
        <ele>667.8</ele>
        <time>2020-11-15T12:07:31Z</time>
      </trkpt>
      <trkpt lat="-40.1655670" lon="-71.3568460">
        <ele>668.0</ele>
        <time>2020-11-15T12:07:32Z</time>
      </trkpt>
      <trkpt lat="-40.1655960" lon="-71.3568540">
        <ele>668.1</ele>
        <time>2020-11-15T12:07:33Z</time>
      </trkpt>
      <trkpt lat="-40.1656230" lon="-71.3568630">
        <ele>668.2</ele>
        <time>2020-11-15T12:07:34Z</time>
      </trkpt>
      <trkpt lat="-40.1656500" lon="-71.3568720">
        <ele>668.4</ele>
        <time>2020-11-15T12:07:35Z</time>
      </trkpt>
      <trkpt lat="-40.1656800" lon="-71.3568800">
        <ele>668.5</ele>
        <time>2020-11-15T12:07:36Z</time>
      </trkpt>
      <trkpt lat="-40.1657090" lon="-71.3568900">
        <ele>668.7</ele>
        <time>2020-11-15T12:07:37Z</time>
      </trkpt>
      <trkpt lat="-40.1657370" lon="-71.3568990">
        <ele>668.8</ele>
        <time>2020-11-15T12:07:38Z</time>
      </trkpt>
      <trkpt lat="-40.1657670" lon="-71.3569080">
        <ele>669.0</ele>
        <time>2020-11-15T12:07:39Z</time>
      </trkpt>
      <trkpt lat="-40.1657970" lon="-71.3569170">
        <ele>669.1</ele>
        <time>2020-11-15T12:07:40Z</time>
      </trkpt>
      <trkpt lat="-40.1658270" lon="-71.3569270">
        <ele>669.2</ele>
        <time>2020-11-15T12:07:41Z</time>
      </trkpt>
      <trkpt lat="-40.1658580" lon="-71.3569380">
        <ele>669.4</ele>
        <time>2020-11-15T12:07:42Z</time>
      </trkpt>
      <trkpt lat="-40.1658880" lon="-71.3569490">
        <ele>669.5</ele>
        <time>2020-11-15T12:07:43Z</time>
      </trkpt>
      <trkpt lat="-40.1659190" lon="-71.3569600">
        <ele>669.6</ele>
        <time>2020-11-15T12:07:44Z</time>
      </trkpt>
      <trkpt lat="-40.1659510" lon="-71.3569710">
        <ele>669.7</ele>
        <time>2020-11-15T12:07:45Z</time>
      </trkpt>
      <trkpt lat="-40.1659820" lon="-71.3569820">
        <ele>669.8</ele>
        <time>2020-11-15T12:07:46Z</time>
      </trkpt>
      <trkpt lat="-40.1660120" lon="-71.3569930">
        <ele>669.8</ele>
        <time>2020-11-15T12:07:47Z</time>
      </trkpt>
      <trkpt lat="-40.1660430" lon="-71.3570050">
        <ele>669.9</ele>
        <time>2020-11-15T12:07:48Z</time>
      </trkpt>
      <trkpt lat="-40.1660750" lon="-71.3570180">
        <ele>670.0</ele>
        <time>2020-11-15T12:07:49Z</time>
      </trkpt>
      <trkpt lat="-40.1661060" lon="-71.3570310">
        <ele>670.1</ele>
        <time>2020-11-15T12:07:50Z</time>
      </trkpt>
      <trkpt lat="-40.1661390" lon="-71.3570450">
        <ele>670.2</ele>
        <time>2020-11-15T12:07:51Z</time>
      </trkpt>
      <trkpt lat="-40.1661710" lon="-71.3570580">
        <ele>670.2</ele>
        <time>2020-11-15T12:07:52Z</time>
      </trkpt>
      <trkpt lat="-40.1662030" lon="-71.3570730">
        <ele>670.3</ele>
        <time>2020-11-15T12:07:53Z</time>
      </trkpt>
      <trkpt lat="-40.1662360" lon="-71.3570880">
        <ele>670.4</ele>
        <time>2020-11-15T12:07:54Z</time>
      </trkpt>
      <trkpt lat="-40.1662680" lon="-71.3571020">
        <ele>670.5</ele>
        <time>2020-11-15T12:07:55Z</time>
      </trkpt>
      <trkpt lat="-40.1663010" lon="-71.3571160">
        <ele>670.6</ele>
        <time>2020-11-15T12:07:56Z</time>
      </trkpt>
      <trkpt lat="-40.1663340" lon="-71.3571310">
        <ele>670.6</ele>
        <time>2020-11-15T12:07:57Z</time>
      </trkpt>
      <trkpt lat="-40.1663680" lon="-71.3571450">
        <ele>670.7</ele>
        <time>2020-11-15T12:07:58Z</time>
      </trkpt>
      <trkpt lat="-40.1664030" lon="-71.3571610">
        <ele>670.7</ele>
        <time>2020-11-15T12:07:59Z</time>
      </trkpt>
      <trkpt lat="-40.1664370" lon="-71.3571760">
        <ele>670.8</ele>
        <time>2020-11-15T12:08:00Z</time>
      </trkpt>
      <trkpt lat="-40.1664720" lon="-71.3571910">
        <ele>670.9</ele>
        <time>2020-11-15T12:08:00Z</time>
      </trkpt>
      <trkpt lat="-40.1665070" lon="-71.3572080">
        <ele>670.9</ele>
        <time>2020-11-15T12:08:01Z</time>
      </trkpt>
      <trkpt lat="-40.1665410" lon="-71.3572260">
        <ele>671.0</ele>
        <time>2020-11-15T12:08:02Z</time>
      </trkpt>
      <trkpt lat="-40.1665750" lon="-71.3572430">
        <ele>671.0</ele>
        <time>2020-11-15T12:08:03Z</time>
      </trkpt>
      <trkpt lat="-40.1666110" lon="-71.3572610">
        <ele>671.1</ele>
        <time>2020-11-15T12:08:04Z</time>
      </trkpt>
      <trkpt lat="-40.1666460" lon="-71.3572800">
        <ele>671.1</ele>
        <time>2020-11-15T12:08:05Z</time>
      </trkpt>
      <trkpt lat="-40.1666830" lon="-71.3572970">
        <ele>671.2</ele>
        <time>2020-11-15T12:08:06Z</time>
      </trkpt>
      <trkpt lat="-40.1667210" lon="-71.3573130">
        <ele>671.2</ele>
        <time>2020-11-15T12:08:07Z</time>
      </trkpt>
      <trkpt lat="-40.1667580" lon="-71.3573270">
        <ele>671.3</ele>
        <time>2020-11-15T12:08:08Z</time>
      </trkpt>
      <trkpt lat="-40.1667960" lon="-71.3573420">
        <ele>671.3</ele>
        <time>2020-11-15T12:08:09Z</time>
      </trkpt>
      <trkpt lat="-40.1668330" lon="-71.3573570">
        <ele>671.4</ele>
        <time>2020-11-15T12:08:10Z</time>
      </trkpt>
      <trkpt lat="-40.1668700" lon="-71.3573730">
        <ele>671.4</ele>
        <time>2020-11-15T12:08:11Z</time>
      </trkpt>
      <trkpt lat="-40.1669070" lon="-71.3573880">
        <ele>671.5</ele>
        <time>2020-11-15T12:08:12Z</time>
      </trkpt>
      <trkpt lat="-40.1669430" lon="-71.3574030">
        <ele>671.5</ele>
        <time>2020-11-15T12:08:13Z</time>
      </trkpt>
      <trkpt lat="-40.1669790" lon="-71.3574160">
        <ele>671.5</ele>
        <time>2020-11-15T12:08:14Z</time>
      </trkpt>
      <trkpt lat="-40.1670160" lon="-71.3574270">
        <ele>671.6</ele>
        <time>2020-11-15T12:08:15Z</time>
      </trkpt>
      <trkpt lat="-40.1670520" lon="-71.3574370">
        <ele>671.6</ele>
        <time>2020-11-15T12:08:16Z</time>
      </trkpt>
      <trkpt lat="-40.1670890" lon="-71.3574450">
        <ele>671.7</ele>
        <time>2020-11-15T12:08:17Z</time>
      </trkpt>
      <trkpt lat="-40.1671270" lon="-71.3574530">
        <ele>671.7</ele>
        <time>2020-11-15T12:08:18Z</time>
      </trkpt>
      <trkpt lat="-40.1671650" lon="-71.3574600">
        <ele>671.8</ele>
        <time>2020-11-15T12:08:19Z</time>
      </trkpt>
      <trkpt lat="-40.1672040" lon="-71.3574670">
        <ele>671.8</ele>
        <time>2020-11-15T12:08:20Z</time>
      </trkpt>
      <trkpt lat="-40.1672430" lon="-71.3574730">
        <ele>671.9</ele>
        <time>2020-11-15T12:08:21Z</time>
      </trkpt>
      <trkpt lat="-40.1672820" lon="-71.3574790">
        <ele>671.9</ele>
        <time>2020-11-15T12:08:22Z</time>
      </trkpt>
      <trkpt lat="-40.1673200" lon="-71.3574850">
        <ele>672.0</ele>
        <time>2020-11-15T12:08:23Z</time>
      </trkpt>
      <trkpt lat="-40.1673590" lon="-71.3574910">
        <ele>672.0</ele>
        <time>2020-11-15T12:08:24Z</time>
      </trkpt>
      <trkpt lat="-40.1673970" lon="-71.3574970">
        <ele>672.0</ele>
        <time>2020-11-15T12:08:25Z</time>
      </trkpt>
      <trkpt lat="-40.1674360" lon="-71.3575040">
        <ele>672.1</ele>
        <time>2020-11-15T12:08:26Z</time>
      </trkpt>
      <trkpt lat="-40.1674750" lon="-71.3575110">
        <ele>672.1</ele>
        <time>2020-11-15T12:08:27Z</time>
      </trkpt>
      <trkpt lat="-40.1675140" lon="-71.3575190">
        <ele>672.2</ele>
        <time>2020-11-15T12:08:28Z</time>
      </trkpt>
      <trkpt lat="-40.1675530" lon="-71.3575280">
        <ele>672.2</ele>
        <time>2020-11-15T12:08:29Z</time>
      </trkpt>
      <trkpt lat="-40.1675920" lon="-71.3575370">
        <ele>672.3</ele>
        <time>2020-11-15T12:08:30Z</time>
      </trkpt>
      <trkpt lat="-40.1676300" lon="-71.3575460">
        <ele>672.4</ele>
        <time>2020-11-15T12:08:31Z</time>
      </trkpt>
      <trkpt lat="-40.1676680" lon="-71.3575560">
        <ele>672.5</ele>
        <time>2020-11-15T12:08:32Z</time>
      </trkpt>
      <trkpt lat="-40.1677060" lon="-71.3575650">
        <ele>672.5</ele>
        <time>2020-11-15T12:08:33Z</time>
      </trkpt>
      <trkpt lat="-40.1677440" lon="-71.3575760">
        <ele>672.6</ele>
        <time>2020-11-15T12:08:34Z</time>
      </trkpt>
      <trkpt lat="-40.1677820" lon="-71.3575840">
        <ele>672.7</ele>
        <time>2020-11-15T12:08:35Z</time>
      </trkpt>
      <trkpt lat="-40.1678190" lon="-71.3575940">
        <ele>672.8</ele>
        <time>2020-11-15T12:08:36Z</time>
      </trkpt>
      <trkpt lat="-40.1678560" lon="-71.3576050">
        <ele>672.9</ele>
        <time>2020-11-15T12:08:37Z</time>
      </trkpt>
      <trkpt lat="-40.1678920" lon="-71.3576200">
        <ele>673.0</ele>
        <time>2020-11-15T12:08:38Z</time>
      </trkpt>
      <trkpt lat="-40.1679270" lon="-71.3576360">
        <ele>673.1</ele>
        <time>2020-11-15T12:08:39Z</time>
      </trkpt>
      <trkpt lat="-40.1679620" lon="-71.3576510">
        <ele>673.3</ele>
        <time>2020-11-15T12:08:40Z</time>
      </trkpt>
      <trkpt lat="-40.1679980" lon="-71.3576680">
        <ele>673.4</ele>
        <time>2020-11-15T12:08:41Z</time>
      </trkpt>
      <trkpt lat="-40.1680330" lon="-71.3576860">
        <ele>673.5</ele>
        <time>2020-11-15T12:08:42Z</time>
      </trkpt>
      <trkpt lat="-40.1680670" lon="-71.3577060">
        <ele>673.7</ele>
        <time>2020-11-15T12:08:43Z</time>
      </trkpt>
      <trkpt lat="-40.1681020" lon="-71.3577260">
        <ele>673.8</ele>
        <time>2020-11-15T12:08:44Z</time>
      </trkpt>
      <trkpt lat="-40.1681360" lon="-71.3577460">
        <ele>674.0</ele>
        <time>2020-11-15T12:08:45Z</time>
      </trkpt>
      <trkpt lat="-40.1681700" lon="-71.3577680">
        <ele>674.1</ele>
        <time>2020-11-15T12:08:46Z</time>
      </trkpt>
      <trkpt lat="-40.1682030" lon="-71.3577890">
        <ele>674.3</ele>
        <time>2020-11-15T12:08:47Z</time>
      </trkpt>
      <trkpt lat="-40.1682360" lon="-71.3578120">
        <ele>674.5</ele>
        <time>2020-11-15T12:08:48Z</time>
      </trkpt>
      <trkpt lat="-40.1682690" lon="-71.3578330">
        <ele>674.6</ele>
        <time>2020-11-15T12:08:49Z</time>
      </trkpt>
      <trkpt lat="-40.1683020" lon="-71.3578550">
        <ele>674.8</ele>
        <time>2020-11-15T12:08:50Z</time>
      </trkpt>
      <trkpt lat="-40.1683350" lon="-71.3578760">
        <ele>674.9</ele>
        <time>2020-11-15T12:08:51Z</time>
      </trkpt>
      <trkpt lat="-40.1683680" lon="-71.3578970">
        <ele>675.1</ele>
        <time>2020-11-15T12:08:52Z</time>
      </trkpt>
      <trkpt lat="-40.1684010" lon="-71.3579190">
        <ele>675.2</ele>
        <time>2020-11-15T12:08:53Z</time>
      </trkpt>
      <trkpt lat="-40.1684330" lon="-71.3579400">
        <ele>675.4</ele>
        <time>2020-11-15T12:08:54Z</time>
      </trkpt>
      <trkpt lat="-40.1684640" lon="-71.3579610">
        <ele>675.5</ele>
        <time>2020-11-15T12:08:55Z</time>
      </trkpt>
      <trkpt lat="-40.1684970" lon="-71.3579820">
        <ele>675.7</ele>
        <time>2020-11-15T12:08:56Z</time>
      </trkpt>
      <trkpt lat="-40.1685290" lon="-71.3580040">
        <ele>675.8</ele>
        <time>2020-11-15T12:08:57Z</time>
      </trkpt>
      <trkpt lat="-40.1685610" lon="-71.3580250">
        <ele>676.0</ele>
        <time>2020-11-15T12:08:58Z</time>
      </trkpt>
      <trkpt lat="-40.1685930" lon="-71.3580460">
        <ele>676.2</ele>
        <time>2020-11-15T12:08:59Z</time>
      </trkpt>
      <trkpt lat="-40.1686250" lon="-71.3580660">
        <ele>676.4</ele>
        <time>2020-11-15T12:09:00Z</time>
      </trkpt>
      <trkpt lat="-40.1686560" lon="-71.3580870">
        <ele>676.6</ele>
        <time>2020-11-15T12:09:01Z</time>
      </trkpt>
      <trkpt lat="-40.1686860" lon="-71.3581070">
        <ele>676.8</ele>
        <time>2020-11-15T12:09:02Z</time>
      </trkpt>
      <trkpt lat="-40.1687160" lon="-71.3581260">
        <ele>677.0</ele>
        <time>2020-11-15T12:09:03Z</time>
      </trkpt>
      <trkpt lat="-40.1687460" lon="-71.3581430">
        <ele>677.2</ele>
        <time>2020-11-15T12:09:04Z</time>
      </trkpt>
      <trkpt lat="-40.1688080" lon="-71.3581800">
        <ele>677.6</ele>
        <time>2020-11-15T12:09:06Z</time>
      </trkpt>
      <trkpt lat="-40.1688390" lon="-71.3581990">
        <ele>677.8</ele>
        <time>2020-11-15T12:09:07Z</time>
      </trkpt>
      <trkpt lat="-40.1688700" lon="-71.3582200">
        <ele>678.0</ele>
        <time>2020-11-15T12:09:08Z</time>
      </trkpt>
      <trkpt lat="-40.1689020" lon="-71.3582410">
        <ele>678.2</ele>
        <time>2020-11-15T12:09:09Z</time>
      </trkpt>
      <trkpt lat="-40.1689330" lon="-71.3582640">
        <ele>678.4</ele>
        <time>2020-11-15T12:09:10Z</time>
      </trkpt>
      <trkpt lat="-40.1689650" lon="-71.3582870">
        <ele>678.6</ele>
        <time>2020-11-15T12:09:11Z</time>
      </trkpt>
      <trkpt lat="-40.1689980" lon="-71.3583090">
        <ele>678.8</ele>
        <time>2020-11-15T12:09:13Z</time>
      </trkpt>
      <trkpt lat="-40.1690300" lon="-71.3583330">
        <ele>679.1</ele>
        <time>2020-11-15T12:09:14Z</time>
      </trkpt>
      <trkpt lat="-40.1690620" lon="-71.3583550">
        <ele>679.3</ele>
        <time>2020-11-15T12:09:15Z</time>
      </trkpt>
      <trkpt lat="-40.1690940" lon="-71.3583760">
        <ele>679.5</ele>
        <time>2020-11-15T12:09:16Z</time>
      </trkpt>
      <trkpt lat="-40.1691260" lon="-71.3583980">
        <ele>679.7</ele>
        <time>2020-11-15T12:09:17Z</time>
      </trkpt>
      <trkpt lat="-40.1691580" lon="-71.3584200">
        <ele>679.9</ele>
        <time>2020-11-15T12:09:18Z</time>
      </trkpt>
      <trkpt lat="-40.1691890" lon="-71.3584430">
        <ele>680.1</ele>
        <time>2020-11-15T12:09:19Z</time>
      </trkpt>
      <trkpt lat="-40.1692200" lon="-71.3584650">
        <ele>680.3</ele>
        <time>2020-11-15T12:09:20Z</time>
      </trkpt>
      <trkpt lat="-40.1692510" lon="-71.3584860">
        <ele>680.5</ele>
        <time>2020-11-15T12:09:21Z</time>
      </trkpt>
      <trkpt lat="-40.1692820" lon="-71.3585090">
        <ele>680.8</ele>
        <time>2020-11-15T12:09:22Z</time>
      </trkpt>
      <trkpt lat="-40.1693130" lon="-71.3585300">
        <ele>681.0</ele>
        <time>2020-11-15T12:09:23Z</time>
      </trkpt>
      <trkpt lat="-40.1693440" lon="-71.3585530">
        <ele>681.2</ele>
        <time>2020-11-15T12:09:24Z</time>
      </trkpt>
      <trkpt lat="-40.1693750" lon="-71.3585740">
        <ele>681.4</ele>
        <time>2020-11-15T12:09:25Z</time>
      </trkpt>
      <trkpt lat="-40.1694060" lon="-71.3585940">
        <ele>681.6</ele>
        <time>2020-11-15T12:09:26Z</time>
      </trkpt>
      <trkpt lat="-40.1694370" lon="-71.3586160">
        <ele>681.8</ele>
        <time>2020-11-15T12:09:27Z</time>
      </trkpt>
      <trkpt lat="-40.1694670" lon="-71.3586370">
        <ele>682.0</ele>
        <time>2020-11-15T12:09:28Z</time>
      </trkpt>
      <trkpt lat="-40.1694970" lon="-71.3586580">
        <ele>682.2</ele>
        <time>2020-11-15T12:09:29Z</time>
      </trkpt>
      <trkpt lat="-40.1695260" lon="-71.3586790">
        <ele>682.4</ele>
        <time>2020-11-15T12:09:30Z</time>
      </trkpt>
      <trkpt lat="-40.1695560" lon="-71.3586980">
        <ele>682.6</ele>
        <time>2020-11-15T12:09:31Z</time>
      </trkpt>
      <trkpt lat="-40.1695860" lon="-71.3587180">
        <ele>682.8</ele>
        <time>2020-11-15T12:09:32Z</time>
      </trkpt>
      <trkpt lat="-40.1696160" lon="-71.3587380">
        <ele>683.0</ele>
        <time>2020-11-15T12:09:33Z</time>
      </trkpt>
      <trkpt lat="-40.1696470" lon="-71.3587620">
        <ele>683.2</ele>
        <time>2020-11-15T12:09:34Z</time>
      </trkpt>
      <trkpt lat="-40.1696770" lon="-71.3587850">
        <ele>683.4</ele>
        <time>2020-11-15T12:09:35Z</time>
      </trkpt>
      <trkpt lat="-40.1697080" lon="-71.3588070">
        <ele>683.6</ele>
        <time>2020-11-15T12:09:36Z</time>
      </trkpt>
      <trkpt lat="-40.1697390" lon="-71.3588280">
        <ele>683.8</ele>
        <time>2020-11-15T12:09:37Z</time>
      </trkpt>
      <trkpt lat="-40.1697700" lon="-71.3588490">
        <ele>684.0</ele>
        <time>2020-11-15T12:09:38Z</time>
      </trkpt>
      <trkpt lat="-40.1698010" lon="-71.3588710">
        <ele>684.2</ele>
        <time>2020-11-15T12:09:39Z</time>
      </trkpt>
      <trkpt lat="-40.1698310" lon="-71.3588910">
        <ele>684.4</ele>
        <time>2020-11-15T12:09:40Z</time>
      </trkpt>
      <trkpt lat="-40.1698630" lon="-71.3589110">
        <ele>684.6</ele>
        <time>2020-11-15T12:09:41Z</time>
      </trkpt>
      <trkpt lat="-40.1698940" lon="-71.3589310">
        <ele>684.7</ele>
        <time>2020-11-15T12:09:42Z</time>
      </trkpt>
      <trkpt lat="-40.1699590" lon="-71.3589710">
        <ele>685.1</ele>
        <time>2020-11-15T12:09:44Z</time>
      </trkpt>
      <trkpt lat="-40.1699910" lon="-71.3589910">
        <ele>685.2</ele>
        <time>2020-11-15T12:09:45Z</time>
      </trkpt>
      <trkpt lat="-40.1700230" lon="-71.3590110">
        <ele>685.3</ele>
        <time>2020-11-15T12:09:46Z</time>
      </trkpt>
      <trkpt lat="-40.1700560" lon="-71.3590300">
        <ele>685.5</ele>
        <time>2020-11-15T12:09:47Z</time>
      </trkpt>
      <trkpt lat="-40.1700900" lon="-71.3590490">
        <ele>685.6</ele>
        <time>2020-11-15T12:09:48Z</time>
      </trkpt>
      <trkpt lat="-40.1701230" lon="-71.3590680">
        <ele>685.8</ele>
        <time>2020-11-15T12:09:49Z</time>
      </trkpt>
      <trkpt lat="-40.1701560" lon="-71.3590870">
        <ele>685.9</ele>
        <time>2020-11-15T12:09:50Z</time>
      </trkpt>
      <trkpt lat="-40.1701890" lon="-71.3591060">
        <ele>686.0</ele>
        <time>2020-11-15T12:09:51Z</time>
      </trkpt>
      <trkpt lat="-40.1702220" lon="-71.3591210">
        <ele>686.1</ele>
        <time>2020-11-15T12:09:52Z</time>
      </trkpt>
      <trkpt lat="-40.1702550" lon="-71.3591370">
        <ele>686.3</ele>
        <time>2020-11-15T12:09:53Z</time>
      </trkpt>
      <trkpt lat="-40.1702890" lon="-71.3591510">
        <ele>686.4</ele>
        <time>2020-11-15T12:09:54Z</time>
      </trkpt>
      <trkpt lat="-40.1703220" lon="-71.3591670">
        <ele>686.5</ele>
        <time>2020-11-15T12:09:55Z</time>
      </trkpt>
      <trkpt lat="-40.1703550" lon="-71.3591830">
        <ele>686.6</ele>
        <time>2020-11-15T12:09:56Z</time>
      </trkpt>
      <trkpt lat="-40.1703880" lon="-71.3592010">
        <ele>686.8</ele>
        <time>2020-11-15T12:09:57Z</time>
      </trkpt>
      <trkpt lat="-40.1704210" lon="-71.3592210">
        <ele>686.9</ele>
        <time>2020-11-15T12:09:58Z</time>
      </trkpt>
      <trkpt lat="-40.1704540" lon="-71.3592430">
        <ele>687.0</ele>
        <time>2020-11-15T12:09:59Z</time>
      </trkpt>
      <trkpt lat="-40.1704860" lon="-71.3592660">
        <ele>687.1</ele>
        <time>2020-11-15T12:10:00Z</time>
      </trkpt>
      <trkpt lat="-40.1705180" lon="-71.3592900">
        <ele>687.2</ele>
        <time>2020-11-15T12:10:01Z</time>
      </trkpt>
      <trkpt lat="-40.1705500" lon="-71.3593160">
        <ele>687.3</ele>
        <time>2020-11-15T12:10:02Z</time>
      </trkpt>
      <trkpt lat="-40.1705810" lon="-71.3593420">
        <ele>687.4</ele>
        <time>2020-11-15T12:10:03Z</time>
      </trkpt>
      <trkpt lat="-40.1706120" lon="-71.3593710">
        <ele>687.5</ele>
        <time>2020-11-15T12:10:04Z</time>
      </trkpt>
      <trkpt lat="-40.1706420" lon="-71.3594000">
        <ele>687.6</ele>
        <time>2020-11-15T12:10:05Z</time>
      </trkpt>
      <trkpt lat="-40.1706720" lon="-71.3594310">
        <ele>687.7</ele>
        <time>2020-11-15T12:10:06Z</time>
      </trkpt>
      <trkpt lat="-40.1707010" lon="-71.3594630">
        <ele>687.8</ele>
        <time>2020-11-15T12:10:07Z</time>
      </trkpt>
      <trkpt lat="-40.1707300" lon="-71.3594940">
        <ele>687.8</ele>
        <time>2020-11-15T12:10:08Z</time>
      </trkpt>
      <trkpt lat="-40.1707570" lon="-71.3595270">
        <ele>687.9</ele>
        <time>2020-11-15T12:10:09Z</time>
      </trkpt>
      <trkpt lat="-40.1707840" lon="-71.3595600">
        <ele>688.0</ele>
        <time>2020-11-15T12:10:10Z</time>
      </trkpt>
      <trkpt lat="-40.1708110" lon="-71.3595940">
        <ele>688.1</ele>
        <time>2020-11-15T12:10:11Z</time>
      </trkpt>
      <trkpt lat="-40.1708380" lon="-71.3596290">
        <ele>688.1</ele>
        <time>2020-11-15T12:10:12Z</time>
      </trkpt>
      <trkpt lat="-40.1708640" lon="-71.3596640">
        <ele>688.2</ele>
        <time>2020-11-15T12:10:13Z</time>
      </trkpt>
      <trkpt lat="-40.1708900" lon="-71.3597000">
        <ele>688.3</ele>
        <time>2020-11-15T12:10:14Z</time>
      </trkpt>
      <trkpt lat="-40.1709170" lon="-71.3597360">
        <ele>688.4</ele>
        <time>2020-11-15T12:10:15Z</time>
      </trkpt>
      <trkpt lat="-40.1709430" lon="-71.3597710">
        <ele>688.4</ele>
        <time>2020-11-15T12:10:16Z</time>
      </trkpt>
      <trkpt lat="-40.1709690" lon="-71.3598080">
        <ele>688.5</ele>
        <time>2020-11-15T12:10:17Z</time>
      </trkpt>
      <trkpt lat="-40.1709960" lon="-71.3598450">
        <ele>688.6</ele>
        <time>2020-11-15T12:10:18Z</time>
      </trkpt>
      <trkpt lat="-40.1710230" lon="-71.3598810">
        <ele>688.6</ele>
        <time>2020-11-15T12:10:19Z</time>
      </trkpt>
      <trkpt lat="-40.1710490" lon="-71.3599160">
        <ele>688.7</ele>
        <time>2020-11-15T12:10:20Z</time>
      </trkpt>
      <trkpt lat="-40.1710770" lon="-71.3599480">
        <ele>688.7</ele>
        <time>2020-11-15T12:10:21Z</time>
      </trkpt>
      <trkpt lat="-40.1711050" lon="-71.3599800">
        <ele>688.7</ele>
        <time>2020-11-15T12:10:22Z</time>
      </trkpt>
      <trkpt lat="-40.1711320" lon="-71.3600140">
        <ele>688.8</ele>
        <time>2020-11-15T12:10:23Z</time>
      </trkpt>
      <trkpt lat="-40.1711850" lon="-71.3600790">
        <ele>688.8</ele>
        <time>2020-11-15T12:10:25Z</time>
      </trkpt>
      <trkpt lat="-40.1712120" lon="-71.3601100">
        <ele>688.8</ele>
        <time>2020-11-15T12:10:26Z</time>
      </trkpt>
      <trkpt lat="-40.1712390" lon="-71.3601400">
        <ele>688.8</ele>
        <time>2020-11-15T12:10:27Z</time>
      </trkpt>
      <trkpt lat="-40.1712670" lon="-71.3601710">
        <ele>688.9</ele>
        <time>2020-11-15T12:10:28Z</time>
      </trkpt>
      <trkpt lat="-40.1712950" lon="-71.3602030">
        <ele>688.9</ele>
        <time>2020-11-15T12:10:29Z</time>
      </trkpt>
      <trkpt lat="-40.1713240" lon="-71.3602360">
        <ele>688.9</ele>
        <time>2020-11-15T12:10:30Z</time>
      </trkpt>
      <trkpt lat="-40.1713530" lon="-71.3602690">
        <ele>689.0</ele>
        <time>2020-11-15T12:10:31Z</time>
      </trkpt>
      <trkpt lat="-40.1713830" lon="-71.3603020">
        <ele>689.0</ele>
        <time>2020-11-15T12:10:32Z</time>
      </trkpt>
      <trkpt lat="-40.1714140" lon="-71.3603330">
        <ele>689.0</ele>
        <time>2020-11-15T12:10:33Z</time>
      </trkpt>
      <trkpt lat="-40.1714460" lon="-71.3603650">
        <ele>689.1</ele>
        <time>2020-11-15T12:10:34Z</time>
      </trkpt>
      <trkpt lat="-40.1714780" lon="-71.3603940">
        <ele>689.1</ele>
        <time>2020-11-15T12:10:35Z</time>
      </trkpt>
      <trkpt lat="-40.1715110" lon="-71.3604220">
        <ele>689.1</ele>
        <time>2020-11-15T12:10:36Z</time>
      </trkpt>
      <trkpt lat="-40.1715440" lon="-71.3604500">
        <ele>689.1</ele>
        <time>2020-11-15T12:10:37Z</time>
      </trkpt>
      <trkpt lat="-40.1715760" lon="-71.3604750">
        <ele>689.2</ele>
        <time>2020-11-15T12:10:38Z</time>
      </trkpt>
      <trkpt lat="-40.1716080" lon="-71.3604990">
        <ele>689.2</ele>
        <time>2020-11-15T12:10:39Z</time>
      </trkpt>
      <trkpt lat="-40.1716400" lon="-71.3605220">
        <ele>689.2</ele>
        <time>2020-11-15T12:10:40Z</time>
      </trkpt>
      <trkpt lat="-40.1716740" lon="-71.3605460">
        <ele>689.2</ele>
        <time>2020-11-15T12:10:41Z</time>
      </trkpt>
      <trkpt lat="-40.1717090" lon="-71.3605690">
        <ele>689.2</ele>
        <time>2020-11-15T12:10:42Z</time>
      </trkpt>
      <trkpt lat="-40.1717440" lon="-71.3605910">
        <ele>689.2</ele>
        <time>2020-11-15T12:10:43Z</time>
      </trkpt>
      <trkpt lat="-40.1717780" lon="-71.3606130">
        <ele>689.3</ele>
        <time>2020-11-15T12:10:44Z</time>
      </trkpt>
      <trkpt lat="-40.1718130" lon="-71.3606350">
        <ele>689.3</ele>
        <time>2020-11-15T12:10:45Z</time>
      </trkpt>
      <trkpt lat="-40.1718490" lon="-71.3606560">
        <ele>689.3</ele>
        <time>2020-11-15T12:10:46Z</time>
      </trkpt>
      <trkpt lat="-40.1718850" lon="-71.3606770">
        <ele>689.3</ele>
        <time>2020-11-15T12:10:47Z</time>
      </trkpt>
      <trkpt lat="-40.1719210" lon="-71.3606980">
        <ele>689.3</ele>
        <time>2020-11-15T12:10:48Z</time>
      </trkpt>
      <trkpt lat="-40.1719570" lon="-71.3607190">
        <ele>689.3</ele>
        <time>2020-11-15T12:10:49Z</time>
      </trkpt>
      <trkpt lat="-40.1719930" lon="-71.3607380">
        <ele>689.3</ele>
        <time>2020-11-15T12:10:50Z</time>
      </trkpt>
      <trkpt lat="-40.1720300" lon="-71.3607560">
        <ele>689.3</ele>
        <time>2020-11-15T12:10:51Z</time>
      </trkpt>
      <trkpt lat="-40.1720660" lon="-71.3607730">
        <ele>689.4</ele>
        <time>2020-11-15T12:10:52Z</time>
      </trkpt>
      <trkpt lat="-40.1721040" lon="-71.3607900">
        <ele>689.4</ele>
        <time>2020-11-15T12:10:53Z</time>
      </trkpt>
      <trkpt lat="-40.1721430" lon="-71.3608060">
        <ele>689.4</ele>
        <time>2020-11-15T12:10:54Z</time>
      </trkpt>
      <trkpt lat="-40.1721820" lon="-71.3608230">
        <ele>689.4</ele>
        <time>2020-11-15T12:10:55Z</time>
      </trkpt>
      <trkpt lat="-40.1722200" lon="-71.3608410">
        <ele>689.4</ele>
        <time>2020-11-15T12:10:56Z</time>
      </trkpt>
      <trkpt lat="-40.1722600" lon="-71.3608580">
        <ele>689.4</ele>
        <time>2020-11-15T12:10:57Z</time>
      </trkpt>
      <trkpt lat="-40.1722980" lon="-71.3608760">
        <ele>689.5</ele>
        <time>2020-11-15T12:10:58Z</time>
      </trkpt>
      <trkpt lat="-40.1723380" lon="-71.3608940">
        <ele>689.5</ele>
        <time>2020-11-15T12:10:59Z</time>
      </trkpt>
      <trkpt lat="-40.1723770" lon="-71.3609120">
        <ele>689.5</ele>
        <time>2020-11-15T12:11:00Z</time>
      </trkpt>
      <trkpt lat="-40.1724150" lon="-71.3609300">
        <ele>689.5</ele>
        <time>2020-11-15T12:11:01Z</time>
      </trkpt>
      <trkpt lat="-40.1724530" lon="-71.3609490">
        <ele>689.5</ele>
        <time>2020-11-15T12:11:02Z</time>
      </trkpt>
      <trkpt lat="-40.1724920" lon="-71.3609690">
        <ele>689.6</ele>
        <time>2020-11-15T12:11:03Z</time>
      </trkpt>
      <trkpt lat="-40.1725310" lon="-71.3609890">
        <ele>689.6</ele>
        <time>2020-11-15T12:11:04Z</time>
      </trkpt>
      <trkpt lat="-40.1725690" lon="-71.3610090">
        <ele>689.6</ele>
        <time>2020-11-15T12:11:05Z</time>
      </trkpt>
      <trkpt lat="-40.1726060" lon="-71.3610300">
        <ele>689.6</ele>
        <time>2020-11-15T12:11:06Z</time>
      </trkpt>
      <trkpt lat="-40.1726420" lon="-71.3610510">
        <ele>689.7</ele>
        <time>2020-11-15T12:11:07Z</time>
      </trkpt>
      <trkpt lat="-40.1726770" lon="-71.3610720">
        <ele>689.7</ele>
        <time>2020-11-15T12:11:08Z</time>
      </trkpt>
      <trkpt lat="-40.1727130" lon="-71.3610950">
        <ele>689.7</ele>
        <time>2020-11-15T12:11:09Z</time>
      </trkpt>
      <trkpt lat="-40.1727490" lon="-71.3611180">
        <ele>689.8</ele>
        <time>2020-11-15T12:11:10Z</time>
      </trkpt>
      <trkpt lat="-40.1727850" lon="-71.3611410">
        <ele>689.9</ele>
        <time>2020-11-15T12:11:11Z</time>
      </trkpt>
      <trkpt lat="-40.1728200" lon="-71.3611670">
        <ele>690.0</ele>
        <time>2020-11-15T12:11:12Z</time>
      </trkpt>
      <trkpt lat="-40.1728560" lon="-71.3611940">
        <ele>690.1</ele>
        <time>2020-11-15T12:11:13Z</time>
      </trkpt>
      <trkpt lat="-40.1729240" lon="-71.3612520">
        <ele>690.4</ele>
        <time>2020-11-15T12:11:15Z</time>
      </trkpt>
      <trkpt lat="-40.1729570" lon="-71.3612810">
        <ele>690.5</ele>
        <time>2020-11-15T12:11:16Z</time>
      </trkpt>
      <trkpt lat="-40.1729900" lon="-71.3613100">
        <ele>690.6</ele>
        <time>2020-11-15T12:11:17Z</time>
      </trkpt>
      <trkpt lat="-40.1730210" lon="-71.3613390">
        <ele>690.7</ele>
        <time>2020-11-15T12:11:18Z</time>
      </trkpt>
      <trkpt lat="-40.1730520" lon="-71.3613700">
        <ele>690.8</ele>
        <time>2020-11-15T12:11:19Z</time>
      </trkpt>
      <trkpt lat="-40.1730820" lon="-71.3613980">
        <ele>691.0</ele>
        <time>2020-11-15T12:11:20Z</time>
      </trkpt>
      <trkpt lat="-40.1731110" lon="-71.3614260">
        <ele>691.2</ele>
        <time>2020-11-15T12:11:21Z</time>
      </trkpt>
      <trkpt lat="-40.1731390" lon="-71.3614540">
        <ele>691.4</ele>
        <time>2020-11-15T12:11:22Z</time>
      </trkpt>
      <trkpt lat="-40.1731660" lon="-71.3614830">
        <ele>691.6</ele>
        <time>2020-11-15T12:11:23Z</time>
      </trkpt>
      <trkpt lat="-40.1731930" lon="-71.3615120">
        <ele>691.7</ele>
        <time>2020-11-15T12:11:24Z</time>
      </trkpt>
      <trkpt lat="-40.1732200" lon="-71.3615410">
        <ele>691.9</ele>
        <time>2020-11-15T12:11:25Z</time>
      </trkpt>
      <trkpt lat="-40.1732460" lon="-71.3615720">
        <ele>692.1</ele>
        <time>2020-11-15T12:11:26Z</time>
      </trkpt>
      <trkpt lat="-40.1732730" lon="-71.3616010">
        <ele>692.2</ele>
        <time>2020-11-15T12:11:27Z</time>
      </trkpt>
      <trkpt lat="-40.1732990" lon="-71.3616300">
        <ele>692.4</ele>
        <time>2020-11-15T12:11:28Z</time>
      </trkpt>
      <trkpt lat="-40.1733250" lon="-71.3616600">
        <ele>692.5</ele>
        <time>2020-11-15T12:11:29Z</time>
      </trkpt>
      <trkpt lat="-40.1733520" lon="-71.3616900">
        <ele>692.7</ele>
        <time>2020-11-15T12:11:30Z</time>
      </trkpt>
      <trkpt lat="-40.1733800" lon="-71.3617200">
        <ele>692.9</ele>
        <time>2020-11-15T12:11:31Z</time>
      </trkpt>
      <trkpt lat="-40.1734080" lon="-71.3617520">
        <ele>693.0</ele>
        <time>2020-11-15T12:11:32Z</time>
      </trkpt>
      <trkpt lat="-40.1734360" lon="-71.3617840">
        <ele>693.2</ele>
        <time>2020-11-15T12:11:33Z</time>
      </trkpt>
      <trkpt lat="-40.1734630" lon="-71.3618170">
        <ele>693.4</ele>
        <time>2020-11-15T12:11:34Z</time>
      </trkpt>
      <trkpt lat="-40.1734910" lon="-71.3618510">
        <ele>693.6</ele>
        <time>2020-11-15T12:11:35Z</time>
      </trkpt>
      <trkpt lat="-40.1735170" lon="-71.3618850">
        <ele>693.8</ele>
        <time>2020-11-15T12:11:36Z</time>
      </trkpt>
      <trkpt lat="-40.1735430" lon="-71.3619200">
        <ele>694.0</ele>
        <time>2020-11-15T12:11:37Z</time>
      </trkpt>
      <trkpt lat="-40.1735690" lon="-71.3619550">
        <ele>694.1</ele>
        <time>2020-11-15T12:11:38Z</time>
      </trkpt>
      <trkpt lat="-40.1735950" lon="-71.3619910">
        <ele>694.3</ele>
        <time>2020-11-15T12:11:39Z</time>
      </trkpt>
      <trkpt lat="-40.1736210" lon="-71.3620260">
        <ele>694.5</ele>
        <time>2020-11-15T12:11:40Z</time>
      </trkpt>
      <trkpt lat="-40.1736470" lon="-71.3620620">
        <ele>694.7</ele>
        <time>2020-11-15T12:11:41Z</time>
      </trkpt>
      <trkpt lat="-40.1736720" lon="-71.3620970">
        <ele>694.8</ele>
        <time>2020-11-15T12:11:42Z</time>
      </trkpt>
      <trkpt lat="-40.1736980" lon="-71.3621330">
        <ele>695.0</ele>
        <time>2020-11-15T12:11:43Z</time>
      </trkpt>
      <trkpt lat="-40.1737220" lon="-71.3621690">
        <ele>695.2</ele>
        <time>2020-11-15T12:11:44Z</time>
      </trkpt>
      <trkpt lat="-40.1737470" lon="-71.3622050">
        <ele>695.4</ele>
        <time>2020-11-15T12:11:45Z</time>
      </trkpt>
      <trkpt lat="-40.1737720" lon="-71.3622410">
        <ele>695.6</ele>
        <time>2020-11-15T12:11:46Z</time>
      </trkpt>
      <trkpt lat="-40.1737970" lon="-71.3622760">
        <ele>695.7</ele>
        <time>2020-11-15T12:11:47Z</time>
      </trkpt>
      <trkpt lat="-40.1738220" lon="-71.3623130">
        <ele>695.9</ele>
        <time>2020-11-15T12:11:48Z</time>
      </trkpt>
      <trkpt lat="-40.1738450" lon="-71.3623520">
        <ele>696.1</ele>
        <time>2020-11-15T12:11:49Z</time>
      </trkpt>
      <trkpt lat="-40.1738680" lon="-71.3623920">
        <ele>696.3</ele>
        <time>2020-11-15T12:11:50Z</time>
      </trkpt>
      <trkpt lat="-40.1738910" lon="-71.3624320">
        <ele>696.5</ele>
        <time>2020-11-15T12:11:51Z</time>
      </trkpt>
      <trkpt lat="-40.1739130" lon="-71.3624720">
        <ele>696.7</ele>
        <time>2020-11-15T12:11:52Z</time>
      </trkpt>
      <trkpt lat="-40.1739350" lon="-71.3625130">
        <ele>696.9</ele>
        <time>2020-11-15T12:11:53Z</time>
      </trkpt>
      <trkpt lat="-40.1739570" lon="-71.3625540">
        <ele>697.1</ele>
        <time>2020-11-15T12:11:54Z</time>
      </trkpt>
      <trkpt lat="-40.1739770" lon="-71.3625960">
        <ele>697.3</ele>
        <time>2020-11-15T12:11:55Z</time>
      </trkpt>
      <trkpt lat="-40.1739970" lon="-71.3626390">
        <ele>697.5</ele>
        <time>2020-11-15T12:11:56Z</time>
      </trkpt>
      <trkpt lat="-40.1740170" lon="-71.3626820">
        <ele>697.7</ele>
        <time>2020-11-15T12:11:57Z</time>
      </trkpt>
      <trkpt lat="-40.1740360" lon="-71.3627270">
        <ele>697.9</ele>
        <time>2020-11-15T12:11:58Z</time>
      </trkpt>
      <trkpt lat="-40.1740550" lon="-71.3627730">
        <ele>698.0</ele>
        <time>2020-11-15T12:11:59Z</time>
      </trkpt>
      <trkpt lat="-40.1740740" lon="-71.3628190">
        <ele>698.2</ele>
        <time>2020-11-15T12:12:00Z</time>
      </trkpt>
      <trkpt lat="-40.1740930" lon="-71.3628650">
        <ele>698.4</ele>
        <time>2020-11-15T12:12:01Z</time>
      </trkpt>
      <trkpt lat="-40.1741110" lon="-71.3629100">
        <ele>698.6</ele>
        <time>2020-11-15T12:12:02Z</time>
      </trkpt>
      <trkpt lat="-40.1741290" lon="-71.3629550">
        <ele>698.8</ele>
        <time>2020-11-15T12:12:03Z</time>
      </trkpt>
      <trkpt lat="-40.1741470" lon="-71.3629990">
        <ele>698.9</ele>
        <time>2020-11-15T12:12:04Z</time>
      </trkpt>
      <trkpt lat="-40.1741640" lon="-71.3630430">
        <ele>699.1</ele>
        <time>2020-11-15T12:12:05Z</time>
      </trkpt>
      <trkpt lat="-40.1741810" lon="-71.3630870">
        <ele>699.2</ele>
        <time>2020-11-15T12:12:06Z</time>
      </trkpt>
      <trkpt lat="-40.1741970" lon="-71.3631300">
        <ele>699.4</ele>
        <time>2020-11-15T12:12:07Z</time>
      </trkpt>
      <trkpt lat="-40.1742130" lon="-71.3631730">
        <ele>699.5</ele>
        <time>2020-11-15T12:12:08Z</time>
      </trkpt>
      <trkpt lat="-40.1742290" lon="-71.3632160">
        <ele>699.7</ele>
        <time>2020-11-15T12:12:09Z</time>
      </trkpt>
      <trkpt lat="-40.1742450" lon="-71.3632600">
        <ele>699.8</ele>
        <time>2020-11-15T12:12:10Z</time>
      </trkpt>
      <trkpt lat="-40.1742600" lon="-71.3633030">
        <ele>700.0</ele>
        <time>2020-11-15T12:12:11Z</time>
      </trkpt>
      <trkpt lat="-40.1742750" lon="-71.3633470">
        <ele>700.1</ele>
        <time>2020-11-15T12:12:12Z</time>
      </trkpt>
      <trkpt lat="-40.1742900" lon="-71.3633910">
        <ele>700.3</ele>
        <time>2020-11-15T12:12:13Z</time>
      </trkpt>
      <trkpt lat="-40.1743050" lon="-71.3634350">
        <ele>700.5</ele>
        <time>2020-11-15T12:12:14Z</time>
      </trkpt>
      <trkpt lat="-40.1743210" lon="-71.3634790">
        <ele>700.6</ele>
        <time>2020-11-15T12:12:15Z</time>
      </trkpt>
      <trkpt lat="-40.1743360" lon="-71.3635240">
        <ele>700.8</ele>
        <time>2020-11-15T12:12:16Z</time>
      </trkpt>
      <trkpt lat="-40.1743500" lon="-71.3635690">
        <ele>701.0</ele>
        <time>2020-11-15T12:12:16Z</time>
      </trkpt>
      <trkpt lat="-40.1743650" lon="-71.3636140">
        <ele>701.1</ele>
        <time>2020-11-15T12:12:17Z</time>
      </trkpt>
      <trkpt lat="-40.1743790" lon="-71.3636580">
        <ele>701.3</ele>
        <time>2020-11-15T12:12:18Z</time>
      </trkpt>
      <trkpt lat="-40.1743950" lon="-71.3637030">
        <ele>701.5</ele>
        <time>2020-11-15T12:12:19Z</time>
      </trkpt>
      <trkpt lat="-40.1744270" lon="-71.3637900">
        <ele>701.9</ele>
        <time>2020-11-15T12:12:21Z</time>
      </trkpt>
      <trkpt lat="-40.1744430" lon="-71.3638340">
        <ele>702.1</ele>
        <time>2020-11-15T12:12:22Z</time>
      </trkpt>
      <trkpt lat="-40.1744590" lon="-71.3638770">
        <ele>702.2</ele>
        <time>2020-11-15T12:12:23Z</time>
      </trkpt>
      <trkpt lat="-40.1744750" lon="-71.3639220">
        <ele>702.4</ele>
        <time>2020-11-15T12:12:24Z</time>
      </trkpt>
      <trkpt lat="-40.1744900" lon="-71.3639670">
        <ele>702.6</ele>
        <time>2020-11-15T12:12:25Z</time>
      </trkpt>
      <trkpt lat="-40.1745050" lon="-71.3640110">
        <ele>702.8</ele>
        <time>2020-11-15T12:12:26Z</time>
      </trkpt>
      <trkpt lat="-40.1745190" lon="-71.3640550">
        <ele>702.9</ele>
        <time>2020-11-15T12:12:27Z</time>
      </trkpt>
      <trkpt lat="-40.1745330" lon="-71.3640980">
        <ele>703.1</ele>
        <time>2020-11-15T12:12:28Z</time>
      </trkpt>
      <trkpt lat="-40.1745470" lon="-71.3641430">
        <ele>703.3</ele>
        <time>2020-11-15T12:12:29Z</time>
      </trkpt>
      <trkpt lat="-40.1745610" lon="-71.3641860">
        <ele>703.4</ele>
        <time>2020-11-15T12:12:30Z</time>
      </trkpt>
      <trkpt lat="-40.1745750" lon="-71.3642300">
        <ele>703.6</ele>
        <time>2020-11-15T12:12:31Z</time>
      </trkpt>
      <trkpt lat="-40.1745900" lon="-71.3642730">
        <ele>703.7</ele>
        <time>2020-11-15T12:12:32Z</time>
      </trkpt>
      <trkpt lat="-40.1746040" lon="-71.3643170">
        <ele>703.9</ele>
        <time>2020-11-15T12:12:33Z</time>
      </trkpt>
      <trkpt lat="-40.1746200" lon="-71.3643610">
        <ele>704.0</ele>
        <time>2020-11-15T12:12:34Z</time>
      </trkpt>
      <trkpt lat="-40.1746360" lon="-71.3644050">
        <ele>704.2</ele>
        <time>2020-11-15T12:12:35Z</time>
      </trkpt>
      <trkpt lat="-40.1746520" lon="-71.3644490">
        <ele>704.3</ele>
        <time>2020-11-15T12:12:36Z</time>
      </trkpt>
      <trkpt lat="-40.1746690" lon="-71.3644920">
        <ele>704.5</ele>
        <time>2020-11-15T12:12:37Z</time>
      </trkpt>
      <trkpt lat="-40.1746850" lon="-71.3645370">
        <ele>704.6</ele>
        <time>2020-11-15T12:12:38Z</time>
      </trkpt>
      <trkpt lat="-40.1747020" lon="-71.3645800">
        <ele>704.8</ele>
        <time>2020-11-15T12:12:39Z</time>
      </trkpt>
      <trkpt lat="-40.1747190" lon="-71.3646230">
        <ele>705.0</ele>
        <time>2020-11-15T12:12:40Z</time>
      </trkpt>
      <trkpt lat="-40.1747360" lon="-71.3646670">
        <ele>705.1</ele>
        <time>2020-11-15T12:12:41Z</time>
      </trkpt>
      <trkpt lat="-40.1747530" lon="-71.3647110">
        <ele>705.3</ele>
        <time>2020-11-15T12:12:42Z</time>
      </trkpt>
      <trkpt lat="-40.1747690" lon="-71.3647530">
        <ele>705.5</ele>
        <time>2020-11-15T12:12:43Z</time>
      </trkpt>
      <trkpt lat="-40.1747860" lon="-71.3647960">
        <ele>705.6</ele>
        <time>2020-11-15T12:12:44Z</time>
      </trkpt>
      <trkpt lat="-40.1748040" lon="-71.3648380">
        <ele>705.8</ele>
        <time>2020-11-15T12:12:45Z</time>
      </trkpt>
      <trkpt lat="-40.1748220" lon="-71.3648790">
        <ele>706.0</ele>
        <time>2020-11-15T12:12:46Z</time>
      </trkpt>
      <trkpt lat="-40.1748400" lon="-71.3649210">
        <ele>706.1</ele>
        <time>2020-11-15T12:12:47Z</time>
      </trkpt>
      <trkpt lat="-40.1748580" lon="-71.3649620">
        <ele>706.3</ele>
        <time>2020-11-15T12:12:48Z</time>
      </trkpt>
      <trkpt lat="-40.1748760" lon="-71.3650040">
        <ele>706.4</ele>
        <time>2020-11-15T12:12:49Z</time>
      </trkpt>
      <trkpt lat="-40.1748960" lon="-71.3650460">
        <ele>706.6</ele>
        <time>2020-11-15T12:12:50Z</time>
      </trkpt>
      <trkpt lat="-40.1749140" lon="-71.3650880">
        <ele>706.7</ele>
        <time>2020-11-15T12:12:51Z</time>
      </trkpt>
      <trkpt lat="-40.1749320" lon="-71.3651320">
        <ele>706.9</ele>
        <time>2020-11-15T12:12:52Z</time>
      </trkpt>
      <trkpt lat="-40.1749500" lon="-71.3651750">
        <ele>707.0</ele>
        <time>2020-11-15T12:12:53Z</time>
      </trkpt>
      <trkpt lat="-40.1749680" lon="-71.3652180">
        <ele>707.1</ele>
        <time>2020-11-15T12:12:54Z</time>
      </trkpt>
      <trkpt lat="-40.1749860" lon="-71.3652620">
        <ele>707.3</ele>
        <time>2020-11-15T12:12:55Z</time>
      </trkpt>
      <trkpt lat="-40.1750040" lon="-71.3653060">
        <ele>707.4</ele>
        <time>2020-11-15T12:12:56Z</time>
      </trkpt>
      <trkpt lat="-40.1750220" lon="-71.3653500">
        <ele>707.5</ele>
        <time>2020-11-15T12:12:57Z</time>
      </trkpt>
      <trkpt lat="-40.1750410" lon="-71.3653920">
        <ele>707.6</ele>
        <time>2020-11-15T12:12:58Z</time>
      </trkpt>
      <trkpt lat="-40.1750600" lon="-71.3654350">
        <ele>707.7</ele>
        <time>2020-11-15T12:12:59Z</time>
      </trkpt>
      <trkpt lat="-40.1750800" lon="-71.3654770">
        <ele>707.8</ele>
        <time>2020-11-15T12:13:00Z</time>
      </trkpt>
      <trkpt lat="-40.1751010" lon="-71.3655200">
        <ele>707.9</ele>
        <time>2020-11-15T12:13:01Z</time>
      </trkpt>
      <trkpt lat="-40.1751220" lon="-71.3655620">
        <ele>707.9</ele>
        <time>2020-11-15T12:13:02Z</time>
      </trkpt>
      <trkpt lat="-40.1751440" lon="-71.3656040">
        <ele>707.9</ele>
        <time>2020-11-15T12:13:03Z</time>
      </trkpt>
      <trkpt lat="-40.1751650" lon="-71.3656490">
        <ele>708.0</ele>
        <time>2020-11-15T12:13:04Z</time>
      </trkpt>
      <trkpt lat="-40.1751870" lon="-71.3656960">
        <ele>708.0</ele>
        <time>2020-11-15T12:13:05Z</time>
      </trkpt>
      <trkpt lat="-40.1752080" lon="-71.3657440">
        <ele>707.9</ele>
        <time>2020-11-15T12:13:06Z</time>
      </trkpt>
      <trkpt lat="-40.1752290" lon="-71.3657920">
        <ele>707.9</ele>
        <time>2020-11-15T12:13:07Z</time>
      </trkpt>
      <trkpt lat="-40.1752500" lon="-71.3658390">
        <ele>707.9</ele>
        <time>2020-11-15T12:13:08Z</time>
      </trkpt>
      <trkpt lat="-40.1752710" lon="-71.3658860">
        <ele>707.8</ele>
        <time>2020-11-15T12:13:09Z</time>
      </trkpt>
      <trkpt lat="-40.1752920" lon="-71.3659350">
        <ele>707.7</ele>
        <time>2020-11-15T12:13:10Z</time>
      </trkpt>
      <trkpt lat="-40.1753140" lon="-71.3659850">
        <ele>707.7</ele>
        <time>2020-11-15T12:13:11Z</time>
      </trkpt>
      <trkpt lat="-40.1753380" lon="-71.3660360">
        <ele>707.6</ele>
        <time>2020-11-15T12:13:12Z</time>
      </trkpt>
      <trkpt lat="-40.1753610" lon="-71.3660890">
        <ele>707.5</ele>
        <time>2020-11-15T12:13:13Z</time>
      </trkpt>
      <trkpt lat="-40.1753840" lon="-71.3661430">
        <ele>707.3</ele>
        <time>2020-11-15T12:13:14Z</time>
      </trkpt>
      <trkpt lat="-40.1754070" lon="-71.3661990">
        <ele>707.2</ele>
        <time>2020-11-15T12:13:15Z</time>
      </trkpt>
      <trkpt lat="-40.1754320" lon="-71.3662580">
        <ele>707.0</ele>
        <time>2020-11-15T12:13:16Z</time>
      </trkpt>
      <trkpt lat="-40.1754580" lon="-71.3663180">
        <ele>706.8</ele>
        <time>2020-11-15T12:13:17Z</time>
      </trkpt>
      <trkpt lat="-40.1754860" lon="-71.3663790">
        <ele>706.6</ele>
        <time>2020-11-15T12:13:18Z</time>
      </trkpt>
      <trkpt lat="-40.1755130" lon="-71.3664450">
        <ele>706.4</ele>
        <time>2020-11-15T12:13:19Z</time>
      </trkpt>
      <trkpt lat="-40.1755400" lon="-71.3665120">
        <ele>706.1</ele>
        <time>2020-11-15T12:13:20Z</time>
      </trkpt>
      <trkpt lat="-40.1755660" lon="-71.3665810">
        <ele>705.8</ele>
        <time>2020-11-15T12:13:21Z</time>
      </trkpt>
      <trkpt lat="-40.1755920" lon="-71.3666520">
        <ele>705.4</ele>
        <time>2020-11-15T12:13:22Z</time>
      </trkpt>
      <trkpt lat="-40.1756190" lon="-71.3667270">
        <ele>705.0</ele>
        <time>2020-11-15T12:13:23Z</time>
      </trkpt>
      <trkpt lat="-40.1756460" lon="-71.3668050">
        <ele>704.5</ele>
        <time>2020-11-15T12:13:24Z</time>
      </trkpt>
      <trkpt lat="-40.1756730" lon="-71.3668880">
        <ele>704.1</ele>
        <time>2020-11-15T12:13:25Z</time>
      </trkpt>
      <trkpt lat="-40.1757020" lon="-71.3669740">
        <ele>703.6</ele>
        <time>2020-11-15T12:13:26Z</time>
      </trkpt>
      <trkpt lat="-40.1757330" lon="-71.3670600">
        <ele>703.1</ele>
        <time>2020-11-15T12:13:27Z</time>
      </trkpt>
      <trkpt lat="-40.1757660" lon="-71.3671490">
        <ele>702.6</ele>
        <time>2020-11-15T12:13:28Z</time>
      </trkpt>
      <trkpt lat="-40.1758000" lon="-71.3672400">
        <ele>702.1</ele>
        <time>2020-11-15T12:13:29Z</time>
      </trkpt>
      <trkpt lat="-40.1758360" lon="-71.3673350">
        <ele>701.6</ele>
        <time>2020-11-15T12:13:30Z</time>
      </trkpt>
      <trkpt lat="-40.1758720" lon="-71.3674340">
        <ele>701.1</ele>
        <time>2020-11-15T12:13:31Z</time>
      </trkpt>
      <trkpt lat="-40.1759070" lon="-71.3675340">
        <ele>700.6</ele>
        <time>2020-11-15T12:13:32Z</time>
      </trkpt>
      <trkpt lat="-40.1759470" lon="-71.3676310">
        <ele>700.0</ele>
        <time>2020-11-15T12:13:33Z</time>
      </trkpt>
      <trkpt lat="-40.1759890" lon="-71.3677260">
        <ele>699.5</ele>
        <time>2020-11-15T12:13:34Z</time>
      </trkpt>
      <trkpt lat="-40.1760320" lon="-71.3678260">
        <ele>699.1</ele>
        <time>2020-11-15T12:13:35Z</time>
      </trkpt>
      <trkpt lat="-40.1760750" lon="-71.3679270">
        <ele>698.6</ele>
        <time>2020-11-15T12:13:36Z</time>
      </trkpt>
      <trkpt lat="-40.1761190" lon="-71.3680370">
        <ele>698.1</ele>
        <time>2020-11-15T12:13:37Z</time>
      </trkpt>
      <trkpt lat="-40.1761570" lon="-71.3681530">
        <ele>697.5</ele>
        <time>2020-11-15T12:13:38Z</time>
      </trkpt>
      <trkpt lat="-40.1761860" lon="-71.3682710">
        <ele>697.1</ele>
        <time>2020-11-15T12:13:39Z</time>
      </trkpt>
      <trkpt lat="-40.1762070" lon="-71.3683980">
        <ele>696.7</ele>
        <time>2020-11-15T12:13:40Z</time>
      </trkpt>
      <trkpt lat="-40.1762250" lon="-71.3685250">
        <ele>696.4</ele>
        <time>2020-11-15T12:13:41Z</time>
      </trkpt>
      <trkpt lat="-40.1762420" lon="-71.3686450">
        <ele>696.2</ele>
        <time>2020-11-15T12:13:42Z</time>
      </trkpt>
      <trkpt lat="-40.1762570" lon="-71.3687640">
        <ele>696.0</ele>
        <time>2020-11-15T12:13:44Z</time>
      </trkpt>
      <trkpt lat="-40.1762670" lon="-71.3688830">
        <ele>696.0</ele>
        <time>2020-11-15T12:13:45Z</time>
      </trkpt>
      <trkpt lat="-40.1762780" lon="-71.3689980">
        <ele>696.1</ele>
        <time>2020-11-15T12:13:46Z</time>
      </trkpt>
      <trkpt lat="-40.1762880" lon="-71.3691100">
        <ele>696.2</ele>
        <time>2020-11-15T12:13:47Z</time>
      </trkpt>
      <trkpt lat="-40.1762970" lon="-71.3692170">
        <ele>696.3</ele>
        <time>2020-11-15T12:13:48Z</time>
      </trkpt>
      <trkpt lat="-40.1763070" lon="-71.3693180">
        <ele>696.5</ele>
        <time>2020-11-15T12:13:49Z</time>
      </trkpt>
      <trkpt lat="-40.1763190" lon="-71.3694150">
        <ele>696.7</ele>
        <time>2020-11-15T12:13:50Z</time>
      </trkpt>
      <trkpt lat="-40.1763320" lon="-71.3695060">
        <ele>696.9</ele>
        <time>2020-11-15T12:13:51Z</time>
      </trkpt>
      <trkpt lat="-40.1763460" lon="-71.3695900">
        <ele>697.1</ele>
        <time>2020-11-15T12:13:52Z</time>
      </trkpt>
      <trkpt lat="-40.1763610" lon="-71.3696710">
        <ele>697.3</ele>
        <time>2020-11-15T12:13:53Z</time>
      </trkpt>
      <trkpt lat="-40.1763750" lon="-71.3697510">
        <ele>697.6</ele>
        <time>2020-11-15T12:13:54Z</time>
      </trkpt>
      <trkpt lat="-40.1763890" lon="-71.3698280">
        <ele>697.8</ele>
        <time>2020-11-15T12:13:55Z</time>
      </trkpt>
      <trkpt lat="-40.1764030" lon="-71.3699020">
        <ele>698.1</ele>
        <time>2020-11-15T12:13:56Z</time>
      </trkpt>
      <trkpt lat="-40.1764160" lon="-71.3699740">
        <ele>698.4</ele>
        <time>2020-11-15T12:13:57Z</time>
      </trkpt>
      <trkpt lat="-40.1764290" lon="-71.3700430">
        <ele>698.7</ele>
        <time>2020-11-15T12:13:58Z</time>
      </trkpt>
      <trkpt lat="-40.1764420" lon="-71.3701100">
        <ele>699.0</ele>
        <time>2020-11-15T12:13:59Z</time>
      </trkpt>
      <trkpt lat="-40.1764550" lon="-71.3701740">
        <ele>699.3</ele>
        <time>2020-11-15T12:14:00Z</time>
      </trkpt>
      <trkpt lat="-40.1764670" lon="-71.3702370">
        <ele>699.6</ele>
        <time>2020-11-15T12:14:01Z</time>
      </trkpt>
      <trkpt lat="-40.1764800" lon="-71.3702990">
        <ele>699.9</ele>
        <time>2020-11-15T12:14:02Z</time>
      </trkpt>
      <trkpt lat="-40.1764920" lon="-71.3703600">
        <ele>700.2</ele>
        <time>2020-11-15T12:14:03Z</time>
      </trkpt>
      <trkpt lat="-40.1765040" lon="-71.3704180">
        <ele>700.5</ele>
        <time>2020-11-15T12:14:04Z</time>
      </trkpt>
      <trkpt lat="-40.1765170" lon="-71.3704750">
        <ele>700.7</ele>
        <time>2020-11-15T12:14:05Z</time>
      </trkpt>
      <trkpt lat="-40.1765290" lon="-71.3705320">
        <ele>701.0</ele>
        <time>2020-11-15T12:14:06Z</time>
      </trkpt>
      <trkpt lat="-40.1765420" lon="-71.3705880">
        <ele>701.2</ele>
        <time>2020-11-15T12:14:07Z</time>
      </trkpt>
      <trkpt lat="-40.1765570" lon="-71.3706430">
        <ele>701.5</ele>
        <time>2020-11-15T12:14:08Z</time>
      </trkpt>
      <trkpt lat="-40.1765720" lon="-71.3706960">
        <ele>701.8</ele>
        <time>2020-11-15T12:14:09Z</time>
      </trkpt>
      <trkpt lat="-40.1765880" lon="-71.3707500">
        <ele>702.1</ele>
        <time>2020-11-15T12:14:10Z</time>
      </trkpt>
      <trkpt lat="-40.1766020" lon="-71.3708030">
        <ele>702.3</ele>
        <time>2020-11-15T12:14:11Z</time>
      </trkpt>
      <trkpt lat="-40.1766140" lon="-71.3708550">
        <ele>702.6</ele>
        <time>2020-11-15T12:14:12Z</time>
      </trkpt>
      <trkpt lat="-40.1766270" lon="-71.3709080">
        <ele>702.8</ele>
        <time>2020-11-15T12:14:13Z</time>
      </trkpt>
      <trkpt lat="-40.1766390" lon="-71.3709600">
        <ele>703.1</ele>
        <time>2020-11-15T12:14:14Z</time>
      </trkpt>
      <trkpt lat="-40.1766520" lon="-71.3710120">
        <ele>703.3</ele>
        <time>2020-11-15T12:14:15Z</time>
      </trkpt>
      <trkpt lat="-40.1766650" lon="-71.3710640">
        <ele>703.5</ele>
        <time>2020-11-15T12:14:16Z</time>
      </trkpt>
      <trkpt lat="-40.1766780" lon="-71.3711160">
        <ele>703.6</ele>
        <time>2020-11-15T12:14:17Z</time>
      </trkpt>
      <trkpt lat="-40.1766930" lon="-71.3711670">
        <ele>703.8</ele>
        <time>2020-11-15T12:14:18Z</time>
      </trkpt>
      <trkpt lat="-40.1767080" lon="-71.3712200">
        <ele>703.9</ele>
        <time>2020-11-15T12:14:19Z</time>
      </trkpt>
      <trkpt lat="-40.1767210" lon="-71.3712750">
        <ele>704.0</ele>
        <time>2020-11-15T12:14:20Z</time>
      </trkpt>
      <trkpt lat="-40.1767360" lon="-71.3713290">
        <ele>704.1</ele>
        <time>2020-11-15T12:14:21Z</time>
      </trkpt>
      <trkpt lat="-40.1767510" lon="-71.3713830">
        <ele>704.2</ele>
        <time>2020-11-15T12:14:22Z</time>
      </trkpt>
      <trkpt lat="-40.1767670" lon="-71.3714370">
        <ele>704.3</ele>
        <time>2020-11-15T12:14:23Z</time>
      </trkpt>
      <trkpt lat="-40.1767840" lon="-71.3714930">
        <ele>704.3</ele>
        <time>2020-11-15T12:14:24Z</time>
      </trkpt>
      <trkpt lat="-40.1768030" lon="-71.3715490">
        <ele>704.3</ele>
        <time>2020-11-15T12:14:25Z</time>
      </trkpt>
      <trkpt lat="-40.1768240" lon="-71.3716060">
        <ele>704.3</ele>
        <time>2020-11-15T12:14:26Z</time>
      </trkpt>
      <trkpt lat="-40.1768460" lon="-71.3716620">
        <ele>704.3</ele>
        <time>2020-11-15T12:14:27Z</time>
      </trkpt>
      <trkpt lat="-40.1768700" lon="-71.3717190">
        <ele>704.2</ele>
        <time>2020-11-15T12:14:28Z</time>
      </trkpt>
      <trkpt lat="-40.1768940" lon="-71.3717780">
        <ele>704.2</ele>
        <time>2020-11-15T12:14:29Z</time>
      </trkpt>
      <trkpt lat="-40.1769200" lon="-71.3718380">
        <ele>704.1</ele>
        <time>2020-11-15T12:14:30Z</time>
      </trkpt>
      <trkpt lat="-40.1769540" lon="-71.3719220">
        <ele>704.0</ele>
        <time>2020-11-15T12:14:32Z</time>
      </trkpt>
      <trkpt lat="-40.1769860" lon="-71.3720010">
        <ele>703.8</ele>
        <time>2020-11-15T12:14:33Z</time>
      </trkpt>
      <trkpt lat="-40.1770150" lon="-71.3720770">
        <ele>703.7</ele>
        <time>2020-11-15T12:14:34Z</time>
      </trkpt>
      <trkpt lat="-40.1770440" lon="-71.3721510">
        <ele>703.6</ele>
        <time>2020-11-15T12:14:35Z</time>
      </trkpt>
      <trkpt lat="-40.1770730" lon="-71.3722240">
        <ele>703.5</ele>
        <time>2020-11-15T12:14:36Z</time>
      </trkpt>
      <trkpt lat="-40.1771000" lon="-71.3722940">
        <ele>703.5</ele>
        <time>2020-11-15T12:14:37Z</time>
      </trkpt>
      <trkpt lat="-40.1771260" lon="-71.3723620">
        <ele>703.4</ele>
        <time>2020-11-15T12:14:38Z</time>
      </trkpt>
      <trkpt lat="-40.1771520" lon="-71.3724280">
        <ele>703.5</ele>
        <time>2020-11-15T12:14:39Z</time>
      </trkpt>
      <trkpt lat="-40.1771780" lon="-71.3724940">
        <ele>703.6</ele>
        <time>2020-11-15T12:14:40Z</time>
      </trkpt>
      <trkpt lat="-40.1772040" lon="-71.3725600">
        <ele>703.7</ele>
        <time>2020-11-15T12:14:41Z</time>
      </trkpt>
      <trkpt lat="-40.1772290" lon="-71.3726260">
        <ele>703.8</ele>
        <time>2020-11-15T12:14:42Z</time>
      </trkpt>
      <trkpt lat="-40.1772520" lon="-71.3726910">
        <ele>703.9</ele>
        <time>2020-11-15T12:14:43Z</time>
      </trkpt>
      <trkpt lat="-40.1772740" lon="-71.3727550">
        <ele>704.1</ele>
        <time>2020-11-15T12:14:44Z</time>
      </trkpt>
      <trkpt lat="-40.1772950" lon="-71.3728180">
        <ele>704.3</ele>
        <time>2020-11-15T12:14:45Z</time>
      </trkpt>
      <trkpt lat="-40.1773140" lon="-71.3728820">
        <ele>704.5</ele>
        <time>2020-11-15T12:14:46Z</time>
      </trkpt>
      <trkpt lat="-40.1773350" lon="-71.3729430">
        <ele>704.7</ele>
        <time>2020-11-15T12:14:47Z</time>
      </trkpt>
      <trkpt lat="-40.1773540" lon="-71.3730030">
        <ele>704.9</ele>
        <time>2020-11-15T12:14:48Z</time>
      </trkpt>
      <trkpt lat="-40.1773720" lon="-71.3730620">
        <ele>705.2</ele>
        <time>2020-11-15T12:14:49Z</time>
      </trkpt>
      <trkpt lat="-40.1773900" lon="-71.3731200">
        <ele>705.5</ele>
        <time>2020-11-15T12:14:50Z</time>
      </trkpt>
      <trkpt lat="-40.1774080" lon="-71.3731780">
        <ele>705.8</ele>
        <time>2020-11-15T12:14:51Z</time>
      </trkpt>
      <trkpt lat="-40.1774230" lon="-71.3732350">
        <ele>706.0</ele>
        <time>2020-11-15T12:14:52Z</time>
      </trkpt>
      <trkpt lat="-40.1774380" lon="-71.3732940">
        <ele>706.3</ele>
        <time>2020-11-15T12:14:53Z</time>
      </trkpt>
      <trkpt lat="-40.1774540" lon="-71.3733530">
        <ele>706.6</ele>
        <time>2020-11-15T12:14:54Z</time>
      </trkpt>
      <trkpt lat="-40.1774690" lon="-71.3734120">
        <ele>706.8</ele>
        <time>2020-11-15T12:14:55Z</time>
      </trkpt>
      <trkpt lat="-40.1774850" lon="-71.3734710">
        <ele>707.1</ele>
        <time>2020-11-15T12:14:56Z</time>
      </trkpt>
      <trkpt lat="-40.1775000" lon="-71.3735290">
        <ele>707.4</ele>
        <time>2020-11-15T12:14:57Z</time>
      </trkpt>
      <trkpt lat="-40.1775160" lon="-71.3735850">
        <ele>707.7</ele>
        <time>2020-11-15T12:14:58Z</time>
      </trkpt>
      <trkpt lat="-40.1775310" lon="-71.3736410">
        <ele>708.0</ele>
        <time>2020-11-15T12:14:59Z</time>
      </trkpt>
      <trkpt lat="-40.1775460" lon="-71.3736960">
        <ele>708.3</ele>
        <time>2020-11-15T12:15:00Z</time>
      </trkpt>
      <trkpt lat="-40.1775600" lon="-71.3737520">
        <ele>708.5</ele>
        <time>2020-11-15T12:15:01Z</time>
      </trkpt>
      <trkpt lat="-40.1775730" lon="-71.3738090">
        <ele>708.8</ele>
        <time>2020-11-15T12:15:02Z</time>
      </trkpt>
      <trkpt lat="-40.1775850" lon="-71.3738660">
        <ele>709.0</ele>
        <time>2020-11-15T12:15:03Z</time>
      </trkpt>
      <trkpt lat="-40.1775940" lon="-71.3739230">
        <ele>709.2</ele>
        <time>2020-11-15T12:15:04Z</time>
      </trkpt>
      <trkpt lat="-40.1776040" lon="-71.3739780">
        <ele>709.3</ele>
        <time>2020-11-15T12:15:05Z</time>
      </trkpt>
      <trkpt lat="-40.1776130" lon="-71.3740340">
        <ele>709.4</ele>
        <time>2020-11-15T12:15:06Z</time>
      </trkpt>
      <trkpt lat="-40.1776190" lon="-71.3740910">
        <ele>709.5</ele>
        <time>2020-11-15T12:15:07Z</time>
      </trkpt>
      <trkpt lat="-40.1776230" lon="-71.3741500">
        <ele>709.6</ele>
        <time>2020-11-15T12:15:08Z</time>
      </trkpt>
      <trkpt lat="-40.1776250" lon="-71.3742110">
        <ele>709.7</ele>
        <time>2020-11-15T12:15:09Z</time>
      </trkpt>
      <trkpt lat="-40.1776240" lon="-71.3742720">
        <ele>709.8</ele>
        <time>2020-11-15T12:15:10Z</time>
      </trkpt>
      <trkpt lat="-40.1776220" lon="-71.3743330">
        <ele>709.9</ele>
        <time>2020-11-15T12:15:11Z</time>
      </trkpt>
      <trkpt lat="-40.1776200" lon="-71.3743930">
        <ele>710.0</ele>
        <time>2020-11-15T12:15:12Z</time>
      </trkpt>
      <trkpt lat="-40.1776150" lon="-71.3744570">
        <ele>710.0</ele>
        <time>2020-11-15T12:15:13Z</time>
      </trkpt>
      <trkpt lat="-40.1776080" lon="-71.3745200">
        <ele>710.1</ele>
        <time>2020-11-15T12:15:14Z</time>
      </trkpt>
      <trkpt lat="-40.1775990" lon="-71.3745830">
        <ele>710.1</ele>
        <time>2020-11-15T12:15:15Z</time>
      </trkpt>
      <trkpt lat="-40.1775910" lon="-71.3746470">
        <ele>710.2</ele>
        <time>2020-11-15T12:15:16Z</time>
      </trkpt>
      <trkpt lat="-40.1775820" lon="-71.3747100">
        <ele>710.2</ele>
        <time>2020-11-15T12:15:17Z</time>
      </trkpt>
      <trkpt lat="-40.1775730" lon="-71.3747750">
        <ele>710.2</ele>
        <time>2020-11-15T12:15:18Z</time>
      </trkpt>
      <trkpt lat="-40.1775630" lon="-71.3748390">
        <ele>710.2</ele>
        <time>2020-11-15T12:15:19Z</time>
      </trkpt>
      <trkpt lat="-40.1775530" lon="-71.3749020">
        <ele>710.2</ele>
        <time>2020-11-15T12:15:20Z</time>
      </trkpt>
      <trkpt lat="-40.1775420" lon="-71.3749670">
        <ele>710.1</ele>
        <time>2020-11-15T12:15:21Z</time>
      </trkpt>
      <trkpt lat="-40.1775310" lon="-71.3750310">
        <ele>710.0</ele>
        <time>2020-11-15T12:15:22Z</time>
      </trkpt>
      <trkpt lat="-40.1775210" lon="-71.3750960">
        <ele>709.9</ele>
        <time>2020-11-15T12:15:23Z</time>
      </trkpt>
      <trkpt lat="-40.1775090" lon="-71.3751600">
        <ele>709.8</ele>
        <time>2020-11-15T12:15:24Z</time>
      </trkpt>
      <trkpt lat="-40.1774960" lon="-71.3752280">
        <ele>709.7</ele>
        <time>2020-11-15T12:15:25Z</time>
      </trkpt>
      <trkpt lat="-40.1774820" lon="-71.3752960">
        <ele>709.5</ele>
        <time>2020-11-15T12:15:26Z</time>
      </trkpt>
      <trkpt lat="-40.1774680" lon="-71.3753670">
        <ele>709.3</ele>
        <time>2020-11-15T12:15:27Z</time>
      </trkpt>
      <trkpt lat="-40.1774480" lon="-71.3754350">
        <ele>709.1</ele>
        <time>2020-11-15T12:15:28Z</time>
      </trkpt>
      <trkpt lat="-40.1774290" lon="-71.3755080">
        <ele>708.9</ele>
        <time>2020-11-15T12:15:29Z</time>
      </trkpt>
      <trkpt lat="-40.1774080" lon="-71.3755800">
        <ele>708.6</ele>
        <time>2020-11-15T12:15:30Z</time>
      </trkpt>
      <trkpt lat="-40.1773860" lon="-71.3756550">
        <ele>708.3</ele>
        <time>2020-11-15T12:15:31Z</time>
      </trkpt>
      <trkpt lat="-40.1773630" lon="-71.3757310">
        <ele>707.9</ele>
        <time>2020-11-15T12:15:32Z</time>
      </trkpt>
      <trkpt lat="-40.1773380" lon="-71.3758100">
        <ele>707.5</ele>
        <time>2020-11-15T12:15:33Z</time>
      </trkpt>
      <trkpt lat="-40.1773120" lon="-71.3758910">
        <ele>707.1</ele>
        <time>2020-11-15T12:15:34Z</time>
      </trkpt>
      <trkpt lat="-40.1772850" lon="-71.3759750">
        <ele>706.6</ele>
        <time>2020-11-15T12:15:35Z</time>
      </trkpt>
      <trkpt lat="-40.1772590" lon="-71.3760630">
        <ele>706.1</ele>
        <time>2020-11-15T12:15:36Z</time>
      </trkpt>
      <trkpt lat="-40.1772330" lon="-71.3761540">
        <ele>705.6</ele>
        <time>2020-11-15T12:15:37Z</time>
      </trkpt>
      <trkpt lat="-40.1772050" lon="-71.3762450">
        <ele>705.1</ele>
        <time>2020-11-15T12:15:38Z</time>
      </trkpt>
      <trkpt lat="-40.1771740" lon="-71.3763380">
        <ele>704.6</ele>
        <time>2020-11-15T12:15:39Z</time>
      </trkpt>
      <trkpt lat="-40.1771410" lon="-71.3764350">
        <ele>704.1</ele>
        <time>2020-11-15T12:15:40Z</time>
      </trkpt>
      <trkpt lat="-40.1771060" lon="-71.3765360">
        <ele>703.5</ele>
        <time>2020-11-15T12:15:41Z</time>
      </trkpt>
      <trkpt lat="-40.1770700" lon="-71.3766420">
        <ele>702.9</ele>
        <time>2020-11-15T12:15:42Z</time>
      </trkpt>
      <trkpt lat="-40.1770370" lon="-71.3767510">
        <ele>702.3</ele>
        <time>2020-11-15T12:15:43Z</time>
      </trkpt>
      <trkpt lat="-40.1769960" lon="-71.3768660">
        <ele>701.6</ele>
        <time>2020-11-15T12:15:44Z</time>
      </trkpt>
      <trkpt lat="-40.1769560" lon="-71.3769870">
        <ele>701.0</ele>
        <time>2020-11-15T12:15:45Z</time>
      </trkpt>
      <trkpt lat="-40.1769150" lon="-71.3771110">
        <ele>700.4</ele>
        <time>2020-11-15T12:15:46Z</time>
      </trkpt>
      <trkpt lat="-40.1768790" lon="-71.3772330">
        <ele>699.8</ele>
        <time>2020-11-15T12:15:47Z</time>
      </trkpt>
      <trkpt lat="-40.1768450" lon="-71.3773550">
        <ele>699.1</ele>
        <time>2020-11-15T12:15:48Z</time>
      </trkpt>
      <trkpt lat="-40.1768140" lon="-71.3774710">
        <ele>698.4</ele>
        <time>2020-11-15T12:15:49Z</time>
      </trkpt>
      <trkpt lat="-40.1767850" lon="-71.3775880">
        <ele>697.7</ele>
        <time>2020-11-15T12:15:50Z</time>
      </trkpt>
      <trkpt lat="-40.1767590" lon="-71.3777100">
        <ele>697.1</ele>
        <time>2020-11-15T12:15:51Z</time>
      </trkpt>
      <trkpt lat="-40.1767400" lon="-71.3778350">
        <ele>696.5</ele>
        <time>2020-11-15T12:15:52Z</time>
      </trkpt>
      <trkpt lat="-40.1767240" lon="-71.3779570">
        <ele>696.0</ele>
        <time>2020-11-15T12:15:53Z</time>
      </trkpt>
      <trkpt lat="-40.1767080" lon="-71.3780930">
        <ele>695.4</ele>
        <time>2020-11-15T12:15:54Z</time>
      </trkpt>
      <trkpt lat="-40.1766920" lon="-71.3782360">
        <ele>694.8</ele>
        <time>2020-11-15T12:15:55Z</time>
      </trkpt>
      <trkpt lat="-40.1766740" lon="-71.3783750">
        <ele>694.1</ele>
        <time>2020-11-15T12:15:56Z</time>
      </trkpt>
      <trkpt lat="-40.1766570" lon="-71.3785130">
        <ele>693.4</ele>
        <time>2020-11-15T12:15:57Z</time>
      </trkpt>
      <trkpt lat="-40.1766460" lon="-71.3786520">
        <ele>692.6</ele>
        <time>2020-11-15T12:15:58Z</time>
      </trkpt>
      <trkpt lat="-40.1766360" lon="-71.3787950">
        <ele>691.9</ele>
        <time>2020-11-15T12:15:59Z</time>
      </trkpt>
      <trkpt lat="-40.1766300" lon="-71.3789350">
        <ele>691.3</ele>
        <time>2020-11-15T12:16:00Z</time>
      </trkpt>
      <trkpt lat="-40.1766260" lon="-71.3790730">
        <ele>690.8</ele>
        <time>2020-11-15T12:16:01Z</time>
      </trkpt>
      <trkpt lat="-40.1766240" lon="-71.3792150">
        <ele>690.1</ele>
        <time>2020-11-15T12:16:02Z</time>
      </trkpt>
      <trkpt lat="-40.1766260" lon="-71.3793570">
        <ele>689.5</ele>
        <time>2020-11-15T12:16:03Z</time>
      </trkpt>
      <trkpt lat="-40.1766310" lon="-71.3794950">
        <ele>689.0</ele>
        <time>2020-11-15T12:16:04Z</time>
      </trkpt>
      <trkpt lat="-40.1766440" lon="-71.3796300">
        <ele>688.6</ele>
        <time>2020-11-15T12:16:05Z</time>
      </trkpt>
      <trkpt lat="-40.1766610" lon="-71.3797630">
        <ele>688.3</ele>
        <time>2020-11-15T12:16:06Z</time>
      </trkpt>
      <trkpt lat="-40.1766820" lon="-71.3798960">
        <ele>688.1</ele>
        <time>2020-11-15T12:16:07Z</time>
      </trkpt>
      <trkpt lat="-40.1767090" lon="-71.3800240">
        <ele>687.8</ele>
        <time>2020-11-15T12:16:08Z</time>
      </trkpt>
      <trkpt lat="-40.1767360" lon="-71.3801480">
        <ele>687.5</ele>
        <time>2020-11-15T12:16:09Z</time>
      </trkpt>
      <trkpt lat="-40.1767640" lon="-71.3802690">
        <ele>687.2</ele>
        <time>2020-11-15T12:16:10Z</time>
      </trkpt>
      <trkpt lat="-40.1767890" lon="-71.3803850">
        <ele>687.0</ele>
        <time>2020-11-15T12:16:11Z</time>
      </trkpt>
      <trkpt lat="-40.1768100" lon="-71.3804980">
        <ele>687.0</ele>
        <time>2020-11-15T12:16:12Z</time>
      </trkpt>
      <trkpt lat="-40.1768250" lon="-71.3806080">
        <ele>687.0</ele>
        <time>2020-11-15T12:16:13Z</time>
      </trkpt>
      <trkpt lat="-40.1768340" lon="-71.3807160">
        <ele>687.1</ele>
        <time>2020-11-15T12:16:14Z</time>
      </trkpt>
      <trkpt lat="-40.1768390" lon="-71.3808220">
        <ele>687.3</ele>
        <time>2020-11-15T12:16:15Z</time>
      </trkpt>
      <trkpt lat="-40.1768390" lon="-71.3809240">
        <ele>687.5</ele>
        <time>2020-11-15T12:16:16Z</time>
      </trkpt>
      <trkpt lat="-40.1768340" lon="-71.3810260">
        <ele>687.9</ele>
        <time>2020-11-15T12:16:17Z</time>
      </trkpt>
      <trkpt lat="-40.1768260" lon="-71.3811250">
        <ele>688.3</ele>
        <time>2020-11-15T12:16:18Z</time>
      </trkpt>
      <trkpt lat="-40.1768170" lon="-71.3812200">
        <ele>688.8</ele>
        <time>2020-11-15T12:16:19Z</time>
      </trkpt>
      <trkpt lat="-40.1768110" lon="-71.3813100">
        <ele>689.2</ele>
        <time>2020-11-15T12:16:20Z</time>
      </trkpt>
      <trkpt lat="-40.1768060" lon="-71.3813970">
        <ele>689.7</ele>
        <time>2020-11-15T12:16:21Z</time>
      </trkpt>
      <trkpt lat="-40.1768010" lon="-71.3814800">
        <ele>690.2</ele>
        <time>2020-11-15T12:16:22Z</time>
      </trkpt>
      <trkpt lat="-40.1767960" lon="-71.3815640">
        <ele>690.7</ele>
        <time>2020-11-15T12:16:23Z</time>
      </trkpt>
      <trkpt lat="-40.1767920" lon="-71.3816440">
        <ele>691.1</ele>
        <time>2020-11-15T12:16:24Z</time>
      </trkpt>
      <trkpt lat="-40.1767870" lon="-71.3817240">
        <ele>691.6</ele>
        <time>2020-11-15T12:16:25Z</time>
      </trkpt>
      <trkpt lat="-40.1767840" lon="-71.3818040">
        <ele>692.0</ele>
        <time>2020-11-15T12:16:26Z</time>
      </trkpt>
      <trkpt lat="-40.1767830" lon="-71.3818820">
        <ele>692.4</ele>
        <time>2020-11-15T12:16:27Z</time>
      </trkpt>
      <trkpt lat="-40.1767830" lon="-71.3819580">
        <ele>692.8</ele>
        <time>2020-11-15T12:16:28Z</time>
      </trkpt>
      <trkpt lat="-40.1767850" lon="-71.3820310">
        <ele>693.2</ele>
        <time>2020-11-15T12:16:29Z</time>
      </trkpt>
      <trkpt lat="-40.1767880" lon="-71.3821030">
        <ele>693.4</ele>
        <time>2020-11-15T12:16:30Z</time>
      </trkpt>
      <trkpt lat="-40.1767920" lon="-71.3821740">
        <ele>693.7</ele>
        <time>2020-11-15T12:16:31Z</time>
      </trkpt>
      <trkpt lat="-40.1767980" lon="-71.3822430">
        <ele>694.0</ele>
        <time>2020-11-15T12:16:32Z</time>
      </trkpt>
      <trkpt lat="-40.1768040" lon="-71.3823090">
        <ele>694.3</ele>
        <time>2020-11-15T12:16:32Z</time>
      </trkpt>
      <trkpt lat="-40.1768120" lon="-71.3823710">
        <ele>694.6</ele>
        <time>2020-11-15T12:16:33Z</time>
      </trkpt>
      <trkpt lat="-40.1768200" lon="-71.3824320">
        <ele>694.9</ele>
        <time>2020-11-15T12:16:34Z</time>
      </trkpt>
      <trkpt lat="-40.1768280" lon="-71.3824920">
        <ele>695.1</ele>
        <time>2020-11-15T12:16:35Z</time>
      </trkpt>
      <trkpt lat="-40.1768360" lon="-71.3825510">
        <ele>695.4</ele>
        <time>2020-11-15T12:16:36Z</time>
      </trkpt>
      <trkpt lat="-40.1768450" lon="-71.3826090">
        <ele>695.7</ele>
        <time>2020-11-15T12:16:37Z</time>
      </trkpt>
      <trkpt lat="-40.1768530" lon="-71.3826670">
        <ele>696.0</ele>
        <time>2020-11-15T12:16:38Z</time>
      </trkpt>
      <trkpt lat="-40.1768610" lon="-71.3827230">
        <ele>696.3</ele>
        <time>2020-11-15T12:16:39Z</time>
      </trkpt>
      <trkpt lat="-40.1768670" lon="-71.3827780">
        <ele>696.6</ele>
        <time>2020-11-15T12:16:40Z</time>
      </trkpt>
      <trkpt lat="-40.1768740" lon="-71.3828300">
        <ele>696.9</ele>
        <time>2020-11-15T12:16:41Z</time>
      </trkpt>
      <trkpt lat="-40.1768820" lon="-71.3828810">
        <ele>697.1</ele>
        <time>2020-11-15T12:16:42Z</time>
      </trkpt>
      <trkpt lat="-40.1768900" lon="-71.3829300">
        <ele>697.4</ele>
        <time>2020-11-15T12:16:43Z</time>
      </trkpt>
      <trkpt lat="-40.1768980" lon="-71.3829780">
        <ele>697.6</ele>
        <time>2020-11-15T12:16:44Z</time>
      </trkpt>
      <trkpt lat="-40.1769080" lon="-71.3830250">
        <ele>697.9</ele>
        <time>2020-11-15T12:16:45Z</time>
      </trkpt>
      <trkpt lat="-40.1769170" lon="-71.3830720">
        <ele>698.1</ele>
        <time>2020-11-15T12:16:46Z</time>
      </trkpt>
      <trkpt lat="-40.1769240" lon="-71.3831180">
        <ele>698.4</ele>
        <time>2020-11-15T12:16:47Z</time>
      </trkpt>
      <trkpt lat="-40.1769310" lon="-71.3831640">
        <ele>698.6</ele>
        <time>2020-11-15T12:16:48Z</time>
      </trkpt>
      <trkpt lat="-40.1769340" lon="-71.3832100">
        <ele>698.9</ele>
        <time>2020-11-15T12:16:49Z</time>
      </trkpt>
      <trkpt lat="-40.1769380" lon="-71.3832560">
        <ele>699.1</ele>
        <time>2020-11-15T12:16:50Z</time>
      </trkpt>
      <trkpt lat="-40.1769410" lon="-71.3833020">
        <ele>699.3</ele>
        <time>2020-11-15T12:16:51Z</time>
      </trkpt>
      <trkpt lat="-40.1769450" lon="-71.3833460">
        <ele>699.5</ele>
        <time>2020-11-15T12:16:52Z</time>
      </trkpt>
      <trkpt lat="-40.1769500" lon="-71.3833890">
        <ele>699.7</ele>
        <time>2020-11-15T12:16:53Z</time>
      </trkpt>
      <trkpt lat="-40.1769560" lon="-71.3834320">
        <ele>699.9</ele>
        <time>2020-11-15T12:16:54Z</time>
      </trkpt>
      <trkpt lat="-40.1769630" lon="-71.3834750">
        <ele>700.1</ele>
        <time>2020-11-15T12:16:55Z</time>
      </trkpt>
      <trkpt lat="-40.1769690" lon="-71.3835200">
        <ele>700.4</ele>
        <time>2020-11-15T12:16:56Z</time>
      </trkpt>
      <trkpt lat="-40.1769740" lon="-71.3835650">
        <ele>700.6</ele>
        <time>2020-11-15T12:16:57Z</time>
      </trkpt>
      <trkpt lat="-40.1769770" lon="-71.3836090">
        <ele>700.8</ele>
        <time>2020-11-15T12:16:58Z</time>
      </trkpt>
      <trkpt lat="-40.1769810" lon="-71.3836670">
        <ele>701.1</ele>
        <time>2020-11-15T12:17:00Z</time>
      </trkpt>
      <trkpt lat="-40.1769800" lon="-71.3837220">
        <ele>701.4</ele>
        <time>2020-11-15T12:17:01Z</time>
      </trkpt>
      <trkpt lat="-40.1769790" lon="-71.3837740">
        <ele>701.6</ele>
        <time>2020-11-15T12:17:02Z</time>
      </trkpt>
      <trkpt lat="-40.1769770" lon="-71.3838240">
        <ele>701.9</ele>
        <time>2020-11-15T12:17:03Z</time>
      </trkpt>
      <trkpt lat="-40.1769760" lon="-71.3838740">
        <ele>702.1</ele>
        <time>2020-11-15T12:17:04Z</time>
      </trkpt>
      <trkpt lat="-40.1769750" lon="-71.3839230">
        <ele>702.3</ele>
        <time>2020-11-15T12:17:05Z</time>
      </trkpt>
      <trkpt lat="-40.1769760" lon="-71.3839720">
        <ele>702.5</ele>
        <time>2020-11-15T12:17:06Z</time>
      </trkpt>
      <trkpt lat="-40.1769770" lon="-71.3840190">
        <ele>702.7</ele>
        <time>2020-11-15T12:17:07Z</time>
      </trkpt>
      <trkpt lat="-40.1769800" lon="-71.3840660">
        <ele>702.9</ele>
        <time>2020-11-15T12:17:08Z</time>
      </trkpt>
      <trkpt lat="-40.1769850" lon="-71.3841130">
        <ele>703.1</ele>
        <time>2020-11-15T12:17:09Z</time>
      </trkpt>
      <trkpt lat="-40.1769910" lon="-71.3841600">
        <ele>703.2</ele>
        <time>2020-11-15T12:17:10Z</time>
      </trkpt>
      <trkpt lat="-40.1769980" lon="-71.3842080">
        <ele>703.4</ele>
        <time>2020-11-15T12:17:11Z</time>
      </trkpt>
      <trkpt lat="-40.1770040" lon="-71.3842570">
        <ele>703.5</ele>
        <time>2020-11-15T12:17:12Z</time>
      </trkpt>
      <trkpt lat="-40.1770100" lon="-71.3843060">
        <ele>703.7</ele>
        <time>2020-11-15T12:17:13Z</time>
      </trkpt>
      <trkpt lat="-40.1770170" lon="-71.3843530">
        <ele>703.8</ele>
        <time>2020-11-15T12:17:14Z</time>
      </trkpt>
      <trkpt lat="-40.1770230" lon="-71.3844020">
        <ele>703.9</ele>
        <time>2020-11-15T12:17:15Z</time>
      </trkpt>
      <trkpt lat="-40.1770280" lon="-71.3844510">
        <ele>704.0</ele>
        <time>2020-11-15T12:17:16Z</time>
      </trkpt>
      <trkpt lat="-40.1770320" lon="-71.3845010">
        <ele>704.1</ele>
        <time>2020-11-15T12:17:17Z</time>
      </trkpt>
      <trkpt lat="-40.1770350" lon="-71.3845520">
        <ele>704.2</ele>
        <time>2020-11-15T12:17:18Z</time>
      </trkpt>
      <trkpt lat="-40.1770380" lon="-71.3846030">
        <ele>704.2</ele>
        <time>2020-11-15T12:17:19Z</time>
      </trkpt>
      <trkpt lat="-40.1770420" lon="-71.3846550">
        <ele>704.3</ele>
        <time>2020-11-15T12:17:20Z</time>
      </trkpt>
      <trkpt lat="-40.1770450" lon="-71.3847070">
        <ele>704.4</ele>
        <time>2020-11-15T12:17:21Z</time>
      </trkpt>
      <trkpt lat="-40.1770490" lon="-71.3847600">
        <ele>704.4</ele>
        <time>2020-11-15T12:17:22Z</time>
      </trkpt>
      <trkpt lat="-40.1770530" lon="-71.3848120">
        <ele>704.5</ele>
        <time>2020-11-15T12:17:23Z</time>
      </trkpt>
      <trkpt lat="-40.1770610" lon="-71.3849160">
        <ele>704.6</ele>
        <time>2020-11-15T12:17:25Z</time>
      </trkpt>
      <trkpt lat="-40.1770640" lon="-71.3849680">
        <ele>704.7</ele>
        <time>2020-11-15T12:17:26Z</time>
      </trkpt>
      <trkpt lat="-40.1770670" lon="-71.3850190">
        <ele>704.7</ele>
        <time>2020-11-15T12:17:27Z</time>
      </trkpt>
      <trkpt lat="-40.1770680" lon="-71.3850710">
        <ele>704.7</ele>
        <time>2020-11-15T12:17:28Z</time>
      </trkpt>
      <trkpt lat="-40.1770680" lon="-71.3851240">
        <ele>704.8</ele>
        <time>2020-11-15T12:17:29Z</time>
      </trkpt>
      <trkpt lat="-40.1770680" lon="-71.3851780">
        <ele>704.9</ele>
        <time>2020-11-15T12:17:30Z</time>
      </trkpt>
      <trkpt lat="-40.1770680" lon="-71.3852330">
        <ele>705.0</ele>
        <time>2020-11-15T12:17:31Z</time>
      </trkpt>
      <trkpt lat="-40.1770670" lon="-71.3852900">
        <ele>705.1</ele>
        <time>2020-11-15T12:17:32Z</time>
      </trkpt>
      <trkpt lat="-40.1770660" lon="-71.3853460">
        <ele>705.2</ele>
        <time>2020-11-15T12:17:33Z</time>
      </trkpt>
      <trkpt lat="-40.1770660" lon="-71.3854020">
        <ele>705.3</ele>
        <time>2020-11-15T12:17:34Z</time>
      </trkpt>
      <trkpt lat="-40.1770670" lon="-71.3854600">
        <ele>705.5</ele>
        <time>2020-11-15T12:17:35Z</time>
      </trkpt>
      <trkpt lat="-40.1770670" lon="-71.3855180">
        <ele>705.6</ele>
        <time>2020-11-15T12:17:36Z</time>
      </trkpt>
      <trkpt lat="-40.1770640" lon="-71.3855790">
        <ele>705.8</ele>
        <time>2020-11-15T12:17:37Z</time>
      </trkpt>
      <trkpt lat="-40.1770580" lon="-71.3856430">
        <ele>706.0</ele>
        <time>2020-11-15T12:17:38Z</time>
      </trkpt>
      <trkpt lat="-40.1770520" lon="-71.3857040">
        <ele>706.2</ele>
        <time>2020-11-15T12:17:39Z</time>
      </trkpt>
      <trkpt lat="-40.1770450" lon="-71.3857630">
        <ele>706.4</ele>
        <time>2020-11-15T12:17:40Z</time>
      </trkpt>
      <trkpt lat="-40.1770430" lon="-71.3858200">
        <ele>706.6</ele>
        <time>2020-11-15T12:17:41Z</time>
      </trkpt>
      <trkpt lat="-40.1770430" lon="-71.3858750">
        <ele>706.8</ele>
        <time>2020-11-15T12:17:42Z</time>
      </trkpt>
      <trkpt lat="-40.1770380" lon="-71.3859300">
        <ele>707.0</ele>
        <time>2020-11-15T12:17:43Z</time>
      </trkpt>
      <trkpt lat="-40.1770320" lon="-71.3859830">
        <ele>707.1</ele>
        <time>2020-11-15T12:17:44Z</time>
      </trkpt>
      <trkpt lat="-40.1770250" lon="-71.3860380">
        <ele>707.3</ele>
        <time>2020-11-15T12:17:45Z</time>
      </trkpt>
      <trkpt lat="-40.1770170" lon="-71.3860930">
        <ele>707.5</ele>
        <time>2020-11-15T12:17:46Z</time>
      </trkpt>
      <trkpt lat="-40.1770060" lon="-71.3861480">
        <ele>707.7</ele>
        <time>2020-11-15T12:17:47Z</time>
      </trkpt>
      <trkpt lat="-40.1769950" lon="-71.3862010">
        <ele>708.0</ele>
        <time>2020-11-15T12:17:48Z</time>
      </trkpt>
      <trkpt lat="-40.1769840" lon="-71.3862550">
        <ele>708.2</ele>
        <time>2020-11-15T12:17:49Z</time>
      </trkpt>
      <trkpt lat="-40.1769710" lon="-71.3863100">
        <ele>708.4</ele>
        <time>2020-11-15T12:17:50Z</time>
      </trkpt>
      <trkpt lat="-40.1769590" lon="-71.3863630">
        <ele>708.6</ele>
        <time>2020-11-15T12:17:51Z</time>
      </trkpt>
      <trkpt lat="-40.1769450" lon="-71.3864160">
        <ele>708.8</ele>
        <time>2020-11-15T12:17:52Z</time>
      </trkpt>
      <trkpt lat="-40.1769330" lon="-71.3864680">
        <ele>709.0</ele>
        <time>2020-11-15T12:17:53Z</time>
      </trkpt>
      <trkpt lat="-40.1769190" lon="-71.3865190">
        <ele>709.2</ele>
        <time>2020-11-15T12:17:54Z</time>
      </trkpt>
      <trkpt lat="-40.1769050" lon="-71.3865700">
        <ele>709.4</ele>
        <time>2020-11-15T12:17:55Z</time>
      </trkpt>
      <trkpt lat="-40.1768910" lon="-71.3866210">
        <ele>709.6</ele>
        <time>2020-11-15T12:17:56Z</time>
      </trkpt>
      <trkpt lat="-40.1768760" lon="-71.3866720">
        <ele>709.7</ele>
        <time>2020-11-15T12:17:57Z</time>
      </trkpt>
      <trkpt lat="-40.1768600" lon="-71.3867220">
        <ele>709.9</ele>
        <time>2020-11-15T12:17:58Z</time>
      </trkpt>
      <trkpt lat="-40.1768450" lon="-71.3867710">
        <ele>710.1</ele>
        <time>2020-11-15T12:17:59Z</time>
      </trkpt>
      <trkpt lat="-40.1768320" lon="-71.3868190">
        <ele>710.2</ele>
        <time>2020-11-15T12:18:00Z</time>
      </trkpt>
      <trkpt lat="-40.1768220" lon="-71.3868670">
        <ele>710.4</ele>
        <time>2020-11-15T12:18:01Z</time>
      </trkpt>
      <trkpt lat="-40.1768160" lon="-71.3869110">
        <ele>710.5</ele>
        <time>2020-11-15T12:18:02Z</time>
      </trkpt>
      <trkpt lat="-40.1768080" lon="-71.3869560">
        <ele>710.7</ele>
        <time>2020-11-15T12:18:03Z</time>
      </trkpt>
      <trkpt lat="-40.1767990" lon="-71.3869990">
        <ele>710.8</ele>
        <time>2020-11-15T12:18:04Z</time>
      </trkpt>
      <trkpt lat="-40.1767890" lon="-71.3870430">
        <ele>710.9</ele>
        <time>2020-11-15T12:18:05Z</time>
      </trkpt>
      <trkpt lat="-40.1767770" lon="-71.3870860">
        <ele>711.1</ele>
        <time>2020-11-15T12:18:06Z</time>
      </trkpt>
      <trkpt lat="-40.1767650" lon="-71.3871290">
        <ele>711.2</ele>
        <time>2020-11-15T12:18:07Z</time>
      </trkpt>
      <trkpt lat="-40.1767530" lon="-71.3871720">
        <ele>711.3</ele>
        <time>2020-11-15T12:18:08Z</time>
      </trkpt>
      <trkpt lat="-40.1767410" lon="-71.3872180">
        <ele>711.4</ele>
        <time>2020-11-15T12:18:09Z</time>
      </trkpt>
      <trkpt lat="-40.1767280" lon="-71.3872660">
        <ele>711.5</ele>
        <time>2020-11-15T12:18:10Z</time>
      </trkpt>
      <trkpt lat="-40.1767170" lon="-71.3873140">
        <ele>711.6</ele>
        <time>2020-11-15T12:18:11Z</time>
      </trkpt>
      <trkpt lat="-40.1767060" lon="-71.3873620">
        <ele>711.7</ele>
        <time>2020-11-15T12:18:12Z</time>
      </trkpt>
      <trkpt lat="-40.1766940" lon="-71.3874110">
        <ele>711.8</ele>
        <time>2020-11-15T12:18:14Z</time>
      </trkpt>
      <trkpt lat="-40.1766810" lon="-71.3874580">
        <ele>711.9</ele>
        <time>2020-11-15T12:18:15Z</time>
      </trkpt>
      <trkpt lat="-40.1766670" lon="-71.3875060">
        <ele>711.9</ele>
        <time>2020-11-15T12:18:16Z</time>
      </trkpt>
      <trkpt lat="-40.1766510" lon="-71.3875530">
        <ele>712.0</ele>
        <time>2020-11-15T12:18:17Z</time>
      </trkpt>
      <trkpt lat="-40.1766360" lon="-71.3876010">
        <ele>712.1</ele>
        <time>2020-11-15T12:18:18Z</time>
      </trkpt>
      <trkpt lat="-40.1766230" lon="-71.3876540">
        <ele>712.1</ele>
        <time>2020-11-15T12:18:19Z</time>
      </trkpt>
      <trkpt lat="-40.1766070" lon="-71.3877090">
        <ele>712.2</ele>
        <time>2020-11-15T12:18:20Z</time>
      </trkpt>
      <trkpt lat="-40.1765910" lon="-71.3877630">
        <ele>712.3</ele>
        <time>2020-11-15T12:18:21Z</time>
      </trkpt>
      <trkpt lat="-40.1765670" lon="-71.3878100">
        <ele>712.3</ele>
        <time>2020-11-15T12:18:22Z</time>
      </trkpt>
      <trkpt lat="-40.1765430" lon="-71.3878540">
        <ele>712.3</ele>
        <time>2020-11-15T12:18:23Z</time>
      </trkpt>
      <trkpt lat="-40.1765220" lon="-71.3879010">
        <ele>712.4</ele>
        <time>2020-11-15T12:18:24Z</time>
      </trkpt>
      <trkpt lat="-40.1765020" lon="-71.3879520">
        <ele>712.4</ele>
        <time>2020-11-15T12:18:25Z</time>
      </trkpt>
      <trkpt lat="-40.1764810" lon="-71.3880040">
        <ele>712.5</ele>
        <time>2020-11-15T12:18:26Z</time>
      </trkpt>
      <trkpt lat="-40.1764610" lon="-71.3880540">
        <ele>712.5</ele>
        <time>2020-11-15T12:18:27Z</time>
      </trkpt>
      <trkpt lat="-40.1764390" lon="-71.3881050">
        <ele>712.6</ele>
        <time>2020-11-15T12:18:28Z</time>
      </trkpt>
      <trkpt lat="-40.1764160" lon="-71.3881530">
        <ele>712.6</ele>
        <time>2020-11-15T12:18:29Z</time>
      </trkpt>
      <trkpt lat="-40.1763930" lon="-71.3882010">
        <ele>712.7</ele>
        <time>2020-11-15T12:18:30Z</time>
      </trkpt>
      <trkpt lat="-40.1763690" lon="-71.3882520">
        <ele>712.8</ele>
        <time>2020-11-15T12:18:31Z</time>
      </trkpt>
      <trkpt lat="-40.1763450" lon="-71.3883040">
        <ele>712.9</ele>
        <time>2020-11-15T12:18:32Z</time>
      </trkpt>
      <trkpt lat="-40.1763210" lon="-71.3883540">
        <ele>713.0</ele>
        <time>2020-11-15T12:18:33Z</time>
      </trkpt>
      <trkpt lat="-40.1762970" lon="-71.3884030">
        <ele>713.1</ele>
        <time>2020-11-15T12:18:34Z</time>
      </trkpt>
      <trkpt lat="-40.1762690" lon="-71.3884530">
        <ele>713.3</ele>
        <time>2020-11-15T12:18:35Z</time>
      </trkpt>
      <trkpt lat="-40.1762420" lon="-71.3885020">
        <ele>713.5</ele>
        <time>2020-11-15T12:18:36Z</time>
      </trkpt>
      <trkpt lat="-40.1762170" lon="-71.3885520">
        <ele>713.7</ele>
        <time>2020-11-15T12:18:37Z</time>
      </trkpt>
      <trkpt lat="-40.1761950" lon="-71.3886010">
        <ele>713.8</ele>
        <time>2020-11-15T12:18:38Z</time>
      </trkpt>
      <trkpt lat="-40.1761750" lon="-71.3886510">
        <ele>714.0</ele>
        <time>2020-11-15T12:18:39Z</time>
      </trkpt>
      <trkpt lat="-40.1761570" lon="-71.3887040">
        <ele>714.2</ele>
        <time>2020-11-15T12:18:40Z</time>
      </trkpt>
      <trkpt lat="-40.1761400" lon="-71.3887590">
        <ele>714.4</ele>
        <time>2020-11-15T12:18:41Z</time>
      </trkpt>
      <trkpt lat="-40.1761240" lon="-71.3888110">
        <ele>714.6</ele>
        <time>2020-11-15T12:18:42Z</time>
      </trkpt>
      <trkpt lat="-40.1761080" lon="-71.3888610">
        <ele>714.8</ele>
        <time>2020-11-15T12:18:43Z</time>
      </trkpt>
      <trkpt lat="-40.1760920" lon="-71.3889100">
        <ele>715.1</ele>
        <time>2020-11-15T12:18:44Z</time>
      </trkpt>
      <trkpt lat="-40.1760750" lon="-71.3889600">
        <ele>715.3</ele>
        <time>2020-11-15T12:18:45Z</time>
      </trkpt>
      <trkpt lat="-40.1760590" lon="-71.3890090">
        <ele>715.6</ele>
        <time>2020-11-15T12:18:46Z</time>
      </trkpt>
      <trkpt lat="-40.1760440" lon="-71.3890570">
        <ele>715.8</ele>
        <time>2020-11-15T12:18:47Z</time>
      </trkpt>
      <trkpt lat="-40.1760310" lon="-71.3891080">
        <ele>716.1</ele>
        <time>2020-11-15T12:18:48Z</time>
      </trkpt>
      <trkpt lat="-40.1760100" lon="-71.3891510">
        <ele>716.3</ele>
        <time>2020-11-15T12:18:49Z</time>
      </trkpt>
      <trkpt lat="-40.1759880" lon="-71.3891970">
        <ele>716.6</ele>
        <time>2020-11-15T12:18:50Z</time>
      </trkpt>
      <trkpt lat="-40.1759710" lon="-71.3892420">
        <ele>716.8</ele>
        <time>2020-11-15T12:18:51Z</time>
      </trkpt>
      <trkpt lat="-40.1759600" lon="-71.3892930">
        <ele>717.0</ele>
        <time>2020-11-15T12:18:52Z</time>
      </trkpt>
      <trkpt lat="-40.1759500" lon="-71.3893430">
        <ele>717.3</ele>
        <time>2020-11-15T12:18:53Z</time>
      </trkpt>
      <trkpt lat="-40.1759380" lon="-71.3893940">
        <ele>717.5</ele>
        <time>2020-11-15T12:18:54Z</time>
      </trkpt>
      <trkpt lat="-40.1759240" lon="-71.3894480">
        <ele>717.7</ele>
        <time>2020-11-15T12:18:55Z</time>
      </trkpt>
      <trkpt lat="-40.1759110" lon="-71.3895010">
        <ele>718.0</ele>
        <time>2020-11-15T12:18:56Z</time>
      </trkpt>
      <trkpt lat="-40.1758990" lon="-71.3895540">
        <ele>718.2</ele>
        <time>2020-11-15T12:18:57Z</time>
      </trkpt>
      <trkpt lat="-40.1758880" lon="-71.3896060">
        <ele>718.5</ele>
        <time>2020-11-15T12:18:58Z</time>
      </trkpt>
      <trkpt lat="-40.1758770" lon="-71.3896590">
        <ele>718.7</ele>
        <time>2020-11-15T12:18:59Z</time>
      </trkpt>
      <trkpt lat="-40.1758660" lon="-71.3897110">
        <ele>719.0</ele>
        <time>2020-11-15T12:19:00Z</time>
      </trkpt>
      <trkpt lat="-40.1758540" lon="-71.3897680">
        <ele>719.2</ele>
        <time>2020-11-15T12:19:01Z</time>
      </trkpt>
      <trkpt lat="-40.1758400" lon="-71.3898260">
        <ele>719.4</ele>
        <time>2020-11-15T12:19:02Z</time>
      </trkpt>
      <trkpt lat="-40.1758260" lon="-71.3898830">
        <ele>719.6</ele>
        <time>2020-11-15T12:19:03Z</time>
      </trkpt>
      <trkpt lat="-40.1758110" lon="-71.3899380">
        <ele>719.8</ele>
        <time>2020-11-15T12:19:04Z</time>
      </trkpt>
      <trkpt lat="-40.1757980" lon="-71.3899970">
        <ele>720.0</ele>
        <time>2020-11-15T12:19:05Z</time>
      </trkpt>
      <trkpt lat="-40.1757830" lon="-71.3900530">
        <ele>720.2</ele>
        <time>2020-11-15T12:19:06Z</time>
      </trkpt>
      <trkpt lat="-40.1757670" lon="-71.3901060">
        <ele>720.3</ele>
        <time>2020-11-15T12:19:07Z</time>
      </trkpt>
      <trkpt lat="-40.1757500" lon="-71.3901540">
        <ele>720.4</ele>
        <time>2020-11-15T12:19:08Z</time>
      </trkpt>
      <trkpt lat="-40.1757300" lon="-71.3902020">
        <ele>720.5</ele>
        <time>2020-11-15T12:19:09Z</time>
      </trkpt>
      <trkpt lat="-40.1756820" lon="-71.3902970">
        <ele>720.6</ele>
        <time>2020-11-15T12:19:11Z</time>
      </trkpt>
      <trkpt lat="-40.1756550" lon="-71.3903450">
        <ele>720.6</ele>
        <time>2020-11-15T12:19:12Z</time>
      </trkpt>
      <trkpt lat="-40.1756280" lon="-71.3903940">
        <ele>720.6</ele>
        <time>2020-11-15T12:19:13Z</time>
      </trkpt>
      <trkpt lat="-40.1756000" lon="-71.3904450">
        <ele>720.6</ele>
        <time>2020-11-15T12:19:14Z</time>
      </trkpt>
      <trkpt lat="-40.1755700" lon="-71.3904960">
        <ele>720.5</ele>
        <time>2020-11-15T12:19:15Z</time>
      </trkpt>
      <trkpt lat="-40.1755390" lon="-71.3905470">
        <ele>720.5</ele>
        <time>2020-11-15T12:19:16Z</time>
      </trkpt>
      <trkpt lat="-40.1754740" lon="-71.3906500">
        <ele>720.3</ele>
        <time>2020-11-15T12:19:18Z</time>
      </trkpt>
      <trkpt lat="-40.1754410" lon="-71.3907050">
        <ele>720.1</ele>
        <time>2020-11-15T12:19:19Z</time>
      </trkpt>
      <trkpt lat="-40.1754050" lon="-71.3907600">
        <ele>720.0</ele>
        <time>2020-11-15T12:19:20Z</time>
      </trkpt>
      <trkpt lat="-40.1753660" lon="-71.3908180">
        <ele>719.8</ele>
        <time>2020-11-15T12:19:21Z</time>
      </trkpt>
      <trkpt lat="-40.1753260" lon="-71.3908760">
        <ele>719.6</ele>
        <time>2020-11-15T12:19:22Z</time>
      </trkpt>
      <trkpt lat="-40.1752860" lon="-71.3909360">
        <ele>719.4</ele>
        <time>2020-11-15T12:19:23Z</time>
      </trkpt>
      <trkpt lat="-40.1752440" lon="-71.3909970">
        <ele>719.2</ele>
        <time>2020-11-15T12:19:24Z</time>
      </trkpt>
      <trkpt lat="-40.1752010" lon="-71.3910590">
        <ele>719.0</ele>
        <time>2020-11-15T12:19:25Z</time>
      </trkpt>
      <trkpt lat="-40.1751570" lon="-71.3911220">
        <ele>718.7</ele>
        <time>2020-11-15T12:19:26Z</time>
      </trkpt>
      <trkpt lat="-40.1751130" lon="-71.3911850">
        <ele>718.5</ele>
        <time>2020-11-15T12:19:27Z</time>
      </trkpt>
      <trkpt lat="-40.1750710" lon="-71.3912500">
        <ele>718.2</ele>
        <time>2020-11-15T12:19:28Z</time>
      </trkpt>
      <trkpt lat="-40.1750310" lon="-71.3913180">
        <ele>718.0</ele>
        <time>2020-11-15T12:19:29Z</time>
      </trkpt>
      <trkpt lat="-40.1749930" lon="-71.3913880">
        <ele>717.7</ele>
        <time>2020-11-15T12:19:30Z</time>
      </trkpt>
      <trkpt lat="-40.1749590" lon="-71.3914610">
        <ele>717.5</ele>
        <time>2020-11-15T12:19:31Z</time>
      </trkpt>
      <trkpt lat="-40.1749260" lon="-71.3915360">
        <ele>717.2</ele>
        <time>2020-11-15T12:19:32Z</time>
      </trkpt>
      <trkpt lat="-40.1748960" lon="-71.3916130">
        <ele>717.0</ele>
        <time>2020-11-15T12:19:33Z</time>
      </trkpt>
      <trkpt lat="-40.1748680" lon="-71.3916930">
        <ele>716.7</ele>
        <time>2020-11-15T12:19:34Z</time>
      </trkpt>
      <trkpt lat="-40.1748400" lon="-71.3917760">
        <ele>716.5</ele>
        <time>2020-11-15T12:19:35Z</time>
      </trkpt>
      <trkpt lat="-40.1748140" lon="-71.3918620">
        <ele>716.2</ele>
        <time>2020-11-15T12:19:36Z</time>
      </trkpt>
      <trkpt lat="-40.1747900" lon="-71.3919460">
        <ele>716.0</ele>
        <time>2020-11-15T12:19:37Z</time>
      </trkpt>
      <trkpt lat="-40.1747660" lon="-71.3920320">
        <ele>715.9</ele>
        <time>2020-11-15T12:19:38Z</time>
      </trkpt>
      <trkpt lat="-40.1747430" lon="-71.3921160">
        <ele>715.7</ele>
        <time>2020-11-15T12:19:39Z</time>
      </trkpt>
      <trkpt lat="-40.1747230" lon="-71.3921990">
        <ele>715.6</ele>
        <time>2020-11-15T12:19:40Z</time>
      </trkpt>
      <trkpt lat="-40.1747040" lon="-71.3922820">
        <ele>715.6</ele>
        <time>2020-11-15T12:19:41Z</time>
      </trkpt>
      <trkpt lat="-40.1746860" lon="-71.3923630">
        <ele>715.6</ele>
        <time>2020-11-15T12:19:42Z</time>
      </trkpt>
      <trkpt lat="-40.1746690" lon="-71.3924440">
        <ele>715.6</ele>
        <time>2020-11-15T12:19:43Z</time>
      </trkpt>
      <trkpt lat="-40.1746540" lon="-71.3925240">
        <ele>715.7</ele>
        <time>2020-11-15T12:19:44Z</time>
      </trkpt>
      <trkpt lat="-40.1746390" lon="-71.3926010">
        <ele>715.8</ele>
        <time>2020-11-15T12:19:45Z</time>
      </trkpt>
      <trkpt lat="-40.1746110" lon="-71.3927500">
        <ele>716.2</ele>
        <time>2020-11-15T12:19:47Z</time>
      </trkpt>
      <trkpt lat="-40.1745970" lon="-71.3928230">
        <ele>716.3</ele>
        <time>2020-11-15T12:19:48Z</time>
      </trkpt>
      <trkpt lat="-40.1745850" lon="-71.3928940">
        <ele>716.5</ele>
        <time>2020-11-15T12:19:49Z</time>
      </trkpt>
      <trkpt lat="-40.1745750" lon="-71.3929620">
        <ele>716.8</ele>
        <time>2020-11-15T12:19:50Z</time>
      </trkpt>
      <trkpt lat="-40.1745650" lon="-71.3930280">
        <ele>717.0</ele>
        <time>2020-11-15T12:19:51Z</time>
      </trkpt>
      <trkpt lat="-40.1745550" lon="-71.3930910">
        <ele>717.3</ele>
        <time>2020-11-15T12:19:52Z</time>
      </trkpt>
      <trkpt lat="-40.1745480" lon="-71.3931510">
        <ele>717.6</ele>
        <time>2020-11-15T12:19:53Z</time>
      </trkpt>
      <trkpt lat="-40.1745410" lon="-71.3932080">
        <ele>717.9</ele>
        <time>2020-11-15T12:19:54Z</time>
      </trkpt>
      <trkpt lat="-40.1745350" lon="-71.3932630">
        <ele>718.2</ele>
        <time>2020-11-15T12:19:55Z</time>
      </trkpt>
      <trkpt lat="-40.1745290" lon="-71.3933160">
        <ele>718.4</ele>
        <time>2020-11-15T12:19:56Z</time>
      </trkpt>
      <trkpt lat="-40.1745240" lon="-71.3933680">
        <ele>718.7</ele>
        <time>2020-11-15T12:19:57Z</time>
      </trkpt>
      <trkpt lat="-40.1745200" lon="-71.3934190">
        <ele>719.0</ele>
        <time>2020-11-15T12:19:58Z</time>
      </trkpt>
      <trkpt lat="-40.1745160" lon="-71.3934690">
        <ele>719.3</ele>
        <time>2020-11-15T12:19:59Z</time>
      </trkpt>
      <trkpt lat="-40.1745140" lon="-71.3935200">
        <ele>719.6</ele>
        <time>2020-11-15T12:20:00Z</time>
      </trkpt>
      <trkpt lat="-40.1745130" lon="-71.3935680">
        <ele>719.9</ele>
        <time>2020-11-15T12:20:01Z</time>
      </trkpt>
      <trkpt lat="-40.1745130" lon="-71.3936160">
        <ele>720.2</ele>
        <time>2020-11-15T12:20:02Z</time>
      </trkpt>
      <trkpt lat="-40.1745130" lon="-71.3936610">
        <ele>720.5</ele>
        <time>2020-11-15T12:20:03Z</time>
      </trkpt>
      <trkpt lat="-40.1745110" lon="-71.3937060">
        <ele>720.8</ele>
        <time>2020-11-15T12:20:04Z</time>
      </trkpt>
      <trkpt lat="-40.1745110" lon="-71.3937490">
        <ele>721.1</ele>
        <time>2020-11-15T12:20:05Z</time>
      </trkpt>
      <trkpt lat="-40.1745120" lon="-71.3937910">
        <ele>721.4</ele>
        <time>2020-11-15T12:20:06Z</time>
      </trkpt>
      <trkpt lat="-40.1745150" lon="-71.3938320">
        <ele>721.7</ele>
        <time>2020-11-15T12:20:07Z</time>
      </trkpt>
      <trkpt lat="-40.1745190" lon="-71.3938730">
        <ele>722.0</ele>
        <time>2020-11-15T12:20:08Z</time>
      </trkpt>
      <trkpt lat="-40.1745220" lon="-71.3939140">
        <ele>722.3</ele>
        <time>2020-11-15T12:20:09Z</time>
      </trkpt>
      <trkpt lat="-40.1745250" lon="-71.3939550">
        <ele>722.6</ele>
        <time>2020-11-15T12:20:10Z</time>
      </trkpt>
      <trkpt lat="-40.1745290" lon="-71.3939960">
        <ele>722.8</ele>
        <time>2020-11-15T12:20:11Z</time>
      </trkpt>
      <trkpt lat="-40.1745330" lon="-71.3940370">
        <ele>723.1</ele>
        <time>2020-11-15T12:20:12Z</time>
      </trkpt>
      <trkpt lat="-40.1745380" lon="-71.3940780">
        <ele>723.4</ele>
        <time>2020-11-15T12:20:13Z</time>
      </trkpt>
      <trkpt lat="-40.1745440" lon="-71.3941190">
        <ele>723.6</ele>
        <time>2020-11-15T12:20:14Z</time>
      </trkpt>
      <trkpt lat="-40.1745510" lon="-71.3941600">
        <ele>723.9</ele>
        <time>2020-11-15T12:20:15Z</time>
      </trkpt>
      <trkpt lat="-40.1745590" lon="-71.3942010">
        <ele>724.2</ele>
        <time>2020-11-15T12:20:16Z</time>
      </trkpt>
      <trkpt lat="-40.1745670" lon="-71.3942410">
        <ele>724.4</ele>
        <time>2020-11-15T12:20:17Z</time>
      </trkpt>
      <trkpt lat="-40.1745770" lon="-71.3942770">
        <ele>724.7</ele>
        <time>2020-11-15T12:20:18Z</time>
      </trkpt>
      <trkpt lat="-40.1745900" lon="-71.3943120">
        <ele>724.9</ele>
        <time>2020-11-15T12:20:19Z</time>
      </trkpt>
      <trkpt lat="-40.1746040" lon="-71.3943460">
        <ele>725.2</ele>
        <time>2020-11-15T12:20:20Z</time>
      </trkpt>
      <trkpt lat="-40.1746390" lon="-71.3944140">
        <ele>725.7</ele>
        <time>2020-11-15T12:20:22Z</time>
      </trkpt>
      <trkpt lat="-40.1746570" lon="-71.3944470">
        <ele>725.9</ele>
        <time>2020-11-15T12:20:23Z</time>
      </trkpt>
      <trkpt lat="-40.1746750" lon="-71.3944800">
        <ele>726.2</ele>
        <time>2020-11-15T12:20:24Z</time>
      </trkpt>
      <trkpt lat="-40.1746920" lon="-71.3945140">
        <ele>726.4</ele>
        <time>2020-11-15T12:20:25Z</time>
      </trkpt>
      <trkpt lat="-40.1747080" lon="-71.3945470">
        <ele>726.7</ele>
        <time>2020-11-15T12:20:26Z</time>
      </trkpt>
      <trkpt lat="-40.1747240" lon="-71.3945800">
        <ele>726.9</ele>
        <time>2020-11-15T12:20:27Z</time>
      </trkpt>
      <trkpt lat="-40.1747400" lon="-71.3946100">
        <ele>727.1</ele>
        <time>2020-11-15T12:20:28Z</time>
      </trkpt>
      <trkpt lat="-40.1747570" lon="-71.3946410">
        <ele>727.4</ele>
        <time>2020-11-15T12:20:29Z</time>
      </trkpt>
      <trkpt lat="-40.1747750" lon="-71.3946710">
        <ele>727.7</ele>
        <time>2020-11-15T12:20:30Z</time>
      </trkpt>
      <trkpt lat="-40.1747920" lon="-71.3947010">
        <ele>727.9</ele>
        <time>2020-11-15T12:20:31Z</time>
      </trkpt>
      <trkpt lat="-40.1748100" lon="-71.3947310">
        <ele>728.2</ele>
        <time>2020-11-15T12:20:32Z</time>
      </trkpt>
      <trkpt lat="-40.1748290" lon="-71.3947600">
        <ele>728.4</ele>
        <time>2020-11-15T12:20:33Z</time>
      </trkpt>
      <trkpt lat="-40.1748490" lon="-71.3947870">
        <ele>728.7</ele>
        <time>2020-11-15T12:20:34Z</time>
      </trkpt>
      <trkpt lat="-40.1748690" lon="-71.3948120">
        <ele>728.9</ele>
        <time>2020-11-15T12:20:35Z</time>
      </trkpt>
      <trkpt lat="-40.1748890" lon="-71.3948370">
        <ele>729.2</ele>
        <time>2020-11-15T12:20:36Z</time>
      </trkpt>
      <trkpt lat="-40.1749110" lon="-71.3948620">
        <ele>729.4</ele>
        <time>2020-11-15T12:20:37Z</time>
      </trkpt>
      <trkpt lat="-40.1749330" lon="-71.3948870">
        <ele>729.7</ele>
        <time>2020-11-15T12:20:38Z</time>
      </trkpt>
      <trkpt lat="-40.1749560" lon="-71.3949100">
        <ele>729.9</ele>
        <time>2020-11-15T12:20:39Z</time>
      </trkpt>
      <trkpt lat="-40.1749790" lon="-71.3949340">
        <ele>730.1</ele>
        <time>2020-11-15T12:20:40Z</time>
      </trkpt>
      <trkpt lat="-40.1750020" lon="-71.3949560">
        <ele>730.3</ele>
        <time>2020-11-15T12:20:41Z</time>
      </trkpt>
      <trkpt lat="-40.1750240" lon="-71.3949780">
        <ele>730.5</ele>
        <time>2020-11-15T12:20:42Z</time>
      </trkpt>
      <trkpt lat="-40.1750450" lon="-71.3950000">
        <ele>730.7</ele>
        <time>2020-11-15T12:20:43Z</time>
      </trkpt>
      <trkpt lat="-40.1750660" lon="-71.3950210">
        <ele>730.9</ele>
        <time>2020-11-15T12:20:44Z</time>
      </trkpt>
      <trkpt lat="-40.1750880" lon="-71.3950440">
        <ele>731.1</ele>
        <time>2020-11-15T12:20:45Z</time>
      </trkpt>
      <trkpt lat="-40.1751110" lon="-71.3950680">
        <ele>731.4</ele>
        <time>2020-11-15T12:20:46Z</time>
      </trkpt>
      <trkpt lat="-40.1751370" lon="-71.3950900">
        <ele>731.6</ele>
        <time>2020-11-15T12:20:47Z</time>
      </trkpt>
      <trkpt lat="-40.1751630" lon="-71.3951120">
        <ele>731.8</ele>
        <time>2020-11-15T12:20:48Z</time>
      </trkpt>
      <trkpt lat="-40.1751900" lon="-71.3951330">
        <ele>732.1</ele>
        <time>2020-11-15T12:20:48Z</time>
      </trkpt>
      <trkpt lat="-40.1752160" lon="-71.3951560">
        <ele>732.3</ele>
        <time>2020-11-15T12:20:49Z</time>
      </trkpt>
      <trkpt lat="-40.1752430" lon="-71.3951770">
        <ele>732.6</ele>
        <time>2020-11-15T12:20:50Z</time>
      </trkpt>
      <trkpt lat="-40.1752690" lon="-71.3951950">
        <ele>732.8</ele>
        <time>2020-11-15T12:20:51Z</time>
      </trkpt>
      <trkpt lat="-40.1752950" lon="-71.3952100">
        <ele>733.0</ele>
        <time>2020-11-15T12:20:52Z</time>
      </trkpt>
      <trkpt lat="-40.1753200" lon="-71.3952260">
        <ele>733.1</ele>
        <time>2020-11-15T12:20:53Z</time>
      </trkpt>
      <trkpt lat="-40.1753470" lon="-71.3952420">
        <ele>733.3</ele>
        <time>2020-11-15T12:20:54Z</time>
      </trkpt>
      <trkpt lat="-40.1753720" lon="-71.3952580">
        <ele>733.4</ele>
        <time>2020-11-15T12:20:55Z</time>
      </trkpt>
      <trkpt lat="-40.1753980" lon="-71.3952770">
        <ele>733.6</ele>
        <time>2020-11-15T12:20:56Z</time>
      </trkpt>
      <trkpt lat="-40.1754220" lon="-71.3952950">
        <ele>733.7</ele>
        <time>2020-11-15T12:20:57Z</time>
      </trkpt>
      <trkpt lat="-40.1754480" lon="-71.3953130">
        <ele>733.9</ele>
        <time>2020-11-15T12:20:58Z</time>
      </trkpt>
      <trkpt lat="-40.1754730" lon="-71.3953290">
        <ele>734.1</ele>
        <time>2020-11-15T12:20:59Z</time>
      </trkpt>
      <trkpt lat="-40.1754990" lon="-71.3953450">
        <ele>734.3</ele>
        <time>2020-11-15T12:21:00Z</time>
      </trkpt>
      <trkpt lat="-40.1755250" lon="-71.3953580">
        <ele>734.4</ele>
        <time>2020-11-15T12:21:01Z</time>
      </trkpt>
      <trkpt lat="-40.1755520" lon="-71.3953720">
        <ele>734.6</ele>
        <time>2020-11-15T12:21:02Z</time>
      </trkpt>
      <trkpt lat="-40.1756050" lon="-71.3953990">
        <ele>735.0</ele>
        <time>2020-11-15T12:21:04Z</time>
      </trkpt>
      <trkpt lat="-40.1756310" lon="-71.3954130">
        <ele>735.2</ele>
        <time>2020-11-15T12:21:05Z</time>
      </trkpt>
      <trkpt lat="-40.1756550" lon="-71.3954280">
        <ele>735.4</ele>
        <time>2020-11-15T12:21:06Z</time>
      </trkpt>
      <trkpt lat="-40.1756800" lon="-71.3954410">
        <ele>735.6</ele>
        <time>2020-11-15T12:21:07Z</time>
      </trkpt>
      <trkpt lat="-40.1757060" lon="-71.3954560">
        <ele>735.8</ele>
        <time>2020-11-15T12:21:08Z</time>
      </trkpt>
      <trkpt lat="-40.1757310" lon="-71.3954720">
        <ele>736.0</ele>
        <time>2020-11-15T12:21:09Z</time>
      </trkpt>
      <trkpt lat="-40.1757560" lon="-71.3954890">
        <ele>736.2</ele>
        <time>2020-11-15T12:21:10Z</time>
      </trkpt>
      <trkpt lat="-40.1757810" lon="-71.3955060">
        <ele>736.4</ele>
        <time>2020-11-15T12:21:11Z</time>
      </trkpt>
      <trkpt lat="-40.1758050" lon="-71.3955230">
        <ele>736.6</ele>
        <time>2020-11-15T12:21:12Z</time>
      </trkpt>
      <trkpt lat="-40.1758290" lon="-71.3955400">
        <ele>736.8</ele>
        <time>2020-11-15T12:21:13Z</time>
      </trkpt>
      <trkpt lat="-40.1758530" lon="-71.3955570">
        <ele>737.0</ele>
        <time>2020-11-15T12:21:14Z</time>
      </trkpt>
      <trkpt lat="-40.1758770" lon="-71.3955740">
        <ele>737.2</ele>
        <time>2020-11-15T12:21:15Z</time>
      </trkpt>
      <trkpt lat="-40.1759010" lon="-71.3955900">
        <ele>737.4</ele>
        <time>2020-11-15T12:21:16Z</time>
      </trkpt>
      <trkpt lat="-40.1759250" lon="-71.3956070">
        <ele>737.6</ele>
        <time>2020-11-15T12:21:17Z</time>
      </trkpt>
      <trkpt lat="-40.1759500" lon="-71.3956220">
        <ele>737.8</ele>
        <time>2020-11-15T12:21:18Z</time>
      </trkpt>
      <trkpt lat="-40.1759760" lon="-71.3956370">
        <ele>738.1</ele>
        <time>2020-11-15T12:21:19Z</time>
      </trkpt>
      <trkpt lat="-40.1760010" lon="-71.3956500">
        <ele>738.3</ele>
        <time>2020-11-15T12:21:20Z</time>
      </trkpt>
      <trkpt lat="-40.1760260" lon="-71.3956620">
        <ele>738.5</ele>
        <time>2020-11-15T12:21:21Z</time>
      </trkpt>
      <trkpt lat="-40.1760530" lon="-71.3956750">
        <ele>738.7</ele>
        <time>2020-11-15T12:21:22Z</time>
      </trkpt>
      <trkpt lat="-40.1760780" lon="-71.3956900">
        <ele>738.9</ele>
        <time>2020-11-15T12:21:23Z</time>
      </trkpt>
      <trkpt lat="-40.1761040" lon="-71.3957050">
        <ele>739.1</ele>
        <time>2020-11-15T12:21:24Z</time>
      </trkpt>
      <trkpt lat="-40.1761290" lon="-71.3957210">
        <ele>739.4</ele>
        <time>2020-11-15T12:21:25Z</time>
      </trkpt>
      <trkpt lat="-40.1761530" lon="-71.3957370">
        <ele>739.6</ele>
        <time>2020-11-15T12:21:26Z</time>
      </trkpt>
      <trkpt lat="-40.1761800" lon="-71.3957530">
        <ele>739.8</ele>
        <time>2020-11-15T12:21:27Z</time>
      </trkpt>
      <trkpt lat="-40.1762060" lon="-71.3957690">
        <ele>740.1</ele>
        <time>2020-11-15T12:21:28Z</time>
      </trkpt>
      <trkpt lat="-40.1762320" lon="-71.3957830">
        <ele>740.3</ele>
        <time>2020-11-15T12:21:29Z</time>
      </trkpt>
      <trkpt lat="-40.1762580" lon="-71.3957960">
        <ele>740.5</ele>
        <time>2020-11-15T12:21:30Z</time>
      </trkpt>
      <trkpt lat="-40.1762830" lon="-71.3958100">
        <ele>740.8</ele>
        <time>2020-11-15T12:21:31Z</time>
      </trkpt>
      <trkpt lat="-40.1763070" lon="-71.3958240">
        <ele>741.0</ele>
        <time>2020-11-15T12:21:32Z</time>
      </trkpt>
      <trkpt lat="-40.1763320" lon="-71.3958380">
        <ele>741.2</ele>
        <time>2020-11-15T12:21:33Z</time>
      </trkpt>
      <trkpt lat="-40.1763570" lon="-71.3958500">
        <ele>741.5</ele>
        <time>2020-11-15T12:21:34Z</time>
      </trkpt>
      <trkpt lat="-40.1764110" lon="-71.3958740">
        <ele>741.9</ele>
        <time>2020-11-15T12:21:36Z</time>
      </trkpt>
      <trkpt lat="-40.1764380" lon="-71.3958860">
        <ele>742.2</ele>
        <time>2020-11-15T12:21:37Z</time>
      </trkpt>
      <trkpt lat="-40.1764670" lon="-71.3958980">
        <ele>742.4</ele>
        <time>2020-11-15T12:21:38Z</time>
      </trkpt>
      <trkpt lat="-40.1764960" lon="-71.3959110">
        <ele>742.6</ele>
        <time>2020-11-15T12:21:39Z</time>
      </trkpt>
      <trkpt lat="-40.1765260" lon="-71.3959220">
        <ele>742.9</ele>
        <time>2020-11-15T12:21:40Z</time>
      </trkpt>
      <trkpt lat="-40.1765560" lon="-71.3959310">
        <ele>743.1</ele>
        <time>2020-11-15T12:21:41Z</time>
      </trkpt>
      <trkpt lat="-40.1765830" lon="-71.3959360">
        <ele>743.3</ele>
        <time>2020-11-15T12:21:42Z</time>
      </trkpt>
      <trkpt lat="-40.1766100" lon="-71.3959390">
        <ele>743.5</ele>
        <time>2020-11-15T12:21:43Z</time>
      </trkpt>
      <trkpt lat="-40.1766370" lon="-71.3959420">
        <ele>743.7</ele>
        <time>2020-11-15T12:21:44Z</time>
      </trkpt>
      <trkpt lat="-40.1766640" lon="-71.3959450">
        <ele>743.9</ele>
        <time>2020-11-15T12:21:45Z</time>
      </trkpt>
      <trkpt lat="-40.1766910" lon="-71.3959470">
        <ele>744.1</ele>
        <time>2020-11-15T12:21:46Z</time>
      </trkpt>
      <trkpt lat="-40.1767180" lon="-71.3959500">
        <ele>744.3</ele>
        <time>2020-11-15T12:21:47Z</time>
      </trkpt>
      <trkpt lat="-40.1767460" lon="-71.3959530">
        <ele>744.5</ele>
        <time>2020-11-15T12:21:48Z</time>
      </trkpt>
      <trkpt lat="-40.1767760" lon="-71.3959540">
        <ele>744.7</ele>
        <time>2020-11-15T12:21:49Z</time>
      </trkpt>
      <trkpt lat="-40.1768060" lon="-71.3959530">
        <ele>744.9</ele>
        <time>2020-11-15T12:21:50Z</time>
      </trkpt>
      <trkpt lat="-40.1768340" lon="-71.3959510">
        <ele>745.1</ele>
        <time>2020-11-15T12:21:51Z</time>
      </trkpt>
      <trkpt lat="-40.1768600" lon="-71.3959490">
        <ele>745.3</ele>
        <time>2020-11-15T12:21:52Z</time>
      </trkpt>
      <trkpt lat="-40.1768870" lon="-71.3959470">
        <ele>745.5</ele>
        <time>2020-11-15T12:21:53Z</time>
      </trkpt>
      <trkpt lat="-40.1769150" lon="-71.3959450">
        <ele>745.7</ele>
        <time>2020-11-15T12:21:54Z</time>
      </trkpt>
      <trkpt lat="-40.1769430" lon="-71.3959430">
        <ele>745.9</ele>
        <time>2020-11-15T12:21:55Z</time>
      </trkpt>
      <trkpt lat="-40.1769720" lon="-71.3959400">
        <ele>746.1</ele>
        <time>2020-11-15T12:21:56Z</time>
      </trkpt>
      <trkpt lat="-40.1770030" lon="-71.3959380">
        <ele>746.3</ele>
        <time>2020-11-15T12:21:57Z</time>
      </trkpt>
      <trkpt lat="-40.1770630" lon="-71.3959340">
        <ele>746.8</ele>
        <time>2020-11-15T12:21:59Z</time>
      </trkpt>
      <trkpt lat="-40.1770910" lon="-71.3959310">
        <ele>747.0</ele>
        <time>2020-11-15T12:22:00Z</time>
      </trkpt>
      <trkpt lat="-40.1771180" lon="-71.3959270">
        <ele>747.2</ele>
        <time>2020-11-15T12:22:01Z</time>
      </trkpt>
      <trkpt lat="-40.1771450" lon="-71.3959230">
        <ele>747.4</ele>
        <time>2020-11-15T12:22:02Z</time>
      </trkpt>
      <trkpt lat="-40.1771720" lon="-71.3959170">
        <ele>747.5</ele>
        <time>2020-11-15T12:22:03Z</time>
      </trkpt>
      <trkpt lat="-40.1771990" lon="-71.3959110">
        <ele>747.7</ele>
        <time>2020-11-15T12:22:04Z</time>
      </trkpt>
      <trkpt lat="-40.1772250" lon="-71.3959030">
        <ele>747.9</ele>
        <time>2020-11-15T12:22:05Z</time>
      </trkpt>
      <trkpt lat="-40.1772500" lon="-71.3958940">
        <ele>748.1</ele>
        <time>2020-11-15T12:22:06Z</time>
      </trkpt>
      <trkpt lat="-40.1772740" lon="-71.3958860">
        <ele>748.3</ele>
        <time>2020-11-15T12:22:07Z</time>
      </trkpt>
      <trkpt lat="-40.1772980" lon="-71.3958790">
        <ele>748.5</ele>
        <time>2020-11-15T12:22:08Z</time>
      </trkpt>
      <trkpt lat="-40.1773200" lon="-71.3958730">
        <ele>748.6</ele>
        <time>2020-11-15T12:22:09Z</time>
      </trkpt>
      <trkpt lat="-40.1773440" lon="-71.3958680">
        <ele>748.8</ele>
        <time>2020-11-15T12:22:10Z</time>
      </trkpt>
      <trkpt lat="-40.1773680" lon="-71.3958620">
        <ele>749.0</ele>
        <time>2020-11-15T12:22:11Z</time>
      </trkpt>
      <trkpt lat="-40.1773930" lon="-71.3958560">
        <ele>749.1</ele>
        <time>2020-11-15T12:22:12Z</time>
      </trkpt>
      <trkpt lat="-40.1774200" lon="-71.3958500">
        <ele>749.3</ele>
        <time>2020-11-15T12:22:13Z</time>
      </trkpt>
      <trkpt lat="-40.1774460" lon="-71.3958430">
        <ele>749.5</ele>
        <time>2020-11-15T12:22:14Z</time>
      </trkpt>
      <trkpt lat="-40.1774730" lon="-71.3958350">
        <ele>749.7</ele>
        <time>2020-11-15T12:22:15Z</time>
      </trkpt>
      <trkpt lat="-40.1775220" lon="-71.3958200">
        <ele>750.0</ele>
        <time>2020-11-15T12:22:17Z</time>
      </trkpt>
      <trkpt lat="-40.1775460" lon="-71.3958120">
        <ele>750.2</ele>
        <time>2020-11-15T12:22:18Z</time>
      </trkpt>
      <trkpt lat="-40.1775690" lon="-71.3958060">
        <ele>750.4</ele>
        <time>2020-11-15T12:22:19Z</time>
      </trkpt>
      <trkpt lat="-40.1775930" lon="-71.3958000">
        <ele>750.5</ele>
        <time>2020-11-15T12:22:20Z</time>
      </trkpt>
      <trkpt lat="-40.1776180" lon="-71.3957950">
        <ele>750.7</ele>
        <time>2020-11-15T12:22:21Z</time>
      </trkpt>
      <trkpt lat="-40.1776420" lon="-71.3957890">
        <ele>750.9</ele>
        <time>2020-11-15T12:22:22Z</time>
      </trkpt>
      <trkpt lat="-40.1776680" lon="-71.3957830">
        <ele>751.0</ele>
        <time>2020-11-15T12:22:23Z</time>
      </trkpt>
      <trkpt lat="-40.1776930" lon="-71.3957780">
        <ele>751.2</ele>
        <time>2020-11-15T12:22:24Z</time>
      </trkpt>
      <trkpt lat="-40.1777210" lon="-71.3957750">
        <ele>751.3</ele>
        <time>2020-11-15T12:22:25Z</time>
      </trkpt>
      <trkpt lat="-40.1777480" lon="-71.3957740">
        <ele>751.5</ele>
        <time>2020-11-15T12:22:26Z</time>
      </trkpt>
      <trkpt lat="-40.1777750" lon="-71.3957730">
        <ele>751.6</ele>
        <time>2020-11-15T12:22:27Z</time>
      </trkpt>
      <trkpt lat="-40.1778020" lon="-71.3957720">
        <ele>751.8</ele>
        <time>2020-11-15T12:22:28Z</time>
      </trkpt>
      <trkpt lat="-40.1778290" lon="-71.3957700">
        <ele>752.0</ele>
        <time>2020-11-15T12:22:29Z</time>
      </trkpt>
      <trkpt lat="-40.1778550" lon="-71.3957660">
        <ele>752.1</ele>
        <time>2020-11-15T12:22:30Z</time>
      </trkpt>
      <trkpt lat="-40.1778810" lon="-71.3957620">
        <ele>752.3</ele>
        <time>2020-11-15T12:22:31Z</time>
      </trkpt>
      <trkpt lat="-40.1779060" lon="-71.3957560">
        <ele>752.4</ele>
        <time>2020-11-15T12:22:32Z</time>
      </trkpt>
      <trkpt lat="-40.1779330" lon="-71.3957510">
        <ele>752.6</ele>
        <time>2020-11-15T12:22:33Z</time>
      </trkpt>
      <trkpt lat="-40.1779630" lon="-71.3957460">
        <ele>752.8</ele>
        <time>2020-11-15T12:22:34Z</time>
      </trkpt>
      <trkpt lat="-40.1779930" lon="-71.3957430">
        <ele>752.9</ele>
        <time>2020-11-15T12:22:35Z</time>
      </trkpt>
      <trkpt lat="-40.1780250" lon="-71.3957420">
        <ele>753.1</ele>
        <time>2020-11-15T12:22:36Z</time>
      </trkpt>
      <trkpt lat="-40.1780560" lon="-71.3957430">
        <ele>753.3</ele>
        <time>2020-11-15T12:22:37Z</time>
      </trkpt>
      <trkpt lat="-40.1780870" lon="-71.3957440">
        <ele>753.5</ele>
        <time>2020-11-15T12:22:38Z</time>
      </trkpt>
      <trkpt lat="-40.1781160" lon="-71.3957430">
        <ele>753.6</ele>
        <time>2020-11-15T12:22:39Z</time>
      </trkpt>
      <trkpt lat="-40.1781450" lon="-71.3957410">
        <ele>753.8</ele>
        <time>2020-11-15T12:22:40Z</time>
      </trkpt>
      <trkpt lat="-40.1781730" lon="-71.3957380">
        <ele>753.9</ele>
        <time>2020-11-15T12:22:41Z</time>
      </trkpt>
      <trkpt lat="-40.1782000" lon="-71.3957340">
        <ele>754.1</ele>
        <time>2020-11-15T12:22:42Z</time>
      </trkpt>
      <trkpt lat="-40.1782270" lon="-71.3957290">
        <ele>754.2</ele>
        <time>2020-11-15T12:22:44Z</time>
      </trkpt>
      <trkpt lat="-40.1782520" lon="-71.3957250">
        <ele>754.4</ele>
        <time>2020-11-15T12:22:45Z</time>
      </trkpt>
      <trkpt lat="-40.1782780" lon="-71.3957200">
        <ele>754.5</ele>
        <time>2020-11-15T12:22:46Z</time>
      </trkpt>
      <trkpt lat="-40.1783040" lon="-71.3957170">
        <ele>754.7</ele>
        <time>2020-11-15T12:22:47Z</time>
      </trkpt>
      <trkpt lat="-40.1783300" lon="-71.3957180">
        <ele>754.8</ele>
        <time>2020-11-15T12:22:48Z</time>
      </trkpt>
      <trkpt lat="-40.1783560" lon="-71.3957220">
        <ele>755.0</ele>
        <time>2020-11-15T12:22:49Z</time>
      </trkpt>
      <trkpt lat="-40.1783840" lon="-71.3957260">
        <ele>755.2</ele>
        <time>2020-11-15T12:22:50Z</time>
      </trkpt>
      <trkpt lat="-40.1784100" lon="-71.3957250">
        <ele>755.4</ele>
        <time>2020-11-15T12:22:51Z</time>
      </trkpt>
      <trkpt lat="-40.1784360" lon="-71.3957240">
        <ele>755.6</ele>
        <time>2020-11-15T12:22:52Z</time>
      </trkpt>
      <trkpt lat="-40.1784600" lon="-71.3957240">
        <ele>755.8</ele>
        <time>2020-11-15T12:22:53Z</time>
      </trkpt>
      <trkpt lat="-40.1784870" lon="-71.3957230">
        <ele>755.9</ele>
        <time>2020-11-15T12:22:54Z</time>
      </trkpt>
      <trkpt lat="-40.1785130" lon="-71.3957220">
        <ele>756.1</ele>
        <time>2020-11-15T12:22:55Z</time>
      </trkpt>
      <trkpt lat="-40.1785400" lon="-71.3957230">
        <ele>756.3</ele>
        <time>2020-11-15T12:22:56Z</time>
      </trkpt>
      <trkpt lat="-40.1785670" lon="-71.3957250">
        <ele>756.5</ele>
        <time>2020-11-15T12:22:57Z</time>
      </trkpt>
      <trkpt lat="-40.1785940" lon="-71.3957280">
        <ele>756.6</ele>
        <time>2020-11-15T12:22:58Z</time>
      </trkpt>
      <trkpt lat="-40.1786190" lon="-71.3957290">
        <ele>756.8</ele>
        <time>2020-11-15T12:22:59Z</time>
      </trkpt>
      <trkpt lat="-40.1786440" lon="-71.3957300">
        <ele>756.9</ele>
        <time>2020-11-15T12:23:00Z</time>
      </trkpt>
      <trkpt lat="-40.1786720" lon="-71.3957290">
        <ele>757.1</ele>
        <time>2020-11-15T12:23:01Z</time>
      </trkpt>
      <trkpt lat="-40.1787000" lon="-71.3957300">
        <ele>757.2</ele>
        <time>2020-11-15T12:23:02Z</time>
      </trkpt>
      <trkpt lat="-40.1787270" lon="-71.3957320">
        <ele>757.4</ele>
        <time>2020-11-15T12:23:03Z</time>
      </trkpt>
      <trkpt lat="-40.1787540" lon="-71.3957350">
        <ele>757.6</ele>
        <time>2020-11-15T12:23:04Z</time>
      </trkpt>
      <trkpt lat="-40.1787820" lon="-71.3957370">
        <ele>757.7</ele>
        <time>2020-11-15T12:23:05Z</time>
      </trkpt>
      <trkpt lat="-40.1788120" lon="-71.3957400">
        <ele>757.9</ele>
        <time>2020-11-15T12:23:06Z</time>
      </trkpt>
      <trkpt lat="-40.1788410" lon="-71.3957420">
        <ele>758.1</ele>
        <time>2020-11-15T12:23:07Z</time>
      </trkpt>
      <trkpt lat="-40.1788700" lon="-71.3957450">
        <ele>758.3</ele>
        <time>2020-11-15T12:23:08Z</time>
      </trkpt>
      <trkpt lat="-40.1788990" lon="-71.3957480">
        <ele>758.5</ele>
        <time>2020-11-15T12:23:09Z</time>
      </trkpt>
      <trkpt lat="-40.1789280" lon="-71.3957530">
        <ele>758.7</ele>
        <time>2020-11-15T12:23:10Z</time>
      </trkpt>
      <trkpt lat="-40.1789580" lon="-71.3957570">
        <ele>758.8</ele>
        <time>2020-11-15T12:23:11Z</time>
      </trkpt>
      <trkpt lat="-40.1789870" lon="-71.3957610">
        <ele>759.0</ele>
        <time>2020-11-15T12:23:12Z</time>
      </trkpt>
      <trkpt lat="-40.1790170" lon="-71.3957620">
        <ele>759.1</ele>
        <time>2020-11-15T12:23:13Z</time>
      </trkpt>
      <trkpt lat="-40.1790470" lon="-71.3957610">
        <ele>759.3</ele>
        <time>2020-11-15T12:23:14Z</time>
      </trkpt>
      <trkpt lat="-40.1790770" lon="-71.3957580">
        <ele>759.5</ele>
        <time>2020-11-15T12:23:15Z</time>
      </trkpt>
      <trkpt lat="-40.1791070" lon="-71.3957550">
        <ele>759.6</ele>
        <time>2020-11-15T12:23:16Z</time>
      </trkpt>
      <trkpt lat="-40.1791370" lon="-71.3957530">
        <ele>759.8</ele>
        <time>2020-11-15T12:23:17Z</time>
      </trkpt>
      <trkpt lat="-40.1791650" lon="-71.3957510">
        <ele>759.9</ele>
        <time>2020-11-15T12:23:18Z</time>
      </trkpt>
      <trkpt lat="-40.1791940" lon="-71.3957500">
        <ele>760.1</ele>
        <time>2020-11-15T12:23:19Z</time>
      </trkpt>
      <trkpt lat="-40.1792230" lon="-71.3957500">
        <ele>760.2</ele>
        <time>2020-11-15T12:23:20Z</time>
      </trkpt>
      <trkpt lat="-40.1792520" lon="-71.3957500">
        <ele>760.4</ele>
        <time>2020-11-15T12:23:21Z</time>
      </trkpt>
      <trkpt lat="-40.1792810" lon="-71.3957480">
        <ele>760.5</ele>
        <time>2020-11-15T12:23:22Z</time>
      </trkpt>
      <trkpt lat="-40.1793110" lon="-71.3957450">
        <ele>760.7</ele>
        <time>2020-11-15T12:23:23Z</time>
      </trkpt>
      <trkpt lat="-40.1793400" lon="-71.3957400">
        <ele>760.8</ele>
        <time>2020-11-15T12:23:24Z</time>
      </trkpt>
      <trkpt lat="-40.1793690" lon="-71.3957350">
        <ele>761.0</ele>
        <time>2020-11-15T12:23:25Z</time>
      </trkpt>
      <trkpt lat="-40.1793980" lon="-71.3957300">
        <ele>761.1</ele>
        <time>2020-11-15T12:23:26Z</time>
      </trkpt>
      <trkpt lat="-40.1794270" lon="-71.3957220">
        <ele>761.3</ele>
        <time>2020-11-15T12:23:27Z</time>
      </trkpt>
      <trkpt lat="-40.1794540" lon="-71.3957120">
        <ele>761.4</ele>
        <time>2020-11-15T12:23:28Z</time>
      </trkpt>
      <trkpt lat="-40.1794820" lon="-71.3957010">
        <ele>761.6</ele>
        <time>2020-11-15T12:23:29Z</time>
      </trkpt>
      <trkpt lat="-40.1795100" lon="-71.3956880">
        <ele>761.7</ele>
        <time>2020-11-15T12:23:30Z</time>
      </trkpt>
      <trkpt lat="-40.1795370" lon="-71.3956750">
        <ele>761.8</ele>
        <time>2020-11-15T12:23:31Z</time>
      </trkpt>
      <trkpt lat="-40.1795630" lon="-71.3956590">
        <ele>762.0</ele>
        <time>2020-11-15T12:23:32Z</time>
      </trkpt>
      <trkpt lat="-40.1795890" lon="-71.3956440">
        <ele>762.1</ele>
        <time>2020-11-15T12:23:33Z</time>
      </trkpt>
      <trkpt lat="-40.1796150" lon="-71.3956280">
        <ele>762.3</ele>
        <time>2020-11-15T12:23:34Z</time>
      </trkpt>
      <trkpt lat="-40.1796400" lon="-71.3956100">
        <ele>762.4</ele>
        <time>2020-11-15T12:23:35Z</time>
      </trkpt>
      <trkpt lat="-40.1796640" lon="-71.3955910">
        <ele>762.6</ele>
        <time>2020-11-15T12:23:36Z</time>
      </trkpt>
      <trkpt lat="-40.1796890" lon="-71.3955720">
        <ele>762.7</ele>
        <time>2020-11-15T12:23:37Z</time>
      </trkpt>
      <trkpt lat="-40.1797130" lon="-71.3955520">
        <ele>762.8</ele>
        <time>2020-11-15T12:23:38Z</time>
      </trkpt>
      <trkpt lat="-40.1797390" lon="-71.3955330">
        <ele>763.0</ele>
        <time>2020-11-15T12:23:39Z</time>
      </trkpt>
      <trkpt lat="-40.1797650" lon="-71.3955150">
        <ele>763.1</ele>
        <time>2020-11-15T12:23:40Z</time>
      </trkpt>
      <trkpt lat="-40.1797920" lon="-71.3954990">
        <ele>763.2</ele>
        <time>2020-11-15T12:23:41Z</time>
      </trkpt>
      <trkpt lat="-40.1798170" lon="-71.3954820">
        <ele>763.3</ele>
        <time>2020-11-15T12:23:42Z</time>
      </trkpt>
      <trkpt lat="-40.1798420" lon="-71.3954630">
        <ele>763.5</ele>
        <time>2020-11-15T12:23:43Z</time>
      </trkpt>
      <trkpt lat="-40.1798680" lon="-71.3954430">
        <ele>763.6</ele>
        <time>2020-11-15T12:23:44Z</time>
      </trkpt>
      <trkpt lat="-40.1798940" lon="-71.3954240">
        <ele>763.7</ele>
        <time>2020-11-15T12:23:45Z</time>
      </trkpt>
      <trkpt lat="-40.1799210" lon="-71.3954060">
        <ele>763.8</ele>
        <time>2020-11-15T12:23:46Z</time>
      </trkpt>
      <trkpt lat="-40.1799480" lon="-71.3953900">
        <ele>764.0</ele>
        <time>2020-11-15T12:23:47Z</time>
      </trkpt>
      <trkpt lat="-40.1799790" lon="-71.3953770">
        <ele>764.1</ele>
        <time>2020-11-15T12:23:48Z</time>
      </trkpt>
      <trkpt lat="-40.1800100" lon="-71.3953650">
        <ele>764.2</ele>
        <time>2020-11-15T12:23:49Z</time>
      </trkpt>
      <trkpt lat="-40.1800410" lon="-71.3953540">
        <ele>764.3</ele>
        <time>2020-11-15T12:23:50Z</time>
      </trkpt>
      <trkpt lat="-40.1800750" lon="-71.3953470">
        <ele>764.5</ele>
        <time>2020-11-15T12:23:51Z</time>
      </trkpt>
      <trkpt lat="-40.1801110" lon="-71.3953430">
        <ele>764.6</ele>
        <time>2020-11-15T12:23:52Z</time>
      </trkpt>
      <trkpt lat="-40.1801480" lon="-71.3953410">
        <ele>764.8</ele>
        <time>2020-11-15T12:23:53Z</time>
      </trkpt>
      <trkpt lat="-40.1801840" lon="-71.3953380">
        <ele>765.0</ele>
        <time>2020-11-15T12:23:54Z</time>
      </trkpt>
      <trkpt lat="-40.1802190" lon="-71.3953360">
        <ele>765.2</ele>
        <time>2020-11-15T12:23:55Z</time>
      </trkpt>
      <trkpt lat="-40.1802520" lon="-71.3953360">
        <ele>765.3</ele>
        <time>2020-11-15T12:23:56Z</time>
      </trkpt>
      <trkpt lat="-40.1802850" lon="-71.3953370">
        <ele>765.5</ele>
        <time>2020-11-15T12:23:57Z</time>
      </trkpt>
      <trkpt lat="-40.1803170" lon="-71.3953370">
        <ele>765.7</ele>
        <time>2020-11-15T12:23:58Z</time>
      </trkpt>
      <trkpt lat="-40.1803490" lon="-71.3953370">
        <ele>765.9</ele>
        <time>2020-11-15T12:23:59Z</time>
      </trkpt>
      <trkpt lat="-40.1803800" lon="-71.3953370">
        <ele>766.0</ele>
        <time>2020-11-15T12:24:00Z</time>
      </trkpt>
      <trkpt lat="-40.1804090" lon="-71.3953410">
        <ele>766.2</ele>
        <time>2020-11-15T12:24:01Z</time>
      </trkpt>
      <trkpt lat="-40.1804380" lon="-71.3953480">
        <ele>766.3</ele>
        <time>2020-11-15T12:24:02Z</time>
      </trkpt>
      <trkpt lat="-40.1804670" lon="-71.3953580">
        <ele>766.4</ele>
        <time>2020-11-15T12:24:03Z</time>
      </trkpt>
      <trkpt lat="-40.1804950" lon="-71.3953660">
        <ele>766.6</ele>
        <time>2020-11-15T12:24:04Z</time>
      </trkpt>
      <trkpt lat="-40.1805240" lon="-71.3953710">
        <ele>766.7</ele>
        <time>2020-11-15T12:24:05Z</time>
      </trkpt>
      <trkpt lat="-40.1805530" lon="-71.3953740">
        <ele>766.9</ele>
        <time>2020-11-15T12:24:06Z</time>
      </trkpt>
      <trkpt lat="-40.1805820" lon="-71.3953770">
        <ele>767.0</ele>
        <time>2020-11-15T12:24:07Z</time>
      </trkpt>
      <trkpt lat="-40.1806110" lon="-71.3953820">
        <ele>767.2</ele>
        <time>2020-11-15T12:24:08Z</time>
      </trkpt>
      <trkpt lat="-40.1806400" lon="-71.3953880">
        <ele>767.4</ele>
        <time>2020-11-15T12:24:09Z</time>
      </trkpt>
      <trkpt lat="-40.1806700" lon="-71.3953930">
        <ele>767.6</ele>
        <time>2020-11-15T12:24:10Z</time>
      </trkpt>
      <trkpt lat="-40.1806990" lon="-71.3953960">
        <ele>767.8</ele>
        <time>2020-11-15T12:24:11Z</time>
      </trkpt>
      <trkpt lat="-40.1807270" lon="-71.3953990">
        <ele>768.0</ele>
        <time>2020-11-15T12:24:12Z</time>
      </trkpt>
      <trkpt lat="-40.1807540" lon="-71.3953930">
        <ele>768.2</ele>
        <time>2020-11-15T12:24:13Z</time>
      </trkpt>
      <trkpt lat="-40.1807800" lon="-71.3953890">
        <ele>768.3</ele>
        <time>2020-11-15T12:24:14Z</time>
      </trkpt>
      <trkpt lat="-40.1808070" lon="-71.3953890">
        <ele>768.5</ele>
        <time>2020-11-15T12:24:15Z</time>
      </trkpt>
      <trkpt lat="-40.1808340" lon="-71.3953910">
        <ele>768.7</ele>
        <time>2020-11-15T12:24:16Z</time>
      </trkpt>
      <trkpt lat="-40.1808640" lon="-71.3953920">
        <ele>768.9</ele>
        <time>2020-11-15T12:24:17Z</time>
      </trkpt>
      <trkpt lat="-40.1808950" lon="-71.3953930">
        <ele>769.2</ele>
        <time>2020-11-15T12:24:18Z</time>
      </trkpt>
      <trkpt lat="-40.1809270" lon="-71.3953930">
        <ele>769.4</ele>
        <time>2020-11-15T12:24:19Z</time>
      </trkpt>
      <trkpt lat="-40.1809590" lon="-71.3953930">
        <ele>769.6</ele>
        <time>2020-11-15T12:24:20Z</time>
      </trkpt>
      <trkpt lat="-40.1809900" lon="-71.3953930">
        <ele>769.8</ele>
        <time>2020-11-15T12:24:21Z</time>
      </trkpt>
      <trkpt lat="-40.1810210" lon="-71.3953910">
        <ele>770.0</ele>
        <time>2020-11-15T12:24:22Z</time>
      </trkpt>
      <trkpt lat="-40.1810510" lon="-71.3953890">
        <ele>770.2</ele>
        <time>2020-11-15T12:24:23Z</time>
      </trkpt>
      <trkpt lat="-40.1810800" lon="-71.3953830">
        <ele>770.4</ele>
        <time>2020-11-15T12:24:24Z</time>
      </trkpt>
      <trkpt lat="-40.1811090" lon="-71.3953760">
        <ele>770.6</ele>
        <time>2020-11-15T12:24:25Z</time>
      </trkpt>
      <trkpt lat="-40.1811380" lon="-71.3953670">
        <ele>770.8</ele>
        <time>2020-11-15T12:24:26Z</time>
      </trkpt>
      <trkpt lat="-40.1811660" lon="-71.3953570">
        <ele>770.9</ele>
        <time>2020-11-15T12:24:27Z</time>
      </trkpt>
      <trkpt lat="-40.1811900" lon="-71.3953450">
        <ele>771.1</ele>
        <time>2020-11-15T12:24:28Z</time>
      </trkpt>
      <trkpt lat="-40.1812120" lon="-71.3953310">
        <ele>771.3</ele>
        <time>2020-11-15T12:24:29Z</time>
      </trkpt>
      <trkpt lat="-40.1812350" lon="-71.3953150">
        <ele>771.4</ele>
        <time>2020-11-15T12:24:30Z</time>
      </trkpt>
      <trkpt lat="-40.1812590" lon="-71.3952990">
        <ele>771.6</ele>
        <time>2020-11-15T12:24:31Z</time>
      </trkpt>
      <trkpt lat="-40.1812830" lon="-71.3952830">
        <ele>771.8</ele>
        <time>2020-11-15T12:24:32Z</time>
      </trkpt>
      <trkpt lat="-40.1813090" lon="-71.3952660">
        <ele>772.0</ele>
        <time>2020-11-15T12:24:33Z</time>
      </trkpt>
      <trkpt lat="-40.1813340" lon="-71.3952540">
        <ele>772.1</ele>
        <time>2020-11-15T12:24:34Z</time>
      </trkpt>
      <trkpt lat="-40.1813610" lon="-71.3952370">
        <ele>772.3</ele>
        <time>2020-11-15T12:24:35Z</time>
      </trkpt>
      <trkpt lat="-40.1813870" lon="-71.3952210">
        <ele>772.5</ele>
        <time>2020-11-15T12:24:36Z</time>
      </trkpt>
      <trkpt lat="-40.1814130" lon="-71.3952020">
        <ele>772.7</ele>
        <time>2020-11-15T12:24:37Z</time>
      </trkpt>
      <trkpt lat="-40.1814390" lon="-71.3951800">
        <ele>773.0</ele>
        <time>2020-11-15T12:24:38Z</time>
      </trkpt>
      <trkpt lat="-40.1814630" lon="-71.3951570">
        <ele>773.1</ele>
        <time>2020-11-15T12:24:39Z</time>
      </trkpt>
      <trkpt lat="-40.1814860" lon="-71.3951330">
        <ele>773.3</ele>
        <time>2020-11-15T12:24:40Z</time>
      </trkpt>
      <trkpt lat="-40.1815090" lon="-71.3951080">
        <ele>773.5</ele>
        <time>2020-11-15T12:24:41Z</time>
      </trkpt>
      <trkpt lat="-40.1815320" lon="-71.3950800">
        <ele>773.7</ele>
        <time>2020-11-15T12:24:42Z</time>
      </trkpt>
      <trkpt lat="-40.1815550" lon="-71.3950530">
        <ele>773.9</ele>
        <time>2020-11-15T12:24:43Z</time>
      </trkpt>
      <trkpt lat="-40.1815770" lon="-71.3950220">
        <ele>774.1</ele>
        <time>2020-11-15T12:24:44Z</time>
      </trkpt>
      <trkpt lat="-40.1815990" lon="-71.3949890">
        <ele>774.2</ele>
        <time>2020-11-15T12:24:45Z</time>
      </trkpt>
      <trkpt lat="-40.1816200" lon="-71.3949550">
        <ele>774.4</ele>
        <time>2020-11-15T12:24:46Z</time>
      </trkpt>
      <trkpt lat="-40.1816440" lon="-71.3949240">
        <ele>774.6</ele>
        <time>2020-11-15T12:24:47Z</time>
      </trkpt>
      <trkpt lat="-40.1816660" lon="-71.3948910">
        <ele>774.8</ele>
        <time>2020-11-15T12:24:48Z</time>
      </trkpt>
      <trkpt lat="-40.1816860" lon="-71.3948590">
        <ele>774.9</ele>
        <time>2020-11-15T12:24:49Z</time>
      </trkpt>
      <trkpt lat="-40.1817030" lon="-71.3948260">
        <ele>775.1</ele>
        <time>2020-11-15T12:24:50Z</time>
      </trkpt>
      <trkpt lat="-40.1817170" lon="-71.3947920">
        <ele>775.2</ele>
        <time>2020-11-15T12:24:51Z</time>
      </trkpt>
      <trkpt lat="-40.1817280" lon="-71.3947580">
        <ele>775.4</ele>
        <time>2020-11-15T12:24:52Z</time>
      </trkpt>
      <trkpt lat="-40.1817350" lon="-71.3947230">
        <ele>775.5</ele>
        <time>2020-11-15T12:24:53Z</time>
      </trkpt>
      <trkpt lat="-40.1817410" lon="-71.3946850">
        <ele>775.6</ele>
        <time>2020-11-15T12:24:54Z</time>
      </trkpt>
      <trkpt lat="-40.1817500" lon="-71.3946450">
        <ele>775.8</ele>
        <time>2020-11-15T12:24:55Z</time>
      </trkpt>
      <trkpt lat="-40.1817580" lon="-71.3946050">
        <ele>776.0</ele>
        <time>2020-11-15T12:24:56Z</time>
      </trkpt>
      <trkpt lat="-40.1817660" lon="-71.3945670">
        <ele>776.1</ele>
        <time>2020-11-15T12:24:57Z</time>
      </trkpt>
      <trkpt lat="-40.1817800" lon="-71.3945340">
        <ele>776.3</ele>
        <time>2020-11-15T12:24:58Z</time>
      </trkpt>
      <trkpt lat="-40.1817910" lon="-71.3944990">
        <ele>776.4</ele>
        <time>2020-11-15T12:24:59Z</time>
      </trkpt>
      <trkpt lat="-40.1817980" lon="-71.3944650">
        <ele>776.5</ele>
        <time>2020-11-15T12:25:00Z</time>
      </trkpt>
      <trkpt lat="-40.1818020" lon="-71.3944300">
        <ele>776.7</ele>
        <time>2020-11-15T12:25:01Z</time>
      </trkpt>
      <trkpt lat="-40.1818040" lon="-71.3943960">
        <ele>776.8</ele>
        <time>2020-11-15T12:25:02Z</time>
      </trkpt>
      <trkpt lat="-40.1818060" lon="-71.3943610">
        <ele>776.9</ele>
        <time>2020-11-15T12:25:03Z</time>
      </trkpt>
      <trkpt lat="-40.1818080" lon="-71.3943250">
        <ele>777.1</ele>
        <time>2020-11-15T12:25:04Z</time>
      </trkpt>
      <trkpt lat="-40.1818100" lon="-71.3942880">
        <ele>777.2</ele>
        <time>2020-11-15T12:25:04Z</time>
      </trkpt>
      <trkpt lat="-40.1818120" lon="-71.3942500">
        <ele>777.4</ele>
        <time>2020-11-15T12:25:05Z</time>
      </trkpt>
      <trkpt lat="-40.1818190" lon="-71.3942150">
        <ele>777.5</ele>
        <time>2020-11-15T12:25:06Z</time>
      </trkpt>
      <trkpt lat="-40.1818240" lon="-71.3941780">
        <ele>777.7</ele>
        <time>2020-11-15T12:25:07Z</time>
      </trkpt>
      <trkpt lat="-40.1818280" lon="-71.3941370">
        <ele>777.8</ele>
        <time>2020-11-15T12:25:08Z</time>
      </trkpt>
      <trkpt lat="-40.1818300" lon="-71.3940950">
        <ele>778.0</ele>
        <time>2020-11-15T12:25:09Z</time>
      </trkpt>
      <trkpt lat="-40.1818320" lon="-71.3940520">
        <ele>778.2</ele>
        <time>2020-11-15T12:25:10Z</time>
      </trkpt>
      <trkpt lat="-40.1818340" lon="-71.3940070">
        <ele>778.4</ele>
        <time>2020-11-15T12:25:11Z</time>
      </trkpt>
      <trkpt lat="-40.1818350" lon="-71.3939640">
        <ele>778.5</ele>
        <time>2020-11-15T12:25:12Z</time>
      </trkpt>
      <trkpt lat="-40.1818400" lon="-71.3939260">
        <ele>778.7</ele>
        <time>2020-11-15T12:25:13Z</time>
      </trkpt>
      <trkpt lat="-40.1818440" lon="-71.3938860">
        <ele>778.9</ele>
        <time>2020-11-15T12:25:14Z</time>
      </trkpt>
      <trkpt lat="-40.1818460" lon="-71.3938460">
        <ele>779.0</ele>
        <time>2020-11-15T12:25:15Z</time>
      </trkpt>
      <trkpt lat="-40.1818480" lon="-71.3938050">
        <ele>779.2</ele>
        <time>2020-11-15T12:25:16Z</time>
      </trkpt>
      <trkpt lat="-40.1818460" lon="-71.3937690">
        <ele>779.3</ele>
        <time>2020-11-15T12:25:17Z</time>
      </trkpt>
      <trkpt lat="-40.1818430" lon="-71.3937370">
        <ele>779.5</ele>
        <time>2020-11-15T12:25:18Z</time>
      </trkpt>
      <trkpt lat="-40.1818390" lon="-71.3937040">
        <ele>779.6</ele>
        <time>2020-11-15T12:25:19Z</time>
      </trkpt>
      <trkpt lat="-40.1818350" lon="-71.3936520">
        <ele>779.8</ele>
        <time>2020-11-15T12:25:20Z</time>
      </trkpt>
      <trkpt lat="-40.1818320" lon="-71.3936040">
        <ele>780.0</ele>
        <time>2020-11-15T12:25:21Z</time>
      </trkpt>
      <trkpt lat="-40.1818290" lon="-71.3935600">
        <ele>780.2</ele>
        <time>2020-11-15T12:25:22Z</time>
      </trkpt>
      <trkpt lat="-40.1818300" lon="-71.3935240">
        <ele>780.3</ele>
        <time>2020-11-15T12:25:23Z</time>
      </trkpt>
      <trkpt lat="-40.1818300" lon="-71.3934870">
        <ele>780.5</ele>
        <time>2020-11-15T12:25:24Z</time>
      </trkpt>
      <trkpt lat="-40.1818300" lon="-71.3934480">
        <ele>780.6</ele>
        <time>2020-11-15T12:25:25Z</time>
      </trkpt>
      <trkpt lat="-40.1818250" lon="-71.3934020">
        <ele>780.8</ele>
        <time>2020-11-15T12:25:26Z</time>
      </trkpt>
      <trkpt lat="-40.1818170" lon="-71.3933570">
        <ele>780.8</ele>
        <time>2020-11-15T12:25:27Z</time>
      </trkpt>
      <trkpt lat="-40.1818100" lon="-71.3933150">
        <ele>780.9</ele>
        <time>2020-11-15T12:25:28Z</time>
      </trkpt>
      <trkpt lat="-40.1818010" lon="-71.3932730">
        <ele>781.1</ele>
        <time>2020-11-15T12:25:29Z</time>
      </trkpt>
      <trkpt lat="-40.1817990" lon="-71.3932400">
        <ele>781.3</ele>
        <time>2020-11-15T12:25:30Z</time>
      </trkpt>
      <trkpt lat="-40.1817990" lon="-71.3932100">
        <ele>781.4</ele>
        <time>2020-11-15T12:25:31Z</time>
      </trkpt>
      <trkpt lat="-40.1817990" lon="-71.3931820">
        <ele>781.5</ele>
        <time>2020-11-15T12:25:32Z</time>
      </trkpt>
      <trkpt lat="-40.1818000" lon="-71.3931550">
        <ele>781.6</ele>
        <time>2020-11-15T12:25:33Z</time>
      </trkpt>
      <trkpt lat="-40.1817960" lon="-71.3931210">
        <ele>781.8</ele>
        <time>2020-11-15T12:25:34Z</time>
      </trkpt>
      <trkpt lat="-40.1817930" lon="-71.3930900">
        <ele>781.9</ele>
        <time>2020-11-15T12:25:35Z</time>
      </trkpt>
      <trkpt lat="-40.1817880" lon="-71.3930540">
        <ele>782.1</ele>
        <time>2020-11-15T12:25:36Z</time>
      </trkpt>
      <trkpt lat="-40.1817850" lon="-71.3930210">
        <ele>782.2</ele>
        <time>2020-11-15T12:25:37Z</time>
      </trkpt>
      <trkpt lat="-40.1817790" lon="-71.3929880">
        <ele>782.3</ele>
        <time>2020-11-15T12:25:38Z</time>
      </trkpt>
      <trkpt lat="-40.1817700" lon="-71.3929550">
        <ele>782.5</ele>
        <time>2020-11-15T12:25:39Z</time>
      </trkpt>
      <trkpt lat="-40.1817580" lon="-71.3929220">
        <ele>782.6</ele>
        <time>2020-11-15T12:25:40Z</time>
      </trkpt>
      <trkpt lat="-40.1817460" lon="-71.3928890">
        <ele>782.8</ele>
        <time>2020-11-15T12:25:41Z</time>
      </trkpt>
      <trkpt lat="-40.1817320" lon="-71.3928550">
        <ele>782.9</ele>
        <time>2020-11-15T12:25:42Z</time>
      </trkpt>
      <trkpt lat="-40.1817190" lon="-71.3928190">
        <ele>783.1</ele>
        <time>2020-11-15T12:25:43Z</time>
      </trkpt>
      <trkpt lat="-40.1817050" lon="-71.3927830">
        <ele>783.3</ele>
        <time>2020-11-15T12:25:44Z</time>
      </trkpt>
      <trkpt lat="-40.1816900" lon="-71.3927460">
        <ele>783.4</ele>
        <time>2020-11-15T12:25:45Z</time>
      </trkpt>
      <trkpt lat="-40.1816700" lon="-71.3927020">
        <ele>783.6</ele>
        <time>2020-11-15T12:25:46Z</time>
      </trkpt>
      <trkpt lat="-40.1816540" lon="-71.3926610">
        <ele>783.9</ele>
        <time>2020-11-15T12:25:47Z</time>
      </trkpt>
      <trkpt lat="-40.1816390" lon="-71.3926220">
        <ele>784.1</ele>
        <time>2020-11-15T12:25:48Z</time>
      </trkpt>
      <trkpt lat="-40.1816260" lon="-71.3925860">
        <ele>784.3</ele>
        <time>2020-11-15T12:25:49Z</time>
      </trkpt>
      <trkpt lat="-40.1816080" lon="-71.3925520">
        <ele>784.4</ele>
        <time>2020-11-15T12:25:50Z</time>
      </trkpt>
      <trkpt lat="-40.1815850" lon="-71.3925110">
        <ele>784.7</ele>
        <time>2020-11-15T12:25:51Z</time>
      </trkpt>
      <trkpt lat="-40.1815640" lon="-71.3924720">
        <ele>784.9</ele>
        <time>2020-11-15T12:25:52Z</time>
      </trkpt>
      <trkpt lat="-40.1815460" lon="-71.3924350">
        <ele>785.1</ele>
        <time>2020-11-15T12:25:53Z</time>
      </trkpt>
      <trkpt lat="-40.1815290" lon="-71.3924000">
        <ele>785.3</ele>
        <time>2020-11-15T12:25:54Z</time>
      </trkpt>
      <trkpt lat="-40.1815130" lon="-71.3923650">
        <ele>785.5</ele>
        <time>2020-11-15T12:25:55Z</time>
      </trkpt>
      <trkpt lat="-40.1814940" lon="-71.3923230">
        <ele>785.8</ele>
        <time>2020-11-15T12:25:56Z</time>
      </trkpt>
      <trkpt lat="-40.1814760" lon="-71.3922840">
        <ele>786.0</ele>
        <time>2020-11-15T12:25:57Z</time>
      </trkpt>
      <trkpt lat="-40.1814670" lon="-71.3922550">
        <ele>786.1</ele>
        <time>2020-11-15T12:25:58Z</time>
      </trkpt>
      <trkpt lat="-40.1814560" lon="-71.3922240">
        <ele>786.3</ele>
        <time>2020-11-15T12:25:59Z</time>
      </trkpt>
      <trkpt lat="-40.1814410" lon="-71.3921860">
        <ele>786.5</ele>
        <time>2020-11-15T12:26:00Z</time>
      </trkpt>
      <trkpt lat="-40.1814260" lon="-71.3921480">
        <ele>786.7</ele>
        <time>2020-11-15T12:26:01Z</time>
      </trkpt>
      <trkpt lat="-40.1814130" lon="-71.3921100">
        <ele>786.9</ele>
        <time>2020-11-15T12:26:02Z</time>
      </trkpt>
      <trkpt lat="-40.1814010" lon="-71.3920730">
        <ele>787.1</ele>
        <time>2020-11-15T12:26:03Z</time>
      </trkpt>
      <trkpt lat="-40.1813890" lon="-71.3920350">
        <ele>787.3</ele>
        <time>2020-11-15T12:26:04Z</time>
      </trkpt>
      <trkpt lat="-40.1813750" lon="-71.3919900">
        <ele>787.5</ele>
        <time>2020-11-15T12:26:05Z</time>
      </trkpt>
      <trkpt lat="-40.1813600" lon="-71.3919400">
        <ele>787.8</ele>
        <time>2020-11-15T12:26:06Z</time>
      </trkpt>
      <trkpt lat="-40.1813430" lon="-71.3918900">
        <ele>788.0</ele>
        <time>2020-11-15T12:26:07Z</time>
      </trkpt>
      <trkpt lat="-40.1813300" lon="-71.3918440">
        <ele>788.2</ele>
        <time>2020-11-15T12:26:08Z</time>
      </trkpt>
      <trkpt lat="-40.1813180" lon="-71.3918010">
        <ele>788.4</ele>
        <time>2020-11-15T12:26:09Z</time>
      </trkpt>
      <trkpt lat="-40.1813090" lon="-71.3917580">
        <ele>788.6</ele>
        <time>2020-11-15T12:26:10Z</time>
      </trkpt>
      <trkpt lat="-40.1813020" lon="-71.3917170">
        <ele>788.8</ele>
        <time>2020-11-15T12:26:11Z</time>
      </trkpt>
      <trkpt lat="-40.1812950" lon="-71.3916760">
        <ele>789.0</ele>
        <time>2020-11-15T12:26:12Z</time>
      </trkpt>
      <trkpt lat="-40.1812960" lon="-71.3916430">
        <ele>789.1</ele>
        <time>2020-11-15T12:26:13Z</time>
      </trkpt>
      <trkpt lat="-40.1812970" lon="-71.3916060">
        <ele>789.3</ele>
        <time>2020-11-15T12:26:14Z</time>
      </trkpt>
      <trkpt lat="-40.1812970" lon="-71.3915680">
        <ele>789.5</ele>
        <time>2020-11-15T12:26:15Z</time>
      </trkpt>
      <trkpt lat="-40.1812990" lon="-71.3915280">
        <ele>789.6</ele>
        <time>2020-11-15T12:26:16Z</time>
      </trkpt>
      <trkpt lat="-40.1813010" lon="-71.3914870">
        <ele>789.8</ele>
        <time>2020-11-15T12:26:17Z</time>
      </trkpt>
      <trkpt lat="-40.1813030" lon="-71.3914470">
        <ele>790.0</ele>
        <time>2020-11-15T12:26:18Z</time>
      </trkpt>
      <trkpt lat="-40.1813050" lon="-71.3914070">
        <ele>790.1</ele>
        <time>2020-11-15T12:26:19Z</time>
      </trkpt>
      <trkpt lat="-40.1813080" lon="-71.3913660">
        <ele>790.3</ele>
        <time>2020-11-15T12:26:20Z</time>
      </trkpt>
      <trkpt lat="-40.1813110" lon="-71.3913260">
        <ele>790.5</ele>
        <time>2020-11-15T12:26:21Z</time>
      </trkpt>
      <trkpt lat="-40.1813140" lon="-71.3912860">
        <ele>790.6</ele>
        <time>2020-11-15T12:26:22Z</time>
      </trkpt>
      <trkpt lat="-40.1813170" lon="-71.3912450">
        <ele>790.8</ele>
        <time>2020-11-15T12:26:23Z</time>
      </trkpt>
      <trkpt lat="-40.1813200" lon="-71.3912030">
        <ele>791.0</ele>
        <time>2020-11-15T12:26:24Z</time>
      </trkpt>
      <trkpt lat="-40.1813260" lon="-71.3911580">
        <ele>791.1</ele>
        <time>2020-11-15T12:26:25Z</time>
      </trkpt>
      <trkpt lat="-40.1813320" lon="-71.3911150">
        <ele>791.3</ele>
        <time>2020-11-15T12:26:26Z</time>
      </trkpt>
      <trkpt lat="-40.1813400" lon="-71.3910720">
        <ele>791.5</ele>
        <time>2020-11-15T12:26:27Z</time>
      </trkpt>
      <trkpt lat="-40.1813470" lon="-71.3910290">
        <ele>791.7</ele>
        <time>2020-11-15T12:26:28Z</time>
      </trkpt>
      <trkpt lat="-40.1813560" lon="-71.3909830">
        <ele>791.8</ele>
        <time>2020-11-15T12:26:29Z</time>
      </trkpt>
      <trkpt lat="-40.1813640" lon="-71.3909390">
        <ele>792.0</ele>
        <time>2020-11-15T12:26:30Z</time>
      </trkpt>
      <trkpt lat="-40.1813710" lon="-71.3908950">
        <ele>792.2</ele>
        <time>2020-11-15T12:26:31Z</time>
      </trkpt>
      <trkpt lat="-40.1813790" lon="-71.3908530">
        <ele>792.3</ele>
        <time>2020-11-15T12:26:32Z</time>
      </trkpt>
      <trkpt lat="-40.1813860" lon="-71.3908100">
        <ele>792.5</ele>
        <time>2020-11-15T12:26:33Z</time>
      </trkpt>
      <trkpt lat="-40.1813940" lon="-71.3907680">
        <ele>792.6</ele>
        <time>2020-11-15T12:26:34Z</time>
      </trkpt>
      <trkpt lat="-40.1814010" lon="-71.3907260">
        <ele>792.8</ele>
        <time>2020-11-15T12:26:35Z</time>
      </trkpt>
      <trkpt lat="-40.1814080" lon="-71.3906840">
        <ele>792.9</ele>
        <time>2020-11-15T12:26:36Z</time>
      </trkpt>
      <trkpt lat="-40.1814170" lon="-71.3906420">
        <ele>793.1</ele>
        <time>2020-11-15T12:26:37Z</time>
      </trkpt>
      <trkpt lat="-40.1814250" lon="-71.3905990">
        <ele>793.2</ele>
        <time>2020-11-15T12:26:38Z</time>
      </trkpt>
      <trkpt lat="-40.1814340" lon="-71.3905570">
        <ele>793.4</ele>
        <time>2020-11-15T12:26:39Z</time>
      </trkpt>
      <trkpt lat="-40.1814430" lon="-71.3905130">
        <ele>793.6</ele>
        <time>2020-11-15T12:26:40Z</time>
      </trkpt>
      <trkpt lat="-40.1814510" lon="-71.3904710">
        <ele>793.7</ele>
        <time>2020-11-15T12:26:41Z</time>
      </trkpt>
      <trkpt lat="-40.1814620" lon="-71.3904250">
        <ele>793.9</ele>
        <time>2020-11-15T12:26:42Z</time>
      </trkpt>
      <trkpt lat="-40.1814710" lon="-71.3903800">
        <ele>794.0</ele>
        <time>2020-11-15T12:26:43Z</time>
      </trkpt>
      <trkpt lat="-40.1814820" lon="-71.3903320">
        <ele>794.2</ele>
        <time>2020-11-15T12:26:44Z</time>
      </trkpt>
      <trkpt lat="-40.1814910" lon="-71.3902860">
        <ele>794.4</ele>
        <time>2020-11-15T12:26:45Z</time>
      </trkpt>
      <trkpt lat="-40.1815000" lon="-71.3902430">
        <ele>794.6</ele>
        <time>2020-11-15T12:26:46Z</time>
      </trkpt>
      <trkpt lat="-40.1815080" lon="-71.3902000">
        <ele>794.7</ele>
        <time>2020-11-15T12:26:47Z</time>
      </trkpt>
      <trkpt lat="-40.1815160" lon="-71.3901580">
        <ele>794.9</ele>
        <time>2020-11-15T12:26:48Z</time>
      </trkpt>
      <trkpt lat="-40.1815250" lon="-71.3901120">
        <ele>795.1</ele>
        <time>2020-11-15T12:26:49Z</time>
      </trkpt>
      <trkpt lat="-40.1815320" lon="-71.3900670">
        <ele>795.2</ele>
        <time>2020-11-15T12:26:50Z</time>
      </trkpt>
      <trkpt lat="-40.1815390" lon="-71.3900230">
        <ele>795.4</ele>
        <time>2020-11-15T12:26:51Z</time>
      </trkpt>
      <trkpt lat="-40.1815460" lon="-71.3899780">
        <ele>795.6</ele>
        <time>2020-11-15T12:26:52Z</time>
      </trkpt>
      <trkpt lat="-40.1815540" lon="-71.3899350">
        <ele>795.7</ele>
        <time>2020-11-15T12:26:53Z</time>
      </trkpt>
      <trkpt lat="-40.1815630" lon="-71.3898930">
        <ele>795.9</ele>
        <time>2020-11-15T12:26:54Z</time>
      </trkpt>
      <trkpt lat="-40.1815710" lon="-71.3898510">
        <ele>796.0</ele>
        <time>2020-11-15T12:26:55Z</time>
      </trkpt>
      <trkpt lat="-40.1815770" lon="-71.3898100">
        <ele>796.2</ele>
        <time>2020-11-15T12:26:56Z</time>
      </trkpt>
      <trkpt lat="-40.1815830" lon="-71.3897690">
        <ele>796.3</ele>
        <time>2020-11-15T12:26:57Z</time>
      </trkpt>
      <trkpt lat="-40.1815880" lon="-71.3897280">
        <ele>796.5</ele>
        <time>2020-11-15T12:26:58Z</time>
      </trkpt>
      <trkpt lat="-40.1815920" lon="-71.3896860">
        <ele>796.6</ele>
        <time>2020-11-15T12:26:59Z</time>
      </trkpt>
      <trkpt lat="-40.1815950" lon="-71.3896440">
        <ele>796.8</ele>
        <time>2020-11-15T12:27:00Z</time>
      </trkpt>
      <trkpt lat="-40.1815980" lon="-71.3896020">
        <ele>796.9</ele>
        <time>2020-11-15T12:27:01Z</time>
      </trkpt>
      <trkpt lat="-40.1816010" lon="-71.3895590">
        <ele>797.1</ele>
        <time>2020-11-15T12:27:02Z</time>
      </trkpt>
      <trkpt lat="-40.1816030" lon="-71.3895160">
        <ele>797.2</ele>
        <time>2020-11-15T12:27:03Z</time>
      </trkpt>
      <trkpt lat="-40.1816040" lon="-71.3894730">
        <ele>797.4</ele>
        <time>2020-11-15T12:27:04Z</time>
      </trkpt>
      <trkpt lat="-40.1816060" lon="-71.3894300">
        <ele>797.5</ele>
        <time>2020-11-15T12:27:05Z</time>
      </trkpt>
      <trkpt lat="-40.1816070" lon="-71.3893880">
        <ele>797.7</ele>
        <time>2020-11-15T12:27:06Z</time>
      </trkpt>
      <trkpt lat="-40.1816080" lon="-71.3893460">
        <ele>797.8</ele>
        <time>2020-11-15T12:27:07Z</time>
      </trkpt>
      <trkpt lat="-40.1816090" lon="-71.3893030">
        <ele>798.0</ele>
        <time>2020-11-15T12:27:08Z</time>
      </trkpt>
      <trkpt lat="-40.1816090" lon="-71.3892600">
        <ele>798.2</ele>
        <time>2020-11-15T12:27:09Z</time>
      </trkpt>
      <trkpt lat="-40.1816090" lon="-71.3892160">
        <ele>798.3</ele>
        <time>2020-11-15T12:27:10Z</time>
      </trkpt>
      <trkpt lat="-40.1816080" lon="-71.3891720">
        <ele>798.5</ele>
        <time>2020-11-15T12:27:11Z</time>
      </trkpt>
      <trkpt lat="-40.1816090" lon="-71.3891280">
        <ele>798.7</ele>
        <time>2020-11-15T12:27:12Z</time>
      </trkpt>
      <trkpt lat="-40.1816130" lon="-71.3890840">
        <ele>798.8</ele>
        <time>2020-11-15T12:27:13Z</time>
      </trkpt>
      <trkpt lat="-40.1816190" lon="-71.3890430">
        <ele>799.0</ele>
        <time>2020-11-15T12:27:15Z</time>
      </trkpt>
      <trkpt lat="-40.1816270" lon="-71.3890020">
        <ele>799.1</ele>
        <time>2020-11-15T12:27:16Z</time>
      </trkpt>
      <trkpt lat="-40.1816350" lon="-71.3889610">
        <ele>799.3</ele>
        <time>2020-11-15T12:27:17Z</time>
      </trkpt>
      <trkpt lat="-40.1816420" lon="-71.3889210">
        <ele>799.4</ele>
        <time>2020-11-15T12:27:18Z</time>
      </trkpt>
      <trkpt lat="-40.1816490" lon="-71.3888800">
        <ele>799.6</ele>
        <time>2020-11-15T12:27:19Z</time>
      </trkpt>
      <trkpt lat="-40.1816540" lon="-71.3888410">
        <ele>799.7</ele>
        <time>2020-11-15T12:27:20Z</time>
      </trkpt>
      <trkpt lat="-40.1816580" lon="-71.3888020">
        <ele>799.8</ele>
        <time>2020-11-15T12:27:21Z</time>
      </trkpt>
      <trkpt lat="-40.1816620" lon="-71.3887650">
        <ele>800.0</ele>
        <time>2020-11-15T12:27:22Z</time>
      </trkpt>
      <trkpt lat="-40.1816640" lon="-71.3887270">
        <ele>800.1</ele>
        <time>2020-11-15T12:27:23Z</time>
      </trkpt>
      <trkpt lat="-40.1816660" lon="-71.3886890">
        <ele>800.2</ele>
        <time>2020-11-15T12:27:24Z</time>
      </trkpt>
      <trkpt lat="-40.1816670" lon="-71.3886490">
        <ele>800.4</ele>
        <time>2020-11-15T12:27:25Z</time>
      </trkpt>
      <trkpt lat="-40.1816690" lon="-71.3886100">
        <ele>800.5</ele>
        <time>2020-11-15T12:27:26Z</time>
      </trkpt>
      <trkpt lat="-40.1816770" lon="-71.3885330">
        <ele>800.8</ele>
        <time>2020-11-15T12:27:28Z</time>
      </trkpt>
      <trkpt lat="-40.1816820" lon="-71.3884950">
        <ele>800.9</ele>
        <time>2020-11-15T12:27:29Z</time>
      </trkpt>
      <trkpt lat="-40.1816870" lon="-71.3884580">
        <ele>801.0</ele>
        <time>2020-11-15T12:27:30Z</time>
      </trkpt>
      <trkpt lat="-40.1816920" lon="-71.3884210">
        <ele>801.1</ele>
        <time>2020-11-15T12:27:31Z</time>
      </trkpt>
      <trkpt lat="-40.1816980" lon="-71.3883840">
        <ele>801.2</ele>
        <time>2020-11-15T12:27:32Z</time>
      </trkpt>
      <trkpt lat="-40.1817050" lon="-71.3883460">
        <ele>801.3</ele>
        <time>2020-11-15T12:27:33Z</time>
      </trkpt>
      <trkpt lat="-40.1817120" lon="-71.3883090">
        <ele>801.4</ele>
        <time>2020-11-15T12:27:34Z</time>
      </trkpt>
      <trkpt lat="-40.1817190" lon="-71.3882710">
        <ele>801.5</ele>
        <time>2020-11-15T12:27:35Z</time>
      </trkpt>
      <trkpt lat="-40.1817260" lon="-71.3882320">
        <ele>801.6</ele>
        <time>2020-11-15T12:27:36Z</time>
      </trkpt>
      <trkpt lat="-40.1817320" lon="-71.3881930">
        <ele>801.7</ele>
        <time>2020-11-15T12:27:37Z</time>
      </trkpt>
      <trkpt lat="-40.1817400" lon="-71.3881550">
        <ele>801.8</ele>
        <time>2020-11-15T12:27:38Z</time>
      </trkpt>
      <trkpt lat="-40.1817470" lon="-71.3881170">
        <ele>801.8</ele>
        <time>2020-11-15T12:27:39Z</time>
      </trkpt>
      <trkpt lat="-40.1817550" lon="-71.3880800">
        <ele>801.9</ele>
        <time>2020-11-15T12:27:40Z</time>
      </trkpt>
      <trkpt lat="-40.1817650" lon="-71.3880420">
        <ele>802.0</ele>
        <time>2020-11-15T12:27:41Z</time>
      </trkpt>
      <trkpt lat="-40.1817730" lon="-71.3880030">
        <ele>802.1</ele>
        <time>2020-11-15T12:27:42Z</time>
      </trkpt>
      <trkpt lat="-40.1817810" lon="-71.3879630">
        <ele>802.1</ele>
        <time>2020-11-15T12:27:43Z</time>
      </trkpt>
      <trkpt lat="-40.1817890" lon="-71.3879230">
        <ele>802.2</ele>
        <time>2020-11-15T12:27:44Z</time>
      </trkpt>
      <trkpt lat="-40.1817970" lon="-71.3878810">
        <ele>802.3</ele>
        <time>2020-11-15T12:27:45Z</time>
      </trkpt>
      <trkpt lat="-40.1818040" lon="-71.3878390">
        <ele>802.3</ele>
        <time>2020-11-15T12:27:46Z</time>
      </trkpt>
      <trkpt lat="-40.1818020" lon="-71.3877870">
        <ele>802.4</ele>
        <time>2020-11-15T12:27:47Z</time>
      </trkpt>
      <trkpt lat="-40.1818020" lon="-71.3877380">
        <ele>802.5</ele>
        <time>2020-11-15T12:27:48Z</time>
      </trkpt>
      <trkpt lat="-40.1818070" lon="-71.3876430">
        <ele>802.6</ele>
        <time>2020-11-15T12:27:50Z</time>
      </trkpt>
      <trkpt lat="-40.1818130" lon="-71.3875970">
        <ele>802.7</ele>
        <time>2020-11-15T12:27:51Z</time>
      </trkpt>
      <trkpt lat="-40.1818180" lon="-71.3875520">
        <ele>802.8</ele>
        <time>2020-11-15T12:27:52Z</time>
      </trkpt>
      <trkpt lat="-40.1818240" lon="-71.3875070">
        <ele>802.8</ele>
        <time>2020-11-15T12:27:53Z</time>
      </trkpt>
      <trkpt lat="-40.1818290" lon="-71.3874630">
        <ele>802.9</ele>
        <time>2020-11-15T12:27:54Z</time>
      </trkpt>
      <trkpt lat="-40.1818330" lon="-71.3874190">
        <ele>803.0</ele>
        <time>2020-11-15T12:27:55Z</time>
      </trkpt>
      <trkpt lat="-40.1818380" lon="-71.3873740">
        <ele>803.0</ele>
        <time>2020-11-15T12:27:56Z</time>
      </trkpt>
      <trkpt lat="-40.1818450" lon="-71.3873290">
        <ele>803.1</ele>
        <time>2020-11-15T12:27:57Z</time>
      </trkpt>
      <trkpt lat="-40.1818500" lon="-71.3872840">
        <ele>803.2</ele>
        <time>2020-11-15T12:27:58Z</time>
      </trkpt>
      <trkpt lat="-40.1818550" lon="-71.3872390">
        <ele>803.3</ele>
        <time>2020-11-15T12:27:59Z</time>
      </trkpt>
      <trkpt lat="-40.1818580" lon="-71.3871930">
        <ele>803.4</ele>
        <time>2020-11-15T12:28:00Z</time>
      </trkpt>
      <trkpt lat="-40.1818590" lon="-71.3871470">
        <ele>803.5</ele>
        <time>2020-11-15T12:28:01Z</time>
      </trkpt>
      <trkpt lat="-40.1818610" lon="-71.3871010">
        <ele>803.6</ele>
        <time>2020-11-15T12:28:02Z</time>
      </trkpt>
      <trkpt lat="-40.1818640" lon="-71.3870550">
        <ele>803.7</ele>
        <time>2020-11-15T12:28:03Z</time>
      </trkpt>
      <trkpt lat="-40.1818660" lon="-71.3870080">
        <ele>803.8</ele>
        <time>2020-11-15T12:28:04Z</time>
      </trkpt>
      <trkpt lat="-40.1818650" lon="-71.3869500">
        <ele>803.9</ele>
        <time>2020-11-15T12:28:05Z</time>
      </trkpt>
      <trkpt lat="-40.1818680" lon="-71.3868980">
        <ele>804.0</ele>
        <time>2020-11-15T12:28:06Z</time>
      </trkpt>
      <trkpt lat="-40.1818740" lon="-71.3868500">
        <ele>804.1</ele>
        <time>2020-11-15T12:28:07Z</time>
      </trkpt>
      <trkpt lat="-40.1818800" lon="-71.3868040">
        <ele>804.3</ele>
        <time>2020-11-15T12:28:08Z</time>
      </trkpt>
      <trkpt lat="-40.1818870" lon="-71.3867590">
        <ele>804.4</ele>
        <time>2020-11-15T12:28:09Z</time>
      </trkpt>
      <trkpt lat="-40.1818940" lon="-71.3867160">
        <ele>804.5</ele>
        <time>2020-11-15T12:28:10Z</time>
      </trkpt>
      <trkpt lat="-40.1819030" lon="-71.3866730">
        <ele>804.7</ele>
        <time>2020-11-15T12:28:11Z</time>
      </trkpt>
      <trkpt lat="-40.1819110" lon="-71.3866300">
        <ele>804.8</ele>
        <time>2020-11-15T12:28:12Z</time>
      </trkpt>
      <trkpt lat="-40.1819180" lon="-71.3865870">
        <ele>805.0</ele>
        <time>2020-11-15T12:28:13Z</time>
      </trkpt>
      <trkpt lat="-40.1819250" lon="-71.3865450">
        <ele>805.1</ele>
        <time>2020-11-15T12:28:14Z</time>
      </trkpt>
      <trkpt lat="-40.1819310" lon="-71.3865020">
        <ele>805.3</ele>
        <time>2020-11-15T12:28:15Z</time>
      </trkpt>
      <trkpt lat="-40.1819390" lon="-71.3864600">
        <ele>805.4</ele>
        <time>2020-11-15T12:28:16Z</time>
      </trkpt>
      <trkpt lat="-40.1819440" lon="-71.3864160">
        <ele>805.6</ele>
        <time>2020-11-15T12:28:17Z</time>
      </trkpt>
      <trkpt lat="-40.1819480" lon="-71.3863720">
        <ele>805.8</ele>
        <time>2020-11-15T12:28:18Z</time>
      </trkpt>
      <trkpt lat="-40.1819530" lon="-71.3863300">
        <ele>806.0</ele>
        <time>2020-11-15T12:28:19Z</time>
      </trkpt>
      <trkpt lat="-40.1819580" lon="-71.3862870">
        <ele>806.1</ele>
        <time>2020-11-15T12:28:20Z</time>
      </trkpt>
      <trkpt lat="-40.1819620" lon="-71.3862440">
        <ele>806.3</ele>
        <time>2020-11-15T12:28:21Z</time>
      </trkpt>
      <trkpt lat="-40.1819660" lon="-71.3862010">
        <ele>806.5</ele>
        <time>2020-11-15T12:28:22Z</time>
      </trkpt>
      <trkpt lat="-40.1819700" lon="-71.3861590">
        <ele>806.7</ele>
        <time>2020-11-15T12:28:23Z</time>
      </trkpt>
      <trkpt lat="-40.1819740" lon="-71.3861180">
        <ele>806.8</ele>
        <time>2020-11-15T12:28:24Z</time>
      </trkpt>
      <trkpt lat="-40.1819780" lon="-71.3860760">
        <ele>807.0</ele>
        <time>2020-11-15T12:28:25Z</time>
      </trkpt>
      <trkpt lat="-40.1819830" lon="-71.3860350">
        <ele>807.2</ele>
        <time>2020-11-15T12:28:26Z</time>
      </trkpt>
      <trkpt lat="-40.1819880" lon="-71.3859930">
        <ele>807.4</ele>
        <time>2020-11-15T12:28:27Z</time>
      </trkpt>
      <trkpt lat="-40.1819940" lon="-71.3859520">
        <ele>807.5</ele>
        <time>2020-11-15T12:28:28Z</time>
      </trkpt>
      <trkpt lat="-40.1820000" lon="-71.3859110">
        <ele>807.7</ele>
        <time>2020-11-15T12:28:29Z</time>
      </trkpt>
      <trkpt lat="-40.1820060" lon="-71.3858690">
        <ele>807.9</ele>
        <time>2020-11-15T12:28:30Z</time>
      </trkpt>
      <trkpt lat="-40.1820200" lon="-71.3857820">
        <ele>808.3</ele>
        <time>2020-11-15T12:28:32Z</time>
      </trkpt>
      <trkpt lat="-40.1820260" lon="-71.3857380">
        <ele>808.5</ele>
        <time>2020-11-15T12:28:33Z</time>
      </trkpt>
      <trkpt lat="-40.1820340" lon="-71.3856940">
        <ele>808.8</ele>
        <time>2020-11-15T12:28:34Z</time>
      </trkpt>
      <trkpt lat="-40.1820370" lon="-71.3856500">
        <ele>809.0</ele>
        <time>2020-11-15T12:28:35Z</time>
      </trkpt>
      <trkpt lat="-40.1820420" lon="-71.3856060">
        <ele>809.2</ele>
        <time>2020-11-15T12:28:36Z</time>
      </trkpt>
      <trkpt lat="-40.1820540" lon="-71.3855630">
        <ele>809.5</ele>
        <time>2020-11-15T12:28:37Z</time>
      </trkpt>
      <trkpt lat="-40.1820690" lon="-71.3855210">
        <ele>809.7</ele>
        <time>2020-11-15T12:28:38Z</time>
      </trkpt>
      <trkpt lat="-40.1820800" lon="-71.3854790">
        <ele>809.9</ele>
        <time>2020-11-15T12:28:39Z</time>
      </trkpt>
      <trkpt lat="-40.1820910" lon="-71.3854370">
        <ele>810.2</ele>
        <time>2020-11-15T12:28:40Z</time>
      </trkpt>
      <trkpt lat="-40.1821010" lon="-71.3853950">
        <ele>810.4</ele>
        <time>2020-11-15T12:28:41Z</time>
      </trkpt>
      <trkpt lat="-40.1821130" lon="-71.3853540">
        <ele>810.6</ele>
        <time>2020-11-15T12:28:42Z</time>
      </trkpt>
      <trkpt lat="-40.1821250" lon="-71.3853130">
        <ele>810.8</ele>
        <time>2020-11-15T12:28:43Z</time>
      </trkpt>
      <trkpt lat="-40.1821380" lon="-71.3852720">
        <ele>811.0</ele>
        <time>2020-11-15T12:28:44Z</time>
      </trkpt>
      <trkpt lat="-40.1821520" lon="-71.3852320">
        <ele>811.2</ele>
        <time>2020-11-15T12:28:45Z</time>
      </trkpt>
      <trkpt lat="-40.1821660" lon="-71.3851930">
        <ele>811.4</ele>
        <time>2020-11-15T12:28:46Z</time>
      </trkpt>
      <trkpt lat="-40.1821810" lon="-71.3851550">
        <ele>811.6</ele>
        <time>2020-11-15T12:28:47Z</time>
      </trkpt>
      <trkpt lat="-40.1821960" lon="-71.3851170">
        <ele>811.8</ele>
        <time>2020-11-15T12:28:48Z</time>
      </trkpt>
      <trkpt lat="-40.1822110" lon="-71.3850800">
        <ele>812.0</ele>
        <time>2020-11-15T12:28:49Z</time>
      </trkpt>
      <trkpt lat="-40.1822260" lon="-71.3850430">
        <ele>812.2</ele>
        <time>2020-11-15T12:28:50Z</time>
      </trkpt>
      <trkpt lat="-40.1822420" lon="-71.3850060">
        <ele>812.4</ele>
        <time>2020-11-15T12:28:51Z</time>
      </trkpt>
      <trkpt lat="-40.1822590" lon="-71.3849690">
        <ele>812.5</ele>
        <time>2020-11-15T12:28:52Z</time>
      </trkpt>
      <trkpt lat="-40.1822760" lon="-71.3849320">
        <ele>812.7</ele>
        <time>2020-11-15T12:28:53Z</time>
      </trkpt>
      <trkpt lat="-40.1822940" lon="-71.3848970">
        <ele>812.9</ele>
        <time>2020-11-15T12:28:54Z</time>
      </trkpt>
      <trkpt lat="-40.1823130" lon="-71.3848620">
        <ele>813.1</ele>
        <time>2020-11-15T12:28:55Z</time>
      </trkpt>
      <trkpt lat="-40.1823320" lon="-71.3848270">
        <ele>813.3</ele>
        <time>2020-11-15T12:28:56Z</time>
      </trkpt>
      <trkpt lat="-40.1823510" lon="-71.3847930">
        <ele>813.5</ele>
        <time>2020-11-15T12:28:57Z</time>
      </trkpt>
      <trkpt lat="-40.1823710" lon="-71.3847600">
        <ele>813.7</ele>
        <time>2020-11-15T12:28:58Z</time>
      </trkpt>
      <trkpt lat="-40.1823910" lon="-71.3847270">
        <ele>813.8</ele>
        <time>2020-11-15T12:28:59Z</time>
      </trkpt>
      <trkpt lat="-40.1824110" lon="-71.3846940">
        <ele>814.0</ele>
        <time>2020-11-15T12:29:00Z</time>
      </trkpt>
      <trkpt lat="-40.1824320" lon="-71.3846630">
        <ele>814.2</ele>
        <time>2020-11-15T12:29:01Z</time>
      </trkpt>
      <trkpt lat="-40.1824540" lon="-71.3846320">
        <ele>814.4</ele>
        <time>2020-11-15T12:29:02Z</time>
      </trkpt>
      <trkpt lat="-40.1824740" lon="-71.3846100">
        <ele>814.5</ele>
        <time>2020-11-15T12:29:03Z</time>
      </trkpt>
      <trkpt lat="-40.1824970" lon="-71.3845860">
        <ele>814.7</ele>
        <time>2020-11-15T12:29:04Z</time>
      </trkpt>
      <trkpt lat="-40.1825220" lon="-71.3845620">
        <ele>814.9</ele>
        <time>2020-11-15T12:29:05Z</time>
      </trkpt>
      <trkpt lat="-40.1825470" lon="-71.3845360">
        <ele>815.0</ele>
        <time>2020-11-15T12:29:06Z</time>
      </trkpt>
      <trkpt lat="-40.1825720" lon="-71.3845100">
        <ele>815.2</ele>
        <time>2020-11-15T12:29:07Z</time>
      </trkpt>
      <trkpt lat="-40.1825960" lon="-71.3844830">
        <ele>815.4</ele>
        <time>2020-11-15T12:29:08Z</time>
      </trkpt>
      <trkpt lat="-40.1826200" lon="-71.3844560">
        <ele>815.6</ele>
        <time>2020-11-15T12:29:09Z</time>
      </trkpt>
      <trkpt lat="-40.1826450" lon="-71.3844300">
        <ele>815.8</ele>
        <time>2020-11-15T12:29:10Z</time>
      </trkpt>
      <trkpt lat="-40.1826710" lon="-71.3844040">
        <ele>816.0</ele>
        <time>2020-11-15T12:29:11Z</time>
      </trkpt>
      <trkpt lat="-40.1826970" lon="-71.3843780">
        <ele>816.1</ele>
        <time>2020-11-15T12:29:12Z</time>
      </trkpt>
      <trkpt lat="-40.1827230" lon="-71.3843530">
        <ele>816.3</ele>
        <time>2020-11-15T12:29:13Z</time>
      </trkpt>
      <trkpt lat="-40.1827510" lon="-71.3843290">
        <ele>816.5</ele>
        <time>2020-11-15T12:29:14Z</time>
      </trkpt>
      <trkpt lat="-40.1827790" lon="-71.3843060">
        <ele>816.7</ele>
        <time>2020-11-15T12:29:15Z</time>
      </trkpt>
      <trkpt lat="-40.1828060" lon="-71.3842850">
        <ele>816.9</ele>
        <time>2020-11-15T12:29:16Z</time>
      </trkpt>
      <trkpt lat="-40.1828340" lon="-71.3842640">
        <ele>817.1</ele>
        <time>2020-11-15T12:29:17Z</time>
      </trkpt>
      <trkpt lat="-40.1828620" lon="-71.3842440">
        <ele>817.3</ele>
        <time>2020-11-15T12:29:18Z</time>
      </trkpt>
      <trkpt lat="-40.1828910" lon="-71.3842240">
        <ele>817.5</ele>
        <time>2020-11-15T12:29:19Z</time>
      </trkpt>
      <trkpt lat="-40.1829200" lon="-71.3842040">
        <ele>817.7</ele>
        <time>2020-11-15T12:29:20Z</time>
      </trkpt>
      <trkpt lat="-40.1829490" lon="-71.3841870">
        <ele>817.9</ele>
        <time>2020-11-15T12:29:20Z</time>
      </trkpt>
      <trkpt lat="-40.1829780" lon="-71.3841690">
        <ele>818.1</ele>
        <time>2020-11-15T12:29:21Z</time>
      </trkpt>
      <trkpt lat="-40.1830060" lon="-71.3841520">
        <ele>818.3</ele>
        <time>2020-11-15T12:29:22Z</time>
      </trkpt>
      <trkpt lat="-40.1830350" lon="-71.3841360">
        <ele>818.5</ele>
        <time>2020-11-15T12:29:23Z</time>
      </trkpt>
      <trkpt lat="-40.1830640" lon="-71.3841180">
        <ele>818.7</ele>
        <time>2020-11-15T12:29:24Z</time>
      </trkpt>
      <trkpt lat="-40.1830940" lon="-71.3841010">
        <ele>818.9</ele>
        <time>2020-11-15T12:29:25Z</time>
      </trkpt>
      <trkpt lat="-40.1831240" lon="-71.3840850">
        <ele>819.1</ele>
        <time>2020-11-15T12:29:26Z</time>
      </trkpt>
      <trkpt lat="-40.1831540" lon="-71.3840700">
        <ele>819.3</ele>
        <time>2020-11-15T12:29:27Z</time>
      </trkpt>
      <trkpt lat="-40.1831850" lon="-71.3840580">
        <ele>819.5</ele>
        <time>2020-11-15T12:29:28Z</time>
      </trkpt>
      <trkpt lat="-40.1832150" lon="-71.3840460">
        <ele>819.7</ele>
        <time>2020-11-15T12:29:29Z</time>
      </trkpt>
      <trkpt lat="-40.1832460" lon="-71.3840350">
        <ele>819.9</ele>
        <time>2020-11-15T12:29:30Z</time>
      </trkpt>
      <trkpt lat="-40.1832770" lon="-71.3840250">
        <ele>820.0</ele>
        <time>2020-11-15T12:29:31Z</time>
      </trkpt>
      <trkpt lat="-40.1833080" lon="-71.3840170">
        <ele>820.2</ele>
        <time>2020-11-15T12:29:32Z</time>
      </trkpt>
      <trkpt lat="-40.1833470" lon="-71.3840080">
        <ele>820.5</ele>
        <time>2020-11-15T12:29:34Z</time>
      </trkpt>
      <trkpt lat="-40.1833840" lon="-71.3840000">
        <ele>820.7</ele>
        <time>2020-11-15T12:29:35Z</time>
      </trkpt>
      <trkpt lat="-40.1834280" lon="-71.3839940">
        <ele>821.0</ele>
        <time>2020-11-15T12:29:36Z</time>
      </trkpt>
      <trkpt lat="-40.1834590" lon="-71.3839860">
        <ele>821.2</ele>
        <time>2020-11-15T12:29:37Z</time>
      </trkpt>
      <trkpt lat="-40.1834900" lon="-71.3839780">
        <ele>821.4</ele>
        <time>2020-11-15T12:29:38Z</time>
      </trkpt>
      <trkpt lat="-40.1835190" lon="-71.3839700">
        <ele>821.5</ele>
        <time>2020-11-15T12:29:39Z</time>
      </trkpt>
      <trkpt lat="-40.1835480" lon="-71.3839640">
        <ele>821.7</ele>
        <time>2020-11-15T12:29:40Z</time>
      </trkpt>
      <trkpt lat="-40.1835770" lon="-71.3839560">
        <ele>821.9</ele>
        <time>2020-11-15T12:29:41Z</time>
      </trkpt>
      <trkpt lat="-40.1836070" lon="-71.3839500">
        <ele>822.1</ele>
        <time>2020-11-15T12:29:42Z</time>
      </trkpt>
      <trkpt lat="-40.1836370" lon="-71.3839450">
        <ele>822.3</ele>
        <time>2020-11-15T12:29:43Z</time>
      </trkpt>
      <trkpt lat="-40.1836670" lon="-71.3839400">
        <ele>822.4</ele>
        <time>2020-11-15T12:29:44Z</time>
      </trkpt>
      <trkpt lat="-40.1836960" lon="-71.3839340">
        <ele>822.6</ele>
        <time>2020-11-15T12:29:45Z</time>
      </trkpt>
      <trkpt lat="-40.1837250" lon="-71.3839290">
        <ele>822.8</ele>
        <time>2020-11-15T12:29:46Z</time>
      </trkpt>
      <trkpt lat="-40.1837530" lon="-71.3839240">
        <ele>823.0</ele>
        <time>2020-11-15T12:29:47Z</time>
      </trkpt>
      <trkpt lat="-40.1837810" lon="-71.3839210">
        <ele>823.1</ele>
        <time>2020-11-15T12:29:48Z</time>
      </trkpt>
      <trkpt lat="-40.1838100" lon="-71.3839180">
        <ele>823.3</ele>
        <time>2020-11-15T12:29:49Z</time>
      </trkpt>
      <trkpt lat="-40.1838410" lon="-71.3839170">
        <ele>823.4</ele>
        <time>2020-11-15T12:29:50Z</time>
      </trkpt>
      <trkpt lat="-40.1838670" lon="-71.3839100">
        <ele>823.6</ele>
        <time>2020-11-15T12:29:51Z</time>
      </trkpt>
      <trkpt lat="-40.1838970" lon="-71.3839030">
        <ele>823.8</ele>
        <time>2020-11-15T12:29:52Z</time>
      </trkpt>
      <trkpt lat="-40.1839290" lon="-71.3838950">
        <ele>823.9</ele>
        <time>2020-11-15T12:29:53Z</time>
      </trkpt>
      <trkpt lat="-40.1839610" lon="-71.3838880">
        <ele>824.1</ele>
        <time>2020-11-15T12:29:54Z</time>
      </trkpt>
      <trkpt lat="-40.1839910" lon="-71.3838820">
        <ele>824.3</ele>
        <time>2020-11-15T12:29:55Z</time>
      </trkpt>
      <trkpt lat="-40.1840230" lon="-71.3838750">
        <ele>824.5</ele>
        <time>2020-11-15T12:29:56Z</time>
      </trkpt>
      <trkpt lat="-40.1840530" lon="-71.3838700">
        <ele>824.6</ele>
        <time>2020-11-15T12:29:57Z</time>
      </trkpt>
      <trkpt lat="-40.1840830" lon="-71.3838640">
        <ele>824.8</ele>
        <time>2020-11-15T12:29:58Z</time>
      </trkpt>
      <trkpt lat="-40.1841140" lon="-71.3838580">
        <ele>825.0</ele>
        <time>2020-11-15T12:29:59Z</time>
      </trkpt>
      <trkpt lat="-40.1841450" lon="-71.3838530">
        <ele>825.1</ele>
        <time>2020-11-15T12:30:00Z</time>
      </trkpt>
      <trkpt lat="-40.1841760" lon="-71.3838490">
        <ele>825.3</ele>
        <time>2020-11-15T12:30:01Z</time>
      </trkpt>
      <trkpt lat="-40.1842070" lon="-71.3838440">
        <ele>825.5</ele>
        <time>2020-11-15T12:30:02Z</time>
      </trkpt>
      <trkpt lat="-40.1842370" lon="-71.3838400">
        <ele>825.6</ele>
        <time>2020-11-15T12:30:03Z</time>
      </trkpt>
      <trkpt lat="-40.1842720" lon="-71.3838360">
        <ele>825.8</ele>
        <time>2020-11-15T12:30:04Z</time>
      </trkpt>
      <trkpt lat="-40.1843040" lon="-71.3838320">
        <ele>826.0</ele>
        <time>2020-11-15T12:30:05Z</time>
      </trkpt>
      <trkpt lat="-40.1843360" lon="-71.3838280">
        <ele>826.2</ele>
        <time>2020-11-15T12:30:06Z</time>
      </trkpt>
      <trkpt lat="-40.1843650" lon="-71.3838250">
        <ele>826.3</ele>
        <time>2020-11-15T12:30:07Z</time>
      </trkpt>
      <trkpt lat="-40.1843950" lon="-71.3838220">
        <ele>826.5</ele>
        <time>2020-11-15T12:30:08Z</time>
      </trkpt>
      <trkpt lat="-40.1844230" lon="-71.3838200">
        <ele>826.7</ele>
        <time>2020-11-15T12:30:09Z</time>
      </trkpt>
      <trkpt lat="-40.1844510" lon="-71.3838180">
        <ele>826.8</ele>
        <time>2020-11-15T12:30:10Z</time>
      </trkpt>
      <trkpt lat="-40.1844720" lon="-71.3838140">
        <ele>827.0</ele>
        <time>2020-11-15T12:30:11Z</time>
      </trkpt>
      <trkpt lat="-40.1845020" lon="-71.3838120">
        <ele>827.1</ele>
        <time>2020-11-15T12:30:12Z</time>
      </trkpt>
      <trkpt lat="-40.1845330" lon="-71.3838110">
        <ele>827.3</ele>
        <time>2020-11-15T12:30:13Z</time>
      </trkpt>
      <trkpt lat="-40.1845630" lon="-71.3838090">
        <ele>827.5</ele>
        <time>2020-11-15T12:30:14Z</time>
      </trkpt>
      <trkpt lat="-40.1845920" lon="-71.3838080">
        <ele>827.6</ele>
        <time>2020-11-15T12:30:15Z</time>
      </trkpt>
      <trkpt lat="-40.1846210" lon="-71.3838070">
        <ele>827.8</ele>
        <time>2020-11-15T12:30:16Z</time>
      </trkpt>
      <trkpt lat="-40.1846510" lon="-71.3838050">
        <ele>828.0</ele>
        <time>2020-11-15T12:30:17Z</time>
      </trkpt>
      <trkpt lat="-40.1846830" lon="-71.3838030">
        <ele>828.1</ele>
        <time>2020-11-15T12:30:18Z</time>
      </trkpt>
      <trkpt lat="-40.1847130" lon="-71.3837990">
        <ele>828.3</ele>
        <time>2020-11-15T12:30:19Z</time>
      </trkpt>
      <trkpt lat="-40.1847440" lon="-71.3837950">
        <ele>828.5</ele>
        <time>2020-11-15T12:30:20Z</time>
      </trkpt>
      <trkpt lat="-40.1847740" lon="-71.3837900">
        <ele>828.6</ele>
        <time>2020-11-15T12:30:21Z</time>
      </trkpt>
      <trkpt lat="-40.1848040" lon="-71.3837870">
        <ele>828.8</ele>
        <time>2020-11-15T12:30:22Z</time>
      </trkpt>
      <trkpt lat="-40.1848360" lon="-71.3837850">
        <ele>829.0</ele>
        <time>2020-11-15T12:30:23Z</time>
      </trkpt>
      <trkpt lat="-40.1848680" lon="-71.3837810">
        <ele>829.1</ele>
        <time>2020-11-15T12:30:24Z</time>
      </trkpt>
      <trkpt lat="-40.1848920" lon="-71.3837710">
        <ele>829.3</ele>
        <time>2020-11-15T12:30:25Z</time>
      </trkpt>
      <trkpt lat="-40.1849190" lon="-71.3837590">
        <ele>829.4</ele>
        <time>2020-11-15T12:30:26Z</time>
      </trkpt>
      <trkpt lat="-40.1849470" lon="-71.3837460">
        <ele>829.6</ele>
        <time>2020-11-15T12:30:27Z</time>
      </trkpt>
      <trkpt lat="-40.1849800" lon="-71.3837320">
        <ele>829.8</ele>
        <time>2020-11-15T12:30:28Z</time>
      </trkpt>
      <trkpt lat="-40.1850150" lon="-71.3837200">
        <ele>830.0</ele>
        <time>2020-11-15T12:30:29Z</time>
      </trkpt>
      <trkpt lat="-40.1850490" lon="-71.3837090">
        <ele>830.2</ele>
        <time>2020-11-15T12:30:30Z</time>
      </trkpt>
      <trkpt lat="-40.1850830" lon="-71.3836990">
        <ele>830.4</ele>
        <time>2020-11-15T12:30:31Z</time>
      </trkpt>
      <trkpt lat="-40.1851240" lon="-71.3836920">
        <ele>830.6</ele>
        <time>2020-11-15T12:30:32Z</time>
      </trkpt>
      <trkpt lat="-40.1851620" lon="-71.3836870">
        <ele>830.9</ele>
        <time>2020-11-15T12:30:33Z</time>
      </trkpt>
      <trkpt lat="-40.1851990" lon="-71.3836820">
        <ele>831.1</ele>
        <time>2020-11-15T12:30:34Z</time>
      </trkpt>
      <trkpt lat="-40.1852330" lon="-71.3836770">
        <ele>831.3</ele>
        <time>2020-11-15T12:30:35Z</time>
      </trkpt>
      <trkpt lat="-40.1852660" lon="-71.3836730">
        <ele>831.5</ele>
        <time>2020-11-15T12:30:36Z</time>
      </trkpt>
      <trkpt lat="-40.1852970" lon="-71.3836660">
        <ele>831.8</ele>
        <time>2020-11-15T12:30:37Z</time>
      </trkpt>
      <trkpt lat="-40.1853270" lon="-71.3836580">
        <ele>832.0</ele>
        <time>2020-11-15T12:30:38Z</time>
      </trkpt>
      <trkpt lat="-40.1853570" lon="-71.3836500">
        <ele>832.1</ele>
        <time>2020-11-15T12:30:39Z</time>
      </trkpt>
      <trkpt lat="-40.1853870" lon="-71.3836410">
        <ele>832.3</ele>
        <time>2020-11-15T12:30:40Z</time>
      </trkpt>
      <trkpt lat="-40.1854160" lon="-71.3836310">
        <ele>832.5</ele>
        <time>2020-11-15T12:30:41Z</time>
      </trkpt>
      <trkpt lat="-40.1854450" lon="-71.3836210">
        <ele>832.7</ele>
        <time>2020-11-15T12:30:42Z</time>
      </trkpt>
      <trkpt lat="-40.1854730" lon="-71.3836090">
        <ele>832.8</ele>
        <time>2020-11-15T12:30:43Z</time>
      </trkpt>
      <trkpt lat="-40.1855010" lon="-71.3835980">
        <ele>833.0</ele>
        <time>2020-11-15T12:30:44Z</time>
      </trkpt>
      <trkpt lat="-40.1855290" lon="-71.3835870">
        <ele>833.2</ele>
        <time>2020-11-15T12:30:45Z</time>
      </trkpt>
      <trkpt lat="-40.1855560" lon="-71.3835740">
        <ele>833.3</ele>
        <time>2020-11-15T12:30:46Z</time>
      </trkpt>
      <trkpt lat="-40.1855830" lon="-71.3835610">
        <ele>833.5</ele>
        <time>2020-11-15T12:30:47Z</time>
      </trkpt>
      <trkpt lat="-40.1856100" lon="-71.3835490">
        <ele>833.6</ele>
        <time>2020-11-15T12:30:48Z</time>
      </trkpt>
      <trkpt lat="-40.1856380" lon="-71.3835360">
        <ele>833.8</ele>
        <time>2020-11-15T12:30:49Z</time>
      </trkpt>
      <trkpt lat="-40.1856670" lon="-71.3835230">
        <ele>834.0</ele>
        <time>2020-11-15T12:30:50Z</time>
      </trkpt>
      <trkpt lat="-40.1856950" lon="-71.3835110">
        <ele>834.2</ele>
        <time>2020-11-15T12:30:51Z</time>
      </trkpt>
      <trkpt lat="-40.1857240" lon="-71.3834980">
        <ele>834.4</ele>
        <time>2020-11-15T12:30:52Z</time>
      </trkpt>
      <trkpt lat="-40.1857530" lon="-71.3834850">
        <ele>834.6</ele>
        <time>2020-11-15T12:30:53Z</time>
      </trkpt>
      <trkpt lat="-40.1857820" lon="-71.3834730">
        <ele>834.8</ele>
        <time>2020-11-15T12:30:54Z</time>
      </trkpt>
      <trkpt lat="-40.1858110" lon="-71.3834600">
        <ele>834.9</ele>
        <time>2020-11-15T12:30:55Z</time>
      </trkpt>
      <trkpt lat="-40.1858410" lon="-71.3834470">
        <ele>835.1</ele>
        <time>2020-11-15T12:30:56Z</time>
      </trkpt>
      <trkpt lat="-40.1858710" lon="-71.3834330">
        <ele>835.3</ele>
        <time>2020-11-15T12:30:57Z</time>
      </trkpt>
      <trkpt lat="-40.1859000" lon="-71.3834180">
        <ele>835.5</ele>
        <time>2020-11-15T12:30:58Z</time>
      </trkpt>
      <trkpt lat="-40.1859290" lon="-71.3834030">
        <ele>835.7</ele>
        <time>2020-11-15T12:30:59Z</time>
      </trkpt>
      <trkpt lat="-40.1859590" lon="-71.3833830">
        <ele>835.9</ele>
        <time>2020-11-15T12:31:00Z</time>
      </trkpt>
      <trkpt lat="-40.1859900" lon="-71.3833680">
        <ele>836.1</ele>
        <time>2020-11-15T12:31:01Z</time>
      </trkpt>
      <trkpt lat="-40.1860210" lon="-71.3833530">
        <ele>836.3</ele>
        <time>2020-11-15T12:31:02Z</time>
      </trkpt>
      <trkpt lat="-40.1860510" lon="-71.3833390">
        <ele>836.4</ele>
        <time>2020-11-15T12:31:03Z</time>
      </trkpt>
      <trkpt lat="-40.1860800" lon="-71.3833240">
        <ele>836.6</ele>
        <time>2020-11-15T12:31:04Z</time>
      </trkpt>
      <trkpt lat="-40.1861080" lon="-71.3833090">
        <ele>836.8</ele>
        <time>2020-11-15T12:31:05Z</time>
      </trkpt>
      <trkpt lat="-40.1861370" lon="-71.3832930">
        <ele>836.9</ele>
        <time>2020-11-15T12:31:06Z</time>
      </trkpt>
      <trkpt lat="-40.1861660" lon="-71.3832770">
        <ele>837.1</ele>
        <time>2020-11-15T12:31:07Z</time>
      </trkpt>
      <trkpt lat="-40.1861940" lon="-71.3832620">
        <ele>837.3</ele>
        <time>2020-11-15T12:31:08Z</time>
      </trkpt>
      <trkpt lat="-40.1862210" lon="-71.3832450">
        <ele>837.5</ele>
        <time>2020-11-15T12:31:09Z</time>
      </trkpt>
      <trkpt lat="-40.1862470" lon="-71.3832270">
        <ele>837.6</ele>
        <time>2020-11-15T12:31:10Z</time>
      </trkpt>
      <trkpt lat="-40.1862730" lon="-71.3832090">
        <ele>837.8</ele>
        <time>2020-11-15T12:31:11Z</time>
      </trkpt>
      <trkpt lat="-40.1863000" lon="-71.3831920">
        <ele>838.0</ele>
        <time>2020-11-15T12:31:12Z</time>
      </trkpt>
      <trkpt lat="-40.1863250" lon="-71.3831820">
        <ele>838.2</ele>
        <time>2020-11-15T12:31:13Z</time>
      </trkpt>
      <trkpt lat="-40.1863500" lon="-71.3831750">
        <ele>838.3</ele>
        <time>2020-11-15T12:31:14Z</time>
      </trkpt>
      <trkpt lat="-40.1863750" lon="-71.3831650">
        <ele>838.5</ele>
        <time>2020-11-15T12:31:15Z</time>
      </trkpt>
      <trkpt lat="-40.1864030" lon="-71.3831510">
        <ele>838.6</ele>
        <time>2020-11-15T12:31:16Z</time>
      </trkpt>
      <trkpt lat="-40.1864310" lon="-71.3831420">
        <ele>838.8</ele>
        <time>2020-11-15T12:31:17Z</time>
      </trkpt>
      <trkpt lat="-40.1864590" lon="-71.3831210">
        <ele>839.0</ele>
        <time>2020-11-15T12:31:18Z</time>
      </trkpt>
      <trkpt lat="-40.1864900" lon="-71.3831030">
        <ele>839.1</ele>
        <time>2020-11-15T12:31:19Z</time>
      </trkpt>
      <trkpt lat="-40.1865210" lon="-71.3830880">
        <ele>839.3</ele>
        <time>2020-11-15T12:31:20Z</time>
      </trkpt>
      <trkpt lat="-40.1865520" lon="-71.3830750">
        <ele>839.5</ele>
        <time>2020-11-15T12:31:21Z</time>
      </trkpt>
      <trkpt lat="-40.1865830" lon="-71.3830630">
        <ele>839.7</ele>
        <time>2020-11-15T12:31:22Z</time>
      </trkpt>
      <trkpt lat="-40.1866130" lon="-71.3830530">
        <ele>839.9</ele>
        <time>2020-11-15T12:31:23Z</time>
      </trkpt>
      <trkpt lat="-40.1866440" lon="-71.3830450">
        <ele>840.0</ele>
        <time>2020-11-15T12:31:24Z</time>
      </trkpt>
      <trkpt lat="-40.1866820" lon="-71.3830420">
        <ele>840.3</ele>
        <time>2020-11-15T12:31:25Z</time>
      </trkpt>
      <trkpt lat="-40.1867180" lon="-71.3830400">
        <ele>840.5</ele>
        <time>2020-11-15T12:31:26Z</time>
      </trkpt>
      <trkpt lat="-40.1867520" lon="-71.3830380">
        <ele>840.8</ele>
        <time>2020-11-15T12:31:27Z</time>
      </trkpt>
      <trkpt lat="-40.1867840" lon="-71.3830320">
        <ele>841.0</ele>
        <time>2020-11-15T12:31:28Z</time>
      </trkpt>
      <trkpt lat="-40.1868160" lon="-71.3830240">
        <ele>841.2</ele>
        <time>2020-11-15T12:31:29Z</time>
      </trkpt>
      <trkpt lat="-40.1868440" lon="-71.3830150">
        <ele>841.4</ele>
        <time>2020-11-15T12:31:30Z</time>
      </trkpt>
      <trkpt lat="-40.1868720" lon="-71.3830050">
        <ele>841.6</ele>
        <time>2020-11-15T12:31:31Z</time>
      </trkpt>
      <trkpt lat="-40.1869010" lon="-71.3829950">
        <ele>841.7</ele>
        <time>2020-11-15T12:31:32Z</time>
      </trkpt>
      <trkpt lat="-40.1869310" lon="-71.3829860">
        <ele>841.9</ele>
        <time>2020-11-15T12:31:33Z</time>
      </trkpt>
      <trkpt lat="-40.1869620" lon="-71.3829790">
        <ele>842.0</ele>
        <time>2020-11-15T12:31:34Z</time>
      </trkpt>
      <trkpt lat="-40.1869940" lon="-71.3829740">
        <ele>842.2</ele>
        <time>2020-11-15T12:31:35Z</time>
      </trkpt>
      <trkpt lat="-40.1870270" lon="-71.3829670">
        <ele>842.4</ele>
        <time>2020-11-15T12:31:36Z</time>
      </trkpt>
      <trkpt lat="-40.1870590" lon="-71.3829610">
        <ele>842.5</ele>
        <time>2020-11-15T12:31:37Z</time>
      </trkpt>
      <trkpt lat="-40.1870890" lon="-71.3829550">
        <ele>842.7</ele>
        <time>2020-11-15T12:31:38Z</time>
      </trkpt>
      <trkpt lat="-40.1871130" lon="-71.3829490">
        <ele>842.8</ele>
        <time>2020-11-15T12:31:39Z</time>
      </trkpt>
      <trkpt lat="-40.1871400" lon="-71.3829430">
        <ele>842.9</ele>
        <time>2020-11-15T12:31:40Z</time>
      </trkpt>
      <trkpt lat="-40.1871700" lon="-71.3829370">
        <ele>843.1</ele>
        <time>2020-11-15T12:31:41Z</time>
      </trkpt>
      <trkpt lat="-40.1872020" lon="-71.3829320">
        <ele>843.3</ele>
        <time>2020-11-15T12:31:42Z</time>
      </trkpt>
      <trkpt lat="-40.1872350" lon="-71.3829260">
        <ele>843.5</ele>
        <time>2020-11-15T12:31:43Z</time>
      </trkpt>
      <trkpt lat="-40.1872680" lon="-71.3829170">
        <ele>843.7</ele>
        <time>2020-11-15T12:31:45Z</time>
      </trkpt>
      <trkpt lat="-40.1873000" lon="-71.3829080">
        <ele>843.9</ele>
        <time>2020-11-15T12:31:46Z</time>
      </trkpt>
      <trkpt lat="-40.1873320" lon="-71.3828970">
        <ele>844.1</ele>
        <time>2020-11-15T12:31:47Z</time>
      </trkpt>
      <trkpt lat="-40.1873630" lon="-71.3828870">
        <ele>844.3</ele>
        <time>2020-11-15T12:31:48Z</time>
      </trkpt>
      <trkpt lat="-40.1873950" lon="-71.3828780">
        <ele>844.5</ele>
        <time>2020-11-15T12:31:49Z</time>
      </trkpt>
      <trkpt lat="-40.1874270" lon="-71.3828680">
        <ele>844.7</ele>
        <time>2020-11-15T12:31:50Z</time>
      </trkpt>
      <trkpt lat="-40.1874600" lon="-71.3828600">
        <ele>844.9</ele>
        <time>2020-11-15T12:31:51Z</time>
      </trkpt>
      <trkpt lat="-40.1874930" lon="-71.3828520">
        <ele>845.1</ele>
        <time>2020-11-15T12:31:52Z</time>
      </trkpt>
      <trkpt lat="-40.1875250" lon="-71.3828450">
        <ele>845.3</ele>
        <time>2020-11-15T12:31:53Z</time>
      </trkpt>
      <trkpt lat="-40.1875570" lon="-71.3828370">
        <ele>845.4</ele>
        <time>2020-11-15T12:31:54Z</time>
      </trkpt>
      <trkpt lat="-40.1875880" lon="-71.3828290">
        <ele>845.6</ele>
        <time>2020-11-15T12:31:55Z</time>
      </trkpt>
      <trkpt lat="-40.1876180" lon="-71.3828210">
        <ele>845.8</ele>
        <time>2020-11-15T12:31:56Z</time>
      </trkpt>
      <trkpt lat="-40.1876480" lon="-71.3828110">
        <ele>845.9</ele>
        <time>2020-11-15T12:31:57Z</time>
      </trkpt>
      <trkpt lat="-40.1876780" lon="-71.3828010">
        <ele>846.1</ele>
        <time>2020-11-15T12:31:58Z</time>
      </trkpt>
      <trkpt lat="-40.1877370" lon="-71.3827790">
        <ele>846.4</ele>
        <time>2020-11-15T12:31:59Z</time>
      </trkpt>
      <trkpt lat="-40.1877660" lon="-71.3827660">
        <ele>846.6</ele>
        <time>2020-11-15T12:32:01Z</time>
      </trkpt>
      <trkpt lat="-40.1877950" lon="-71.3827510">
        <ele>846.8</ele>
        <time>2020-11-15T12:32:02Z</time>
      </trkpt>
      <trkpt lat="-40.1878240" lon="-71.3827360">
        <ele>846.9</ele>
        <time>2020-11-15T12:32:03Z</time>
      </trkpt>
      <trkpt lat="-40.1878530" lon="-71.3827200">
        <ele>847.1</ele>
        <time>2020-11-15T12:32:04Z</time>
      </trkpt>
      <trkpt lat="-40.1878810" lon="-71.3827040">
        <ele>847.2</ele>
        <time>2020-11-15T12:32:05Z</time>
      </trkpt>
      <trkpt lat="-40.1879180" lon="-71.3826800">
        <ele>847.4</ele>
        <time>2020-11-15T12:32:07Z</time>
      </trkpt>
      <trkpt lat="-40.1879530" lon="-71.3826580">
        <ele>847.6</ele>
        <time>2020-11-15T12:32:08Z</time>
      </trkpt>
      <trkpt lat="-40.1879860" lon="-71.3826380">
        <ele>847.7</ele>
        <time>2020-11-15T12:32:09Z</time>
      </trkpt>
      <trkpt lat="-40.1880190" lon="-71.3826180">
        <ele>847.9</ele>
        <time>2020-11-15T12:32:10Z</time>
      </trkpt>
      <trkpt lat="-40.1880490" lon="-71.3825970">
        <ele>848.0</ele>
        <time>2020-11-15T12:32:11Z</time>
      </trkpt>
      <trkpt lat="-40.1880780" lon="-71.3825750">
        <ele>848.1</ele>
        <time>2020-11-15T12:32:12Z</time>
      </trkpt>
      <trkpt lat="-40.1881070" lon="-71.3825500">
        <ele>848.2</ele>
        <time>2020-11-15T12:32:13Z</time>
      </trkpt>
      <trkpt lat="-40.1881350" lon="-71.3825260">
        <ele>848.3</ele>
        <time>2020-11-15T12:32:14Z</time>
      </trkpt>
      <trkpt lat="-40.1881620" lon="-71.3825000">
        <ele>848.4</ele>
        <time>2020-11-15T12:32:15Z</time>
      </trkpt>
      <trkpt lat="-40.1881880" lon="-71.3824750">
        <ele>848.4</ele>
        <time>2020-11-15T12:32:16Z</time>
      </trkpt>
      <trkpt lat="-40.1882140" lon="-71.3824490">
        <ele>848.5</ele>
        <time>2020-11-15T12:32:17Z</time>
      </trkpt>
      <trkpt lat="-40.1882400" lon="-71.3824240">
        <ele>848.5</ele>
        <time>2020-11-15T12:32:18Z</time>
      </trkpt>
      <trkpt lat="-40.1882660" lon="-71.3823980">
        <ele>848.6</ele>
        <time>2020-11-15T12:32:19Z</time>
      </trkpt>
      <trkpt lat="-40.1882920" lon="-71.3823710">
        <ele>848.6</ele>
        <time>2020-11-15T12:32:20Z</time>
      </trkpt>
      <trkpt lat="-40.1883180" lon="-71.3823410">
        <ele>848.7</ele>
        <time>2020-11-15T12:32:21Z</time>
      </trkpt>
      <trkpt lat="-40.1883440" lon="-71.3823110">
        <ele>848.8</ele>
        <time>2020-11-15T12:32:22Z</time>
      </trkpt>
      <trkpt lat="-40.1883720" lon="-71.3822810">
        <ele>848.8</ele>
        <time>2020-11-15T12:32:23Z</time>
      </trkpt>
      <trkpt lat="-40.1884000" lon="-71.3822510">
        <ele>848.9</ele>
        <time>2020-11-15T12:32:24Z</time>
      </trkpt>
      <trkpt lat="-40.1884290" lon="-71.3822200">
        <ele>849.0</ele>
        <time>2020-11-15T12:32:25Z</time>
      </trkpt>
      <trkpt lat="-40.1884600" lon="-71.3821890">
        <ele>849.1</ele>
        <time>2020-11-15T12:32:26Z</time>
      </trkpt>
      <trkpt lat="-40.1884910" lon="-71.3821570">
        <ele>849.2</ele>
        <time>2020-11-15T12:32:27Z</time>
      </trkpt>
      <trkpt lat="-40.1885230" lon="-71.3821290">
        <ele>849.2</ele>
        <time>2020-11-15T12:32:28Z</time>
      </trkpt>
      <trkpt lat="-40.1885570" lon="-71.3821000">
        <ele>849.3</ele>
        <time>2020-11-15T12:32:29Z</time>
      </trkpt>
      <trkpt lat="-40.1885890" lon="-71.3820700">
        <ele>849.4</ele>
        <time>2020-11-15T12:32:30Z</time>
      </trkpt>
      <trkpt lat="-40.1886180" lon="-71.3820390">
        <ele>849.5</ele>
        <time>2020-11-15T12:32:31Z</time>
      </trkpt>
      <trkpt lat="-40.1886450" lon="-71.3820070">
        <ele>849.5</ele>
        <time>2020-11-15T12:32:32Z</time>
      </trkpt>
      <trkpt lat="-40.1886710" lon="-71.3819750">
        <ele>849.5</ele>
        <time>2020-11-15T12:32:33Z</time>
      </trkpt>
      <trkpt lat="-40.1886930" lon="-71.3819400">
        <ele>849.6</ele>
        <time>2020-11-15T12:32:34Z</time>
      </trkpt>
      <trkpt lat="-40.1887130" lon="-71.3819040">
        <ele>849.6</ele>
        <time>2020-11-15T12:32:35Z</time>
      </trkpt>
      <trkpt lat="-40.1887310" lon="-71.3818660">
        <ele>849.7</ele>
        <time>2020-11-15T12:32:36Z</time>
      </trkpt>
      <trkpt lat="-40.1887440" lon="-71.3818240">
        <ele>849.8</ele>
        <time>2020-11-15T12:32:37Z</time>
      </trkpt>
      <trkpt lat="-40.1887580" lon="-71.3817820">
        <ele>849.8</ele>
        <time>2020-11-15T12:32:38Z</time>
      </trkpt>
      <trkpt lat="-40.1887690" lon="-71.3817380">
        <ele>849.9</ele>
        <time>2020-11-15T12:32:39Z</time>
      </trkpt>
      <trkpt lat="-40.1887830" lon="-71.3816970">
        <ele>850.1</ele>
        <time>2020-11-15T12:32:40Z</time>
      </trkpt>
      <trkpt lat="-40.1887990" lon="-71.3816560">
        <ele>850.2</ele>
        <time>2020-11-15T12:32:41Z</time>
      </trkpt>
      <trkpt lat="-40.1888150" lon="-71.3816150">
        <ele>850.3</ele>
        <time>2020-11-15T12:32:42Z</time>
      </trkpt>
      <trkpt lat="-40.1888310" lon="-71.3815740">
        <ele>850.4</ele>
        <time>2020-11-15T12:32:43Z</time>
      </trkpt>
      <trkpt lat="-40.1888450" lon="-71.3815320">
        <ele>850.6</ele>
        <time>2020-11-15T12:32:44Z</time>
      </trkpt>
      <trkpt lat="-40.1888610" lon="-71.3814910">
        <ele>850.7</ele>
        <time>2020-11-15T12:32:45Z</time>
      </trkpt>
      <trkpt lat="-40.1888790" lon="-71.3814530">
        <ele>850.8</ele>
        <time>2020-11-15T12:32:46Z</time>
      </trkpt>
      <trkpt lat="-40.1889000" lon="-71.3814170">
        <ele>851.0</ele>
        <time>2020-11-15T12:32:47Z</time>
      </trkpt>
      <trkpt lat="-40.1889220" lon="-71.3813820">
        <ele>851.2</ele>
        <time>2020-11-15T12:32:48Z</time>
      </trkpt>
      <trkpt lat="-40.1889460" lon="-71.3813480">
        <ele>851.3</ele>
        <time>2020-11-15T12:32:49Z</time>
      </trkpt>
      <trkpt lat="-40.1889700" lon="-71.3813140">
        <ele>851.5</ele>
        <time>2020-11-15T12:32:50Z</time>
      </trkpt>
      <trkpt lat="-40.1889960" lon="-71.3812800">
        <ele>851.7</ele>
        <time>2020-11-15T12:32:51Z</time>
      </trkpt>
      <trkpt lat="-40.1890230" lon="-71.3812460">
        <ele>851.9</ele>
        <time>2020-11-15T12:32:52Z</time>
      </trkpt>
      <trkpt lat="-40.1890500" lon="-71.3812140">
        <ele>852.1</ele>
        <time>2020-11-15T12:32:53Z</time>
      </trkpt>
      <trkpt lat="-40.1890780" lon="-71.3811810">
        <ele>852.3</ele>
        <time>2020-11-15T12:32:54Z</time>
      </trkpt>
      <trkpt lat="-40.1891040" lon="-71.3811470">
        <ele>852.5</ele>
        <time>2020-11-15T12:32:55Z</time>
      </trkpt>
      <trkpt lat="-40.1891270" lon="-71.3811120">
        <ele>852.7</ele>
        <time>2020-11-15T12:32:56Z</time>
      </trkpt>
      <trkpt lat="-40.1891500" lon="-71.3810760">
        <ele>852.9</ele>
        <time>2020-11-15T12:32:57Z</time>
      </trkpt>
      <trkpt lat="-40.1891730" lon="-71.3810380">
        <ele>853.1</ele>
        <time>2020-11-15T12:32:58Z</time>
      </trkpt>
      <trkpt lat="-40.1891980" lon="-71.3810020">
        <ele>853.2</ele>
        <time>2020-11-15T12:32:59Z</time>
      </trkpt>
      <trkpt lat="-40.1892260" lon="-71.3809670">
        <ele>853.4</ele>
        <time>2020-11-15T12:33:00Z</time>
      </trkpt>
      <trkpt lat="-40.1892530" lon="-71.3809320">
        <ele>853.5</ele>
        <time>2020-11-15T12:33:01Z</time>
      </trkpt>
      <trkpt lat="-40.1892770" lon="-71.3808960">
        <ele>853.7</ele>
        <time>2020-11-15T12:33:02Z</time>
      </trkpt>
      <trkpt lat="-40.1893010" lon="-71.3808610">
        <ele>853.8</ele>
        <time>2020-11-15T12:33:03Z</time>
      </trkpt>
      <trkpt lat="-40.1893250" lon="-71.3808260">
        <ele>854.0</ele>
        <time>2020-11-15T12:33:04Z</time>
      </trkpt>
      <trkpt lat="-40.1893530" lon="-71.3807920">
        <ele>854.1</ele>
        <time>2020-11-15T12:33:05Z</time>
      </trkpt>
      <trkpt lat="-40.1893810" lon="-71.3807590">
        <ele>854.2</ele>
        <time>2020-11-15T12:33:06Z</time>
      </trkpt>
      <trkpt lat="-40.1894110" lon="-71.3807230">
        <ele>854.4</ele>
        <time>2020-11-15T12:33:07Z</time>
      </trkpt>
      <trkpt lat="-40.1894430" lon="-71.3806860">
        <ele>854.6</ele>
        <time>2020-11-15T12:33:08Z</time>
      </trkpt>
      <trkpt lat="-40.1894730" lon="-71.3806500">
        <ele>854.8</ele>
        <time>2020-11-15T12:33:09Z</time>
      </trkpt>
      <trkpt lat="-40.1895030" lon="-71.3806140">
        <ele>854.9</ele>
        <time>2020-11-15T12:33:10Z</time>
      </trkpt>
      <trkpt lat="-40.1895300" lon="-71.3805780">
        <ele>855.1</ele>
        <time>2020-11-15T12:33:11Z</time>
      </trkpt>
      <trkpt lat="-40.1895550" lon="-71.3805420">
        <ele>855.3</ele>
        <time>2020-11-15T12:33:12Z</time>
      </trkpt>
      <trkpt lat="-40.1895800" lon="-71.3805070">
        <ele>855.4</ele>
        <time>2020-11-15T12:33:13Z</time>
      </trkpt>
      <trkpt lat="-40.1896030" lon="-71.3804760">
        <ele>855.5</ele>
        <time>2020-11-15T12:33:14Z</time>
      </trkpt>
      <trkpt lat="-40.1896280" lon="-71.3804450">
        <ele>855.7</ele>
        <time>2020-11-15T12:33:15Z</time>
      </trkpt>
      <trkpt lat="-40.1896520" lon="-71.3804130">
        <ele>855.8</ele>
        <time>2020-11-15T12:33:16Z</time>
      </trkpt>
      <trkpt lat="-40.1896760" lon="-71.3803790">
        <ele>856.0</ele>
        <time>2020-11-15T12:33:17Z</time>
      </trkpt>
      <trkpt lat="-40.1896990" lon="-71.3803430">
        <ele>856.1</ele>
        <time>2020-11-15T12:33:18Z</time>
      </trkpt>
      <trkpt lat="-40.1897200" lon="-71.3803070">
        <ele>856.3</ele>
        <time>2020-11-15T12:33:19Z</time>
      </trkpt>
      <trkpt lat="-40.1897410" lon="-71.3802720">
        <ele>856.4</ele>
        <time>2020-11-15T12:33:20Z</time>
      </trkpt>
      <trkpt lat="-40.1897610" lon="-71.3802350">
        <ele>856.6</ele>
        <time>2020-11-15T12:33:21Z</time>
      </trkpt>
      <trkpt lat="-40.1897780" lon="-71.3801960">
        <ele>856.7</ele>
        <time>2020-11-15T12:33:22Z</time>
      </trkpt>
      <trkpt lat="-40.1897950" lon="-71.3801550">
        <ele>856.9</ele>
        <time>2020-11-15T12:33:23Z</time>
      </trkpt>
      <trkpt lat="-40.1898120" lon="-71.3801150">
        <ele>857.0</ele>
        <time>2020-11-15T12:33:24Z</time>
      </trkpt>
      <trkpt lat="-40.1898280" lon="-71.3800730">
        <ele>857.2</ele>
        <time>2020-11-15T12:33:25Z</time>
      </trkpt>
      <trkpt lat="-40.1898450" lon="-71.3800310">
        <ele>857.3</ele>
        <time>2020-11-15T12:33:26Z</time>
      </trkpt>
      <trkpt lat="-40.1898610" lon="-71.3799890">
        <ele>857.4</ele>
        <time>2020-11-15T12:33:27Z</time>
      </trkpt>
      <trkpt lat="-40.1898800" lon="-71.3799490">
        <ele>857.6</ele>
        <time>2020-11-15T12:33:28Z</time>
      </trkpt>
      <trkpt lat="-40.1899000" lon="-71.3799090">
        <ele>857.7</ele>
        <time>2020-11-15T12:33:29Z</time>
      </trkpt>
      <trkpt lat="-40.1899180" lon="-71.3798700">
        <ele>857.9</ele>
        <time>2020-11-15T12:33:30Z</time>
      </trkpt>
      <trkpt lat="-40.1899360" lon="-71.3798320">
        <ele>858.0</ele>
        <time>2020-11-15T12:33:31Z</time>
      </trkpt>
      <trkpt lat="-40.1899500" lon="-71.3797900">
        <ele>858.1</ele>
        <time>2020-11-15T12:33:32Z</time>
      </trkpt>
      <trkpt lat="-40.1899680" lon="-71.3797520">
        <ele>858.3</ele>
        <time>2020-11-15T12:33:33Z</time>
      </trkpt>
      <trkpt lat="-40.1899910" lon="-71.3797160">
        <ele>858.4</ele>
        <time>2020-11-15T12:33:34Z</time>
      </trkpt>
      <trkpt lat="-40.1900110" lon="-71.3796770">
        <ele>858.6</ele>
        <time>2020-11-15T12:33:35Z</time>
      </trkpt>
      <trkpt lat="-40.1900270" lon="-71.3796380">
        <ele>858.7</ele>
        <time>2020-11-15T12:33:36Z</time>
      </trkpt>
      <trkpt lat="-40.1900450" lon="-71.3796000">
        <ele>858.9</ele>
        <time>2020-11-15T12:33:36Z</time>
      </trkpt>
      <trkpt lat="-40.1900630" lon="-71.3795620">
        <ele>859.0</ele>
        <time>2020-11-15T12:33:37Z</time>
      </trkpt>
      <trkpt lat="-40.1900830" lon="-71.3795230">
        <ele>859.2</ele>
        <time>2020-11-15T12:33:38Z</time>
      </trkpt>
      <trkpt lat="-40.1901040" lon="-71.3794880">
        <ele>859.3</ele>
        <time>2020-11-15T12:33:39Z</time>
      </trkpt>
      <trkpt lat="-40.1901270" lon="-71.3794550">
        <ele>859.4</ele>
        <time>2020-11-15T12:33:40Z</time>
      </trkpt>
      <trkpt lat="-40.1901520" lon="-71.3794230">
        <ele>859.6</ele>
        <time>2020-11-15T12:33:41Z</time>
      </trkpt>
      <trkpt lat="-40.1901790" lon="-71.3793920">
        <ele>859.7</ele>
        <time>2020-11-15T12:33:42Z</time>
      </trkpt>
      <trkpt lat="-40.1902050" lon="-71.3793620">
        <ele>859.9</ele>
        <time>2020-11-15T12:33:43Z</time>
      </trkpt>
      <trkpt lat="-40.1902320" lon="-71.3793320">
        <ele>860.0</ele>
        <time>2020-11-15T12:33:44Z</time>
      </trkpt>
      <trkpt lat="-40.1902600" lon="-71.3793020">
        <ele>860.1</ele>
        <time>2020-11-15T12:33:45Z</time>
      </trkpt>
      <trkpt lat="-40.1902890" lon="-71.3792720">
        <ele>860.3</ele>
        <time>2020-11-15T12:33:46Z</time>
      </trkpt>
      <trkpt lat="-40.1903110" lon="-71.3792390">
        <ele>860.4</ele>
        <time>2020-11-15T12:33:47Z</time>
      </trkpt>
      <trkpt lat="-40.1903300" lon="-71.3792050">
        <ele>860.6</ele>
        <time>2020-11-15T12:33:48Z</time>
      </trkpt>
      <trkpt lat="-40.1903510" lon="-71.3791720">
        <ele>860.7</ele>
        <time>2020-11-15T12:33:49Z</time>
      </trkpt>
      <trkpt lat="-40.1903730" lon="-71.3791400">
        <ele>860.8</ele>
        <time>2020-11-15T12:33:50Z</time>
      </trkpt>
      <trkpt lat="-40.1903950" lon="-71.3791080">
        <ele>861.0</ele>
        <time>2020-11-15T12:33:51Z</time>
      </trkpt>
      <trkpt lat="-40.1904170" lon="-71.3790760">
        <ele>861.1</ele>
        <time>2020-11-15T12:33:52Z</time>
      </trkpt>
      <trkpt lat="-40.1904400" lon="-71.3790450">
        <ele>861.3</ele>
        <time>2020-11-15T12:33:53Z</time>
      </trkpt>
      <trkpt lat="-40.1904650" lon="-71.3790140">
        <ele>861.4</ele>
        <time>2020-11-15T12:33:54Z</time>
      </trkpt>
      <trkpt lat="-40.1904900" lon="-71.3789840">
        <ele>861.6</ele>
        <time>2020-11-15T12:33:55Z</time>
      </trkpt>
      <trkpt lat="-40.1905130" lon="-71.3789530">
        <ele>861.7</ele>
        <time>2020-11-15T12:33:56Z</time>
      </trkpt>
      <trkpt lat="-40.1905350" lon="-71.3789210">
        <ele>861.8</ele>
        <time>2020-11-15T12:33:57Z</time>
      </trkpt>
      <trkpt lat="-40.1905570" lon="-71.3788890">
        <ele>862.0</ele>
        <time>2020-11-15T12:33:58Z</time>
      </trkpt>
      <trkpt lat="-40.1905820" lon="-71.3788570">
        <ele>862.1</ele>
        <time>2020-11-15T12:33:59Z</time>
      </trkpt>
      <trkpt lat="-40.1906120" lon="-71.3788290">
        <ele>862.3</ele>
        <time>2020-11-15T12:34:00Z</time>
      </trkpt>
      <trkpt lat="-40.1906420" lon="-71.3788000">
        <ele>862.5</ele>
        <time>2020-11-15T12:34:01Z</time>
      </trkpt>
      <trkpt lat="-40.1906710" lon="-71.3787710">
        <ele>862.6</ele>
        <time>2020-11-15T12:34:02Z</time>
      </trkpt>
      <trkpt lat="-40.1906990" lon="-71.3787410">
        <ele>862.8</ele>
        <time>2020-11-15T12:34:03Z</time>
      </trkpt>
      <trkpt lat="-40.1907240" lon="-71.3787110">
        <ele>862.9</ele>
        <time>2020-11-15T12:34:04Z</time>
      </trkpt>
      <trkpt lat="-40.1907480" lon="-71.3786800">
        <ele>863.0</ele>
        <time>2020-11-15T12:34:05Z</time>
      </trkpt>
      <trkpt lat="-40.1907710" lon="-71.3786510">
        <ele>863.2</ele>
        <time>2020-11-15T12:34:06Z</time>
      </trkpt>
      <trkpt lat="-40.1907940" lon="-71.3786240">
        <ele>863.3</ele>
        <time>2020-11-15T12:34:07Z</time>
      </trkpt>
      <trkpt lat="-40.1908140" lon="-71.3785990">
        <ele>863.4</ele>
        <time>2020-11-15T12:34:08Z</time>
      </trkpt>
      <trkpt lat="-40.1908320" lon="-71.3785750">
        <ele>863.5</ele>
        <time>2020-11-15T12:34:09Z</time>
      </trkpt>
      <trkpt lat="-40.1908460" lon="-71.3785530">
        <ele>863.6</ele>
        <time>2020-11-15T12:34:10Z</time>
      </trkpt>
      <trkpt lat="-40.1908600" lon="-71.3785370">
        <ele>863.7</ele>
        <time>2020-11-15T12:34:11Z</time>
      </trkpt>
      <trkpt lat="-40.1908740" lon="-71.3785230">
        <ele>863.8</ele>
        <time>2020-11-15T12:34:12Z</time>
      </trkpt>
      <trkpt lat="-40.1908860" lon="-71.3785090">
        <ele>863.9</ele>
        <time>2020-11-15T12:34:13Z</time>
      </trkpt>
      <trkpt lat="-40.1908940" lon="-71.3784960">
        <ele>863.9</ele>
        <time>2020-11-15T12:34:14Z</time>
      </trkpt>
      <trkpt lat="-40.1908950" lon="-71.3784850">
        <ele>864.0</ele>
        <time>2020-11-15T12:34:15Z</time>
      </trkpt>
      <trkpt lat="-40.1908920" lon="-71.3784760">
        <ele>864.0</ele>
        <time>2020-11-15T12:34:16Z</time>
      </trkpt>
      <trkpt lat="-40.1908860" lon="-71.3784700">
        <ele>864.0</ele>
        <time>2020-11-15T12:34:17Z</time>
      </trkpt>
      <trkpt lat="-40.1908780" lon="-71.3784660">
        <ele>864.1</ele>
        <time>2020-11-15T12:34:18Z</time>
      </trkpt>
      <trkpt lat="-40.1908700" lon="-71.3784660">
        <ele>864.1</ele>
        <time>2020-11-15T12:34:19Z</time>
      </trkpt>
      <trkpt lat="-40.1908620" lon="-71.3784670">
        <ele>864.1</ele>
        <time>2020-11-15T12:34:20Z</time>
      </trkpt>
      <trkpt lat="-40.1908540" lon="-71.3784700">
        <ele>864.2</ele>
        <time>2020-11-15T12:34:21Z</time>
      </trkpt>
      <trkpt lat="-40.1908430" lon="-71.3784740">
        <ele>864.2</ele>
        <time>2020-11-15T12:34:22Z</time>
      </trkpt>
      <trkpt lat="-40.1908310" lon="-71.3784770">
        <ele>864.3</ele>
        <time>2020-11-15T12:34:23Z</time>
      </trkpt>
      <trkpt lat="-40.1908220" lon="-71.3784800">
        <ele>864.3</ele>
        <time>2020-11-15T12:34:24Z</time>
      </trkpt>
      <trkpt lat="-40.1908140" lon="-71.3784850">
        <ele>864.4</ele>
        <time>2020-11-15T12:34:25Z</time>
      </trkpt>
      <trkpt lat="-40.1908090" lon="-71.3784910">
        <ele>864.4</ele>
        <time>2020-11-15T12:34:26Z</time>
      </trkpt>
      <trkpt lat="-40.1907700" lon="-71.3785400">
        <ele>864.6</ele>
        <time>2020-11-15T12:34:38Z</time>
      </trkpt>
      <trkpt lat="-40.1907680" lon="-71.3785410">
        <ele>864.6</ele>
        <time>2020-11-15T12:34:39Z</time>
      </trkpt>
      <trkpt lat="-40.1907640" lon="-71.3785400">
        <ele>864.7</ele>
        <time>2020-11-15T12:34:40Z</time>
      </trkpt>
      <trkpt lat="-40.1907590" lon="-71.3785350">
        <ele>864.7</ele>
        <time>2020-11-15T12:34:41Z</time>
      </trkpt>
      <trkpt lat="-40.1907830" lon="-71.3784360">
        <ele>865.0</ele>
        <time>2020-11-15T12:34:55Z</time>
      </trkpt>
      <trkpt lat="-40.1907840" lon="-71.3784390">
        <ele>865.0</ele>
        <time>2020-11-15T12:34:56Z</time>
      </trkpt>
      <trkpt lat="-40.1907860" lon="-71.3784430">
        <ele>865.1</ele>
        <time>2020-11-15T12:34:57Z</time>
      </trkpt>
      <trkpt lat="-40.1907880" lon="-71.3784490">
        <ele>865.1</ele>
        <time>2020-11-15T12:34:58Z</time>
      </trkpt>
      <trkpt lat="-40.1907910" lon="-71.3784590">
        <ele>865.1</ele>
        <time>2020-11-15T12:34:59Z</time>
      </trkpt>
      <trkpt lat="-40.1907230" lon="-71.3783930">
        <ele>865.5</ele>
        <time>2020-11-15T12:36:19Z</time>
      </trkpt>
      <trkpt lat="-40.1907220" lon="-71.3783900">
        <ele>865.5</ele>
        <time>2020-11-15T12:36:20Z</time>
      </trkpt>
      <trkpt lat="-40.1907190" lon="-71.3783850">
        <ele>865.5</ele>
        <time>2020-11-15T12:36:21Z</time>
      </trkpt>
      <trkpt lat="-40.1907160" lon="-71.3783800">
        <ele>865.5</ele>
        <time>2020-11-15T12:36:22Z</time>
      </trkpt>
      <trkpt lat="-40.1906920" lon="-71.3783400">
        <ele>865.7</ele>
        <time>2020-11-15T12:36:36Z</time>
      </trkpt>
      <trkpt lat="-40.1906920" lon="-71.3783410">
        <ele>865.7</ele>
        <time>2020-11-15T12:36:37Z</time>
      </trkpt>
      <trkpt lat="-40.1906940" lon="-71.3783450">
        <ele>865.7</ele>
        <time>2020-11-15T12:36:38Z</time>
      </trkpt>
      <trkpt lat="-40.1906980" lon="-71.3783560">
        <ele>865.8</ele>
        <time>2020-11-15T12:36:39Z</time>
      </trkpt>
      <trkpt lat="-40.1906980" lon="-71.3783680">
        <ele>865.8</ele>
        <time>2020-11-15T12:36:40Z</time>
      </trkpt>
      <trkpt lat="-40.1906960" lon="-71.3783800">
        <ele>865.8</ele>
        <time>2020-11-15T12:36:41Z</time>
      </trkpt>
      <trkpt lat="-40.1907580" lon="-71.3784950">
        <ele>866.3</ele>
        <time>2020-11-15T12:36:53Z</time>
      </trkpt>
      <trkpt lat="-40.1907590" lon="-71.3784960">
        <ele>866.3</ele>
        <time>2020-11-15T12:36:54Z</time>
      </trkpt>
      <trkpt lat="-40.1907590" lon="-71.3784970">
        <ele>866.3</ele>
        <time>2020-11-15T12:36:55Z</time>
      </trkpt>
      <trkpt lat="-40.1907610" lon="-71.3785000">
        <ele>866.3</ele>
        <time>2020-11-15T12:36:56Z</time>
      </trkpt>
      <trkpt lat="-40.1907950" lon="-71.3784830">
        <ele>866.4</ele>
        <time>2020-11-15T12:36:59Z</time>
      </trkpt>
      <trkpt lat="-40.1907990" lon="-71.3784790">
        <ele>866.5</ele>
        <time>2020-11-15T12:37:00Z</time>
      </trkpt>
      <trkpt lat="-40.1908070" lon="-71.3784710">
        <ele>866.5</ele>
        <time>2020-11-15T12:37:01Z</time>
      </trkpt>
      <trkpt lat="-40.1908180" lon="-71.3784600">
        <ele>866.6</ele>
        <time>2020-11-15T12:37:02Z</time>
      </trkpt>
      <trkpt lat="-40.1908340" lon="-71.3784460">
        <ele>866.6</ele>
        <time>2020-11-15T12:37:03Z</time>
      </trkpt>
      <trkpt lat="-40.1908530" lon="-71.3784300">
        <ele>866.7</ele>
        <time>2020-11-15T12:37:04Z</time>
      </trkpt>
      <trkpt lat="-40.1908760" lon="-71.3784130">
        <ele>866.8</ele>
        <time>2020-11-15T12:37:05Z</time>
      </trkpt>
      <trkpt lat="-40.1909020" lon="-71.3783960">
        <ele>867.0</ele>
        <time>2020-11-15T12:37:06Z</time>
      </trkpt>
      <trkpt lat="-40.1909280" lon="-71.3783760">
        <ele>867.1</ele>
        <time>2020-11-15T12:37:07Z</time>
      </trkpt>
      <trkpt lat="-40.1909530" lon="-71.3783510">
        <ele>867.2</ele>
        <time>2020-11-15T12:37:08Z</time>
      </trkpt>
      <trkpt lat="-40.1909780" lon="-71.3783250">
        <ele>867.4</ele>
        <time>2020-11-15T12:37:09Z</time>
      </trkpt>
      <trkpt lat="-40.1910060" lon="-71.3782980">
        <ele>867.5</ele>
        <time>2020-11-15T12:37:10Z</time>
      </trkpt>
      <trkpt lat="-40.1910350" lon="-71.3782700">
        <ele>867.7</ele>
        <time>2020-11-15T12:37:11Z</time>
      </trkpt>
      <trkpt lat="-40.1910620" lon="-71.3782380">
        <ele>867.9</ele>
        <time>2020-11-15T12:37:12Z</time>
      </trkpt>
      <trkpt lat="-40.1910870" lon="-71.3782010">
        <ele>868.0</ele>
        <time>2020-11-15T12:37:13Z</time>
      </trkpt>
      <trkpt lat="-40.1911100" lon="-71.3781610">
        <ele>868.2</ele>
        <time>2020-11-15T12:37:14Z</time>
      </trkpt>
      <trkpt lat="-40.1911350" lon="-71.3781250">
        <ele>868.4</ele>
        <time>2020-11-15T12:37:15Z</time>
      </trkpt>
      <trkpt lat="-40.1911610" lon="-71.3780900">
        <ele>868.5</ele>
        <time>2020-11-15T12:37:16Z</time>
      </trkpt>
      <trkpt lat="-40.1911880" lon="-71.3780560">
        <ele>868.7</ele>
        <time>2020-11-15T12:37:17Z</time>
      </trkpt>
      <trkpt lat="-40.1912150" lon="-71.3780230">
        <ele>868.9</ele>
        <time>2020-11-15T12:37:18Z</time>
      </trkpt>
      <trkpt lat="-40.1912420" lon="-71.3779910">
        <ele>869.0</ele>
        <time>2020-11-15T12:37:19Z</time>
      </trkpt>
      <trkpt lat="-40.1912700" lon="-71.3779610">
        <ele>869.2</ele>
        <time>2020-11-15T12:37:20Z</time>
      </trkpt>
      <trkpt lat="-40.1912990" lon="-71.3779330">
        <ele>869.3</ele>
        <time>2020-11-15T12:37:21Z</time>
      </trkpt>
      <trkpt lat="-40.1913250" lon="-71.3779030">
        <ele>869.5</ele>
        <time>2020-11-15T12:37:22Z</time>
      </trkpt>
      <trkpt lat="-40.1913510" lon="-71.3778730">
        <ele>869.6</ele>
        <time>2020-11-15T12:37:23Z</time>
      </trkpt>
      <trkpt lat="-40.1913770" lon="-71.3778410">
        <ele>869.8</ele>
        <time>2020-11-15T12:37:24Z</time>
      </trkpt>
      <trkpt lat="-40.1914280" lon="-71.3777730">
        <ele>870.1</ele>
        <time>2020-11-15T12:37:26Z</time>
      </trkpt>
      <trkpt lat="-40.1914540" lon="-71.3777360">
        <ele>870.2</ele>
        <time>2020-11-15T12:37:27Z</time>
      </trkpt>
      <trkpt lat="-40.1914790" lon="-71.3776990">
        <ele>870.4</ele>
        <time>2020-11-15T12:37:28Z</time>
      </trkpt>
      <trkpt lat="-40.1915040" lon="-71.3776590">
        <ele>870.6</ele>
        <time>2020-11-15T12:37:29Z</time>
      </trkpt>
      <trkpt lat="-40.1915460" lon="-71.3775870">
        <ele>870.9</ele>
        <time>2020-11-15T12:37:31Z</time>
      </trkpt>
      <trkpt lat="-40.1915620" lon="-71.3775500">
        <ele>871.0</ele>
        <time>2020-11-15T12:37:32Z</time>
      </trkpt>
      <trkpt lat="-40.1915770" lon="-71.3775090">
        <ele>871.2</ele>
        <time>2020-11-15T12:37:33Z</time>
      </trkpt>
      <trkpt lat="-40.1915920" lon="-71.3774670">
        <ele>871.3</ele>
        <time>2020-11-15T12:37:34Z</time>
      </trkpt>
      <trkpt lat="-40.1916090" lon="-71.3774250">
        <ele>871.4</ele>
        <time>2020-11-15T12:37:35Z</time>
      </trkpt>
      <trkpt lat="-40.1916270" lon="-71.3773830">
        <ele>871.6</ele>
        <time>2020-11-15T12:37:36Z</time>
      </trkpt>
      <trkpt lat="-40.1916460" lon="-71.3773400">
        <ele>871.7</ele>
        <time>2020-11-15T12:37:37Z</time>
      </trkpt>
      <trkpt lat="-40.1916630" lon="-71.3772960">
        <ele>871.9</ele>
        <time>2020-11-15T12:37:38Z</time>
      </trkpt>
      <trkpt lat="-40.1916810" lon="-71.3772520">
        <ele>872.1</ele>
        <time>2020-11-15T12:37:39Z</time>
      </trkpt>
      <trkpt lat="-40.1917000" lon="-71.3772090">
        <ele>872.2</ele>
        <time>2020-11-15T12:37:40Z</time>
      </trkpt>
      <trkpt lat="-40.1917220" lon="-71.3771660">
        <ele>872.4</ele>
        <time>2020-11-15T12:37:41Z</time>
      </trkpt>
      <trkpt lat="-40.1917460" lon="-71.3771260">
        <ele>872.5</ele>
        <time>2020-11-15T12:37:42Z</time>
      </trkpt>
      <trkpt lat="-40.1917680" lon="-71.3770860">
        <ele>872.7</ele>
        <time>2020-11-15T12:37:43Z</time>
      </trkpt>
      <trkpt lat="-40.1917910" lon="-71.3770480">
        <ele>872.9</ele>
        <time>2020-11-15T12:37:44Z</time>
      </trkpt>
      <trkpt lat="-40.1918140" lon="-71.3770110">
        <ele>873.0</ele>
        <time>2020-11-15T12:37:45Z</time>
      </trkpt>
      <trkpt lat="-40.1918370" lon="-71.3769730">
        <ele>873.2</ele>
        <time>2020-11-15T12:37:46Z</time>
      </trkpt>
      <trkpt lat="-40.1918580" lon="-71.3769340">
        <ele>873.3</ele>
        <time>2020-11-15T12:37:47Z</time>
      </trkpt>
      <trkpt lat="-40.1918780" lon="-71.3768940">
        <ele>873.4</ele>
        <time>2020-11-15T12:37:48Z</time>
      </trkpt>
      <trkpt lat="-40.1918970" lon="-71.3768530">
        <ele>873.6</ele>
        <time>2020-11-15T12:37:49Z</time>
      </trkpt>
      <trkpt lat="-40.1919140" lon="-71.3768130">
        <ele>873.7</ele>
        <time>2020-11-15T12:37:50Z</time>
      </trkpt>
      <trkpt lat="-40.1919310" lon="-71.3767720">
        <ele>873.8</ele>
        <time>2020-11-15T12:37:51Z</time>
      </trkpt>
      <trkpt lat="-40.1919490" lon="-71.3767330">
        <ele>874.0</ele>
        <time>2020-11-15T12:37:52Z</time>
      </trkpt>
      <trkpt lat="-40.1919680" lon="-71.3766940">
        <ele>874.1</ele>
        <time>2020-11-15T12:37:52Z</time>
      </trkpt>
      <trkpt lat="-40.1919880" lon="-71.3766540">
        <ele>874.2</ele>
        <time>2020-11-15T12:37:53Z</time>
      </trkpt>
      <trkpt lat="-40.1920080" lon="-71.3766130">
        <ele>874.3</ele>
        <time>2020-11-15T12:37:54Z</time>
      </trkpt>
      <trkpt lat="-40.1920270" lon="-71.3765710">
        <ele>874.5</ele>
        <time>2020-11-15T12:37:55Z</time>
      </trkpt>
      <trkpt lat="-40.1920470" lon="-71.3765280">
        <ele>874.6</ele>
        <time>2020-11-15T12:37:56Z</time>
      </trkpt>
      <trkpt lat="-40.1920650" lon="-71.3764840">
        <ele>874.8</ele>
        <time>2020-11-15T12:37:57Z</time>
      </trkpt>
      <trkpt lat="-40.1920830" lon="-71.3764400">
        <ele>874.9</ele>
        <time>2020-11-15T12:37:58Z</time>
      </trkpt>
      <trkpt lat="-40.1921010" lon="-71.3763960">
        <ele>875.1</ele>
        <time>2020-11-15T12:37:59Z</time>
      </trkpt>
      <trkpt lat="-40.1921180" lon="-71.3763520">
        <ele>875.2</ele>
        <time>2020-11-15T12:38:00Z</time>
      </trkpt>
      <trkpt lat="-40.1921350" lon="-71.3763090">
        <ele>875.4</ele>
        <time>2020-11-15T12:38:01Z</time>
      </trkpt>
      <trkpt lat="-40.1921560" lon="-71.3762660">
        <ele>875.5</ele>
        <time>2020-11-15T12:38:02Z</time>
      </trkpt>
      <trkpt lat="-40.1921760" lon="-71.3762220">
        <ele>875.7</ele>
        <time>2020-11-15T12:38:03Z</time>
      </trkpt>
      <trkpt lat="-40.1921950" lon="-71.3761760">
        <ele>875.9</ele>
        <time>2020-11-15T12:38:04Z</time>
      </trkpt>
      <trkpt lat="-40.1922130" lon="-71.3761300">
        <ele>876.0</ele>
        <time>2020-11-15T12:38:05Z</time>
      </trkpt>
      <trkpt lat="-40.1922320" lon="-71.3760860">
        <ele>876.2</ele>
        <time>2020-11-15T12:38:06Z</time>
      </trkpt>
      <trkpt lat="-40.1922510" lon="-71.3760420">
        <ele>876.3</ele>
        <time>2020-11-15T12:38:07Z</time>
      </trkpt>
      <trkpt lat="-40.1922700" lon="-71.3759980">
        <ele>876.4</ele>
        <time>2020-11-15T12:38:08Z</time>
      </trkpt>
      <trkpt lat="-40.1922900" lon="-71.3759550">
        <ele>876.6</ele>
        <time>2020-11-15T12:38:09Z</time>
      </trkpt>
      <trkpt lat="-40.1923090" lon="-71.3759120">
        <ele>876.7</ele>
        <time>2020-11-15T12:38:10Z</time>
      </trkpt>
      <trkpt lat="-40.1923290" lon="-71.3758690">
        <ele>876.8</ele>
        <time>2020-11-15T12:38:11Z</time>
      </trkpt>
      <trkpt lat="-40.1923480" lon="-71.3758260">
        <ele>877.0</ele>
        <time>2020-11-15T12:38:12Z</time>
      </trkpt>
      <trkpt lat="-40.1923660" lon="-71.3757830">
        <ele>877.1</ele>
        <time>2020-11-15T12:38:13Z</time>
      </trkpt>
      <trkpt lat="-40.1923860" lon="-71.3757410">
        <ele>877.2</ele>
        <time>2020-11-15T12:38:14Z</time>
      </trkpt>
      <trkpt lat="-40.1924070" lon="-71.3756990">
        <ele>877.4</ele>
        <time>2020-11-15T12:38:15Z</time>
      </trkpt>
      <trkpt lat="-40.1924310" lon="-71.3756670">
        <ele>877.5</ele>
        <time>2020-11-15T12:38:16Z</time>
      </trkpt>
      <trkpt lat="-40.1924530" lon="-71.3756320">
        <ele>877.6</ele>
        <time>2020-11-15T12:38:17Z</time>
      </trkpt>
      <trkpt lat="-40.1924750" lon="-71.3755950">
        <ele>877.8</ele>
        <time>2020-11-15T12:38:18Z</time>
      </trkpt>
      <trkpt lat="-40.1924950" lon="-71.3755570">
        <ele>877.9</ele>
        <time>2020-11-15T12:38:19Z</time>
      </trkpt>
      <trkpt lat="-40.1925060" lon="-71.3755110">
        <ele>878.0</ele>
        <time>2020-11-15T12:38:20Z</time>
      </trkpt>
      <trkpt lat="-40.1925190" lon="-71.3754660">
        <ele>878.2</ele>
        <time>2020-11-15T12:38:21Z</time>
      </trkpt>
      <trkpt lat="-40.1925340" lon="-71.3754230">
        <ele>878.3</ele>
        <time>2020-11-15T12:38:22Z</time>
      </trkpt>
      <trkpt lat="-40.1925510" lon="-71.3753810">
        <ele>878.5</ele>
        <time>2020-11-15T12:38:23Z</time>
      </trkpt>
      <trkpt lat="-40.1925690" lon="-71.3753390">
        <ele>878.6</ele>
        <time>2020-11-15T12:38:24Z</time>
      </trkpt>
      <trkpt lat="-40.1925870" lon="-71.3752950">
        <ele>878.7</ele>
        <time>2020-11-15T12:38:25Z</time>
      </trkpt>
      <trkpt lat="-40.1926060" lon="-71.3752530">
        <ele>878.9</ele>
        <time>2020-11-15T12:38:26Z</time>
      </trkpt>
      <trkpt lat="-40.1926200" lon="-71.3752190">
        <ele>879.0</ele>
        <time>2020-11-15T12:38:27Z</time>
      </trkpt>
      <trkpt lat="-40.1926370" lon="-71.3751840">
        <ele>879.1</ele>
        <time>2020-11-15T12:38:28Z</time>
      </trkpt>
      <trkpt lat="-40.1926550" lon="-71.3751480">
        <ele>879.3</ele>
        <time>2020-11-15T12:38:29Z</time>
      </trkpt>
      <trkpt lat="-40.1926750" lon="-71.3751110">
        <ele>879.4</ele>
        <time>2020-11-15T12:38:30Z</time>
      </trkpt>
      <trkpt lat="-40.1926950" lon="-71.3750750">
        <ele>879.5</ele>
        <time>2020-11-15T12:38:31Z</time>
      </trkpt>
      <trkpt lat="-40.1927120" lon="-71.3750340">
        <ele>879.7</ele>
        <time>2020-11-15T12:38:32Z</time>
      </trkpt>
      <trkpt lat="-40.1927310" lon="-71.3749950">
        <ele>879.8</ele>
        <time>2020-11-15T12:38:33Z</time>
      </trkpt>
      <trkpt lat="-40.1927750" lon="-71.3749260">
        <ele>880.0</ele>
        <time>2020-11-15T12:38:35Z</time>
      </trkpt>
      <trkpt lat="-40.1928020" lon="-71.3748940">
        <ele>880.1</ele>
        <time>2020-11-15T12:38:36Z</time>
      </trkpt>
      <trkpt lat="-40.1928280" lon="-71.3748610">
        <ele>880.3</ele>
        <time>2020-11-15T12:38:37Z</time>
      </trkpt>
      <trkpt lat="-40.1928540" lon="-71.3748290">
        <ele>880.4</ele>
        <time>2020-11-15T12:38:38Z</time>
      </trkpt>
      <trkpt lat="-40.1928820" lon="-71.3747980">
        <ele>880.5</ele>
        <time>2020-11-15T12:38:39Z</time>
      </trkpt>
      <trkpt lat="-40.1929090" lon="-71.3747670">
        <ele>880.6</ele>
        <time>2020-11-15T12:38:40Z</time>
      </trkpt>
      <trkpt lat="-40.1929380" lon="-71.3747360">
        <ele>880.8</ele>
        <time>2020-11-15T12:38:41Z</time>
      </trkpt>
      <trkpt lat="-40.1929680" lon="-71.3747050">
        <ele>880.9</ele>
        <time>2020-11-15T12:38:42Z</time>
      </trkpt>
      <trkpt lat="-40.1929960" lon="-71.3746740">
        <ele>881.0</ele>
        <time>2020-11-15T12:38:43Z</time>
      </trkpt>
      <trkpt lat="-40.1930240" lon="-71.3746420">
        <ele>881.2</ele>
        <time>2020-11-15T12:38:44Z</time>
      </trkpt>
      <trkpt lat="-40.1930510" lon="-71.3746120">
        <ele>881.3</ele>
        <time>2020-11-15T12:38:45Z</time>
      </trkpt>
      <trkpt lat="-40.1930780" lon="-71.3745830">
        <ele>881.4</ele>
        <time>2020-11-15T12:38:46Z</time>
      </trkpt>
      <trkpt lat="-40.1931060" lon="-71.3745540">
        <ele>881.6</ele>
        <time>2020-11-15T12:38:47Z</time>
      </trkpt>
      <trkpt lat="-40.1931350" lon="-71.3745260">
        <ele>881.7</ele>
        <time>2020-11-15T12:38:48Z</time>
      </trkpt>
      <trkpt lat="-40.1931660" lon="-71.3745010">
        <ele>881.8</ele>
        <time>2020-11-15T12:38:49Z</time>
      </trkpt>
      <trkpt lat="-40.1931970" lon="-71.3744770">
        <ele>881.9</ele>
        <time>2020-11-15T12:38:50Z</time>
      </trkpt>
      <trkpt lat="-40.1932300" lon="-71.3744550">
        <ele>882.1</ele>
        <time>2020-11-15T12:38:51Z</time>
      </trkpt>
      <trkpt lat="-40.1932970" lon="-71.3744170">
        <ele>882.3</ele>
        <time>2020-11-15T12:38:53Z</time>
      </trkpt>
      <trkpt lat="-40.1933290" lon="-71.3743980">
        <ele>882.4</ele>
        <time>2020-11-15T12:38:54Z</time>
      </trkpt>
      <trkpt lat="-40.1933590" lon="-71.3743780">
        <ele>882.5</ele>
        <time>2020-11-15T12:38:55Z</time>
      </trkpt>
      <trkpt lat="-40.1933890" lon="-71.3743590">
        <ele>882.6</ele>
        <time>2020-11-15T12:38:56Z</time>
      </trkpt>
      <trkpt lat="-40.1934200" lon="-71.3743410">
        <ele>882.7</ele>
        <time>2020-11-15T12:38:57Z</time>
      </trkpt>
      <trkpt lat="-40.1934510" lon="-71.3743230">
        <ele>882.9</ele>
        <time>2020-11-15T12:38:58Z</time>
      </trkpt>
      <trkpt lat="-40.1934820" lon="-71.3743080">
        <ele>883.0</ele>
        <time>2020-11-15T12:38:59Z</time>
      </trkpt>
      <trkpt lat="-40.1935140" lon="-71.3742960">
        <ele>883.1</ele>
        <time>2020-11-15T12:39:00Z</time>
      </trkpt>
      <trkpt lat="-40.1934690" lon="-71.3742810">
        <ele>883.0</ele>
        <time>2020-11-15T14:38:30Z</time>
      </trkpt>
      <trkpt lat="-40.1935050" lon="-71.3742670">
        <ele>883.1</ele>
        <time>2020-11-15T14:38:31Z</time>
      </trkpt>
      <trkpt lat="-40.1935400" lon="-71.3742550">
        <ele>883.2</ele>
        <time>2020-11-15T14:38:32Z</time>
      </trkpt>
      <trkpt lat="-40.1935740" lon="-71.3742460">
        <ele>883.4</ele>
        <time>2020-11-15T14:38:33Z</time>
      </trkpt>
      <trkpt lat="-40.1936080" lon="-71.3742370">
        <ele>883.5</ele>
        <time>2020-11-15T14:38:34Z</time>
      </trkpt>
      <trkpt lat="-40.1936420" lon="-71.3742270">
        <ele>883.6</ele>
        <time>2020-11-15T14:38:35Z</time>
      </trkpt>
      <trkpt lat="-40.1936770" lon="-71.3742180">
        <ele>883.8</ele>
        <time>2020-11-15T14:38:36Z</time>
      </trkpt>
      <trkpt lat="-40.1937110" lon="-71.3742100">
        <ele>883.9</ele>
        <time>2020-11-15T14:38:37Z</time>
      </trkpt>
      <trkpt lat="-40.1937470" lon="-71.3742040">
        <ele>884.0</ele>
        <time>2020-11-15T14:38:38Z</time>
      </trkpt>
      <trkpt lat="-40.1937810" lon="-71.3741970">
        <ele>884.1</ele>
        <time>2020-11-15T14:38:39Z</time>
      </trkpt>
      <trkpt lat="-40.1938150" lon="-71.3741890">
        <ele>884.3</ele>
        <time>2020-11-15T14:38:40Z</time>
      </trkpt>
      <trkpt lat="-40.1938460" lon="-71.3741830">
        <ele>884.4</ele>
        <time>2020-11-15T14:38:41Z</time>
      </trkpt>
      <trkpt lat="-40.1938790" lon="-71.3741810">
        <ele>884.5</ele>
        <time>2020-11-15T14:38:42Z</time>
      </trkpt>
      <trkpt lat="-40.1939140" lon="-71.3741810">
        <ele>884.7</ele>
        <time>2020-11-15T14:38:43Z</time>
      </trkpt>
      <trkpt lat="-40.1939510" lon="-71.3741800">
        <ele>884.8</ele>
        <time>2020-11-15T14:38:44Z</time>
      </trkpt>
      <trkpt lat="-40.1939880" lon="-71.3741800">
        <ele>885.0</ele>
        <time>2020-11-15T14:38:45Z</time>
      </trkpt>
      <trkpt lat="-40.1940220" lon="-71.3741780">
        <ele>885.2</ele>
        <time>2020-11-15T14:38:46Z</time>
      </trkpt>
      <trkpt lat="-40.1940540" lon="-71.3741760">
        <ele>885.4</ele>
        <time>2020-11-15T14:38:47Z</time>
      </trkpt>
      <trkpt lat="-40.1940900" lon="-71.3741780">
        <ele>885.6</ele>
        <time>2020-11-15T14:38:48Z</time>
      </trkpt>
      <trkpt lat="-40.1941230" lon="-71.3741770">
        <ele>885.8</ele>
        <time>2020-11-15T14:38:49Z</time>
      </trkpt>
      <trkpt lat="-40.1941530" lon="-71.3741740">
        <ele>885.9</ele>
        <time>2020-11-15T14:38:50Z</time>
      </trkpt>
      <trkpt lat="-40.1941870" lon="-71.3741750">
        <ele>886.1</ele>
        <time>2020-11-15T14:38:51Z</time>
      </trkpt>
      <trkpt lat="-40.1942210" lon="-71.3741730">
        <ele>886.3</ele>
        <time>2020-11-15T14:38:52Z</time>
      </trkpt>
      <trkpt lat="-40.1942540" lon="-71.3741700">
        <ele>886.5</ele>
        <time>2020-11-15T14:38:53Z</time>
      </trkpt>
      <trkpt lat="-40.1942890" lon="-71.3741730">
        <ele>886.7</ele>
        <time>2020-11-15T14:38:54Z</time>
      </trkpt>
      <trkpt lat="-40.1943230" lon="-71.3741740">
        <ele>886.9</ele>
        <time>2020-11-15T14:38:55Z</time>
      </trkpt>
      <trkpt lat="-40.1943570" lon="-71.3741750">
        <ele>887.1</ele>
        <time>2020-11-15T14:38:56Z</time>
      </trkpt>
      <trkpt lat="-40.1943890" lon="-71.3741760">
        <ele>887.3</ele>
        <time>2020-11-15T14:38:57Z</time>
      </trkpt>
      <trkpt lat="-40.1944240" lon="-71.3741770">
        <ele>887.5</ele>
        <time>2020-11-15T14:38:58Z</time>
      </trkpt>
      <trkpt lat="-40.1944560" lon="-71.3741730">
        <ele>887.6</ele>
        <time>2020-11-15T14:38:59Z</time>
      </trkpt>
      <trkpt lat="-40.1944910" lon="-71.3741750">
        <ele>887.8</ele>
        <time>2020-11-15T14:39:00Z</time>
      </trkpt>
      <trkpt lat="-40.1945280" lon="-71.3741760">
        <ele>888.0</ele>
        <time>2020-11-15T14:39:01Z</time>
      </trkpt>
      <trkpt lat="-40.1945600" lon="-71.3741730">
        <ele>888.2</ele>
        <time>2020-11-15T14:39:02Z</time>
      </trkpt>
      <trkpt lat="-40.1945910" lon="-71.3741700">
        <ele>888.3</ele>
        <time>2020-11-15T14:39:03Z</time>
      </trkpt>
      <trkpt lat="-40.1946250" lon="-71.3741670">
        <ele>888.5</ele>
        <time>2020-11-15T14:39:04Z</time>
      </trkpt>
      <trkpt lat="-40.1946600" lon="-71.3741650">
        <ele>888.7</ele>
        <time>2020-11-15T14:39:05Z</time>
      </trkpt>
      <trkpt lat="-40.1946950" lon="-71.3741630">
        <ele>888.9</ele>
        <time>2020-11-15T14:39:06Z</time>
      </trkpt>
      <trkpt lat="-40.1947300" lon="-71.3741640">
        <ele>889.0</ele>
        <time>2020-11-15T14:39:07Z</time>
      </trkpt>
      <trkpt lat="-40.1947650" lon="-71.3741630">
        <ele>889.2</ele>
        <time>2020-11-15T14:39:08Z</time>
      </trkpt>
      <trkpt lat="-40.1947990" lon="-71.3741600">
        <ele>889.4</ele>
        <time>2020-11-15T14:39:09Z</time>
      </trkpt>
      <trkpt lat="-40.1948310" lon="-71.3741530">
        <ele>889.5</ele>
        <time>2020-11-15T14:39:10Z</time>
      </trkpt>
      <trkpt lat="-40.1948630" lon="-71.3741500">
        <ele>889.7</ele>
        <time>2020-11-15T14:39:11Z</time>
      </trkpt>
      <trkpt lat="-40.1948980" lon="-71.3741490">
        <ele>889.9</ele>
        <time>2020-11-15T14:39:12Z</time>
      </trkpt>
      <trkpt lat="-40.1949340" lon="-71.3741450">
        <ele>890.1</ele>
        <time>2020-11-15T14:39:13Z</time>
      </trkpt>
      <trkpt lat="-40.1949660" lon="-71.3741380">
        <ele>890.2</ele>
        <time>2020-11-15T14:39:14Z</time>
      </trkpt>
      <trkpt lat="-40.1950010" lon="-71.3741360">
        <ele>890.4</ele>
        <time>2020-11-15T14:39:15Z</time>
      </trkpt>
      <trkpt lat="-40.1950350" lon="-71.3741340">
        <ele>890.6</ele>
        <time>2020-11-15T14:39:16Z</time>
      </trkpt>
      <trkpt lat="-40.1950700" lon="-71.3741310">
        <ele>890.8</ele>
        <time>2020-11-15T14:39:17Z</time>
      </trkpt>
      <trkpt lat="-40.1951050" lon="-71.3741290">
        <ele>890.9</ele>
        <time>2020-11-15T14:39:18Z</time>
      </trkpt>
      <trkpt lat="-40.1951390" lon="-71.3741290">
        <ele>891.1</ele>
        <time>2020-11-15T14:39:19Z</time>
      </trkpt>
      <trkpt lat="-40.1951730" lon="-71.3741270">
        <ele>891.3</ele>
        <time>2020-11-15T14:39:20Z</time>
      </trkpt>
      <trkpt lat="-40.1952070" lon="-71.3741240">
        <ele>891.4</ele>
        <time>2020-11-15T14:39:21Z</time>
      </trkpt>
      <trkpt lat="-40.1952420" lon="-71.3741210">
        <ele>891.6</ele>
        <time>2020-11-15T14:39:22Z</time>
      </trkpt>
      <trkpt lat="-40.1952760" lon="-71.3741190">
        <ele>891.8</ele>
        <time>2020-11-15T14:39:23Z</time>
      </trkpt>
      <trkpt lat="-40.1953130" lon="-71.3741200">
        <ele>891.9</ele>
        <time>2020-11-15T14:39:24Z</time>
      </trkpt>
      <trkpt lat="-40.1953480" lon="-71.3741180">
        <ele>892.1</ele>
        <time>2020-11-15T14:39:25Z</time>
      </trkpt>
      <trkpt lat="-40.1953830" lon="-71.3741180">
        <ele>892.3</ele>
        <time>2020-11-15T14:39:26Z</time>
      </trkpt>
      <trkpt lat="-40.1954180" lon="-71.3741190">
        <ele>892.5</ele>
        <time>2020-11-15T14:39:27Z</time>
      </trkpt>
      <trkpt lat="-40.1954530" lon="-71.3741170">
        <ele>892.6</ele>
        <time>2020-11-15T14:39:28Z</time>
      </trkpt>
      <trkpt lat="-40.1954890" lon="-71.3741130">
        <ele>892.8</ele>
        <time>2020-11-15T14:39:29Z</time>
      </trkpt>
      <trkpt lat="-40.1955260" lon="-71.3741100">
        <ele>893.0</ele>
        <time>2020-11-15T14:39:30Z</time>
      </trkpt>
      <trkpt lat="-40.1955600" lon="-71.3741040">
        <ele>893.1</ele>
        <time>2020-11-15T14:39:31Z</time>
      </trkpt>
      <trkpt lat="-40.1955950" lon="-71.3740980">
        <ele>893.3</ele>
        <time>2020-11-15T14:39:32Z</time>
      </trkpt>
      <trkpt lat="-40.1956300" lon="-71.3740890">
        <ele>893.4</ele>
        <time>2020-11-15T14:39:33Z</time>
      </trkpt>
      <trkpt lat="-40.1956630" lon="-71.3740780">
        <ele>893.6</ele>
        <time>2020-11-15T14:39:34Z</time>
      </trkpt>
      <trkpt lat="-40.1956970" lon="-71.3740700">
        <ele>893.7</ele>
        <time>2020-11-15T14:39:35Z</time>
      </trkpt>
      <trkpt lat="-40.1957300" lon="-71.3740610">
        <ele>893.9</ele>
        <time>2020-11-15T14:39:36Z</time>
      </trkpt>
      <trkpt lat="-40.1957620" lon="-71.3740510">
        <ele>894.0</ele>
        <time>2020-11-15T14:39:37Z</time>
      </trkpt>
      <trkpt lat="-40.1957940" lon="-71.3740410">
        <ele>894.2</ele>
        <time>2020-11-15T14:39:38Z</time>
      </trkpt>
      <trkpt lat="-40.1958280" lon="-71.3740300">
        <ele>894.3</ele>
        <time>2020-11-15T14:39:39Z</time>
      </trkpt>
      <trkpt lat="-40.1958600" lon="-71.3740190">
        <ele>894.4</ele>
        <time>2020-11-15T14:39:40Z</time>
      </trkpt>
      <trkpt lat="-40.1958930" lon="-71.3740050">
        <ele>894.6</ele>
        <time>2020-11-15T14:39:41Z</time>
      </trkpt>
      <trkpt lat="-40.1959250" lon="-71.3739890">
        <ele>894.7</ele>
        <time>2020-11-15T14:39:42Z</time>
      </trkpt>
      <trkpt lat="-40.1959580" lon="-71.3739710">
        <ele>894.8</ele>
        <time>2020-11-15T14:39:43Z</time>
      </trkpt>
      <trkpt lat="-40.1959880" lon="-71.3739490">
        <ele>894.9</ele>
        <time>2020-11-15T14:39:44Z</time>
      </trkpt>
      <trkpt lat="-40.1960200" lon="-71.3739270">
        <ele>895.1</ele>
        <time>2020-11-15T14:39:45Z</time>
      </trkpt>
      <trkpt lat="-40.1960490" lon="-71.3739020">
        <ele>895.2</ele>
        <time>2020-11-15T14:39:46Z</time>
      </trkpt>
      <trkpt lat="-40.1960790" lon="-71.3738760">
        <ele>895.3</ele>
        <time>2020-11-15T14:39:47Z</time>
      </trkpt>
      <trkpt lat="-40.1961090" lon="-71.3738500">
        <ele>895.4</ele>
        <time>2020-11-15T14:39:48Z</time>
      </trkpt>
      <trkpt lat="-40.1961390" lon="-71.3738220">
        <ele>895.5</ele>
        <time>2020-11-15T14:39:49Z</time>
      </trkpt>
      <trkpt lat="-40.1961670" lon="-71.3737890">
        <ele>895.6</ele>
        <time>2020-11-15T14:39:50Z</time>
      </trkpt>
      <trkpt lat="-40.1961930" lon="-71.3737540">
        <ele>895.7</ele>
        <time>2020-11-15T14:39:51Z</time>
      </trkpt>
      <trkpt lat="-40.1962190" lon="-71.3737150">
        <ele>895.7</ele>
        <time>2020-11-15T14:39:52Z</time>
      </trkpt>
      <trkpt lat="-40.1962460" lon="-71.3736780">
        <ele>895.8</ele>
        <time>2020-11-15T14:39:53Z</time>
      </trkpt>
      <trkpt lat="-40.1962710" lon="-71.3736350">
        <ele>895.9</ele>
        <time>2020-11-15T14:39:54Z</time>
      </trkpt>
      <trkpt lat="-40.1962970" lon="-71.3735920">
        <ele>896.0</ele>
        <time>2020-11-15T14:39:55Z</time>
      </trkpt>
      <trkpt lat="-40.1963210" lon="-71.3735510">
        <ele>896.1</ele>
        <time>2020-11-15T14:39:56Z</time>
      </trkpt>
      <trkpt lat="-40.1963460" lon="-71.3735080">
        <ele>896.2</ele>
        <time>2020-11-15T14:39:57Z</time>
      </trkpt>
      <trkpt lat="-40.1963700" lon="-71.3734650">
        <ele>896.2</ele>
        <time>2020-11-15T14:39:58Z</time>
      </trkpt>
      <trkpt lat="-40.1963910" lon="-71.3734190">
        <ele>896.3</ele>
        <time>2020-11-15T14:39:59Z</time>
      </trkpt>
      <trkpt lat="-40.1964120" lon="-71.3733700">
        <ele>896.3</ele>
        <time>2020-11-15T14:40:00Z</time>
      </trkpt>
      <trkpt lat="-40.1964360" lon="-71.3733250">
        <ele>896.4</ele>
        <time>2020-11-15T14:40:01Z</time>
      </trkpt>
      <trkpt lat="-40.1964610" lon="-71.3732790">
        <ele>896.5</ele>
        <time>2020-11-15T14:40:02Z</time>
      </trkpt>
      <trkpt lat="-40.1964890" lon="-71.3732350">
        <ele>896.5</ele>
        <time>2020-11-15T14:40:03Z</time>
      </trkpt>
      <trkpt lat="-40.1965160" lon="-71.3731910">
        <ele>896.6</ele>
        <time>2020-11-15T14:40:04Z</time>
      </trkpt>
      <trkpt lat="-40.1965440" lon="-71.3731450">
        <ele>896.6</ele>
        <time>2020-11-15T14:40:05Z</time>
      </trkpt>
      <trkpt lat="-40.1965720" lon="-71.3730980">
        <ele>896.7</ele>
        <time>2020-11-15T14:40:06Z</time>
      </trkpt>
      <trkpt lat="-40.1965980" lon="-71.3730500">
        <ele>896.8</ele>
        <time>2020-11-15T14:40:07Z</time>
      </trkpt>
      <trkpt lat="-40.1966250" lon="-71.3730030">
        <ele>896.8</ele>
        <time>2020-11-15T14:40:08Z</time>
      </trkpt>
      <trkpt lat="-40.1966550" lon="-71.3729590">
        <ele>896.9</ele>
        <time>2020-11-15T14:40:09Z</time>
      </trkpt>
      <trkpt lat="-40.1966860" lon="-71.3729160">
        <ele>897.0</ele>
        <time>2020-11-15T14:40:10Z</time>
      </trkpt>
      <trkpt lat="-40.1967150" lon="-71.3728700">
        <ele>897.1</ele>
        <time>2020-11-15T14:40:11Z</time>
      </trkpt>
      <trkpt lat="-40.1967460" lon="-71.3728270">
        <ele>897.3</ele>
        <time>2020-11-15T14:40:12Z</time>
      </trkpt>
      <trkpt lat="-40.1967770" lon="-71.3727880">
        <ele>897.4</ele>
        <time>2020-11-15T14:40:13Z</time>
      </trkpt>
      <trkpt lat="-40.1968090" lon="-71.3727480">
        <ele>897.6</ele>
        <time>2020-11-15T14:40:14Z</time>
      </trkpt>
      <trkpt lat="-40.1968430" lon="-71.3727120">
        <ele>897.7</ele>
        <time>2020-11-15T14:40:15Z</time>
      </trkpt>
      <trkpt lat="-40.1968750" lon="-71.3726760">
        <ele>897.9</ele>
        <time>2020-11-15T14:40:16Z</time>
      </trkpt>
      <trkpt lat="-40.1969080" lon="-71.3726430">
        <ele>898.1</ele>
        <time>2020-11-15T14:40:17Z</time>
      </trkpt>
      <trkpt lat="-40.1969420" lon="-71.3726150">
        <ele>898.3</ele>
        <time>2020-11-15T14:40:18Z</time>
      </trkpt>
      <trkpt lat="-40.1969730" lon="-71.3725860">
        <ele>898.4</ele>
        <time>2020-11-15T14:40:19Z</time>
      </trkpt>
      <trkpt lat="-40.1970000" lon="-71.3725560">
        <ele>898.6</ele>
        <time>2020-11-15T14:40:20Z</time>
      </trkpt>
      <trkpt lat="-40.1970320" lon="-71.3725310">
        <ele>898.7</ele>
        <time>2020-11-15T14:40:21Z</time>
      </trkpt>
      <trkpt lat="-40.1970640" lon="-71.3725080">
        <ele>898.9</ele>
        <time>2020-11-15T14:40:22Z</time>
      </trkpt>
      <trkpt lat="-40.1971040" lon="-71.3724920">
        <ele>899.1</ele>
        <time>2020-11-15T14:40:23Z</time>
      </trkpt>
      <trkpt lat="-40.1971410" lon="-71.3724720">
        <ele>899.3</ele>
        <time>2020-11-15T14:40:24Z</time>
      </trkpt>
      <trkpt lat="-40.1971770" lon="-71.3724550">
        <ele>899.5</ele>
        <time>2020-11-15T14:40:25Z</time>
      </trkpt>
      <trkpt lat="-40.1972130" lon="-71.3724400">
        <ele>899.7</ele>
        <time>2020-11-15T14:40:26Z</time>
      </trkpt>
      <trkpt lat="-40.1972500" lon="-71.3724250">
        <ele>899.9</ele>
        <time>2020-11-15T14:40:27Z</time>
      </trkpt>
      <trkpt lat="-40.1972870" lon="-71.3724070">
        <ele>900.1</ele>
        <time>2020-11-15T14:40:28Z</time>
      </trkpt>
      <trkpt lat="-40.1973200" lon="-71.3723870">
        <ele>900.3</ele>
        <time>2020-11-15T14:40:29Z</time>
      </trkpt>
      <trkpt lat="-40.1973540" lon="-71.3723670">
        <ele>900.5</ele>
        <time>2020-11-15T14:40:30Z</time>
      </trkpt>
      <trkpt lat="-40.1973870" lon="-71.3723490">
        <ele>900.6</ele>
        <time>2020-11-15T14:40:31Z</time>
      </trkpt>
      <trkpt lat="-40.1974210" lon="-71.3723320">
        <ele>900.8</ele>
        <time>2020-11-15T14:40:32Z</time>
      </trkpt>
      <trkpt lat="-40.1974530" lon="-71.3723160">
        <ele>901.0</ele>
        <time>2020-11-15T14:40:33Z</time>
      </trkpt>
      <trkpt lat="-40.1974850" lon="-71.3722990">
        <ele>901.2</ele>
        <time>2020-11-15T14:40:34Z</time>
      </trkpt>
      <trkpt lat="-40.1975210" lon="-71.3722850">
        <ele>901.4</ele>
        <time>2020-11-15T14:40:35Z</time>
      </trkpt>
      <trkpt lat="-40.1975550" lon="-71.3722670">
        <ele>901.6</ele>
        <time>2020-11-15T14:40:36Z</time>
      </trkpt>
      <trkpt lat="-40.1975900" lon="-71.3722510">
        <ele>901.8</ele>
        <time>2020-11-15T14:40:37Z</time>
      </trkpt>
      <trkpt lat="-40.1976230" lon="-71.3722350">
        <ele>902.0</ele>
        <time>2020-11-15T14:40:38Z</time>
      </trkpt>
      <trkpt lat="-40.1976570" lon="-71.3722160">
        <ele>902.2</ele>
        <time>2020-11-15T14:40:39Z</time>
      </trkpt>
      <trkpt lat="-40.1976920" lon="-71.3721970">
        <ele>902.4</ele>
        <time>2020-11-15T14:40:40Z</time>
      </trkpt>
      <trkpt lat="-40.1977260" lon="-71.3721790">
        <ele>902.6</ele>
        <time>2020-11-15T14:40:41Z</time>
      </trkpt>
      <trkpt lat="-40.1977590" lon="-71.3721600">
        <ele>902.8</ele>
        <time>2020-11-15T14:40:42Z</time>
      </trkpt>
      <trkpt lat="-40.1977920" lon="-71.3721400">
        <ele>903.0</ele>
        <time>2020-11-15T14:40:43Z</time>
      </trkpt>
      <trkpt lat="-40.1978240" lon="-71.3721180">
        <ele>903.2</ele>
        <time>2020-11-15T14:40:44Z</time>
      </trkpt>
      <trkpt lat="-40.1978560" lon="-71.3720980">
        <ele>903.4</ele>
        <time>2020-11-15T14:40:45Z</time>
      </trkpt>
      <trkpt lat="-40.1978860" lon="-71.3720770">
        <ele>903.6</ele>
        <time>2020-11-15T14:40:46Z</time>
      </trkpt>
      <trkpt lat="-40.1979160" lon="-71.3720530">
        <ele>903.8</ele>
        <time>2020-11-15T14:40:47Z</time>
      </trkpt>
      <trkpt lat="-40.1979460" lon="-71.3720260">
        <ele>904.0</ele>
        <time>2020-11-15T14:40:48Z</time>
      </trkpt>
      <trkpt lat="-40.1979780" lon="-71.3720040">
        <ele>904.2</ele>
        <time>2020-11-15T14:40:49Z</time>
      </trkpt>
      <trkpt lat="-40.1980080" lon="-71.3719780">
        <ele>904.4</ele>
        <time>2020-11-15T14:40:50Z</time>
      </trkpt>
      <trkpt lat="-40.1980390" lon="-71.3719550">
        <ele>904.6</ele>
        <time>2020-11-15T14:40:51Z</time>
      </trkpt>
      <trkpt lat="-40.1980700" lon="-71.3719300">
        <ele>904.8</ele>
        <time>2020-11-15T14:40:52Z</time>
      </trkpt>
      <trkpt lat="-40.1981010" lon="-71.3719080">
        <ele>905.0</ele>
        <time>2020-11-15T14:40:53Z</time>
      </trkpt>
      <trkpt lat="-40.1981320" lon="-71.3718860">
        <ele>905.2</ele>
        <time>2020-11-15T14:40:54Z</time>
      </trkpt>
      <trkpt lat="-40.1981640" lon="-71.3718640">
        <ele>905.4</ele>
        <time>2020-11-15T14:40:55Z</time>
      </trkpt>
      <trkpt lat="-40.1981970" lon="-71.3718450">
        <ele>905.6</ele>
        <time>2020-11-15T14:40:56Z</time>
      </trkpt>
      <trkpt lat="-40.1982280" lon="-71.3718230">
        <ele>905.8</ele>
        <time>2020-11-15T14:40:57Z</time>
      </trkpt>
      <trkpt lat="-40.1982590" lon="-71.3718010">
        <ele>906.0</ele>
        <time>2020-11-15T14:40:58Z</time>
      </trkpt>
      <trkpt lat="-40.1982930" lon="-71.3717840">
        <ele>906.2</ele>
        <time>2020-11-15T14:40:59Z</time>
      </trkpt>
      <trkpt lat="-40.1983260" lon="-71.3717680">
        <ele>906.4</ele>
        <time>2020-11-15T14:41:00Z</time>
      </trkpt>
      <trkpt lat="-40.1983570" lon="-71.3717490">
        <ele>906.6</ele>
        <time>2020-11-15T14:41:01Z</time>
      </trkpt>
      <trkpt lat="-40.1983870" lon="-71.3717270">
        <ele>906.7</ele>
        <time>2020-11-15T14:41:02Z</time>
      </trkpt>
      <trkpt lat="-40.1984160" lon="-71.3717050">
        <ele>906.9</ele>
        <time>2020-11-15T14:41:03Z</time>
      </trkpt>
      <trkpt lat="-40.1984450" lon="-71.3716830">
        <ele>907.1</ele>
        <time>2020-11-15T14:41:04Z</time>
      </trkpt>
      <trkpt lat="-40.1984730" lon="-71.3716620">
        <ele>907.3</ele>
        <time>2020-11-15T14:41:05Z</time>
      </trkpt>
      <trkpt lat="-40.1985020" lon="-71.3716420">
        <ele>907.4</ele>
        <time>2020-11-15T14:41:06Z</time>
      </trkpt>
      <trkpt lat="-40.1985340" lon="-71.3716230">
        <ele>907.6</ele>
        <time>2020-11-15T14:41:07Z</time>
      </trkpt>
      <trkpt lat="-40.1985660" lon="-71.3716010">
        <ele>907.8</ele>
        <time>2020-11-15T14:41:08Z</time>
      </trkpt>
      <trkpt lat="-40.1985970" lon="-71.3715810">
        <ele>908.0</ele>
        <time>2020-11-15T14:41:09Z</time>
      </trkpt>
      <trkpt lat="-40.1986280" lon="-71.3715610">
        <ele>908.2</ele>
        <time>2020-11-15T14:41:10Z</time>
      </trkpt>
      <trkpt lat="-40.1986600" lon="-71.3715410">
        <ele>908.4</ele>
        <time>2020-11-15T14:41:11Z</time>
      </trkpt>
      <trkpt lat="-40.1986900" lon="-71.3715180">
        <ele>908.5</ele>
        <time>2020-11-15T14:41:12Z</time>
      </trkpt>
      <trkpt lat="-40.1987210" lon="-71.3714960">
        <ele>908.7</ele>
        <time>2020-11-15T14:41:13Z</time>
      </trkpt>
      <trkpt lat="-40.1987500" lon="-71.3714700">
        <ele>908.9</ele>
        <time>2020-11-15T14:41:14Z</time>
      </trkpt>
      <trkpt lat="-40.1987780" lon="-71.3714470">
        <ele>909.1</ele>
        <time>2020-11-15T14:41:15Z</time>
      </trkpt>
      <trkpt lat="-40.1988080" lon="-71.3714250">
        <ele>909.3</ele>
        <time>2020-11-15T14:41:16Z</time>
      </trkpt>
      <trkpt lat="-40.1988360" lon="-71.3714020">
        <ele>909.4</ele>
        <time>2020-11-15T14:41:17Z</time>
      </trkpt>
      <trkpt lat="-40.1988630" lon="-71.3713790">
        <ele>909.6</ele>
        <time>2020-11-15T14:41:18Z</time>
      </trkpt>
      <trkpt lat="-40.1988910" lon="-71.3713560">
        <ele>909.8</ele>
        <time>2020-11-15T14:41:19Z</time>
      </trkpt>
      <trkpt lat="-40.1989190" lon="-71.3713330">
        <ele>909.9</ele>
        <time>2020-11-15T14:41:20Z</time>
      </trkpt>
      <trkpt lat="-40.1989500" lon="-71.3713090">
        <ele>910.1</ele>
        <time>2020-11-15T14:41:21Z</time>
      </trkpt>
      <trkpt lat="-40.1989800" lon="-71.3712830">
        <ele>910.2</ele>
        <time>2020-11-15T14:41:22Z</time>
      </trkpt>
      <trkpt lat="-40.1990070" lon="-71.3712570">
        <ele>910.4</ele>
        <time>2020-11-15T14:41:23Z</time>
      </trkpt>
      <trkpt lat="-40.1990350" lon="-71.3712310">
        <ele>910.5</ele>
        <time>2020-11-15T14:41:24Z</time>
      </trkpt>
      <trkpt lat="-40.1990610" lon="-71.3712020">
        <ele>910.7</ele>
        <time>2020-11-15T14:41:25Z</time>
      </trkpt>
      <trkpt lat="-40.1990850" lon="-71.3711700">
        <ele>910.8</ele>
        <time>2020-11-15T14:41:26Z</time>
      </trkpt>
      <trkpt lat="-40.1991110" lon="-71.3711390">
        <ele>911.0</ele>
        <time>2020-11-15T14:41:27Z</time>
      </trkpt>
      <trkpt lat="-40.1991370" lon="-71.3711080">
        <ele>911.2</ele>
        <time>2020-11-15T14:41:28Z</time>
      </trkpt>
      <trkpt lat="-40.1991590" lon="-71.3710740">
        <ele>911.3</ele>
        <time>2020-11-15T14:41:29Z</time>
      </trkpt>
      <trkpt lat="-40.1991810" lon="-71.3710400">
        <ele>911.5</ele>
        <time>2020-11-15T14:41:30Z</time>
      </trkpt>
      <trkpt lat="-40.1991990" lon="-71.3710010">
        <ele>911.6</ele>
        <time>2020-11-15T14:41:31Z</time>
      </trkpt>
      <trkpt lat="-40.1992200" lon="-71.3709620">
        <ele>911.8</ele>
        <time>2020-11-15T14:41:32Z</time>
      </trkpt>
      <trkpt lat="-40.1992400" lon="-71.3709250">
        <ele>912.0</ele>
        <time>2020-11-15T14:41:33Z</time>
      </trkpt>
      <trkpt lat="-40.1992590" lon="-71.3708860">
        <ele>912.2</ele>
        <time>2020-11-15T14:41:34Z</time>
      </trkpt>
      <trkpt lat="-40.1992720" lon="-71.3708390">
        <ele>912.3</ele>
        <time>2020-11-15T14:41:35Z</time>
      </trkpt>
      <trkpt lat="-40.1992870" lon="-71.3707960">
        <ele>912.5</ele>
        <time>2020-11-15T14:41:36Z</time>
      </trkpt>
      <trkpt lat="-40.1993030" lon="-71.3707540">
        <ele>912.7</ele>
        <time>2020-11-15T14:41:37Z</time>
      </trkpt>
      <trkpt lat="-40.1993190" lon="-71.3707110">
        <ele>912.9</ele>
        <time>2020-11-15T14:41:38Z</time>
      </trkpt>
      <trkpt lat="-40.1993340" lon="-71.3706690">
        <ele>913.0</ele>
        <time>2020-11-15T14:41:39Z</time>
      </trkpt>
      <trkpt lat="-40.1993490" lon="-71.3706280">
        <ele>913.2</ele>
        <time>2020-11-15T14:41:40Z</time>
      </trkpt>
      <trkpt lat="-40.1993670" lon="-71.3705870">
        <ele>913.4</ele>
        <time>2020-11-15T14:41:41Z</time>
      </trkpt>
      <trkpt lat="-40.1993820" lon="-71.3705460">
        <ele>913.6</ele>
        <time>2020-11-15T14:41:42Z</time>
      </trkpt>
      <trkpt lat="-40.1994000" lon="-71.3705060">
        <ele>913.8</ele>
        <time>2020-11-15T14:41:43Z</time>
      </trkpt>
      <trkpt lat="-40.1994170" lon="-71.3704680">
        <ele>914.0</ele>
        <time>2020-11-15T14:41:44Z</time>
      </trkpt>
      <trkpt lat="-40.1994330" lon="-71.3704260">
        <ele>914.2</ele>
        <time>2020-11-15T14:41:45Z</time>
      </trkpt>
      <trkpt lat="-40.1994500" lon="-71.3703840">
        <ele>914.4</ele>
        <time>2020-11-15T14:41:46Z</time>
      </trkpt>
      <trkpt lat="-40.1994680" lon="-71.3703450">
        <ele>914.5</ele>
        <time>2020-11-15T14:41:47Z</time>
      </trkpt>
      <trkpt lat="-40.1994870" lon="-71.3703060">
        <ele>914.7</ele>
        <time>2020-11-15T14:41:48Z</time>
      </trkpt>
      <trkpt lat="-40.1995060" lon="-71.3702650">
        <ele>914.9</ele>
        <time>2020-11-15T14:41:49Z</time>
      </trkpt>
      <trkpt lat="-40.1995230" lon="-71.3702210">
        <ele>915.1</ele>
        <time>2020-11-15T14:41:50Z</time>
      </trkpt>
      <trkpt lat="-40.1995420" lon="-71.3701810">
        <ele>915.2</ele>
        <time>2020-11-15T14:41:51Z</time>
      </trkpt>
      <trkpt lat="-40.1995620" lon="-71.3701400">
        <ele>915.4</ele>
        <time>2020-11-15T14:41:52Z</time>
      </trkpt>
      <trkpt lat="-40.1995840" lon="-71.3701020">
        <ele>915.6</ele>
        <time>2020-11-15T14:41:53Z</time>
      </trkpt>
      <trkpt lat="-40.1996080" lon="-71.3700660">
        <ele>915.8</ele>
        <time>2020-11-15T14:41:54Z</time>
      </trkpt>
      <trkpt lat="-40.1996330" lon="-71.3700290">
        <ele>916.0</ele>
        <time>2020-11-15T14:41:55Z</time>
      </trkpt>
      <trkpt lat="-40.1996560" lon="-71.3699930">
        <ele>916.2</ele>
        <time>2020-11-15T14:41:56Z</time>
      </trkpt>
      <trkpt lat="-40.1996810" lon="-71.3699580">
        <ele>916.4</ele>
        <time>2020-11-15T14:41:57Z</time>
      </trkpt>
      <trkpt lat="-40.1997080" lon="-71.3699260">
        <ele>916.7</ele>
        <time>2020-11-15T14:41:58Z</time>
      </trkpt>
      <trkpt lat="-40.1997370" lon="-71.3698970">
        <ele>916.9</ele>
        <time>2020-11-15T14:41:59Z</time>
      </trkpt>
      <trkpt lat="-40.1997640" lon="-71.3698670">
        <ele>917.1</ele>
        <time>2020-11-15T14:42:00Z</time>
      </trkpt>
      <trkpt lat="-40.1997890" lon="-71.3698360">
        <ele>917.3</ele>
        <time>2020-11-15T14:42:01Z</time>
      </trkpt>
      <trkpt lat="-40.1998150" lon="-71.3698080">
        <ele>917.4</ele>
        <time>2020-11-15T14:42:02Z</time>
      </trkpt>
      <trkpt lat="-40.1998410" lon="-71.3697790">
        <ele>917.6</ele>
        <time>2020-11-15T14:42:03Z</time>
      </trkpt>
      <trkpt lat="-40.1998680" lon="-71.3697510">
        <ele>917.8</ele>
        <time>2020-11-15T14:42:04Z</time>
      </trkpt>
      <trkpt lat="-40.1998950" lon="-71.3697270">
        <ele>918.0</ele>
        <time>2020-11-15T14:42:05Z</time>
      </trkpt>
      <trkpt lat="-40.1999240" lon="-71.3697040">
        <ele>918.1</ele>
        <time>2020-11-15T14:42:06Z</time>
      </trkpt>
      <trkpt lat="-40.1999540" lon="-71.3696810">
        <ele>918.3</ele>
        <time>2020-11-15T14:42:07Z</time>
      </trkpt>
      <trkpt lat="-40.1999840" lon="-71.3696560">
        <ele>918.5</ele>
        <time>2020-11-15T14:42:08Z</time>
      </trkpt>
      <trkpt lat="-40.2000120" lon="-71.3696280">
        <ele>918.7</ele>
        <time>2020-11-15T14:42:09Z</time>
      </trkpt>
      <trkpt lat="-40.2000410" lon="-71.3696020">
        <ele>918.9</ele>
        <time>2020-11-15T14:42:10Z</time>
      </trkpt>
      <trkpt lat="-40.2000690" lon="-71.3695790">
        <ele>919.0</ele>
        <time>2020-11-15T14:42:11Z</time>
      </trkpt>
      <trkpt lat="-40.2000970" lon="-71.3695560">
        <ele>919.2</ele>
        <time>2020-11-15T14:42:12Z</time>
      </trkpt>
      <trkpt lat="-40.2001240" lon="-71.3695310">
        <ele>919.4</ele>
        <time>2020-11-15T14:42:13Z</time>
      </trkpt>
      <trkpt lat="-40.2001510" lon="-71.3695050">
        <ele>919.6</ele>
        <time>2020-11-15T14:42:14Z</time>
      </trkpt>
      <trkpt lat="-40.2001780" lon="-71.3694810">
        <ele>919.8</ele>
        <time>2020-11-15T14:42:15Z</time>
      </trkpt>
      <trkpt lat="-40.2002070" lon="-71.3694590">
        <ele>920.0</ele>
        <time>2020-11-15T14:42:16Z</time>
      </trkpt>
      <trkpt lat="-40.2002370" lon="-71.3694400">
        <ele>920.2</ele>
        <time>2020-11-15T14:42:17Z</time>
      </trkpt>
      <trkpt lat="-40.2002640" lon="-71.3694170">
        <ele>920.4</ele>
        <time>2020-11-15T14:42:18Z</time>
      </trkpt>
      <trkpt lat="-40.2002890" lon="-71.3693950">
        <ele>920.6</ele>
        <time>2020-11-15T14:42:19Z</time>
      </trkpt>
      <trkpt lat="-40.2003100" lon="-71.3693680">
        <ele>920.8</ele>
        <time>2020-11-15T14:42:20Z</time>
      </trkpt>
      <trkpt lat="-40.2003310" lon="-71.3693440">
        <ele>920.9</ele>
        <time>2020-11-15T14:42:21Z</time>
      </trkpt>
      <trkpt lat="-40.2003510" lon="-71.3693150">
        <ele>921.1</ele>
        <time>2020-11-15T14:42:22Z</time>
      </trkpt>
      <trkpt lat="-40.2003730" lon="-71.3692890">
        <ele>921.3</ele>
        <time>2020-11-15T14:42:23Z</time>
      </trkpt>
      <trkpt lat="-40.2003950" lon="-71.3692620">
        <ele>921.5</ele>
        <time>2020-11-15T14:42:24Z</time>
      </trkpt>
      <trkpt lat="-40.2004170" lon="-71.3692340">
        <ele>921.7</ele>
        <time>2020-11-15T14:42:25Z</time>
      </trkpt>
      <trkpt lat="-40.2004390" lon="-71.3692070">
        <ele>921.8</ele>
        <time>2020-11-15T14:42:26Z</time>
      </trkpt>
      <trkpt lat="-40.2004610" lon="-71.3691800">
        <ele>922.0</ele>
        <time>2020-11-15T14:42:27Z</time>
      </trkpt>
      <trkpt lat="-40.2004810" lon="-71.3691490">
        <ele>922.2</ele>
        <time>2020-11-15T14:42:28Z</time>
      </trkpt>
      <trkpt lat="-40.2005010" lon="-71.3691180">
        <ele>922.4</ele>
        <time>2020-11-15T14:42:29Z</time>
      </trkpt>
      <trkpt lat="-40.2005210" lon="-71.3690850">
        <ele>922.6</ele>
        <time>2020-11-15T14:42:30Z</time>
      </trkpt>
      <trkpt lat="-40.2005420" lon="-71.3690540">
        <ele>922.7</ele>
        <time>2020-11-15T14:42:31Z</time>
      </trkpt>
      <trkpt lat="-40.2005630" lon="-71.3690260">
        <ele>922.9</ele>
        <time>2020-11-15T14:42:32Z</time>
      </trkpt>
      <trkpt lat="-40.2005830" lon="-71.3689970">
        <ele>923.1</ele>
        <time>2020-11-15T14:42:33Z</time>
      </trkpt>
      <trkpt lat="-40.2006040" lon="-71.3689670">
        <ele>923.3</ele>
        <time>2020-11-15T14:42:34Z</time>
      </trkpt>
      <trkpt lat="-40.2006250" lon="-71.3689350">
        <ele>923.4</ele>
        <time>2020-11-15T14:42:35Z</time>
      </trkpt>
      <trkpt lat="-40.2006470" lon="-71.3689030">
        <ele>923.6</ele>
        <time>2020-11-15T14:42:36Z</time>
      </trkpt>
      <trkpt lat="-40.2006660" lon="-71.3688690">
        <ele>923.8</ele>
        <time>2020-11-15T14:42:37Z</time>
      </trkpt>
      <trkpt lat="-40.2006860" lon="-71.3688360">
        <ele>924.0</ele>
        <time>2020-11-15T14:42:38Z</time>
      </trkpt>
      <trkpt lat="-40.2007060" lon="-71.3688050">
        <ele>924.2</ele>
        <time>2020-11-15T14:42:39Z</time>
      </trkpt>
      <trkpt lat="-40.2007250" lon="-71.3687720">
        <ele>924.4</ele>
        <time>2020-11-15T14:42:40Z</time>
      </trkpt>
      <trkpt lat="-40.2007410" lon="-71.3687370">
        <ele>924.5</ele>
        <time>2020-11-15T14:42:41Z</time>
      </trkpt>
      <trkpt lat="-40.2007620" lon="-71.3687070">
        <ele>924.7</ele>
        <time>2020-11-15T14:42:42Z</time>
      </trkpt>
      <trkpt lat="-40.2007840" lon="-71.3686780">
        <ele>924.9</ele>
        <time>2020-11-15T14:42:43Z</time>
      </trkpt>
      <trkpt lat="-40.2008040" lon="-71.3686500">
        <ele>925.1</ele>
        <time>2020-11-15T14:42:44Z</time>
      </trkpt>
      <trkpt lat="-40.2008240" lon="-71.3686220">
        <ele>925.3</ele>
        <time>2020-11-15T14:42:45Z</time>
      </trkpt>
      <trkpt lat="-40.2008460" lon="-71.3685970">
        <ele>925.5</ele>
        <time>2020-11-15T14:42:46Z</time>
      </trkpt>
      <trkpt lat="-40.2008640" lon="-71.3685660">
        <ele>925.7</ele>
        <time>2020-11-15T14:42:47Z</time>
      </trkpt>
      <trkpt lat="-40.2008850" lon="-71.3685350">
        <ele>925.9</ele>
        <time>2020-11-15T14:42:48Z</time>
      </trkpt>
      <trkpt lat="-40.2009080" lon="-71.3685050">
        <ele>926.0</ele>
        <time>2020-11-15T14:42:49Z</time>
      </trkpt>
      <trkpt lat="-40.2009320" lon="-71.3684750">
        <ele>926.2</ele>
        <time>2020-11-15T14:42:50Z</time>
      </trkpt>
      <trkpt lat="-40.2009540" lon="-71.3684460">
        <ele>926.4</ele>
        <time>2020-11-15T14:42:51Z</time>
      </trkpt>
      <trkpt lat="-40.2009770" lon="-71.3684160">
        <ele>926.6</ele>
        <time>2020-11-15T14:42:52Z</time>
      </trkpt>
      <trkpt lat="-40.2010010" lon="-71.3683890">
        <ele>926.7</ele>
        <time>2020-11-15T14:42:53Z</time>
      </trkpt>
      <trkpt lat="-40.2010250" lon="-71.3683600">
        <ele>926.9</ele>
        <time>2020-11-15T14:42:54Z</time>
      </trkpt>
      <trkpt lat="-40.2010480" lon="-71.3683330">
        <ele>927.0</ele>
        <time>2020-11-15T14:42:55Z</time>
      </trkpt>
      <trkpt lat="-40.2010710" lon="-71.3683060">
        <ele>927.1</ele>
        <time>2020-11-15T14:42:56Z</time>
      </trkpt>
      <trkpt lat="-40.2010940" lon="-71.3682780">
        <ele>927.3</ele>
        <time>2020-11-15T14:42:57Z</time>
      </trkpt>
      <trkpt lat="-40.2011170" lon="-71.3682490">
        <ele>927.5</ele>
        <time>2020-11-15T14:42:58Z</time>
      </trkpt>
      <trkpt lat="-40.2011400" lon="-71.3682220">
        <ele>927.6</ele>
        <time>2020-11-15T14:42:59Z</time>
      </trkpt>
      <trkpt lat="-40.2011630" lon="-71.3681950">
        <ele>927.8</ele>
        <time>2020-11-15T14:43:00Z</time>
      </trkpt>
      <trkpt lat="-40.2011870" lon="-71.3681690">
        <ele>928.0</ele>
        <time>2020-11-15T14:43:01Z</time>
      </trkpt>
      <trkpt lat="-40.2012120" lon="-71.3681440">
        <ele>928.2</ele>
        <time>2020-11-15T14:43:02Z</time>
      </trkpt>
      <trkpt lat="-40.2012350" lon="-71.3681170">
        <ele>928.4</ele>
        <time>2020-11-15T14:43:03Z</time>
      </trkpt>
      <trkpt lat="-40.2012580" lon="-71.3680890">
        <ele>928.6</ele>
        <time>2020-11-15T14:43:04Z</time>
      </trkpt>
      <trkpt lat="-40.2012810" lon="-71.3680620">
        <ele>928.8</ele>
        <time>2020-11-15T14:43:05Z</time>
      </trkpt>
      <trkpt lat="-40.2013050" lon="-71.3680370">
        <ele>929.1</ele>
        <time>2020-11-15T14:43:06Z</time>
      </trkpt>
      <trkpt lat="-40.2013260" lon="-71.3680100">
        <ele>929.3</ele>
        <time>2020-11-15T14:43:07Z</time>
      </trkpt>
      <trkpt lat="-40.2013490" lon="-71.3679850">
        <ele>929.5</ele>
        <time>2020-11-15T14:43:08Z</time>
      </trkpt>
      <trkpt lat="-40.2013720" lon="-71.3679600">
        <ele>929.7</ele>
        <time>2020-11-15T14:43:09Z</time>
      </trkpt>
      <trkpt lat="-40.2013930" lon="-71.3679340">
        <ele>929.9</ele>
        <time>2020-11-15T14:43:10Z</time>
      </trkpt>
      <trkpt lat="-40.2014130" lon="-71.3679050">
        <ele>930.1</ele>
        <time>2020-11-15T14:43:11Z</time>
      </trkpt>
      <trkpt lat="-40.2014330" lon="-71.3678740">
        <ele>930.3</ele>
        <time>2020-11-15T14:43:12Z</time>
      </trkpt>
      <trkpt lat="-40.2014520" lon="-71.3678470">
        <ele>930.4</ele>
        <time>2020-11-15T14:43:13Z</time>
      </trkpt>
      <trkpt lat="-40.2014700" lon="-71.3678160">
        <ele>930.7</ele>
        <time>2020-11-15T14:43:14Z</time>
      </trkpt>
      <trkpt lat="-40.2014900" lon="-71.3677880">
        <ele>930.8</ele>
        <time>2020-11-15T14:43:15Z</time>
      </trkpt>
      <trkpt lat="-40.2015090" lon="-71.3677610">
        <ele>931.0</ele>
        <time>2020-11-15T14:43:16Z</time>
      </trkpt>
      <trkpt lat="-40.2015280" lon="-71.3677330">
        <ele>931.2</ele>
        <time>2020-11-15T14:43:17Z</time>
      </trkpt>
      <trkpt lat="-40.2015450" lon="-71.3677030">
        <ele>931.4</ele>
        <time>2020-11-15T14:43:18Z</time>
      </trkpt>
      <trkpt lat="-40.2015630" lon="-71.3676740">
        <ele>931.6</ele>
        <time>2020-11-15T14:43:19Z</time>
      </trkpt>
      <trkpt lat="-40.2015810" lon="-71.3676440">
        <ele>931.8</ele>
        <time>2020-11-15T14:43:20Z</time>
      </trkpt>
      <trkpt lat="-40.2015990" lon="-71.3676140">
        <ele>932.0</ele>
        <time>2020-11-15T14:43:21Z</time>
      </trkpt>
      <trkpt lat="-40.2016160" lon="-71.3675800">
        <ele>932.2</ele>
        <time>2020-11-15T14:43:22Z</time>
      </trkpt>
      <trkpt lat="-40.2016310" lon="-71.3675410">
        <ele>932.4</ele>
        <time>2020-11-15T14:43:23Z</time>
      </trkpt>
      <trkpt lat="-40.2016430" lon="-71.3675000">
        <ele>932.6</ele>
        <time>2020-11-15T14:43:24Z</time>
      </trkpt>
      <trkpt lat="-40.2016540" lon="-71.3674600">
        <ele>932.8</ele>
        <time>2020-11-15T14:43:25Z</time>
      </trkpt>
      <trkpt lat="-40.2016660" lon="-71.3674220">
        <ele>933.0</ele>
        <time>2020-11-15T14:43:26Z</time>
      </trkpt>
      <trkpt lat="-40.2016750" lon="-71.3673810">
        <ele>933.1</ele>
        <time>2020-11-15T14:43:27Z</time>
      </trkpt>
      <trkpt lat="-40.2016840" lon="-71.3673380">
        <ele>933.3</ele>
        <time>2020-11-15T14:43:28Z</time>
      </trkpt>
      <trkpt lat="-40.2016900" lon="-71.3672930">
        <ele>933.5</ele>
        <time>2020-11-15T14:43:29Z</time>
      </trkpt>
      <trkpt lat="-40.2016980" lon="-71.3672510">
        <ele>933.6</ele>
        <time>2020-11-15T14:43:30Z</time>
      </trkpt>
      <trkpt lat="-40.2017020" lon="-71.3672050">
        <ele>933.7</ele>
        <time>2020-11-15T14:43:31Z</time>
      </trkpt>
      <trkpt lat="-40.2017050" lon="-71.3671600">
        <ele>933.9</ele>
        <time>2020-11-15T14:43:32Z</time>
      </trkpt>
      <trkpt lat="-40.2017070" lon="-71.3671170">
        <ele>934.0</ele>
        <time>2020-11-15T14:43:33Z</time>
      </trkpt>
      <trkpt lat="-40.2017030" lon="-71.3670710">
        <ele>934.1</ele>
        <time>2020-11-15T14:43:34Z</time>
      </trkpt>
      <trkpt lat="-40.2017000" lon="-71.3670260">
        <ele>934.2</ele>
        <time>2020-11-15T14:43:35Z</time>
      </trkpt>
      <trkpt lat="-40.2016970" lon="-71.3669810">
        <ele>934.3</ele>
        <time>2020-11-15T14:43:36Z</time>
      </trkpt>
      <trkpt lat="-40.2016930" lon="-71.3669370">
        <ele>934.4</ele>
        <time>2020-11-15T14:43:37Z</time>
      </trkpt>
      <trkpt lat="-40.2016850" lon="-71.3668900">
        <ele>934.5</ele>
        <time>2020-11-15T14:43:38Z</time>
      </trkpt>
      <trkpt lat="-40.2016740" lon="-71.3668430">
        <ele>934.5</ele>
        <time>2020-11-15T14:43:39Z</time>
      </trkpt>
      <trkpt lat="-40.2016620" lon="-71.3667950">
        <ele>934.6</ele>
        <time>2020-11-15T14:43:40Z</time>
      </trkpt>
      <trkpt lat="-40.2016470" lon="-71.3667480">
        <ele>934.7</ele>
        <time>2020-11-15T14:43:41Z</time>
      </trkpt>
      <trkpt lat="-40.2016330" lon="-71.3667020">
        <ele>934.7</ele>
        <time>2020-11-15T14:43:42Z</time>
      </trkpt>
      <trkpt lat="-40.2016170" lon="-71.3666570">
        <ele>934.8</ele>
        <time>2020-11-15T14:43:43Z</time>
      </trkpt>
      <trkpt lat="-40.2015970" lon="-71.3666130">
        <ele>934.8</ele>
        <time>2020-11-15T14:43:44Z</time>
      </trkpt>
      <trkpt lat="-40.2015760" lon="-71.3665710">
        <ele>934.9</ele>
        <time>2020-11-15T14:43:45Z</time>
      </trkpt>
      <trkpt lat="-40.2015540" lon="-71.3665280">
        <ele>934.9</ele>
        <time>2020-11-15T14:43:46Z</time>
      </trkpt>
      <trkpt lat="-40.2015280" lon="-71.3664870">
        <ele>935.0</ele>
        <time>2020-11-15T14:43:47Z</time>
      </trkpt>
      <trkpt lat="-40.2014990" lon="-71.3664460">
        <ele>935.0</ele>
        <time>2020-11-15T14:43:48Z</time>
      </trkpt>
      <trkpt lat="-40.2014680" lon="-71.3664070">
        <ele>935.0</ele>
        <time>2020-11-15T14:43:49Z</time>
      </trkpt>
      <trkpt lat="-40.2014360" lon="-71.3663680">
        <ele>935.0</ele>
        <time>2020-11-15T14:43:50Z</time>
      </trkpt>
      <trkpt lat="-40.2014010" lon="-71.3663310">
        <ele>935.1</ele>
        <time>2020-11-15T14:43:51Z</time>
      </trkpt>
      <trkpt lat="-40.2013650" lon="-71.3662940">
        <ele>935.1</ele>
        <time>2020-11-15T14:43:52Z</time>
      </trkpt>
      <trkpt lat="-40.2013270" lon="-71.3662570">
        <ele>935.1</ele>
        <time>2020-11-15T14:43:53Z</time>
      </trkpt>
      <trkpt lat="-40.2012880" lon="-71.3662210">
        <ele>935.2</ele>
        <time>2020-11-15T14:43:54Z</time>
      </trkpt>
      <trkpt lat="-40.2012500" lon="-71.3661840">
        <ele>935.2</ele>
        <time>2020-11-15T14:43:55Z</time>
      </trkpt>
      <trkpt lat="-40.2012120" lon="-71.3661470">
        <ele>935.3</ele>
        <time>2020-11-15T14:43:56Z</time>
      </trkpt>
      <trkpt lat="-40.2011730" lon="-71.3661100">
        <ele>935.4</ele>
        <time>2020-11-15T14:43:57Z</time>
      </trkpt>
      <trkpt lat="-40.2011340" lon="-71.3660740">
        <ele>935.5</ele>
        <time>2020-11-15T14:43:58Z</time>
      </trkpt>
      <trkpt lat="-40.2010960" lon="-71.3660380">
        <ele>935.6</ele>
        <time>2020-11-15T14:43:59Z</time>
      </trkpt>
      <trkpt lat="-40.2010580" lon="-71.3660030">
        <ele>935.7</ele>
        <time>2020-11-15T14:44:00Z</time>
      </trkpt>
      <trkpt lat="-40.2010210" lon="-71.3659680">
        <ele>935.9</ele>
        <time>2020-11-15T14:44:01Z</time>
      </trkpt>
      <trkpt lat="-40.2009850" lon="-71.3659350">
        <ele>936.0</ele>
        <time>2020-11-15T14:44:02Z</time>
      </trkpt>
      <trkpt lat="-40.2009500" lon="-71.3659030">
        <ele>936.3</ele>
        <time>2020-11-15T14:44:03Z</time>
      </trkpt>
      <trkpt lat="-40.2009150" lon="-71.3658730">
        <ele>936.5</ele>
        <time>2020-11-15T14:44:04Z</time>
      </trkpt>
      <trkpt lat="-40.2008800" lon="-71.3658420">
        <ele>936.7</ele>
        <time>2020-11-15T14:44:05Z</time>
      </trkpt>
      <trkpt lat="-40.2008470" lon="-71.3658150">
        <ele>936.9</ele>
        <time>2020-11-15T14:44:06Z</time>
      </trkpt>
      <trkpt lat="-40.2008130" lon="-71.3657900">
        <ele>937.1</ele>
        <time>2020-11-15T14:44:07Z</time>
      </trkpt>
      <trkpt lat="-40.2007780" lon="-71.3657620">
        <ele>937.3</ele>
        <time>2020-11-15T14:44:08Z</time>
      </trkpt>
      <trkpt lat="-40.2007430" lon="-71.3657360">
        <ele>937.5</ele>
        <time>2020-11-15T14:44:09Z</time>
      </trkpt>
      <trkpt lat="-40.2007060" lon="-71.3657100">
        <ele>937.7</ele>
        <time>2020-11-15T14:44:10Z</time>
      </trkpt>
      <trkpt lat="-40.2006700" lon="-71.3656830">
        <ele>937.9</ele>
        <time>2020-11-15T14:44:11Z</time>
      </trkpt>
      <trkpt lat="-40.2006330" lon="-71.3656580">
        <ele>938.2</ele>
        <time>2020-11-15T14:44:12Z</time>
      </trkpt>
      <trkpt lat="-40.2005970" lon="-71.3656370">
        <ele>938.4</ele>
        <time>2020-11-15T14:44:13Z</time>
      </trkpt>
      <trkpt lat="-40.2005610" lon="-71.3656170">
        <ele>938.6</ele>
        <time>2020-11-15T14:44:14Z</time>
      </trkpt>
      <trkpt lat="-40.2005240" lon="-71.3655980">
        <ele>938.8</ele>
        <time>2020-11-15T14:44:15Z</time>
      </trkpt>
      <trkpt lat="-40.2004870" lon="-71.3655820">
        <ele>939.1</ele>
        <time>2020-11-15T14:44:16Z</time>
      </trkpt>
      <trkpt lat="-40.2004510" lon="-71.3655670">
        <ele>939.3</ele>
        <time>2020-11-15T14:44:17Z</time>
      </trkpt>
      <trkpt lat="-40.2004140" lon="-71.3655510">
        <ele>939.5</ele>
        <time>2020-11-15T14:44:18Z</time>
      </trkpt>
      <trkpt lat="-40.2003780" lon="-71.3655340">
        <ele>939.7</ele>
        <time>2020-11-15T14:44:19Z</time>
      </trkpt>
      <trkpt lat="-40.2003410" lon="-71.3655190">
        <ele>939.9</ele>
        <time>2020-11-15T14:44:20Z</time>
      </trkpt>
      <trkpt lat="-40.2003050" lon="-71.3655030">
        <ele>940.1</ele>
        <time>2020-11-15T14:44:21Z</time>
      </trkpt>
      <trkpt lat="-40.2002690" lon="-71.3654910">
        <ele>940.3</ele>
        <time>2020-11-15T14:44:22Z</time>
      </trkpt>
      <trkpt lat="-40.2002330" lon="-71.3654810">
        <ele>940.6</ele>
        <time>2020-11-15T14:44:23Z</time>
      </trkpt>
      <trkpt lat="-40.2001980" lon="-71.3654760">
        <ele>940.8</ele>
        <time>2020-11-15T14:44:24Z</time>
      </trkpt>
      <trkpt lat="-40.2001630" lon="-71.3654710">
        <ele>941.0</ele>
        <time>2020-11-15T14:44:25Z</time>
      </trkpt>
      <trkpt lat="-40.2001300" lon="-71.3654670">
        <ele>941.2</ele>
        <time>2020-11-15T14:44:26Z</time>
      </trkpt>
      <trkpt lat="-40.2000960" lon="-71.3654640">
        <ele>941.4</ele>
        <time>2020-11-15T14:44:27Z</time>
      </trkpt>
      <trkpt lat="-40.2000620" lon="-71.3654610">
        <ele>941.6</ele>
        <time>2020-11-15T14:44:28Z</time>
      </trkpt>
      <trkpt lat="-40.2000270" lon="-71.3654580">
        <ele>941.8</ele>
        <time>2020-11-15T14:44:29Z</time>
      </trkpt>
      <trkpt lat="-40.1999920" lon="-71.3654590">
        <ele>942.0</ele>
        <time>2020-11-15T14:44:30Z</time>
      </trkpt>
      <trkpt lat="-40.1999580" lon="-71.3654610">
        <ele>942.1</ele>
        <time>2020-11-15T14:44:31Z</time>
      </trkpt>
      <trkpt lat="-40.1999220" lon="-71.3654620">
        <ele>942.3</ele>
        <time>2020-11-15T14:44:32Z</time>
      </trkpt>
      <trkpt lat="-40.1998860" lon="-71.3654640">
        <ele>942.5</ele>
        <time>2020-11-15T14:44:33Z</time>
      </trkpt>
      <trkpt lat="-40.1998520" lon="-71.3654660">
        <ele>942.7</ele>
        <time>2020-11-15T14:44:34Z</time>
      </trkpt>
      <trkpt lat="-40.1998180" lon="-71.3654690">
        <ele>942.9</ele>
        <time>2020-11-15T14:44:35Z</time>
      </trkpt>
      <trkpt lat="-40.1997820" lon="-71.3654720">
        <ele>943.1</ele>
        <time>2020-11-15T14:44:36Z</time>
      </trkpt>
      <trkpt lat="-40.1997460" lon="-71.3654740">
        <ele>943.3</ele>
        <time>2020-11-15T14:44:37Z</time>
      </trkpt>
      <trkpt lat="-40.1997090" lon="-71.3654760">
        <ele>943.5</ele>
        <time>2020-11-15T14:44:38Z</time>
      </trkpt>
      <trkpt lat="-40.1996740" lon="-71.3654790">
        <ele>943.7</ele>
        <time>2020-11-15T14:44:39Z</time>
      </trkpt>
      <trkpt lat="-40.1996370" lon="-71.3654830">
        <ele>943.8</ele>
        <time>2020-11-15T14:44:40Z</time>
      </trkpt>
      <trkpt lat="-40.1996010" lon="-71.3654850">
        <ele>944.0</ele>
        <time>2020-11-15T14:44:41Z</time>
      </trkpt>
      <trkpt lat="-40.1995660" lon="-71.3654880">
        <ele>944.2</ele>
        <time>2020-11-15T14:44:42Z</time>
      </trkpt>
      <trkpt lat="-40.1995270" lon="-71.3654950">
        <ele>944.4</ele>
        <time>2020-11-15T14:44:43Z</time>
      </trkpt>
      <trkpt lat="-40.1994900" lon="-71.3655000">
        <ele>944.5</ele>
        <time>2020-11-15T14:44:44Z</time>
      </trkpt>
      <trkpt lat="-40.1994480" lon="-71.3655060">
        <ele>944.7</ele>
        <time>2020-11-15T14:44:45Z</time>
      </trkpt>
      <trkpt lat="-40.1994080" lon="-71.3655110">
        <ele>944.9</ele>
        <time>2020-11-15T14:44:46Z</time>
      </trkpt>
      <trkpt lat="-40.1993690" lon="-71.3655170">
        <ele>945.0</ele>
        <time>2020-11-15T14:44:47Z</time>
      </trkpt>
      <trkpt lat="-40.1993340" lon="-71.3655190">
        <ele>945.1</ele>
        <time>2020-11-15T14:44:48Z</time>
      </trkpt>
      <trkpt lat="-40.1992970" lon="-71.3655210">
        <ele>945.2</ele>
        <time>2020-11-15T14:44:49Z</time>
      </trkpt>
      <trkpt lat="-40.1992590" lon="-71.3655240">
        <ele>945.3</ele>
        <time>2020-11-15T14:44:50Z</time>
      </trkpt>
      <trkpt lat="-40.1992220" lon="-71.3655240">
        <ele>945.4</ele>
        <time>2020-11-15T14:44:51Z</time>
      </trkpt>
      <trkpt lat="-40.1991840" lon="-71.3655270">
        <ele>945.5</ele>
        <time>2020-11-15T14:44:52Z</time>
      </trkpt>
      <trkpt lat="-40.1991440" lon="-71.3655290">
        <ele>945.6</ele>
        <time>2020-11-15T14:44:53Z</time>
      </trkpt>
      <trkpt lat="-40.1991050" lon="-71.3655270">
        <ele>945.6</ele>
        <time>2020-11-15T14:44:54Z</time>
      </trkpt>
      <trkpt lat="-40.1990620" lon="-71.3655250">
        <ele>945.7</ele>
        <time>2020-11-15T14:44:55Z</time>
      </trkpt>
      <trkpt lat="-40.1990220" lon="-71.3655230">
        <ele>945.7</ele>
        <time>2020-11-15T14:44:56Z</time>
      </trkpt>
      <trkpt lat="-40.1989770" lon="-71.3655200">
        <ele>945.8</ele>
        <time>2020-11-15T14:44:57Z</time>
      </trkpt>
      <trkpt lat="-40.1989320" lon="-71.3655150">
        <ele>945.8</ele>
        <time>2020-11-15T14:44:58Z</time>
      </trkpt>
      <trkpt lat="-40.1988870" lon="-71.3655070">
        <ele>945.8</ele>
        <time>2020-11-15T14:44:59Z</time>
      </trkpt>
      <trkpt lat="-40.1988420" lon="-71.3654970">
        <ele>945.8</ele>
        <time>2020-11-15T14:45:00Z</time>
      </trkpt>
      <trkpt lat="-40.1987960" lon="-71.3654870">
        <ele>945.8</ele>
        <time>2020-11-15T14:45:01Z</time>
      </trkpt>
      <trkpt lat="-40.1987500" lon="-71.3654750">
        <ele>945.8</ele>
        <time>2020-11-15T14:45:02Z</time>
      </trkpt>
      <trkpt lat="-40.1987040" lon="-71.3654600">
        <ele>945.8</ele>
        <time>2020-11-15T14:45:03Z</time>
      </trkpt>
      <trkpt lat="-40.1986560" lon="-71.3654390">
        <ele>945.7</ele>
        <time>2020-11-15T14:45:04Z</time>
      </trkpt>
      <trkpt lat="-40.1986070" lon="-71.3654140">
        <ele>945.7</ele>
        <time>2020-11-15T14:45:05Z</time>
      </trkpt>
      <trkpt lat="-40.1985550" lon="-71.3653850">
        <ele>945.6</ele>
        <time>2020-11-15T14:45:06Z</time>
      </trkpt>
      <trkpt lat="-40.1985000" lon="-71.3653540">
        <ele>945.6</ele>
        <time>2020-11-15T14:45:07Z</time>
      </trkpt>
      <trkpt lat="-40.1984450" lon="-71.3653160">
        <ele>945.5</ele>
        <time>2020-11-15T14:45:08Z</time>
      </trkpt>
      <trkpt lat="-40.1983930" lon="-71.3652710">
        <ele>945.4</ele>
        <time>2020-11-15T14:45:09Z</time>
      </trkpt>
      <trkpt lat="-40.1983410" lon="-71.3652250">
        <ele>945.4</ele>
        <time>2020-11-15T14:45:10Z</time>
      </trkpt>
      <trkpt lat="-40.1982880" lon="-71.3651760">
        <ele>945.3</ele>
        <time>2020-11-15T14:45:11Z</time>
      </trkpt>
      <trkpt lat="-40.1982360" lon="-71.3651230">
        <ele>945.2</ele>
        <time>2020-11-15T14:45:12Z</time>
      </trkpt>
      <trkpt lat="-40.1981840" lon="-71.3650640">
        <ele>945.2</ele>
        <time>2020-11-15T14:45:13Z</time>
      </trkpt>
      <trkpt lat="-40.1981330" lon="-71.3650010">
        <ele>945.1</ele>
        <time>2020-11-15T14:45:14Z</time>
      </trkpt>
      <trkpt lat="-40.1980830" lon="-71.3649360">
        <ele>945.1</ele>
        <time>2020-11-15T14:45:15Z</time>
      </trkpt>
      <trkpt lat="-40.1980350" lon="-71.3648670">
        <ele>945.1</ele>
        <time>2020-11-15T14:45:16Z</time>
      </trkpt>
      <trkpt lat="-40.1979870" lon="-71.3647960">
        <ele>945.2</ele>
        <time>2020-11-15T14:45:17Z</time>
      </trkpt>
      <trkpt lat="-40.1979400" lon="-71.3647260">
        <ele>945.2</ele>
        <time>2020-11-15T14:45:18Z</time>
      </trkpt>
      <trkpt lat="-40.1978940" lon="-71.3646560">
        <ele>945.2</ele>
        <time>2020-11-15T14:45:19Z</time>
      </trkpt>
      <trkpt lat="-40.1978500" lon="-71.3645830">
        <ele>945.3</ele>
        <time>2020-11-15T14:45:20Z</time>
      </trkpt>
      <trkpt lat="-40.1978090" lon="-71.3645090">
        <ele>945.3</ele>
        <time>2020-11-15T14:45:21Z</time>
      </trkpt>
      <trkpt lat="-40.1977690" lon="-71.3644330">
        <ele>945.4</ele>
        <time>2020-11-15T14:45:22Z</time>
      </trkpt>
      <trkpt lat="-40.1977280" lon="-71.3643570">
        <ele>945.5</ele>
        <time>2020-11-15T14:45:23Z</time>
      </trkpt>
      <trkpt lat="-40.1976890" lon="-71.3642830">
        <ele>945.5</ele>
        <time>2020-11-15T14:45:24Z</time>
      </trkpt>
      <trkpt lat="-40.1976530" lon="-71.3642090">
        <ele>945.6</ele>
        <time>2020-11-15T14:45:25Z</time>
      </trkpt>
      <trkpt lat="-40.1976170" lon="-71.3641390">
        <ele>945.7</ele>
        <time>2020-11-15T14:45:26Z</time>
      </trkpt>
      <trkpt lat="-40.1975820" lon="-71.3640730">
        <ele>945.9</ele>
        <time>2020-11-15T14:45:27Z</time>
      </trkpt>
      <trkpt lat="-40.1975470" lon="-71.3640110">
        <ele>946.0</ele>
        <time>2020-11-15T14:45:28Z</time>
      </trkpt>
      <trkpt lat="-40.1975120" lon="-71.3639500">
        <ele>946.1</ele>
        <time>2020-11-15T14:45:29Z</time>
      </trkpt>
      <trkpt lat="-40.1974790" lon="-71.3638880">
        <ele>946.2</ele>
        <time>2020-11-15T14:45:30Z</time>
      </trkpt>
      <trkpt lat="-40.1974460" lon="-71.3638260">
        <ele>946.3</ele>
        <time>2020-11-15T14:45:31Z</time>
      </trkpt>
      <trkpt lat="-40.1974150" lon="-71.3637650">
        <ele>946.4</ele>
        <time>2020-11-15T14:45:32Z</time>
      </trkpt>
      <trkpt lat="-40.1973840" lon="-71.3637020">
        <ele>946.5</ele>
        <time>2020-11-15T14:45:33Z</time>
      </trkpt>
      <trkpt lat="-40.1973510" lon="-71.3636410">
        <ele>946.6</ele>
        <time>2020-11-15T14:45:34Z</time>
      </trkpt>
      <trkpt lat="-40.1973180" lon="-71.3635820">
        <ele>946.7</ele>
        <time>2020-11-15T14:45:35Z</time>
      </trkpt>
      <trkpt lat="-40.1972840" lon="-71.3635210">
        <ele>946.8</ele>
        <time>2020-11-15T14:45:36Z</time>
      </trkpt>
      <trkpt lat="-40.1972530" lon="-71.3634610">
        <ele>947.0</ele>
        <time>2020-11-15T14:45:37Z</time>
      </trkpt>
      <trkpt lat="-40.1972250" lon="-71.3634040">
        <ele>947.1</ele>
        <time>2020-11-15T14:45:38Z</time>
      </trkpt>
      <trkpt lat="-40.1971940" lon="-71.3633440">
        <ele>947.2</ele>
        <time>2020-11-15T14:45:39Z</time>
      </trkpt>
      <trkpt lat="-40.1971640" lon="-71.3632880">
        <ele>947.3</ele>
        <time>2020-11-15T14:45:40Z</time>
      </trkpt>
      <trkpt lat="-40.1971320" lon="-71.3632300">
        <ele>947.4</ele>
        <time>2020-11-15T14:45:41Z</time>
      </trkpt>
      <trkpt lat="-40.1971030" lon="-71.3631710">
        <ele>947.5</ele>
        <time>2020-11-15T14:45:42Z</time>
      </trkpt>
      <trkpt lat="-40.1970740" lon="-71.3631150">
        <ele>947.7</ele>
        <time>2020-11-15T14:45:43Z</time>
      </trkpt>
      <trkpt lat="-40.1970440" lon="-71.3630590">
        <ele>947.8</ele>
        <time>2020-11-15T14:45:44Z</time>
      </trkpt>
      <trkpt lat="-40.1970060" lon="-71.3630000">
        <ele>948.1</ele>
        <time>2020-11-15T14:45:45Z</time>
      </trkpt>
      <trkpt lat="-40.1969720" lon="-71.3629440">
        <ele>948.3</ele>
        <time>2020-11-15T14:45:46Z</time>
      </trkpt>
      <trkpt lat="-40.1969380" lon="-71.3628860">
        <ele>948.5</ele>
        <time>2020-11-15T14:45:47Z</time>
      </trkpt>
      <trkpt lat="-40.1969060" lon="-71.3628300">
        <ele>948.8</ele>
        <time>2020-11-15T14:45:48Z</time>
      </trkpt>
      <trkpt lat="-40.1968760" lon="-71.3627790">
        <ele>949.1</ele>
        <time>2020-11-15T14:45:49Z</time>
      </trkpt>
      <trkpt lat="-40.1968500" lon="-71.3627300">
        <ele>949.3</ele>
        <time>2020-11-15T14:45:50Z</time>
      </trkpt>
      <trkpt lat="-40.1968230" lon="-71.3626810">
        <ele>949.6</ele>
        <time>2020-11-15T14:45:51Z</time>
      </trkpt>
      <trkpt lat="-40.1967950" lon="-71.3626320">
        <ele>949.8</ele>
        <time>2020-11-15T14:45:52Z</time>
      </trkpt>
      <trkpt lat="-40.1967670" lon="-71.3625850">
        <ele>950.1</ele>
        <time>2020-11-15T14:45:53Z</time>
      </trkpt>
      <trkpt lat="-40.1967410" lon="-71.3625370">
        <ele>950.4</ele>
        <time>2020-11-15T14:45:54Z</time>
      </trkpt>
      <trkpt lat="-40.1967160" lon="-71.3624910">
        <ele>950.6</ele>
        <time>2020-11-15T14:45:55Z</time>
      </trkpt>
      <trkpt lat="-40.1966910" lon="-71.3624450">
        <ele>950.9</ele>
        <time>2020-11-15T14:45:56Z</time>
      </trkpt>
      <trkpt lat="-40.1966630" lon="-71.3624000">
        <ele>951.1</ele>
        <time>2020-11-15T14:45:57Z</time>
      </trkpt>
      <trkpt lat="-40.1966320" lon="-71.3623560">
        <ele>951.3</ele>
        <time>2020-11-15T14:45:58Z</time>
      </trkpt>
      <trkpt lat="-40.1966000" lon="-71.3623100">
        <ele>951.5</ele>
        <time>2020-11-15T14:45:59Z</time>
      </trkpt>
      <trkpt lat="-40.1965670" lon="-71.3622630">
        <ele>951.8</ele>
        <time>2020-11-15T14:46:00Z</time>
      </trkpt>
      <trkpt lat="-40.1965380" lon="-71.3622210">
        <ele>952.0</ele>
        <time>2020-11-15T14:46:01Z</time>
      </trkpt>
      <trkpt lat="-40.1965050" lon="-71.3621790">
        <ele>952.2</ele>
        <time>2020-11-15T14:46:02Z</time>
      </trkpt>
      <trkpt lat="-40.1964720" lon="-71.3621360">
        <ele>952.4</ele>
        <time>2020-11-15T14:46:03Z</time>
      </trkpt>
      <trkpt lat="-40.1964370" lon="-71.3620930">
        <ele>952.6</ele>
        <time>2020-11-15T14:46:04Z</time>
      </trkpt>
      <trkpt lat="-40.1964010" lon="-71.3620500">
        <ele>952.8</ele>
        <time>2020-11-15T14:46:05Z</time>
      </trkpt>
      <trkpt lat="-40.1963620" lon="-71.3620100">
        <ele>952.9</ele>
        <time>2020-11-15T14:46:06Z</time>
      </trkpt>
      <trkpt lat="-40.1963250" lon="-71.3619700">
        <ele>953.1</ele>
        <time>2020-11-15T14:46:07Z</time>
      </trkpt>
      <trkpt lat="-40.1962880" lon="-71.3619320">
        <ele>953.2</ele>
        <time>2020-11-15T14:46:08Z</time>
      </trkpt>
      <trkpt lat="-40.1962490" lon="-71.3618930">
        <ele>953.3</ele>
        <time>2020-11-15T14:46:09Z</time>
      </trkpt>
      <trkpt lat="-40.1962090" lon="-71.3618560">
        <ele>953.4</ele>
        <time>2020-11-15T14:46:10Z</time>
      </trkpt>
      <trkpt lat="-40.1961660" lon="-71.3618210">
        <ele>953.5</ele>
        <time>2020-11-15T14:46:11Z</time>
      </trkpt>
      <trkpt lat="-40.1961230" lon="-71.3617890">
        <ele>953.6</ele>
        <time>2020-11-15T14:46:12Z</time>
      </trkpt>
      <trkpt lat="-40.1960780" lon="-71.3617570">
        <ele>953.7</ele>
        <time>2020-11-15T14:46:13Z</time>
      </trkpt>
      <trkpt lat="-40.1960360" lon="-71.3617250">
        <ele>953.8</ele>
        <time>2020-11-15T14:46:14Z</time>
      </trkpt>
      <trkpt lat="-40.1959930" lon="-71.3616890">
        <ele>953.9</ele>
        <time>2020-11-15T14:46:15Z</time>
      </trkpt>
      <trkpt lat="-40.1959480" lon="-71.3616540">
        <ele>954.0</ele>
        <time>2020-11-15T14:46:16Z</time>
      </trkpt>
      <trkpt lat="-40.1959050" lon="-71.3616230">
        <ele>954.1</ele>
        <time>2020-11-15T14:46:17Z</time>
      </trkpt>
      <trkpt lat="-40.1958600" lon="-71.3615910">
        <ele>954.1</ele>
        <time>2020-11-15T14:46:18Z</time>
      </trkpt>
      <trkpt lat="-40.1958140" lon="-71.3615560">
        <ele>954.2</ele>
        <time>2020-11-15T14:46:19Z</time>
      </trkpt>
      <trkpt lat="-40.1957690" lon="-71.3615230">
        <ele>954.4</ele>
        <time>2020-11-15T14:46:20Z</time>
      </trkpt>
      <trkpt lat="-40.1957240" lon="-71.3614900">
        <ele>954.5</ele>
        <time>2020-11-15T14:46:21Z</time>
      </trkpt>
      <trkpt lat="-40.1956800" lon="-71.3614560">
        <ele>954.6</ele>
        <time>2020-11-15T14:46:22Z</time>
      </trkpt>
      <trkpt lat="-40.1956360" lon="-71.3614220">
        <ele>954.7</ele>
        <time>2020-11-15T14:46:23Z</time>
      </trkpt>
      <trkpt lat="-40.1955910" lon="-71.3613900">
        <ele>954.8</ele>
        <time>2020-11-15T14:46:24Z</time>
      </trkpt>
      <trkpt lat="-40.1955440" lon="-71.3613550">
        <ele>954.9</ele>
        <time>2020-11-15T14:46:25Z</time>
      </trkpt>
      <trkpt lat="-40.1954990" lon="-71.3613190">
        <ele>955.0</ele>
        <time>2020-11-15T14:46:26Z</time>
      </trkpt>
      <trkpt lat="-40.1954570" lon="-71.3612830">
        <ele>955.1</ele>
        <time>2020-11-15T14:46:27Z</time>
      </trkpt>
      <trkpt lat="-40.1954140" lon="-71.3612430">
        <ele>955.2</ele>
        <time>2020-11-15T14:46:28Z</time>
      </trkpt>
      <trkpt lat="-40.1953740" lon="-71.3611990">
        <ele>955.3</ele>
        <time>2020-11-15T14:46:29Z</time>
      </trkpt>
      <trkpt lat="-40.1953320" lon="-71.3611560">
        <ele>955.4</ele>
        <time>2020-11-15T14:46:30Z</time>
      </trkpt>
      <trkpt lat="-40.1952920" lon="-71.3611130">
        <ele>955.5</ele>
        <time>2020-11-15T14:46:31Z</time>
      </trkpt>
      <trkpt lat="-40.1952540" lon="-71.3610660">
        <ele>955.6</ele>
        <time>2020-11-15T14:46:32Z</time>
      </trkpt>
      <trkpt lat="-40.1952140" lon="-71.3610210">
        <ele>955.7</ele>
        <time>2020-11-15T14:46:33Z</time>
      </trkpt>
      <trkpt lat="-40.1951800" lon="-71.3609780">
        <ele>955.8</ele>
        <time>2020-11-15T14:46:34Z</time>
      </trkpt>
      <trkpt lat="-40.1951460" lon="-71.3609350">
        <ele>955.9</ele>
        <time>2020-11-15T14:46:35Z</time>
      </trkpt>
      <trkpt lat="-40.1951170" lon="-71.3608920">
        <ele>955.9</ele>
        <time>2020-11-15T14:46:36Z</time>
      </trkpt>
      <trkpt lat="-40.1950870" lon="-71.3608470">
        <ele>956.0</ele>
        <time>2020-11-15T14:46:37Z</time>
      </trkpt>
      <trkpt lat="-40.1950590" lon="-71.3608020">
        <ele>956.1</ele>
        <time>2020-11-15T14:46:38Z</time>
      </trkpt>
      <trkpt lat="-40.1950320" lon="-71.3607560">
        <ele>956.2</ele>
        <time>2020-11-15T14:46:39Z</time>
      </trkpt>
      <trkpt lat="-40.1950050" lon="-71.3607080">
        <ele>956.3</ele>
        <time>2020-11-15T14:46:40Z</time>
      </trkpt>
      <trkpt lat="-40.1949780" lon="-71.3606570">
        <ele>956.4</ele>
        <time>2020-11-15T14:46:41Z</time>
      </trkpt>
      <trkpt lat="-40.1949510" lon="-71.3606050">
        <ele>956.5</ele>
        <time>2020-11-15T14:46:42Z</time>
      </trkpt>
      <trkpt lat="-40.1949250" lon="-71.3605540">
        <ele>956.5</ele>
        <time>2020-11-15T14:46:43Z</time>
      </trkpt>
      <trkpt lat="-40.1949010" lon="-71.3605040">
        <ele>956.6</ele>
        <time>2020-11-15T14:46:44Z</time>
      </trkpt>
      <trkpt lat="-40.1948770" lon="-71.3604530">
        <ele>956.7</ele>
        <time>2020-11-15T14:46:45Z</time>
      </trkpt>
      <trkpt lat="-40.1948550" lon="-71.3604030">
        <ele>956.8</ele>
        <time>2020-11-15T14:46:46Z</time>
      </trkpt>
      <trkpt lat="-40.1948370" lon="-71.3603550">
        <ele>956.9</ele>
        <time>2020-11-15T14:46:47Z</time>
      </trkpt>
      <trkpt lat="-40.1948190" lon="-71.3603060">
        <ele>957.0</ele>
        <time>2020-11-15T14:46:48Z</time>
      </trkpt>
      <trkpt lat="-40.1947990" lon="-71.3602570">
        <ele>957.0</ele>
        <time>2020-11-15T14:46:49Z</time>
      </trkpt>
      <trkpt lat="-40.1947820" lon="-71.3602060">
        <ele>957.1</ele>
        <time>2020-11-15T14:46:50Z</time>
      </trkpt>
      <trkpt lat="-40.1947710" lon="-71.3601610">
        <ele>957.2</ele>
        <time>2020-11-15T14:46:51Z</time>
      </trkpt>
      <trkpt lat="-40.1947580" lon="-71.3601130">
        <ele>957.2</ele>
        <time>2020-11-15T14:46:52Z</time>
      </trkpt>
      <trkpt lat="-40.1947450" lon="-71.3600620">
        <ele>957.3</ele>
        <time>2020-11-15T14:46:53Z</time>
      </trkpt>
      <trkpt lat="-40.1947330" lon="-71.3600120">
        <ele>957.4</ele>
        <time>2020-11-15T14:46:54Z</time>
      </trkpt>
      <trkpt lat="-40.1947220" lon="-71.3599620">
        <ele>957.5</ele>
        <time>2020-11-15T14:46:55Z</time>
      </trkpt>
      <trkpt lat="-40.1947110" lon="-71.3599130">
        <ele>957.5</ele>
        <time>2020-11-15T14:46:56Z</time>
      </trkpt>
      <trkpt lat="-40.1946960" lon="-71.3598640">
        <ele>957.6</ele>
        <time>2020-11-15T14:46:57Z</time>
      </trkpt>
      <trkpt lat="-40.1946810" lon="-71.3598190">
        <ele>957.7</ele>
        <time>2020-11-15T14:46:58Z</time>
      </trkpt>
      <trkpt lat="-40.1946690" lon="-71.3597730">
        <ele>957.7</ele>
        <time>2020-11-15T14:46:59Z</time>
      </trkpt>
      <trkpt lat="-40.1946610" lon="-71.3597240">
        <ele>957.8</ele>
        <time>2020-11-15T14:47:00Z</time>
      </trkpt>
      <trkpt lat="-40.1946510" lon="-71.3596740">
        <ele>957.9</ele>
        <time>2020-11-15T14:47:01Z</time>
      </trkpt>
      <trkpt lat="-40.1946390" lon="-71.3596240">
        <ele>957.9</ele>
        <time>2020-11-15T14:47:02Z</time>
      </trkpt>
      <trkpt lat="-40.1946290" lon="-71.3595740">
        <ele>958.0</ele>
        <time>2020-11-15T14:47:03Z</time>
      </trkpt>
      <trkpt lat="-40.1946180" lon="-71.3595250">
        <ele>958.0</ele>
        <time>2020-11-15T14:47:04Z</time>
      </trkpt>
      <trkpt lat="-40.1946070" lon="-71.3594760">
        <ele>958.1</ele>
        <time>2020-11-15T14:47:05Z</time>
      </trkpt>
      <trkpt lat="-40.1945960" lon="-71.3594270">
        <ele>958.2</ele>
        <time>2020-11-15T14:47:06Z</time>
      </trkpt>
      <trkpt lat="-40.1945870" lon="-71.3593780">
        <ele>958.2</ele>
        <time>2020-11-15T14:47:07Z</time>
      </trkpt>
      <trkpt lat="-40.1945760" lon="-71.3593270">
        <ele>958.3</ele>
        <time>2020-11-15T14:47:08Z</time>
      </trkpt>
      <trkpt lat="-40.1945650" lon="-71.3592810">
        <ele>958.4</ele>
        <time>2020-11-15T14:47:09Z</time>
      </trkpt>
      <trkpt lat="-40.1945520" lon="-71.3592350">
        <ele>958.4</ele>
        <time>2020-11-15T14:47:10Z</time>
      </trkpt>
      <trkpt lat="-40.1945410" lon="-71.3591870">
        <ele>958.5</ele>
        <time>2020-11-15T14:47:11Z</time>
      </trkpt>
      <trkpt lat="-40.1945320" lon="-71.3591380">
        <ele>958.6</ele>
        <time>2020-11-15T14:47:12Z</time>
      </trkpt>
      <trkpt lat="-40.1945220" lon="-71.3590940">
        <ele>958.6</ele>
        <time>2020-11-15T14:47:13Z</time>
      </trkpt>
      <trkpt lat="-40.1945090" lon="-71.3590440">
        <ele>958.7</ele>
        <time>2020-11-15T14:47:14Z</time>
      </trkpt>
      <trkpt lat="-40.1944980" lon="-71.3589970">
        <ele>958.8</ele>
        <time>2020-11-15T14:47:15Z</time>
      </trkpt>
      <trkpt lat="-40.1944890" lon="-71.3589490">
        <ele>958.8</ele>
        <time>2020-11-15T14:47:16Z</time>
      </trkpt>
      <trkpt lat="-40.1944800" lon="-71.3589000">
        <ele>958.9</ele>
        <time>2020-11-15T14:47:17Z</time>
      </trkpt>
      <trkpt lat="-40.1944670" lon="-71.3588450">
        <ele>958.9</ele>
        <time>2020-11-15T14:47:18Z</time>
      </trkpt>
      <trkpt lat="-40.1944560" lon="-71.3587920">
        <ele>959.0</ele>
        <time>2020-11-15T14:47:19Z</time>
      </trkpt>
      <trkpt lat="-40.1944470" lon="-71.3587410">
        <ele>959.1</ele>
        <time>2020-11-15T14:47:20Z</time>
      </trkpt>
      <trkpt lat="-40.1944370" lon="-71.3586860">
        <ele>959.1</ele>
        <time>2020-11-15T14:47:21Z</time>
      </trkpt>
      <trkpt lat="-40.1944290" lon="-71.3586350">
        <ele>959.2</ele>
        <time>2020-11-15T14:47:22Z</time>
      </trkpt>
      <trkpt lat="-40.1944200" lon="-71.3585840">
        <ele>959.2</ele>
        <time>2020-11-15T14:47:23Z</time>
      </trkpt>
      <trkpt lat="-40.1944100" lon="-71.3585360">
        <ele>959.3</ele>
        <time>2020-11-15T14:47:24Z</time>
      </trkpt>
      <trkpt lat="-40.1944030" lon="-71.3584920">
        <ele>959.4</ele>
        <time>2020-11-15T14:47:25Z</time>
      </trkpt>
      <trkpt lat="-40.1943970" lon="-71.3584500">
        <ele>959.4</ele>
        <time>2020-11-15T14:47:26Z</time>
      </trkpt>
      <trkpt lat="-40.1943920" lon="-71.3584020">
        <ele>959.5</ele>
        <time>2020-11-15T14:47:27Z</time>
      </trkpt>
      <trkpt lat="-40.1943890" lon="-71.3583520">
        <ele>959.5</ele>
        <time>2020-11-15T14:47:28Z</time>
      </trkpt>
      <trkpt lat="-40.1943850" lon="-71.3582980">
        <ele>959.6</ele>
        <time>2020-11-15T14:47:29Z</time>
      </trkpt>
      <trkpt lat="-40.1943800" lon="-71.3582450">
        <ele>959.6</ele>
        <time>2020-11-15T14:47:30Z</time>
      </trkpt>
      <trkpt lat="-40.1943740" lon="-71.3581930">
        <ele>959.7</ele>
        <time>2020-11-15T14:47:31Z</time>
      </trkpt>
      <trkpt lat="-40.1943700" lon="-71.3581420">
        <ele>959.7</ele>
        <time>2020-11-15T14:47:32Z</time>
      </trkpt>
      <trkpt lat="-40.1943670" lon="-71.3580900">
        <ele>959.8</ele>
        <time>2020-11-15T14:47:33Z</time>
      </trkpt>
      <trkpt lat="-40.1943710" lon="-71.3580410">
        <ele>959.8</ele>
        <time>2020-11-15T14:47:34Z</time>
      </trkpt>
      <trkpt lat="-40.1943740" lon="-71.3579930">
        <ele>959.9</ele>
        <time>2020-11-15T14:47:35Z</time>
      </trkpt>
      <trkpt lat="-40.1943750" lon="-71.3579430">
        <ele>959.9</ele>
        <time>2020-11-15T14:47:36Z</time>
      </trkpt>
      <trkpt lat="-40.1943810" lon="-71.3578930">
        <ele>960.0</ele>
        <time>2020-11-15T14:47:37Z</time>
      </trkpt>
      <trkpt lat="-40.1943870" lon="-71.3578390">
        <ele>960.0</ele>
        <time>2020-11-15T14:47:38Z</time>
      </trkpt>
      <trkpt lat="-40.1943910" lon="-71.3577830">
        <ele>960.1</ele>
        <time>2020-11-15T14:47:39Z</time>
      </trkpt>
      <trkpt lat="-40.1943960" lon="-71.3577290">
        <ele>960.1</ele>
        <time>2020-11-15T14:47:40Z</time>
      </trkpt>
      <trkpt lat="-40.1944050" lon="-71.3576780">
        <ele>960.2</ele>
        <time>2020-11-15T14:47:41Z</time>
      </trkpt>
      <trkpt lat="-40.1944160" lon="-71.3576300">
        <ele>960.2</ele>
        <time>2020-11-15T14:47:42Z</time>
      </trkpt>
      <trkpt lat="-40.1944300" lon="-71.3575840">
        <ele>960.3</ele>
        <time>2020-11-15T14:47:43Z</time>
      </trkpt>
      <trkpt lat="-40.1944450" lon="-71.3575390">
        <ele>960.3</ele>
        <time>2020-11-15T14:47:44Z</time>
      </trkpt>
      <trkpt lat="-40.1944590" lon="-71.3574940">
        <ele>960.4</ele>
        <time>2020-11-15T14:47:45Z</time>
      </trkpt>
      <trkpt lat="-40.1944750" lon="-71.3574500">
        <ele>960.4</ele>
        <time>2020-11-15T14:47:46Z</time>
      </trkpt>
      <trkpt lat="-40.1944920" lon="-71.3574090">
        <ele>960.5</ele>
        <time>2020-11-15T14:47:47Z</time>
      </trkpt>
      <trkpt lat="-40.1945070" lon="-71.3573680">
        <ele>960.5</ele>
        <time>2020-11-15T14:47:48Z</time>
      </trkpt>
      <trkpt lat="-40.1945250" lon="-71.3573260">
        <ele>960.6</ele>
        <time>2020-11-15T14:47:49Z</time>
      </trkpt>
      <trkpt lat="-40.1945470" lon="-71.3572850">
        <ele>960.6</ele>
        <time>2020-11-15T14:47:50Z</time>
      </trkpt>
      <trkpt lat="-40.1945700" lon="-71.3572410">
        <ele>960.7</ele>
        <time>2020-11-15T14:47:51Z</time>
      </trkpt>
      <trkpt lat="-40.1945920" lon="-71.3571990">
        <ele>960.8</ele>
        <time>2020-11-15T14:47:52Z</time>
      </trkpt>
      <trkpt lat="-40.1946150" lon="-71.3571550">
        <ele>960.8</ele>
        <time>2020-11-15T14:47:53Z</time>
      </trkpt>
      <trkpt lat="-40.1946400" lon="-71.3571130">
        <ele>960.9</ele>
        <time>2020-11-15T14:47:54Z</time>
      </trkpt>
      <trkpt lat="-40.1946660" lon="-71.3570730">
        <ele>960.9</ele>
        <time>2020-11-15T14:47:55Z</time>
      </trkpt>
      <trkpt lat="-40.1946950" lon="-71.3570380">
        <ele>960.9</ele>
        <time>2020-11-15T14:47:56Z</time>
      </trkpt>
      <trkpt lat="-40.1947230" lon="-71.3570030">
        <ele>961.0</ele>
        <time>2020-11-15T14:47:57Z</time>
      </trkpt>
      <trkpt lat="-40.1947510" lon="-71.3569710">
        <ele>961.0</ele>
        <time>2020-11-15T14:47:58Z</time>
      </trkpt>
      <trkpt lat="-40.1947780" lon="-71.3569420">
        <ele>961.1</ele>
        <time>2020-11-15T14:47:59Z</time>
      </trkpt>
      <trkpt lat="-40.1948090" lon="-71.3569140">
        <ele>961.1</ele>
        <time>2020-11-15T14:48:00Z</time>
      </trkpt>
      <trkpt lat="-40.1948380" lon="-71.3568850">
        <ele>961.2</ele>
        <time>2020-11-15T14:48:01Z</time>
      </trkpt>
      <trkpt lat="-40.1948680" lon="-71.3568610">
        <ele>961.4</ele>
        <time>2020-11-15T14:48:02Z</time>
      </trkpt>
      <trkpt lat="-40.1949020" lon="-71.3568390">
        <ele>961.5</ele>
        <time>2020-11-15T14:48:03Z</time>
      </trkpt>
      <trkpt lat="-40.1949350" lon="-71.3568160">
        <ele>961.7</ele>
        <time>2020-11-15T14:48:04Z</time>
      </trkpt>
      <trkpt lat="-40.1949680" lon="-71.3567930">
        <ele>961.8</ele>
        <time>2020-11-15T14:48:05Z</time>
      </trkpt>
      <trkpt lat="-40.1950030" lon="-71.3567700">
        <ele>962.0</ele>
        <time>2020-11-15T14:48:06Z</time>
      </trkpt>
      <trkpt lat="-40.1950370" lon="-71.3567500">
        <ele>962.2</ele>
        <time>2020-11-15T14:48:07Z</time>
      </trkpt>
      <trkpt lat="-40.1950700" lon="-71.3567300">
        <ele>962.3</ele>
        <time>2020-11-15T14:48:08Z</time>
      </trkpt>
      <trkpt lat="-40.1951040" lon="-71.3567120">
        <ele>962.4</ele>
        <time>2020-11-15T14:48:09Z</time>
      </trkpt>
      <trkpt lat="-40.1951390" lon="-71.3566980">
        <ele>962.6</ele>
        <time>2020-11-15T14:48:10Z</time>
      </trkpt>
      <trkpt lat="-40.1951750" lon="-71.3566870">
        <ele>962.7</ele>
        <time>2020-11-15T14:48:11Z</time>
      </trkpt>
      <trkpt lat="-40.1952080" lon="-71.3566760">
        <ele>962.8</ele>
        <time>2020-11-15T14:48:12Z</time>
      </trkpt>
      <trkpt lat="-40.1952410" lon="-71.3566680">
        <ele>962.9</ele>
        <time>2020-11-15T14:48:13Z</time>
      </trkpt>
      <trkpt lat="-40.1952780" lon="-71.3566640">
        <ele>963.1</ele>
        <time>2020-11-15T14:48:14Z</time>
      </trkpt>
      <trkpt lat="-40.1953140" lon="-71.3566590">
        <ele>963.2</ele>
        <time>2020-11-15T14:48:15Z</time>
      </trkpt>
      <trkpt lat="-40.1953510" lon="-71.3566550">
        <ele>963.3</ele>
        <time>2020-11-15T14:48:16Z</time>
      </trkpt>
      <trkpt lat="-40.1953890" lon="-71.3566530">
        <ele>963.5</ele>
        <time>2020-11-15T14:48:17Z</time>
      </trkpt>
      <trkpt lat="-40.1954280" lon="-71.3566520">
        <ele>963.6</ele>
        <time>2020-11-15T14:48:18Z</time>
      </trkpt>
      <trkpt lat="-40.1954680" lon="-71.3566550">
        <ele>963.7</ele>
        <time>2020-11-15T14:48:19Z</time>
      </trkpt>
      <trkpt lat="-40.1955070" lon="-71.3566590">
        <ele>963.9</ele>
        <time>2020-11-15T14:48:20Z</time>
      </trkpt>
      <trkpt lat="-40.1955500" lon="-71.3566690">
        <ele>964.0</ele>
        <time>2020-11-15T14:48:21Z</time>
      </trkpt>
      <trkpt lat="-40.1955900" lon="-71.3566800">
        <ele>964.1</ele>
        <time>2020-11-15T14:48:22Z</time>
      </trkpt>
      <trkpt lat="-40.1956300" lon="-71.3566880">
        <ele>964.3</ele>
        <time>2020-11-15T14:48:23Z</time>
      </trkpt>
      <trkpt lat="-40.1956710" lon="-71.3567000">
        <ele>964.4</ele>
        <time>2020-11-15T14:48:24Z</time>
      </trkpt>
      <trkpt lat="-40.1957120" lon="-71.3567150">
        <ele>964.6</ele>
        <time>2020-11-15T14:48:25Z</time>
      </trkpt>
      <trkpt lat="-40.1957510" lon="-71.3567320">
        <ele>964.7</ele>
        <time>2020-11-15T14:48:26Z</time>
      </trkpt>
      <trkpt lat="-40.1957850" lon="-71.3567470">
        <ele>964.8</ele>
        <time>2020-11-15T14:48:27Z</time>
      </trkpt>
      <trkpt lat="-40.1958210" lon="-71.3567680">
        <ele>965.0</ele>
        <time>2020-11-15T14:48:28Z</time>
      </trkpt>
      <trkpt lat="-40.1958560" lon="-71.3567860">
        <ele>965.1</ele>
        <time>2020-11-15T14:48:29Z</time>
      </trkpt>
      <trkpt lat="-40.1958920" lon="-71.3568070">
        <ele>965.2</ele>
        <time>2020-11-15T14:48:30Z</time>
      </trkpt>
      <trkpt lat="-40.1959280" lon="-71.3568330">
        <ele>965.3</ele>
        <time>2020-11-15T14:48:31Z</time>
      </trkpt>
      <trkpt lat="-40.1959610" lon="-71.3568550">
        <ele>965.5</ele>
        <time>2020-11-15T14:48:32Z</time>
      </trkpt>
      <trkpt lat="-40.1959940" lon="-71.3568790">
        <ele>965.6</ele>
        <time>2020-11-15T14:48:33Z</time>
      </trkpt>
      <trkpt lat="-40.1960260" lon="-71.3569050">
        <ele>965.7</ele>
        <time>2020-11-15T14:48:34Z</time>
      </trkpt>
      <trkpt lat="-40.1960570" lon="-71.3569350">
        <ele>965.8</ele>
        <time>2020-11-15T14:48:35Z</time>
      </trkpt>
      <trkpt lat="-40.1960890" lon="-71.3569680">
        <ele>966.0</ele>
        <time>2020-11-15T14:48:36Z</time>
      </trkpt>
      <trkpt lat="-40.1961190" lon="-71.3569990">
        <ele>966.1</ele>
        <time>2020-11-15T14:48:37Z</time>
      </trkpt>
      <trkpt lat="-40.1961510" lon="-71.3570340">
        <ele>966.3</ele>
        <time>2020-11-15T14:48:38Z</time>
      </trkpt>
      <trkpt lat="-40.1961810" lon="-71.3570690">
        <ele>966.5</ele>
        <time>2020-11-15T14:48:39Z</time>
      </trkpt>
      <trkpt lat="-40.1962050" lon="-71.3571020">
        <ele>966.6</ele>
        <time>2020-11-15T14:48:40Z</time>
      </trkpt>
      <trkpt lat="-40.1962300" lon="-71.3571360">
        <ele>966.8</ele>
        <time>2020-11-15T14:48:41Z</time>
      </trkpt>
      <trkpt lat="-40.1962540" lon="-71.3571710">
        <ele>966.9</ele>
        <time>2020-11-15T14:48:42Z</time>
      </trkpt>
      <trkpt lat="-40.1962760" lon="-71.3572080">
        <ele>967.0</ele>
        <time>2020-11-15T14:48:43Z</time>
      </trkpt>
      <trkpt lat="-40.1962920" lon="-71.3572410">
        <ele>967.2</ele>
        <time>2020-11-15T14:48:44Z</time>
      </trkpt>
      <trkpt lat="-40.1963140" lon="-71.3572800">
        <ele>967.3</ele>
        <time>2020-11-15T14:48:45Z</time>
      </trkpt>
      <trkpt lat="-40.1963320" lon="-71.3573180">
        <ele>967.5</ele>
        <time>2020-11-15T14:48:46Z</time>
      </trkpt>
      <trkpt lat="-40.1963510" lon="-71.3573580">
        <ele>967.6</ele>
        <time>2020-11-15T14:48:47Z</time>
      </trkpt>
      <trkpt lat="-40.1963670" lon="-71.3573990">
        <ele>967.8</ele>
        <time>2020-11-15T14:48:48Z</time>
      </trkpt>
      <trkpt lat="-40.1963860" lon="-71.3574430">
        <ele>967.9</ele>
        <time>2020-11-15T14:48:49Z</time>
      </trkpt>
      <trkpt lat="-40.1964020" lon="-71.3574880">
        <ele>968.1</ele>
        <time>2020-11-15T14:48:50Z</time>
      </trkpt>
      <trkpt lat="-40.1964190" lon="-71.3575320">
        <ele>968.3</ele>
        <time>2020-11-15T14:48:51Z</time>
      </trkpt>
      <trkpt lat="-40.1964350" lon="-71.3575730">
        <ele>968.5</ele>
        <time>2020-11-15T14:48:52Z</time>
      </trkpt>
      <trkpt lat="-40.1964500" lon="-71.3576160">
        <ele>968.7</ele>
        <time>2020-11-15T14:48:53Z</time>
      </trkpt>
      <trkpt lat="-40.1964690" lon="-71.3576590">
        <ele>968.9</ele>
        <time>2020-11-15T14:48:54Z</time>
      </trkpt>
      <trkpt lat="-40.1964830" lon="-71.3577000">
        <ele>969.1</ele>
        <time>2020-11-15T14:48:55Z</time>
      </trkpt>
      <trkpt lat="-40.1964970" lon="-71.3577420">
        <ele>969.3</ele>
        <time>2020-11-15T14:48:56Z</time>
      </trkpt>
      <trkpt lat="-40.1965100" lon="-71.3577840">
        <ele>969.5</ele>
        <time>2020-11-15T14:48:57Z</time>
      </trkpt>
      <trkpt lat="-40.1965290" lon="-71.3578280">
        <ele>969.7</ele>
        <time>2020-11-15T14:48:58Z</time>
      </trkpt>
      <trkpt lat="-40.1965410" lon="-71.3578700">
        <ele>969.9</ele>
        <time>2020-11-15T14:48:59Z</time>
      </trkpt>
      <trkpt lat="-40.1965520" lon="-71.3579110">
        <ele>970.1</ele>
        <time>2020-11-15T14:49:00Z</time>
      </trkpt>
      <trkpt lat="-40.1965590" lon="-71.3579500">
        <ele>970.3</ele>
        <time>2020-11-15T14:49:01Z</time>
      </trkpt>
      <trkpt lat="-40.1965730" lon="-71.3579920">
        <ele>970.5</ele>
        <time>2020-11-15T14:49:02Z</time>
      </trkpt>
      <trkpt lat="-40.1965920" lon="-71.3580360">
        <ele>970.7</ele>
        <time>2020-11-15T14:49:03Z</time>
      </trkpt>
      <trkpt lat="-40.1966060" lon="-71.3580780">
        <ele>970.9</ele>
        <time>2020-11-15T14:49:04Z</time>
      </trkpt>
      <trkpt lat="-40.1966210" lon="-71.3581220">
        <ele>971.1</ele>
        <time>2020-11-15T14:49:05Z</time>
      </trkpt>
      <trkpt lat="-40.1966360" lon="-71.3581650">
        <ele>971.3</ele>
        <time>2020-11-15T14:49:06Z</time>
      </trkpt>
      <trkpt lat="-40.1966520" lon="-71.3582060">
        <ele>971.4</ele>
        <time>2020-11-15T14:49:07Z</time>
      </trkpt>
      <trkpt lat="-40.1966690" lon="-71.3582470">
        <ele>971.6</ele>
        <time>2020-11-15T14:49:08Z</time>
      </trkpt>
      <trkpt lat="-40.1966850" lon="-71.3582880">
        <ele>971.8</ele>
        <time>2020-11-15T14:49:09Z</time>
      </trkpt>
      <trkpt lat="-40.1967020" lon="-71.3583290">
        <ele>971.9</ele>
        <time>2020-11-15T14:49:10Z</time>
      </trkpt>
      <trkpt lat="-40.1967170" lon="-71.3583670">
        <ele>972.1</ele>
        <time>2020-11-15T14:49:11Z</time>
      </trkpt>
      <trkpt lat="-40.1967330" lon="-71.3584060">
        <ele>972.3</ele>
        <time>2020-11-15T14:49:12Z</time>
      </trkpt>
      <trkpt lat="-40.1967510" lon="-71.3584450">
        <ele>972.4</ele>
        <time>2020-11-15T14:49:13Z</time>
      </trkpt>
      <trkpt lat="-40.1967650" lon="-71.3584810">
        <ele>972.6</ele>
        <time>2020-11-15T14:49:14Z</time>
      </trkpt>
      <trkpt lat="-40.1967840" lon="-71.3585180">
        <ele>972.8</ele>
        <time>2020-11-15T14:49:15Z</time>
      </trkpt>
      <trkpt lat="-40.1968030" lon="-71.3585540">
        <ele>972.9</ele>
        <time>2020-11-15T14:49:16Z</time>
      </trkpt>
      <trkpt lat="-40.1968240" lon="-71.3585890">
        <ele>973.1</ele>
        <time>2020-11-15T14:49:17Z</time>
      </trkpt>
      <trkpt lat="-40.1968460" lon="-71.3586210">
        <ele>973.3</ele>
        <time>2020-11-15T14:49:18Z</time>
      </trkpt>
      <trkpt lat="-40.1968680" lon="-71.3586560">
        <ele>973.5</ele>
        <time>2020-11-15T14:49:19Z</time>
      </trkpt>
      <trkpt lat="-40.1968910" lon="-71.3586940">
        <ele>973.7</ele>
        <time>2020-11-15T14:49:20Z</time>
      </trkpt>
      <trkpt lat="-40.1969100" lon="-71.3587290">
        <ele>973.9</ele>
        <time>2020-11-15T14:49:21Z</time>
      </trkpt>
      <trkpt lat="-40.1969290" lon="-71.3587640">
        <ele>974.2</ele>
        <time>2020-11-15T14:49:22Z</time>
      </trkpt>
      <trkpt lat="-40.1969520" lon="-71.3587980">
        <ele>974.4</ele>
        <time>2020-11-15T14:49:23Z</time>
      </trkpt>
      <trkpt lat="-40.1969760" lon="-71.3588310">
        <ele>974.5</ele>
        <time>2020-11-15T14:49:24Z</time>
      </trkpt>
      <trkpt lat="-40.1970020" lon="-71.3588640">
        <ele>974.7</ele>
        <time>2020-11-15T14:49:25Z</time>
      </trkpt>
      <trkpt lat="-40.1970270" lon="-71.3588980">
        <ele>974.9</ele>
        <time>2020-11-15T14:49:26Z</time>
      </trkpt>
      <trkpt lat="-40.1970580" lon="-71.3589340">
        <ele>975.1</ele>
        <time>2020-11-15T14:49:27Z</time>
      </trkpt>
      <trkpt lat="-40.1970900" lon="-71.3589680">
        <ele>975.3</ele>
        <time>2020-11-15T14:49:28Z</time>
      </trkpt>
      <trkpt lat="-40.1971190" lon="-71.3590010">
        <ele>975.5</ele>
        <time>2020-11-15T14:49:29Z</time>
      </trkpt>
      <trkpt lat="-40.1971520" lon="-71.3590330">
        <ele>975.7</ele>
        <time>2020-11-15T14:49:30Z</time>
      </trkpt>
      <trkpt lat="-40.1971820" lon="-71.3590640">
        <ele>975.9</ele>
        <time>2020-11-15T14:49:31Z</time>
      </trkpt>
      <trkpt lat="-40.1972160" lon="-71.3590970">
        <ele>976.1</ele>
        <time>2020-11-15T14:49:32Z</time>
      </trkpt>
      <trkpt lat="-40.1972490" lon="-71.3591290">
        <ele>976.3</ele>
        <time>2020-11-15T14:49:33Z</time>
      </trkpt>
      <trkpt lat="-40.1972810" lon="-71.3591590">
        <ele>976.5</ele>
        <time>2020-11-15T14:49:34Z</time>
      </trkpt>
      <trkpt lat="-40.1973130" lon="-71.3591880">
        <ele>976.7</ele>
        <time>2020-11-15T14:49:35Z</time>
      </trkpt>
      <trkpt lat="-40.1973480" lon="-71.3592200">
        <ele>976.9</ele>
        <time>2020-11-15T14:49:36Z</time>
      </trkpt>
      <trkpt lat="-40.1973800" lon="-71.3592490">
        <ele>977.1</ele>
        <time>2020-11-15T14:49:37Z</time>
      </trkpt>
      <trkpt lat="-40.1974100" lon="-71.3592780">
        <ele>977.3</ele>
        <time>2020-11-15T14:49:38Z</time>
      </trkpt>
      <trkpt lat="-40.1974410" lon="-71.3593080">
        <ele>977.4</ele>
        <time>2020-11-15T14:49:39Z</time>
      </trkpt>
      <trkpt lat="-40.1974740" lon="-71.3593360">
        <ele>977.6</ele>
        <time>2020-11-15T14:49:40Z</time>
      </trkpt>
      <trkpt lat="-40.1975060" lon="-71.3593650">
        <ele>977.7</ele>
        <time>2020-11-15T14:49:41Z</time>
      </trkpt>
      <trkpt lat="-40.1975360" lon="-71.3593910">
        <ele>977.9</ele>
        <time>2020-11-15T14:49:42Z</time>
      </trkpt>
      <trkpt lat="-40.1975680" lon="-71.3594210">
        <ele>978.0</ele>
        <time>2020-11-15T14:49:43Z</time>
      </trkpt>
      <trkpt lat="-40.1976010" lon="-71.3594520">
        <ele>978.1</ele>
        <time>2020-11-15T14:49:44Z</time>
      </trkpt>
      <trkpt lat="-40.1976340" lon="-71.3594820">
        <ele>978.3</ele>
        <time>2020-11-15T14:49:45Z</time>
      </trkpt>
      <trkpt lat="-40.1976670" lon="-71.3595130">
        <ele>978.4</ele>
        <time>2020-11-15T14:49:46Z</time>
      </trkpt>
      <trkpt lat="-40.1977020" lon="-71.3595460">
        <ele>978.5</ele>
        <time>2020-11-15T14:49:47Z</time>
      </trkpt>
      <trkpt lat="-40.1977370" lon="-71.3595790">
        <ele>978.7</ele>
        <time>2020-11-15T14:49:48Z</time>
      </trkpt>
      <trkpt lat="-40.1977730" lon="-71.3596130">
        <ele>978.8</ele>
        <time>2020-11-15T14:49:49Z</time>
      </trkpt>
      <trkpt lat="-40.1978070" lon="-71.3596450">
        <ele>978.8</ele>
        <time>2020-11-15T14:49:50Z</time>
      </trkpt>
      <trkpt lat="-40.1978390" lon="-71.3596770">
        <ele>978.9</ele>
        <time>2020-11-15T14:49:51Z</time>
      </trkpt>
      <trkpt lat="-40.1978740" lon="-71.3597120">
        <ele>978.9</ele>
        <time>2020-11-15T14:49:52Z</time>
      </trkpt>
      <trkpt lat="-40.1979080" lon="-71.3597470">
        <ele>979.0</ele>
        <time>2020-11-15T14:49:53Z</time>
      </trkpt>
      <trkpt lat="-40.1979440" lon="-71.3597800">
        <ele>979.1</ele>
        <time>2020-11-15T14:49:54Z</time>
      </trkpt>
      <trkpt lat="-40.1979820" lon="-71.3598120">
        <ele>979.1</ele>
        <time>2020-11-15T14:49:55Z</time>
      </trkpt>
      <trkpt lat="-40.1980210" lon="-71.3598450">
        <ele>979.2</ele>
        <time>2020-11-15T14:49:56Z</time>
      </trkpt>
      <trkpt lat="-40.1980590" lon="-71.3598780">
        <ele>979.2</ele>
        <time>2020-11-15T14:49:57Z</time>
      </trkpt>
      <trkpt lat="-40.1980980" lon="-71.3599110">
        <ele>979.2</ele>
        <time>2020-11-15T14:49:58Z</time>
      </trkpt>
      <trkpt lat="-40.1981370" lon="-71.3599440">
        <ele>979.2</ele>
        <time>2020-11-15T14:49:59Z</time>
      </trkpt>
      <trkpt lat="-40.1981750" lon="-71.3599750">
        <ele>979.2</ele>
        <time>2020-11-15T14:50:00Z</time>
      </trkpt>
      <trkpt lat="-40.1982170" lon="-71.3600100">
        <ele>979.2</ele>
        <time>2020-11-15T14:50:01Z</time>
      </trkpt>
      <trkpt lat="-40.1982570" lon="-71.3600430">
        <ele>979.3</ele>
        <time>2020-11-15T14:50:02Z</time>
      </trkpt>
      <trkpt lat="-40.1983010" lon="-71.3600750">
        <ele>979.3</ele>
        <time>2020-11-15T14:50:03Z</time>
      </trkpt>
      <trkpt lat="-40.1983460" lon="-71.3601050">
        <ele>979.3</ele>
        <time>2020-11-15T14:50:04Z</time>
      </trkpt>
      <trkpt lat="-40.1983890" lon="-71.3601330">
        <ele>979.3</ele>
        <time>2020-11-15T14:50:05Z</time>
      </trkpt>
      <trkpt lat="-40.1984340" lon="-71.3601610">
        <ele>979.4</ele>
        <time>2020-11-15T14:50:06Z</time>
      </trkpt>
      <trkpt lat="-40.1984810" lon="-71.3601870">
        <ele>979.4</ele>
        <time>2020-11-15T14:50:07Z</time>
      </trkpt>
      <trkpt lat="-40.1985250" lon="-71.3602050">
        <ele>979.5</ele>
        <time>2020-11-15T14:50:08Z</time>
      </trkpt>
      <trkpt lat="-40.1985680" lon="-71.3602220">
        <ele>979.5</ele>
        <time>2020-11-15T14:50:09Z</time>
      </trkpt>
      <trkpt lat="-40.1986120" lon="-71.3602370">
        <ele>979.6</ele>
        <time>2020-11-15T14:50:10Z</time>
      </trkpt>
      <trkpt lat="-40.1986560" lon="-71.3602470">
        <ele>979.6</ele>
        <time>2020-11-15T14:50:11Z</time>
      </trkpt>
      <trkpt lat="-40.1987030" lon="-71.3602540">
        <ele>979.6</ele>
        <time>2020-11-15T14:50:12Z</time>
      </trkpt>
      <trkpt lat="-40.1987500" lon="-71.3602560">
        <ele>979.6</ele>
        <time>2020-11-15T14:50:13Z</time>
      </trkpt>
      <trkpt lat="-40.1987930" lon="-71.3602550">
        <ele>979.7</ele>
        <time>2020-11-15T14:50:14Z</time>
      </trkpt>
      <trkpt lat="-40.1988390" lon="-71.3602530">
        <ele>979.7</ele>
        <time>2020-11-15T14:50:15Z</time>
      </trkpt>
      <trkpt lat="-40.1988840" lon="-71.3602460">
        <ele>979.8</ele>
        <time>2020-11-15T14:50:16Z</time>
      </trkpt>
      <trkpt lat="-40.1989290" lon="-71.3602360">
        <ele>979.8</ele>
        <time>2020-11-15T14:50:17Z</time>
      </trkpt>
      <trkpt lat="-40.1989750" lon="-71.3602250">
        <ele>979.9</ele>
        <time>2020-11-15T14:50:18Z</time>
      </trkpt>
      <trkpt lat="-40.1990180" lon="-71.3602110">
        <ele>979.9</ele>
        <time>2020-11-15T14:50:19Z</time>
      </trkpt>
      <trkpt lat="-40.1990600" lon="-71.3601940">
        <ele>980.0</ele>
        <time>2020-11-15T14:50:20Z</time>
      </trkpt>
      <trkpt lat="-40.1990990" lon="-71.3601730">
        <ele>980.1</ele>
        <time>2020-11-15T14:50:21Z</time>
      </trkpt>
      <trkpt lat="-40.1991380" lon="-71.3601490">
        <ele>980.2</ele>
        <time>2020-11-15T14:50:22Z</time>
      </trkpt>
      <trkpt lat="-40.1991740" lon="-71.3601200">
        <ele>980.3</ele>
        <time>2020-11-15T14:50:23Z</time>
      </trkpt>
      <trkpt lat="-40.1992070" lon="-71.3600900">
        <ele>980.5</ele>
        <time>2020-11-15T14:50:24Z</time>
      </trkpt>
      <trkpt lat="-40.1992420" lon="-71.3600630">
        <ele>980.6</ele>
        <time>2020-11-15T14:50:25Z</time>
      </trkpt>
      <trkpt lat="-40.1992750" lon="-71.3600340">
        <ele>980.7</ele>
        <time>2020-11-15T14:50:26Z</time>
      </trkpt>
      <trkpt lat="-40.1993070" lon="-71.3600050">
        <ele>980.8</ele>
        <time>2020-11-15T14:50:27Z</time>
      </trkpt>
      <trkpt lat="-40.1993390" lon="-71.3599750">
        <ele>981.0</ele>
        <time>2020-11-15T14:50:28Z</time>
      </trkpt>
      <trkpt lat="-40.1993730" lon="-71.3599490">
        <ele>981.1</ele>
        <time>2020-11-15T14:50:29Z</time>
      </trkpt>
      <trkpt lat="-40.1994060" lon="-71.3599230">
        <ele>981.2</ele>
        <time>2020-11-15T14:50:30Z</time>
      </trkpt>
      <trkpt lat="-40.1994390" lon="-71.3598980">
        <ele>981.4</ele>
        <time>2020-11-15T14:50:31Z</time>
      </trkpt>
      <trkpt lat="-40.1994720" lon="-71.3598740">
        <ele>981.5</ele>
        <time>2020-11-15T14:50:32Z</time>
      </trkpt>
      <trkpt lat="-40.1995040" lon="-71.3598470">
        <ele>981.7</ele>
        <time>2020-11-15T14:50:33Z</time>
      </trkpt>
      <trkpt lat="-40.1995370" lon="-71.3598220">
        <ele>981.9</ele>
        <time>2020-11-15T14:50:34Z</time>
      </trkpt>
      <trkpt lat="-40.1995670" lon="-71.3597950">
        <ele>982.0</ele>
        <time>2020-11-15T14:50:35Z</time>
      </trkpt>
      <trkpt lat="-40.1995980" lon="-71.3597700">
        <ele>982.2</ele>
        <time>2020-11-15T14:50:36Z</time>
      </trkpt>
      <trkpt lat="-40.1996290" lon="-71.3597450">
        <ele>982.4</ele>
        <time>2020-11-15T14:50:37Z</time>
      </trkpt>
      <trkpt lat="-40.1996590" lon="-71.3597220">
        <ele>982.6</ele>
        <time>2020-11-15T14:50:38Z</time>
      </trkpt>
      <trkpt lat="-40.1996910" lon="-71.3597010">
        <ele>982.8</ele>
        <time>2020-11-15T14:50:39Z</time>
      </trkpt>
      <trkpt lat="-40.1997200" lon="-71.3596780">
        <ele>982.9</ele>
        <time>2020-11-15T14:50:40Z</time>
      </trkpt>
      <trkpt lat="-40.1997530" lon="-71.3596580">
        <ele>983.1</ele>
        <time>2020-11-15T14:50:41Z</time>
      </trkpt>
      <trkpt lat="-40.1997860" lon="-71.3596350">
        <ele>983.4</ele>
        <time>2020-11-15T14:50:42Z</time>
      </trkpt>
      <trkpt lat="-40.1998180" lon="-71.3596130">
        <ele>983.6</ele>
        <time>2020-11-15T14:50:43Z</time>
      </trkpt>
      <trkpt lat="-40.1998500" lon="-71.3595910">
        <ele>983.8</ele>
        <time>2020-11-15T14:50:44Z</time>
      </trkpt>
      <trkpt lat="-40.1998810" lon="-71.3595700">
        <ele>984.0</ele>
        <time>2020-11-15T14:50:45Z</time>
      </trkpt>
      <trkpt lat="-40.1999120" lon="-71.3595520">
        <ele>984.1</ele>
        <time>2020-11-15T14:50:46Z</time>
      </trkpt>
      <trkpt lat="-40.1999420" lon="-71.3595320">
        <ele>984.3</ele>
        <time>2020-11-15T14:50:47Z</time>
      </trkpt>
      <trkpt lat="-40.1999720" lon="-71.3595140">
        <ele>984.5</ele>
        <time>2020-11-15T14:50:48Z</time>
      </trkpt>
      <trkpt lat="-40.2000050" lon="-71.3594990">
        <ele>984.7</ele>
        <time>2020-11-15T14:50:49Z</time>
      </trkpt>
      <trkpt lat="-40.2000350" lon="-71.3594830">
        <ele>984.9</ele>
        <time>2020-11-15T14:50:50Z</time>
      </trkpt>
      <trkpt lat="-40.2000640" lon="-71.3594640">
        <ele>985.1</ele>
        <time>2020-11-15T14:50:51Z</time>
      </trkpt>
      <trkpt lat="-40.2000950" lon="-71.3594520">
        <ele>985.3</ele>
        <time>2020-11-15T14:50:52Z</time>
      </trkpt>
      <trkpt lat="-40.2001260" lon="-71.3594400">
        <ele>985.5</ele>
        <time>2020-11-15T14:50:53Z</time>
      </trkpt>
      <trkpt lat="-40.2001570" lon="-71.3594280">
        <ele>985.6</ele>
        <time>2020-11-15T14:50:54Z</time>
      </trkpt>
      <trkpt lat="-40.2001880" lon="-71.3594150">
        <ele>985.8</ele>
        <time>2020-11-15T14:50:55Z</time>
      </trkpt>
      <trkpt lat="-40.2002190" lon="-71.3594030">
        <ele>986.0</ele>
        <time>2020-11-15T14:50:56Z</time>
      </trkpt>
      <trkpt lat="-40.2002490" lon="-71.3593890">
        <ele>986.2</ele>
        <time>2020-11-15T14:50:57Z</time>
      </trkpt>
      <trkpt lat="-40.2002790" lon="-71.3593770">
        <ele>986.4</ele>
        <time>2020-11-15T14:50:58Z</time>
      </trkpt>
      <trkpt lat="-40.2003090" lon="-71.3593660">
        <ele>986.6</ele>
        <time>2020-11-15T14:50:59Z</time>
      </trkpt>
      <trkpt lat="-40.2003390" lon="-71.3593550">
        <ele>986.8</ele>
        <time>2020-11-15T14:51:00Z</time>
      </trkpt>
      <trkpt lat="-40.2003700" lon="-71.3593450">
        <ele>987.0</ele>
        <time>2020-11-15T14:51:01Z</time>
      </trkpt>
      <trkpt lat="-40.2004000" lon="-71.3593360">
        <ele>987.2</ele>
        <time>2020-11-15T14:51:02Z</time>
      </trkpt>
      <trkpt lat="-40.2004310" lon="-71.3593300">
        <ele>987.4</ele>
        <time>2020-11-15T14:51:03Z</time>
      </trkpt>
      <trkpt lat="-40.2004620" lon="-71.3593210">
        <ele>987.6</ele>
        <time>2020-11-15T14:51:04Z</time>
      </trkpt>
      <trkpt lat="-40.2004940" lon="-71.3593170">
        <ele>987.7</ele>
        <time>2020-11-15T14:51:05Z</time>
      </trkpt>
      <trkpt lat="-40.2005260" lon="-71.3593100">
        <ele>987.9</ele>
        <time>2020-11-15T14:51:06Z</time>
      </trkpt>
      <trkpt lat="-40.2005570" lon="-71.3593020">
        <ele>988.1</ele>
        <time>2020-11-15T14:51:07Z</time>
      </trkpt>
      <trkpt lat="-40.2005870" lon="-71.3592940">
        <ele>988.3</ele>
        <time>2020-11-15T14:51:08Z</time>
      </trkpt>
      <trkpt lat="-40.2006170" lon="-71.3592870">
        <ele>988.5</ele>
        <time>2020-11-15T14:51:09Z</time>
      </trkpt>
      <trkpt lat="-40.2006480" lon="-71.3592810">
        <ele>988.7</ele>
        <time>2020-11-15T14:51:10Z</time>
      </trkpt>
      <trkpt lat="-40.2006790" lon="-71.3592740">
        <ele>988.8</ele>
        <time>2020-11-15T14:51:11Z</time>
      </trkpt>
      <trkpt lat="-40.2007120" lon="-71.3592670">
        <ele>989.0</ele>
        <time>2020-11-15T14:51:12Z</time>
      </trkpt>
      <trkpt lat="-40.2007440" lon="-71.3592580">
        <ele>989.2</ele>
        <time>2020-11-15T14:51:13Z</time>
      </trkpt>
      <trkpt lat="-40.2007770" lon="-71.3592480">
        <ele>989.4</ele>
        <time>2020-11-15T14:51:14Z</time>
      </trkpt>
      <trkpt lat="-40.2008110" lon="-71.3592370">
        <ele>989.6</ele>
        <time>2020-11-15T14:51:15Z</time>
      </trkpt>
      <trkpt lat="-40.2008450" lon="-71.3592250">
        <ele>989.8</ele>
        <time>2020-11-15T14:51:16Z</time>
      </trkpt>
      <trkpt lat="-40.2008770" lon="-71.3592130">
        <ele>990.0</ele>
        <time>2020-11-15T14:51:17Z</time>
      </trkpt>
      <trkpt lat="-40.2009090" lon="-71.3592030">
        <ele>990.2</ele>
        <time>2020-11-15T14:51:18Z</time>
      </trkpt>
      <trkpt lat="-40.2009410" lon="-71.3591920">
        <ele>990.4</ele>
        <time>2020-11-15T14:51:19Z</time>
      </trkpt>
      <trkpt lat="-40.2009730" lon="-71.3591790">
        <ele>990.6</ele>
        <time>2020-11-15T14:51:20Z</time>
      </trkpt>
      <trkpt lat="-40.2010030" lon="-71.3591660">
        <ele>990.8</ele>
        <time>2020-11-15T14:51:21Z</time>
      </trkpt>
      <trkpt lat="-40.2010320" lon="-71.3591490">
        <ele>990.9</ele>
        <time>2020-11-15T14:51:22Z</time>
      </trkpt>
      <trkpt lat="-40.2010630" lon="-71.3591350">
        <ele>991.1</ele>
        <time>2020-11-15T14:51:23Z</time>
      </trkpt>
      <trkpt lat="-40.2010940" lon="-71.3591200">
        <ele>991.3</ele>
        <time>2020-11-15T14:51:24Z</time>
      </trkpt>
      <trkpt lat="-40.2011230" lon="-71.3591040">
        <ele>991.5</ele>
        <time>2020-11-15T14:51:25Z</time>
      </trkpt>
      <trkpt lat="-40.2011510" lon="-71.3590860">
        <ele>991.7</ele>
        <time>2020-11-15T14:51:26Z</time>
      </trkpt>
      <trkpt lat="-40.2011800" lon="-71.3590680">
        <ele>991.9</ele>
        <time>2020-11-15T14:51:27Z</time>
      </trkpt>
      <trkpt lat="-40.2012080" lon="-71.3590500">
        <ele>992.0</ele>
        <time>2020-11-15T14:51:28Z</time>
      </trkpt>
      <trkpt lat="-40.2012340" lon="-71.3590300">
        <ele>992.2</ele>
        <time>2020-11-15T14:51:29Z</time>
      </trkpt>
      <trkpt lat="-40.2012610" lon="-71.3590100">
        <ele>992.4</ele>
        <time>2020-11-15T14:51:30Z</time>
      </trkpt>
      <trkpt lat="-40.2012890" lon="-71.3589900">
        <ele>992.6</ele>
        <time>2020-11-15T14:51:31Z</time>
      </trkpt>
      <trkpt lat="-40.2013150" lon="-71.3589680">
        <ele>992.7</ele>
        <time>2020-11-15T14:51:32Z</time>
      </trkpt>
      <trkpt lat="-40.2013420" lon="-71.3589430">
        <ele>992.9</ele>
        <time>2020-11-15T14:51:33Z</time>
      </trkpt>
      <trkpt lat="-40.2013690" lon="-71.3589180">
        <ele>993.1</ele>
        <time>2020-11-15T14:51:34Z</time>
      </trkpt>
      <trkpt lat="-40.2013950" lon="-71.3588930">
        <ele>993.3</ele>
        <time>2020-11-15T14:51:35Z</time>
      </trkpt>
      <trkpt lat="-40.2014230" lon="-71.3588710">
        <ele>993.5</ele>
        <time>2020-11-15T14:51:36Z</time>
      </trkpt>
      <trkpt lat="-40.2014500" lon="-71.3588490">
        <ele>993.6</ele>
        <time>2020-11-15T14:51:37Z</time>
      </trkpt>
      <trkpt lat="-40.2014780" lon="-71.3588270">
        <ele>993.8</ele>
        <time>2020-11-15T14:51:38Z</time>
      </trkpt>
      <trkpt lat="-40.2015040" lon="-71.3588020">
        <ele>994.0</ele>
        <time>2020-11-15T14:51:39Z</time>
      </trkpt>
      <trkpt lat="-40.2015270" lon="-71.3587760">
        <ele>994.2</ele>
        <time>2020-11-15T14:51:40Z</time>
      </trkpt>
      <trkpt lat="-40.2015490" lon="-71.3587450">
        <ele>994.4</ele>
        <time>2020-11-15T14:51:41Z</time>
      </trkpt>
      <trkpt lat="-40.2015730" lon="-71.3587140">
        <ele>994.5</ele>
        <time>2020-11-15T14:51:42Z</time>
      </trkpt>
      <trkpt lat="-40.2015970" lon="-71.3586810">
        <ele>994.7</ele>
        <time>2020-11-15T14:51:43Z</time>
      </trkpt>
      <trkpt lat="-40.2016230" lon="-71.3586510">
        <ele>994.9</ele>
        <time>2020-11-15T14:51:44Z</time>
      </trkpt>
      <trkpt lat="-40.2016470" lon="-71.3586190">
        <ele>995.1</ele>
        <time>2020-11-15T14:51:45Z</time>
      </trkpt>
      <trkpt lat="-40.2016710" lon="-71.3585870">
        <ele>995.2</ele>
        <time>2020-11-15T14:51:46Z</time>
      </trkpt>
      <trkpt lat="-40.2016930" lon="-71.3585530">
        <ele>995.4</ele>
        <time>2020-11-15T14:51:47Z</time>
      </trkpt>
      <trkpt lat="-40.2017130" lon="-71.3585170">
        <ele>995.6</ele>
        <time>2020-11-15T14:51:48Z</time>
      </trkpt>
      <trkpt lat="-40.2017310" lon="-71.3584770">
        <ele>995.8</ele>
        <time>2020-11-15T14:51:49Z</time>
      </trkpt>
      <trkpt lat="-40.2017480" lon="-71.3584360">
        <ele>996.0</ele>
        <time>2020-11-15T14:51:50Z</time>
      </trkpt>
      <trkpt lat="-40.2017660" lon="-71.3583970">
        <ele>996.1</ele>
        <time>2020-11-15T14:51:51Z</time>
      </trkpt>
      <trkpt lat="-40.2017830" lon="-71.3583580">
        <ele>996.3</ele>
        <time>2020-11-15T14:51:52Z</time>
      </trkpt>
      <trkpt lat="-40.2017980" lon="-71.3583170">
        <ele>996.5</ele>
        <time>2020-11-15T14:51:53Z</time>
      </trkpt>
      <trkpt lat="-40.2018120" lon="-71.3582740">
        <ele>996.7</ele>
        <time>2020-11-15T14:51:54Z</time>
      </trkpt>
      <trkpt lat="-40.2018260" lon="-71.3582310">
        <ele>996.9</ele>
        <time>2020-11-15T14:51:55Z</time>
      </trkpt>
      <trkpt lat="-40.2018390" lon="-71.3581890">
        <ele>997.1</ele>
        <time>2020-11-15T14:51:56Z</time>
      </trkpt>
      <trkpt lat="-40.2018500" lon="-71.3581430">
        <ele>997.3</ele>
        <time>2020-11-15T14:51:57Z</time>
      </trkpt>
      <trkpt lat="-40.2018630" lon="-71.3581000">
        <ele>997.5</ele>
        <time>2020-11-15T14:51:58Z</time>
      </trkpt>
      <trkpt lat="-40.2018750" lon="-71.3580590">
        <ele>997.5</ele>
        <time>2020-11-15T14:51:59Z</time>
      </trkpt>
      <trkpt lat="-40.2018850" lon="-71.3580180">
        <ele>997.7</ele>
        <time>2020-11-15T14:52:00Z</time>
      </trkpt>
      <trkpt lat="-40.2018960" lon="-71.3579760">
        <ele>997.9</ele>
        <time>2020-11-15T14:52:01Z</time>
      </trkpt>
      <trkpt lat="-40.2019090" lon="-71.3579350">
        <ele>998.1</ele>
        <time>2020-11-15T14:52:02Z</time>
      </trkpt>
      <trkpt lat="-40.2019210" lon="-71.3578920">
        <ele>998.3</ele>
        <time>2020-11-15T14:52:03Z</time>
      </trkpt>
      <trkpt lat="-40.2019330" lon="-71.3578500">
        <ele>998.5</ele>
        <time>2020-11-15T14:52:04Z</time>
      </trkpt>
      <trkpt lat="-40.2019450" lon="-71.3578090">
        <ele>998.7</ele>
        <time>2020-11-15T14:52:05Z</time>
      </trkpt>
      <trkpt lat="-40.2019560" lon="-71.3577670">
        <ele>998.9</ele>
        <time>2020-11-15T14:52:06Z</time>
      </trkpt>
      <trkpt lat="-40.2019680" lon="-71.3577260">
        <ele>999.1</ele>
        <time>2020-11-15T14:52:07Z</time>
      </trkpt>
      <trkpt lat="-40.2019790" lon="-71.3576860">
        <ele>999.2</ele>
        <time>2020-11-15T14:52:08Z</time>
      </trkpt>
      <trkpt lat="-40.2019880" lon="-71.3576460">
        <ele>999.4</ele>
        <time>2020-11-15T14:52:09Z</time>
      </trkpt>
      <trkpt lat="-40.2019990" lon="-71.3576060">
        <ele>999.6</ele>
        <time>2020-11-15T14:52:10Z</time>
      </trkpt>
      <trkpt lat="-40.2020100" lon="-71.3575670">
        <ele>999.8</ele>
        <time>2020-11-15T14:52:11Z</time>
      </trkpt>
      <trkpt lat="-40.2020210" lon="-71.3575270">
        <ele>999.9</ele>
        <time>2020-11-15T14:52:12Z</time>
      </trkpt>
      <trkpt lat="-40.2020310" lon="-71.3574850">
        <ele>1000.1</ele>
        <time>2020-11-15T14:52:13Z</time>
      </trkpt>
      <trkpt lat="-40.2020400" lon="-71.3574410">
        <ele>1000.3</ele>
        <time>2020-11-15T14:52:14Z</time>
      </trkpt>
      <trkpt lat="-40.2020520" lon="-71.3574010">
        <ele>1000.5</ele>
        <time>2020-11-15T14:52:15Z</time>
      </trkpt>
      <trkpt lat="-40.2020630" lon="-71.3573600">
        <ele>1000.6</ele>
        <time>2020-11-15T14:52:16Z</time>
      </trkpt>
      <trkpt lat="-40.2020710" lon="-71.3573180">
        <ele>1000.8</ele>
        <time>2020-11-15T14:52:17Z</time>
      </trkpt>
      <trkpt lat="-40.2020800" lon="-71.3572750">
        <ele>1001.0</ele>
        <time>2020-11-15T14:52:18Z</time>
      </trkpt>
      <trkpt lat="-40.2020920" lon="-71.3572340">
        <ele>1001.2</ele>
        <time>2020-11-15T14:52:19Z</time>
      </trkpt>
      <trkpt lat="-40.2021020" lon="-71.3571940">
        <ele>1001.3</ele>
        <time>2020-11-15T14:52:20Z</time>
      </trkpt>
      <trkpt lat="-40.2021130" lon="-71.3571540">
        <ele>1001.5</ele>
        <time>2020-11-15T14:52:21Z</time>
      </trkpt>
      <trkpt lat="-40.2021260" lon="-71.3571150">
        <ele>1001.7</ele>
        <time>2020-11-15T14:52:22Z</time>
      </trkpt>
      <trkpt lat="-40.2021370" lon="-71.3570760">
        <ele>1001.9</ele>
        <time>2020-11-15T14:52:23Z</time>
      </trkpt>
      <trkpt lat="-40.2021480" lon="-71.3570350">
        <ele>1002.0</ele>
        <time>2020-11-15T14:52:24Z</time>
      </trkpt>
      <trkpt lat="-40.2021580" lon="-71.3569940">
        <ele>1002.2</ele>
        <time>2020-11-15T14:52:25Z</time>
      </trkpt>
      <trkpt lat="-40.2021700" lon="-71.3569540">
        <ele>1002.4</ele>
        <time>2020-11-15T14:52:26Z</time>
      </trkpt>
      <trkpt lat="-40.2021820" lon="-71.3569150">
        <ele>1002.5</ele>
        <time>2020-11-15T14:52:27Z</time>
      </trkpt>
      <trkpt lat="-40.2021940" lon="-71.3568740">
        <ele>1002.7</ele>
        <time>2020-11-15T14:52:28Z</time>
      </trkpt>
      <trkpt lat="-40.2022080" lon="-71.3568320">
        <ele>1002.9</ele>
        <time>2020-11-15T14:52:29Z</time>
      </trkpt>
      <trkpt lat="-40.2022210" lon="-71.3567890">
        <ele>1003.0</ele>
        <time>2020-11-15T14:52:30Z</time>
      </trkpt>
      <trkpt lat="-40.2022330" lon="-71.3567480">
        <ele>1003.2</ele>
        <time>2020-11-15T14:52:31Z</time>
      </trkpt>
      <trkpt lat="-40.2022440" lon="-71.3567060">
        <ele>1003.3</ele>
        <time>2020-11-15T14:52:32Z</time>
      </trkpt>
      <trkpt lat="-40.2022580" lon="-71.3566650">
        <ele>1003.5</ele>
        <time>2020-11-15T14:52:33Z</time>
      </trkpt>
      <trkpt lat="-40.2022730" lon="-71.3566260">
        <ele>1003.6</ele>
        <time>2020-11-15T14:52:34Z</time>
      </trkpt>
      <trkpt lat="-40.2022870" lon="-71.3565870">
        <ele>1003.8</ele>
        <time>2020-11-15T14:52:35Z</time>
      </trkpt>
      <trkpt lat="-40.2023000" lon="-71.3565470">
        <ele>1003.9</ele>
        <time>2020-11-15T14:52:36Z</time>
      </trkpt>
      <trkpt lat="-40.2023160" lon="-71.3565090">
        <ele>1004.1</ele>
        <time>2020-11-15T14:52:37Z</time>
      </trkpt>
      <trkpt lat="-40.2023300" lon="-71.3564670">
        <ele>1004.2</ele>
        <time>2020-11-15T14:52:38Z</time>
      </trkpt>
      <trkpt lat="-40.2023430" lon="-71.3564240">
        <ele>1004.3</ele>
        <time>2020-11-15T14:52:39Z</time>
      </trkpt>
      <trkpt lat="-40.2023580" lon="-71.3563810">
        <ele>1004.5</ele>
        <time>2020-11-15T14:52:40Z</time>
      </trkpt>
      <trkpt lat="-40.2023720" lon="-71.3563370">
        <ele>1004.6</ele>
        <time>2020-11-15T14:52:41Z</time>
      </trkpt>
      <trkpt lat="-40.2023870" lon="-71.3562950">
        <ele>1004.8</ele>
        <time>2020-11-15T14:52:42Z</time>
      </trkpt>
      <trkpt lat="-40.2024030" lon="-71.3562530">
        <ele>1004.9</ele>
        <time>2020-11-15T14:52:43Z</time>
      </trkpt>
      <trkpt lat="-40.2024180" lon="-71.3562110">
        <ele>1005.0</ele>
        <time>2020-11-15T14:52:44Z</time>
      </trkpt>
      <trkpt lat="-40.2024340" lon="-71.3561690">
        <ele>1005.1</ele>
        <time>2020-11-15T14:52:45Z</time>
      </trkpt>
      <trkpt lat="-40.2024510" lon="-71.3561260">
        <ele>1005.2</ele>
        <time>2020-11-15T14:52:46Z</time>
      </trkpt>
      <trkpt lat="-40.2024710" lon="-71.3560840">
        <ele>1005.4</ele>
        <time>2020-11-15T14:52:47Z</time>
      </trkpt>
      <trkpt lat="-40.2024920" lon="-71.3560460">
        <ele>1005.5</ele>
        <time>2020-11-15T14:52:48Z</time>
      </trkpt>
      <trkpt lat="-40.2025150" lon="-71.3560080">
        <ele>1005.6</ele>
        <time>2020-11-15T14:52:49Z</time>
      </trkpt>
      <trkpt lat="-40.2025360" lon="-71.3559680">
        <ele>1005.7</ele>
        <time>2020-11-15T14:52:50Z</time>
      </trkpt>
      <trkpt lat="-40.2025580" lon="-71.3559270">
        <ele>1005.8</ele>
        <time>2020-11-15T14:52:51Z</time>
      </trkpt>
      <trkpt lat="-40.2025810" lon="-71.3558880">
        <ele>1006.0</ele>
        <time>2020-11-15T14:52:52Z</time>
      </trkpt>
      <trkpt lat="-40.2026040" lon="-71.3558510">
        <ele>1006.1</ele>
        <time>2020-11-15T14:52:53Z</time>
      </trkpt>
      <trkpt lat="-40.2026290" lon="-71.3558130">
        <ele>1006.2</ele>
        <time>2020-11-15T14:52:54Z</time>
      </trkpt>
      <trkpt lat="-40.2026540" lon="-71.3557770">
        <ele>1006.4</ele>
        <time>2020-11-15T14:52:55Z</time>
      </trkpt>
      <trkpt lat="-40.2026810" lon="-71.3557420">
        <ele>1006.5</ele>
        <time>2020-11-15T14:52:56Z</time>
      </trkpt>
      <trkpt lat="-40.2027060" lon="-71.3557090">
        <ele>1006.6</ele>
        <time>2020-11-15T14:52:57Z</time>
      </trkpt>
      <trkpt lat="-40.2027310" lon="-71.3556750">
        <ele>1006.7</ele>
        <time>2020-11-15T14:52:58Z</time>
      </trkpt>
      <trkpt lat="-40.2027580" lon="-71.3556470">
        <ele>1006.8</ele>
        <time>2020-11-15T14:52:59Z</time>
      </trkpt>
      <trkpt lat="-40.2027830" lon="-71.3556170">
        <ele>1007.0</ele>
        <time>2020-11-15T14:53:00Z</time>
      </trkpt>
      <trkpt lat="-40.2028100" lon="-71.3555900">
        <ele>1007.1</ele>
        <time>2020-11-15T14:53:01Z</time>
      </trkpt>
      <trkpt lat="-40.2028400" lon="-71.3555620">
        <ele>1007.2</ele>
        <time>2020-11-15T14:53:02Z</time>
      </trkpt>
      <trkpt lat="-40.2028640" lon="-71.3555260">
        <ele>1007.3</ele>
        <time>2020-11-15T14:53:03Z</time>
      </trkpt>
      <trkpt lat="-40.2028920" lon="-71.3554930">
        <ele>1007.5</ele>
        <time>2020-11-15T14:53:04Z</time>
      </trkpt>
      <trkpt lat="-40.2029230" lon="-71.3554660">
        <ele>1007.6</ele>
        <time>2020-11-15T14:53:05Z</time>
      </trkpt>
      <trkpt lat="-40.2029540" lon="-71.3554420">
        <ele>1007.7</ele>
        <time>2020-11-15T14:53:06Z</time>
      </trkpt>
      <trkpt lat="-40.2029840" lon="-71.3554150">
        <ele>1007.8</ele>
        <time>2020-11-15T14:53:07Z</time>
      </trkpt>
      <trkpt lat="-40.2030130" lon="-71.3553870">
        <ele>1008.0</ele>
        <time>2020-11-15T14:53:08Z</time>
      </trkpt>
      <trkpt lat="-40.2030410" lon="-71.3553580">
        <ele>1008.1</ele>
        <time>2020-11-15T14:53:09Z</time>
      </trkpt>
      <trkpt lat="-40.2030720" lon="-71.3553340">
        <ele>1008.3</ele>
        <time>2020-11-15T14:53:10Z</time>
      </trkpt>
      <trkpt lat="-40.2031040" lon="-71.3553120">
        <ele>1008.4</ele>
        <time>2020-11-15T14:53:11Z</time>
      </trkpt>
      <trkpt lat="-40.2031370" lon="-71.3552910">
        <ele>1008.5</ele>
        <time>2020-11-15T14:53:12Z</time>
      </trkpt>
      <trkpt lat="-40.2031690" lon="-71.3552690">
        <ele>1008.7</ele>
        <time>2020-11-15T14:53:13Z</time>
      </trkpt>
      <trkpt lat="-40.2032000" lon="-71.3552440">
        <ele>1008.8</ele>
        <time>2020-11-15T14:53:14Z</time>
      </trkpt>
      <trkpt lat="-40.2032330" lon="-71.3552220">
        <ele>1008.9</ele>
        <time>2020-11-15T14:53:15Z</time>
      </trkpt>
      <trkpt lat="-40.2032650" lon="-71.3552010">
        <ele>1009.1</ele>
        <time>2020-11-15T14:53:16Z</time>
      </trkpt>
      <trkpt lat="-40.2032990" lon="-71.3551830">
        <ele>1009.2</ele>
        <time>2020-11-15T14:53:17Z</time>
      </trkpt>
      <trkpt lat="-40.2033320" lon="-71.3551640">
        <ele>1009.3</ele>
        <time>2020-11-15T14:53:18Z</time>
      </trkpt>
      <trkpt lat="-40.2033670" lon="-71.3551460">
        <ele>1009.5</ele>
        <time>2020-11-15T14:53:19Z</time>
      </trkpt>
      <trkpt lat="-40.2034030" lon="-71.3551320">
        <ele>1009.6</ele>
        <time>2020-11-15T14:53:20Z</time>
      </trkpt>
      <trkpt lat="-40.2034370" lon="-71.3551160">
        <ele>1009.8</ele>
        <time>2020-11-15T14:53:21Z</time>
      </trkpt>
      <trkpt lat="-40.2034710" lon="-71.3551000">
        <ele>1009.9</ele>
        <time>2020-11-15T14:53:22Z</time>
      </trkpt>
      <trkpt lat="-40.2035060" lon="-71.3550890">
        <ele>1010.1</ele>
        <time>2020-11-15T14:53:23Z</time>
      </trkpt>
      <trkpt lat="-40.2035430" lon="-71.3550820">
        <ele>1010.2</ele>
        <time>2020-11-15T14:53:24Z</time>
      </trkpt>
      <trkpt lat="-40.2035790" lon="-71.3550750">
        <ele>1010.4</ele>
        <time>2020-11-15T14:53:25Z</time>
      </trkpt>
      <trkpt lat="-40.2036160" lon="-71.3550690">
        <ele>1010.5</ele>
        <time>2020-11-15T14:53:26Z</time>
      </trkpt>
      <trkpt lat="-40.2036540" lon="-71.3550640">
        <ele>1010.6</ele>
        <time>2020-11-15T14:53:27Z</time>
      </trkpt>
      <trkpt lat="-40.2036880" lon="-71.3550570">
        <ele>1010.8</ele>
        <time>2020-11-15T14:53:28Z</time>
      </trkpt>
      <trkpt lat="-40.2037240" lon="-71.3550520">
        <ele>1010.9</ele>
        <time>2020-11-15T14:53:29Z</time>
      </trkpt>
      <trkpt lat="-40.2037570" lon="-71.3550410">
        <ele>1011.0</ele>
        <time>2020-11-15T14:53:30Z</time>
      </trkpt>
      <trkpt lat="-40.2037940" lon="-71.3550350">
        <ele>1011.1</ele>
        <time>2020-11-15T14:53:31Z</time>
      </trkpt>
      <trkpt lat="-40.2038310" lon="-71.3550290">
        <ele>1011.2</ele>
        <time>2020-11-15T14:53:32Z</time>
      </trkpt>
      <trkpt lat="-40.2038670" lon="-71.3550250">
        <ele>1011.3</ele>
        <time>2020-11-15T14:53:33Z</time>
      </trkpt>
      <trkpt lat="-40.2039040" lon="-71.3550250">
        <ele>1011.4</ele>
        <time>2020-11-15T14:53:34Z</time>
      </trkpt>
      <trkpt lat="-40.2039410" lon="-71.3550220">
        <ele>1011.6</ele>
        <time>2020-11-15T14:53:35Z</time>
      </trkpt>
      <trkpt lat="-40.2039750" lon="-71.3550180">
        <ele>1011.7</ele>
        <time>2020-11-15T14:53:36Z</time>
      </trkpt>
      <trkpt lat="-40.2040130" lon="-71.3550180">
        <ele>1011.8</ele>
        <time>2020-11-15T14:53:37Z</time>
      </trkpt>
      <trkpt lat="-40.2040480" lon="-71.3550200">
        <ele>1011.9</ele>
        <time>2020-11-15T14:53:38Z</time>
      </trkpt>
      <trkpt lat="-40.2040810" lon="-71.3550200">
        <ele>1012.0</ele>
        <time>2020-11-15T14:53:39Z</time>
      </trkpt>
      <trkpt lat="-40.2041140" lon="-71.3550210">
        <ele>1012.1</ele>
        <time>2020-11-15T14:53:40Z</time>
      </trkpt>
      <trkpt lat="-40.2041470" lon="-71.3550270">
        <ele>1012.2</ele>
        <time>2020-11-15T14:53:41Z</time>
      </trkpt>
      <trkpt lat="-40.2041810" lon="-71.3550320">
        <ele>1012.3</ele>
        <time>2020-11-15T14:53:42Z</time>
      </trkpt>
      <trkpt lat="-40.2042150" lon="-71.3550360">
        <ele>1012.4</ele>
        <time>2020-11-15T14:53:43Z</time>
      </trkpt>
      <trkpt lat="-40.2042490" lon="-71.3550420">
        <ele>1012.5</ele>
        <time>2020-11-15T14:53:44Z</time>
      </trkpt>
      <trkpt lat="-40.2042820" lon="-71.3550500">
        <ele>1012.6</ele>
        <time>2020-11-15T14:53:45Z</time>
      </trkpt>
      <trkpt lat="-40.2043160" lon="-71.3550590">
        <ele>1012.7</ele>
        <time>2020-11-15T14:53:46Z</time>
      </trkpt>
      <trkpt lat="-40.2043490" lon="-71.3550690">
        <ele>1012.8</ele>
        <time>2020-11-15T14:53:47Z</time>
      </trkpt>
      <trkpt lat="-40.2043840" lon="-71.3550800">
        <ele>1012.9</ele>
        <time>2020-11-15T14:53:48Z</time>
      </trkpt>
      <trkpt lat="-40.2044190" lon="-71.3550920">
        <ele>1013.0</ele>
        <time>2020-11-15T14:53:49Z</time>
      </trkpt>
      <trkpt lat="-40.2044540" lon="-71.3551060">
        <ele>1013.2</ele>
        <time>2020-11-15T14:53:50Z</time>
      </trkpt>
      <trkpt lat="-40.2044870" lon="-71.3551200">
        <ele>1013.3</ele>
        <time>2020-11-15T14:53:51Z</time>
      </trkpt>
      <trkpt lat="-40.2045190" lon="-71.3551340">
        <ele>1013.4</ele>
        <time>2020-11-15T14:53:52Z</time>
      </trkpt>
      <trkpt lat="-40.2045520" lon="-71.3551530">
        <ele>1013.5</ele>
        <time>2020-11-15T14:53:53Z</time>
      </trkpt>
      <trkpt lat="-40.2045860" lon="-71.3551700">
        <ele>1013.6</ele>
        <time>2020-11-15T14:53:54Z</time>
      </trkpt>
      <trkpt lat="-40.2046190" lon="-71.3551850">
        <ele>1013.7</ele>
        <time>2020-11-15T14:53:55Z</time>
      </trkpt>
      <trkpt lat="-40.2046530" lon="-71.3552030">
        <ele>1013.9</ele>
        <time>2020-11-15T14:53:56Z</time>
      </trkpt>
      <trkpt lat="-40.2046830" lon="-71.3552190">
        <ele>1014.0</ele>
        <time>2020-11-15T14:53:57Z</time>
      </trkpt>
      <trkpt lat="-40.2047140" lon="-71.3552380">
        <ele>1014.1</ele>
        <time>2020-11-15T14:53:58Z</time>
      </trkpt>
      <trkpt lat="-40.2047460" lon="-71.3552590">
        <ele>1014.3</ele>
        <time>2020-11-15T14:53:59Z</time>
      </trkpt>
      <trkpt lat="-40.2047750" lon="-71.3552790">
        <ele>1014.5</ele>
        <time>2020-11-15T14:54:00Z</time>
      </trkpt>
      <trkpt lat="-40.2048070" lon="-71.3553010">
        <ele>1014.6</ele>
        <time>2020-11-15T14:54:01Z</time>
      </trkpt>
      <trkpt lat="-40.2048380" lon="-71.3553230">
        <ele>1014.8</ele>
        <time>2020-11-15T14:54:02Z</time>
      </trkpt>
      <trkpt lat="-40.2048710" lon="-71.3553470">
        <ele>1015.0</ele>
        <time>2020-11-15T14:54:03Z</time>
      </trkpt>
      <trkpt lat="-40.2049030" lon="-71.3553710">
        <ele>1015.2</ele>
        <time>2020-11-15T14:54:04Z</time>
      </trkpt>
      <trkpt lat="-40.2049320" lon="-71.3553950">
        <ele>1015.3</ele>
        <time>2020-11-15T14:54:05Z</time>
      </trkpt>
      <trkpt lat="-40.2049620" lon="-71.3554200">
        <ele>1015.5</ele>
        <time>2020-11-15T14:54:06Z</time>
      </trkpt>
      <trkpt lat="-40.2049880" lon="-71.3554430">
        <ele>1015.7</ele>
        <time>2020-11-15T14:54:07Z</time>
      </trkpt>
      <trkpt lat="-40.2050160" lon="-71.3554660">
        <ele>1015.8</ele>
        <time>2020-11-15T14:54:08Z</time>
      </trkpt>
      <trkpt lat="-40.2050460" lon="-71.3554920">
        <ele>1016.0</ele>
        <time>2020-11-15T14:54:09Z</time>
      </trkpt>
      <trkpt lat="-40.2050760" lon="-71.3555200">
        <ele>1016.2</ele>
        <time>2020-11-15T14:54:10Z</time>
      </trkpt>
      <trkpt lat="-40.2051040" lon="-71.3555480">
        <ele>1016.4</ele>
        <time>2020-11-15T14:54:11Z</time>
      </trkpt>
      <trkpt lat="-40.2051310" lon="-71.3555750">
        <ele>1016.6</ele>
        <time>2020-11-15T14:54:12Z</time>
      </trkpt>
      <trkpt lat="-40.2051570" lon="-71.3556040">
        <ele>1016.8</ele>
        <time>2020-11-15T14:54:13Z</time>
      </trkpt>
      <trkpt lat="-40.2051820" lon="-71.3556330">
        <ele>1017.0</ele>
        <time>2020-11-15T14:54:14Z</time>
      </trkpt>
      <trkpt lat="-40.2052060" lon="-71.3556620">
        <ele>1017.2</ele>
        <time>2020-11-15T14:54:15Z</time>
      </trkpt>
      <trkpt lat="-40.2052300" lon="-71.3556920">
        <ele>1017.4</ele>
        <time>2020-11-15T14:54:16Z</time>
      </trkpt>
      <trkpt lat="-40.2052520" lon="-71.3557210">
        <ele>1017.5</ele>
        <time>2020-11-15T14:54:17Z</time>
      </trkpt>
      <trkpt lat="-40.2052790" lon="-71.3557530">
        <ele>1017.7</ele>
        <time>2020-11-15T14:54:18Z</time>
      </trkpt>
      <trkpt lat="-40.2053030" lon="-71.3557820">
        <ele>1017.9</ele>
        <time>2020-11-15T14:54:19Z</time>
      </trkpt>
      <trkpt lat="-40.2053280" lon="-71.3558120">
        <ele>1018.1</ele>
        <time>2020-11-15T14:54:20Z</time>
      </trkpt>
      <trkpt lat="-40.2053530" lon="-71.3558440">
        <ele>1018.3</ele>
        <time>2020-11-15T14:54:21Z</time>
      </trkpt>
      <trkpt lat="-40.2053750" lon="-71.3558770">
        <ele>1018.5</ele>
        <time>2020-11-15T14:54:22Z</time>
      </trkpt>
      <trkpt lat="-40.2053950" lon="-71.3559100">
        <ele>1018.7</ele>
        <time>2020-11-15T14:54:23Z</time>
      </trkpt>
      <trkpt lat="-40.2054170" lon="-71.3559430">
        <ele>1018.9</ele>
        <time>2020-11-15T14:54:24Z</time>
      </trkpt>
      <trkpt lat="-40.2054360" lon="-71.3559750">
        <ele>1019.1</ele>
        <time>2020-11-15T14:54:25Z</time>
      </trkpt>
      <trkpt lat="-40.2054540" lon="-71.3560080">
        <ele>1019.3</ele>
        <time>2020-11-15T14:54:26Z</time>
      </trkpt>
      <trkpt lat="-40.2054760" lon="-71.3560400">
        <ele>1019.5</ele>
        <time>2020-11-15T14:54:27Z</time>
      </trkpt>
      <trkpt lat="-40.2054990" lon="-71.3560730">
        <ele>1019.7</ele>
        <time>2020-11-15T14:54:28Z</time>
      </trkpt>
      <trkpt lat="-40.2055180" lon="-71.3561050">
        <ele>1019.9</ele>
        <time>2020-11-15T14:54:29Z</time>
      </trkpt>
      <trkpt lat="-40.2055360" lon="-71.3561380">
        <ele>1020.1</ele>
        <time>2020-11-15T14:54:30Z</time>
      </trkpt>
      <trkpt lat="-40.2055510" lon="-71.3561700">
        <ele>1020.3</ele>
        <time>2020-11-15T14:54:31Z</time>
      </trkpt>
      <trkpt lat="-40.2055650" lon="-71.3562040">
        <ele>1020.5</ele>
        <time>2020-11-15T14:54:32Z</time>
      </trkpt>
      <trkpt lat="-40.2055830" lon="-71.3562400">
        <ele>1020.7</ele>
        <time>2020-11-15T14:54:33Z</time>
      </trkpt>
      <trkpt lat="-40.2056010" lon="-71.3562730">
        <ele>1020.8</ele>
        <time>2020-11-15T14:54:34Z</time>
      </trkpt>
      <trkpt lat="-40.2056220" lon="-71.3563060">
        <ele>1021.0</ele>
        <time>2020-11-15T14:54:35Z</time>
      </trkpt>
      <trkpt lat="-40.2056440" lon="-71.3563400">
        <ele>1021.3</ele>
        <time>2020-11-15T14:54:36Z</time>
      </trkpt>
      <trkpt lat="-40.2056660" lon="-71.3563740">
        <ele>1021.5</ele>
        <time>2020-11-15T14:54:37Z</time>
      </trkpt>
      <trkpt lat="-40.2056910" lon="-71.3564100">
        <ele>1021.7</ele>
        <time>2020-11-15T14:54:38Z</time>
      </trkpt>
      <trkpt lat="-40.2057110" lon="-71.3564440">
        <ele>1021.9</ele>
        <time>2020-11-15T14:54:39Z</time>
      </trkpt>
      <trkpt lat="-40.2057310" lon="-71.3564790">
        <ele>1022.1</ele>
        <time>2020-11-15T14:54:40Z</time>
      </trkpt>
      <trkpt lat="-40.2057510" lon="-71.3565140">
        <ele>1022.3</ele>
        <time>2020-11-15T14:54:41Z</time>
      </trkpt>
      <trkpt lat="-40.2057680" lon="-71.3565490">
        <ele>1022.5</ele>
        <time>2020-11-15T14:54:42Z</time>
      </trkpt>
      <trkpt lat="-40.2057870" lon="-71.3565830">
        <ele>1022.7</ele>
        <time>2020-11-15T14:54:43Z</time>
      </trkpt>
      <trkpt lat="-40.2058070" lon="-71.3566150">
        <ele>1022.9</ele>
        <time>2020-11-15T14:54:44Z</time>
      </trkpt>
      <trkpt lat="-40.2058270" lon="-71.3566470">
        <ele>1023.1</ele>
        <time>2020-11-15T14:54:45Z</time>
      </trkpt>
      <trkpt lat="-40.2058470" lon="-71.3566780">
        <ele>1023.3</ele>
        <time>2020-11-15T14:54:46Z</time>
      </trkpt>
      <trkpt lat="-40.2058690" lon="-71.3567110">
        <ele>1023.5</ele>
        <time>2020-11-15T14:54:47Z</time>
      </trkpt>
      <trkpt lat="-40.2058890" lon="-71.3567430">
        <ele>1023.6</ele>
        <time>2020-11-15T14:54:48Z</time>
      </trkpt>
      <trkpt lat="-40.2059080" lon="-71.3567760">
        <ele>1023.8</ele>
        <time>2020-11-15T14:54:49Z</time>
      </trkpt>
      <trkpt lat="-40.2059280" lon="-71.3568080">
        <ele>1024.0</ele>
        <time>2020-11-15T14:54:50Z</time>
      </trkpt>
      <trkpt lat="-40.2059500" lon="-71.3568380">
        <ele>1024.2</ele>
        <time>2020-11-15T14:54:51Z</time>
      </trkpt>
      <trkpt lat="-40.2059720" lon="-71.3568670">
        <ele>1024.4</ele>
        <time>2020-11-15T14:54:52Z</time>
      </trkpt>
      <trkpt lat="-40.2059940" lon="-71.3568970">
        <ele>1024.5</ele>
        <time>2020-11-15T14:54:53Z</time>
      </trkpt>
      <trkpt lat="-40.2060150" lon="-71.3569250">
        <ele>1024.7</ele>
        <time>2020-11-15T14:54:54Z</time>
      </trkpt>
      <trkpt lat="-40.2060350" lon="-71.3569530">
        <ele>1024.9</ele>
        <time>2020-11-15T14:54:55Z</time>
      </trkpt>
      <trkpt lat="-40.2060570" lon="-71.3569800">
        <ele>1025.0</ele>
        <time>2020-11-15T14:54:56Z</time>
      </trkpt>
      <trkpt lat="-40.2060800" lon="-71.3570070">
        <ele>1025.2</ele>
        <time>2020-11-15T14:54:57Z</time>
      </trkpt>
      <trkpt lat="-40.2061040" lon="-71.3570320">
        <ele>1025.4</ele>
        <time>2020-11-15T14:54:58Z</time>
      </trkpt>
      <trkpt lat="-40.2061300" lon="-71.3570570">
        <ele>1025.6</ele>
        <time>2020-11-15T14:54:59Z</time>
      </trkpt>
      <trkpt lat="-40.2061560" lon="-71.3570810">
        <ele>1025.8</ele>
        <time>2020-11-15T14:55:00Z</time>
      </trkpt>
      <trkpt lat="-40.2061840" lon="-71.3571040">
        <ele>1026.0</ele>
        <time>2020-11-15T14:55:01Z</time>
      </trkpt>
      <trkpt lat="-40.2062100" lon="-71.3571270">
        <ele>1026.2</ele>
        <time>2020-11-15T14:55:02Z</time>
      </trkpt>
      <trkpt lat="-40.2062400" lon="-71.3571510">
        <ele>1026.4</ele>
        <time>2020-11-15T14:55:03Z</time>
      </trkpt>
      <trkpt lat="-40.2062720" lon="-71.3571750">
        <ele>1026.6</ele>
        <time>2020-11-15T14:55:04Z</time>
      </trkpt>
      <trkpt lat="-40.2063010" lon="-71.3571970">
        <ele>1026.8</ele>
        <time>2020-11-15T14:55:05Z</time>
      </trkpt>
      <trkpt lat="-40.2063300" lon="-71.3572170">
        <ele>1026.9</ele>
        <time>2020-11-15T14:55:06Z</time>
      </trkpt>
      <trkpt lat="-40.2063600" lon="-71.3572350">
        <ele>1027.1</ele>
        <time>2020-11-15T14:55:07Z</time>
      </trkpt>
      <trkpt lat="-40.2063930" lon="-71.3572530">
        <ele>1027.3</ele>
        <time>2020-11-15T14:55:08Z</time>
      </trkpt>
      <trkpt lat="-40.2064220" lon="-71.3572680">
        <ele>1027.5</ele>
        <time>2020-11-15T14:55:09Z</time>
      </trkpt>
      <trkpt lat="-40.2064520" lon="-71.3572830">
        <ele>1027.7</ele>
        <time>2020-11-15T14:55:10Z</time>
      </trkpt>
      <trkpt lat="-40.2064810" lon="-71.3572960">
        <ele>1027.9</ele>
        <time>2020-11-15T14:55:11Z</time>
      </trkpt>
      <trkpt lat="-40.2065060" lon="-71.3573050">
        <ele>1028.0</ele>
        <time>2020-11-15T14:55:12Z</time>
      </trkpt>
      <trkpt lat="-40.2065310" lon="-71.3573140">
        <ele>1028.2</ele>
        <time>2020-11-15T14:55:13Z</time>
      </trkpt>
      <trkpt lat="-40.2065610" lon="-71.3573240">
        <ele>1028.4</ele>
        <time>2020-11-15T14:55:14Z</time>
      </trkpt>
      <trkpt lat="-40.2065860" lon="-71.3573330">
        <ele>1028.5</ele>
        <time>2020-11-15T14:55:15Z</time>
      </trkpt>
      <trkpt lat="-40.2066150" lon="-71.3573410">
        <ele>1028.7</ele>
        <time>2020-11-15T14:55:16Z</time>
      </trkpt>
      <trkpt lat="-40.2066440" lon="-71.3573470">
        <ele>1028.9</ele>
        <time>2020-11-15T14:55:17Z</time>
      </trkpt>
      <trkpt lat="-40.2066720" lon="-71.3573510">
        <ele>1028.9</ele>
        <time>2020-11-15T14:55:18Z</time>
      </trkpt>
      <trkpt lat="-40.2067010" lon="-71.3573580">
        <ele>1029.0</ele>
        <time>2020-11-15T14:55:19Z</time>
      </trkpt>
      <trkpt lat="-40.2067310" lon="-71.3573620">
        <ele>1029.1</ele>
        <time>2020-11-15T14:55:20Z</time>
      </trkpt>
      <trkpt lat="-40.2067600" lon="-71.3573660">
        <ele>1029.2</ele>
        <time>2020-11-15T14:55:21Z</time>
      </trkpt>
      <trkpt lat="-40.2067900" lon="-71.3573690">
        <ele>1029.2</ele>
        <time>2020-11-15T14:55:22Z</time>
      </trkpt>
      <trkpt lat="-40.2068190" lon="-71.3573700">
        <ele>1029.3</ele>
        <time>2020-11-15T14:55:23Z</time>
      </trkpt>
      <trkpt lat="-40.2068500" lon="-71.3573710">
        <ele>1029.4</ele>
        <time>2020-11-15T14:55:24Z</time>
      </trkpt>
      <trkpt lat="-40.2068790" lon="-71.3573710">
        <ele>1029.6</ele>
        <time>2020-11-15T14:55:25Z</time>
      </trkpt>
      <trkpt lat="-40.2069140" lon="-71.3573780">
        <ele>1029.8</ele>
        <time>2020-11-15T14:55:26Z</time>
      </trkpt>
      <trkpt lat="-40.2069470" lon="-71.3573800">
        <ele>1030.0</ele>
        <time>2020-11-15T14:55:27Z</time>
      </trkpt>
      <trkpt lat="-40.2069800" lon="-71.3573800">
        <ele>1030.1</ele>
        <time>2020-11-15T14:55:28Z</time>
      </trkpt>
      <trkpt lat="-40.2070120" lon="-71.3573820">
        <ele>1030.3</ele>
        <time>2020-11-15T14:55:29Z</time>
      </trkpt>
      <trkpt lat="-40.2070430" lon="-71.3573860">
        <ele>1030.4</ele>
        <time>2020-11-15T14:55:30Z</time>
      </trkpt>
      <trkpt lat="-40.2070730" lon="-71.3573870">
        <ele>1030.6</ele>
        <time>2020-11-15T14:55:31Z</time>
      </trkpt>
      <trkpt lat="-40.2071050" lon="-71.3573840">
        <ele>1030.8</ele>
        <time>2020-11-15T14:55:32Z</time>
      </trkpt>
      <trkpt lat="-40.2071350" lon="-71.3573810">
        <ele>1030.9</ele>
        <time>2020-11-15T14:55:33Z</time>
      </trkpt>
      <trkpt lat="-40.2071650" lon="-71.3573810">
        <ele>1031.1</ele>
        <time>2020-11-15T14:55:34Z</time>
      </trkpt>
      <trkpt lat="-40.2071950" lon="-71.3573820">
        <ele>1031.2</ele>
        <time>2020-11-15T14:55:35Z</time>
      </trkpt>
      <trkpt lat="-40.2072250" lon="-71.3573820">
        <ele>1031.3</ele>
        <time>2020-11-15T14:55:36Z</time>
      </trkpt>
      <trkpt lat="-40.2072560" lon="-71.3573800">
        <ele>1031.5</ele>
        <time>2020-11-15T14:55:37Z</time>
      </trkpt>
      <trkpt lat="-40.2072880" lon="-71.3573800">
        <ele>1031.7</ele>
        <time>2020-11-15T14:55:38Z</time>
      </trkpt>
      <trkpt lat="-40.2073180" lon="-71.3573790">
        <ele>1031.8</ele>
        <time>2020-11-15T14:55:39Z</time>
      </trkpt>
      <trkpt lat="-40.2073490" lon="-71.3573770">
        <ele>1032.0</ele>
        <time>2020-11-15T14:55:40Z</time>
      </trkpt>
      <trkpt lat="-40.2073810" lon="-71.3573770">
        <ele>1032.1</ele>
        <time>2020-11-15T14:55:41Z</time>
      </trkpt>
      <trkpt lat="-40.2074120" lon="-71.3573770">
        <ele>1032.3</ele>
        <time>2020-11-15T14:55:42Z</time>
      </trkpt>
      <trkpt lat="-40.2074430" lon="-71.3573780">
        <ele>1032.5</ele>
        <time>2020-11-15T14:55:43Z</time>
      </trkpt>
      <trkpt lat="-40.2074740" lon="-71.3573780">
        <ele>1032.6</ele>
        <time>2020-11-15T14:55:44Z</time>
      </trkpt>
      <trkpt lat="-40.2075050" lon="-71.3573790">
        <ele>1032.8</ele>
        <time>2020-11-15T14:55:45Z</time>
      </trkpt>
      <trkpt lat="-40.2075350" lon="-71.3573790">
        <ele>1033.0</ele>
        <time>2020-11-15T14:55:46Z</time>
      </trkpt>
      <trkpt lat="-40.2075650" lon="-71.3573780">
        <ele>1033.1</ele>
        <time>2020-11-15T14:55:47Z</time>
      </trkpt>
      <trkpt lat="-40.2075940" lon="-71.3573770">
        <ele>1033.3</ele>
        <time>2020-11-15T14:55:48Z</time>
      </trkpt>
      <trkpt lat="-40.2076220" lon="-71.3573750">
        <ele>1033.4</ele>
        <time>2020-11-15T14:55:49Z</time>
      </trkpt>
      <trkpt lat="-40.2076510" lon="-71.3573730">
        <ele>1033.6</ele>
        <time>2020-11-15T14:55:50Z</time>
      </trkpt>
      <trkpt lat="-40.2076820" lon="-71.3573750">
        <ele>1033.8</ele>
        <time>2020-11-15T14:55:51Z</time>
      </trkpt>
      <trkpt lat="-40.2077120" lon="-71.3573750">
        <ele>1034.0</ele>
        <time>2020-11-15T14:55:52Z</time>
      </trkpt>
      <trkpt lat="-40.2077440" lon="-71.3573740">
        <ele>1034.1</ele>
        <time>2020-11-15T14:55:53Z</time>
      </trkpt>
      <trkpt lat="-40.2077740" lon="-71.3573750">
        <ele>1034.3</ele>
        <time>2020-11-15T14:55:54Z</time>
      </trkpt>
      <trkpt lat="-40.2078030" lon="-71.3573750">
        <ele>1034.5</ele>
        <time>2020-11-15T14:55:55Z</time>
      </trkpt>
      <trkpt lat="-40.2078330" lon="-71.3573750">
        <ele>1034.7</ele>
        <time>2020-11-15T14:55:56Z</time>
      </trkpt>
      <trkpt lat="-40.2078640" lon="-71.3573740">
        <ele>1034.8</ele>
        <time>2020-11-15T14:55:57Z</time>
      </trkpt>
      <trkpt lat="-40.2078950" lon="-71.3573730">
        <ele>1035.0</ele>
        <time>2020-11-15T14:55:58Z</time>
      </trkpt>
      <trkpt lat="-40.2079260" lon="-71.3573720">
        <ele>1035.2</ele>
        <time>2020-11-15T14:55:59Z</time>
      </trkpt>
      <trkpt lat="-40.2079570" lon="-71.3573710">
        <ele>1035.3</ele>
        <time>2020-11-15T14:56:00Z</time>
      </trkpt>
      <trkpt lat="-40.2079880" lon="-71.3573690">
        <ele>1035.5</ele>
        <time>2020-11-15T14:56:01Z</time>
      </trkpt>
      <trkpt lat="-40.2080200" lon="-71.3573690">
        <ele>1035.7</ele>
        <time>2020-11-15T14:56:02Z</time>
      </trkpt>
      <trkpt lat="-40.2080490" lon="-71.3573690">
        <ele>1035.8</ele>
        <time>2020-11-15T14:56:03Z</time>
      </trkpt>
      <trkpt lat="-40.2080800" lon="-71.3573690">
        <ele>1036.0</ele>
        <time>2020-11-15T14:56:04Z</time>
      </trkpt>
      <trkpt lat="-40.2081100" lon="-71.3573680">
        <ele>1036.2</ele>
        <time>2020-11-15T14:56:05Z</time>
      </trkpt>
      <trkpt lat="-40.2081410" lon="-71.3573690">
        <ele>1036.3</ele>
        <time>2020-11-15T14:56:06Z</time>
      </trkpt>
      <trkpt lat="-40.2081710" lon="-71.3573700">
        <ele>1036.5</ele>
        <time>2020-11-15T14:56:07Z</time>
      </trkpt>
      <trkpt lat="-40.2082020" lon="-71.3573710">
        <ele>1036.7</ele>
        <time>2020-11-15T14:56:08Z</time>
      </trkpt>
      <trkpt lat="-40.2082320" lon="-71.3573710">
        <ele>1036.9</ele>
        <time>2020-11-15T14:56:09Z</time>
      </trkpt>
      <trkpt lat="-40.2082620" lon="-71.3573730">
        <ele>1037.0</ele>
        <time>2020-11-15T14:56:10Z</time>
      </trkpt>
      <trkpt lat="-40.2082910" lon="-71.3573760">
        <ele>1037.2</ele>
        <time>2020-11-15T14:56:11Z</time>
      </trkpt>
      <trkpt lat="-40.2083210" lon="-71.3573790">
        <ele>1037.4</ele>
        <time>2020-11-15T14:56:12Z</time>
      </trkpt>
      <trkpt lat="-40.2083490" lon="-71.3573820">
        <ele>1037.6</ele>
        <time>2020-11-15T14:56:13Z</time>
      </trkpt>
      <trkpt lat="-40.2083790" lon="-71.3573830">
        <ele>1037.8</ele>
        <time>2020-11-15T14:56:14Z</time>
      </trkpt>
      <trkpt lat="-40.2084100" lon="-71.3573840">
        <ele>1037.9</ele>
        <time>2020-11-15T14:56:15Z</time>
      </trkpt>
      <trkpt lat="-40.2084390" lon="-71.3573860">
        <ele>1038.1</ele>
        <time>2020-11-15T14:56:16Z</time>
      </trkpt>
      <trkpt lat="-40.2084680" lon="-71.3573860">
        <ele>1038.3</ele>
        <time>2020-11-15T14:56:17Z</time>
      </trkpt>
      <trkpt lat="-40.2084970" lon="-71.3573880">
        <ele>1038.4</ele>
        <time>2020-11-15T14:56:18Z</time>
      </trkpt>
      <trkpt lat="-40.2085270" lon="-71.3573920">
        <ele>1038.6</ele>
        <time>2020-11-15T14:56:19Z</time>
      </trkpt>
      <trkpt lat="-40.2085570" lon="-71.3573950">
        <ele>1038.7</ele>
        <time>2020-11-15T14:56:20Z</time>
      </trkpt>
      <trkpt lat="-40.2085890" lon="-71.3573980">
        <ele>1038.9</ele>
        <time>2020-11-15T14:56:21Z</time>
      </trkpt>
      <trkpt lat="-40.2086190" lon="-71.3574000">
        <ele>1039.1</ele>
        <time>2020-11-15T14:56:22Z</time>
      </trkpt>
      <trkpt lat="-40.2086480" lon="-71.3574030">
        <ele>1039.2</ele>
        <time>2020-11-15T14:56:23Z</time>
      </trkpt>
      <trkpt lat="-40.2086770" lon="-71.3574080">
        <ele>1039.4</ele>
        <time>2020-11-15T14:56:24Z</time>
      </trkpt>
      <trkpt lat="-40.2087050" lon="-71.3574120">
        <ele>1039.5</ele>
        <time>2020-11-15T14:56:25Z</time>
      </trkpt>
      <trkpt lat="-40.2087330" lon="-71.3574150">
        <ele>1039.7</ele>
        <time>2020-11-15T14:56:26Z</time>
      </trkpt>
      <trkpt lat="-40.2087600" lon="-71.3574190">
        <ele>1039.8</ele>
        <time>2020-11-15T14:56:27Z</time>
      </trkpt>
      <trkpt lat="-40.2087880" lon="-71.3574220">
        <ele>1039.9</ele>
        <time>2020-11-15T14:56:28Z</time>
      </trkpt>
      <trkpt lat="-40.2088150" lon="-71.3574250">
        <ele>1040.1</ele>
        <time>2020-11-15T14:56:29Z</time>
      </trkpt>
      <trkpt lat="-40.2088440" lon="-71.3574290">
        <ele>1040.2</ele>
        <time>2020-11-15T14:56:30Z</time>
      </trkpt>
      <trkpt lat="-40.2088740" lon="-71.3574320">
        <ele>1040.4</ele>
        <time>2020-11-15T14:56:31Z</time>
      </trkpt>
      <trkpt lat="-40.2089040" lon="-71.3574320">
        <ele>1040.5</ele>
        <time>2020-11-15T14:56:32Z</time>
      </trkpt>
      <trkpt lat="-40.2089320" lon="-71.3574320">
        <ele>1040.7</ele>
        <time>2020-11-15T14:56:33Z</time>
      </trkpt>
      <trkpt lat="-40.2089610" lon="-71.3574340">
        <ele>1040.8</ele>
        <time>2020-11-15T14:56:34Z</time>
      </trkpt>
      <trkpt lat="-40.2089910" lon="-71.3574380">
        <ele>1040.9</ele>
        <time>2020-11-15T14:56:35Z</time>
      </trkpt>
      <trkpt lat="-40.2090190" lon="-71.3574430">
        <ele>1041.1</ele>
        <time>2020-11-15T14:56:36Z</time>
      </trkpt>
      <trkpt lat="-40.2090480" lon="-71.3574480">
        <ele>1041.2</ele>
        <time>2020-11-15T14:56:37Z</time>
      </trkpt>
      <trkpt lat="-40.2090780" lon="-71.3574550">
        <ele>1041.4</ele>
        <time>2020-11-15T14:56:38Z</time>
      </trkpt>
      <trkpt lat="-40.2091090" lon="-71.3574590">
        <ele>1041.5</ele>
        <time>2020-11-15T14:56:39Z</time>
      </trkpt>
      <trkpt lat="-40.2091390" lon="-71.3574640">
        <ele>1041.7</ele>
        <time>2020-11-15T14:56:40Z</time>
      </trkpt>
      <trkpt lat="-40.2091690" lon="-71.3574710">
        <ele>1041.8</ele>
        <time>2020-11-15T14:56:41Z</time>
      </trkpt>
      <trkpt lat="-40.2091990" lon="-71.3574800">
        <ele>1042.0</ele>
        <time>2020-11-15T14:56:42Z</time>
      </trkpt>
      <trkpt lat="-40.2092320" lon="-71.3574910">
        <ele>1042.2</ele>
        <time>2020-11-15T14:56:43Z</time>
      </trkpt>
      <trkpt lat="-40.2092640" lon="-71.3574990">
        <ele>1042.3</ele>
        <time>2020-11-15T14:56:44Z</time>
      </trkpt>
      <trkpt lat="-40.2092970" lon="-71.3575070">
        <ele>1042.5</ele>
        <time>2020-11-15T14:56:45Z</time>
      </trkpt>
      <trkpt lat="-40.2093290" lon="-71.3575160">
        <ele>1042.7</ele>
        <time>2020-11-15T14:56:46Z</time>
      </trkpt>
      <trkpt lat="-40.2093620" lon="-71.3575250">
        <ele>1042.9</ele>
        <time>2020-11-15T14:56:47Z</time>
      </trkpt>
      <trkpt lat="-40.2093940" lon="-71.3575340">
        <ele>1043.1</ele>
        <time>2020-11-15T14:56:48Z</time>
      </trkpt>
      <trkpt lat="-40.2094260" lon="-71.3575410">
        <ele>1043.2</ele>
        <time>2020-11-15T14:56:49Z</time>
      </trkpt>
      <trkpt lat="-40.2094580" lon="-71.3575480">
        <ele>1043.4</ele>
        <time>2020-11-15T14:56:50Z</time>
      </trkpt>
      <trkpt lat="-40.2094900" lon="-71.3575580">
        <ele>1043.6</ele>
        <time>2020-11-15T14:56:51Z</time>
      </trkpt>
      <trkpt lat="-40.2095230" lon="-71.3575680">
        <ele>1043.8</ele>
        <time>2020-11-15T14:56:52Z</time>
      </trkpt>
      <trkpt lat="-40.2095550" lon="-71.3575790">
        <ele>1044.0</ele>
        <time>2020-11-15T14:56:53Z</time>
      </trkpt>
      <trkpt lat="-40.2095850" lon="-71.3575920">
        <ele>1044.2</ele>
        <time>2020-11-15T14:56:54Z</time>
      </trkpt>
      <trkpt lat="-40.2096150" lon="-71.3576030">
        <ele>1044.4</ele>
        <time>2020-11-15T14:56:55Z</time>
      </trkpt>
      <trkpt lat="-40.2096440" lon="-71.3576140">
        <ele>1044.6</ele>
        <time>2020-11-15T14:56:56Z</time>
      </trkpt>
      <trkpt lat="-40.2096750" lon="-71.3576270">
        <ele>1044.8</ele>
        <time>2020-11-15T14:56:57Z</time>
      </trkpt>
      <trkpt lat="-40.2097040" lon="-71.3576410">
        <ele>1045.0</ele>
        <time>2020-11-15T14:56:58Z</time>
      </trkpt>
      <trkpt lat="-40.2097350" lon="-71.3576540">
        <ele>1045.1</ele>
        <time>2020-11-15T14:56:59Z</time>
      </trkpt>
      <trkpt lat="-40.2097650" lon="-71.3576670">
        <ele>1045.3</ele>
        <time>2020-11-15T14:57:00Z</time>
      </trkpt>
      <trkpt lat="-40.2097950" lon="-71.3576820">
        <ele>1045.5</ele>
        <time>2020-11-15T14:57:01Z</time>
      </trkpt>
      <trkpt lat="-40.2098260" lon="-71.3576980">
        <ele>1045.7</ele>
        <time>2020-11-15T14:57:02Z</time>
      </trkpt>
      <trkpt lat="-40.2098520" lon="-71.3577120">
        <ele>1045.8</ele>
        <time>2020-11-15T14:57:03Z</time>
      </trkpt>
      <trkpt lat="-40.2098770" lon="-71.3577260">
        <ele>1046.0</ele>
        <time>2020-11-15T14:57:04Z</time>
      </trkpt>
      <trkpt lat="-40.2099020" lon="-71.3577410">
        <ele>1046.1</ele>
        <time>2020-11-15T14:57:05Z</time>
      </trkpt>
      <trkpt lat="-40.2099300" lon="-71.3577570">
        <ele>1046.3</ele>
        <time>2020-11-15T14:57:06Z</time>
      </trkpt>
      <trkpt lat="-40.2099550" lon="-71.3577750">
        <ele>1046.5</ele>
        <time>2020-11-15T14:57:07Z</time>
      </trkpt>
      <trkpt lat="-40.2099800" lon="-71.3577920">
        <ele>1046.6</ele>
        <time>2020-11-15T14:57:08Z</time>
      </trkpt>
      <trkpt lat="-40.2100020" lon="-71.3578070">
        <ele>1046.8</ele>
        <time>2020-11-15T14:57:09Z</time>
      </trkpt>
      <trkpt lat="-40.2100240" lon="-71.3578270">
        <ele>1046.9</ele>
        <time>2020-11-15T14:57:10Z</time>
      </trkpt>
      <trkpt lat="-40.2100490" lon="-71.3578510">
        <ele>1047.1</ele>
        <time>2020-11-15T14:57:11Z</time>
      </trkpt>
      <trkpt lat="-40.2100750" lon="-71.3578750">
        <ele>1047.3</ele>
        <time>2020-11-15T14:57:12Z</time>
      </trkpt>
      <trkpt lat="-40.2100990" lon="-71.3578940">
        <ele>1047.4</ele>
        <time>2020-11-15T14:57:13Z</time>
      </trkpt>
      <trkpt lat="-40.2101230" lon="-71.3579150">
        <ele>1047.6</ele>
        <time>2020-11-15T14:57:14Z</time>
      </trkpt>
      <trkpt lat="-40.2101460" lon="-71.3579390">
        <ele>1047.8</ele>
        <time>2020-11-15T14:57:15Z</time>
      </trkpt>
      <trkpt lat="-40.2101700" lon="-71.3579640">
        <ele>1048.0</ele>
        <time>2020-11-15T14:57:16Z</time>
      </trkpt>
      <trkpt lat="-40.2101960" lon="-71.3579910">
        <ele>1048.2</ele>
        <time>2020-11-15T14:57:17Z</time>
      </trkpt>
      <trkpt lat="-40.2102220" lon="-71.3580200">
        <ele>1048.4</ele>
        <time>2020-11-15T14:57:18Z</time>
      </trkpt>
      <trkpt lat="-40.2102480" lon="-71.3580500">
        <ele>1048.6</ele>
        <time>2020-11-15T14:57:19Z</time>
      </trkpt>
      <trkpt lat="-40.2102710" lon="-71.3580780">
        <ele>1048.8</ele>
        <time>2020-11-15T14:57:20Z</time>
      </trkpt>
      <trkpt lat="-40.2102950" lon="-71.3581070">
        <ele>1049.0</ele>
        <time>2020-11-15T14:57:21Z</time>
      </trkpt>
      <trkpt lat="-40.2103180" lon="-71.3581370">
        <ele>1049.2</ele>
        <time>2020-11-15T14:57:22Z</time>
      </trkpt>
      <trkpt lat="-40.2103410" lon="-71.3581650">
        <ele>1049.4</ele>
        <time>2020-11-15T14:57:23Z</time>
      </trkpt>
      <trkpt lat="-40.2103640" lon="-71.3581930">
        <ele>1049.5</ele>
        <time>2020-11-15T14:57:24Z</time>
      </trkpt>
      <trkpt lat="-40.2103860" lon="-71.3582220">
        <ele>1049.7</ele>
        <time>2020-11-15T14:57:25Z</time>
      </trkpt>
      <trkpt lat="-40.2104060" lon="-71.3582520">
        <ele>1049.9</ele>
        <time>2020-11-15T14:57:26Z</time>
      </trkpt>
      <trkpt lat="-40.2104280" lon="-71.3582840">
        <ele>1050.1</ele>
        <time>2020-11-15T14:57:27Z</time>
      </trkpt>
      <trkpt lat="-40.2104490" lon="-71.3583170">
        <ele>1050.3</ele>
        <time>2020-11-15T14:57:28Z</time>
      </trkpt>
      <trkpt lat="-40.2104680" lon="-71.3583480">
        <ele>1050.5</ele>
        <time>2020-11-15T14:57:29Z</time>
      </trkpt>
      <trkpt lat="-40.2104830" lon="-71.3583790">
        <ele>1050.7</ele>
        <time>2020-11-15T14:57:30Z</time>
      </trkpt>
      <trkpt lat="-40.2104990" lon="-71.3584110">
        <ele>1050.9</ele>
        <time>2020-11-15T14:57:31Z</time>
      </trkpt>
      <trkpt lat="-40.2105150" lon="-71.3584450">
        <ele>1051.1</ele>
        <time>2020-11-15T14:57:32Z</time>
      </trkpt>
      <trkpt lat="-40.2105320" lon="-71.3584780">
        <ele>1051.3</ele>
        <time>2020-11-15T14:57:33Z</time>
      </trkpt>
      <trkpt lat="-40.2105490" lon="-71.3585110">
        <ele>1051.5</ele>
        <time>2020-11-15T14:57:34Z</time>
      </trkpt>
      <trkpt lat="-40.2105670" lon="-71.3585450">
        <ele>1051.7</ele>
        <time>2020-11-15T14:57:35Z</time>
      </trkpt>
      <trkpt lat="-40.2105850" lon="-71.3585780">
        <ele>1051.9</ele>
        <time>2020-11-15T14:57:36Z</time>
      </trkpt>
      <trkpt lat="-40.2106010" lon="-71.3586120">
        <ele>1052.1</ele>
        <time>2020-11-15T14:57:37Z</time>
      </trkpt>
      <trkpt lat="-40.2106170" lon="-71.3586450">
        <ele>1052.3</ele>
        <time>2020-11-15T14:57:38Z</time>
      </trkpt>
      <trkpt lat="-40.2106340" lon="-71.3586790">
        <ele>1052.5</ele>
        <time>2020-11-15T14:57:39Z</time>
      </trkpt>
      <trkpt lat="-40.2106480" lon="-71.3587130">
        <ele>1052.7</ele>
        <time>2020-11-15T14:57:40Z</time>
      </trkpt>
      <trkpt lat="-40.2106610" lon="-71.3587470">
        <ele>1052.9</ele>
        <time>2020-11-15T14:57:41Z</time>
      </trkpt>
      <trkpt lat="-40.2106760" lon="-71.3587810">
        <ele>1053.0</ele>
        <time>2020-11-15T14:57:42Z</time>
      </trkpt>
      <trkpt lat="-40.2106910" lon="-71.3588160">
        <ele>1053.2</ele>
        <time>2020-11-15T14:57:43Z</time>
      </trkpt>
      <trkpt lat="-40.2107040" lon="-71.3588510">
        <ele>1053.4</ele>
        <time>2020-11-15T14:57:44Z</time>
      </trkpt>
      <trkpt lat="-40.2107170" lon="-71.3588860">
        <ele>1053.6</ele>
        <time>2020-11-15T14:57:45Z</time>
      </trkpt>
      <trkpt lat="-40.2107270" lon="-71.3589190">
        <ele>1053.8</ele>
        <time>2020-11-15T14:57:46Z</time>
      </trkpt>
      <trkpt lat="-40.2107350" lon="-71.3589520">
        <ele>1054.0</ele>
        <time>2020-11-15T14:57:47Z</time>
      </trkpt>
      <trkpt lat="-40.2107450" lon="-71.3589860">
        <ele>1054.2</ele>
        <time>2020-11-15T14:57:48Z</time>
      </trkpt>
      <trkpt lat="-40.2107540" lon="-71.3590190">
        <ele>1054.4</ele>
        <time>2020-11-15T14:57:49Z</time>
      </trkpt>
      <trkpt lat="-40.2107640" lon="-71.3590530">
        <ele>1054.6</ele>
        <time>2020-11-15T14:57:50Z</time>
      </trkpt>
      <trkpt lat="-40.2107770" lon="-71.3590860">
        <ele>1054.8</ele>
        <time>2020-11-15T14:57:51Z</time>
      </trkpt>
      <trkpt lat="-40.2107900" lon="-71.3591200">
        <ele>1055.0</ele>
        <time>2020-11-15T14:57:52Z</time>
      </trkpt>
      <trkpt lat="-40.2108020" lon="-71.3591540">
        <ele>1055.2</ele>
        <time>2020-11-15T14:57:53Z</time>
      </trkpt>
      <trkpt lat="-40.2108120" lon="-71.3591880">
        <ele>1055.4</ele>
        <time>2020-11-15T14:57:54Z</time>
      </trkpt>
      <trkpt lat="-40.2108230" lon="-71.3592220">
        <ele>1055.6</ele>
        <time>2020-11-15T14:57:55Z</time>
      </trkpt>
      <trkpt lat="-40.2108370" lon="-71.3592570">
        <ele>1055.8</ele>
        <time>2020-11-15T14:57:56Z</time>
      </trkpt>
      <trkpt lat="-40.2108500" lon="-71.3592920">
        <ele>1056.0</ele>
        <time>2020-11-15T14:57:57Z</time>
      </trkpt>
      <trkpt lat="-40.2108630" lon="-71.3593270">
        <ele>1056.2</ele>
        <time>2020-11-15T14:57:58Z</time>
      </trkpt>
      <trkpt lat="-40.2108750" lon="-71.3593630">
        <ele>1056.4</ele>
        <time>2020-11-15T14:57:59Z</time>
      </trkpt>
      <trkpt lat="-40.2108870" lon="-71.3593960">
        <ele>1056.6</ele>
        <time>2020-11-15T14:58:00Z</time>
      </trkpt>
      <trkpt lat="-40.2108990" lon="-71.3594300">
        <ele>1056.8</ele>
        <time>2020-11-15T14:58:01Z</time>
      </trkpt>
      <trkpt lat="-40.2109100" lon="-71.3594640">
        <ele>1056.9</ele>
        <time>2020-11-15T14:58:02Z</time>
      </trkpt>
      <trkpt lat="-40.2109230" lon="-71.3594980">
        <ele>1057.1</ele>
        <time>2020-11-15T14:58:03Z</time>
      </trkpt>
      <trkpt lat="-40.2109350" lon="-71.3595330">
        <ele>1057.3</ele>
        <time>2020-11-15T14:58:04Z</time>
      </trkpt>
      <trkpt lat="-40.2109470" lon="-71.3595670">
        <ele>1057.5</ele>
        <time>2020-11-15T14:58:05Z</time>
      </trkpt>
      <trkpt lat="-40.2109610" lon="-71.3596000">
        <ele>1057.7</ele>
        <time>2020-11-15T14:58:06Z</time>
      </trkpt>
      <trkpt lat="-40.2109750" lon="-71.3596340">
        <ele>1057.9</ele>
        <time>2020-11-15T14:58:07Z</time>
      </trkpt>
      <trkpt lat="-40.2109900" lon="-71.3596680">
        <ele>1058.0</ele>
        <time>2020-11-15T14:58:08Z</time>
      </trkpt>
      <trkpt lat="-40.2110080" lon="-71.3597030">
        <ele>1058.2</ele>
        <time>2020-11-15T14:58:09Z</time>
      </trkpt>
      <trkpt lat="-40.2110250" lon="-71.3597390">
        <ele>1058.4</ele>
        <time>2020-11-15T14:58:10Z</time>
      </trkpt>
      <trkpt lat="-40.2110350" lon="-71.3597730">
        <ele>1058.6</ele>
        <time>2020-11-15T14:58:11Z</time>
      </trkpt>
      <trkpt lat="-40.2110460" lon="-71.3598080">
        <ele>1058.7</ele>
        <time>2020-11-15T14:58:12Z</time>
      </trkpt>
      <trkpt lat="-40.2110590" lon="-71.3598420">
        <ele>1058.9</ele>
        <time>2020-11-15T14:58:13Z</time>
      </trkpt>
      <trkpt lat="-40.2110740" lon="-71.3598740">
        <ele>1059.0</ele>
        <time>2020-11-15T14:58:14Z</time>
      </trkpt>
      <trkpt lat="-40.2110930" lon="-71.3599060">
        <ele>1059.2</ele>
        <time>2020-11-15T14:58:15Z</time>
      </trkpt>
      <trkpt lat="-40.2111120" lon="-71.3599380">
        <ele>1059.4</ele>
        <time>2020-11-15T14:58:16Z</time>
      </trkpt>
      <trkpt lat="-40.2111300" lon="-71.3599690">
        <ele>1059.5</ele>
        <time>2020-11-15T14:58:17Z</time>
      </trkpt>
      <trkpt lat="-40.2111480" lon="-71.3600010">
        <ele>1059.7</ele>
        <time>2020-11-15T14:58:18Z</time>
      </trkpt>
      <trkpt lat="-40.2111670" lon="-71.3600310">
        <ele>1059.8</ele>
        <time>2020-11-15T14:58:19Z</time>
      </trkpt>
      <trkpt lat="-40.2111870" lon="-71.3600580">
        <ele>1059.9</ele>
        <time>2020-11-15T14:58:20Z</time>
      </trkpt>
      <trkpt lat="-40.2112080" lon="-71.3600860">
        <ele>1060.1</ele>
        <time>2020-11-15T14:58:21Z</time>
      </trkpt>
      <trkpt lat="-40.2112300" lon="-71.3601140">
        <ele>1060.2</ele>
        <time>2020-11-15T14:58:22Z</time>
      </trkpt>
      <trkpt lat="-40.2112510" lon="-71.3601400">
        <ele>1060.4</ele>
        <time>2020-11-15T14:58:23Z</time>
      </trkpt>
      <trkpt lat="-40.2112720" lon="-71.3601660">
        <ele>1060.5</ele>
        <time>2020-11-15T14:58:24Z</time>
      </trkpt>
      <trkpt lat="-40.2112920" lon="-71.3601890">
        <ele>1060.6</ele>
        <time>2020-11-15T14:58:25Z</time>
      </trkpt>
      <trkpt lat="-40.2113160" lon="-71.3602150">
        <ele>1060.8</ele>
        <time>2020-11-15T14:58:26Z</time>
      </trkpt>
      <trkpt lat="-40.2113410" lon="-71.3602400">
        <ele>1060.9</ele>
        <time>2020-11-15T14:58:27Z</time>
      </trkpt>
      <trkpt lat="-40.2113660" lon="-71.3602620">
        <ele>1061.0</ele>
        <time>2020-11-15T14:58:28Z</time>
      </trkpt>
      <trkpt lat="-40.2113920" lon="-71.3602840">
        <ele>1061.2</ele>
        <time>2020-11-15T14:58:29Z</time>
      </trkpt>
      <trkpt lat="-40.2114210" lon="-71.3603040">
        <ele>1061.3</ele>
        <time>2020-11-15T14:58:30Z</time>
      </trkpt>
      <trkpt lat="-40.2114510" lon="-71.3603230">
        <ele>1061.5</ele>
        <time>2020-11-15T14:58:31Z</time>
      </trkpt>
      <trkpt lat="-40.2114800" lon="-71.3603440">
        <ele>1061.6</ele>
        <time>2020-11-15T14:58:32Z</time>
      </trkpt>
      <trkpt lat="-40.2115070" lon="-71.3603650">
        <ele>1061.8</ele>
        <time>2020-11-15T14:58:33Z</time>
      </trkpt>
      <trkpt lat="-40.2115360" lon="-71.3603840">
        <ele>1061.9</ele>
        <time>2020-11-15T14:58:34Z</time>
      </trkpt>
      <trkpt lat="-40.2115650" lon="-71.3604020">
        <ele>1062.1</ele>
        <time>2020-11-15T14:58:35Z</time>
      </trkpt>
      <trkpt lat="-40.2115940" lon="-71.3604210">
        <ele>1062.2</ele>
        <time>2020-11-15T14:58:36Z</time>
      </trkpt>
      <trkpt lat="-40.2116270" lon="-71.3604380">
        <ele>1062.4</ele>
        <time>2020-11-15T14:58:37Z</time>
      </trkpt>
      <trkpt lat="-40.2116580" lon="-71.3604550">
        <ele>1062.5</ele>
        <time>2020-11-15T14:58:38Z</time>
      </trkpt>
      <trkpt lat="-40.2116890" lon="-71.3604720">
        <ele>1062.7</ele>
        <time>2020-11-15T14:58:39Z</time>
      </trkpt>
      <trkpt lat="-40.2117150" lon="-71.3604870">
        <ele>1062.8</ele>
        <time>2020-11-15T14:58:40Z</time>
      </trkpt>
      <trkpt lat="-40.2117410" lon="-71.3605040">
        <ele>1062.9</ele>
        <time>2020-11-15T14:58:41Z</time>
      </trkpt>
      <trkpt lat="-40.2117660" lon="-71.3605210">
        <ele>1063.1</ele>
        <time>2020-11-15T14:58:42Z</time>
      </trkpt>
      <trkpt lat="-40.2117920" lon="-71.3605380">
        <ele>1063.2</ele>
        <time>2020-11-15T14:58:43Z</time>
      </trkpt>
      <trkpt lat="-40.2118190" lon="-71.3605560">
        <ele>1063.3</ele>
        <time>2020-11-15T14:58:44Z</time>
      </trkpt>
      <trkpt lat="-40.2118450" lon="-71.3605730">
        <ele>1063.5</ele>
        <time>2020-11-15T14:58:45Z</time>
      </trkpt>
      <trkpt lat="-40.2118740" lon="-71.3605920">
        <ele>1063.6</ele>
        <time>2020-11-15T14:58:46Z</time>
      </trkpt>
      <trkpt lat="-40.2119010" lon="-71.3606080">
        <ele>1063.8</ele>
        <time>2020-11-15T14:58:47Z</time>
      </trkpt>
      <trkpt lat="-40.2119300" lon="-71.3606270">
        <ele>1063.9</ele>
        <time>2020-11-15T14:58:48Z</time>
      </trkpt>
      <trkpt lat="-40.2119590" lon="-71.3606470">
        <ele>1064.1</ele>
        <time>2020-11-15T14:58:49Z</time>
      </trkpt>
      <trkpt lat="-40.2119860" lon="-71.3606640">
        <ele>1064.2</ele>
        <time>2020-11-15T14:58:50Z</time>
      </trkpt>
      <trkpt lat="-40.2120130" lon="-71.3606780">
        <ele>1064.4</ele>
        <time>2020-11-15T14:58:51Z</time>
      </trkpt>
      <trkpt lat="-40.2120370" lon="-71.3606930">
        <ele>1064.5</ele>
        <time>2020-11-15T14:58:52Z</time>
      </trkpt>
      <trkpt lat="-40.2120610" lon="-71.3607090">
        <ele>1064.6</ele>
        <time>2020-11-15T14:58:53Z</time>
      </trkpt>
      <trkpt lat="-40.2120840" lon="-71.3607240">
        <ele>1064.8</ele>
        <time>2020-11-15T14:58:54Z</time>
      </trkpt>
      <trkpt lat="-40.2121070" lon="-71.3607390">
        <ele>1064.9</ele>
        <time>2020-11-15T14:58:55Z</time>
      </trkpt>
      <trkpt lat="-40.2121320" lon="-71.3607550">
        <ele>1065.0</ele>
        <time>2020-11-15T14:58:56Z</time>
      </trkpt>
      <trkpt lat="-40.2121560" lon="-71.3607720">
        <ele>1065.2</ele>
        <time>2020-11-15T14:58:57Z</time>
      </trkpt>
      <trkpt lat="-40.2121800" lon="-71.3607860">
        <ele>1065.3</ele>
        <time>2020-11-15T14:58:58Z</time>
      </trkpt>
      <trkpt lat="-40.2122030" lon="-71.3607990">
        <ele>1065.4</ele>
        <time>2020-11-15T14:58:59Z</time>
      </trkpt>
      <trkpt lat="-40.2122250" lon="-71.3608130">
        <ele>1065.6</ele>
        <time>2020-11-15T14:59:00Z</time>
      </trkpt>
      <trkpt lat="-40.2122480" lon="-71.3608300">
        <ele>1065.7</ele>
        <time>2020-11-15T14:59:01Z</time>
      </trkpt>
      <trkpt lat="-40.2122700" lon="-71.3608460">
        <ele>1065.8</ele>
        <time>2020-11-15T14:59:02Z</time>
      </trkpt>
      <trkpt lat="-40.2122940" lon="-71.3608610">
        <ele>1066.0</ele>
        <time>2020-11-15T14:59:03Z</time>
      </trkpt>
      <trkpt lat="-40.2123170" lon="-71.3608760">
        <ele>1066.1</ele>
        <time>2020-11-15T14:59:04Z</time>
      </trkpt>
      <trkpt lat="-40.2123390" lon="-71.3608910">
        <ele>1066.2</ele>
        <time>2020-11-15T14:59:05Z</time>
      </trkpt>
      <trkpt lat="-40.2123620" lon="-71.3609040">
        <ele>1066.4</ele>
        <time>2020-11-15T14:59:06Z</time>
      </trkpt>
      <trkpt lat="-40.2123850" lon="-71.3609180">
        <ele>1066.5</ele>
        <time>2020-11-15T14:59:07Z</time>
      </trkpt>
      <trkpt lat="-40.2124090" lon="-71.3609300">
        <ele>1066.6</ele>
        <time>2020-11-15T14:59:08Z</time>
      </trkpt>
      <trkpt lat="-40.2124330" lon="-71.3609430">
        <ele>1066.8</ele>
        <time>2020-11-15T14:59:09Z</time>
      </trkpt>
      <trkpt lat="-40.2124560" lon="-71.3609570">
        <ele>1066.9</ele>
        <time>2020-11-15T14:59:10Z</time>
      </trkpt>
      <trkpt lat="-40.2124810" lon="-71.3609710">
        <ele>1067.0</ele>
        <time>2020-11-15T14:59:11Z</time>
      </trkpt>
      <trkpt lat="-40.2125060" lon="-71.3609890">
        <ele>1067.2</ele>
        <time>2020-11-15T14:59:12Z</time>
      </trkpt>
      <trkpt lat="-40.2125310" lon="-71.3610050">
        <ele>1067.4</ele>
        <time>2020-11-15T14:59:13Z</time>
      </trkpt>
      <trkpt lat="-40.2125560" lon="-71.3610180">
        <ele>1067.5</ele>
        <time>2020-11-15T14:59:14Z</time>
      </trkpt>
      <trkpt lat="-40.2125810" lon="-71.3610340">
        <ele>1067.7</ele>
        <time>2020-11-15T14:59:15Z</time>
      </trkpt>
      <trkpt lat="-40.2126050" lon="-71.3610510">
        <ele>1067.8</ele>
        <time>2020-11-15T14:59:16Z</time>
      </trkpt>
      <trkpt lat="-40.2126280" lon="-71.3610670">
        <ele>1068.0</ele>
        <time>2020-11-15T14:59:17Z</time>
      </trkpt>
      <trkpt lat="-40.2126520" lon="-71.3610790">
        <ele>1068.2</ele>
        <time>2020-11-15T14:59:18Z</time>
      </trkpt>
      <trkpt lat="-40.2126760" lon="-71.3610920">
        <ele>1068.3</ele>
        <time>2020-11-15T14:59:19Z</time>
      </trkpt>
      <trkpt lat="-40.2127010" lon="-71.3611060">
        <ele>1068.5</ele>
        <time>2020-11-15T14:59:20Z</time>
      </trkpt>
      <trkpt lat="-40.2127240" lon="-71.3611180">
        <ele>1068.6</ele>
        <time>2020-11-15T14:59:21Z</time>
      </trkpt>
      <trkpt lat="-40.2127480" lon="-71.3611290">
        <ele>1068.8</ele>
        <time>2020-11-15T14:59:22Z</time>
      </trkpt>
      <trkpt lat="-40.2127730" lon="-71.3611420">
        <ele>1068.9</ele>
        <time>2020-11-15T14:59:23Z</time>
      </trkpt>
      <trkpt lat="-40.2127970" lon="-71.3611560">
        <ele>1069.1</ele>
        <time>2020-11-15T14:59:24Z</time>
      </trkpt>
      <trkpt lat="-40.2128210" lon="-71.3611720">
        <ele>1069.2</ele>
        <time>2020-11-15T14:59:25Z</time>
      </trkpt>
      <trkpt lat="-40.2128440" lon="-71.3611860">
        <ele>1069.4</ele>
        <time>2020-11-15T14:59:26Z</time>
      </trkpt>
      <trkpt lat="-40.2128690" lon="-71.3612030">
        <ele>1069.6</ele>
        <time>2020-11-15T14:59:27Z</time>
      </trkpt>
      <trkpt lat="-40.2128940" lon="-71.3612190">
        <ele>1069.7</ele>
        <time>2020-11-15T14:59:28Z</time>
      </trkpt>
      <trkpt lat="-40.2129190" lon="-71.3612340">
        <ele>1069.9</ele>
        <time>2020-11-15T14:59:29Z</time>
      </trkpt>
      <trkpt lat="-40.2129450" lon="-71.3612460">
        <ele>1070.1</ele>
        <time>2020-11-15T14:59:30Z</time>
      </trkpt>
      <trkpt lat="-40.2129720" lon="-71.3612600">
        <ele>1070.2</ele>
        <time>2020-11-15T14:59:31Z</time>
      </trkpt>
      <trkpt lat="-40.2130000" lon="-71.3612730">
        <ele>1070.4</ele>
        <time>2020-11-15T14:59:32Z</time>
      </trkpt>
      <trkpt lat="-40.2130260" lon="-71.3612870">
        <ele>1070.6</ele>
        <time>2020-11-15T14:59:33Z</time>
      </trkpt>
      <trkpt lat="-40.2130510" lon="-71.3613000">
        <ele>1070.8</ele>
        <time>2020-11-15T14:59:34Z</time>
      </trkpt>
      <trkpt lat="-40.2130770" lon="-71.3613130">
        <ele>1071.0</ele>
        <time>2020-11-15T14:59:35Z</time>
      </trkpt>
      <trkpt lat="-40.2131010" lon="-71.3613250">
        <ele>1071.2</ele>
        <time>2020-11-15T14:59:36Z</time>
      </trkpt>
      <trkpt lat="-40.2131240" lon="-71.3613390">
        <ele>1071.3</ele>
        <time>2020-11-15T14:59:37Z</time>
      </trkpt>
      <trkpt lat="-40.2131490" lon="-71.3613520">
        <ele>1071.5</ele>
        <time>2020-11-15T14:59:38Z</time>
      </trkpt>
      <trkpt lat="-40.2131730" lon="-71.3613630">
        <ele>1071.7</ele>
        <time>2020-11-15T14:59:39Z</time>
      </trkpt>
      <trkpt lat="-40.2131980" lon="-71.3613770">
        <ele>1071.9</ele>
        <time>2020-11-15T14:59:40Z</time>
      </trkpt>
      <trkpt lat="-40.2132220" lon="-71.3613900">
        <ele>1072.1</ele>
        <time>2020-11-15T14:59:41Z</time>
      </trkpt>
      <trkpt lat="-40.2132450" lon="-71.3614040">
        <ele>1072.3</ele>
        <time>2020-11-15T14:59:42Z</time>
      </trkpt>
      <trkpt lat="-40.2132670" lon="-71.3614190">
        <ele>1072.5</ele>
        <time>2020-11-15T14:59:43Z</time>
      </trkpt>
      <trkpt lat="-40.2132900" lon="-71.3614340">
        <ele>1072.6</ele>
        <time>2020-11-15T14:59:44Z</time>
      </trkpt>
      <trkpt lat="-40.2133140" lon="-71.3614480">
        <ele>1072.8</ele>
        <time>2020-11-15T14:59:45Z</time>
      </trkpt>
      <trkpt lat="-40.2133380" lon="-71.3614600">
        <ele>1073.0</ele>
        <time>2020-11-15T14:59:46Z</time>
      </trkpt>
      <trkpt lat="-40.2133590" lon="-71.3614700">
        <ele>1073.2</ele>
        <time>2020-11-15T14:59:47Z</time>
      </trkpt>
      <trkpt lat="-40.2133800" lon="-71.3614810">
        <ele>1073.3</ele>
        <time>2020-11-15T14:59:48Z</time>
      </trkpt>
      <trkpt lat="-40.2134040" lon="-71.3614930">
        <ele>1073.5</ele>
        <time>2020-11-15T14:59:49Z</time>
      </trkpt>
      <trkpt lat="-40.2134260" lon="-71.3615060">
        <ele>1073.7</ele>
        <time>2020-11-15T14:59:50Z</time>
      </trkpt>
      <trkpt lat="-40.2134500" lon="-71.3615190">
        <ele>1073.8</ele>
        <time>2020-11-15T14:59:51Z</time>
      </trkpt>
      <trkpt lat="-40.2134760" lon="-71.3615320">
        <ele>1074.0</ele>
        <time>2020-11-15T14:59:52Z</time>
      </trkpt>
      <trkpt lat="-40.2135040" lon="-71.3615430">
        <ele>1074.2</ele>
        <time>2020-11-15T14:59:53Z</time>
      </trkpt>
      <trkpt lat="-40.2135310" lon="-71.3615580">
        <ele>1074.4</ele>
        <time>2020-11-15T14:59:54Z</time>
      </trkpt>
      <trkpt lat="-40.2135570" lon="-71.3615720">
        <ele>1074.5</ele>
        <time>2020-11-15T14:59:55Z</time>
      </trkpt>
      <trkpt lat="-40.2135830" lon="-71.3615850">
        <ele>1074.7</ele>
        <time>2020-11-15T14:59:56Z</time>
      </trkpt>
      <trkpt lat="-40.2136080" lon="-71.3616000">
        <ele>1074.8</ele>
        <time>2020-11-15T14:59:57Z</time>
      </trkpt>
      <trkpt lat="-40.2136330" lon="-71.3616160">
        <ele>1074.9</ele>
        <time>2020-11-15T14:59:58Z</time>
      </trkpt>
      <trkpt lat="-40.2136560" lon="-71.3616320">
        <ele>1075.1</ele>
        <time>2020-11-15T14:59:59Z</time>
      </trkpt>
      <trkpt lat="-40.2136810" lon="-71.3616480">
        <ele>1075.2</ele>
        <time>2020-11-15T15:00:00Z</time>
      </trkpt>
      <trkpt lat="-40.2137070" lon="-71.3616620">
        <ele>1075.3</ele>
        <time>2020-11-15T15:00:01Z</time>
      </trkpt>
      <trkpt lat="-40.2137330" lon="-71.3616750">
        <ele>1075.5</ele>
        <time>2020-11-15T15:00:02Z</time>
      </trkpt>
      <trkpt lat="-40.2137590" lon="-71.3616870">
        <ele>1075.6</ele>
        <time>2020-11-15T15:00:03Z</time>
      </trkpt>
      <trkpt lat="-40.2137850" lon="-71.3617010">
        <ele>1075.8</ele>
        <time>2020-11-15T15:00:04Z</time>
      </trkpt>
      <trkpt lat="-40.2138110" lon="-71.3617160">
        <ele>1075.9</ele>
        <time>2020-11-15T15:00:05Z</time>
      </trkpt>
      <trkpt lat="-40.2138370" lon="-71.3617290">
        <ele>1076.0</ele>
        <time>2020-11-15T15:00:06Z</time>
      </trkpt>
      <trkpt lat="-40.2138640" lon="-71.3617400">
        <ele>1076.2</ele>
        <time>2020-11-15T15:00:07Z</time>
      </trkpt>
      <trkpt lat="-40.2138900" lon="-71.3617510">
        <ele>1076.3</ele>
        <time>2020-11-15T15:00:08Z</time>
      </trkpt>
      <trkpt lat="-40.2139170" lon="-71.3617640">
        <ele>1076.5</ele>
        <time>2020-11-15T15:00:09Z</time>
      </trkpt>
      <trkpt lat="-40.2139420" lon="-71.3617780">
        <ele>1076.6</ele>
        <time>2020-11-15T15:00:10Z</time>
      </trkpt>
      <trkpt lat="-40.2139670" lon="-71.3617930">
        <ele>1076.7</ele>
        <time>2020-11-15T15:00:11Z</time>
      </trkpt>
      <trkpt lat="-40.2139920" lon="-71.3618060">
        <ele>1076.9</ele>
        <time>2020-11-15T15:00:12Z</time>
      </trkpt>
      <trkpt lat="-40.2140180" lon="-71.3618190">
        <ele>1077.0</ele>
        <time>2020-11-15T15:00:13Z</time>
      </trkpt>
      <trkpt lat="-40.2140430" lon="-71.3618310">
        <ele>1077.1</ele>
        <time>2020-11-15T15:00:14Z</time>
      </trkpt>
      <trkpt lat="-40.2140690" lon="-71.3618440">
        <ele>1077.3</ele>
        <time>2020-11-15T15:00:15Z</time>
      </trkpt>
      <trkpt lat="-40.2140950" lon="-71.3618600">
        <ele>1077.4</ele>
        <time>2020-11-15T15:00:16Z</time>
      </trkpt>
      <trkpt lat="-40.2141210" lon="-71.3618750">
        <ele>1077.5</ele>
        <time>2020-11-15T15:00:17Z</time>
      </trkpt>
      <trkpt lat="-40.2141470" lon="-71.3618880">
        <ele>1077.6</ele>
        <time>2020-11-15T15:00:18Z</time>
      </trkpt>
      <trkpt lat="-40.2141720" lon="-71.3619020">
        <ele>1077.7</ele>
        <time>2020-11-15T15:00:19Z</time>
      </trkpt>
      <trkpt lat="-40.2141980" lon="-71.3619150">
        <ele>1077.9</ele>
        <time>2020-11-15T15:00:20Z</time>
      </trkpt>
      <trkpt lat="-40.2142240" lon="-71.3619280">
        <ele>1078.0</ele>
        <time>2020-11-15T15:00:21Z</time>
      </trkpt>
      <trkpt lat="-40.2142500" lon="-71.3619390">
        <ele>1078.1</ele>
        <time>2020-11-15T15:00:22Z</time>
      </trkpt>
      <trkpt lat="-40.2142760" lon="-71.3619530">
        <ele>1078.2</ele>
        <time>2020-11-15T15:00:23Z</time>
      </trkpt>
      <trkpt lat="-40.2143020" lon="-71.3619700">
        <ele>1078.3</ele>
        <time>2020-11-15T15:00:24Z</time>
      </trkpt>
      <trkpt lat="-40.2143280" lon="-71.3619870">
        <ele>1078.3</ele>
        <time>2020-11-15T15:00:25Z</time>
      </trkpt>
      <trkpt lat="-40.2143550" lon="-71.3620060">
        <ele>1078.4</ele>
        <time>2020-11-15T15:00:26Z</time>
      </trkpt>
      <trkpt lat="-40.2143810" lon="-71.3620270">
        <ele>1078.5</ele>
        <time>2020-11-15T15:00:27Z</time>
      </trkpt>
      <trkpt lat="-40.2144070" lon="-71.3620470">
        <ele>1078.6</ele>
        <time>2020-11-15T15:00:28Z</time>
      </trkpt>
      <trkpt lat="-40.2144320" lon="-71.3620680">
        <ele>1078.7</ele>
        <time>2020-11-15T15:00:29Z</time>
      </trkpt>
      <trkpt lat="-40.2144580" lon="-71.3620890">
        <ele>1078.8</ele>
        <time>2020-11-15T15:00:30Z</time>
      </trkpt>
      <trkpt lat="-40.2144850" lon="-71.3621100">
        <ele>1078.9</ele>
        <time>2020-11-15T15:00:31Z</time>
      </trkpt>
      <trkpt lat="-40.2145120" lon="-71.3621320">
        <ele>1078.9</ele>
        <time>2020-11-15T15:00:32Z</time>
      </trkpt>
      <trkpt lat="-40.2145370" lon="-71.3621570">
        <ele>1079.0</ele>
        <time>2020-11-15T15:00:33Z</time>
      </trkpt>
      <trkpt lat="-40.2145590" lon="-71.3621800">
        <ele>1079.1</ele>
        <time>2020-11-15T15:00:34Z</time>
      </trkpt>
      <trkpt lat="-40.2145850" lon="-71.3622050">
        <ele>1079.2</ele>
        <time>2020-11-15T15:00:35Z</time>
      </trkpt>
      <trkpt lat="-40.2146100" lon="-71.3622320">
        <ele>1079.2</ele>
        <time>2020-11-15T15:00:36Z</time>
      </trkpt>
      <trkpt lat="-40.2146360" lon="-71.3622600">
        <ele>1079.3</ele>
        <time>2020-11-15T15:00:37Z</time>
      </trkpt>
      <trkpt lat="-40.2146620" lon="-71.3622870">
        <ele>1079.4</ele>
        <time>2020-11-15T15:00:38Z</time>
      </trkpt>
      <trkpt lat="-40.2146870" lon="-71.3623140">
        <ele>1079.4</ele>
        <time>2020-11-15T15:00:39Z</time>
      </trkpt>
      <trkpt lat="-40.2147100" lon="-71.3623420">
        <ele>1079.5</ele>
        <time>2020-11-15T15:00:40Z</time>
      </trkpt>
      <trkpt lat="-40.2147330" lon="-71.3623710">
        <ele>1079.5</ele>
        <time>2020-11-15T15:00:41Z</time>
      </trkpt>
      <trkpt lat="-40.2147560" lon="-71.3624010">
        <ele>1079.6</ele>
        <time>2020-11-15T15:00:42Z</time>
      </trkpt>
      <trkpt lat="-40.2147790" lon="-71.3624300">
        <ele>1079.6</ele>
        <time>2020-11-15T15:00:43Z</time>
      </trkpt>
      <trkpt lat="-40.2148000" lon="-71.3624610">
        <ele>1079.7</ele>
        <time>2020-11-15T15:00:44Z</time>
      </trkpt>
      <trkpt lat="-40.2148180" lon="-71.3624930">
        <ele>1079.7</ele>
        <time>2020-11-15T15:00:45Z</time>
      </trkpt>
      <trkpt lat="-40.2148390" lon="-71.3625250">
        <ele>1079.8</ele>
        <time>2020-11-15T15:00:46Z</time>
      </trkpt>
      <trkpt lat="-40.2148620" lon="-71.3625600">
        <ele>1079.8</ele>
        <time>2020-11-15T15:00:47Z</time>
      </trkpt>
      <trkpt lat="-40.2148820" lon="-71.3625950">
        <ele>1079.9</ele>
        <time>2020-11-15T15:00:48Z</time>
      </trkpt>
      <trkpt lat="-40.2149000" lon="-71.3626300">
        <ele>1080.0</ele>
        <time>2020-11-15T15:00:49Z</time>
      </trkpt>
      <trkpt lat="-40.2149190" lon="-71.3626660">
        <ele>1080.1</ele>
        <time>2020-11-15T15:00:50Z</time>
      </trkpt>
      <trkpt lat="-40.2149380" lon="-71.3627010">
        <ele>1080.2</ele>
        <time>2020-11-15T15:00:51Z</time>
      </trkpt>
      <trkpt lat="-40.2149550" lon="-71.3627360">
        <ele>1080.3</ele>
        <time>2020-11-15T15:00:52Z</time>
      </trkpt>
      <trkpt lat="-40.2149700" lon="-71.3627700">
        <ele>1080.4</ele>
        <time>2020-11-15T15:00:53Z</time>
      </trkpt>
      <trkpt lat="-40.2149860" lon="-71.3628060">
        <ele>1080.5</ele>
        <time>2020-11-15T15:00:54Z</time>
      </trkpt>
      <trkpt lat="-40.2150030" lon="-71.3628430">
        <ele>1080.7</ele>
        <time>2020-11-15T15:00:55Z</time>
      </trkpt>
      <trkpt lat="-40.2150180" lon="-71.3628800">
        <ele>1080.8</ele>
        <time>2020-11-15T15:00:56Z</time>
      </trkpt>
      <trkpt lat="-40.2150330" lon="-71.3629180">
        <ele>1081.0</ele>
        <time>2020-11-15T15:00:57Z</time>
      </trkpt>
      <trkpt lat="-40.2150480" lon="-71.3629570">
        <ele>1081.1</ele>
        <time>2020-11-15T15:00:58Z</time>
      </trkpt>
      <trkpt lat="-40.2150610" lon="-71.3629930">
        <ele>1081.2</ele>
        <time>2020-11-15T15:00:59Z</time>
      </trkpt>
      <trkpt lat="-40.2150740" lon="-71.3630300">
        <ele>1081.4</ele>
        <time>2020-11-15T15:01:00Z</time>
      </trkpt>
      <trkpt lat="-40.2150870" lon="-71.3630680">
        <ele>1081.6</ele>
        <time>2020-11-15T15:01:01Z</time>
      </trkpt>
      <trkpt lat="-40.2150990" lon="-71.3631070">
        <ele>1081.7</ele>
        <time>2020-11-15T15:01:02Z</time>
      </trkpt>
      <trkpt lat="-40.2151110" lon="-71.3631470">
        <ele>1081.9</ele>
        <time>2020-11-15T15:01:03Z</time>
      </trkpt>
      <trkpt lat="-40.2151230" lon="-71.3631860">
        <ele>1082.1</ele>
        <time>2020-11-15T15:01:04Z</time>
      </trkpt>
      <trkpt lat="-40.2151340" lon="-71.3632250">
        <ele>1082.2</ele>
        <time>2020-11-15T15:01:05Z</time>
      </trkpt>
      <trkpt lat="-40.2151450" lon="-71.3632650">
        <ele>1082.4</ele>
        <time>2020-11-15T15:01:06Z</time>
      </trkpt>
      <trkpt lat="-40.2151570" lon="-71.3633030">
        <ele>1082.6</ele>
        <time>2020-11-15T15:01:07Z</time>
      </trkpt>
      <trkpt lat="-40.2151660" lon="-71.3633410">
        <ele>1082.7</ele>
        <time>2020-11-15T15:01:08Z</time>
      </trkpt>
      <trkpt lat="-40.2151750" lon="-71.3633790">
        <ele>1082.9</ele>
        <time>2020-11-15T15:01:09Z</time>
      </trkpt>
      <trkpt lat="-40.2151840" lon="-71.3634180">
        <ele>1083.1</ele>
        <time>2020-11-15T15:01:10Z</time>
      </trkpt>
      <trkpt lat="-40.2151930" lon="-71.3634570">
        <ele>1083.2</ele>
        <time>2020-11-15T15:01:11Z</time>
      </trkpt>
      <trkpt lat="-40.2152020" lon="-71.3634950">
        <ele>1083.4</ele>
        <time>2020-11-15T15:01:12Z</time>
      </trkpt>
      <trkpt lat="-40.2152090" lon="-71.3635340">
        <ele>1083.5</ele>
        <time>2020-11-15T15:01:13Z</time>
      </trkpt>
      <trkpt lat="-40.2152190" lon="-71.3635730">
        <ele>1083.7</ele>
        <time>2020-11-15T15:01:14Z</time>
      </trkpt>
      <trkpt lat="-40.2152280" lon="-71.3636100">
        <ele>1083.9</ele>
        <time>2020-11-15T15:01:15Z</time>
      </trkpt>
      <trkpt lat="-40.2152380" lon="-71.3636480">
        <ele>1084.0</ele>
        <time>2020-11-15T15:01:16Z</time>
      </trkpt>
      <trkpt lat="-40.2152430" lon="-71.3636840">
        <ele>1084.2</ele>
        <time>2020-11-15T15:01:17Z</time>
      </trkpt>
      <trkpt lat="-40.2152490" lon="-71.3637220">
        <ele>1084.3</ele>
        <time>2020-11-15T15:01:18Z</time>
      </trkpt>
      <trkpt lat="-40.2152580" lon="-71.3637570">
        <ele>1084.5</ele>
        <time>2020-11-15T15:01:19Z</time>
      </trkpt>
      <trkpt lat="-40.2152650" lon="-71.3637920">
        <ele>1084.6</ele>
        <time>2020-11-15T15:01:20Z</time>
      </trkpt>
      <trkpt lat="-40.2152730" lon="-71.3638280">
        <ele>1084.7</ele>
        <time>2020-11-15T15:01:21Z</time>
      </trkpt>
      <trkpt lat="-40.2152820" lon="-71.3638650">
        <ele>1084.9</ele>
        <time>2020-11-15T15:01:22Z</time>
      </trkpt>
      <trkpt lat="-40.2152910" lon="-71.3639020">
        <ele>1085.0</ele>
        <time>2020-11-15T15:01:23Z</time>
      </trkpt>
      <trkpt lat="-40.2153020" lon="-71.3639390">
        <ele>1085.2</ele>
        <time>2020-11-15T15:01:24Z</time>
      </trkpt>
      <trkpt lat="-40.2153140" lon="-71.3639750">
        <ele>1085.3</ele>
        <time>2020-11-15T15:01:25Z</time>
      </trkpt>
      <trkpt lat="-40.2153270" lon="-71.3640120">
        <ele>1085.5</ele>
        <time>2020-11-15T15:01:26Z</time>
      </trkpt>
      <trkpt lat="-40.2153380" lon="-71.3640500">
        <ele>1085.6</ele>
        <time>2020-11-15T15:01:27Z</time>
      </trkpt>
      <trkpt lat="-40.2153500" lon="-71.3640880">
        <ele>1085.8</ele>
        <time>2020-11-15T15:01:28Z</time>
      </trkpt>
      <trkpt lat="-40.2153610" lon="-71.3641230">
        <ele>1085.9</ele>
        <time>2020-11-15T15:01:29Z</time>
      </trkpt>
      <trkpt lat="-40.2153740" lon="-71.3641580">
        <ele>1086.1</ele>
        <time>2020-11-15T15:01:30Z</time>
      </trkpt>
      <trkpt lat="-40.2153860" lon="-71.3641900">
        <ele>1086.2</ele>
        <time>2020-11-15T15:01:31Z</time>
      </trkpt>
      <trkpt lat="-40.2153960" lon="-71.3642240">
        <ele>1086.4</ele>
        <time>2020-11-15T15:01:32Z</time>
      </trkpt>
      <trkpt lat="-40.2154050" lon="-71.3642570">
        <ele>1086.5</ele>
        <time>2020-11-15T15:01:33Z</time>
      </trkpt>
      <trkpt lat="-40.2154160" lon="-71.3642890">
        <ele>1086.7</ele>
        <time>2020-11-15T15:01:34Z</time>
      </trkpt>
      <trkpt lat="-40.2154300" lon="-71.3643210">
        <ele>1086.9</ele>
        <time>2020-11-15T15:01:35Z</time>
      </trkpt>
      <trkpt lat="-40.2154440" lon="-71.3643540">
        <ele>1087.0</ele>
        <time>2020-11-15T15:01:36Z</time>
      </trkpt>
      <trkpt lat="-40.2154600" lon="-71.3643870">
        <ele>1087.2</ele>
        <time>2020-11-15T15:01:37Z</time>
      </trkpt>
      <trkpt lat="-40.2154780" lon="-71.3644200">
        <ele>1087.4</ele>
        <time>2020-11-15T15:01:38Z</time>
      </trkpt>
      <trkpt lat="-40.2154950" lon="-71.3644530">
        <ele>1087.6</ele>
        <time>2020-11-15T15:01:39Z</time>
      </trkpt>
      <trkpt lat="-40.2155130" lon="-71.3644870">
        <ele>1087.8</ele>
        <time>2020-11-15T15:01:40Z</time>
      </trkpt>
      <trkpt lat="-40.2155300" lon="-71.3645170">
        <ele>1088.0</ele>
        <time>2020-11-15T15:01:41Z</time>
      </trkpt>
      <trkpt lat="-40.2155490" lon="-71.3645480">
        <ele>1088.1</ele>
        <time>2020-11-15T15:01:42Z</time>
      </trkpt>
      <trkpt lat="-40.2155670" lon="-71.3645770">
        <ele>1088.3</ele>
        <time>2020-11-15T15:01:43Z</time>
      </trkpt>
      <trkpt lat="-40.2155880" lon="-71.3646060">
        <ele>1088.4</ele>
        <time>2020-11-15T15:01:44Z</time>
      </trkpt>
      <trkpt lat="-40.2156110" lon="-71.3646330">
        <ele>1088.6</ele>
        <time>2020-11-15T15:01:45Z</time>
      </trkpt>
      <trkpt lat="-40.2156300" lon="-71.3646610">
        <ele>1088.7</ele>
        <time>2020-11-15T15:01:46Z</time>
      </trkpt>
      <trkpt lat="-40.2156520" lon="-71.3646880">
        <ele>1088.8</ele>
        <time>2020-11-15T15:01:47Z</time>
      </trkpt>
      <trkpt lat="-40.2156730" lon="-71.3647130">
        <ele>1088.9</ele>
        <time>2020-11-15T15:01:48Z</time>
      </trkpt>
      <trkpt lat="-40.2156970" lon="-71.3647400">
        <ele>1089.1</ele>
        <time>2020-11-15T15:01:49Z</time>
      </trkpt>
      <trkpt lat="-40.2157210" lon="-71.3647660">
        <ele>1089.2</ele>
        <time>2020-11-15T15:01:50Z</time>
      </trkpt>
      <trkpt lat="-40.2157450" lon="-71.3647910">
        <ele>1089.4</ele>
        <time>2020-11-15T15:01:51Z</time>
      </trkpt>
      <trkpt lat="-40.2157690" lon="-71.3648140">
        <ele>1089.5</ele>
        <time>2020-11-15T15:01:52Z</time>
      </trkpt>
      <trkpt lat="-40.2157910" lon="-71.3648370">
        <ele>1089.7</ele>
        <time>2020-11-15T15:01:53Z</time>
      </trkpt>
      <trkpt lat="-40.2158150" lon="-71.3648610">
        <ele>1089.8</ele>
        <time>2020-11-15T15:01:54Z</time>
      </trkpt>
      <trkpt lat="-40.2158400" lon="-71.3648840">
        <ele>1090.0</ele>
        <time>2020-11-15T15:01:55Z</time>
      </trkpt>
      <trkpt lat="-40.2158660" lon="-71.3649050">
        <ele>1090.2</ele>
        <time>2020-11-15T15:01:56Z</time>
      </trkpt>
      <trkpt lat="-40.2158920" lon="-71.3649250">
        <ele>1090.3</ele>
        <time>2020-11-15T15:01:57Z</time>
      </trkpt>
      <trkpt lat="-40.2159180" lon="-71.3649430">
        <ele>1090.5</ele>
        <time>2020-11-15T15:01:58Z</time>
      </trkpt>
      <trkpt lat="-40.2159450" lon="-71.3649620">
        <ele>1090.7</ele>
        <time>2020-11-15T15:01:59Z</time>
      </trkpt>
      <trkpt lat="-40.2159720" lon="-71.3649800">
        <ele>1090.9</ele>
        <time>2020-11-15T15:02:00Z</time>
      </trkpt>
      <trkpt lat="-40.2160010" lon="-71.3649970">
        <ele>1091.0</ele>
        <time>2020-11-15T15:02:01Z</time>
      </trkpt>
      <trkpt lat="-40.2160270" lon="-71.3650120">
        <ele>1091.2</ele>
        <time>2020-11-15T15:02:02Z</time>
      </trkpt>
      <trkpt lat="-40.2160540" lon="-71.3650250">
        <ele>1091.4</ele>
        <time>2020-11-15T15:02:03Z</time>
      </trkpt>
      <trkpt lat="-40.2160840" lon="-71.3650370">
        <ele>1091.5</ele>
        <time>2020-11-15T15:02:04Z</time>
      </trkpt>
      <trkpt lat="-40.2161120" lon="-71.3650470">
        <ele>1091.7</ele>
        <time>2020-11-15T15:02:05Z</time>
      </trkpt>
      <trkpt lat="-40.2161430" lon="-71.3650580">
        <ele>1091.9</ele>
        <time>2020-11-15T15:02:06Z</time>
      </trkpt>
      <trkpt lat="-40.2161740" lon="-71.3650660">
        <ele>1092.1</ele>
        <time>2020-11-15T15:02:07Z</time>
      </trkpt>
      <trkpt lat="-40.2162060" lon="-71.3650750">
        <ele>1092.3</ele>
        <time>2020-11-15T15:02:08Z</time>
      </trkpt>
      <trkpt lat="-40.2162360" lon="-71.3650820">
        <ele>1092.5</ele>
        <time>2020-11-15T15:02:09Z</time>
      </trkpt>
      <trkpt lat="-40.2162650" lon="-71.3650860">
        <ele>1092.6</ele>
        <time>2020-11-15T15:02:10Z</time>
      </trkpt>
      <trkpt lat="-40.2162960" lon="-71.3650900">
        <ele>1092.8</ele>
        <time>2020-11-15T15:02:11Z</time>
      </trkpt>
      <trkpt lat="-40.2163290" lon="-71.3650980">
        <ele>1093.0</ele>
        <time>2020-11-15T15:02:12Z</time>
      </trkpt>
      <trkpt lat="-40.2163600" lon="-71.3651010">
        <ele>1093.2</ele>
        <time>2020-11-15T15:02:13Z</time>
      </trkpt>
      <trkpt lat="-40.2163930" lon="-71.3651050">
        <ele>1093.4</ele>
        <time>2020-11-15T15:02:14Z</time>
      </trkpt>
      <trkpt lat="-40.2164250" lon="-71.3651090">
        <ele>1093.5</ele>
        <time>2020-11-15T15:02:15Z</time>
      </trkpt>
      <trkpt lat="-40.2164590" lon="-71.3651100">
        <ele>1093.7</ele>
        <time>2020-11-15T15:02:16Z</time>
      </trkpt>
      <trkpt lat="-40.2164910" lon="-71.3651080">
        <ele>1093.9</ele>
        <time>2020-11-15T15:02:17Z</time>
      </trkpt>
      <trkpt lat="-40.2165220" lon="-71.3651070">
        <ele>1094.1</ele>
        <time>2020-11-15T15:02:18Z</time>
      </trkpt>
      <trkpt lat="-40.2165540" lon="-71.3651030">
        <ele>1094.3</ele>
        <time>2020-11-15T15:02:19Z</time>
      </trkpt>
      <trkpt lat="-40.2165860" lon="-71.3651050">
        <ele>1094.5</ele>
        <time>2020-11-15T15:02:20Z</time>
      </trkpt>
      <trkpt lat="-40.2166160" lon="-71.3650990">
        <ele>1094.7</ele>
        <time>2020-11-15T15:02:21Z</time>
      </trkpt>
      <trkpt lat="-40.2166480" lon="-71.3650940">
        <ele>1094.8</ele>
        <time>2020-11-15T15:02:22Z</time>
      </trkpt>
      <trkpt lat="-40.2166820" lon="-71.3650880">
        <ele>1095.0</ele>
        <time>2020-11-15T15:02:23Z</time>
      </trkpt>
      <trkpt lat="-40.2167140" lon="-71.3650800">
        <ele>1095.2</ele>
        <time>2020-11-15T15:02:24Z</time>
      </trkpt>
      <trkpt lat="-40.2167490" lon="-71.3650730">
        <ele>1095.4</ele>
        <time>2020-11-15T15:02:25Z</time>
      </trkpt>
      <trkpt lat="-40.2167850" lon="-71.3650670">
        <ele>1095.6</ele>
        <time>2020-11-15T15:02:26Z</time>
      </trkpt>
      <trkpt lat="-40.2168190" lon="-71.3650580">
        <ele>1095.8</ele>
        <time>2020-11-15T15:02:27Z</time>
      </trkpt>
      <trkpt lat="-40.2168520" lon="-71.3650470">
        <ele>1096.0</ele>
        <time>2020-11-15T15:02:28Z</time>
      </trkpt>
      <trkpt lat="-40.2168850" lon="-71.3650380">
        <ele>1096.2</ele>
        <time>2020-11-15T15:02:29Z</time>
      </trkpt>
      <trkpt lat="-40.2169170" lon="-71.3650280">
        <ele>1096.4</ele>
        <time>2020-11-15T15:02:30Z</time>
      </trkpt>
      <trkpt lat="-40.2169480" lon="-71.3650150">
        <ele>1096.5</ele>
        <time>2020-11-15T15:02:31Z</time>
      </trkpt>
      <trkpt lat="-40.2169760" lon="-71.3650030">
        <ele>1096.7</ele>
        <time>2020-11-15T15:02:32Z</time>
      </trkpt>
      <trkpt lat="-40.2170040" lon="-71.3649880">
        <ele>1096.9</ele>
        <time>2020-11-15T15:02:33Z</time>
      </trkpt>
      <trkpt lat="-40.2170320" lon="-71.3649710">
        <ele>1097.0</ele>
        <time>2020-11-15T15:02:34Z</time>
      </trkpt>
      <trkpt lat="-40.2170590" lon="-71.3649540">
        <ele>1097.2</ele>
        <time>2020-11-15T15:02:35Z</time>
      </trkpt>
      <trkpt lat="-40.2170880" lon="-71.3649390">
        <ele>1097.4</ele>
        <time>2020-11-15T15:02:36Z</time>
      </trkpt>
      <trkpt lat="-40.2171150" lon="-71.3649180">
        <ele>1097.6</ele>
        <time>2020-11-15T15:02:37Z</time>
      </trkpt>
      <trkpt lat="-40.2171440" lon="-71.3648960">
        <ele>1097.8</ele>
        <time>2020-11-15T15:02:38Z</time>
      </trkpt>
      <trkpt lat="-40.2171740" lon="-71.3648730">
        <ele>1098.0</ele>
        <time>2020-11-15T15:02:39Z</time>
      </trkpt>
      <trkpt lat="-40.2172040" lon="-71.3648500">
        <ele>1098.2</ele>
        <time>2020-11-15T15:02:40Z</time>
      </trkpt>
      <trkpt lat="-40.2172330" lon="-71.3648270">
        <ele>1098.4</ele>
        <time>2020-11-15T15:02:41Z</time>
      </trkpt>
      <trkpt lat="-40.2172630" lon="-71.3648050">
        <ele>1098.6</ele>
        <time>2020-11-15T15:02:42Z</time>
      </trkpt>
      <trkpt lat="-40.2172920" lon="-71.3647800">
        <ele>1098.8</ele>
        <time>2020-11-15T15:02:43Z</time>
      </trkpt>
      <trkpt lat="-40.2173200" lon="-71.3647540">
        <ele>1099.0</ele>
        <time>2020-11-15T15:02:44Z</time>
      </trkpt>
      <trkpt lat="-40.2173480" lon="-71.3647280">
        <ele>1099.2</ele>
        <time>2020-11-15T15:02:45Z</time>
      </trkpt>
      <trkpt lat="-40.2173740" lon="-71.3647030">
        <ele>1099.4</ele>
        <time>2020-11-15T15:02:46Z</time>
      </trkpt>
      <trkpt lat="-40.2173990" lon="-71.3646780">
        <ele>1099.6</ele>
        <time>2020-11-15T15:02:47Z</time>
      </trkpt>
      <trkpt lat="-40.2174220" lon="-71.3646550">
        <ele>1099.8</ele>
        <time>2020-11-15T15:02:48Z</time>
      </trkpt>
      <trkpt lat="-40.2174440" lon="-71.3646330">
        <ele>1099.9</ele>
        <time>2020-11-15T15:02:49Z</time>
      </trkpt>
      <trkpt lat="-40.2174650" lon="-71.3646090">
        <ele>1100.1</ele>
        <time>2020-11-15T15:02:50Z</time>
      </trkpt>
      <trkpt lat="-40.2174860" lon="-71.3645840">
        <ele>1100.3</ele>
        <time>2020-11-15T15:02:51Z</time>
      </trkpt>
      <trkpt lat="-40.2175070" lon="-71.3645590">
        <ele>1100.4</ele>
        <time>2020-11-15T15:02:52Z</time>
      </trkpt>
      <trkpt lat="-40.2175270" lon="-71.3645320">
        <ele>1100.6</ele>
        <time>2020-11-15T15:02:53Z</time>
      </trkpt>
      <trkpt lat="-40.2175480" lon="-71.3645060">
        <ele>1100.8</ele>
        <time>2020-11-15T15:02:54Z</time>
      </trkpt>
      <trkpt lat="-40.2175690" lon="-71.3644790">
        <ele>1100.9</ele>
        <time>2020-11-15T15:02:55Z</time>
      </trkpt>
      <trkpt lat="-40.2175900" lon="-71.3644520">
        <ele>1101.1</ele>
        <time>2020-11-15T15:02:56Z</time>
      </trkpt>
      <trkpt lat="-40.2176130" lon="-71.3644240">
        <ele>1101.3</ele>
        <time>2020-11-15T15:02:57Z</time>
      </trkpt>
      <trkpt lat="-40.2176360" lon="-71.3643950">
        <ele>1101.4</ele>
        <time>2020-11-15T15:02:58Z</time>
      </trkpt>
      <trkpt lat="-40.2176580" lon="-71.3643630">
        <ele>1101.6</ele>
        <time>2020-11-15T15:02:59Z</time>
      </trkpt>
      <trkpt lat="-40.2176780" lon="-71.3643310">
        <ele>1101.8</ele>
        <time>2020-11-15T15:03:00Z</time>
      </trkpt>
      <trkpt lat="-40.2176970" lon="-71.3642980">
        <ele>1102.0</ele>
        <time>2020-11-15T15:03:01Z</time>
      </trkpt>
      <trkpt lat="-40.2177170" lon="-71.3642670">
        <ele>1102.1</ele>
        <time>2020-11-15T15:03:02Z</time>
      </trkpt>
      <trkpt lat="-40.2177380" lon="-71.3642360">
        <ele>1102.3</ele>
        <time>2020-11-15T15:03:03Z</time>
      </trkpt>
      <trkpt lat="-40.2177590" lon="-71.3642060">
        <ele>1102.5</ele>
        <time>2020-11-15T15:03:04Z</time>
      </trkpt>
      <trkpt lat="-40.2177810" lon="-71.3641760">
        <ele>1102.7</ele>
        <time>2020-11-15T15:03:05Z</time>
      </trkpt>
      <trkpt lat="-40.2178040" lon="-71.3641480">
        <ele>1102.8</ele>
        <time>2020-11-15T15:03:06Z</time>
      </trkpt>
      <trkpt lat="-40.2178270" lon="-71.3641210">
        <ele>1103.0</ele>
        <time>2020-11-15T15:03:07Z</time>
      </trkpt>
      <trkpt lat="-40.2178500" lon="-71.3640920">
        <ele>1103.2</ele>
        <time>2020-11-15T15:03:08Z</time>
      </trkpt>
      <trkpt lat="-40.2178720" lon="-71.3640650">
        <ele>1103.4</ele>
        <time>2020-11-15T15:03:09Z</time>
      </trkpt>
      <trkpt lat="-40.2178950" lon="-71.3640400">
        <ele>1103.5</ele>
        <time>2020-11-15T15:03:10Z</time>
      </trkpt>
      <trkpt lat="-40.2179180" lon="-71.3640140">
        <ele>1103.7</ele>
        <time>2020-11-15T15:03:11Z</time>
      </trkpt>
      <trkpt lat="-40.2179400" lon="-71.3639850">
        <ele>1103.9</ele>
        <time>2020-11-15T15:03:12Z</time>
      </trkpt>
      <trkpt lat="-40.2179630" lon="-71.3639550">
        <ele>1104.1</ele>
        <time>2020-11-15T15:03:13Z</time>
      </trkpt>
      <trkpt lat="-40.2179850" lon="-71.3639280">
        <ele>1104.2</ele>
        <time>2020-11-15T15:03:14Z</time>
      </trkpt>
      <trkpt lat="-40.2180070" lon="-71.3639010">
        <ele>1104.4</ele>
        <time>2020-11-15T15:03:15Z</time>
      </trkpt>
      <trkpt lat="-40.2180290" lon="-71.3638750">
        <ele>1104.6</ele>
        <time>2020-11-15T15:03:16Z</time>
      </trkpt>
      <trkpt lat="-40.2180510" lon="-71.3638510">
        <ele>1104.7</ele>
        <time>2020-11-15T15:03:17Z</time>
      </trkpt>
      <trkpt lat="-40.2180760" lon="-71.3638280">
        <ele>1104.9</ele>
        <time>2020-11-15T15:03:18Z</time>
      </trkpt>
      <trkpt lat="-40.2181040" lon="-71.3638090">
        <ele>1105.1</ele>
        <time>2020-11-15T15:03:19Z</time>
      </trkpt>
      <trkpt lat="-40.2181310" lon="-71.3637890">
        <ele>1105.2</ele>
        <time>2020-11-15T15:03:20Z</time>
      </trkpt>
      <trkpt lat="-40.2181580" lon="-71.3637690">
        <ele>1105.4</ele>
        <time>2020-11-15T15:03:21Z</time>
      </trkpt>
      <trkpt lat="-40.2181860" lon="-71.3637510">
        <ele>1105.6</ele>
        <time>2020-11-15T15:03:22Z</time>
      </trkpt>
      <trkpt lat="-40.2182160" lon="-71.3637370">
        <ele>1105.8</ele>
        <time>2020-11-15T15:03:23Z</time>
      </trkpt>
      <trkpt lat="-40.2182470" lon="-71.3637260">
        <ele>1106.0</ele>
        <time>2020-11-15T15:03:24Z</time>
      </trkpt>
      <trkpt lat="-40.2182760" lon="-71.3637110">
        <ele>1106.2</ele>
        <time>2020-11-15T15:03:25Z</time>
      </trkpt>
      <trkpt lat="-40.2183040" lon="-71.3636950">
        <ele>1106.3</ele>
        <time>2020-11-15T15:03:26Z</time>
      </trkpt>
      <trkpt lat="-40.2183330" lon="-71.3636830">
        <ele>1106.5</ele>
        <time>2020-11-15T15:03:27Z</time>
      </trkpt>
      <trkpt lat="-40.2183580" lon="-71.3636680">
        <ele>1106.7</ele>
        <time>2020-11-15T15:03:28Z</time>
      </trkpt>
      <trkpt lat="-40.2183890" lon="-71.3636610">
        <ele>1106.9</ele>
        <time>2020-11-15T15:03:29Z</time>
      </trkpt>
      <trkpt lat="-40.2184160" lon="-71.3636510">
        <ele>1107.1</ele>
        <time>2020-11-15T15:03:30Z</time>
      </trkpt>
      <trkpt lat="-40.2184430" lon="-71.3636390">
        <ele>1107.2</ele>
        <time>2020-11-15T15:03:31Z</time>
      </trkpt>
      <trkpt lat="-40.2184680" lon="-71.3636280">
        <ele>1107.4</ele>
        <time>2020-11-15T15:03:32Z</time>
      </trkpt>
      <trkpt lat="-40.2184950" lon="-71.3636160">
        <ele>1107.6</ele>
        <time>2020-11-15T15:03:33Z</time>
      </trkpt>
      <trkpt lat="-40.2185220" lon="-71.3636080">
        <ele>1107.7</ele>
        <time>2020-11-15T15:03:34Z</time>
      </trkpt>
      <trkpt lat="-40.2185500" lon="-71.3636040">
        <ele>1107.9</ele>
        <time>2020-11-15T15:03:35Z</time>
      </trkpt>
      <trkpt lat="-40.2185780" lon="-71.3635980">
        <ele>1108.1</ele>
        <time>2020-11-15T15:03:36Z</time>
      </trkpt>
      <trkpt lat="-40.2186070" lon="-71.3635940">
        <ele>1108.3</ele>
        <time>2020-11-15T15:03:37Z</time>
      </trkpt>
      <trkpt lat="-40.2186350" lon="-71.3635900">
        <ele>1108.5</ele>
        <time>2020-11-15T15:03:38Z</time>
      </trkpt>
      <trkpt lat="-40.2186650" lon="-71.3635870">
        <ele>1108.6</ele>
        <time>2020-11-15T15:03:39Z</time>
      </trkpt>
      <trkpt lat="-40.2186940" lon="-71.3635840">
        <ele>1108.8</ele>
        <time>2020-11-15T15:03:40Z</time>
      </trkpt>
      <trkpt lat="-40.2187250" lon="-71.3635800">
        <ele>1109.0</ele>
        <time>2020-11-15T15:03:41Z</time>
      </trkpt>
      <trkpt lat="-40.2187580" lon="-71.3635790">
        <ele>1109.2</ele>
        <time>2020-11-15T15:03:42Z</time>
      </trkpt>
      <trkpt lat="-40.2187890" lon="-71.3635810">
        <ele>1109.4</ele>
        <time>2020-11-15T15:03:43Z</time>
      </trkpt>
      <trkpt lat="-40.2188180" lon="-71.3635850">
        <ele>1109.6</ele>
        <time>2020-11-15T15:03:44Z</time>
      </trkpt>
      <trkpt lat="-40.2188460" lon="-71.3635890">
        <ele>1109.8</ele>
        <time>2020-11-15T15:03:45Z</time>
      </trkpt>
      <trkpt lat="-40.2188770" lon="-71.3635950">
        <ele>1110.0</ele>
        <time>2020-11-15T15:03:46Z</time>
      </trkpt>
      <trkpt lat="-40.2189070" lon="-71.3636020">
        <ele>1110.2</ele>
        <time>2020-11-15T15:03:47Z</time>
      </trkpt>
      <trkpt lat="-40.2189360" lon="-71.3636080">
        <ele>1110.4</ele>
        <time>2020-11-15T15:03:48Z</time>
      </trkpt>
      <trkpt lat="-40.2189670" lon="-71.3636130">
        <ele>1110.6</ele>
        <time>2020-11-15T15:03:49Z</time>
      </trkpt>
      <trkpt lat="-40.2189960" lon="-71.3636200">
        <ele>1110.7</ele>
        <time>2020-11-15T15:03:50Z</time>
      </trkpt>
      <trkpt lat="-40.2190250" lon="-71.3636230">
        <ele>1110.9</ele>
        <time>2020-11-15T15:03:51Z</time>
      </trkpt>
      <trkpt lat="-40.2190550" lon="-71.3636280">
        <ele>1111.1</ele>
        <time>2020-11-15T15:03:52Z</time>
      </trkpt>
      <trkpt lat="-40.2190840" lon="-71.3636330">
        <ele>1111.2</ele>
        <time>2020-11-15T15:03:53Z</time>
      </trkpt>
      <trkpt lat="-40.2191140" lon="-71.3636420">
        <ele>1111.4</ele>
        <time>2020-11-15T15:03:54Z</time>
      </trkpt>
      <trkpt lat="-40.2191430" lon="-71.3636520">
        <ele>1111.6</ele>
        <time>2020-11-15T15:03:55Z</time>
      </trkpt>
      <trkpt lat="-40.2191720" lon="-71.3636580">
        <ele>1111.8</ele>
        <time>2020-11-15T15:03:56Z</time>
      </trkpt>
      <trkpt lat="-40.2192020" lon="-71.3636680">
        <ele>1112.0</ele>
        <time>2020-11-15T15:03:57Z</time>
      </trkpt>
      <trkpt lat="-40.2192310" lon="-71.3636770">
        <ele>1112.1</ele>
        <time>2020-11-15T15:03:58Z</time>
      </trkpt>
      <trkpt lat="-40.2192610" lon="-71.3636870">
        <ele>1112.3</ele>
        <time>2020-11-15T15:03:59Z</time>
      </trkpt>
      <trkpt lat="-40.2192910" lon="-71.3636960">
        <ele>1112.5</ele>
        <time>2020-11-15T15:04:00Z</time>
      </trkpt>
      <trkpt lat="-40.2193220" lon="-71.3637050">
        <ele>1112.7</ele>
        <time>2020-11-15T15:04:01Z</time>
      </trkpt>
      <trkpt lat="-40.2193520" lon="-71.3637150">
        <ele>1112.9</ele>
        <time>2020-11-15T15:04:02Z</time>
      </trkpt>
      <trkpt lat="-40.2193820" lon="-71.3637270">
        <ele>1113.1</ele>
        <time>2020-11-15T15:04:03Z</time>
      </trkpt>
      <trkpt lat="-40.2194120" lon="-71.3637370">
        <ele>1113.3</ele>
        <time>2020-11-15T15:04:04Z</time>
      </trkpt>
      <trkpt lat="-40.2194400" lon="-71.3637440">
        <ele>1113.5</ele>
        <time>2020-11-15T15:04:05Z</time>
      </trkpt>
      <trkpt lat="-40.2194690" lon="-71.3637560">
        <ele>1113.7</ele>
        <time>2020-11-15T15:04:06Z</time>
      </trkpt>
      <trkpt lat="-40.2194980" lon="-71.3637680">
        <ele>1113.9</ele>
        <time>2020-11-15T15:04:07Z</time>
      </trkpt>
      <trkpt lat="-40.2195290" lon="-71.3637800">
        <ele>1114.2</ele>
        <time>2020-11-15T15:04:08Z</time>
      </trkpt>
      <trkpt lat="-40.2195590" lon="-71.3637950">
        <ele>1114.4</ele>
        <time>2020-11-15T15:04:09Z</time>
      </trkpt>
      <trkpt lat="-40.2195880" lon="-71.3638090">
        <ele>1114.6</ele>
        <time>2020-11-15T15:04:10Z</time>
      </trkpt>
      <trkpt lat="-40.2196180" lon="-71.3638230">
        <ele>1114.8</ele>
        <time>2020-11-15T15:04:11Z</time>
      </trkpt>
      <trkpt lat="-40.2196460" lon="-71.3638360">
        <ele>1115.0</ele>
        <time>2020-11-15T15:04:12Z</time>
      </trkpt>
      <trkpt lat="-40.2196740" lon="-71.3638520">
        <ele>1115.2</ele>
        <time>2020-11-15T15:04:13Z</time>
      </trkpt>
      <trkpt lat="-40.2197020" lon="-71.3638690">
        <ele>1115.4</ele>
        <time>2020-11-15T15:04:14Z</time>
      </trkpt>
      <trkpt lat="-40.2197310" lon="-71.3638850">
        <ele>1115.6</ele>
        <time>2020-11-15T15:04:15Z</time>
      </trkpt>
      <trkpt lat="-40.2197580" lon="-71.3639020">
        <ele>1115.8</ele>
        <time>2020-11-15T15:04:16Z</time>
      </trkpt>
      <trkpt lat="-40.2197860" lon="-71.3639190">
        <ele>1116.1</ele>
        <time>2020-11-15T15:04:17Z</time>
      </trkpt>
      <trkpt lat="-40.2198130" lon="-71.3639360">
        <ele>1116.3</ele>
        <time>2020-11-15T15:04:18Z</time>
      </trkpt>
      <trkpt lat="-40.2198400" lon="-71.3639540">
        <ele>1116.5</ele>
        <time>2020-11-15T15:04:19Z</time>
      </trkpt>
      <trkpt lat="-40.2198660" lon="-71.3639720">
        <ele>1116.7</ele>
        <time>2020-11-15T15:04:20Z</time>
      </trkpt>
      <trkpt lat="-40.2198930" lon="-71.3639910">
        <ele>1116.8</ele>
        <time>2020-11-15T15:04:21Z</time>
      </trkpt>
      <trkpt lat="-40.2199200" lon="-71.3640130">
        <ele>1117.0</ele>
        <time>2020-11-15T15:04:22Z</time>
      </trkpt>
      <trkpt lat="-40.2199460" lon="-71.3640370">
        <ele>1117.1</ele>
        <time>2020-11-15T15:04:23Z</time>
      </trkpt>
      <trkpt lat="-40.2199700" lon="-71.3640640">
        <ele>1117.3</ele>
        <time>2020-11-15T15:04:24Z</time>
      </trkpt>
      <trkpt lat="-40.2199930" lon="-71.3640920">
        <ele>1117.4</ele>
        <time>2020-11-15T15:04:25Z</time>
      </trkpt>
      <trkpt lat="-40.2200150" lon="-71.3641210">
        <ele>1117.5</ele>
        <time>2020-11-15T15:04:26Z</time>
      </trkpt>
      <trkpt lat="-40.2200400" lon="-71.3641540">
        <ele>1117.7</ele>
        <time>2020-11-15T15:04:27Z</time>
      </trkpt>
      <trkpt lat="-40.2200660" lon="-71.3641910">
        <ele>1117.8</ele>
        <time>2020-11-15T15:04:28Z</time>
      </trkpt>
      <trkpt lat="-40.2200930" lon="-71.3642280">
        <ele>1118.0</ele>
        <time>2020-11-15T15:04:29Z</time>
      </trkpt>
      <trkpt lat="-40.2201180" lon="-71.3642630">
        <ele>1118.1</ele>
        <time>2020-11-15T15:04:30Z</time>
      </trkpt>
      <trkpt lat="-40.2201410" lon="-71.3642980">
        <ele>1118.3</ele>
        <time>2020-11-15T15:04:31Z</time>
      </trkpt>
      <trkpt lat="-40.2201600" lon="-71.3643340">
        <ele>1118.4</ele>
        <time>2020-11-15T15:04:32Z</time>
      </trkpt>
      <trkpt lat="-40.2201800" lon="-71.3643710">
        <ele>1118.6</ele>
        <time>2020-11-15T15:04:33Z</time>
      </trkpt>
      <trkpt lat="-40.2202000" lon="-71.3644070">
        <ele>1118.7</ele>
        <time>2020-11-15T15:04:34Z</time>
      </trkpt>
      <trkpt lat="-40.2202190" lon="-71.3644420">
        <ele>1118.8</ele>
        <time>2020-11-15T15:04:35Z</time>
      </trkpt>
      <trkpt lat="-40.2202390" lon="-71.3644770">
        <ele>1119.0</ele>
        <time>2020-11-15T15:04:36Z</time>
      </trkpt>
      <trkpt lat="-40.2202570" lon="-71.3645140">
        <ele>1119.1</ele>
        <time>2020-11-15T15:04:37Z</time>
      </trkpt>
      <trkpt lat="-40.2202720" lon="-71.3645490">
        <ele>1119.3</ele>
        <time>2020-11-15T15:04:38Z</time>
      </trkpt>
      <trkpt lat="-40.2202880" lon="-71.3645840">
        <ele>1119.4</ele>
        <time>2020-11-15T15:04:39Z</time>
      </trkpt>
      <trkpt lat="-40.2203050" lon="-71.3646190">
        <ele>1119.6</ele>
        <time>2020-11-15T15:04:40Z</time>
      </trkpt>
      <trkpt lat="-40.2203200" lon="-71.3646550">
        <ele>1119.7</ele>
        <time>2020-11-15T15:04:41Z</time>
      </trkpt>
      <trkpt lat="-40.2203340" lon="-71.3646910">
        <ele>1119.8</ele>
        <time>2020-11-15T15:04:42Z</time>
      </trkpt>
      <trkpt lat="-40.2203470" lon="-71.3647260">
        <ele>1120.0</ele>
        <time>2020-11-15T15:04:43Z</time>
      </trkpt>
      <trkpt lat="-40.2203590" lon="-71.3647570">
        <ele>1120.1</ele>
        <time>2020-11-15T15:04:44Z</time>
      </trkpt>
      <trkpt lat="-40.2203720" lon="-71.3647840">
        <ele>1120.2</ele>
        <time>2020-11-15T15:04:45Z</time>
      </trkpt>
      <trkpt lat="-40.2203870" lon="-71.3648140">
        <ele>1120.3</ele>
        <time>2020-11-15T15:04:46Z</time>
      </trkpt>
      <trkpt lat="-40.2204010" lon="-71.3648440">
        <ele>1120.4</ele>
        <time>2020-11-15T15:04:47Z</time>
      </trkpt>
      <trkpt lat="-40.2204140" lon="-71.3648740">
        <ele>1120.5</ele>
        <time>2020-11-15T15:04:48Z</time>
      </trkpt>
      <trkpt lat="-40.2204250" lon="-71.3649040">
        <ele>1120.6</ele>
        <time>2020-11-15T15:04:49Z</time>
      </trkpt>
      <trkpt lat="-40.2204370" lon="-71.3649350">
        <ele>1120.7</ele>
        <time>2020-11-15T15:04:50Z</time>
      </trkpt>
      <trkpt lat="-40.2204510" lon="-71.3649670">
        <ele>1120.8</ele>
        <time>2020-11-15T15:04:51Z</time>
      </trkpt>
      <trkpt lat="-40.2204660" lon="-71.3650000">
        <ele>1121.0</ele>
        <time>2020-11-15T15:04:52Z</time>
      </trkpt>
      <trkpt lat="-40.2204800" lon="-71.3650330">
        <ele>1121.1</ele>
        <time>2020-11-15T15:04:53Z</time>
      </trkpt>
      <trkpt lat="-40.2204940" lon="-71.3650650">
        <ele>1121.2</ele>
        <time>2020-11-15T15:04:54Z</time>
      </trkpt>
      <trkpt lat="-40.2205070" lon="-71.3650960">
        <ele>1121.3</ele>
        <time>2020-11-15T15:04:55Z</time>
      </trkpt>
      <trkpt lat="-40.2205210" lon="-71.3651280">
        <ele>1121.4</ele>
        <time>2020-11-15T15:04:56Z</time>
      </trkpt>
      <trkpt lat="-40.2205370" lon="-71.3651590">
        <ele>1121.5</ele>
        <time>2020-11-15T15:04:57Z</time>
      </trkpt>
      <trkpt lat="-40.2205540" lon="-71.3651890">
        <ele>1121.6</ele>
        <time>2020-11-15T15:04:58Z</time>
      </trkpt>
      <trkpt lat="-40.2205700" lon="-71.3652190">
        <ele>1121.7</ele>
        <time>2020-11-15T15:04:59Z</time>
      </trkpt>
      <trkpt lat="-40.2205860" lon="-71.3652480">
        <ele>1121.8</ele>
        <time>2020-11-15T15:05:00Z</time>
      </trkpt>
      <trkpt lat="-40.2206030" lon="-71.3652770">
        <ele>1121.9</ele>
        <time>2020-11-15T15:05:01Z</time>
      </trkpt>
      <trkpt lat="-40.2206220" lon="-71.3653050">
        <ele>1122.1</ele>
        <time>2020-11-15T15:05:02Z</time>
      </trkpt>
      <trkpt lat="-40.2206380" lon="-71.3653350">
        <ele>1122.2</ele>
        <time>2020-11-15T15:05:03Z</time>
      </trkpt>
      <trkpt lat="-40.2206540" lon="-71.3653660">
        <ele>1122.3</ele>
        <time>2020-11-15T15:05:04Z</time>
      </trkpt>
      <trkpt lat="-40.2206720" lon="-71.3653960">
        <ele>1122.4</ele>
        <time>2020-11-15T15:05:05Z</time>
      </trkpt>
      <trkpt lat="-40.2206920" lon="-71.3654230">
        <ele>1122.5</ele>
        <time>2020-11-15T15:05:06Z</time>
      </trkpt>
      <trkpt lat="-40.2207110" lon="-71.3654490">
        <ele>1122.6</ele>
        <time>2020-11-15T15:05:07Z</time>
      </trkpt>
      <trkpt lat="-40.2207290" lon="-71.3654750">
        <ele>1122.7</ele>
        <time>2020-11-15T15:05:08Z</time>
      </trkpt>
      <trkpt lat="-40.2207480" lon="-71.3655030">
        <ele>1122.9</ele>
        <time>2020-11-15T15:05:09Z</time>
      </trkpt>
      <trkpt lat="-40.2207670" lon="-71.3655290">
        <ele>1123.0</ele>
        <time>2020-11-15T15:05:10Z</time>
      </trkpt>
      <trkpt lat="-40.2207870" lon="-71.3655560">
        <ele>1123.1</ele>
        <time>2020-11-15T15:05:11Z</time>
      </trkpt>
      <trkpt lat="-40.2208080" lon="-71.3655820">
        <ele>1123.2</ele>
        <time>2020-11-15T15:05:12Z</time>
      </trkpt>
      <trkpt lat="-40.2208280" lon="-71.3656080">
        <ele>1123.3</ele>
        <time>2020-11-15T15:05:13Z</time>
      </trkpt>
      <trkpt lat="-40.2208480" lon="-71.3656350">
        <ele>1123.4</ele>
        <time>2020-11-15T15:05:14Z</time>
      </trkpt>
      <trkpt lat="-40.2208670" lon="-71.3656610">
        <ele>1123.6</ele>
        <time>2020-11-15T15:05:15Z</time>
      </trkpt>
      <trkpt lat="-40.2208870" lon="-71.3656880">
        <ele>1123.7</ele>
        <time>2020-11-15T15:05:16Z</time>
      </trkpt>
      <trkpt lat="-40.2209070" lon="-71.3657140">
        <ele>1123.8</ele>
        <time>2020-11-15T15:05:17Z</time>
      </trkpt>
      <trkpt lat="-40.2209260" lon="-71.3657410">
        <ele>1123.9</ele>
        <time>2020-11-15T15:05:18Z</time>
      </trkpt>
      <trkpt lat="-40.2209460" lon="-71.3657680">
        <ele>1124.0</ele>
        <time>2020-11-15T15:05:19Z</time>
      </trkpt>
      <trkpt lat="-40.2209670" lon="-71.3657950">
        <ele>1124.1</ele>
        <time>2020-11-15T15:05:20Z</time>
      </trkpt>
      <trkpt lat="-40.2209890" lon="-71.3658220">
        <ele>1124.2</ele>
        <time>2020-11-15T15:05:21Z</time>
      </trkpt>
      <trkpt lat="-40.2210110" lon="-71.3658480">
        <ele>1124.3</ele>
        <time>2020-11-15T15:05:22Z</time>
      </trkpt>
      <trkpt lat="-40.2210330" lon="-71.3658740">
        <ele>1124.4</ele>
        <time>2020-11-15T15:05:23Z</time>
      </trkpt>
      <trkpt lat="-40.2210540" lon="-71.3659010">
        <ele>1124.5</ele>
        <time>2020-11-15T15:05:24Z</time>
      </trkpt>
      <trkpt lat="-40.2210750" lon="-71.3659280">
        <ele>1124.6</ele>
        <time>2020-11-15T15:05:25Z</time>
      </trkpt>
      <trkpt lat="-40.2210950" lon="-71.3659560">
        <ele>1124.7</ele>
        <time>2020-11-15T15:05:26Z</time>
      </trkpt>
      <trkpt lat="-40.2211170" lon="-71.3659850">
        <ele>1124.9</ele>
        <time>2020-11-15T15:05:27Z</time>
      </trkpt>
      <trkpt lat="-40.2211380" lon="-71.3660130">
        <ele>1125.0</ele>
        <time>2020-11-15T15:05:28Z</time>
      </trkpt>
      <trkpt lat="-40.2211590" lon="-71.3660420">
        <ele>1125.1</ele>
        <time>2020-11-15T15:05:29Z</time>
      </trkpt>
      <trkpt lat="-40.2211800" lon="-71.3660700">
        <ele>1125.2</ele>
        <time>2020-11-15T15:05:30Z</time>
      </trkpt>
      <trkpt lat="-40.2212030" lon="-71.3660990">
        <ele>1125.3</ele>
        <time>2020-11-15T15:05:31Z</time>
      </trkpt>
      <trkpt lat="-40.2212240" lon="-71.3661280">
        <ele>1125.5</ele>
        <time>2020-11-15T15:05:32Z</time>
      </trkpt>
      <trkpt lat="-40.2212460" lon="-71.3661560">
        <ele>1125.6</ele>
        <time>2020-11-15T15:05:33Z</time>
      </trkpt>
      <trkpt lat="-40.2212680" lon="-71.3661840">
        <ele>1125.7</ele>
        <time>2020-11-15T15:05:34Z</time>
      </trkpt>
      <trkpt lat="-40.2212900" lon="-71.3662140">
        <ele>1125.8</ele>
        <time>2020-11-15T15:05:35Z</time>
      </trkpt>
      <trkpt lat="-40.2213100" lon="-71.3662450">
        <ele>1126.0</ele>
        <time>2020-11-15T15:05:36Z</time>
      </trkpt>
      <trkpt lat="-40.2213310" lon="-71.3662760">
        <ele>1126.1</ele>
        <time>2020-11-15T15:05:37Z</time>
      </trkpt>
      <trkpt lat="-40.2213530" lon="-71.3663050">
        <ele>1126.2</ele>
        <time>2020-11-15T15:05:38Z</time>
      </trkpt>
      <trkpt lat="-40.2213760" lon="-71.3663350">
        <ele>1126.3</ele>
        <time>2020-11-15T15:05:39Z</time>
      </trkpt>
      <trkpt lat="-40.2213980" lon="-71.3663650">
        <ele>1126.4</ele>
        <time>2020-11-15T15:05:40Z</time>
      </trkpt>
      <trkpt lat="-40.2214210" lon="-71.3663950">
        <ele>1126.5</ele>
        <time>2020-11-15T15:05:41Z</time>
      </trkpt>
      <trkpt lat="-40.2214420" lon="-71.3664260">
        <ele>1126.6</ele>
        <time>2020-11-15T15:05:42Z</time>
      </trkpt>
      <trkpt lat="-40.2214660" lon="-71.3664590">
        <ele>1126.8</ele>
        <time>2020-11-15T15:05:43Z</time>
      </trkpt>
      <trkpt lat="-40.2214880" lon="-71.3664900">
        <ele>1126.9</ele>
        <time>2020-11-15T15:05:44Z</time>
      </trkpt>
      <trkpt lat="-40.2215110" lon="-71.3665210">
        <ele>1127.0</ele>
        <time>2020-11-15T15:05:45Z</time>
      </trkpt>
      <trkpt lat="-40.2215320" lon="-71.3665530">
        <ele>1127.1</ele>
        <time>2020-11-15T15:05:46Z</time>
      </trkpt>
      <trkpt lat="-40.2215550" lon="-71.3665860">
        <ele>1127.2</ele>
        <time>2020-11-15T15:05:47Z</time>
      </trkpt>
      <trkpt lat="-40.2215770" lon="-71.3666190">
        <ele>1127.4</ele>
        <time>2020-11-15T15:05:48Z</time>
      </trkpt>
      <trkpt lat="-40.2215990" lon="-71.3666520">
        <ele>1127.5</ele>
        <time>2020-11-15T15:05:49Z</time>
      </trkpt>
      <trkpt lat="-40.2216200" lon="-71.3666870">
        <ele>1127.6</ele>
        <time>2020-11-15T15:05:50Z</time>
      </trkpt>
      <trkpt lat="-40.2216410" lon="-71.3667200">
        <ele>1127.7</ele>
        <time>2020-11-15T15:05:51Z</time>
      </trkpt>
      <trkpt lat="-40.2216620" lon="-71.3667530">
        <ele>1127.8</ele>
        <time>2020-11-15T15:05:52Z</time>
      </trkpt>
      <trkpt lat="-40.2216820" lon="-71.3667870">
        <ele>1127.9</ele>
        <time>2020-11-15T15:05:53Z</time>
      </trkpt>
      <trkpt lat="-40.2217010" lon="-71.3668200">
        <ele>1128.0</ele>
        <time>2020-11-15T15:05:54Z</time>
      </trkpt>
      <trkpt lat="-40.2217220" lon="-71.3668540">
        <ele>1128.1</ele>
        <time>2020-11-15T15:05:55Z</time>
      </trkpt>
      <trkpt lat="-40.2217430" lon="-71.3668880">
        <ele>1128.2</ele>
        <time>2020-11-15T15:05:56Z</time>
      </trkpt>
      <trkpt lat="-40.2217640" lon="-71.3669230">
        <ele>1128.2</ele>
        <time>2020-11-15T15:05:57Z</time>
      </trkpt>
      <trkpt lat="-40.2217850" lon="-71.3669590">
        <ele>1128.3</ele>
        <time>2020-11-15T15:05:58Z</time>
      </trkpt>
      <trkpt lat="-40.2218070" lon="-71.3669960">
        <ele>1128.4</ele>
        <time>2020-11-15T15:05:59Z</time>
      </trkpt>
      <trkpt lat="-40.2218290" lon="-71.3670330">
        <ele>1128.5</ele>
        <time>2020-11-15T15:06:00Z</time>
      </trkpt>
      <trkpt lat="-40.2218500" lon="-71.3670700">
        <ele>1128.6</ele>
        <time>2020-11-15T15:06:01Z</time>
      </trkpt>
      <trkpt lat="-40.2218710" lon="-71.3671070">
        <ele>1128.7</ele>
        <time>2020-11-15T15:06:02Z</time>
      </trkpt>
      <trkpt lat="-40.2218920" lon="-71.3671440">
        <ele>1128.9</ele>
        <time>2020-11-15T15:06:03Z</time>
      </trkpt>
      <trkpt lat="-40.2219120" lon="-71.3671810">
        <ele>1129.0</ele>
        <time>2020-11-15T15:06:04Z</time>
      </trkpt>
      <trkpt lat="-40.2219320" lon="-71.3672190">
        <ele>1129.1</ele>
        <time>2020-11-15T15:06:05Z</time>
      </trkpt>
      <trkpt lat="-40.2219520" lon="-71.3672560">
        <ele>1129.2</ele>
        <time>2020-11-15T15:06:06Z</time>
      </trkpt>
      <trkpt lat="-40.2219720" lon="-71.3672930">
        <ele>1129.3</ele>
        <time>2020-11-15T15:06:07Z</time>
      </trkpt>
      <trkpt lat="-40.2219920" lon="-71.3673300">
        <ele>1129.4</ele>
        <time>2020-11-15T15:06:08Z</time>
      </trkpt>
      <trkpt lat="-40.2220130" lon="-71.3673660">
        <ele>1129.5</ele>
        <time>2020-11-15T15:06:09Z</time>
      </trkpt>
      <trkpt lat="-40.2220340" lon="-71.3674020">
        <ele>1129.6</ele>
        <time>2020-11-15T15:06:10Z</time>
      </trkpt>
      <trkpt lat="-40.2220550" lon="-71.3674390">
        <ele>1129.7</ele>
        <time>2020-11-15T15:06:11Z</time>
      </trkpt>
      <trkpt lat="-40.2220750" lon="-71.3674770">
        <ele>1129.8</ele>
        <time>2020-11-15T15:06:12Z</time>
      </trkpt>
      <trkpt lat="-40.2220970" lon="-71.3675140">
        <ele>1129.9</ele>
        <time>2020-11-15T15:06:13Z</time>
      </trkpt>
      <trkpt lat="-40.2221190" lon="-71.3675520">
        <ele>1130.1</ele>
        <time>2020-11-15T15:06:14Z</time>
      </trkpt>
      <trkpt lat="-40.2221400" lon="-71.3675890">
        <ele>1130.2</ele>
        <time>2020-11-15T15:06:15Z</time>
      </trkpt>
      <trkpt lat="-40.2221610" lon="-71.3676280">
        <ele>1130.3</ele>
        <time>2020-11-15T15:06:16Z</time>
      </trkpt>
      <trkpt lat="-40.2221830" lon="-71.3676680">
        <ele>1130.4</ele>
        <time>2020-11-15T15:06:17Z</time>
      </trkpt>
      <trkpt lat="-40.2222040" lon="-71.3677070">
        <ele>1130.5</ele>
        <time>2020-11-15T15:06:18Z</time>
      </trkpt>
      <trkpt lat="-40.2222270" lon="-71.3677460">
        <ele>1130.7</ele>
        <time>2020-11-15T15:06:19Z</time>
      </trkpt>
      <trkpt lat="-40.2222480" lon="-71.3677850">
        <ele>1130.8</ele>
        <time>2020-11-15T15:06:20Z</time>
      </trkpt>
      <trkpt lat="-40.2222700" lon="-71.3678220">
        <ele>1130.9</ele>
        <time>2020-11-15T15:06:21Z</time>
      </trkpt>
      <trkpt lat="-40.2222930" lon="-71.3678600">
        <ele>1131.0</ele>
        <time>2020-11-15T15:06:22Z</time>
      </trkpt>
      <trkpt lat="-40.2223160" lon="-71.3678990">
        <ele>1131.1</ele>
        <time>2020-11-15T15:06:23Z</time>
      </trkpt>
      <trkpt lat="-40.2223380" lon="-71.3679370">
        <ele>1131.2</ele>
        <time>2020-11-15T15:06:24Z</time>
      </trkpt>
      <trkpt lat="-40.2223620" lon="-71.3679750">
        <ele>1131.3</ele>
        <time>2020-11-15T15:06:25Z</time>
      </trkpt>
      <trkpt lat="-40.2223870" lon="-71.3680120">
        <ele>1131.4</ele>
        <time>2020-11-15T15:06:26Z</time>
      </trkpt>
      <trkpt lat="-40.2224120" lon="-71.3680490">
        <ele>1131.5</ele>
        <time>2020-11-15T15:06:27Z</time>
      </trkpt>
      <trkpt lat="-40.2224340" lon="-71.3680860">
        <ele>1131.7</ele>
        <time>2020-11-15T15:06:28Z</time>
      </trkpt>
      <trkpt lat="-40.2224580" lon="-71.3681220">
        <ele>1131.8</ele>
        <time>2020-11-15T15:06:29Z</time>
      </trkpt>
      <trkpt lat="-40.2224870" lon="-71.3681580">
        <ele>1131.9</ele>
        <time>2020-11-15T15:06:30Z</time>
      </trkpt>
      <trkpt lat="-40.2225140" lon="-71.3681940">
        <ele>1132.0</ele>
        <time>2020-11-15T15:06:31Z</time>
      </trkpt>
      <trkpt lat="-40.2225430" lon="-71.3682290">
        <ele>1132.2</ele>
        <time>2020-11-15T15:06:32Z</time>
      </trkpt>
      <trkpt lat="-40.2225730" lon="-71.3682620">
        <ele>1132.3</ele>
        <time>2020-11-15T15:06:33Z</time>
      </trkpt>
      <trkpt lat="-40.2226060" lon="-71.3682960">
        <ele>1132.4</ele>
        <time>2020-11-15T15:06:34Z</time>
      </trkpt>
      <trkpt lat="-40.2226380" lon="-71.3683300">
        <ele>1132.5</ele>
        <time>2020-11-15T15:06:35Z</time>
      </trkpt>
      <trkpt lat="-40.2226680" lon="-71.3683620">
        <ele>1132.7</ele>
        <time>2020-11-15T15:06:36Z</time>
      </trkpt>
      <trkpt lat="-40.2226990" lon="-71.3683920">
        <ele>1132.8</ele>
        <time>2020-11-15T15:06:37Z</time>
      </trkpt>
      <trkpt lat="-40.2227340" lon="-71.3684220">
        <ele>1132.9</ele>
        <time>2020-11-15T15:06:38Z</time>
      </trkpt>
      <trkpt lat="-40.2227680" lon="-71.3684490">
        <ele>1133.1</ele>
        <time>2020-11-15T15:06:39Z</time>
      </trkpt>
      <trkpt lat="-40.2228020" lon="-71.3684760">
        <ele>1133.2</ele>
        <time>2020-11-15T15:06:40Z</time>
      </trkpt>
      <trkpt lat="-40.2228360" lon="-71.3685030">
        <ele>1133.3</ele>
        <time>2020-11-15T15:06:41Z</time>
      </trkpt>
      <trkpt lat="-40.2228700" lon="-71.3685280">
        <ele>1133.5</ele>
        <time>2020-11-15T15:06:42Z</time>
      </trkpt>
      <trkpt lat="-40.2229050" lon="-71.3685530">
        <ele>1133.6</ele>
        <time>2020-11-15T15:06:43Z</time>
      </trkpt>
      <trkpt lat="-40.2229420" lon="-71.3685760">
        <ele>1133.7</ele>
        <time>2020-11-15T15:06:44Z</time>
      </trkpt>
      <trkpt lat="-40.2229800" lon="-71.3685970">
        <ele>1133.9</ele>
        <time>2020-11-15T15:06:45Z</time>
      </trkpt>
      <trkpt lat="-40.2230180" lon="-71.3686180">
        <ele>1134.0</ele>
        <time>2020-11-15T15:06:46Z</time>
      </trkpt>
      <trkpt lat="-40.2230560" lon="-71.3686380">
        <ele>1134.1</ele>
        <time>2020-11-15T15:06:47Z</time>
      </trkpt>
      <trkpt lat="-40.2230960" lon="-71.3686560">
        <ele>1134.2</ele>
        <time>2020-11-15T15:06:48Z</time>
      </trkpt>
      <trkpt lat="-40.2231350" lon="-71.3686740">
        <ele>1134.3</ele>
        <time>2020-11-15T15:06:49Z</time>
      </trkpt>
      <trkpt lat="-40.2231750" lon="-71.3686930">
        <ele>1134.5</ele>
        <time>2020-11-15T15:06:50Z</time>
      </trkpt>
      <trkpt lat="-40.2232160" lon="-71.3687110">
        <ele>1134.6</ele>
        <time>2020-11-15T15:06:51Z</time>
      </trkpt>
      <trkpt lat="-40.2232550" lon="-71.3687270">
        <ele>1134.7</ele>
        <time>2020-11-15T15:06:52Z</time>
      </trkpt>
      <trkpt lat="-40.2232930" lon="-71.3687410">
        <ele>1134.8</ele>
        <time>2020-11-15T15:06:53Z</time>
      </trkpt>
      <trkpt lat="-40.2233320" lon="-71.3687530">
        <ele>1134.9</ele>
        <time>2020-11-15T15:06:54Z</time>
      </trkpt>
      <trkpt lat="-40.2233700" lon="-71.3687670">
        <ele>1135.0</ele>
        <time>2020-11-15T15:06:55Z</time>
      </trkpt>
      <trkpt lat="-40.2234090" lon="-71.3687780">
        <ele>1135.1</ele>
        <time>2020-11-15T15:06:56Z</time>
      </trkpt>
      <trkpt lat="-40.2234490" lon="-71.3687890">
        <ele>1135.2</ele>
        <time>2020-11-15T15:06:57Z</time>
      </trkpt>
      <trkpt lat="-40.2234890" lon="-71.3688020">
        <ele>1135.4</ele>
        <time>2020-11-15T15:06:58Z</time>
      </trkpt>
      <trkpt lat="-40.2235310" lon="-71.3688130">
        <ele>1135.5</ele>
        <time>2020-11-15T15:06:59Z</time>
      </trkpt>
      <trkpt lat="-40.2235710" lon="-71.3688260">
        <ele>1135.6</ele>
        <time>2020-11-15T15:07:00Z</time>
      </trkpt>
      <trkpt lat="-40.2236100" lon="-71.3688400">
        <ele>1135.7</ele>
        <time>2020-11-15T15:07:01Z</time>
      </trkpt>
      <trkpt lat="-40.2236490" lon="-71.3688540">
        <ele>1135.8</ele>
        <time>2020-11-15T15:07:02Z</time>
      </trkpt>
      <trkpt lat="-40.2236890" lon="-71.3688670">
        <ele>1135.9</ele>
        <time>2020-11-15T15:07:03Z</time>
      </trkpt>
      <trkpt lat="-40.2237300" lon="-71.3688830">
        <ele>1136.1</ele>
        <time>2020-11-15T15:07:04Z</time>
      </trkpt>
      <trkpt lat="-40.2237710" lon="-71.3689000">
        <ele>1136.2</ele>
        <time>2020-11-15T15:07:05Z</time>
      </trkpt>
      <trkpt lat="-40.2238110" lon="-71.3689150">
        <ele>1136.3</ele>
        <time>2020-11-15T15:07:06Z</time>
      </trkpt>
      <trkpt lat="-40.2238500" lon="-71.3689300">
        <ele>1136.5</ele>
        <time>2020-11-15T15:07:07Z</time>
      </trkpt>
      <trkpt lat="-40.2238910" lon="-71.3689440">
        <ele>1136.6</ele>
        <time>2020-11-15T15:07:08Z</time>
      </trkpt>
      <trkpt lat="-40.2239280" lon="-71.3689600">
        <ele>1136.7</ele>
        <time>2020-11-15T15:07:09Z</time>
      </trkpt>
      <trkpt lat="-40.2239650" lon="-71.3689780">
        <ele>1136.9</ele>
        <time>2020-11-15T15:07:10Z</time>
      </trkpt>
      <trkpt lat="-40.2240040" lon="-71.3689970">
        <ele>1137.0</ele>
        <time>2020-11-15T15:07:11Z</time>
      </trkpt>
      <trkpt lat="-40.2240450" lon="-71.3690160">
        <ele>1137.2</ele>
        <time>2020-11-15T15:07:12Z</time>
      </trkpt>
      <trkpt lat="-40.2240840" lon="-71.3690340">
        <ele>1137.3</ele>
        <time>2020-11-15T15:07:13Z</time>
      </trkpt>
      <trkpt lat="-40.2241230" lon="-71.3690530">
        <ele>1137.5</ele>
        <time>2020-11-15T15:07:14Z</time>
      </trkpt>
      <trkpt lat="-40.2241620" lon="-71.3690740">
        <ele>1137.6</ele>
        <time>2020-11-15T15:07:15Z</time>
      </trkpt>
      <trkpt lat="-40.2241990" lon="-71.3690950">
        <ele>1137.7</ele>
        <time>2020-11-15T15:07:16Z</time>
      </trkpt>
      <trkpt lat="-40.2242330" lon="-71.3691150">
        <ele>1137.8</ele>
        <time>2020-11-15T15:07:17Z</time>
      </trkpt>
      <trkpt lat="-40.2242620" lon="-71.3691370">
        <ele>1137.9</ele>
        <time>2020-11-15T15:07:18Z</time>
      </trkpt>
      <trkpt lat="-40.2242910" lon="-71.3691580">
        <ele>1138.0</ele>
        <time>2020-11-15T15:07:19Z</time>
      </trkpt>
      <trkpt lat="-40.2243210" lon="-71.3691740">
        <ele>1138.1</ele>
        <time>2020-11-15T15:07:20Z</time>
      </trkpt>
      <trkpt lat="-40.2243500" lon="-71.3691910">
        <ele>1138.2</ele>
        <time>2020-11-15T15:07:21Z</time>
      </trkpt>
      <trkpt lat="-40.2243810" lon="-71.3692090">
        <ele>1138.3</ele>
        <time>2020-11-15T15:07:22Z</time>
      </trkpt>
      <trkpt lat="-40.2244130" lon="-71.3692270">
        <ele>1138.4</ele>
        <time>2020-11-15T15:07:23Z</time>
      </trkpt>
      <trkpt lat="-40.2244450" lon="-71.3692490">
        <ele>1138.5</ele>
        <time>2020-11-15T15:07:24Z</time>
      </trkpt>
      <trkpt lat="-40.2244770" lon="-71.3692720">
        <ele>1138.6</ele>
        <time>2020-11-15T15:07:25Z</time>
      </trkpt>
      <trkpt lat="-40.2245080" lon="-71.3692990">
        <ele>1138.8</ele>
        <time>2020-11-15T15:07:26Z</time>
      </trkpt>
      <trkpt lat="-40.2245400" lon="-71.3693260">
        <ele>1138.9</ele>
        <time>2020-11-15T15:07:27Z</time>
      </trkpt>
      <trkpt lat="-40.2245730" lon="-71.3693530">
        <ele>1139.0</ele>
        <time>2020-11-15T15:07:28Z</time>
      </trkpt>
      <trkpt lat="-40.2246070" lon="-71.3693820">
        <ele>1139.1</ele>
        <time>2020-11-15T15:07:29Z</time>
      </trkpt>
      <trkpt lat="-40.2246400" lon="-71.3694110">
        <ele>1139.2</ele>
        <time>2020-11-15T15:07:30Z</time>
      </trkpt>
      <trkpt lat="-40.2246720" lon="-71.3694410">
        <ele>1139.3</ele>
        <time>2020-11-15T15:07:31Z</time>
      </trkpt>
      <trkpt lat="-40.2247020" lon="-71.3694710">
        <ele>1139.4</ele>
        <time>2020-11-15T15:07:32Z</time>
      </trkpt>
      <trkpt lat="-40.2247290" lon="-71.3695010">
        <ele>1139.5</ele>
        <time>2020-11-15T15:07:33Z</time>
      </trkpt>
      <trkpt lat="-40.2247570" lon="-71.3695310">
        <ele>1139.6</ele>
        <time>2020-11-15T15:07:34Z</time>
      </trkpt>
      <trkpt lat="-40.2247860" lon="-71.3695590">
        <ele>1139.7</ele>
        <time>2020-11-15T15:07:35Z</time>
      </trkpt>
      <trkpt lat="-40.2248150" lon="-71.3695880">
        <ele>1139.8</ele>
        <time>2020-11-15T15:07:36Z</time>
      </trkpt>
      <trkpt lat="-40.2248440" lon="-71.3696230">
        <ele>1140.0</ele>
        <time>2020-11-15T15:07:37Z</time>
      </trkpt>
      <trkpt lat="-40.2248730" lon="-71.3696590">
        <ele>1140.1</ele>
        <time>2020-11-15T15:07:38Z</time>
      </trkpt>
      <trkpt lat="-40.2249020" lon="-71.3696980">
        <ele>1140.2</ele>
        <time>2020-11-15T15:07:39Z</time>
      </trkpt>
      <trkpt lat="-40.2249310" lon="-71.3697350">
        <ele>1140.3</ele>
        <time>2020-11-15T15:07:40Z</time>
      </trkpt>
      <trkpt lat="-40.2249610" lon="-71.3697720">
        <ele>1140.5</ele>
        <time>2020-11-15T15:07:41Z</time>
      </trkpt>
      <trkpt lat="-40.2249900" lon="-71.3698080">
        <ele>1140.6</ele>
        <time>2020-11-15T15:07:42Z</time>
      </trkpt>
      <trkpt lat="-40.2250170" lon="-71.3698460">
        <ele>1140.8</ele>
        <time>2020-11-15T15:07:43Z</time>
      </trkpt>
      <trkpt lat="-40.2250440" lon="-71.3698860">
        <ele>1140.9</ele>
        <time>2020-11-15T15:07:44Z</time>
      </trkpt>
      <trkpt lat="-40.2250720" lon="-71.3699250">
        <ele>1141.1</ele>
        <time>2020-11-15T15:07:45Z</time>
      </trkpt>
      <trkpt lat="-40.2250980" lon="-71.3699640">
        <ele>1141.2</ele>
        <time>2020-11-15T15:07:46Z</time>
      </trkpt>
      <trkpt lat="-40.2251260" lon="-71.3700050">
        <ele>1141.3</ele>
        <time>2020-11-15T15:07:47Z</time>
      </trkpt>
      <trkpt lat="-40.2251550" lon="-71.3700470">
        <ele>1141.5</ele>
        <time>2020-11-15T15:07:48Z</time>
      </trkpt>
      <trkpt lat="-40.2251800" lon="-71.3700890">
        <ele>1141.6</ele>
        <time>2020-11-15T15:07:49Z</time>
      </trkpt>
      <trkpt lat="-40.2252070" lon="-71.3701320">
        <ele>1141.7</ele>
        <time>2020-11-15T15:07:50Z</time>
      </trkpt>
      <trkpt lat="-40.2252320" lon="-71.3701750">
        <ele>1141.9</ele>
        <time>2020-11-15T15:07:51Z</time>
      </trkpt>
      <trkpt lat="-40.2252560" lon="-71.3702170">
        <ele>1142.0</ele>
        <time>2020-11-15T15:07:52Z</time>
      </trkpt>
      <trkpt lat="-40.2252810" lon="-71.3702600">
        <ele>1142.2</ele>
        <time>2020-11-15T15:07:53Z</time>
      </trkpt>
      <trkpt lat="-40.2253090" lon="-71.3703060">
        <ele>1142.3</ele>
        <time>2020-11-15T15:07:54Z</time>
      </trkpt>
      <trkpt lat="-40.2253340" lon="-71.3703510">
        <ele>1142.5</ele>
        <time>2020-11-15T15:07:55Z</time>
      </trkpt>
      <trkpt lat="-40.2253600" lon="-71.3703970">
        <ele>1142.6</ele>
        <time>2020-11-15T15:07:56Z</time>
      </trkpt>
      <trkpt lat="-40.2253840" lon="-71.3704410">
        <ele>1142.8</ele>
        <time>2020-11-15T15:07:57Z</time>
      </trkpt>
      <trkpt lat="-40.2254080" lon="-71.3704850">
        <ele>1142.9</ele>
        <time>2020-11-15T15:07:58Z</time>
      </trkpt>
      <trkpt lat="-40.2254300" lon="-71.3705270">
        <ele>1143.1</ele>
        <time>2020-11-15T15:07:59Z</time>
      </trkpt>
      <trkpt lat="-40.2254500" lon="-71.3705690">
        <ele>1143.2</ele>
        <time>2020-11-15T15:08:00Z</time>
      </trkpt>
      <trkpt lat="-40.2254720" lon="-71.3706140">
        <ele>1143.3</ele>
        <time>2020-11-15T15:08:01Z</time>
      </trkpt>
      <trkpt lat="-40.2254920" lon="-71.3706580">
        <ele>1143.5</ele>
        <time>2020-11-15T15:08:02Z</time>
      </trkpt>
      <trkpt lat="-40.2255110" lon="-71.3707010">
        <ele>1143.6</ele>
        <time>2020-11-15T15:08:03Z</time>
      </trkpt>
      <trkpt lat="-40.2255320" lon="-71.3707410">
        <ele>1143.7</ele>
        <time>2020-11-15T15:08:04Z</time>
      </trkpt>
      <trkpt lat="-40.2255530" lon="-71.3707810">
        <ele>1143.9</ele>
        <time>2020-11-15T15:08:05Z</time>
      </trkpt>
      <trkpt lat="-40.2255680" lon="-71.3708220">
        <ele>1144.0</ele>
        <time>2020-11-15T15:08:06Z</time>
      </trkpt>
      <trkpt lat="-40.2255850" lon="-71.3708650">
        <ele>1144.1</ele>
        <time>2020-11-15T15:08:07Z</time>
      </trkpt>
      <trkpt lat="-40.2256010" lon="-71.3709080">
        <ele>1144.3</ele>
        <time>2020-11-15T15:08:08Z</time>
      </trkpt>
      <trkpt lat="-40.2256170" lon="-71.3709500">
        <ele>1144.4</ele>
        <time>2020-11-15T15:08:09Z</time>
      </trkpt>
      <trkpt lat="-40.2256360" lon="-71.3709910">
        <ele>1144.5</ele>
        <time>2020-11-15T15:08:10Z</time>
      </trkpt>
      <trkpt lat="-40.2256540" lon="-71.3710330">
        <ele>1144.7</ele>
        <time>2020-11-15T15:08:11Z</time>
      </trkpt>
      <trkpt lat="-40.2256760" lon="-71.3710750">
        <ele>1144.8</ele>
        <time>2020-11-15T15:08:12Z</time>
      </trkpt>
      <trkpt lat="-40.2256990" lon="-71.3711180">
        <ele>1144.9</ele>
        <time>2020-11-15T15:08:13Z</time>
      </trkpt>
      <trkpt lat="-40.2257200" lon="-71.3711610">
        <ele>1145.1</ele>
        <time>2020-11-15T15:08:14Z</time>
      </trkpt>
      <trkpt lat="-40.2257410" lon="-71.3712020">
        <ele>1145.2</ele>
        <time>2020-11-15T15:08:15Z</time>
      </trkpt>
      <trkpt lat="-40.2257610" lon="-71.3712420">
        <ele>1145.3</ele>
        <time>2020-11-15T15:08:16Z</time>
      </trkpt>
      <trkpt lat="-40.2257820" lon="-71.3712820">
        <ele>1145.5</ele>
        <time>2020-11-15T15:08:17Z</time>
      </trkpt>
      <trkpt lat="-40.2258030" lon="-71.3713240">
        <ele>1145.6</ele>
        <time>2020-11-15T15:08:18Z</time>
      </trkpt>
      <trkpt lat="-40.2258230" lon="-71.3713630">
        <ele>1145.7</ele>
        <time>2020-11-15T15:08:19Z</time>
      </trkpt>
      <trkpt lat="-40.2258460" lon="-71.3714000">
        <ele>1145.9</ele>
        <time>2020-11-15T15:08:20Z</time>
      </trkpt>
      <trkpt lat="-40.2258680" lon="-71.3714400">
        <ele>1146.0</ele>
        <time>2020-11-15T15:08:21Z</time>
      </trkpt>
      <trkpt lat="-40.2258900" lon="-71.3714790">
        <ele>1146.2</ele>
        <time>2020-11-15T15:08:22Z</time>
      </trkpt>
      <trkpt lat="-40.2259110" lon="-71.3715170">
        <ele>1146.3</ele>
        <time>2020-11-15T15:08:23Z</time>
      </trkpt>
      <trkpt lat="-40.2259310" lon="-71.3715530">
        <ele>1146.4</ele>
        <time>2020-11-15T15:08:24Z</time>
      </trkpt>
      <trkpt lat="-40.2259500" lon="-71.3715840">
        <ele>1146.6</ele>
        <time>2020-11-15T15:08:25Z</time>
      </trkpt>
      <trkpt lat="-40.2259720" lon="-71.3716160">
        <ele>1146.7</ele>
        <time>2020-11-15T15:08:26Z</time>
      </trkpt>
      <trkpt lat="-40.2259940" lon="-71.3716470">
        <ele>1146.8</ele>
        <time>2020-11-15T15:08:27Z</time>
      </trkpt>
      <trkpt lat="-40.2260160" lon="-71.3716760">
        <ele>1147.0</ele>
        <time>2020-11-15T15:08:28Z</time>
      </trkpt>
      <trkpt lat="-40.2260430" lon="-71.3717020">
        <ele>1147.1</ele>
        <time>2020-11-15T15:08:29Z</time>
      </trkpt>
      <trkpt lat="-40.2260680" lon="-71.3717300">
        <ele>1147.3</ele>
        <time>2020-11-15T15:08:30Z</time>
      </trkpt>
      <trkpt lat="-40.2260940" lon="-71.3717560">
        <ele>1147.4</ele>
        <time>2020-11-15T15:08:31Z</time>
      </trkpt>
      <trkpt lat="-40.2261210" lon="-71.3717810">
        <ele>1147.6</ele>
        <time>2020-11-15T15:08:32Z</time>
      </trkpt>
      <trkpt lat="-40.2261480" lon="-71.3718070">
        <ele>1147.6</ele>
        <time>2020-11-15T15:08:33Z</time>
      </trkpt>
      <trkpt lat="-40.2261770" lon="-71.3718330">
        <ele>1147.8</ele>
        <time>2020-11-15T15:08:34Z</time>
      </trkpt>
      <trkpt lat="-40.2262070" lon="-71.3718590">
        <ele>1147.9</ele>
        <time>2020-11-15T15:08:35Z</time>
      </trkpt>
      <trkpt lat="-40.2262390" lon="-71.3718830">
        <ele>1148.1</ele>
        <time>2020-11-15T15:08:36Z</time>
      </trkpt>
      <trkpt lat="-40.2262720" lon="-71.3719070">
        <ele>1148.2</ele>
        <time>2020-11-15T15:08:37Z</time>
      </trkpt>
      <trkpt lat="-40.2263040" lon="-71.3719280">
        <ele>1148.4</ele>
        <time>2020-11-15T15:08:38Z</time>
      </trkpt>
      <trkpt lat="-40.2263360" lon="-71.3719480">
        <ele>1148.5</ele>
        <time>2020-11-15T15:08:39Z</time>
      </trkpt>
      <trkpt lat="-40.2263710" lon="-71.3719670">
        <ele>1148.7</ele>
        <time>2020-11-15T15:08:40Z</time>
      </trkpt>
      <trkpt lat="-40.2264050" lon="-71.3719850">
        <ele>1148.8</ele>
        <time>2020-11-15T15:08:41Z</time>
      </trkpt>
      <trkpt lat="-40.2264400" lon="-71.3720040">
        <ele>1148.9</ele>
        <time>2020-11-15T15:08:42Z</time>
      </trkpt>
      <trkpt lat="-40.2264740" lon="-71.3720240">
        <ele>1149.1</ele>
        <time>2020-11-15T15:08:43Z</time>
      </trkpt>
      <trkpt lat="-40.2265070" lon="-71.3720420">
        <ele>1149.2</ele>
        <time>2020-11-15T15:08:44Z</time>
      </trkpt>
      <trkpt lat="-40.2265400" lon="-71.3720610">
        <ele>1149.3</ele>
        <time>2020-11-15T15:08:45Z</time>
      </trkpt>
      <trkpt lat="-40.2265730" lon="-71.3720800">
        <ele>1149.4</ele>
        <time>2020-11-15T15:08:46Z</time>
      </trkpt>
      <trkpt lat="-40.2266040" lon="-71.3720990">
        <ele>1149.6</ele>
        <time>2020-11-15T15:08:47Z</time>
      </trkpt>
      <trkpt lat="-40.2266360" lon="-71.3721160">
        <ele>1149.7</ele>
        <time>2020-11-15T15:08:48Z</time>
      </trkpt>
      <trkpt lat="-40.2266700" lon="-71.3721340">
        <ele>1149.8</ele>
        <time>2020-11-15T15:08:49Z</time>
      </trkpt>
      <trkpt lat="-40.2267030" lon="-71.3721510">
        <ele>1150.0</ele>
        <time>2020-11-15T15:08:50Z</time>
      </trkpt>
      <trkpt lat="-40.2267360" lon="-71.3721700">
        <ele>1150.1</ele>
        <time>2020-11-15T15:08:51Z</time>
      </trkpt>
      <trkpt lat="-40.2267700" lon="-71.3721880">
        <ele>1150.2</ele>
        <time>2020-11-15T15:08:52Z</time>
      </trkpt>
      <trkpt lat="-40.2268040" lon="-71.3722040">
        <ele>1150.4</ele>
        <time>2020-11-15T15:08:53Z</time>
      </trkpt>
      <trkpt lat="-40.2268380" lon="-71.3722200">
        <ele>1150.5</ele>
        <time>2020-11-15T15:08:54Z</time>
      </trkpt>
      <trkpt lat="-40.2268710" lon="-71.3722350">
        <ele>1150.7</ele>
        <time>2020-11-15T15:08:55Z</time>
      </trkpt>
      <trkpt lat="-40.2269040" lon="-71.3722510">
        <ele>1150.8</ele>
        <time>2020-11-15T15:08:56Z</time>
      </trkpt>
      <trkpt lat="-40.2269390" lon="-71.3722660">
        <ele>1150.9</ele>
        <time>2020-11-15T15:08:57Z</time>
      </trkpt>
      <trkpt lat="-40.2269770" lon="-71.3722800">
        <ele>1151.1</ele>
        <time>2020-11-15T15:08:58Z</time>
      </trkpt>
      <trkpt lat="-40.2270150" lon="-71.3722940">
        <ele>1151.2</ele>
        <time>2020-11-15T15:08:59Z</time>
      </trkpt>
      <trkpt lat="-40.2270520" lon="-71.3723080">
        <ele>1151.4</ele>
        <time>2020-11-15T15:09:00Z</time>
      </trkpt>
      <trkpt lat="-40.2270900" lon="-71.3723210">
        <ele>1151.6</ele>
        <time>2020-11-15T15:09:01Z</time>
      </trkpt>
      <trkpt lat="-40.2271260" lon="-71.3723320">
        <ele>1151.7</ele>
        <time>2020-11-15T15:09:02Z</time>
      </trkpt>
      <trkpt lat="-40.2271650" lon="-71.3723420">
        <ele>1151.9</ele>
        <time>2020-11-15T15:09:03Z</time>
      </trkpt>
      <trkpt lat="-40.2272010" lon="-71.3723520">
        <ele>1152.1</ele>
        <time>2020-11-15T15:09:04Z</time>
      </trkpt>
      <trkpt lat="-40.2272360" lon="-71.3723610">
        <ele>1152.2</ele>
        <time>2020-11-15T15:09:05Z</time>
      </trkpt>
      <trkpt lat="-40.2272720" lon="-71.3723660">
        <ele>1152.4</ele>
        <time>2020-11-15T15:09:06Z</time>
      </trkpt>
      <trkpt lat="-40.2273070" lon="-71.3723730">
        <ele>1152.6</ele>
        <time>2020-11-15T15:09:07Z</time>
      </trkpt>
      <trkpt lat="-40.2273410" lon="-71.3723780">
        <ele>1152.8</ele>
        <time>2020-11-15T15:09:08Z</time>
      </trkpt>
      <trkpt lat="-40.2273770" lon="-71.3723840">
        <ele>1152.9</ele>
        <time>2020-11-15T15:09:09Z</time>
      </trkpt>
      <trkpt lat="-40.2274120" lon="-71.3723890">
        <ele>1153.1</ele>
        <time>2020-11-15T15:09:10Z</time>
      </trkpt>
      <trkpt lat="-40.2274480" lon="-71.3723950">
        <ele>1153.3</ele>
        <time>2020-11-15T15:09:11Z</time>
      </trkpt>
      <trkpt lat="-40.2274840" lon="-71.3724000">
        <ele>1153.5</ele>
        <time>2020-11-15T15:09:12Z</time>
      </trkpt>
      <trkpt lat="-40.2275200" lon="-71.3723990">
        <ele>1153.7</ele>
        <time>2020-11-15T15:09:13Z</time>
      </trkpt>
      <trkpt lat="-40.2275560" lon="-71.3723990">
        <ele>1153.9</ele>
        <time>2020-11-15T15:09:14Z</time>
      </trkpt>
      <trkpt lat="-40.2275910" lon="-71.3723970">
        <ele>1154.1</ele>
        <time>2020-11-15T15:09:15Z</time>
      </trkpt>
      <trkpt lat="-40.2276260" lon="-71.3723950">
        <ele>1154.3</ele>
        <time>2020-11-15T15:09:16Z</time>
      </trkpt>
      <trkpt lat="-40.2276600" lon="-71.3723910">
        <ele>1154.4</ele>
        <time>2020-11-15T15:09:17Z</time>
      </trkpt>
      <trkpt lat="-40.2276930" lon="-71.3723860">
        <ele>1154.6</ele>
        <time>2020-11-15T15:09:18Z</time>
      </trkpt>
      <trkpt lat="-40.2277280" lon="-71.3723820">
        <ele>1154.8</ele>
        <time>2020-11-15T15:09:19Z</time>
      </trkpt>
      <trkpt lat="-40.2277600" lon="-71.3723760">
        <ele>1155.0</ele>
        <time>2020-11-15T15:09:20Z</time>
      </trkpt>
      <trkpt lat="-40.2277930" lon="-71.3723710">
        <ele>1155.1</ele>
        <time>2020-11-15T15:09:21Z</time>
      </trkpt>
      <trkpt lat="-40.2278250" lon="-71.3723650">
        <ele>1155.3</ele>
        <time>2020-11-15T15:09:22Z</time>
      </trkpt>
      <trkpt lat="-40.2278540" lon="-71.3723570">
        <ele>1155.5</ele>
        <time>2020-11-15T15:09:23Z</time>
      </trkpt>
      <trkpt lat="-40.2278840" lon="-71.3723500">
        <ele>1155.7</ele>
        <time>2020-11-15T15:09:24Z</time>
      </trkpt>
      <trkpt lat="-40.2279170" lon="-71.3723420">
        <ele>1155.9</ele>
        <time>2020-11-15T15:09:25Z</time>
      </trkpt>
      <trkpt lat="-40.2279490" lon="-71.3723360">
        <ele>1156.0</ele>
        <time>2020-11-15T15:09:26Z</time>
      </trkpt>
      <trkpt lat="-40.2279810" lon="-71.3723320">
        <ele>1156.2</ele>
        <time>2020-11-15T15:09:27Z</time>
      </trkpt>
      <trkpt lat="-40.2280150" lon="-71.3723240">
        <ele>1156.4</ele>
        <time>2020-11-15T15:09:28Z</time>
      </trkpt>
      <trkpt lat="-40.2280460" lon="-71.3723120">
        <ele>1156.6</ele>
        <time>2020-11-15T15:09:29Z</time>
      </trkpt>
      <trkpt lat="-40.2280780" lon="-71.3723020">
        <ele>1156.7</ele>
        <time>2020-11-15T15:09:30Z</time>
      </trkpt>
      <trkpt lat="-40.2281090" lon="-71.3722880">
        <ele>1156.9</ele>
        <time>2020-11-15T15:09:31Z</time>
      </trkpt>
      <trkpt lat="-40.2281400" lon="-71.3722790">
        <ele>1157.1</ele>
        <time>2020-11-15T15:09:32Z</time>
      </trkpt>
      <trkpt lat="-40.2281690" lon="-71.3722680">
        <ele>1157.2</ele>
        <time>2020-11-15T15:09:33Z</time>
      </trkpt>
      <trkpt lat="-40.2281970" lon="-71.3722570">
        <ele>1157.4</ele>
        <time>2020-11-15T15:09:34Z</time>
      </trkpt>
      <trkpt lat="-40.2282270" lon="-71.3722460">
        <ele>1157.5</ele>
        <time>2020-11-15T15:09:35Z</time>
      </trkpt>
      <trkpt lat="-40.2282550" lon="-71.3722300">
        <ele>1157.7</ele>
        <time>2020-11-15T15:09:36Z</time>
      </trkpt>
      <trkpt lat="-40.2282850" lon="-71.3722150">
        <ele>1157.9</ele>
        <time>2020-11-15T15:09:37Z</time>
      </trkpt>
      <trkpt lat="-40.2283140" lon="-71.3721970">
        <ele>1158.0</ele>
        <time>2020-11-15T15:09:38Z</time>
      </trkpt>
      <trkpt lat="-40.2283430" lon="-71.3721800">
        <ele>1158.2</ele>
        <time>2020-11-15T15:09:39Z</time>
      </trkpt>
      <trkpt lat="-40.2283750" lon="-71.3721670">
        <ele>1158.3</ele>
        <time>2020-11-15T15:09:40Z</time>
      </trkpt>
      <trkpt lat="-40.2284080" lon="-71.3721550">
        <ele>1158.5</ele>
        <time>2020-11-15T15:09:41Z</time>
      </trkpt>
      <trkpt lat="-40.2284390" lon="-71.3721400">
        <ele>1158.6</ele>
        <time>2020-11-15T15:09:42Z</time>
      </trkpt>
      <trkpt lat="-40.2284700" lon="-71.3721240">
        <ele>1158.8</ele>
        <time>2020-11-15T15:09:43Z</time>
      </trkpt>
      <trkpt lat="-40.2285010" lon="-71.3721080">
        <ele>1158.9</ele>
        <time>2020-11-15T15:09:44Z</time>
      </trkpt>
      <trkpt lat="-40.2285310" lon="-71.3720920">
        <ele>1159.1</ele>
        <time>2020-11-15T15:09:45Z</time>
      </trkpt>
      <trkpt lat="-40.2285610" lon="-71.3720740">
        <ele>1159.2</ele>
        <time>2020-11-15T15:09:46Z</time>
      </trkpt>
      <trkpt lat="-40.2285930" lon="-71.3720600">
        <ele>1159.3</ele>
        <time>2020-11-15T15:09:47Z</time>
      </trkpt>
      <trkpt lat="-40.2286230" lon="-71.3720450">
        <ele>1159.5</ele>
        <time>2020-11-15T15:09:48Z</time>
      </trkpt>
      <trkpt lat="-40.2286500" lon="-71.3720280">
        <ele>1159.6</ele>
        <time>2020-11-15T15:09:49Z</time>
      </trkpt>
      <trkpt lat="-40.2286780" lon="-71.3720080">
        <ele>1159.7</ele>
        <time>2020-11-15T15:09:50Z</time>
      </trkpt>
      <trkpt lat="-40.2287010" lon="-71.3719870">
        <ele>1159.8</ele>
        <time>2020-11-15T15:09:51Z</time>
      </trkpt>
      <trkpt lat="-40.2287320" lon="-71.3719700">
        <ele>1159.9</ele>
        <time>2020-11-15T15:09:52Z</time>
      </trkpt>
      <trkpt lat="-40.2287630" lon="-71.3719520">
        <ele>1160.1</ele>
        <time>2020-11-15T15:09:53Z</time>
      </trkpt>
      <trkpt lat="-40.2287930" lon="-71.3719330">
        <ele>1160.2</ele>
        <time>2020-11-15T15:09:54Z</time>
      </trkpt>
      <trkpt lat="-40.2288230" lon="-71.3719140">
        <ele>1160.3</ele>
        <time>2020-11-15T15:09:55Z</time>
      </trkpt>
      <trkpt lat="-40.2288540" lon="-71.3718990">
        <ele>1160.5</ele>
        <time>2020-11-15T15:09:56Z</time>
      </trkpt>
      <trkpt lat="-40.2288850" lon="-71.3718840">
        <ele>1160.6</ele>
        <time>2020-11-15T15:09:57Z</time>
      </trkpt>
      <trkpt lat="-40.2289180" lon="-71.3718670">
        <ele>1160.7</ele>
        <time>2020-11-15T15:09:58Z</time>
      </trkpt>
      <trkpt lat="-40.2289520" lon="-71.3718490">
        <ele>1160.8</ele>
        <time>2020-11-15T15:09:59Z</time>
      </trkpt>
      <trkpt lat="-40.2289860" lon="-71.3718290">
        <ele>1161.0</ele>
        <time>2020-11-15T15:10:00Z</time>
      </trkpt>
      <trkpt lat="-40.2290210" lon="-71.3718110">
        <ele>1161.1</ele>
        <time>2020-11-15T15:10:01Z</time>
      </trkpt>
      <trkpt lat="-40.2290560" lon="-71.3717920">
        <ele>1161.2</ele>
        <time>2020-11-15T15:10:02Z</time>
      </trkpt>
      <trkpt lat="-40.2290910" lon="-71.3717780">
        <ele>1161.3</ele>
        <time>2020-11-15T15:10:03Z</time>
      </trkpt>
      <trkpt lat="-40.2291260" lon="-71.3717580">
        <ele>1161.4</ele>
        <time>2020-11-15T15:10:04Z</time>
      </trkpt>
      <trkpt lat="-40.2291620" lon="-71.3717410">
        <ele>1161.5</ele>
        <time>2020-11-15T15:10:05Z</time>
      </trkpt>
      <trkpt lat="-40.2292000" lon="-71.3717270">
        <ele>1161.6</ele>
        <time>2020-11-15T15:10:06Z</time>
      </trkpt>
      <trkpt lat="-40.2292370" lon="-71.3717100">
        <ele>1161.7</ele>
        <time>2020-11-15T15:10:07Z</time>
      </trkpt>
      <trkpt lat="-40.2292750" lon="-71.3716940">
        <ele>1161.8</ele>
        <time>2020-11-15T15:10:08Z</time>
      </trkpt>
      <trkpt lat="-40.2293130" lon="-71.3716750">
        <ele>1161.9</ele>
        <time>2020-11-15T15:10:09Z</time>
      </trkpt>
      <trkpt lat="-40.2293510" lon="-71.3716510">
        <ele>1162.0</ele>
        <time>2020-11-15T15:10:10Z</time>
      </trkpt>
      <trkpt lat="-40.2293890" lon="-71.3716290">
        <ele>1162.1</ele>
        <time>2020-11-15T15:10:11Z</time>
      </trkpt>
      <trkpt lat="-40.2294230" lon="-71.3716050">
        <ele>1162.2</ele>
        <time>2020-11-15T15:10:12Z</time>
      </trkpt>
      <trkpt lat="-40.2294610" lon="-71.3715860">
        <ele>1162.3</ele>
        <time>2020-11-15T15:10:13Z</time>
      </trkpt>
      <trkpt lat="-40.2294990" lon="-71.3715640">
        <ele>1162.4</ele>
        <time>2020-11-15T15:10:14Z</time>
      </trkpt>
      <trkpt lat="-40.2295360" lon="-71.3715420">
        <ele>1162.5</ele>
        <time>2020-11-15T15:10:15Z</time>
      </trkpt>
      <trkpt lat="-40.2295740" lon="-71.3715170">
        <ele>1162.6</ele>
        <time>2020-11-15T15:10:16Z</time>
      </trkpt>
      <trkpt lat="-40.2296130" lon="-71.3714970">
        <ele>1162.7</ele>
        <time>2020-11-15T15:10:17Z</time>
      </trkpt>
      <trkpt lat="-40.2296520" lon="-71.3714760">
        <ele>1162.7</ele>
        <time>2020-11-15T15:10:18Z</time>
      </trkpt>
      <trkpt lat="-40.2296920" lon="-71.3714580">
        <ele>1162.8</ele>
        <time>2020-11-15T15:10:19Z</time>
      </trkpt>
      <trkpt lat="-40.2297310" lon="-71.3714390">
        <ele>1162.8</ele>
        <time>2020-11-15T15:10:20Z</time>
      </trkpt>
      <trkpt lat="-40.2297690" lon="-71.3714150">
        <ele>1162.9</ele>
        <time>2020-11-15T15:10:21Z</time>
      </trkpt>
      <trkpt lat="-40.2298090" lon="-71.3713950">
        <ele>1162.9</ele>
        <time>2020-11-15T15:10:22Z</time>
      </trkpt>
      <trkpt lat="-40.2298480" lon="-71.3713740">
        <ele>1162.9</ele>
        <time>2020-11-15T15:10:23Z</time>
      </trkpt>
      <trkpt lat="-40.2298880" lon="-71.3713540">
        <ele>1162.9</ele>
        <time>2020-11-15T15:10:24Z</time>
      </trkpt>
      <trkpt lat="-40.2299280" lon="-71.3713300">
        <ele>1162.9</ele>
        <time>2020-11-15T15:10:25Z</time>
      </trkpt>
      <trkpt lat="-40.2299680" lon="-71.3713030">
        <ele>1163.0</ele>
        <time>2020-11-15T15:10:26Z</time>
      </trkpt>
      <trkpt lat="-40.2300100" lon="-71.3712780">
        <ele>1163.0</ele>
        <time>2020-11-15T15:10:27Z</time>
      </trkpt>
      <trkpt lat="-40.2300540" lon="-71.3712560">
        <ele>1163.0</ele>
        <time>2020-11-15T15:10:28Z</time>
      </trkpt>
      <trkpt lat="-40.2300960" lon="-71.3712360">
        <ele>1163.0</ele>
        <time>2020-11-15T15:10:29Z</time>
      </trkpt>
      <trkpt lat="-40.2301360" lon="-71.3712130">
        <ele>1163.0</ele>
        <time>2020-11-15T15:10:30Z</time>
      </trkpt>
      <trkpt lat="-40.2301770" lon="-71.3711890">
        <ele>1163.0</ele>
        <time>2020-11-15T15:10:31Z</time>
      </trkpt>
      <trkpt lat="-40.2302210" lon="-71.3711680">
        <ele>1163.0</ele>
        <time>2020-11-15T15:10:32Z</time>
      </trkpt>
      <trkpt lat="-40.2302650" lon="-71.3711480">
        <ele>1163.0</ele>
        <time>2020-11-15T15:10:33Z</time>
      </trkpt>
      <trkpt lat="-40.2303060" lon="-71.3711250">
        <ele>1163.0</ele>
        <time>2020-11-15T15:10:34Z</time>
      </trkpt>
      <trkpt lat="-40.2303490" lon="-71.3711010">
        <ele>1163.0</ele>
        <time>2020-11-15T15:10:35Z</time>
      </trkpt>
      <trkpt lat="-40.2303920" lon="-71.3710800">
        <ele>1162.9</ele>
        <time>2020-11-15T15:10:36Z</time>
      </trkpt>
      <trkpt lat="-40.2304360" lon="-71.3710590">
        <ele>1162.9</ele>
        <time>2020-11-15T15:10:37Z</time>
      </trkpt>
      <trkpt lat="-40.2304810" lon="-71.3710380">
        <ele>1162.8</ele>
        <time>2020-11-15T15:10:38Z</time>
      </trkpt>
      <trkpt lat="-40.2305270" lon="-71.3710170">
        <ele>1162.7</ele>
        <time>2020-11-15T15:10:39Z</time>
      </trkpt>
      <trkpt lat="-40.2305700" lon="-71.3709960">
        <ele>1162.7</ele>
        <time>2020-11-15T15:10:40Z</time>
      </trkpt>
      <trkpt lat="-40.2306110" lon="-71.3709730">
        <ele>1162.7</ele>
        <time>2020-11-15T15:10:41Z</time>
      </trkpt>
      <trkpt lat="-40.2306550" lon="-71.3709500">
        <ele>1162.7</ele>
        <time>2020-11-15T15:10:42Z</time>
      </trkpt>
      <trkpt lat="-40.2307010" lon="-71.3709300">
        <ele>1162.6</ele>
        <time>2020-11-15T15:10:43Z</time>
      </trkpt>
      <trkpt lat="-40.2307450" lon="-71.3709070">
        <ele>1162.6</ele>
        <time>2020-11-15T15:10:44Z</time>
      </trkpt>
      <trkpt lat="-40.2307920" lon="-71.3708800">
        <ele>1162.6</ele>
        <time>2020-11-15T15:10:45Z</time>
      </trkpt>
      <trkpt lat="-40.2308390" lon="-71.3708470">
        <ele>1162.5</ele>
        <time>2020-11-15T15:10:46Z</time>
      </trkpt>
      <trkpt lat="-40.2308890" lon="-71.3708200">
        <ele>1162.5</ele>
        <time>2020-11-15T15:10:47Z</time>
      </trkpt>
      <trkpt lat="-40.2309390" lon="-71.3707930">
        <ele>1162.5</ele>
        <time>2020-11-15T15:10:48Z</time>
      </trkpt>
      <trkpt lat="-40.2309890" lon="-71.3707650">
        <ele>1162.5</ele>
        <time>2020-11-15T15:10:49Z</time>
      </trkpt>
      <trkpt lat="-40.2310400" lon="-71.3707380">
        <ele>1162.4</ele>
        <time>2020-11-15T15:10:50Z</time>
      </trkpt>
      <trkpt lat="-40.2310910" lon="-71.3707100">
        <ele>1162.4</ele>
        <time>2020-11-15T15:10:51Z</time>
      </trkpt>
      <trkpt lat="-40.2311410" lon="-71.3706800">
        <ele>1162.4</ele>
        <time>2020-11-15T15:10:52Z</time>
      </trkpt>
      <trkpt lat="-40.2311900" lon="-71.3706540">
        <ele>1162.4</ele>
        <time>2020-11-15T15:10:53Z</time>
      </trkpt>
      <trkpt lat="-40.2312390" lon="-71.3706310">
        <ele>1162.4</ele>
        <time>2020-11-15T15:10:54Z</time>
      </trkpt>
      <trkpt lat="-40.2312880" lon="-71.3706080">
        <ele>1162.4</ele>
        <time>2020-11-15T15:10:55Z</time>
      </trkpt>
      <trkpt lat="-40.2313370" lon="-71.3705860">
        <ele>1162.4</ele>
        <time>2020-11-15T15:10:56Z</time>
      </trkpt>
      <trkpt lat="-40.2313850" lon="-71.3705600">
        <ele>1162.4</ele>
        <time>2020-11-15T15:10:57Z</time>
      </trkpt>
      <trkpt lat="-40.2314370" lon="-71.3705340">
        <ele>1162.3</ele>
        <time>2020-11-15T15:10:58Z</time>
      </trkpt>
      <trkpt lat="-40.2314890" lon="-71.3705090">
        <ele>1162.3</ele>
        <time>2020-11-15T15:10:59Z</time>
      </trkpt>
      <trkpt lat="-40.2315420" lon="-71.3704870">
        <ele>1162.3</ele>
        <time>2020-11-15T15:11:00Z</time>
      </trkpt>
      <trkpt lat="-40.2315960" lon="-71.3704660">
        <ele>1162.3</ele>
        <time>2020-11-15T15:11:01Z</time>
      </trkpt>
      <trkpt lat="-40.2316540" lon="-71.3704470">
        <ele>1162.3</ele>
        <time>2020-11-15T15:11:02Z</time>
      </trkpt>
      <trkpt lat="-40.2317090" lon="-71.3704250">
        <ele>1162.3</ele>
        <time>2020-11-15T15:11:03Z</time>
      </trkpt>
      <trkpt lat="-40.2317660" lon="-71.3704020">
        <ele>1162.3</ele>
        <time>2020-11-15T15:11:04Z</time>
      </trkpt>
      <trkpt lat="-40.2318250" lon="-71.3703790">
        <ele>1162.2</ele>
        <time>2020-11-15T15:11:05Z</time>
      </trkpt>
      <trkpt lat="-40.2318870" lon="-71.3703620">
        <ele>1162.2</ele>
        <time>2020-11-15T15:11:06Z</time>
      </trkpt>
      <trkpt lat="-40.2319500" lon="-71.3703480">
        <ele>1162.2</ele>
        <time>2020-11-15T15:11:07Z</time>
      </trkpt>
      <trkpt lat="-40.2320140" lon="-71.3703400">
        <ele>1162.1</ele>
        <time>2020-11-15T15:11:08Z</time>
      </trkpt>
      <trkpt lat="-40.2320770" lon="-71.3703320">
        <ele>1162.1</ele>
        <time>2020-11-15T15:11:09Z</time>
      </trkpt>
      <trkpt lat="-40.2321380" lon="-71.3703250">
        <ele>1162.1</ele>
        <time>2020-11-15T15:11:10Z</time>
      </trkpt>
      <trkpt lat="-40.2322010" lon="-71.3703230">
        <ele>1162.1</ele>
        <time>2020-11-15T15:11:11Z</time>
      </trkpt>
      <trkpt lat="-40.2322640" lon="-71.3703240">
        <ele>1162.0</ele>
        <time>2020-11-15T15:11:12Z</time>
      </trkpt>
      <trkpt lat="-40.2323260" lon="-71.3703220">
        <ele>1162.0</ele>
        <time>2020-11-15T15:11:13Z</time>
      </trkpt>
      <trkpt lat="-40.2323900" lon="-71.3703230">
        <ele>1162.0</ele>
        <time>2020-11-15T15:11:14Z</time>
      </trkpt>
      <trkpt lat="-40.2324540" lon="-71.3703260">
        <ele>1162.0</ele>
        <time>2020-11-15T15:11:15Z</time>
      </trkpt>
      <trkpt lat="-40.2325160" lon="-71.3703290">
        <ele>1162.0</ele>
        <time>2020-11-15T15:11:16Z</time>
      </trkpt>
      <trkpt lat="-40.2325780" lon="-71.3703370">
        <ele>1162.0</ele>
        <time>2020-11-15T15:11:17Z</time>
      </trkpt>
      <trkpt lat="-40.2326400" lon="-71.3703470">
        <ele>1161.9</ele>
        <time>2020-11-15T15:11:18Z</time>
      </trkpt>
      <trkpt lat="-40.2327020" lon="-71.3703600">
        <ele>1161.9</ele>
        <time>2020-11-15T15:11:19Z</time>
      </trkpt>
      <trkpt lat="-40.2327620" lon="-71.3703740">
        <ele>1161.9</ele>
        <time>2020-11-15T15:11:20Z</time>
      </trkpt>
      <trkpt lat="-40.2328230" lon="-71.3703910">
        <ele>1161.9</ele>
        <time>2020-11-15T15:11:21Z</time>
      </trkpt>
      <trkpt lat="-40.2328860" lon="-71.3704110">
        <ele>1162.0</ele>
        <time>2020-11-15T15:11:22Z</time>
      </trkpt>
      <trkpt lat="-40.2329500" lon="-71.3704350">
        <ele>1162.0</ele>
        <time>2020-11-15T15:11:23Z</time>
      </trkpt>
      <trkpt lat="-40.2330140" lon="-71.3704630">
        <ele>1162.0</ele>
        <time>2020-11-15T15:11:24Z</time>
      </trkpt>
      <trkpt lat="-40.2330810" lon="-71.3704960">
        <ele>1162.0</ele>
        <time>2020-11-15T15:11:25Z</time>
      </trkpt>
      <trkpt lat="-40.2331500" lon="-71.3705300">
        <ele>1162.0</ele>
        <time>2020-11-15T15:11:26Z</time>
      </trkpt>
      <trkpt lat="-40.2332180" lon="-71.3705660">
        <ele>1162.0</ele>
        <time>2020-11-15T15:11:27Z</time>
      </trkpt>
      <trkpt lat="-40.2332840" lon="-71.3706050">
        <ele>1162.0</ele>
        <time>2020-11-15T15:11:28Z</time>
      </trkpt>
      <trkpt lat="-40.2333490" lon="-71.3706460">
        <ele>1162.0</ele>
        <time>2020-11-15T15:11:29Z</time>
      </trkpt>
      <trkpt lat="-40.2334120" lon="-71.3706900">
        <ele>1162.0</ele>
        <time>2020-11-15T15:11:30Z</time>
      </trkpt>
      <trkpt lat="-40.2334750" lon="-71.3707370">
        <ele>1162.0</ele>
        <time>2020-11-15T15:11:31Z</time>
      </trkpt>
      <trkpt lat="-40.2335370" lon="-71.3707870">
        <ele>1162.0</ele>
        <time>2020-11-15T15:11:32Z</time>
      </trkpt>
      <trkpt lat="-40.2335970" lon="-71.3708350">
        <ele>1161.9</ele>
        <time>2020-11-15T15:11:33Z</time>
      </trkpt>
      <trkpt lat="-40.2336570" lon="-71.3708850">
        <ele>1161.9</ele>
        <time>2020-11-15T15:11:34Z</time>
      </trkpt>
      <trkpt lat="-40.2337190" lon="-71.3709370">
        <ele>1161.9</ele>
        <time>2020-11-15T15:11:35Z</time>
      </trkpt>
      <trkpt lat="-40.2337810" lon="-71.3709880">
        <ele>1161.9</ele>
        <time>2020-11-15T15:11:36Z</time>
      </trkpt>
      <trkpt lat="-40.2338430" lon="-71.3710390">
        <ele>1161.9</ele>
        <time>2020-11-15T15:11:37Z</time>
      </trkpt>
      <trkpt lat="-40.2339050" lon="-71.3710910">
        <ele>1161.8</ele>
        <time>2020-11-15T15:11:38Z</time>
      </trkpt>
      <trkpt lat="-40.2339670" lon="-71.3711450">
        <ele>1161.8</ele>
        <time>2020-11-15T15:11:39Z</time>
      </trkpt>
      <trkpt lat="-40.2340300" lon="-71.3711980">
        <ele>1161.8</ele>
        <time>2020-11-15T15:11:40Z</time>
      </trkpt>
      <trkpt lat="-40.2340940" lon="-71.3712500">
        <ele>1161.8</ele>
        <time>2020-11-15T15:11:41Z</time>
      </trkpt>
      <trkpt lat="-40.2341590" lon="-71.3713030">
        <ele>1161.8</ele>
        <time>2020-11-15T15:11:42Z</time>
      </trkpt>
      <trkpt lat="-40.2342230" lon="-71.3713590">
        <ele>1161.8</ele>
        <time>2020-11-15T15:11:43Z</time>
      </trkpt>
      <trkpt lat="-40.2342870" lon="-71.3714150">
        <ele>1161.8</ele>
        <time>2020-11-15T15:11:44Z</time>
      </trkpt>
      <trkpt lat="-40.2343510" lon="-71.3714680">
        <ele>1161.7</ele>
        <time>2020-11-15T15:11:45Z</time>
      </trkpt>
      <trkpt lat="-40.2344160" lon="-71.3715220">
        <ele>1161.7</ele>
        <time>2020-11-15T15:11:46Z</time>
      </trkpt>
      <trkpt lat="-40.2344800" lon="-71.3715770">
        <ele>1161.7</ele>
        <time>2020-11-15T15:11:47Z</time>
      </trkpt>
      <trkpt lat="-40.2345440" lon="-71.3716320">
        <ele>1161.7</ele>
        <time>2020-11-15T15:11:48Z</time>
      </trkpt>
      <trkpt lat="-40.2346080" lon="-71.3716860">
        <ele>1161.6</ele>
        <time>2020-11-15T15:11:49Z</time>
      </trkpt>
      <trkpt lat="-40.2346720" lon="-71.3717410">
        <ele>1161.6</ele>
        <time>2020-11-15T15:11:50Z</time>
      </trkpt>
      <trkpt lat="-40.2347370" lon="-71.3717950">
        <ele>1161.6</ele>
        <time>2020-11-15T15:11:51Z</time>
      </trkpt>
      <trkpt lat="-40.2348010" lon="-71.3718490">
        <ele>1161.7</ele>
        <time>2020-11-15T15:11:52Z</time>
      </trkpt>
      <trkpt lat="-40.2348650" lon="-71.3719030">
        <ele>1161.7</ele>
        <time>2020-11-15T15:11:53Z</time>
      </trkpt>
      <trkpt lat="-40.2349310" lon="-71.3719550">
        <ele>1161.7</ele>
        <time>2020-11-15T15:11:54Z</time>
      </trkpt>
      <trkpt lat="-40.2349960" lon="-71.3720120">
        <ele>1161.7</ele>
        <time>2020-11-15T15:11:55Z</time>
      </trkpt>
      <trkpt lat="-40.2350620" lon="-71.3720690">
        <ele>1161.7</ele>
        <time>2020-11-15T15:11:56Z</time>
      </trkpt>
      <trkpt lat="-40.2351290" lon="-71.3721240">
        <ele>1161.7</ele>
        <time>2020-11-15T15:11:57Z</time>
      </trkpt>
      <trkpt lat="-40.2351970" lon="-71.3721770">
        <ele>1161.7</ele>
        <time>2020-11-15T15:11:58Z</time>
      </trkpt>
      <trkpt lat="-40.2352660" lon="-71.3722290">
        <ele>1161.7</ele>
        <time>2020-11-15T15:11:59Z</time>
      </trkpt>
      <trkpt lat="-40.2353340" lon="-71.3722800">
        <ele>1161.7</ele>
        <time>2020-11-15T15:12:00Z</time>
      </trkpt>
      <trkpt lat="-40.2354020" lon="-71.3723300">
        <ele>1161.7</ele>
        <time>2020-11-15T15:12:01Z</time>
      </trkpt>
      <trkpt lat="-40.2354700" lon="-71.3723790">
        <ele>1161.7</ele>
        <time>2020-11-15T15:12:02Z</time>
      </trkpt>
      <trkpt lat="-40.2355410" lon="-71.3724290">
        <ele>1161.7</ele>
        <time>2020-11-15T15:12:03Z</time>
      </trkpt>
      <trkpt lat="-40.2356150" lon="-71.3724740">
        <ele>1161.7</ele>
        <time>2020-11-15T15:12:04Z</time>
      </trkpt>
      <trkpt lat="-40.2356920" lon="-71.3725150">
        <ele>1161.8</ele>
        <time>2020-11-15T15:12:05Z</time>
      </trkpt>
      <trkpt lat="-40.2357690" lon="-71.3725510">
        <ele>1161.8</ele>
        <time>2020-11-15T15:12:06Z</time>
      </trkpt>
      <trkpt lat="-40.2358470" lon="-71.3725860">
        <ele>1161.8</ele>
        <time>2020-11-15T15:12:07Z</time>
      </trkpt>
      <trkpt lat="-40.2359260" lon="-71.3726160">
        <ele>1161.7</ele>
        <time>2020-11-15T15:12:08Z</time>
      </trkpt>
      <trkpt lat="-40.2360050" lon="-71.3726410">
        <ele>1161.7</ele>
        <time>2020-11-15T15:12:09Z</time>
      </trkpt>
      <trkpt lat="-40.2360850" lon="-71.3726630">
        <ele>1161.7</ele>
        <time>2020-11-15T15:12:10Z</time>
      </trkpt>
      <trkpt lat="-40.2361660" lon="-71.3726810">
        <ele>1161.7</ele>
        <time>2020-11-15T15:12:11Z</time>
      </trkpt>
      <trkpt lat="-40.2362490" lon="-71.3726940">
        <ele>1161.6</ele>
        <time>2020-11-15T15:12:12Z</time>
      </trkpt>
      <trkpt lat="-40.2363330" lon="-71.3727040">
        <ele>1161.6</ele>
        <time>2020-11-15T15:12:13Z</time>
      </trkpt>
      <trkpt lat="-40.2364170" lon="-71.3727120">
        <ele>1161.5</ele>
        <time>2020-11-15T15:12:14Z</time>
      </trkpt>
      <trkpt lat="-40.2365020" lon="-71.3727170">
        <ele>1161.5</ele>
        <time>2020-11-15T15:12:15Z</time>
      </trkpt>
      <trkpt lat="-40.2365860" lon="-71.3727160">
        <ele>1161.4</ele>
        <time>2020-11-15T15:12:16Z</time>
      </trkpt>
      <trkpt lat="-40.2366720" lon="-71.3727120">
        <ele>1161.4</ele>
        <time>2020-11-15T15:12:17Z</time>
      </trkpt>
      <trkpt lat="-40.2367580" lon="-71.3727050">
        <ele>1161.4</ele>
        <time>2020-11-15T15:12:18Z</time>
      </trkpt>
      <trkpt lat="-40.2368420" lon="-71.3726960">
        <ele>1161.4</ele>
        <time>2020-11-15T15:12:19Z</time>
      </trkpt>
      <trkpt lat="-40.2369280" lon="-71.3726850">
        <ele>1161.4</ele>
        <time>2020-11-15T15:12:20Z</time>
      </trkpt>
      <trkpt lat="-40.2370120" lon="-71.3726740">
        <ele>1161.5</ele>
        <time>2020-11-15T15:12:21Z</time>
      </trkpt>
      <trkpt lat="-40.2370950" lon="-71.3726640">
        <ele>1161.6</ele>
        <time>2020-11-15T15:12:22Z</time>
      </trkpt>
      <trkpt lat="-40.2371780" lon="-71.3726530">
        <ele>1161.7</ele>
        <time>2020-11-15T15:12:23Z</time>
      </trkpt>
      <trkpt lat="-40.2372630" lon="-71.3726460">
        <ele>1161.9</ele>
        <time>2020-11-15T15:12:24Z</time>
      </trkpt>
      <trkpt lat="-40.2373480" lon="-71.3726370">
        <ele>1162.2</ele>
        <time>2020-11-15T15:12:25Z</time>
      </trkpt>
      <trkpt lat="-40.2374310" lon="-71.3726270">
        <ele>1162.5</ele>
        <time>2020-11-15T15:12:26Z</time>
      </trkpt>
      <trkpt lat="-40.2375120" lon="-71.3726190">
        <ele>1162.7</ele>
        <time>2020-11-15T15:12:27Z</time>
      </trkpt>
      <trkpt lat="-40.2375920" lon="-71.3726120">
        <ele>1163.0</ele>
        <time>2020-11-15T15:12:28Z</time>
      </trkpt>
      <trkpt lat="-40.2376680" lon="-71.3726030">
        <ele>1163.3</ele>
        <time>2020-11-15T15:12:29Z</time>
      </trkpt>
      <trkpt lat="-40.2377410" lon="-71.3725940">
        <ele>1163.5</ele>
        <time>2020-11-15T15:12:30Z</time>
      </trkpt>
      <trkpt lat="-40.2378130" lon="-71.3725880">
        <ele>1163.7</ele>
        <time>2020-11-15T15:12:31Z</time>
      </trkpt>
      <trkpt lat="-40.2378830" lon="-71.3725820">
        <ele>1164.0</ele>
        <time>2020-11-15T15:12:32Z</time>
      </trkpt>
      <trkpt lat="-40.2379490" lon="-71.3725740">
        <ele>1164.2</ele>
        <time>2020-11-15T15:12:33Z</time>
      </trkpt>
      <trkpt lat="-40.2380110" lon="-71.3725650">
        <ele>1164.4</ele>
        <time>2020-11-15T15:12:34Z</time>
      </trkpt>
      <trkpt lat="-40.2380740" lon="-71.3725570">
        <ele>1164.7</ele>
        <time>2020-11-15T15:12:35Z</time>
      </trkpt>
      <trkpt lat="-40.2381380" lon="-71.3725500">
        <ele>1164.9</ele>
        <time>2020-11-15T15:12:36Z</time>
      </trkpt>
      <trkpt lat="-40.2382010" lon="-71.3725400">
        <ele>1165.2</ele>
        <time>2020-11-15T15:12:37Z</time>
      </trkpt>
      <trkpt lat="-40.2382630" lon="-71.3725310">
        <ele>1165.4</ele>
        <time>2020-11-15T15:12:38Z</time>
      </trkpt>
      <trkpt lat="-40.2383250" lon="-71.3725220">
        <ele>1165.6</ele>
        <time>2020-11-15T15:12:39Z</time>
      </trkpt>
      <trkpt lat="-40.2383860" lon="-71.3725140">
        <ele>1165.8</ele>
        <time>2020-11-15T15:12:40Z</time>
      </trkpt>
      <trkpt lat="-40.2384440" lon="-71.3725040">
        <ele>1166.1</ele>
        <time>2020-11-15T15:12:41Z</time>
      </trkpt>
      <trkpt lat="-40.2385030" lon="-71.3724970">
        <ele>1166.3</ele>
        <time>2020-11-15T15:12:42Z</time>
      </trkpt>
      <trkpt lat="-40.2385580" lon="-71.3724860">
        <ele>1166.5</ele>
        <time>2020-11-15T15:12:43Z</time>
      </trkpt>
      <trkpt lat="-40.2386140" lon="-71.3724780">
        <ele>1166.7</ele>
        <time>2020-11-15T15:12:44Z</time>
      </trkpt>
      <trkpt lat="-40.2386710" lon="-71.3724710">
        <ele>1166.9</ele>
        <time>2020-11-15T15:12:45Z</time>
      </trkpt>
      <trkpt lat="-40.2387290" lon="-71.3724640">
        <ele>1167.0</ele>
        <time>2020-11-15T15:12:46Z</time>
      </trkpt>
      <trkpt lat="-40.2387860" lon="-71.3724590">
        <ele>1167.2</ele>
        <time>2020-11-15T15:12:47Z</time>
      </trkpt>
      <trkpt lat="-40.2388410" lon="-71.3724550">
        <ele>1167.3</ele>
        <time>2020-11-15T15:12:48Z</time>
      </trkpt>
      <trkpt lat="-40.2388980" lon="-71.3724500">
        <ele>1167.4</ele>
        <time>2020-11-15T15:12:49Z</time>
      </trkpt>
      <trkpt lat="-40.2389550" lon="-71.3724440">
        <ele>1167.5</ele>
        <time>2020-11-15T15:12:50Z</time>
      </trkpt>
      <trkpt lat="-40.2390110" lon="-71.3724370">
        <ele>1167.5</ele>
        <time>2020-11-15T15:12:51Z</time>
      </trkpt>
      <trkpt lat="-40.2390680" lon="-71.3724310">
        <ele>1167.6</ele>
        <time>2020-11-15T15:12:52Z</time>
      </trkpt>
      <trkpt lat="-40.2391250" lon="-71.3724240">
        <ele>1167.6</ele>
        <time>2020-11-15T15:12:53Z</time>
      </trkpt>
      <trkpt lat="-40.2391830" lon="-71.3724180">
        <ele>1167.6</ele>
        <time>2020-11-15T15:12:54Z</time>
      </trkpt>
      <trkpt lat="-40.2392410" lon="-71.3724090">
        <ele>1167.7</ele>
        <time>2020-11-15T15:12:55Z</time>
      </trkpt>
      <trkpt lat="-40.2392980" lon="-71.3724030">
        <ele>1167.7</ele>
        <time>2020-11-15T15:12:56Z</time>
      </trkpt>
      <trkpt lat="-40.2393560" lon="-71.3723960">
        <ele>1167.7</ele>
        <time>2020-11-15T15:12:57Z</time>
      </trkpt>
      <trkpt lat="-40.2394130" lon="-71.3723890">
        <ele>1167.7</ele>
        <time>2020-11-15T15:12:58Z</time>
      </trkpt>
      <trkpt lat="-40.2394700" lon="-71.3723830">
        <ele>1167.7</ele>
        <time>2020-11-15T15:12:59Z</time>
      </trkpt>
      <trkpt lat="-40.2395280" lon="-71.3723770">
        <ele>1167.7</ele>
        <time>2020-11-15T15:13:00Z</time>
      </trkpt>
      <trkpt lat="-40.2395880" lon="-71.3723700">
        <ele>1167.7</ele>
        <time>2020-11-15T15:13:01Z</time>
      </trkpt>
      <trkpt lat="-40.2396450" lon="-71.3723620">
        <ele>1167.8</ele>
        <time>2020-11-15T15:13:02Z</time>
      </trkpt>
      <trkpt lat="-40.2397000" lon="-71.3723540">
        <ele>1167.8</ele>
        <time>2020-11-15T15:13:03Z</time>
      </trkpt>
      <trkpt lat="-40.2397550" lon="-71.3723470">
        <ele>1167.8</ele>
        <time>2020-11-15T15:13:04Z</time>
      </trkpt>
      <trkpt lat="-40.2398080" lon="-71.3723380">
        <ele>1167.8</ele>
        <time>2020-11-15T15:13:05Z</time>
      </trkpt>
      <trkpt lat="-40.2398590" lon="-71.3723290">
        <ele>1167.9</ele>
        <time>2020-11-15T15:13:06Z</time>
      </trkpt>
      <trkpt lat="-40.2399080" lon="-71.3723200">
        <ele>1167.9</ele>
        <time>2020-11-15T15:13:07Z</time>
      </trkpt>
      <trkpt lat="-40.2399530" lon="-71.3723120">
        <ele>1168.0</ele>
        <time>2020-11-15T15:13:08Z</time>
      </trkpt>
      <trkpt lat="-40.2399970" lon="-71.3723090">
        <ele>1168.0</ele>
        <time>2020-11-15T15:13:09Z</time>
      </trkpt>
      <trkpt lat="-40.2400390" lon="-71.3723100">
        <ele>1168.1</ele>
        <time>2020-11-15T15:13:10Z</time>
      </trkpt>
      <trkpt lat="-40.2400790" lon="-71.3723100">
        <ele>1168.2</ele>
        <time>2020-11-15T15:13:11Z</time>
      </trkpt>
      <trkpt lat="-40.2401180" lon="-71.3723080">
        <ele>1168.3</ele>
        <time>2020-11-15T15:13:12Z</time>
      </trkpt>
      <trkpt lat="-40.2401540" lon="-71.3723050">
        <ele>1168.4</ele>
        <time>2020-11-15T15:13:13Z</time>
      </trkpt>
      <trkpt lat="-40.2401880" lon="-71.3723020">
        <ele>1168.6</ele>
        <time>2020-11-15T15:13:14Z</time>
      </trkpt>
      <trkpt lat="-40.2402260" lon="-71.3723020">
        <ele>1168.7</ele>
        <time>2020-11-15T15:13:15Z</time>
      </trkpt>
      <trkpt lat="-40.2402580" lon="-71.3722980">
        <ele>1168.9</ele>
        <time>2020-11-15T15:13:16Z</time>
      </trkpt>
      <trkpt lat="-40.2402930" lon="-71.3722940">
        <ele>1169.0</ele>
        <time>2020-11-15T15:13:17Z</time>
      </trkpt>
      <trkpt lat="-40.2403290" lon="-71.3722920">
        <ele>1169.2</ele>
        <time>2020-11-15T15:13:18Z</time>
      </trkpt>
      <trkpt lat="-40.2403590" lon="-71.3722910">
        <ele>1169.3</ele>
        <time>2020-11-15T15:13:19Z</time>
      </trkpt>
      <trkpt lat="-40.2403870" lon="-71.3722880">
        <ele>1169.5</ele>
        <time>2020-11-15T15:13:20Z</time>
      </trkpt>
      <trkpt lat="-40.2404180" lon="-71.3722850">
        <ele>1169.6</ele>
        <time>2020-11-15T15:13:21Z</time>
      </trkpt>
      <trkpt lat="-40.2404480" lon="-71.3722820">
        <ele>1169.8</ele>
        <time>2020-11-15T15:13:22Z</time>
      </trkpt>
      <trkpt lat="-40.2404780" lon="-71.3722790">
        <ele>1169.9</ele>
        <time>2020-11-15T15:13:23Z</time>
      </trkpt>
      <trkpt lat="-40.2405060" lon="-71.3722780">
        <ele>1170.1</ele>
        <time>2020-11-15T15:13:24Z</time>
      </trkpt>
      <trkpt lat="-40.2405300" lon="-71.3722750">
        <ele>1170.2</ele>
        <time>2020-11-15T15:13:25Z</time>
      </trkpt>
      <trkpt lat="-40.2405560" lon="-71.3722710">
        <ele>1170.3</ele>
        <time>2020-11-15T15:13:26Z</time>
      </trkpt>
      <trkpt lat="-40.2405850" lon="-71.3722670">
        <ele>1170.5</ele>
        <time>2020-11-15T15:13:27Z</time>
      </trkpt>
      <trkpt lat="-40.2406140" lon="-71.3722640">
        <ele>1170.6</ele>
        <time>2020-11-15T15:13:28Z</time>
      </trkpt>
      <trkpt lat="-40.2406360" lon="-71.3722600">
        <ele>1170.7</ele>
        <time>2020-11-15T15:13:29Z</time>
      </trkpt>
      <trkpt lat="-40.2406630" lon="-71.3722580">
        <ele>1170.8</ele>
        <time>2020-11-15T15:13:30Z</time>
      </trkpt>
      <trkpt lat="-40.2406900" lon="-71.3722550">
        <ele>1171.0</ele>
        <time>2020-11-15T15:13:31Z</time>
      </trkpt>
      <trkpt lat="-40.2407160" lon="-71.3722500">
        <ele>1171.1</ele>
        <time>2020-11-15T15:13:32Z</time>
      </trkpt>
      <trkpt lat="-40.2407440" lon="-71.3722490">
        <ele>1171.3</ele>
        <time>2020-11-15T15:13:33Z</time>
      </trkpt>
      <trkpt lat="-40.2407750" lon="-71.3722490">
        <ele>1171.4</ele>
        <time>2020-11-15T15:13:34Z</time>
      </trkpt>
      <trkpt lat="-40.2408060" lon="-71.3722490">
        <ele>1171.6</ele>
        <time>2020-11-15T15:13:35Z</time>
      </trkpt>
      <trkpt lat="-40.2408350" lon="-71.3722490">
        <ele>1171.8</ele>
        <time>2020-11-15T15:13:36Z</time>
      </trkpt>
      <trkpt lat="-40.2408690" lon="-71.3722510">
        <ele>1172.0</ele>
        <time>2020-11-15T15:13:37Z</time>
      </trkpt>
      <trkpt lat="-40.2409020" lon="-71.3722510">
        <ele>1172.2</ele>
        <time>2020-11-15T15:13:38Z</time>
      </trkpt>
      <trkpt lat="-40.2409350" lon="-71.3722510">
        <ele>1172.3</ele>
        <time>2020-11-15T15:13:39Z</time>
      </trkpt>
      <trkpt lat="-40.2409730" lon="-71.3722510">
        <ele>1172.5</ele>
        <time>2020-11-15T15:13:40Z</time>
      </trkpt>
      <trkpt lat="-40.2410040" lon="-71.3722510">
        <ele>1172.7</ele>
        <time>2020-11-15T15:13:41Z</time>
      </trkpt>
      <trkpt lat="-40.2410380" lon="-71.3722540">
        <ele>1172.8</ele>
        <time>2020-11-15T15:13:42Z</time>
      </trkpt>
      <trkpt lat="-40.2410710" lon="-71.3722560">
        <ele>1173.0</ele>
        <time>2020-11-15T15:13:43Z</time>
      </trkpt>
      <trkpt lat="-40.2411050" lon="-71.3722630">
        <ele>1173.1</ele>
        <time>2020-11-15T15:13:44Z</time>
      </trkpt>
      <trkpt lat="-40.2411390" lon="-71.3722710">
        <ele>1173.3</ele>
        <time>2020-11-15T15:13:45Z</time>
      </trkpt>
      <trkpt lat="-40.2411770" lon="-71.3722790">
        <ele>1173.5</ele>
        <time>2020-11-15T15:13:46Z</time>
      </trkpt>
      <trkpt lat="-40.2412150" lon="-71.3722850">
        <ele>1173.6</ele>
        <time>2020-11-15T15:13:47Z</time>
      </trkpt>
      <trkpt lat="-40.2412550" lon="-71.3722910">
        <ele>1173.8</ele>
        <time>2020-11-15T15:13:48Z</time>
      </trkpt>
      <trkpt lat="-40.2412930" lon="-71.3722980">
        <ele>1173.9</ele>
        <time>2020-11-15T15:13:49Z</time>
      </trkpt>
      <trkpt lat="-40.2413300" lon="-71.3723060">
        <ele>1174.1</ele>
        <time>2020-11-15T15:13:50Z</time>
      </trkpt>
      <trkpt lat="-40.2413670" lon="-71.3723140">
        <ele>1174.2</ele>
        <time>2020-11-15T15:13:51Z</time>
      </trkpt>
      <trkpt lat="-40.2414040" lon="-71.3723220">
        <ele>1174.3</ele>
        <time>2020-11-15T15:13:52Z</time>
      </trkpt>
      <trkpt lat="-40.2414410" lon="-71.3723320">
        <ele>1174.4</ele>
        <time>2020-11-15T15:13:53Z</time>
      </trkpt>
      <trkpt lat="-40.2414790" lon="-71.3723420">
        <ele>1174.6</ele>
        <time>2020-11-15T15:13:54Z</time>
      </trkpt>
      <trkpt lat="-40.2415180" lon="-71.3723540">
        <ele>1174.7</ele>
        <time>2020-11-15T15:13:55Z</time>
      </trkpt>
      <trkpt lat="-40.2415610" lon="-71.3723670">
        <ele>1174.8</ele>
        <time>2020-11-15T15:13:56Z</time>
      </trkpt>
      <trkpt lat="-40.2416000" lon="-71.3723790">
        <ele>1174.8</ele>
        <time>2020-11-15T15:13:57Z</time>
      </trkpt>
      <trkpt lat="-40.2416380" lon="-71.3723910">
        <ele>1174.9</ele>
        <time>2020-11-15T15:13:58Z</time>
      </trkpt>
      <trkpt lat="-40.2416790" lon="-71.3724040">
        <ele>1174.9</ele>
        <time>2020-11-15T15:13:59Z</time>
      </trkpt>
      <trkpt lat="-40.2417210" lon="-71.3724170">
        <ele>1175.0</ele>
        <time>2020-11-15T15:14:00Z</time>
      </trkpt>
      <trkpt lat="-40.2417650" lon="-71.3724280">
        <ele>1175.0</ele>
        <time>2020-11-15T15:14:01Z</time>
      </trkpt>
      <trkpt lat="-40.2418090" lon="-71.3724410">
        <ele>1175.0</ele>
        <time>2020-11-15T15:14:02Z</time>
      </trkpt>
      <trkpt lat="-40.2418510" lon="-71.3724530">
        <ele>1175.0</ele>
        <time>2020-11-15T15:14:03Z</time>
      </trkpt>
      <trkpt lat="-40.2418940" lon="-71.3724630">
        <ele>1175.0</ele>
        <time>2020-11-15T15:14:04Z</time>
      </trkpt>
      <trkpt lat="-40.2419360" lon="-71.3724720">
        <ele>1175.0</ele>
        <time>2020-11-15T15:14:05Z</time>
      </trkpt>
      <trkpt lat="-40.2419770" lon="-71.3724830">
        <ele>1175.0</ele>
        <time>2020-11-15T15:14:06Z</time>
      </trkpt>
      <trkpt lat="-40.2420170" lon="-71.3724950">
        <ele>1175.1</ele>
        <time>2020-11-15T15:14:07Z</time>
      </trkpt>
      <trkpt lat="-40.2420540" lon="-71.3725070">
        <ele>1175.1</ele>
        <time>2020-11-15T15:14:08Z</time>
      </trkpt>
      <trkpt lat="-40.2420880" lon="-71.3725190">
        <ele>1175.1</ele>
        <time>2020-11-15T15:14:09Z</time>
      </trkpt>
      <trkpt lat="-40.2421190" lon="-71.3725320">
        <ele>1175.1</ele>
        <time>2020-11-15T15:14:10Z</time>
      </trkpt>
      <trkpt lat="-40.2421520" lon="-71.3725460">
        <ele>1175.1</ele>
        <time>2020-11-15T15:14:11Z</time>
      </trkpt>
      <trkpt lat="-40.2421830" lon="-71.3725600">
        <ele>1175.2</ele>
        <time>2020-11-15T15:14:12Z</time>
      </trkpt>
      <trkpt lat="-40.2422160" lon="-71.3725720">
        <ele>1175.2</ele>
        <time>2020-11-15T15:14:13Z</time>
      </trkpt>
      <trkpt lat="-40.2422500" lon="-71.3725850">
        <ele>1175.2</ele>
        <time>2020-11-15T15:14:14Z</time>
      </trkpt>
      <trkpt lat="-40.2422830" lon="-71.3725990">
        <ele>1175.2</ele>
        <time>2020-11-15T15:14:15Z</time>
      </trkpt>
      <trkpt lat="-40.2423160" lon="-71.3726120">
        <ele>1175.2</ele>
        <time>2020-11-15T15:14:16Z</time>
      </trkpt>
      <trkpt lat="-40.2423520" lon="-71.3726250">
        <ele>1175.2</ele>
        <time>2020-11-15T15:14:17Z</time>
      </trkpt>
      <trkpt lat="-40.2423880" lon="-71.3726390">
        <ele>1175.1</ele>
        <time>2020-11-15T15:14:18Z</time>
      </trkpt>
      <trkpt lat="-40.2424220" lon="-71.3726550">
        <ele>1175.1</ele>
        <time>2020-11-15T15:14:19Z</time>
      </trkpt>
      <trkpt lat="-40.2424540" lon="-71.3726720">
        <ele>1175.1</ele>
        <time>2020-11-15T15:14:20Z</time>
      </trkpt>
      <trkpt lat="-40.2424900" lon="-71.3726890">
        <ele>1175.1</ele>
        <time>2020-11-15T15:14:21Z</time>
      </trkpt>
      <trkpt lat="-40.2425270" lon="-71.3727070">
        <ele>1175.0</ele>
        <time>2020-11-15T15:14:22Z</time>
      </trkpt>
      <trkpt lat="-40.2425620" lon="-71.3727280">
        <ele>1175.0</ele>
        <time>2020-11-15T15:14:23Z</time>
      </trkpt>
      <trkpt lat="-40.2426040" lon="-71.3727490">
        <ele>1174.9</ele>
        <time>2020-11-15T15:14:24Z</time>
      </trkpt>
      <trkpt lat="-40.2426420" lon="-71.3727680">
        <ele>1174.9</ele>
        <time>2020-11-15T15:14:25Z</time>
      </trkpt>
      <trkpt lat="-40.2426790" lon="-71.3727890">
        <ele>1174.8</ele>
        <time>2020-11-15T15:14:26Z</time>
      </trkpt>
      <trkpt lat="-40.2427220" lon="-71.3728080">
        <ele>1174.7</ele>
        <time>2020-11-15T15:14:27Z</time>
      </trkpt>
      <trkpt lat="-40.2427700" lon="-71.3728300">
        <ele>1174.6</ele>
        <time>2020-11-15T15:14:28Z</time>
      </trkpt>
      <trkpt lat="-40.2428200" lon="-71.3728530">
        <ele>1174.5</ele>
        <time>2020-11-15T15:14:29Z</time>
      </trkpt>
      <trkpt lat="-40.2428700" lon="-71.3728780">
        <ele>1174.3</ele>
        <time>2020-11-15T15:14:30Z</time>
      </trkpt>
      <trkpt lat="-40.2429230" lon="-71.3729050">
        <ele>1174.1</ele>
        <time>2020-11-15T15:14:31Z</time>
      </trkpt>
      <trkpt lat="-40.2429800" lon="-71.3729360">
        <ele>1173.9</ele>
        <time>2020-11-15T15:14:32Z</time>
      </trkpt>
      <trkpt lat="-40.2430390" lon="-71.3729700">
        <ele>1173.6</ele>
        <time>2020-11-15T15:14:33Z</time>
      </trkpt>
      <trkpt lat="-40.2431000" lon="-71.3730110">
        <ele>1173.4</ele>
        <time>2020-11-15T15:14:34Z</time>
      </trkpt>
      <trkpt lat="-40.2431660" lon="-71.3730570">
        <ele>1173.0</ele>
        <time>2020-11-15T15:14:35Z</time>
      </trkpt>
      <trkpt lat="-40.2432350" lon="-71.3731060">
        <ele>1172.7</ele>
        <time>2020-11-15T15:14:36Z</time>
      </trkpt>
      <trkpt lat="-40.2433050" lon="-71.3731580">
        <ele>1172.3</ele>
        <time>2020-11-15T15:14:37Z</time>
      </trkpt>
      <trkpt lat="-40.2433760" lon="-71.3732140">
        <ele>1171.9</ele>
        <time>2020-11-15T15:14:38Z</time>
      </trkpt>
      <trkpt lat="-40.2434460" lon="-71.3732750">
        <ele>1171.4</ele>
        <time>2020-11-15T15:14:39Z</time>
      </trkpt>
      <trkpt lat="-40.2435170" lon="-71.3733370">
        <ele>1171.0</ele>
        <time>2020-11-15T15:14:40Z</time>
      </trkpt>
      <trkpt lat="-40.2435880" lon="-71.3733990">
        <ele>1170.5</ele>
        <time>2020-11-15T15:14:41Z</time>
      </trkpt>
      <trkpt lat="-40.2436570" lon="-71.3734660">
        <ele>1170.1</ele>
        <time>2020-11-15T15:14:42Z</time>
      </trkpt>
      <trkpt lat="-40.2437270" lon="-71.3735390">
        <ele>1169.6</ele>
        <time>2020-11-15T15:14:43Z</time>
      </trkpt>
      <trkpt lat="-40.2437960" lon="-71.3736150">
        <ele>1169.1</ele>
        <time>2020-11-15T15:14:44Z</time>
      </trkpt>
      <trkpt lat="-40.2438690" lon="-71.3736920">
        <ele>1168.6</ele>
        <time>2020-11-15T15:14:45Z</time>
      </trkpt>
      <trkpt lat="-40.2439420" lon="-71.3737700">
        <ele>1168.1</ele>
        <time>2020-11-15T15:14:46Z</time>
      </trkpt>
      <trkpt lat="-40.2440170" lon="-71.3738530">
        <ele>1167.5</ele>
        <time>2020-11-15T15:14:47Z</time>
      </trkpt>
      <trkpt lat="-40.2440950" lon="-71.3739390">
        <ele>1167.0</ele>
        <time>2020-11-15T15:14:48Z</time>
      </trkpt>
      <trkpt lat="-40.2441750" lon="-71.3740290">
        <ele>1166.4</ele>
        <time>2020-11-15T15:14:49Z</time>
      </trkpt>
      <trkpt lat="-40.2442540" lon="-71.3741210">
        <ele>1165.8</ele>
        <time>2020-11-15T15:14:50Z</time>
      </trkpt>
      <trkpt lat="-40.2443360" lon="-71.3742130">
        <ele>1165.1</ele>
        <time>2020-11-15T15:14:51Z</time>
      </trkpt>
      <trkpt lat="-40.2444200" lon="-71.3743030">
        <ele>1164.5</ele>
        <time>2020-11-15T15:14:52Z</time>
      </trkpt>
      <trkpt lat="-40.2445070" lon="-71.3743930">
        <ele>1163.8</ele>
        <time>2020-11-15T15:14:53Z</time>
      </trkpt>
      <trkpt lat="-40.2445960" lon="-71.3744770">
        <ele>1163.1</ele>
        <time>2020-11-15T15:14:54Z</time>
      </trkpt>
      <trkpt lat="-40.2446900" lon="-71.3745590">
        <ele>1162.5</ele>
        <time>2020-11-15T15:14:55Z</time>
      </trkpt>
      <trkpt lat="-40.2447850" lon="-71.3746390">
        <ele>1161.8</ele>
        <time>2020-11-15T15:14:56Z</time>
      </trkpt>
      <trkpt lat="-40.2448820" lon="-71.3747180">
        <ele>1161.2</ele>
        <time>2020-11-15T15:14:57Z</time>
      </trkpt>
      <trkpt lat="-40.2449790" lon="-71.3747940">
        <ele>1160.5</ele>
        <time>2020-11-15T15:14:58Z</time>
      </trkpt>
      <trkpt lat="-40.2450800" lon="-71.3748650">
        <ele>1159.8</ele>
        <time>2020-11-15T15:14:59Z</time>
      </trkpt>
      <trkpt lat="-40.2451830" lon="-71.3749330">
        <ele>1159.1</ele>
        <time>2020-11-15T15:15:00Z</time>
      </trkpt>
      <trkpt lat="-40.2452860" lon="-71.3750020">
        <ele>1158.5</ele>
        <time>2020-11-15T15:15:01Z</time>
      </trkpt>
      <trkpt lat="-40.2453890" lon="-71.3750670">
        <ele>1157.8</ele>
        <time>2020-11-15T15:15:02Z</time>
      </trkpt>
      <trkpt lat="-40.2454930" lon="-71.3751320">
        <ele>1157.1</ele>
        <time>2020-11-15T15:15:03Z</time>
      </trkpt>
      <trkpt lat="-40.2455970" lon="-71.3751940">
        <ele>1156.5</ele>
        <time>2020-11-15T15:15:04Z</time>
      </trkpt>
      <trkpt lat="-40.2457000" lon="-71.3752580">
        <ele>1156.0</ele>
        <time>2020-11-15T15:15:05Z</time>
      </trkpt>
      <trkpt lat="-40.2458010" lon="-71.3753200">
        <ele>1155.5</ele>
        <time>2020-11-15T15:15:06Z</time>
      </trkpt>
      <trkpt lat="-40.2459010" lon="-71.3753840">
        <ele>1155.2</ele>
        <time>2020-11-15T15:15:07Z</time>
      </trkpt>
      <trkpt lat="-40.2459960" lon="-71.3754500">
        <ele>1154.8</ele>
        <time>2020-11-15T15:15:08Z</time>
      </trkpt>
      <trkpt lat="-40.2460920" lon="-71.3755160">
        <ele>1154.5</ele>
        <time>2020-11-15T15:15:09Z</time>
      </trkpt>
      <trkpt lat="-40.2461920" lon="-71.3755770">
        <ele>1154.2</ele>
        <time>2020-11-15T15:15:10Z</time>
      </trkpt>
      <trkpt lat="-40.2462850" lon="-71.3756420">
        <ele>1153.9</ele>
        <time>2020-11-15T15:15:11Z</time>
      </trkpt>
      <trkpt lat="-40.2463760" lon="-71.3757030">
        <ele>1153.7</ele>
        <time>2020-11-15T15:15:12Z</time>
      </trkpt>
      <trkpt lat="-40.2464680" lon="-71.3757610">
        <ele>1153.5</ele>
        <time>2020-11-15T15:15:13Z</time>
      </trkpt>
      <trkpt lat="-40.2465580" lon="-71.3758190">
        <ele>1153.3</ele>
        <time>2020-11-15T15:15:14Z</time>
      </trkpt>
      <trkpt lat="-40.2466490" lon="-71.3758760">
        <ele>1153.0</ele>
        <time>2020-11-15T15:15:15Z</time>
      </trkpt>
      <trkpt lat="-40.2467410" lon="-71.3759350">
        <ele>1152.8</ele>
        <time>2020-11-15T15:15:16Z</time>
      </trkpt>
      <trkpt lat="-40.2468350" lon="-71.3759950">
        <ele>1152.6</ele>
        <time>2020-11-15T15:15:17Z</time>
      </trkpt>
      <trkpt lat="-40.2469280" lon="-71.3760550">
        <ele>1152.3</ele>
        <time>2020-11-15T15:15:18Z</time>
      </trkpt>
      <trkpt lat="-40.2470190" lon="-71.3761160">
        <ele>1152.1</ele>
        <time>2020-11-15T15:15:19Z</time>
      </trkpt>
      <trkpt lat="-40.2471090" lon="-71.3761750">
        <ele>1151.9</ele>
        <time>2020-11-15T15:15:20Z</time>
      </trkpt>
      <trkpt lat="-40.2472000" lon="-71.3762340">
        <ele>1151.7</ele>
        <time>2020-11-15T15:15:21Z</time>
      </trkpt>
      <trkpt lat="-40.2472910" lon="-71.3762930">
        <ele>1151.5</ele>
        <time>2020-11-15T15:15:22Z</time>
      </trkpt>
      <trkpt lat="-40.2473830" lon="-71.3763500">
        <ele>1151.3</ele>
        <time>2020-11-15T15:15:23Z</time>
      </trkpt>
      <trkpt lat="-40.2474780" lon="-71.3764080">
        <ele>1151.1</ele>
        <time>2020-11-15T15:15:24Z</time>
      </trkpt>
      <trkpt lat="-40.2475740" lon="-71.3764650">
        <ele>1150.9</ele>
        <time>2020-11-15T15:15:25Z</time>
      </trkpt>
      <trkpt lat="-40.2476690" lon="-71.3765250">
        <ele>1150.8</ele>
        <time>2020-11-15T15:15:26Z</time>
      </trkpt>
      <trkpt lat="-40.2477620" lon="-71.3765860">
        <ele>1150.8</ele>
        <time>2020-11-15T15:15:27Z</time>
      </trkpt>
      <trkpt lat="-40.2478550" lon="-71.3766450">
        <ele>1150.9</ele>
        <time>2020-11-15T15:15:28Z</time>
      </trkpt>
      <trkpt lat="-40.2479460" lon="-71.3767060">
        <ele>1151.0</ele>
        <time>2020-11-15T15:15:29Z</time>
      </trkpt>
      <trkpt lat="-40.2480360" lon="-71.3767660">
        <ele>1151.3</ele>
        <time>2020-11-15T15:15:30Z</time>
      </trkpt>
      <trkpt lat="-40.2481270" lon="-71.3768260">
        <ele>1151.5</ele>
        <time>2020-11-15T15:15:31Z</time>
      </trkpt>
      <trkpt lat="-40.2482160" lon="-71.3768870">
        <ele>1151.9</ele>
        <time>2020-11-15T15:15:32Z</time>
      </trkpt>
      <trkpt lat="-40.2483040" lon="-71.3769480">
        <ele>1152.3</ele>
        <time>2020-11-15T15:15:33Z</time>
      </trkpt>
      <trkpt lat="-40.2483910" lon="-71.3770020">
        <ele>1152.7</ele>
        <time>2020-11-15T15:15:34Z</time>
      </trkpt>
      <trkpt lat="-40.2484770" lon="-71.3770570">
        <ele>1153.1</ele>
        <time>2020-11-15T15:15:35Z</time>
      </trkpt>
      <trkpt lat="-40.2485610" lon="-71.3771130">
        <ele>1153.6</ele>
        <time>2020-11-15T15:15:36Z</time>
      </trkpt>
      <trkpt lat="-40.2486440" lon="-71.3771710">
        <ele>1154.0</ele>
        <time>2020-11-15T15:15:37Z</time>
      </trkpt>
      <trkpt lat="-40.2487230" lon="-71.3772270">
        <ele>1154.5</ele>
        <time>2020-11-15T15:15:38Z</time>
      </trkpt>
      <trkpt lat="-40.2488030" lon="-71.3772800">
        <ele>1154.9</ele>
        <time>2020-11-15T15:15:39Z</time>
      </trkpt>
      <trkpt lat="-40.2488810" lon="-71.3773320">
        <ele>1155.3</ele>
        <time>2020-11-15T15:15:40Z</time>
      </trkpt>
      <trkpt lat="-40.2489590" lon="-71.3773810">
        <ele>1155.6</ele>
        <time>2020-11-15T15:15:41Z</time>
      </trkpt>
      <trkpt lat="-40.2490350" lon="-71.3774290">
        <ele>1155.8</ele>
        <time>2020-11-15T15:15:42Z</time>
      </trkpt>
      <trkpt lat="-40.2491080" lon="-71.3774740">
        <ele>1155.9</ele>
        <time>2020-11-15T15:15:43Z</time>
      </trkpt>
      <trkpt lat="-40.2491810" lon="-71.3775200">
        <ele>1156.0</ele>
        <time>2020-11-15T15:15:44Z</time>
      </trkpt>
      <trkpt lat="-40.2492550" lon="-71.3775680">
        <ele>1156.0</ele>
        <time>2020-11-15T15:15:45Z</time>
      </trkpt>
      <trkpt lat="-40.2493280" lon="-71.3776120">
        <ele>1156.0</ele>
        <time>2020-11-15T15:15:46Z</time>
      </trkpt>
      <trkpt lat="-40.2494010" lon="-71.3776580">
        <ele>1156.0</ele>
        <time>2020-11-15T15:15:47Z</time>
      </trkpt>
      <trkpt lat="-40.2494710" lon="-71.3777020">
        <ele>1155.9</ele>
        <time>2020-11-15T15:15:48Z</time>
      </trkpt>
      <trkpt lat="-40.2495400" lon="-71.3777470">
        <ele>1155.7</ele>
        <time>2020-11-15T15:15:49Z</time>
      </trkpt>
      <trkpt lat="-40.2496090" lon="-71.3777900">
        <ele>1155.5</ele>
        <time>2020-11-15T15:15:50Z</time>
      </trkpt>
      <trkpt lat="-40.2496780" lon="-71.3778350">
        <ele>1155.2</ele>
        <time>2020-11-15T15:15:51Z</time>
      </trkpt>
      <trkpt lat="-40.2497500" lon="-71.3778800">
        <ele>1154.9</ele>
        <time>2020-11-15T15:15:52Z</time>
      </trkpt>
      <trkpt lat="-40.2498220" lon="-71.3779290">
        <ele>1154.5</ele>
        <time>2020-11-15T15:15:53Z</time>
      </trkpt>
      <trkpt lat="-40.2498970" lon="-71.3779760">
        <ele>1154.0</ele>
        <time>2020-11-15T15:15:54Z</time>
      </trkpt>
      <trkpt lat="-40.2499780" lon="-71.3780250">
        <ele>1153.5</ele>
        <time>2020-11-15T15:15:55Z</time>
      </trkpt>
      <trkpt lat="-40.2500630" lon="-71.3780750">
        <ele>1153.0</ele>
        <time>2020-11-15T15:15:56Z</time>
      </trkpt>
      <trkpt lat="-40.2501500" lon="-71.3781290">
        <ele>1152.4</ele>
        <time>2020-11-15T15:15:57Z</time>
      </trkpt>
      <trkpt lat="-40.2502380" lon="-71.3781810">
        <ele>1151.8</ele>
        <time>2020-11-15T15:15:58Z</time>
      </trkpt>
      <trkpt lat="-40.2503290" lon="-71.3782360">
        <ele>1151.2</ele>
        <time>2020-11-15T15:15:59Z</time>
      </trkpt>
      <trkpt lat="-40.2504200" lon="-71.3782920">
        <ele>1150.7</ele>
        <time>2020-11-15T15:16:00Z</time>
      </trkpt>
      <trkpt lat="-40.2505150" lon="-71.3783500">
        <ele>1150.1</ele>
        <time>2020-11-15T15:16:01Z</time>
      </trkpt>
      <trkpt lat="-40.2506120" lon="-71.3784130">
        <ele>1149.4</ele>
        <time>2020-11-15T15:16:02Z</time>
      </trkpt>
      <trkpt lat="-40.2507100" lon="-71.3784770">
        <ele>1148.8</ele>
        <time>2020-11-15T15:16:03Z</time>
      </trkpt>
      <trkpt lat="-40.2508090" lon="-71.3785400">
        <ele>1148.2</ele>
        <time>2020-11-15T15:16:04Z</time>
      </trkpt>
      <trkpt lat="-40.2509110" lon="-71.3786060">
        <ele>1147.5</ele>
        <time>2020-11-15T15:16:05Z</time>
      </trkpt>
      <trkpt lat="-40.2510140" lon="-71.3786730">
        <ele>1146.7</ele>
        <time>2020-11-15T15:16:06Z</time>
      </trkpt>
      <trkpt lat="-40.2511190" lon="-71.3787420">
        <ele>1146.0</ele>
        <time>2020-11-15T15:16:07Z</time>
      </trkpt>
      <trkpt lat="-40.2512270" lon="-71.3788100">
        <ele>1145.3</ele>
        <time>2020-11-15T15:16:08Z</time>
      </trkpt>
      <trkpt lat="-40.2513380" lon="-71.3788800">
        <ele>1144.6</ele>
        <time>2020-11-15T15:16:09Z</time>
      </trkpt>
      <trkpt lat="-40.2514480" lon="-71.3789490">
        <ele>1144.0</ele>
        <time>2020-11-15T15:16:10Z</time>
      </trkpt>
      <trkpt lat="-40.2515580" lon="-71.3790170">
        <ele>1143.3</ele>
        <time>2020-11-15T15:16:11Z</time>
      </trkpt>
      <trkpt lat="-40.2516690" lon="-71.3790900">
        <ele>1142.5</ele>
        <time>2020-11-15T15:16:12Z</time>
      </trkpt>
      <trkpt lat="-40.2517800" lon="-71.3791600">
        <ele>1141.8</ele>
        <time>2020-11-15T15:16:13Z</time>
      </trkpt>
      <trkpt lat="-40.2518890" lon="-71.3792310">
        <ele>1141.1</ele>
        <time>2020-11-15T15:16:14Z</time>
      </trkpt>
      <trkpt lat="-40.2519960" lon="-71.3793080">
        <ele>1140.5</ele>
        <time>2020-11-15T15:16:15Z</time>
      </trkpt>
      <trkpt lat="-40.2521040" lon="-71.3793880">
        <ele>1139.8</ele>
        <time>2020-11-15T15:16:16Z</time>
      </trkpt>
      <trkpt lat="-40.2522120" lon="-71.3794680">
        <ele>1139.2</ele>
        <time>2020-11-15T15:16:17Z</time>
      </trkpt>
      <trkpt lat="-40.2523190" lon="-71.3795500">
        <ele>1138.6</ele>
        <time>2020-11-15T15:16:18Z</time>
      </trkpt>
      <trkpt lat="-40.2524220" lon="-71.3796360">
        <ele>1138.1</ele>
        <time>2020-11-15T15:16:19Z</time>
      </trkpt>
      <trkpt lat="-40.2525230" lon="-71.3797270">
        <ele>1137.6</ele>
        <time>2020-11-15T15:16:20Z</time>
      </trkpt>
      <trkpt lat="-40.2526220" lon="-71.3798240">
        <ele>1137.1</ele>
        <time>2020-11-15T15:16:21Z</time>
      </trkpt>
      <trkpt lat="-40.2527180" lon="-71.3799220">
        <ele>1136.8</ele>
        <time>2020-11-15T15:16:22Z</time>
      </trkpt>
      <trkpt lat="-40.2528100" lon="-71.3800220">
        <ele>1136.5</ele>
        <time>2020-11-15T15:16:23Z</time>
      </trkpt>
      <trkpt lat="-40.2528990" lon="-71.3801210">
        <ele>1136.4</ele>
        <time>2020-11-15T15:16:24Z</time>
      </trkpt>
      <trkpt lat="-40.2529860" lon="-71.3802170">
        <ele>1136.2</ele>
        <time>2020-11-15T15:16:25Z</time>
      </trkpt>
      <trkpt lat="-40.2530720" lon="-71.3803090">
        <ele>1136.0</ele>
        <time>2020-11-15T15:16:26Z</time>
      </trkpt>
      <trkpt lat="-40.2531550" lon="-71.3804010">
        <ele>1135.7</ele>
        <time>2020-11-15T15:16:27Z</time>
      </trkpt>
      <trkpt lat="-40.2532370" lon="-71.3804940">
        <ele>1135.4</ele>
        <time>2020-11-15T15:16:28Z</time>
      </trkpt>
      <trkpt lat="-40.2533180" lon="-71.3805870">
        <ele>1134.9</ele>
        <time>2020-11-15T15:16:29Z</time>
      </trkpt>
      <trkpt lat="-40.2533990" lon="-71.3806810">
        <ele>1134.5</ele>
        <time>2020-11-15T15:16:30Z</time>
      </trkpt>
      <trkpt lat="-40.2534820" lon="-71.3807710">
        <ele>1134.0</ele>
        <time>2020-11-15T15:16:31Z</time>
      </trkpt>
      <trkpt lat="-40.2535630" lon="-71.3808610">
        <ele>1133.5</ele>
        <time>2020-11-15T15:16:32Z</time>
      </trkpt>
      <trkpt lat="-40.2536420" lon="-71.3809530">
        <ele>1133.0</ele>
        <time>2020-11-15T15:16:33Z</time>
      </trkpt>
      <trkpt lat="-40.2537220" lon="-71.3810400">
        <ele>1132.4</ele>
        <time>2020-11-15T15:16:34Z</time>
      </trkpt>
      <trkpt lat="-40.2538030" lon="-71.3811300">
        <ele>1131.9</ele>
        <time>2020-11-15T15:16:35Z</time>
      </trkpt>
      <trkpt lat="-40.2538830" lon="-71.3812200">
        <ele>1131.3</ele>
        <time>2020-11-15T15:16:36Z</time>
      </trkpt>
      <trkpt lat="-40.2539630" lon="-71.3813110">
        <ele>1130.8</ele>
        <time>2020-11-15T15:16:37Z</time>
      </trkpt>
      <trkpt lat="-40.2540440" lon="-71.3814020">
        <ele>1130.3</ele>
        <time>2020-11-15T15:16:38Z</time>
      </trkpt>
      <trkpt lat="-40.2541270" lon="-71.3814930">
        <ele>1129.8</ele>
        <time>2020-11-15T15:16:39Z</time>
      </trkpt>
      <trkpt lat="-40.2542090" lon="-71.3815850">
        <ele>1129.3</ele>
        <time>2020-11-15T15:16:40Z</time>
      </trkpt>
      <trkpt lat="-40.2542910" lon="-71.3816780">
        <ele>1128.9</ele>
        <time>2020-11-15T15:16:41Z</time>
      </trkpt>
      <trkpt lat="-40.2543730" lon="-71.3817670">
        <ele>1128.4</ele>
        <time>2020-11-15T15:16:42Z</time>
      </trkpt>
      <trkpt lat="-40.2544530" lon="-71.3818570">
        <ele>1128.1</ele>
        <time>2020-11-15T15:16:43Z</time>
      </trkpt>
      <trkpt lat="-40.2545300" lon="-71.3819450">
        <ele>1127.7</ele>
        <time>2020-11-15T15:16:44Z</time>
      </trkpt>
      <trkpt lat="-40.2546030" lon="-71.3820310">
        <ele>1127.5</ele>
        <time>2020-11-15T15:16:45Z</time>
      </trkpt>
      <trkpt lat="-40.2546760" lon="-71.3821180">
        <ele>1127.4</ele>
        <time>2020-11-15T15:16:46Z</time>
      </trkpt>
      <trkpt lat="-40.2547480" lon="-71.3821990">
        <ele>1127.3</ele>
        <time>2020-11-15T15:16:47Z</time>
      </trkpt>
      <trkpt lat="-40.2548190" lon="-71.3822790">
        <ele>1127.4</ele>
        <time>2020-11-15T15:16:48Z</time>
      </trkpt>
      <trkpt lat="-40.2548880" lon="-71.3823550">
        <ele>1127.4</ele>
        <time>2020-11-15T15:16:49Z</time>
      </trkpt>
      <trkpt lat="-40.2549550" lon="-71.3824310">
        <ele>1127.5</ele>
        <time>2020-11-15T15:16:50Z</time>
      </trkpt>
      <trkpt lat="-40.2550200" lon="-71.3825050">
        <ele>1127.6</ele>
        <time>2020-11-15T15:16:51Z</time>
      </trkpt>
      <trkpt lat="-40.2550820" lon="-71.3825720">
        <ele>1127.7</ele>
        <time>2020-11-15T15:16:52Z</time>
      </trkpt>
      <trkpt lat="-40.2551440" lon="-71.3826330">
        <ele>1127.8</ele>
        <time>2020-11-15T15:16:53Z</time>
      </trkpt>
      <trkpt lat="-40.2552010" lon="-71.3826900">
        <ele>1127.8</ele>
        <time>2020-11-15T15:16:54Z</time>
      </trkpt>
      <trkpt lat="-40.2552530" lon="-71.3827490">
        <ele>1127.9</ele>
        <time>2020-11-15T15:16:55Z</time>
      </trkpt>
      <trkpt lat="-40.2553050" lon="-71.3828080">
        <ele>1127.9</ele>
        <time>2020-11-15T15:16:56Z</time>
      </trkpt>
      <trkpt lat="-40.2553570" lon="-71.3828620">
        <ele>1128.0</ele>
        <time>2020-11-15T15:16:57Z</time>
      </trkpt>
      <trkpt lat="-40.2554070" lon="-71.3829180">
        <ele>1128.0</ele>
        <time>2020-11-15T15:16:58Z</time>
      </trkpt>
      <trkpt lat="-40.2554590" lon="-71.3829710">
        <ele>1127.9</ele>
        <time>2020-11-15T15:16:59Z</time>
      </trkpt>
      <trkpt lat="-40.2555110" lon="-71.3830220">
        <ele>1127.9</ele>
        <time>2020-11-15T15:17:00Z</time>
      </trkpt>
      <trkpt lat="-40.2555650" lon="-71.3830730">
        <ele>1127.9</ele>
        <time>2020-11-15T15:17:01Z</time>
      </trkpt>
      <trkpt lat="-40.2556200" lon="-71.3831240">
        <ele>1127.8</ele>
        <time>2020-11-15T15:17:02Z</time>
      </trkpt>
      <trkpt lat="-40.2556740" lon="-71.3831720">
        <ele>1127.8</ele>
        <time>2020-11-15T15:17:03Z</time>
      </trkpt>
      <trkpt lat="-40.2557290" lon="-71.3832210">
        <ele>1127.7</ele>
        <time>2020-11-15T15:17:04Z</time>
      </trkpt>
      <trkpt lat="-40.2557860" lon="-71.3832700">
        <ele>1127.6</ele>
        <time>2020-11-15T15:17:05Z</time>
      </trkpt>
      <trkpt lat="-40.2558440" lon="-71.3833170">
        <ele>1127.5</ele>
        <time>2020-11-15T15:17:06Z</time>
      </trkpt>
      <trkpt lat="-40.2559070" lon="-71.3833620">
        <ele>1127.4</ele>
        <time>2020-11-15T15:17:07Z</time>
      </trkpt>
      <trkpt lat="-40.2559690" lon="-71.3834050">
        <ele>1127.2</ele>
        <time>2020-11-15T15:17:08Z</time>
      </trkpt>
      <trkpt lat="-40.2560320" lon="-71.3834460">
        <ele>1127.1</ele>
        <time>2020-11-15T15:17:09Z</time>
      </trkpt>
      <trkpt lat="-40.2560960" lon="-71.3834870">
        <ele>1126.9</ele>
        <time>2020-11-15T15:17:10Z</time>
      </trkpt>
      <trkpt lat="-40.2561610" lon="-71.3835280">
        <ele>1126.6</ele>
        <time>2020-11-15T15:17:11Z</time>
      </trkpt>
      <trkpt lat="-40.2562250" lon="-71.3835660">
        <ele>1126.4</ele>
        <time>2020-11-15T15:17:12Z</time>
      </trkpt>
      <trkpt lat="-40.2562910" lon="-71.3836030">
        <ele>1126.2</ele>
        <time>2020-11-15T15:17:13Z</time>
      </trkpt>
      <trkpt lat="-40.2563570" lon="-71.3836370">
        <ele>1125.9</ele>
        <time>2020-11-15T15:17:14Z</time>
      </trkpt>
      <trkpt lat="-40.2564250" lon="-71.3836720">
        <ele>1125.7</ele>
        <time>2020-11-15T15:17:15Z</time>
      </trkpt>
      <trkpt lat="-40.2564930" lon="-71.3837080">
        <ele>1125.4</ele>
        <time>2020-11-15T15:17:16Z</time>
      </trkpt>
      <trkpt lat="-40.2565640" lon="-71.3837440">
        <ele>1125.1</ele>
        <time>2020-11-15T15:17:17Z</time>
      </trkpt>
      <trkpt lat="-40.2566380" lon="-71.3837770">
        <ele>1124.7</ele>
        <time>2020-11-15T15:17:18Z</time>
      </trkpt>
      <trkpt lat="-40.2567160" lon="-71.3838070">
        <ele>1124.3</ele>
        <time>2020-11-15T15:17:19Z</time>
      </trkpt>
      <trkpt lat="-40.2567940" lon="-71.3838350">
        <ele>1123.9</ele>
        <time>2020-11-15T15:17:20Z</time>
      </trkpt>
      <trkpt lat="-40.2568760" lon="-71.3838640">
        <ele>1123.4</ele>
        <time>2020-11-15T15:17:21Z</time>
      </trkpt>
      <trkpt lat="-40.2569590" lon="-71.3838920">
        <ele>1122.9</ele>
        <time>2020-11-15T15:17:22Z</time>
      </trkpt>
      <trkpt lat="-40.2570430" lon="-71.3839190">
        <ele>1122.5</ele>
        <time>2020-11-15T15:17:23Z</time>
      </trkpt>
      <trkpt lat="-40.2571290" lon="-71.3839430">
        <ele>1122.1</ele>
        <time>2020-11-15T15:17:24Z</time>
      </trkpt>
      <trkpt lat="-40.2572170" lon="-71.3839690">
        <ele>1121.6</ele>
        <time>2020-11-15T15:17:25Z</time>
      </trkpt>
      <trkpt lat="-40.2573040" lon="-71.3839950">
        <ele>1121.2</ele>
        <time>2020-11-15T15:17:26Z</time>
      </trkpt>
      <trkpt lat="-40.2573920" lon="-71.3840170">
        <ele>1120.8</ele>
        <time>2020-11-15T15:17:27Z</time>
      </trkpt>
      <trkpt lat="-40.2574810" lon="-71.3840390">
        <ele>1120.5</ele>
        <time>2020-11-15T15:17:28Z</time>
      </trkpt>
      <trkpt lat="-40.2575690" lon="-71.3840620">
        <ele>1120.2</ele>
        <time>2020-11-15T15:17:29Z</time>
      </trkpt>
      <trkpt lat="-40.2576560" lon="-71.3840840">
        <ele>1119.9</ele>
        <time>2020-11-15T15:17:30Z</time>
      </trkpt>
      <trkpt lat="-40.2577440" lon="-71.3841030">
        <ele>1119.7</ele>
        <time>2020-11-15T15:17:31Z</time>
      </trkpt>
      <trkpt lat="-40.2578300" lon="-71.3841220">
        <ele>1119.6</ele>
        <time>2020-11-15T15:17:32Z</time>
      </trkpt>
      <trkpt lat="-40.2579120" lon="-71.3841430">
        <ele>1119.5</ele>
        <time>2020-11-15T15:17:33Z</time>
      </trkpt>
      <trkpt lat="-40.2579910" lon="-71.3841640">
        <ele>1119.4</ele>
        <time>2020-11-15T15:17:34Z</time>
      </trkpt>
      <trkpt lat="-40.2580700" lon="-71.3841860">
        <ele>1119.3</ele>
        <time>2020-11-15T15:17:35Z</time>
      </trkpt>
      <trkpt lat="-40.2581470" lon="-71.3842060">
        <ele>1119.2</ele>
        <time>2020-11-15T15:17:36Z</time>
      </trkpt>
      <trkpt lat="-40.2582230" lon="-71.3842240">
        <ele>1119.1</ele>
        <time>2020-11-15T15:17:37Z</time>
      </trkpt>
      <trkpt lat="-40.2583000" lon="-71.3842420">
        <ele>1119.1</ele>
        <time>2020-11-15T15:17:38Z</time>
      </trkpt>
      <trkpt lat="-40.2583780" lon="-71.3842600">
        <ele>1119.0</ele>
        <time>2020-11-15T15:17:39Z</time>
      </trkpt>
      <trkpt lat="-40.2584560" lon="-71.3842790">
        <ele>1118.9</ele>
        <time>2020-11-15T15:17:40Z</time>
      </trkpt>
      <trkpt lat="-40.2585350" lon="-71.3842980">
        <ele>1118.8</ele>
        <time>2020-11-15T15:17:41Z</time>
      </trkpt>
      <trkpt lat="-40.2586140" lon="-71.3843170">
        <ele>1118.7</ele>
        <time>2020-11-15T15:17:42Z</time>
      </trkpt>
      <trkpt lat="-40.2586940" lon="-71.3843350">
        <ele>1118.6</ele>
        <time>2020-11-15T15:17:43Z</time>
      </trkpt>
      <trkpt lat="-40.2587720" lon="-71.3843550">
        <ele>1118.5</ele>
        <time>2020-11-15T15:17:44Z</time>
      </trkpt>
      <trkpt lat="-40.2588490" lon="-71.3843750">
        <ele>1118.4</ele>
        <time>2020-11-15T15:17:45Z</time>
      </trkpt>
      <trkpt lat="-40.2589260" lon="-71.3843950">
        <ele>1118.4</ele>
        <time>2020-11-15T15:17:46Z</time>
      </trkpt>
      <trkpt lat="-40.2590030" lon="-71.3844140">
        <ele>1118.3</ele>
        <time>2020-11-15T15:17:47Z</time>
      </trkpt>
      <trkpt lat="-40.2590800" lon="-71.3844330">
        <ele>1118.2</ele>
        <time>2020-11-15T15:17:48Z</time>
      </trkpt>
      <trkpt lat="-40.2591570" lon="-71.3844520">
        <ele>1118.1</ele>
        <time>2020-11-15T15:17:49Z</time>
      </trkpt>
      <trkpt lat="-40.2592310" lon="-71.3844720">
        <ele>1118.0</ele>
        <time>2020-11-15T15:17:50Z</time>
      </trkpt>
      <trkpt lat="-40.2593060" lon="-71.3844910">
        <ele>1117.9</ele>
        <time>2020-11-15T15:17:51Z</time>
      </trkpt>
      <trkpt lat="-40.2593820" lon="-71.3845090">
        <ele>1117.8</ele>
        <time>2020-11-15T15:17:52Z</time>
      </trkpt>
      <trkpt lat="-40.2594590" lon="-71.3845280">
        <ele>1117.7</ele>
        <time>2020-11-15T15:17:53Z</time>
      </trkpt>
      <trkpt lat="-40.2595360" lon="-71.3845490">
        <ele>1117.6</ele>
        <time>2020-11-15T15:17:54Z</time>
      </trkpt>
      <trkpt lat="-40.2596140" lon="-71.3845700">
        <ele>1117.6</ele>
        <time>2020-11-15T15:17:55Z</time>
      </trkpt>
      <trkpt lat="-40.2596930" lon="-71.3845900">
        <ele>1117.5</ele>
        <time>2020-11-15T15:17:56Z</time>
      </trkpt>
      <trkpt lat="-40.2597730" lon="-71.3846110">
        <ele>1117.4</ele>
        <time>2020-11-15T15:17:57Z</time>
      </trkpt>
      <trkpt lat="-40.2598520" lon="-71.3846310">
        <ele>1117.4</ele>
        <time>2020-11-15T15:17:58Z</time>
      </trkpt>
      <trkpt lat="-40.2599310" lon="-71.3846500">
        <ele>1117.3</ele>
        <time>2020-11-15T15:17:59Z</time>
      </trkpt>
      <trkpt lat="-40.2600080" lon="-71.3846690">
        <ele>1117.2</ele>
        <time>2020-11-15T15:18:00Z</time>
      </trkpt>
      <trkpt lat="-40.2600830" lon="-71.3846880">
        <ele>1117.0</ele>
        <time>2020-11-15T15:18:01Z</time>
      </trkpt>
      <trkpt lat="-40.2601580" lon="-71.3847080">
        <ele>1116.9</ele>
        <time>2020-11-15T15:18:02Z</time>
      </trkpt>
      <trkpt lat="-40.2602340" lon="-71.3847280">
        <ele>1116.8</ele>
        <time>2020-11-15T15:18:03Z</time>
      </trkpt>
      <trkpt lat="-40.2603140" lon="-71.3847470">
        <ele>1116.6</ele>
        <time>2020-11-15T15:18:04Z</time>
      </trkpt>
      <trkpt lat="-40.2603950" lon="-71.3847660">
        <ele>1116.4</ele>
        <time>2020-11-15T15:18:05Z</time>
      </trkpt>
      <trkpt lat="-40.2604750" lon="-71.3847870">
        <ele>1116.3</ele>
        <time>2020-11-15T15:18:06Z</time>
      </trkpt>
      <trkpt lat="-40.2605550" lon="-71.3848080">
        <ele>1116.1</ele>
        <time>2020-11-15T15:18:07Z</time>
      </trkpt>
      <trkpt lat="-40.2606340" lon="-71.3848310">
        <ele>1116.0</ele>
        <time>2020-11-15T15:18:08Z</time>
      </trkpt>
      <trkpt lat="-40.2607110" lon="-71.3848530">
        <ele>1115.9</ele>
        <time>2020-11-15T15:18:09Z</time>
      </trkpt>
      <trkpt lat="-40.2607870" lon="-71.3848740">
        <ele>1115.7</ele>
        <time>2020-11-15T15:18:10Z</time>
      </trkpt>
      <trkpt lat="-40.2608620" lon="-71.3848950">
        <ele>1115.6</ele>
        <time>2020-11-15T15:18:11Z</time>
      </trkpt>
      <trkpt lat="-40.2609390" lon="-71.3849150">
        <ele>1115.5</ele>
        <time>2020-11-15T15:18:12Z</time>
      </trkpt>
      <trkpt lat="-40.2610170" lon="-71.3849340">
        <ele>1115.4</ele>
        <time>2020-11-15T15:18:13Z</time>
      </trkpt>
      <trkpt lat="-40.2610940" lon="-71.3849540">
        <ele>1115.2</ele>
        <time>2020-11-15T15:18:14Z</time>
      </trkpt>
      <trkpt lat="-40.2611720" lon="-71.3849740">
        <ele>1115.1</ele>
        <time>2020-11-15T15:18:15Z</time>
      </trkpt>
      <trkpt lat="-40.2612500" lon="-71.3849950">
        <ele>1115.0</ele>
        <time>2020-11-15T15:18:16Z</time>
      </trkpt>
      <trkpt lat="-40.2613270" lon="-71.3850170">
        <ele>1114.9</ele>
        <time>2020-11-15T15:18:17Z</time>
      </trkpt>
      <trkpt lat="-40.2614050" lon="-71.3850370">
        <ele>1114.8</ele>
        <time>2020-11-15T15:18:18Z</time>
      </trkpt>
      <trkpt lat="-40.2614830" lon="-71.3850570">
        <ele>1114.7</ele>
        <time>2020-11-15T15:18:19Z</time>
      </trkpt>
      <trkpt lat="-40.2615600" lon="-71.3850770">
        <ele>1114.5</ele>
        <time>2020-11-15T15:18:20Z</time>
      </trkpt>
      <trkpt lat="-40.2616380" lon="-71.3850970">
        <ele>1114.4</ele>
        <time>2020-11-15T15:18:21Z</time>
      </trkpt>
      <trkpt lat="-40.2617160" lon="-71.3851170">
        <ele>1114.3</ele>
        <time>2020-11-15T15:18:22Z</time>
      </trkpt>
      <trkpt lat="-40.2617940" lon="-71.3851370">
        <ele>1114.2</ele>
        <time>2020-11-15T15:18:23Z</time>
      </trkpt>
      <trkpt lat="-40.2618740" lon="-71.3851560">
        <ele>1114.0</ele>
        <time>2020-11-15T15:18:24Z</time>
      </trkpt>
      <trkpt lat="-40.2619530" lon="-71.3851770">
        <ele>1113.9</ele>
        <time>2020-11-15T15:18:25Z</time>
      </trkpt>
      <trkpt lat="-40.2620330" lon="-71.3851990">
        <ele>1113.8</ele>
        <time>2020-11-15T15:18:26Z</time>
      </trkpt>
      <trkpt lat="-40.2621120" lon="-71.3852210">
        <ele>1113.7</ele>
        <time>2020-11-15T15:18:27Z</time>
      </trkpt>
      <trkpt lat="-40.2621930" lon="-71.3852420">
        <ele>1113.5</ele>
        <time>2020-11-15T15:18:28Z</time>
      </trkpt>
      <trkpt lat="-40.2622740" lon="-71.3852620">
        <ele>1113.4</ele>
        <time>2020-11-15T15:18:29Z</time>
      </trkpt>
      <trkpt lat="-40.2623550" lon="-71.3852810">
        <ele>1113.3</ele>
        <time>2020-11-15T15:18:30Z</time>
      </trkpt>
      <trkpt lat="-40.2624360" lon="-71.3853000">
        <ele>1113.1</ele>
        <time>2020-11-15T15:18:31Z</time>
      </trkpt>
      <trkpt lat="-40.2625150" lon="-71.3853210">
        <ele>1112.9</ele>
        <time>2020-11-15T15:18:32Z</time>
      </trkpt>
      <trkpt lat="-40.2625940" lon="-71.3853410">
        <ele>1112.8</ele>
        <time>2020-11-15T15:18:33Z</time>
      </trkpt>
      <trkpt lat="-40.2626730" lon="-71.3853620">
        <ele>1112.6</ele>
        <time>2020-11-15T15:18:34Z</time>
      </trkpt>
      <trkpt lat="-40.2627510" lon="-71.3853810">
        <ele>1112.5</ele>
        <time>2020-11-15T15:18:35Z</time>
      </trkpt>
      <trkpt lat="-40.2628300" lon="-71.3854000">
        <ele>1112.3</ele>
        <time>2020-11-15T15:18:36Z</time>
      </trkpt>
      <trkpt lat="-40.2629090" lon="-71.3854190">
        <ele>1112.2</ele>
        <time>2020-11-15T15:18:37Z</time>
      </trkpt>
      <trkpt lat="-40.2629890" lon="-71.3854400">
        <ele>1112.1</ele>
        <time>2020-11-15T15:18:38Z</time>
      </trkpt>
      <trkpt lat="-40.2630690" lon="-71.3854620">
        <ele>1111.9</ele>
        <time>2020-11-15T15:18:39Z</time>
      </trkpt>
      <trkpt lat="-40.2631480" lon="-71.3854840">
        <ele>1111.8</ele>
        <time>2020-11-15T15:18:40Z</time>
      </trkpt>
      <trkpt lat="-40.2632280" lon="-71.3855040">
        <ele>1111.6</ele>
        <time>2020-11-15T15:18:41Z</time>
      </trkpt>
      <trkpt lat="-40.2633090" lon="-71.3855230">
        <ele>1111.5</ele>
        <time>2020-11-15T15:18:42Z</time>
      </trkpt>
      <trkpt lat="-40.2633900" lon="-71.3855420">
        <ele>1111.3</ele>
        <time>2020-11-15T15:18:43Z</time>
      </trkpt>
      <trkpt lat="-40.2634700" lon="-71.3855620">
        <ele>1111.2</ele>
        <time>2020-11-15T15:18:44Z</time>
      </trkpt>
      <trkpt lat="-40.2635490" lon="-71.3855840">
        <ele>1111.1</ele>
        <time>2020-11-15T15:18:45Z</time>
      </trkpt>
      <trkpt lat="-40.2636290" lon="-71.3856050">
        <ele>1111.1</ele>
        <time>2020-11-15T15:18:46Z</time>
      </trkpt>
      <trkpt lat="-40.2637090" lon="-71.3856250">
        <ele>1111.0</ele>
        <time>2020-11-15T15:18:47Z</time>
      </trkpt>
      <trkpt lat="-40.2637900" lon="-71.3856440">
        <ele>1110.9</ele>
        <time>2020-11-15T15:18:48Z</time>
      </trkpt>
      <trkpt lat="-40.2638690" lon="-71.3856620">
        <ele>1110.9</ele>
        <time>2020-11-15T15:18:49Z</time>
      </trkpt>
      <trkpt lat="-40.2639480" lon="-71.3856830">
        <ele>1110.8</ele>
        <time>2020-11-15T15:18:50Z</time>
      </trkpt>
      <trkpt lat="-40.2640250" lon="-71.3857050">
        <ele>1110.8</ele>
        <time>2020-11-15T15:18:51Z</time>
      </trkpt>
      <trkpt lat="-40.2641030" lon="-71.3857250">
        <ele>1110.8</ele>
        <time>2020-11-15T15:18:52Z</time>
      </trkpt>
      <trkpt lat="-40.2641800" lon="-71.3857450">
        <ele>1110.8</ele>
        <time>2020-11-15T15:18:53Z</time>
      </trkpt>
      <trkpt lat="-40.2642560" lon="-71.3857670">
        <ele>1110.8</ele>
        <time>2020-11-15T15:18:54Z</time>
      </trkpt>
      <trkpt lat="-40.2643330" lon="-71.3857860">
        <ele>1110.8</ele>
        <time>2020-11-15T15:18:55Z</time>
      </trkpt>
      <trkpt lat="-40.2644100" lon="-71.3858030">
        <ele>1110.8</ele>
        <time>2020-11-15T15:18:56Z</time>
      </trkpt>
      <trkpt lat="-40.2644860" lon="-71.3858230">
        <ele>1110.7</ele>
        <time>2020-11-15T15:18:57Z</time>
      </trkpt>
      <trkpt lat="-40.2645650" lon="-71.3858440">
        <ele>1110.7</ele>
        <time>2020-11-15T15:18:58Z</time>
      </trkpt>
      <trkpt lat="-40.2646420" lon="-71.3858650">
        <ele>1110.7</ele>
        <time>2020-11-15T15:18:59Z</time>
      </trkpt>
      <trkpt lat="-40.2647200" lon="-71.3858830">
        <ele>1110.7</ele>
        <time>2020-11-15T15:19:00Z</time>
      </trkpt>
      <trkpt lat="-40.2647970" lon="-71.3859010">
        <ele>1110.6</ele>
        <time>2020-11-15T15:19:01Z</time>
      </trkpt>
      <trkpt lat="-40.2648740" lon="-71.3859220">
        <ele>1110.6</ele>
        <time>2020-11-15T15:19:02Z</time>
      </trkpt>
      <trkpt lat="-40.2649500" lon="-71.3859420">
        <ele>1110.5</ele>
        <time>2020-11-15T15:19:03Z</time>
      </trkpt>
      <trkpt lat="-40.2650260" lon="-71.3859590">
        <ele>1110.5</ele>
        <time>2020-11-15T15:19:04Z</time>
      </trkpt>
      <trkpt lat="-40.2651010" lon="-71.3859780">
        <ele>1110.4</ele>
        <time>2020-11-15T15:19:05Z</time>
      </trkpt>
      <trkpt lat="-40.2651750" lon="-71.3859980">
        <ele>1110.4</ele>
        <time>2020-11-15T15:19:06Z</time>
      </trkpt>
      <trkpt lat="-40.2652500" lon="-71.3860160">
        <ele>1110.3</ele>
        <time>2020-11-15T15:19:07Z</time>
      </trkpt>
      <trkpt lat="-40.2653260" lon="-71.3860350">
        <ele>1110.3</ele>
        <time>2020-11-15T15:19:08Z</time>
      </trkpt>
      <trkpt lat="-40.2654050" lon="-71.3860530">
        <ele>1110.2</ele>
        <time>2020-11-15T15:19:09Z</time>
      </trkpt>
      <trkpt lat="-40.2654850" lon="-71.3860740">
        <ele>1110.2</ele>
        <time>2020-11-15T15:19:10Z</time>
      </trkpt>
      <trkpt lat="-40.2655670" lon="-71.3860960">
        <ele>1110.1</ele>
        <time>2020-11-15T15:19:11Z</time>
      </trkpt>
      <trkpt lat="-40.2656510" lon="-71.3861250">
        <ele>1110.0</ele>
        <time>2020-11-15T15:19:12Z</time>
      </trkpt>
      <trkpt lat="-40.2657340" lon="-71.3861590">
        <ele>1109.9</ele>
        <time>2020-11-15T15:19:13Z</time>
      </trkpt>
      <trkpt lat="-40.2658170" lon="-71.3861970">
        <ele>1109.7</ele>
        <time>2020-11-15T15:19:14Z</time>
      </trkpt>
      <trkpt lat="-40.2658980" lon="-71.3862340">
        <ele>1109.6</ele>
        <time>2020-11-15T15:19:15Z</time>
      </trkpt>
      <trkpt lat="-40.2659800" lon="-71.3862680">
        <ele>1109.5</ele>
        <time>2020-11-15T15:19:16Z</time>
      </trkpt>
      <trkpt lat="-40.2660610" lon="-71.3862990">
        <ele>1109.4</ele>
        <time>2020-11-15T15:19:17Z</time>
      </trkpt>
      <trkpt lat="-40.2661410" lon="-71.3863340">
        <ele>1109.3</ele>
        <time>2020-11-15T15:19:18Z</time>
      </trkpt>
      <trkpt lat="-40.2662200" lon="-71.3863710">
        <ele>1109.2</ele>
        <time>2020-11-15T15:19:19Z</time>
      </trkpt>
      <trkpt lat="-40.2662990" lon="-71.3864110">
        <ele>1109.0</ele>
        <time>2020-11-15T15:19:20Z</time>
      </trkpt>
      <trkpt lat="-40.2663760" lon="-71.3864550">
        <ele>1108.9</ele>
        <time>2020-11-15T15:19:21Z</time>
      </trkpt>
      <trkpt lat="-40.2664530" lon="-71.3864970">
        <ele>1108.8</ele>
        <time>2020-11-15T15:19:22Z</time>
      </trkpt>
      <trkpt lat="-40.2665280" lon="-71.3865420">
        <ele>1108.7</ele>
        <time>2020-11-15T15:19:23Z</time>
      </trkpt>
      <trkpt lat="-40.2666030" lon="-71.3865860">
        <ele>1108.6</ele>
        <time>2020-11-15T15:19:24Z</time>
      </trkpt>
      <trkpt lat="-40.2666800" lon="-71.3866320">
        <ele>1108.5</ele>
        <time>2020-11-15T15:19:25Z</time>
      </trkpt>
      <trkpt lat="-40.2667550" lon="-71.3866770">
        <ele>1108.4</ele>
        <time>2020-11-15T15:19:26Z</time>
      </trkpt>
      <trkpt lat="-40.2668290" lon="-71.3867230">
        <ele>1108.4</ele>
        <time>2020-11-15T15:19:27Z</time>
      </trkpt>
      <trkpt lat="-40.2669030" lon="-71.3867720">
        <ele>1108.3</ele>
        <time>2020-11-15T15:19:28Z</time>
      </trkpt>
      <trkpt lat="-40.2669760" lon="-71.3868190">
        <ele>1108.3</ele>
        <time>2020-11-15T15:19:29Z</time>
      </trkpt>
      <trkpt lat="-40.2670500" lon="-71.3868660">
        <ele>1108.3</ele>
        <time>2020-11-15T15:19:30Z</time>
      </trkpt>
      <trkpt lat="-40.2671230" lon="-71.3869130">
        <ele>1108.4</ele>
        <time>2020-11-15T15:19:31Z</time>
      </trkpt>
      <trkpt lat="-40.2671950" lon="-71.3869620">
        <ele>1108.5</ele>
        <time>2020-11-15T15:19:32Z</time>
      </trkpt>
      <trkpt lat="-40.2672640" lon="-71.3870110">
        <ele>1108.6</ele>
        <time>2020-11-15T15:19:33Z</time>
      </trkpt>
      <trkpt lat="-40.2673340" lon="-71.3870580">
        <ele>1108.8</ele>
        <time>2020-11-15T15:19:34Z</time>
      </trkpt>
      <trkpt lat="-40.2674020" lon="-71.3871060">
        <ele>1109.0</ele>
        <time>2020-11-15T15:19:35Z</time>
      </trkpt>
      <trkpt lat="-40.2674670" lon="-71.3871540">
        <ele>1109.2</ele>
        <time>2020-11-15T15:19:36Z</time>
      </trkpt>
      <trkpt lat="-40.2675320" lon="-71.3872000">
        <ele>1109.5</ele>
        <time>2020-11-15T15:19:37Z</time>
      </trkpt>
      <trkpt lat="-40.2675950" lon="-71.3872450">
        <ele>1109.8</ele>
        <time>2020-11-15T15:19:38Z</time>
      </trkpt>
      <trkpt lat="-40.2676550" lon="-71.3872880">
        <ele>1110.1</ele>
        <time>2020-11-15T15:19:39Z</time>
      </trkpt>
      <trkpt lat="-40.2677140" lon="-71.3873290">
        <ele>1110.5</ele>
        <time>2020-11-15T15:19:40Z</time>
      </trkpt>
      <trkpt lat="-40.2677710" lon="-71.3873690">
        <ele>1110.7</ele>
        <time>2020-11-15T15:19:41Z</time>
      </trkpt>
      <trkpt lat="-40.2678280" lon="-71.3874100">
        <ele>1111.0</ele>
        <time>2020-11-15T15:19:42Z</time>
      </trkpt>
      <trkpt lat="-40.2678830" lon="-71.3874490">
        <ele>1111.3</ele>
        <time>2020-11-15T15:19:43Z</time>
      </trkpt>
      <trkpt lat="-40.2679380" lon="-71.3874880">
        <ele>1111.5</ele>
        <time>2020-11-15T15:19:44Z</time>
      </trkpt>
      <trkpt lat="-40.2679930" lon="-71.3875270">
        <ele>1111.8</ele>
        <time>2020-11-15T15:19:45Z</time>
      </trkpt>
      <trkpt lat="-40.2680490" lon="-71.3875650">
        <ele>1112.0</ele>
        <time>2020-11-15T15:19:46Z</time>
      </trkpt>
      <trkpt lat="-40.2681040" lon="-71.3876040">
        <ele>1112.2</ele>
        <time>2020-11-15T15:19:47Z</time>
      </trkpt>
      <trkpt lat="-40.2681600" lon="-71.3876430">
        <ele>1112.4</ele>
        <time>2020-11-15T15:19:48Z</time>
      </trkpt>
      <trkpt lat="-40.2682150" lon="-71.3876820">
        <ele>1112.5</ele>
        <time>2020-11-15T15:19:49Z</time>
      </trkpt>
      <trkpt lat="-40.2682710" lon="-71.3877200">
        <ele>1112.6</ele>
        <time>2020-11-15T15:19:50Z</time>
      </trkpt>
      <trkpt lat="-40.2683270" lon="-71.3877590">
        <ele>1112.7</ele>
        <time>2020-11-15T15:19:51Z</time>
      </trkpt>
      <trkpt lat="-40.2683830" lon="-71.3877980">
        <ele>1112.8</ele>
        <time>2020-11-15T15:19:52Z</time>
      </trkpt>
      <trkpt lat="-40.2684390" lon="-71.3878360">
        <ele>1112.9</ele>
        <time>2020-11-15T15:19:53Z</time>
      </trkpt>
      <trkpt lat="-40.2684960" lon="-71.3878730">
        <ele>1112.9</ele>
        <time>2020-11-15T15:19:54Z</time>
      </trkpt>
      <trkpt lat="-40.2685540" lon="-71.3879110">
        <ele>1112.9</ele>
        <time>2020-11-15T15:19:55Z</time>
      </trkpt>
      <trkpt lat="-40.2686090" lon="-71.3879490">
        <ele>1112.9</ele>
        <time>2020-11-15T15:19:56Z</time>
      </trkpt>
      <trkpt lat="-40.2686670" lon="-71.3879880">
        <ele>1112.9</ele>
        <time>2020-11-15T15:19:57Z</time>
      </trkpt>
      <trkpt lat="-40.2687240" lon="-71.3880270">
        <ele>1112.8</ele>
        <time>2020-11-15T15:19:58Z</time>
      </trkpt>
      <trkpt lat="-40.2687800" lon="-71.3880660">
        <ele>1112.7</ele>
        <time>2020-11-15T15:19:59Z</time>
      </trkpt>
      <trkpt lat="-40.2688370" lon="-71.3881060">
        <ele>1112.6</ele>
        <time>2020-11-15T15:20:00Z</time>
      </trkpt>
      <trkpt lat="-40.2688960" lon="-71.3881450">
        <ele>1112.4</ele>
        <time>2020-11-15T15:20:01Z</time>
      </trkpt>
      <trkpt lat="-40.2689550" lon="-71.3881850">
        <ele>1112.2</ele>
        <time>2020-11-15T15:20:02Z</time>
      </trkpt>
      <trkpt lat="-40.2690150" lon="-71.3882230">
        <ele>1112.0</ele>
        <time>2020-11-15T15:20:03Z</time>
      </trkpt>
      <trkpt lat="-40.2690760" lon="-71.3882650">
        <ele>1111.7</ele>
        <time>2020-11-15T15:20:04Z</time>
      </trkpt>
      <trkpt lat="-40.2691360" lon="-71.3883080">
        <ele>1111.5</ele>
        <time>2020-11-15T15:20:05Z</time>
      </trkpt>
      <trkpt lat="-40.2691990" lon="-71.3883490">
        <ele>1111.2</ele>
        <time>2020-11-15T15:20:06Z</time>
      </trkpt>
      <trkpt lat="-40.2692640" lon="-71.3883920">
        <ele>1110.8</ele>
        <time>2020-11-15T15:20:07Z</time>
      </trkpt>
      <trkpt lat="-40.2693320" lon="-71.3884340">
        <ele>1110.4</ele>
        <time>2020-11-15T15:20:08Z</time>
      </trkpt>
      <trkpt lat="-40.2694020" lon="-71.3884710">
        <ele>1110.0</ele>
        <time>2020-11-15T15:20:09Z</time>
      </trkpt>
      <trkpt lat="-40.2694730" lon="-71.3885030">
        <ele>1109.6</ele>
        <time>2020-11-15T15:20:10Z</time>
      </trkpt>
      <trkpt lat="-40.2695470" lon="-71.3885300">
        <ele>1109.2</ele>
        <time>2020-11-15T15:20:11Z</time>
      </trkpt>
      <trkpt lat="-40.2696220" lon="-71.3885510">
        <ele>1108.7</ele>
        <time>2020-11-15T15:20:12Z</time>
      </trkpt>
      <trkpt lat="-40.2697010" lon="-71.3885670">
        <ele>1108.2</ele>
        <time>2020-11-15T15:20:13Z</time>
      </trkpt>
      <trkpt lat="-40.2697830" lon="-71.3885790">
        <ele>1107.6</ele>
        <time>2020-11-15T15:20:14Z</time>
      </trkpt>
      <trkpt lat="-40.2698690" lon="-71.3885890">
        <ele>1107.1</ele>
        <time>2020-11-15T15:20:15Z</time>
      </trkpt>
      <trkpt lat="-40.2699590" lon="-71.3885960">
        <ele>1106.5</ele>
        <time>2020-11-15T15:20:16Z</time>
      </trkpt>
      <trkpt lat="-40.2700530" lon="-71.3886060">
        <ele>1105.9</ele>
        <time>2020-11-15T15:20:17Z</time>
      </trkpt>
      <trkpt lat="-40.2701500" lon="-71.3886130">
        <ele>1105.3</ele>
        <time>2020-11-15T15:20:18Z</time>
      </trkpt>
      <trkpt lat="-40.2702470" lon="-71.3886180">
        <ele>1104.6</ele>
        <time>2020-11-15T15:20:19Z</time>
      </trkpt>
      <trkpt lat="-40.2703500" lon="-71.3886240">
        <ele>1103.9</ele>
        <time>2020-11-15T15:20:20Z</time>
      </trkpt>
      <trkpt lat="-40.2704530" lon="-71.3886310">
        <ele>1103.3</ele>
        <time>2020-11-15T15:20:21Z</time>
      </trkpt>
      <trkpt lat="-40.2705580" lon="-71.3886370">
        <ele>1102.6</ele>
        <time>2020-11-15T15:20:22Z</time>
      </trkpt>
      <trkpt lat="-40.2706640" lon="-71.3886410">
        <ele>1102.1</ele>
        <time>2020-11-15T15:20:23Z</time>
      </trkpt>
      <trkpt lat="-40.2707710" lon="-71.3886490">
        <ele>1101.6</ele>
        <time>2020-11-15T15:20:24Z</time>
      </trkpt>
      <trkpt lat="-40.2708790" lon="-71.3886610">
        <ele>1101.1</ele>
        <time>2020-11-15T15:20:25Z</time>
      </trkpt>
      <trkpt lat="-40.2709850" lon="-71.3886750">
        <ele>1100.7</ele>
        <time>2020-11-15T15:20:26Z</time>
      </trkpt>
      <trkpt lat="-40.2710910" lon="-71.3886850">
        <ele>1100.4</ele>
        <time>2020-11-15T15:20:27Z</time>
      </trkpt>
      <trkpt lat="-40.2711980" lon="-71.3886910">
        <ele>1100.2</ele>
        <time>2020-11-15T15:20:28Z</time>
      </trkpt>
      <trkpt lat="-40.2713030" lon="-71.3886950">
        <ele>1100.0</ele>
        <time>2020-11-15T15:20:29Z</time>
      </trkpt>
      <trkpt lat="-40.2714060" lon="-71.3887030">
        <ele>1099.9</ele>
        <time>2020-11-15T15:20:30Z</time>
      </trkpt>
      <trkpt lat="-40.2715070" lon="-71.3887090">
        <ele>1099.9</ele>
        <time>2020-11-15T15:20:31Z</time>
      </trkpt>
      <trkpt lat="-40.2716070" lon="-71.3887150">
        <ele>1099.9</ele>
        <time>2020-11-15T15:20:32Z</time>
      </trkpt>
      <trkpt lat="-40.2717020" lon="-71.3887210">
        <ele>1100.0</ele>
        <time>2020-11-15T15:20:33Z</time>
      </trkpt>
      <trkpt lat="-40.2717940" lon="-71.3887270">
        <ele>1100.0</ele>
        <time>2020-11-15T15:20:34Z</time>
      </trkpt>
      <trkpt lat="-40.2718860" lon="-71.3887310">
        <ele>1100.1</ele>
        <time>2020-11-15T15:20:35Z</time>
      </trkpt>
      <trkpt lat="-40.2719750" lon="-71.3887360">
        <ele>1100.2</ele>
        <time>2020-11-15T15:20:36Z</time>
      </trkpt>
      <trkpt lat="-40.2720620" lon="-71.3887400">
        <ele>1100.3</ele>
        <time>2020-11-15T15:20:37Z</time>
      </trkpt>
      <trkpt lat="-40.2721470" lon="-71.3887440">
        <ele>1100.4</ele>
        <time>2020-11-15T15:20:38Z</time>
      </trkpt>
      <trkpt lat="-40.2722320" lon="-71.3887480">
        <ele>1100.5</ele>
        <time>2020-11-15T15:20:39Z</time>
      </trkpt>
      <trkpt lat="-40.2723150" lon="-71.3887520">
        <ele>1100.6</ele>
        <time>2020-11-15T15:20:40Z</time>
      </trkpt>
      <trkpt lat="-40.2723960" lon="-71.3887560">
        <ele>1100.6</ele>
        <time>2020-11-15T15:20:41Z</time>
      </trkpt>
      <trkpt lat="-40.2724770" lon="-71.3887610">
        <ele>1100.6</ele>
        <time>2020-11-15T15:20:42Z</time>
      </trkpt>
      <trkpt lat="-40.2725580" lon="-71.3887650">
        <ele>1100.5</ele>
        <time>2020-11-15T15:20:43Z</time>
      </trkpt>
      <trkpt lat="-40.2726380" lon="-71.3887700">
        <ele>1100.5</ele>
        <time>2020-11-15T15:20:44Z</time>
      </trkpt>
      <trkpt lat="-40.2727160" lon="-71.3887730">
        <ele>1100.3</ele>
        <time>2020-11-15T15:20:45Z</time>
      </trkpt>
      <trkpt lat="-40.2727960" lon="-71.3887790">
        <ele>1100.1</ele>
        <time>2020-11-15T15:20:46Z</time>
      </trkpt>
      <trkpt lat="-40.2728750" lon="-71.3887850">
        <ele>1099.9</ele>
        <time>2020-11-15T15:20:47Z</time>
      </trkpt>
      <trkpt lat="-40.2729550" lon="-71.3887910">
        <ele>1099.7</ele>
        <time>2020-11-15T15:20:48Z</time>
      </trkpt>
      <trkpt lat="-40.2730380" lon="-71.3887970">
        <ele>1099.4</ele>
        <time>2020-11-15T15:20:49Z</time>
      </trkpt>
      <trkpt lat="-40.2731220" lon="-71.3888040">
        <ele>1099.2</ele>
        <time>2020-11-15T15:20:50Z</time>
      </trkpt>
      <trkpt lat="-40.2732070" lon="-71.3888130">
        <ele>1098.9</ele>
        <time>2020-11-15T15:20:51Z</time>
      </trkpt>
      <trkpt lat="-40.2732900" lon="-71.3888220">
        <ele>1098.7</ele>
        <time>2020-11-15T15:20:52Z</time>
      </trkpt>
      <trkpt lat="-40.2733740" lon="-71.3888300">
        <ele>1098.4</ele>
        <time>2020-11-15T15:20:53Z</time>
      </trkpt>
      <trkpt lat="-40.2734570" lon="-71.3888370">
        <ele>1098.2</ele>
        <time>2020-11-15T15:20:54Z</time>
      </trkpt>
      <trkpt lat="-40.2735400" lon="-71.3888430">
        <ele>1098.0</ele>
        <time>2020-11-15T15:20:55Z</time>
      </trkpt>
      <trkpt lat="-40.2736230" lon="-71.3888470">
        <ele>1097.7</ele>
        <time>2020-11-15T15:20:56Z</time>
      </trkpt>
      <trkpt lat="-40.2737040" lon="-71.3888520">
        <ele>1097.5</ele>
        <time>2020-11-15T15:20:57Z</time>
      </trkpt>
      <trkpt lat="-40.2737850" lon="-71.3888550">
        <ele>1097.2</ele>
        <time>2020-11-15T15:20:58Z</time>
      </trkpt>
      <trkpt lat="-40.2738680" lon="-71.3888570">
        <ele>1097.1</ele>
        <time>2020-11-15T15:20:59Z</time>
      </trkpt>
      <trkpt lat="-40.2739520" lon="-71.3888620">
        <ele>1097.0</ele>
        <time>2020-11-15T15:21:00Z</time>
      </trkpt>
      <trkpt lat="-40.2740340" lon="-71.3888680">
        <ele>1096.9</ele>
        <time>2020-11-15T15:21:01Z</time>
      </trkpt>
      <trkpt lat="-40.2741170" lon="-71.3888730">
        <ele>1097.0</ele>
        <time>2020-11-15T15:21:02Z</time>
      </trkpt>
      <trkpt lat="-40.2741990" lon="-71.3888770">
        <ele>1097.0</ele>
        <time>2020-11-15T15:21:03Z</time>
      </trkpt>
      <trkpt lat="-40.2742810" lon="-71.3888810">
        <ele>1097.2</ele>
        <time>2020-11-15T15:21:04Z</time>
      </trkpt>
      <trkpt lat="-40.2743590" lon="-71.3888860">
        <ele>1097.3</ele>
        <time>2020-11-15T15:21:05Z</time>
      </trkpt>
      <trkpt lat="-40.2744340" lon="-71.3888880">
        <ele>1097.5</ele>
        <time>2020-11-15T15:21:06Z</time>
      </trkpt>
      <trkpt lat="-40.2745090" lon="-71.3888920">
        <ele>1097.7</ele>
        <time>2020-11-15T15:21:07Z</time>
      </trkpt>
      <trkpt lat="-40.2745820" lon="-71.3888960">
        <ele>1098.0</ele>
        <time>2020-11-15T15:21:08Z</time>
      </trkpt>
      <trkpt lat="-40.2746520" lon="-71.3888990">
        <ele>1098.3</ele>
        <time>2020-11-15T15:21:09Z</time>
      </trkpt>
      <trkpt lat="-40.2747200" lon="-71.3889030">
        <ele>1098.6</ele>
        <time>2020-11-15T15:21:10Z</time>
      </trkpt>
      <trkpt lat="-40.2747860" lon="-71.3889040">
        <ele>1099.0</ele>
        <time>2020-11-15T15:21:11Z</time>
      </trkpt>
      <trkpt lat="-40.2748490" lon="-71.3889070">
        <ele>1099.3</ele>
        <time>2020-11-15T15:21:12Z</time>
      </trkpt>
      <trkpt lat="-40.2749100" lon="-71.3889100">
        <ele>1099.7</ele>
        <time>2020-11-15T15:21:13Z</time>
      </trkpt>
      <trkpt lat="-40.2749710" lon="-71.3889140">
        <ele>1100.0</ele>
        <time>2020-11-15T15:21:14Z</time>
      </trkpt>
      <trkpt lat="-40.2750300" lon="-71.3889170">
        <ele>1100.4</ele>
        <time>2020-11-15T15:21:15Z</time>
      </trkpt>
      <trkpt lat="-40.2750870" lon="-71.3889200">
        <ele>1100.7</ele>
        <time>2020-11-15T15:21:16Z</time>
      </trkpt>
      <trkpt lat="-40.2751430" lon="-71.3889210">
        <ele>1101.0</ele>
        <time>2020-11-15T15:21:17Z</time>
      </trkpt>
      <trkpt lat="-40.2751980" lon="-71.3889230">
        <ele>1101.4</ele>
        <time>2020-11-15T15:21:18Z</time>
      </trkpt>
      <trkpt lat="-40.2752500" lon="-71.3889250">
        <ele>1101.6</ele>
        <time>2020-11-15T15:21:19Z</time>
      </trkpt>
      <trkpt lat="-40.2753030" lon="-71.3889290">
        <ele>1101.9</ele>
        <time>2020-11-15T15:21:20Z</time>
      </trkpt>
      <trkpt lat="-40.2753550" lon="-71.3889310">
        <ele>1102.1</ele>
        <time>2020-11-15T15:21:21Z</time>
      </trkpt>
      <trkpt lat="-40.2754070" lon="-71.3889350">
        <ele>1102.3</ele>
        <time>2020-11-15T15:21:22Z</time>
      </trkpt>
      <trkpt lat="-40.2754600" lon="-71.3889390">
        <ele>1102.5</ele>
        <time>2020-11-15T15:21:23Z</time>
      </trkpt>
      <trkpt lat="-40.2755130" lon="-71.3889450">
        <ele>1102.7</ele>
        <time>2020-11-15T15:21:24Z</time>
      </trkpt>
      <trkpt lat="-40.2755670" lon="-71.3889490">
        <ele>1102.8</ele>
        <time>2020-11-15T15:21:25Z</time>
      </trkpt>
      <trkpt lat="-40.2756230" lon="-71.3889530">
        <ele>1103.0</ele>
        <time>2020-11-15T15:21:26Z</time>
      </trkpt>
      <trkpt lat="-40.2756800" lon="-71.3889580">
        <ele>1103.1</ele>
        <time>2020-11-15T15:21:27Z</time>
      </trkpt>
      <trkpt lat="-40.2757370" lon="-71.3889630">
        <ele>1103.1</ele>
        <time>2020-11-15T15:21:28Z</time>
      </trkpt>
      <trkpt lat="-40.2757940" lon="-71.3889680">
        <ele>1103.2</ele>
        <time>2020-11-15T15:21:29Z</time>
      </trkpt>
      <trkpt lat="-40.2758510" lon="-71.3889700">
        <ele>1103.2</ele>
        <time>2020-11-15T15:21:30Z</time>
      </trkpt>
      <trkpt lat="-40.2759060" lon="-71.3889720">
        <ele>1103.3</ele>
        <time>2020-11-15T15:21:31Z</time>
      </trkpt>
      <trkpt lat="-40.2759640" lon="-71.3889720">
        <ele>1103.3</ele>
        <time>2020-11-15T15:21:32Z</time>
      </trkpt>
      <trkpt lat="-40.2760240" lon="-71.3889710">
        <ele>1103.3</ele>
        <time>2020-11-15T15:21:33Z</time>
      </trkpt>
      <trkpt lat="-40.2760840" lon="-71.3889710">
        <ele>1103.2</ele>
        <time>2020-11-15T15:21:34Z</time>
      </trkpt>
      <trkpt lat="-40.2761460" lon="-71.3889750">
        <ele>1103.1</ele>
        <time>2020-11-15T15:21:35Z</time>
      </trkpt>
      <trkpt lat="-40.2762070" lon="-71.3889790">
        <ele>1103.0</ele>
        <time>2020-11-15T15:21:36Z</time>
      </trkpt>
      <trkpt lat="-40.2762690" lon="-71.3889820">
        <ele>1102.9</ele>
        <time>2020-11-15T15:21:37Z</time>
      </trkpt>
      <trkpt lat="-40.2763330" lon="-71.3889850">
        <ele>1102.7</ele>
        <time>2020-11-15T15:21:38Z</time>
      </trkpt>
      <trkpt lat="-40.2763980" lon="-71.3889870">
        <ele>1102.5</ele>
        <time>2020-11-15T15:21:39Z</time>
      </trkpt>
      <trkpt lat="-40.2764660" lon="-71.3889900">
        <ele>1102.3</ele>
        <time>2020-11-15T15:21:40Z</time>
      </trkpt>
      <trkpt lat="-40.2765350" lon="-71.3889930">
        <ele>1102.0</ele>
        <time>2020-11-15T15:21:41Z</time>
      </trkpt>
      <trkpt lat="-40.2766060" lon="-71.3889960">
        <ele>1101.6</ele>
        <time>2020-11-15T15:21:42Z</time>
      </trkpt>
      <trkpt lat="-40.2766810" lon="-71.3889990">
        <ele>1101.2</ele>
        <time>2020-11-15T15:21:43Z</time>
      </trkpt>
      <trkpt lat="-40.2767590" lon="-71.3890030">
        <ele>1100.8</ele>
        <time>2020-11-15T15:21:44Z</time>
      </trkpt>
      <trkpt lat="-40.2768380" lon="-71.3890080">
        <ele>1100.5</ele>
        <time>2020-11-15T15:21:45Z</time>
      </trkpt>
      <trkpt lat="-40.2769200" lon="-71.3890120">
        <ele>1100.1</ele>
        <time>2020-11-15T15:21:46Z</time>
      </trkpt>
      <trkpt lat="-40.2770060" lon="-71.3890170">
        <ele>1099.7</ele>
        <time>2020-11-15T15:21:47Z</time>
      </trkpt>
      <trkpt lat="-40.2770930" lon="-71.3890200">
        <ele>1099.2</ele>
        <time>2020-11-15T15:21:48Z</time>
      </trkpt>
      <trkpt lat="-40.2771830" lon="-71.3890260">
        <ele>1098.8</ele>
        <time>2020-11-15T15:21:49Z</time>
      </trkpt>
      <trkpt lat="-40.2772760" lon="-71.3890330">
        <ele>1098.3</ele>
        <time>2020-11-15T15:21:50Z</time>
      </trkpt>
      <trkpt lat="-40.2773710" lon="-71.3890390">
        <ele>1097.8</ele>
        <time>2020-11-15T15:21:51Z</time>
      </trkpt>
      <trkpt lat="-40.2774690" lon="-71.3890460">
        <ele>1097.2</ele>
        <time>2020-11-15T15:21:52Z</time>
      </trkpt>
      <trkpt lat="-40.2775700" lon="-71.3890580">
        <ele>1096.6</ele>
        <time>2020-11-15T15:21:53Z</time>
      </trkpt>
      <trkpt lat="-40.2776710" lon="-71.3890670">
        <ele>1096.0</ele>
        <time>2020-11-15T15:21:54Z</time>
      </trkpt>
      <trkpt lat="-40.2777730" lon="-71.3890730">
        <ele>1095.4</ele>
        <time>2020-11-15T15:21:55Z</time>
      </trkpt>
      <trkpt lat="-40.2778760" lon="-71.3890810">
        <ele>1094.8</ele>
        <time>2020-11-15T15:21:56Z</time>
      </trkpt>
      <trkpt lat="-40.2779800" lon="-71.3890910">
        <ele>1094.2</ele>
        <time>2020-11-15T15:21:57Z</time>
      </trkpt>
      <trkpt lat="-40.2780890" lon="-71.3890990">
        <ele>1093.5</ele>
        <time>2020-11-15T15:21:58Z</time>
      </trkpt>
      <trkpt lat="-40.2781970" lon="-71.3891060">
        <ele>1092.8</ele>
        <time>2020-11-15T15:21:59Z</time>
      </trkpt>
      <trkpt lat="-40.2783070" lon="-71.3891130">
        <ele>1092.2</ele>
        <time>2020-11-15T15:22:00Z</time>
      </trkpt>
      <trkpt lat="-40.2784170" lon="-71.3891200">
        <ele>1091.6</ele>
        <time>2020-11-15T15:22:01Z</time>
      </trkpt>
      <trkpt lat="-40.2785270" lon="-71.3891290">
        <ele>1091.1</ele>
        <time>2020-11-15T15:22:02Z</time>
      </trkpt>
      <trkpt lat="-40.2786380" lon="-71.3891360">
        <ele>1090.7</ele>
        <time>2020-11-15T15:22:03Z</time>
      </trkpt>
      <trkpt lat="-40.2787480" lon="-71.3891470">
        <ele>1090.3</ele>
        <time>2020-11-15T15:22:04Z</time>
      </trkpt>
      <trkpt lat="-40.2788560" lon="-71.3891570">
        <ele>1090.0</ele>
        <time>2020-11-15T15:22:05Z</time>
      </trkpt>
      <trkpt lat="-40.2789630" lon="-71.3891650">
        <ele>1089.6</ele>
        <time>2020-11-15T15:22:06Z</time>
      </trkpt>
      <trkpt lat="-40.2790680" lon="-71.3891710">
        <ele>1089.3</ele>
        <time>2020-11-15T15:22:07Z</time>
      </trkpt>
      <trkpt lat="-40.2791700" lon="-71.3891800">
        <ele>1088.8</ele>
        <time>2020-11-15T15:22:08Z</time>
      </trkpt>
      <trkpt lat="-40.2792700" lon="-71.3891860">
        <ele>1088.4</ele>
        <time>2020-11-15T15:22:09Z</time>
      </trkpt>
      <trkpt lat="-40.2793680" lon="-71.3891920">
        <ele>1088.0</ele>
        <time>2020-11-15T15:22:10Z</time>
      </trkpt>
      <trkpt lat="-40.2794670" lon="-71.3892010">
        <ele>1087.6</ele>
        <time>2020-11-15T15:22:11Z</time>
      </trkpt>
      <trkpt lat="-40.2795660" lon="-71.3892110">
        <ele>1087.2</ele>
        <time>2020-11-15T15:22:12Z</time>
      </trkpt>
      <trkpt lat="-40.2796660" lon="-71.3892200">
        <ele>1086.9</ele>
        <time>2020-11-15T15:22:13Z</time>
      </trkpt>
      <trkpt lat="-40.2797660" lon="-71.3892290">
        <ele>1086.6</ele>
        <time>2020-11-15T15:22:14Z</time>
      </trkpt>
      <trkpt lat="-40.2798660" lon="-71.3892360">
        <ele>1086.4</ele>
        <time>2020-11-15T15:22:15Z</time>
      </trkpt>
      <trkpt lat="-40.2799650" lon="-71.3892430">
        <ele>1086.3</ele>
        <time>2020-11-15T15:22:16Z</time>
      </trkpt>
      <trkpt lat="-40.2800610" lon="-71.3892510">
        <ele>1086.3</ele>
        <time>2020-11-15T15:22:17Z</time>
      </trkpt>
      <trkpt lat="-40.2801580" lon="-71.3892590">
        <ele>1086.4</ele>
        <time>2020-11-15T15:22:18Z</time>
      </trkpt>
      <trkpt lat="-40.2802550" lon="-71.3892660">
        <ele>1086.6</ele>
        <time>2020-11-15T15:22:19Z</time>
      </trkpt>
      <trkpt lat="-40.2803490" lon="-71.3892730">
        <ele>1087.0</ele>
        <time>2020-11-15T15:22:20Z</time>
      </trkpt>
      <trkpt lat="-40.2804410" lon="-71.3892800">
        <ele>1087.5</ele>
        <time>2020-11-15T15:22:21Z</time>
      </trkpt>
      <trkpt lat="-40.2805320" lon="-71.3892880">
        <ele>1088.0</ele>
        <time>2020-11-15T15:22:22Z</time>
      </trkpt>
      <trkpt lat="-40.2806200" lon="-71.3892970">
        <ele>1088.5</ele>
        <time>2020-11-15T15:22:23Z</time>
      </trkpt>
      <trkpt lat="-40.2807040" lon="-71.3893040">
        <ele>1089.0</ele>
        <time>2020-11-15T15:22:24Z</time>
      </trkpt>
      <trkpt lat="-40.2807840" lon="-71.3893100">
        <ele>1089.5</ele>
        <time>2020-11-15T15:22:25Z</time>
      </trkpt>
      <trkpt lat="-40.2808590" lon="-71.3893190">
        <ele>1090.0</ele>
        <time>2020-11-15T15:22:26Z</time>
      </trkpt>
      <trkpt lat="-40.2809310" lon="-71.3893290">
        <ele>1090.6</ele>
        <time>2020-11-15T15:22:27Z</time>
      </trkpt>
      <trkpt lat="-40.2810000" lon="-71.3893350">
        <ele>1091.1</ele>
        <time>2020-11-15T15:22:28Z</time>
      </trkpt>
      <trkpt lat="-40.2810660" lon="-71.3893400">
        <ele>1091.6</ele>
        <time>2020-11-15T15:22:29Z</time>
      </trkpt>
      <trkpt lat="-40.2811300" lon="-71.3893470">
        <ele>1092.0</ele>
        <time>2020-11-15T15:22:30Z</time>
      </trkpt>
      <trkpt lat="-40.2811930" lon="-71.3893520">
        <ele>1092.5</ele>
        <time>2020-11-15T15:22:31Z</time>
      </trkpt>
      <trkpt lat="-40.2812530" lon="-71.3893560">
        <ele>1092.9</ele>
        <time>2020-11-15T15:22:32Z</time>
      </trkpt>
      <trkpt lat="-40.2813110" lon="-71.3893570">
        <ele>1093.2</ele>
        <time>2020-11-15T15:22:33Z</time>
      </trkpt>
      <trkpt lat="-40.2813700" lon="-71.3893600">
        <ele>1093.6</ele>
        <time>2020-11-15T15:22:34Z</time>
      </trkpt>
      <trkpt lat="-40.2814270" lon="-71.3893610">
        <ele>1093.9</ele>
        <time>2020-11-15T15:22:35Z</time>
      </trkpt>
      <trkpt lat="-40.2814850" lon="-71.3893660">
        <ele>1094.2</ele>
        <time>2020-11-15T15:22:36Z</time>
      </trkpt>
      <trkpt lat="-40.2815430" lon="-71.3893670">
        <ele>1094.5</ele>
        <time>2020-11-15T15:22:37Z</time>
      </trkpt>
      <trkpt lat="-40.2816010" lon="-71.3893690">
        <ele>1094.7</ele>
        <time>2020-11-15T15:22:38Z</time>
      </trkpt>
      <trkpt lat="-40.2816600" lon="-71.3893700">
        <ele>1094.9</ele>
        <time>2020-11-15T15:22:39Z</time>
      </trkpt>
      <trkpt lat="-40.2817200" lon="-71.3893740">
        <ele>1095.2</ele>
        <time>2020-11-15T15:22:40Z</time>
      </trkpt>
      <trkpt lat="-40.2817820" lon="-71.3893790">
        <ele>1095.3</ele>
        <time>2020-11-15T15:22:41Z</time>
      </trkpt>
      <trkpt lat="-40.2818420" lon="-71.3893810">
        <ele>1095.4</ele>
        <time>2020-11-15T15:22:42Z</time>
      </trkpt>
      <trkpt lat="-40.2819010" lon="-71.3893830">
        <ele>1095.5</ele>
        <time>2020-11-15T15:22:43Z</time>
      </trkpt>
      <trkpt lat="-40.2819590" lon="-71.3893840">
        <ele>1095.5</ele>
        <time>2020-11-15T15:22:44Z</time>
      </trkpt>
      <trkpt lat="-40.2820170" lon="-71.3893840">
        <ele>1095.5</ele>
        <time>2020-11-15T15:22:45Z</time>
      </trkpt>
      <trkpt lat="-40.2820750" lon="-71.3893850">
        <ele>1095.5</ele>
        <time>2020-11-15T15:22:46Z</time>
      </trkpt>
      <trkpt lat="-40.2821300" lon="-71.3893900">
        <ele>1095.4</ele>
        <time>2020-11-15T15:22:47Z</time>
      </trkpt>
      <trkpt lat="-40.2821870" lon="-71.3893940">
        <ele>1095.3</ele>
        <time>2020-11-15T15:22:48Z</time>
      </trkpt>
      <trkpt lat="-40.2822440" lon="-71.3893960">
        <ele>1095.2</ele>
        <time>2020-11-15T15:22:49Z</time>
      </trkpt>
      <trkpt lat="-40.2823020" lon="-71.3893990">
        <ele>1095.0</ele>
        <time>2020-11-15T15:22:50Z</time>
      </trkpt>
      <trkpt lat="-40.2823620" lon="-71.3894030">
        <ele>1094.7</ele>
        <time>2020-11-15T15:22:51Z</time>
      </trkpt>
      <trkpt lat="-40.2824230" lon="-71.3894080">
        <ele>1094.5</ele>
        <time>2020-11-15T15:22:52Z</time>
      </trkpt>
      <trkpt lat="-40.2824880" lon="-71.3894130">
        <ele>1094.2</ele>
        <time>2020-11-15T15:22:53Z</time>
      </trkpt>
      <trkpt lat="-40.2825550" lon="-71.3894190">
        <ele>1093.9</ele>
        <time>2020-11-15T15:22:54Z</time>
      </trkpt>
      <trkpt lat="-40.2826230" lon="-71.3894230">
        <ele>1093.6</ele>
        <time>2020-11-15T15:22:55Z</time>
      </trkpt>
      <trkpt lat="-40.2826940" lon="-71.3894240">
        <ele>1093.2</ele>
        <time>2020-11-15T15:22:56Z</time>
      </trkpt>
      <trkpt lat="-40.2827670" lon="-71.3894290">
        <ele>1092.8</ele>
        <time>2020-11-15T15:22:57Z</time>
      </trkpt>
      <trkpt lat="-40.2828430" lon="-71.3894340">
        <ele>1092.4</ele>
        <time>2020-11-15T15:22:58Z</time>
      </trkpt>
      <trkpt lat="-40.2829210" lon="-71.3894390">
        <ele>1092.0</ele>
        <time>2020-11-15T15:22:59Z</time>
      </trkpt>
      <trkpt lat="-40.2830030" lon="-71.3894440">
        <ele>1091.6</ele>
        <time>2020-11-15T15:23:00Z</time>
      </trkpt>
      <trkpt lat="-40.2830870" lon="-71.3894500">
        <ele>1091.3</ele>
        <time>2020-11-15T15:23:01Z</time>
      </trkpt>
      <trkpt lat="-40.2831740" lon="-71.3894580">
        <ele>1091.0</ele>
        <time>2020-11-15T15:23:02Z</time>
      </trkpt>
      <trkpt lat="-40.2832600" lon="-71.3894650">
        <ele>1090.7</ele>
        <time>2020-11-15T15:23:03Z</time>
      </trkpt>
      <trkpt lat="-40.2833440" lon="-71.3894710">
        <ele>1090.5</ele>
        <time>2020-11-15T15:23:04Z</time>
      </trkpt>
      <trkpt lat="-40.2834270" lon="-71.3894750">
        <ele>1090.2</ele>
        <time>2020-11-15T15:23:05Z</time>
      </trkpt>
      <trkpt lat="-40.2835110" lon="-71.3894790">
        <ele>1090.0</ele>
        <time>2020-11-15T15:23:06Z</time>
      </trkpt>
      <trkpt lat="-40.2835950" lon="-71.3894830">
        <ele>1089.7</ele>
        <time>2020-11-15T15:23:07Z</time>
      </trkpt>
      <trkpt lat="-40.2836790" lon="-71.3894860">
        <ele>1089.4</ele>
        <time>2020-11-15T15:23:08Z</time>
      </trkpt>
      <trkpt lat="-40.2837640" lon="-71.3894920">
        <ele>1089.2</ele>
        <time>2020-11-15T15:23:09Z</time>
      </trkpt>
      <trkpt lat="-40.2838490" lon="-71.3894980">
        <ele>1088.9</ele>
        <time>2020-11-15T15:23:10Z</time>
      </trkpt>
      <trkpt lat="-40.2839330" lon="-71.3895030">
        <ele>1088.6</ele>
        <time>2020-11-15T15:23:11Z</time>
      </trkpt>
      <trkpt lat="-40.2840160" lon="-71.3895080">
        <ele>1088.4</ele>
        <time>2020-11-15T15:23:12Z</time>
      </trkpt>
      <trkpt lat="-40.2841010" lon="-71.3895140">
        <ele>1088.2</ele>
        <time>2020-11-15T15:23:13Z</time>
      </trkpt>
      <trkpt lat="-40.2841860" lon="-71.3895180">
        <ele>1088.0</ele>
        <time>2020-11-15T15:23:14Z</time>
      </trkpt>
      <trkpt lat="-40.2842710" lon="-71.3895190">
        <ele>1087.7</ele>
        <time>2020-11-15T15:23:15Z</time>
      </trkpt>
      <trkpt lat="-40.2843570" lon="-71.3895180">
        <ele>1087.5</ele>
        <time>2020-11-15T15:23:16Z</time>
      </trkpt>
      <trkpt lat="-40.2844450" lon="-71.3895160">
        <ele>1087.3</ele>
        <time>2020-11-15T15:23:17Z</time>
      </trkpt>
      <trkpt lat="-40.2845310" lon="-71.3895110">
        <ele>1087.2</ele>
        <time>2020-11-15T15:23:18Z</time>
      </trkpt>
      <trkpt lat="-40.2846150" lon="-71.3895060">
        <ele>1087.1</ele>
        <time>2020-11-15T15:23:19Z</time>
      </trkpt>
      <trkpt lat="-40.2847010" lon="-71.3894990">
        <ele>1087.0</ele>
        <time>2020-11-15T15:23:20Z</time>
      </trkpt>
      <trkpt lat="-40.2847830" lon="-71.3894880">
        <ele>1086.9</ele>
        <time>2020-11-15T15:23:21Z</time>
      </trkpt>
      <trkpt lat="-40.2848630" lon="-71.3894770">
        <ele>1086.9</ele>
        <time>2020-11-15T15:23:22Z</time>
      </trkpt>
      <trkpt lat="-40.2849430" lon="-71.3894640">
        <ele>1086.8</ele>
        <time>2020-11-15T15:23:23Z</time>
      </trkpt>
      <trkpt lat="-40.2850200" lon="-71.3894520">
        <ele>1086.8</ele>
        <time>2020-11-15T15:23:24Z</time>
      </trkpt>
      <trkpt lat="-40.2850950" lon="-71.3894360">
        <ele>1086.8</ele>
        <time>2020-11-15T15:23:25Z</time>
      </trkpt>
      <trkpt lat="-40.2851700" lon="-71.3894170">
        <ele>1086.7</ele>
        <time>2020-11-15T15:23:26Z</time>
      </trkpt>
      <trkpt lat="-40.2852460" lon="-71.3893970">
        <ele>1086.6</ele>
        <time>2020-11-15T15:23:27Z</time>
      </trkpt>
      <trkpt lat="-40.2853190" lon="-71.3893750">
        <ele>1086.6</ele>
        <time>2020-11-15T15:23:28Z</time>
      </trkpt>
      <trkpt lat="-40.2853940" lon="-71.3893530">
        <ele>1086.5</ele>
        <time>2020-11-15T15:23:29Z</time>
      </trkpt>
      <trkpt lat="-40.2854680" lon="-71.3893300">
        <ele>1086.5</ele>
        <time>2020-11-15T15:23:30Z</time>
      </trkpt>
      <trkpt lat="-40.2855410" lon="-71.3893070">
        <ele>1086.5</ele>
        <time>2020-11-15T15:23:31Z</time>
      </trkpt>
      <trkpt lat="-40.2856150" lon="-71.3892830">
        <ele>1086.5</ele>
        <time>2020-11-15T15:23:32Z</time>
      </trkpt>
      <trkpt lat="-40.2856870" lon="-71.3892580">
        <ele>1086.5</ele>
        <time>2020-11-15T15:23:33Z</time>
      </trkpt>
      <trkpt lat="-40.2857630" lon="-71.3892310">
        <ele>1086.5</ele>
        <time>2020-11-15T15:23:34Z</time>
      </trkpt>
      <trkpt lat="-40.2858370" lon="-71.3892020">
        <ele>1086.5</ele>
        <time>2020-11-15T15:23:35Z</time>
      </trkpt>
      <trkpt lat="-40.2859100" lon="-71.3891730">
        <ele>1086.6</ele>
        <time>2020-11-15T15:23:36Z</time>
      </trkpt>
      <trkpt lat="-40.2859840" lon="-71.3891450">
        <ele>1086.7</ele>
        <time>2020-11-15T15:23:37Z</time>
      </trkpt>
      <trkpt lat="-40.2860580" lon="-71.3891220">
        <ele>1086.8</ele>
        <time>2020-11-15T15:23:38Z</time>
      </trkpt>
      <trkpt lat="-40.2861320" lon="-71.3891030">
        <ele>1087.0</ele>
        <time>2020-11-15T15:23:39Z</time>
      </trkpt>
      <trkpt lat="-40.2862040" lon="-71.3890860">
        <ele>1087.2</ele>
        <time>2020-11-15T15:23:40Z</time>
      </trkpt>
      <trkpt lat="-40.2862750" lon="-71.3890730">
        <ele>1087.4</ele>
        <time>2020-11-15T15:23:41Z</time>
      </trkpt>
      <trkpt lat="-40.2863410" lon="-71.3890570">
        <ele>1087.7</ele>
        <time>2020-11-15T15:23:42Z</time>
      </trkpt>
      <trkpt lat="-40.2864080" lon="-71.3890500">
        <ele>1088.1</ele>
        <time>2020-11-15T15:23:43Z</time>
      </trkpt>
      <trkpt lat="-40.2864750" lon="-71.3890470">
        <ele>1088.5</ele>
        <time>2020-11-15T15:23:44Z</time>
      </trkpt>
      <trkpt lat="-40.2865380" lon="-71.3890470">
        <ele>1088.9</ele>
        <time>2020-11-15T15:23:45Z</time>
      </trkpt>
      <trkpt lat="-40.2865970" lon="-71.3890470">
        <ele>1089.3</ele>
        <time>2020-11-15T15:23:46Z</time>
      </trkpt>
      <trkpt lat="-40.2866560" lon="-71.3890520">
        <ele>1089.7</ele>
        <time>2020-11-15T15:23:47Z</time>
      </trkpt>
      <trkpt lat="-40.2867130" lon="-71.3890580">
        <ele>1090.1</ele>
        <time>2020-11-15T15:23:48Z</time>
      </trkpt>
      <trkpt lat="-40.2867690" lon="-71.3890650">
        <ele>1090.4</ele>
        <time>2020-11-15T15:23:49Z</time>
      </trkpt>
      <trkpt lat="-40.2868230" lon="-71.3890740">
        <ele>1090.8</ele>
        <time>2020-11-15T15:23:50Z</time>
      </trkpt>
      <trkpt lat="-40.2868750" lon="-71.3890870">
        <ele>1091.2</ele>
        <time>2020-11-15T15:23:51Z</time>
      </trkpt>
      <trkpt lat="-40.2869250" lon="-71.3891000">
        <ele>1091.5</ele>
        <time>2020-11-15T15:23:52Z</time>
      </trkpt>
      <trkpt lat="-40.2869740" lon="-71.3891150">
        <ele>1091.9</ele>
        <time>2020-11-15T15:23:53Z</time>
      </trkpt>
      <trkpt lat="-40.2870240" lon="-71.3891280">
        <ele>1092.3</ele>
        <time>2020-11-15T15:23:54Z</time>
      </trkpt>
      <trkpt lat="-40.2870730" lon="-71.3891390">
        <ele>1092.6</ele>
        <time>2020-11-15T15:23:55Z</time>
      </trkpt>
      <trkpt lat="-40.2871200" lon="-71.3891490">
        <ele>1093.0</ele>
        <time>2020-11-15T15:23:56Z</time>
      </trkpt>
      <trkpt lat="-40.2871680" lon="-71.3891620">
        <ele>1093.3</ele>
        <time>2020-11-15T15:23:57Z</time>
      </trkpt>
      <trkpt lat="-40.2872140" lon="-71.3891780">
        <ele>1093.7</ele>
        <time>2020-11-15T15:23:58Z</time>
      </trkpt>
      <trkpt lat="-40.2872610" lon="-71.3891940">
        <ele>1094.0</ele>
        <time>2020-11-15T15:23:59Z</time>
      </trkpt>
      <trkpt lat="-40.2873050" lon="-71.3892110">
        <ele>1094.4</ele>
        <time>2020-11-15T15:24:00Z</time>
      </trkpt>
      <trkpt lat="-40.2873500" lon="-71.3892260">
        <ele>1094.7</ele>
        <time>2020-11-15T15:24:01Z</time>
      </trkpt>
      <trkpt lat="-40.2873950" lon="-71.3892390">
        <ele>1095.1</ele>
        <time>2020-11-15T15:24:02Z</time>
      </trkpt>
      <trkpt lat="-40.2874410" lon="-71.3892530">
        <ele>1095.4</ele>
        <time>2020-11-15T15:24:03Z</time>
      </trkpt>
      <trkpt lat="-40.2874840" lon="-71.3892640">
        <ele>1095.7</ele>
        <time>2020-11-15T15:24:04Z</time>
      </trkpt>
      <trkpt lat="-40.2875270" lon="-71.3892730">
        <ele>1096.1</ele>
        <time>2020-11-15T15:24:05Z</time>
      </trkpt>
      <trkpt lat="-40.2875710" lon="-71.3892800">
        <ele>1096.4</ele>
        <time>2020-11-15T15:24:06Z</time>
      </trkpt>
      <trkpt lat="-40.2876150" lon="-71.3892890">
        <ele>1096.7</ele>
        <time>2020-11-15T15:24:07Z</time>
      </trkpt>
      <trkpt lat="-40.2876580" lon="-71.3892940">
        <ele>1097.1</ele>
        <time>2020-11-15T15:24:08Z</time>
      </trkpt>
      <trkpt lat="-40.2877010" lon="-71.3892990">
        <ele>1097.4</ele>
        <time>2020-11-15T15:24:09Z</time>
      </trkpt>
      <trkpt lat="-40.2877420" lon="-71.3893020">
        <ele>1097.7</ele>
        <time>2020-11-15T15:24:10Z</time>
      </trkpt>
      <trkpt lat="-40.2877830" lon="-71.3893020">
        <ele>1098.0</ele>
        <time>2020-11-15T15:24:11Z</time>
      </trkpt>
      <trkpt lat="-40.2878260" lon="-71.3893040">
        <ele>1098.3</ele>
        <time>2020-11-15T15:24:12Z</time>
      </trkpt>
      <trkpt lat="-40.2878660" lon="-71.3892980">
        <ele>1098.6</ele>
        <time>2020-11-15T15:24:13Z</time>
      </trkpt>
      <trkpt lat="-40.2879020" lon="-71.3892880">
        <ele>1098.8</ele>
        <time>2020-11-15T15:24:14Z</time>
      </trkpt>
      <trkpt lat="-40.2879370" lon="-71.3892760">
        <ele>1099.0</ele>
        <time>2020-11-15T15:24:15Z</time>
      </trkpt>
      <trkpt lat="-40.2879680" lon="-71.3892650">
        <ele>1099.1</ele>
        <time>2020-11-15T15:24:16Z</time>
      </trkpt>
      <trkpt lat="-40.2879970" lon="-71.3892520">
        <ele>1099.3</ele>
        <time>2020-11-15T15:24:17Z</time>
      </trkpt>
      <trkpt lat="-40.2880260" lon="-71.3892380">
        <ele>1099.4</ele>
        <time>2020-11-15T15:24:18Z</time>
      </trkpt>
      <trkpt lat="-40.2880550" lon="-71.3892200">
        <ele>1099.6</ele>
        <time>2020-11-15T15:24:19Z</time>
      </trkpt>
      <trkpt lat="-40.2880840" lon="-71.3892030">
        <ele>1099.7</ele>
        <time>2020-11-15T15:24:20Z</time>
      </trkpt>
      <trkpt lat="-40.2881140" lon="-71.3891880">
        <ele>1099.8</ele>
        <time>2020-11-15T15:24:21Z</time>
      </trkpt>
      <trkpt lat="-40.2881430" lon="-71.3891710">
        <ele>1099.9</ele>
        <time>2020-11-15T15:24:22Z</time>
      </trkpt>
      <trkpt lat="-40.2881710" lon="-71.3891510">
        <ele>1100.0</ele>
        <time>2020-11-15T15:24:23Z</time>
      </trkpt>
      <trkpt lat="-40.2881980" lon="-71.3891310">
        <ele>1100.1</ele>
        <time>2020-11-15T15:24:24Z</time>
      </trkpt>
      <trkpt lat="-40.2882260" lon="-71.3891100">
        <ele>1100.1</ele>
        <time>2020-11-15T15:24:25Z</time>
      </trkpt>
      <trkpt lat="-40.2882520" lon="-71.3890870">
        <ele>1100.2</ele>
        <time>2020-11-15T15:24:26Z</time>
      </trkpt>
      <trkpt lat="-40.2882790" lon="-71.3890680">
        <ele>1100.2</ele>
        <time>2020-11-15T15:24:27Z</time>
      </trkpt>
      <trkpt lat="-40.2883020" lon="-71.3890430">
        <ele>1100.3</ele>
        <time>2020-11-15T15:24:28Z</time>
      </trkpt>
      <trkpt lat="-40.2883260" lon="-71.3890170">
        <ele>1100.3</ele>
        <time>2020-11-15T15:24:29Z</time>
      </trkpt>
      <trkpt lat="-40.2883510" lon="-71.3889930">
        <ele>1100.4</ele>
        <time>2020-11-15T15:24:30Z</time>
      </trkpt>
      <trkpt lat="-40.2883740" lon="-71.3889690">
        <ele>1100.4</ele>
        <time>2020-11-15T15:24:31Z</time>
      </trkpt>
      <trkpt lat="-40.2883970" lon="-71.3889400">
        <ele>1100.4</ele>
        <time>2020-11-15T15:24:32Z</time>
      </trkpt>
      <trkpt lat="-40.2884190" lon="-71.3889100">
        <ele>1100.4</ele>
        <time>2020-11-15T15:24:33Z</time>
      </trkpt>
      <trkpt lat="-40.2884400" lon="-71.3888820">
        <ele>1100.4</ele>
        <time>2020-11-15T15:24:34Z</time>
      </trkpt>
      <trkpt lat="-40.2884570" lon="-71.3888500">
        <ele>1100.4</ele>
        <time>2020-11-15T15:24:35Z</time>
      </trkpt>
      <trkpt lat="-40.2884740" lon="-71.3888220">
        <ele>1100.3</ele>
        <time>2020-11-15T15:24:36Z</time>
      </trkpt>
      <trkpt lat="-40.2884900" lon="-71.3887910">
        <ele>1100.3</ele>
        <time>2020-11-15T15:24:37Z</time>
      </trkpt>
      <trkpt lat="-40.2885110" lon="-71.3887710">
        <ele>1100.2</ele>
        <time>2020-11-15T15:24:38Z</time>
      </trkpt>
      <trkpt lat="-40.2885330" lon="-71.3887470">
        <ele>1100.2</ele>
        <time>2020-11-15T15:24:39Z</time>
      </trkpt>
      <trkpt lat="-40.2885550" lon="-71.3887190">
        <ele>1100.1</ele>
        <time>2020-11-15T15:24:40Z</time>
      </trkpt>
      <trkpt lat="-40.2885760" lon="-71.3886870">
        <ele>1100.1</ele>
        <time>2020-11-15T15:24:41Z</time>
      </trkpt>
      <trkpt lat="-40.2885970" lon="-71.3886530">
        <ele>1100.0</ele>
        <time>2020-11-15T15:24:42Z</time>
      </trkpt>
      <trkpt lat="-40.2886180" lon="-71.3886170">
        <ele>1099.9</ele>
        <time>2020-11-15T15:24:43Z</time>
      </trkpt>
      <trkpt lat="-40.2886380" lon="-71.3885780">
        <ele>1099.8</ele>
        <time>2020-11-15T15:24:44Z</time>
      </trkpt>
      <trkpt lat="-40.2886590" lon="-71.3885410">
        <ele>1099.7</ele>
        <time>2020-11-15T15:24:45Z</time>
      </trkpt>
      <trkpt lat="-40.2886780" lon="-71.3885010">
        <ele>1099.5</ele>
        <time>2020-11-15T15:24:46Z</time>
      </trkpt>
      <trkpt lat="-40.2886960" lon="-71.3884580">
        <ele>1099.4</ele>
        <time>2020-11-15T15:24:47Z</time>
      </trkpt>
      <trkpt lat="-40.2887130" lon="-71.3884140">
        <ele>1099.2</ele>
        <time>2020-11-15T15:24:48Z</time>
      </trkpt>
      <trkpt lat="-40.2887320" lon="-71.3883700">
        <ele>1099.0</ele>
        <time>2020-11-15T15:24:49Z</time>
      </trkpt>
      <trkpt lat="-40.2887490" lon="-71.3883280">
        <ele>1098.8</ele>
        <time>2020-11-15T15:24:50Z</time>
      </trkpt>
      <trkpt lat="-40.2887750" lon="-71.3882840">
        <ele>1098.6</ele>
        <time>2020-11-15T15:24:51Z</time>
      </trkpt>
      <trkpt lat="-40.2887990" lon="-71.3882430">
        <ele>1098.3</ele>
        <time>2020-11-15T15:24:52Z</time>
      </trkpt>
      <trkpt lat="-40.2888210" lon="-71.3882000">
        <ele>1098.1</ele>
        <time>2020-11-15T15:24:53Z</time>
      </trkpt>
      <trkpt lat="-40.2888450" lon="-71.3881600">
        <ele>1097.8</ele>
        <time>2020-11-15T15:24:54Z</time>
      </trkpt>
      <trkpt lat="-40.2888710" lon="-71.3881190">
        <ele>1097.6</ele>
        <time>2020-11-15T15:24:55Z</time>
      </trkpt>
      <trkpt lat="-40.2888970" lon="-71.3880650">
        <ele>1097.2</ele>
        <time>2020-11-15T15:24:56Z</time>
      </trkpt>
      <trkpt lat="-40.2889250" lon="-71.3880070">
        <ele>1096.9</ele>
        <time>2020-11-15T15:24:57Z</time>
      </trkpt>
      <trkpt lat="-40.2889530" lon="-71.3879450">
        <ele>1096.6</ele>
        <time>2020-11-15T15:24:58Z</time>
      </trkpt>
      <trkpt lat="-40.2889810" lon="-71.3878760">
        <ele>1096.2</ele>
        <time>2020-11-15T15:24:59Z</time>
      </trkpt>
      <trkpt lat="-40.2890140" lon="-71.3878060">
        <ele>1095.8</ele>
        <time>2020-11-15T15:25:00Z</time>
      </trkpt>
      <trkpt lat="-40.2890460" lon="-71.3877320">
        <ele>1095.4</ele>
        <time>2020-11-15T15:25:01Z</time>
      </trkpt>
      <trkpt lat="-40.2890830" lon="-71.3876600">
        <ele>1095.0</ele>
        <time>2020-11-15T15:25:02Z</time>
      </trkpt>
      <trkpt lat="-40.2891230" lon="-71.3875850">
        <ele>1094.6</ele>
        <time>2020-11-15T15:25:03Z</time>
      </trkpt>
      <trkpt lat="-40.2891650" lon="-71.3875090">
        <ele>1094.1</ele>
        <time>2020-11-15T15:25:04Z</time>
      </trkpt>
      <trkpt lat="-40.2892060" lon="-71.3874270">
        <ele>1093.7</ele>
        <time>2020-11-15T15:25:05Z</time>
      </trkpt>
      <trkpt lat="-40.2892470" lon="-71.3873430">
        <ele>1093.2</ele>
        <time>2020-11-15T15:25:06Z</time>
      </trkpt>
      <trkpt lat="-40.2892910" lon="-71.3872550">
        <ele>1092.7</ele>
        <time>2020-11-15T15:25:07Z</time>
      </trkpt>
      <trkpt lat="-40.2893350" lon="-71.3871660">
        <ele>1092.2</ele>
        <time>2020-11-15T15:25:08Z</time>
      </trkpt>
      <trkpt lat="-40.2893820" lon="-71.3870750">
        <ele>1091.7</ele>
        <time>2020-11-15T15:25:09Z</time>
      </trkpt>
      <trkpt lat="-40.2894290" lon="-71.3869800">
        <ele>1091.1</ele>
        <time>2020-11-15T15:25:10Z</time>
      </trkpt>
      <trkpt lat="-40.2894790" lon="-71.3868850">
        <ele>1090.5</ele>
        <time>2020-11-15T15:25:11Z</time>
      </trkpt>
      <trkpt lat="-40.2895290" lon="-71.3867880">
        <ele>1090.0</ele>
        <time>2020-11-15T15:25:12Z</time>
      </trkpt>
      <trkpt lat="-40.2895790" lon="-71.3866870">
        <ele>1089.4</ele>
        <time>2020-11-15T15:25:13Z</time>
      </trkpt>
      <trkpt lat="-40.2896310" lon="-71.3865860">
        <ele>1088.8</ele>
        <time>2020-11-15T15:25:14Z</time>
      </trkpt>
      <trkpt lat="-40.2896830" lon="-71.3864830">
        <ele>1088.2</ele>
        <time>2020-11-15T15:25:15Z</time>
      </trkpt>
      <trkpt lat="-40.2897360" lon="-71.3863800">
        <ele>1087.6</ele>
        <time>2020-11-15T15:25:16Z</time>
      </trkpt>
      <trkpt lat="-40.2897870" lon="-71.3862730">
        <ele>1087.0</ele>
        <time>2020-11-15T15:25:17Z</time>
      </trkpt>
      <trkpt lat="-40.2898400" lon="-71.3861630">
        <ele>1086.3</ele>
        <time>2020-11-15T15:25:18Z</time>
      </trkpt>
      <trkpt lat="-40.2898970" lon="-71.3860500">
        <ele>1085.7</ele>
        <time>2020-11-15T15:25:19Z</time>
      </trkpt>
      <trkpt lat="-40.2899550" lon="-71.3859390">
        <ele>1085.1</ele>
        <time>2020-11-15T15:25:20Z</time>
      </trkpt>
      <trkpt lat="-40.2900210" lon="-71.3858290">
        <ele>1084.4</ele>
        <time>2020-11-15T15:25:21Z</time>
      </trkpt>
      <trkpt lat="-40.2900890" lon="-71.3857150">
        <ele>1083.7</ele>
        <time>2020-11-15T15:25:22Z</time>
      </trkpt>
      <trkpt lat="-40.2901500" lon="-71.3856010">
        <ele>1083.0</ele>
        <time>2020-11-15T15:25:23Z</time>
      </trkpt>
      <trkpt lat="-40.2902240" lon="-71.3854980">
        <ele>1082.3</ele>
        <time>2020-11-15T15:25:24Z</time>
      </trkpt>
      <trkpt lat="-40.2903040" lon="-71.3853970">
        <ele>1081.6</ele>
        <time>2020-11-15T15:25:25Z</time>
      </trkpt>
      <trkpt lat="-40.2903900" lon="-71.3853020">
        <ele>1080.9</ele>
        <time>2020-11-15T15:25:26Z</time>
      </trkpt>
      <trkpt lat="-40.2904820" lon="-71.3852150">
        <ele>1080.1</ele>
        <time>2020-11-15T15:25:27Z</time>
      </trkpt>
      <trkpt lat="-40.2905780" lon="-71.3851310">
        <ele>1079.4</ele>
        <time>2020-11-15T15:25:28Z</time>
      </trkpt>
      <trkpt lat="-40.2906760" lon="-71.3850510">
        <ele>1078.8</ele>
        <time>2020-11-15T15:25:29Z</time>
      </trkpt>
      <trkpt lat="-40.2907760" lon="-71.3849760">
        <ele>1078.1</ele>
        <time>2020-11-15T15:25:30Z</time>
      </trkpt>
      <trkpt lat="-40.2908810" lon="-71.3849140">
        <ele>1077.4</ele>
        <time>2020-11-15T15:25:31Z</time>
      </trkpt>
      <trkpt lat="-40.2909900" lon="-71.3848610">
        <ele>1076.6</ele>
        <time>2020-11-15T15:25:32Z</time>
      </trkpt>
      <trkpt lat="-40.2911000" lon="-71.3848120">
        <ele>1075.9</ele>
        <time>2020-11-15T15:25:33Z</time>
      </trkpt>
      <trkpt lat="-40.2912110" lon="-71.3847660">
        <ele>1075.1</ele>
        <time>2020-11-15T15:25:34Z</time>
      </trkpt>
      <trkpt lat="-40.2913200" lon="-71.3847170">
        <ele>1074.4</ele>
        <time>2020-11-15T15:25:35Z</time>
      </trkpt>
      <trkpt lat="-40.2914320" lon="-71.3846670">
        <ele>1073.6</ele>
        <time>2020-11-15T15:25:36Z</time>
      </trkpt>
      <trkpt lat="-40.2915450" lon="-71.3846190">
        <ele>1072.9</ele>
        <time>2020-11-15T15:25:37Z</time>
      </trkpt>
      <trkpt lat="-40.2916590" lon="-71.3845760">
        <ele>1072.1</ele>
        <time>2020-11-15T15:25:38Z</time>
      </trkpt>
      <trkpt lat="-40.2917740" lon="-71.3845320">
        <ele>1071.4</ele>
        <time>2020-11-15T15:25:39Z</time>
      </trkpt>
      <trkpt lat="-40.2918900" lon="-71.3844910">
        <ele>1070.6</ele>
        <time>2020-11-15T15:25:40Z</time>
      </trkpt>
      <trkpt lat="-40.2920070" lon="-71.3844500">
        <ele>1069.9</ele>
        <time>2020-11-15T15:25:41Z</time>
      </trkpt>
      <trkpt lat="-40.2921260" lon="-71.3844140">
        <ele>1069.3</ele>
        <time>2020-11-15T15:25:42Z</time>
      </trkpt>
      <trkpt lat="-40.2922410" lon="-71.3843670">
        <ele>1068.7</ele>
        <time>2020-11-15T15:25:43Z</time>
      </trkpt>
      <trkpt lat="-40.2923580" lon="-71.3843230">
        <ele>1068.0</ele>
        <time>2020-11-15T15:25:44Z</time>
      </trkpt>
      <trkpt lat="-40.2924740" lon="-71.3842800">
        <ele>1067.4</ele>
        <time>2020-11-15T15:25:45Z</time>
      </trkpt>
      <trkpt lat="-40.2925920" lon="-71.3842380">
        <ele>1066.7</ele>
        <time>2020-11-15T15:25:46Z</time>
      </trkpt>
      <trkpt lat="-40.2927100" lon="-71.3841960">
        <ele>1066.1</ele>
        <time>2020-11-15T15:25:47Z</time>
      </trkpt>
      <trkpt lat="-40.2928320" lon="-71.3841590">
        <ele>1065.5</ele>
        <time>2020-11-15T15:25:48Z</time>
      </trkpt>
      <trkpt lat="-40.2929550" lon="-71.3841250">
        <ele>1064.8</ele>
        <time>2020-11-15T15:25:49Z</time>
      </trkpt>
      <trkpt lat="-40.2930800" lon="-71.3840960">
        <ele>1064.1</ele>
        <time>2020-11-15T15:25:50Z</time>
      </trkpt>
      <trkpt lat="-40.2932060" lon="-71.3840710">
        <ele>1063.5</ele>
        <time>2020-11-15T15:25:51Z</time>
      </trkpt>
      <trkpt lat="-40.2933310" lon="-71.3840530">
        <ele>1062.8</ele>
        <time>2020-11-15T15:25:52Z</time>
      </trkpt>
      <trkpt lat="-40.2934530" lon="-71.3840400">
        <ele>1062.2</ele>
        <time>2020-11-15T15:25:53Z</time>
      </trkpt>
      <trkpt lat="-40.2935750" lon="-71.3840320">
        <ele>1061.5</ele>
        <time>2020-11-15T15:25:54Z</time>
      </trkpt>
      <trkpt lat="-40.2937010" lon="-71.3840360">
        <ele>1060.8</ele>
        <time>2020-11-15T15:25:55Z</time>
      </trkpt>
      <trkpt lat="-40.2938260" lon="-71.3840500">
        <ele>1060.1</ele>
        <time>2020-11-15T15:25:56Z</time>
      </trkpt>
      <trkpt lat="-40.2939540" lon="-71.3840780">
        <ele>1059.4</ele>
        <time>2020-11-15T15:25:57Z</time>
      </trkpt>
      <trkpt lat="-40.2940810" lon="-71.3841130">
        <ele>1058.7</ele>
        <time>2020-11-15T15:25:58Z</time>
      </trkpt>
      <trkpt lat="-40.2942080" lon="-71.3841500">
        <ele>1058.0</ele>
        <time>2020-11-15T15:25:59Z</time>
      </trkpt>
      <trkpt lat="-40.2943330" lon="-71.3841920">
        <ele>1057.4</ele>
        <time>2020-11-15T15:26:00Z</time>
      </trkpt>
      <trkpt lat="-40.2944580" lon="-71.3842310">
        <ele>1056.9</ele>
        <time>2020-11-15T15:26:01Z</time>
      </trkpt>
      <trkpt lat="-40.2945830" lon="-71.3842670">
        <ele>1056.5</ele>
        <time>2020-11-15T15:26:02Z</time>
      </trkpt>
      <trkpt lat="-40.2947040" lon="-71.3842990">
        <ele>1056.1</ele>
        <time>2020-11-15T15:26:03Z</time>
      </trkpt>
      <trkpt lat="-40.2948240" lon="-71.3843310">
        <ele>1055.9</ele>
        <time>2020-11-15T15:26:04Z</time>
      </trkpt>
      <trkpt lat="-40.2949440" lon="-71.3843650">
        <ele>1055.6</ele>
        <time>2020-11-15T15:26:05Z</time>
      </trkpt>
      <trkpt lat="-40.2950610" lon="-71.3843980">
        <ele>1055.3</ele>
        <time>2020-11-15T15:26:06Z</time>
      </trkpt>
      <trkpt lat="-40.2951730" lon="-71.3844250">
        <ele>1055.0</ele>
        <time>2020-11-15T15:26:07Z</time>
      </trkpt>
      <trkpt lat="-40.2952850" lon="-71.3844520">
        <ele>1054.7</ele>
        <time>2020-11-15T15:26:08Z</time>
      </trkpt>
      <trkpt lat="-40.2953970" lon="-71.3844800">
        <ele>1054.2</ele>
        <time>2020-11-15T15:26:09Z</time>
      </trkpt>
      <trkpt lat="-40.2955100" lon="-71.3845090">
        <ele>1053.7</ele>
        <time>2020-11-15T15:26:10Z</time>
      </trkpt>
      <trkpt lat="-40.2956240" lon="-71.3845440">
        <ele>1053.1</ele>
        <time>2020-11-15T15:26:11Z</time>
      </trkpt>
      <trkpt lat="-40.2957410" lon="-71.3845910">
        <ele>1052.3</ele>
        <time>2020-11-15T15:26:12Z</time>
      </trkpt>
      <trkpt lat="-40.2958600" lon="-71.3846450">
        <ele>1051.6</ele>
        <time>2020-11-15T15:26:13Z</time>
      </trkpt>
      <trkpt lat="-40.2959830" lon="-71.3847060">
        <ele>1050.7</ele>
        <time>2020-11-15T15:26:14Z</time>
      </trkpt>
      <trkpt lat="-40.2961070" lon="-71.3847730">
        <ele>1049.9</ele>
        <time>2020-11-15T15:26:15Z</time>
      </trkpt>
      <trkpt lat="-40.2962310" lon="-71.3848440">
        <ele>1049.1</ele>
        <time>2020-11-15T15:26:16Z</time>
      </trkpt>
      <trkpt lat="-40.2963540" lon="-71.3849090">
        <ele>1048.2</ele>
        <time>2020-11-15T15:26:17Z</time>
      </trkpt>
      <trkpt lat="-40.2964800" lon="-71.3849770">
        <ele>1047.4</ele>
        <time>2020-11-15T15:26:18Z</time>
      </trkpt>
      <trkpt lat="-40.2966060" lon="-71.3850480">
        <ele>1046.5</ele>
        <time>2020-11-15T15:26:19Z</time>
      </trkpt>
      <trkpt lat="-40.2967330" lon="-71.3851160">
        <ele>1045.6</ele>
        <time>2020-11-15T15:26:20Z</time>
      </trkpt>
      <trkpt lat="-40.2968590" lon="-71.3851860">
        <ele>1044.7</ele>
        <time>2020-11-15T15:26:21Z</time>
      </trkpt>
      <trkpt lat="-40.2969850" lon="-71.3852550">
        <ele>1043.9</ele>
        <time>2020-11-15T15:26:22Z</time>
      </trkpt>
      <trkpt lat="-40.2971120" lon="-71.3853250">
        <ele>1043.0</ele>
        <time>2020-11-15T15:26:23Z</time>
      </trkpt>
      <trkpt lat="-40.2972380" lon="-71.3853930">
        <ele>1042.2</ele>
        <time>2020-11-15T15:26:24Z</time>
      </trkpt>
      <trkpt lat="-40.2973670" lon="-71.3854670">
        <ele>1041.4</ele>
        <time>2020-11-15T15:26:25Z</time>
      </trkpt>
      <trkpt lat="-40.2974990" lon="-71.3855500">
        <ele>1040.6</ele>
        <time>2020-11-15T15:26:26Z</time>
      </trkpt>
      <trkpt lat="-40.2976330" lon="-71.3856400">
        <ele>1039.7</ele>
        <time>2020-11-15T15:26:27Z</time>
      </trkpt>
      <trkpt lat="-40.2977650" lon="-71.3857330">
        <ele>1038.9</ele>
        <time>2020-11-15T15:26:28Z</time>
      </trkpt>
      <trkpt lat="-40.2978880" lon="-71.3858320">
        <ele>1038.0</ele>
        <time>2020-11-15T15:26:29Z</time>
      </trkpt>
      <trkpt lat="-40.2980060" lon="-71.3859340">
        <ele>1037.2</ele>
        <time>2020-11-15T15:26:30Z</time>
      </trkpt>
      <trkpt lat="-40.2981180" lon="-71.3860470">
        <ele>1036.4</ele>
        <time>2020-11-15T15:26:31Z</time>
      </trkpt>
      <trkpt lat="-40.2982150" lon="-71.3861660">
        <ele>1035.5</ele>
        <time>2020-11-15T15:26:32Z</time>
      </trkpt>
      <trkpt lat="-40.2983060" lon="-71.3862980">
        <ele>1034.7</ele>
        <time>2020-11-15T15:26:33Z</time>
      </trkpt>
      <trkpt lat="-40.2983910" lon="-71.3864360">
        <ele>1033.8</ele>
        <time>2020-11-15T15:26:34Z</time>
      </trkpt>
      <trkpt lat="-40.2984680" lon="-71.3865850">
        <ele>1032.9</ele>
        <time>2020-11-15T15:26:35Z</time>
      </trkpt>
      <trkpt lat="-40.2985330" lon="-71.3867440">
        <ele>1032.1</ele>
        <time>2020-11-15T15:26:36Z</time>
      </trkpt>
      <trkpt lat="-40.2986020" lon="-71.3869020">
        <ele>1031.3</ele>
        <time>2020-11-15T15:26:37Z</time>
      </trkpt>
      <trkpt lat="-40.2986620" lon="-71.3870660">
        <ele>1030.4</ele>
        <time>2020-11-15T15:26:38Z</time>
      </trkpt>
      <trkpt lat="-40.2987230" lon="-71.3872270">
        <ele>1029.6</ele>
        <time>2020-11-15T15:26:39Z</time>
      </trkpt>
      <trkpt lat="-40.2987880" lon="-71.3873820">
        <ele>1028.7</ele>
        <time>2020-11-15T15:26:40Z</time>
      </trkpt>
      <trkpt lat="-40.2988570" lon="-71.3875310">
        <ele>1028.0</ele>
        <time>2020-11-15T15:26:41Z</time>
      </trkpt>
      <trkpt lat="-40.2989320" lon="-71.3876750">
        <ele>1027.4</ele>
        <time>2020-11-15T15:26:42Z</time>
      </trkpt>
      <trkpt lat="-40.2990140" lon="-71.3878050">
        <ele>1027.0</ele>
        <time>2020-11-15T15:26:43Z</time>
      </trkpt>
      <trkpt lat="-40.2991040" lon="-71.3879240">
        <ele>1026.8</ele>
        <time>2020-11-15T15:26:44Z</time>
      </trkpt>
      <trkpt lat="-40.2991960" lon="-71.3880360">
        <ele>1026.6</ele>
        <time>2020-11-15T15:26:45Z</time>
      </trkpt>
      <trkpt lat="-40.2992950" lon="-71.3881350">
        <ele>1026.5</ele>
        <time>2020-11-15T15:26:46Z</time>
      </trkpt>
      <trkpt lat="-40.2993960" lon="-71.3882160">
        <ele>1026.4</ele>
        <time>2020-11-15T15:26:47Z</time>
      </trkpt>
      <trkpt lat="-40.2994980" lon="-71.3882850">
        <ele>1026.4</ele>
        <time>2020-11-15T15:26:48Z</time>
      </trkpt>
      <trkpt lat="-40.2995990" lon="-71.3883440">
        <ele>1026.3</ele>
        <time>2020-11-15T15:26:49Z</time>
      </trkpt>
      <trkpt lat="-40.2997050" lon="-71.3883850">
        <ele>1026.2</ele>
        <time>2020-11-15T15:26:50Z</time>
      </trkpt>
      <trkpt lat="-40.2998170" lon="-71.3884060">
        <ele>1026.0</ele>
        <time>2020-11-15T15:26:51Z</time>
      </trkpt>
      <trkpt lat="-40.2999330" lon="-71.3884090">
        <ele>1025.6</ele>
        <time>2020-11-15T15:26:52Z</time>
      </trkpt>
      <trkpt lat="-40.3000520" lon="-71.3883960">
        <ele>1025.2</ele>
        <time>2020-11-15T15:26:53Z</time>
      </trkpt>
      <trkpt lat="-40.3001700" lon="-71.3883690">
        <ele>1024.7</ele>
        <time>2020-11-15T15:26:54Z</time>
      </trkpt>
      <trkpt lat="-40.3002900" lon="-71.3883210">
        <ele>1024.0</ele>
        <time>2020-11-15T15:26:55Z</time>
      </trkpt>
      <trkpt lat="-40.3004050" lon="-71.3882730">
        <ele>1023.3</ele>
        <time>2020-11-15T15:26:56Z</time>
      </trkpt>
      <trkpt lat="-40.3005210" lon="-71.3882180">
        <ele>1022.6</ele>
        <time>2020-11-15T15:26:57Z</time>
      </trkpt>
      <trkpt lat="-40.3006370" lon="-71.3881600">
        <ele>1021.8</ele>
        <time>2020-11-15T15:26:58Z</time>
      </trkpt>
      <trkpt lat="-40.3007550" lon="-71.3881050">
        <ele>1021.1</ele>
        <time>2020-11-15T15:26:59Z</time>
      </trkpt>
      <trkpt lat="-40.3008740" lon="-71.3880470">
        <ele>1020.4</ele>
        <time>2020-11-15T15:27:00Z</time>
      </trkpt>
      <trkpt lat="-40.3009960" lon="-71.3879870">
        <ele>1019.6</ele>
        <time>2020-11-15T15:27:01Z</time>
      </trkpt>
      <trkpt lat="-40.3011170" lon="-71.3879250">
        <ele>1018.8</ele>
        <time>2020-11-15T15:27:02Z</time>
      </trkpt>
      <trkpt lat="-40.3012360" lon="-71.3878600">
        <ele>1018.0</ele>
        <time>2020-11-15T15:27:03Z</time>
      </trkpt>
      <trkpt lat="-40.3013570" lon="-71.3877960">
        <ele>1017.1</ele>
        <time>2020-11-15T15:27:04Z</time>
      </trkpt>
      <trkpt lat="-40.3014780" lon="-71.3877310">
        <ele>1016.3</ele>
        <time>2020-11-15T15:27:05Z</time>
      </trkpt>
      <trkpt lat="-40.3015990" lon="-71.3876640">
        <ele>1015.5</ele>
        <time>2020-11-15T15:27:06Z</time>
      </trkpt>
      <trkpt lat="-40.3017160" lon="-71.3875880">
        <ele>1014.6</ele>
        <time>2020-11-15T15:27:07Z</time>
      </trkpt>
      <trkpt lat="-40.3018300" lon="-71.3875050">
        <ele>1013.8</ele>
        <time>2020-11-15T15:27:08Z</time>
      </trkpt>
      <trkpt lat="-40.3019380" lon="-71.3874070">
        <ele>1012.9</ele>
        <time>2020-11-15T15:27:09Z</time>
      </trkpt>
      <trkpt lat="-40.3020470" lon="-71.3873050">
        <ele>1012.1</ele>
        <time>2020-11-15T15:27:10Z</time>
      </trkpt>
      <trkpt lat="-40.3021530" lon="-71.3871980">
        <ele>1011.3</ele>
        <time>2020-11-15T15:27:11Z</time>
      </trkpt>
      <trkpt lat="-40.3022550" lon="-71.3870870">
        <ele>1010.4</ele>
        <time>2020-11-15T15:27:12Z</time>
      </trkpt>
      <trkpt lat="-40.3023540" lon="-71.3869720">
        <ele>1009.7</ele>
        <time>2020-11-15T15:27:13Z</time>
      </trkpt>
      <trkpt lat="-40.3024480" lon="-71.3868540">
        <ele>1009.0</ele>
        <time>2020-11-15T15:27:14Z</time>
      </trkpt>
      <trkpt lat="-40.3025380" lon="-71.3867320">
        <ele>1008.4</ele>
        <time>2020-11-15T15:27:15Z</time>
      </trkpt>
      <trkpt lat="-40.3026250" lon="-71.3866100">
        <ele>1007.7</ele>
        <time>2020-11-15T15:27:16Z</time>
      </trkpt>
      <trkpt lat="-40.3027100" lon="-71.3864880">
        <ele>1007.0</ele>
        <time>2020-11-15T15:27:17Z</time>
      </trkpt>
      <trkpt lat="-40.3027950" lon="-71.3863680">
        <ele>1006.4</ele>
        <time>2020-11-15T15:27:18Z</time>
      </trkpt>
      <trkpt lat="-40.3028770" lon="-71.3862450">
        <ele>1005.8</ele>
        <time>2020-11-15T15:27:19Z</time>
      </trkpt>
      <trkpt lat="-40.3029590" lon="-71.3861230">
        <ele>1005.2</ele>
        <time>2020-11-15T15:27:20Z</time>
      </trkpt>
      <trkpt lat="-40.3030430" lon="-71.3860040">
        <ele>1004.6</ele>
        <time>2020-11-15T15:27:21Z</time>
      </trkpt>
      <trkpt lat="-40.3031260" lon="-71.3858820">
        <ele>1004.0</ele>
        <time>2020-11-15T15:27:22Z</time>
      </trkpt>
      <trkpt lat="-40.3032090" lon="-71.3857640">
        <ele>1003.6</ele>
        <time>2020-11-15T15:27:23Z</time>
      </trkpt>
      <trkpt lat="-40.3032950" lon="-71.3856510">
        <ele>1003.2</ele>
        <time>2020-11-15T15:27:24Z</time>
      </trkpt>
      <trkpt lat="-40.3033860" lon="-71.3855420">
        <ele>1002.9</ele>
        <time>2020-11-15T15:27:25Z</time>
      </trkpt>
      <trkpt lat="-40.3034770" lon="-71.3854430">
        <ele>1002.8</ele>
        <time>2020-11-15T15:27:26Z</time>
      </trkpt>
      <trkpt lat="-40.3035670" lon="-71.3853560">
        <ele>1002.7</ele>
        <time>2020-11-15T15:27:27Z</time>
      </trkpt>
      <trkpt lat="-40.3036640" lon="-71.3852910">
        <ele>1002.8</ele>
        <time>2020-11-15T15:27:28Z</time>
      </trkpt>
      <trkpt lat="-40.3037630" lon="-71.3852380">
        <ele>1003.0</ele>
        <time>2020-11-15T15:27:29Z</time>
      </trkpt>
      <trkpt lat="-40.3038550" lon="-71.3852010">
        <ele>1003.2</ele>
        <time>2020-11-15T15:27:30Z</time>
      </trkpt>
      <trkpt lat="-40.3039480" lon="-71.3851730">
        <ele>1003.3</ele>
        <time>2020-11-15T15:27:31Z</time>
      </trkpt>
      <trkpt lat="-40.3040430" lon="-71.3851530">
        <ele>1003.5</ele>
        <time>2020-11-15T15:27:32Z</time>
      </trkpt>
      <trkpt lat="-40.3041550" lon="-71.3851640">
        <ele>1003.6</ele>
        <time>2020-11-15T15:27:33Z</time>
      </trkpt>
      <trkpt lat="-40.3042520" lon="-71.3851600">
        <ele>1003.8</ele>
        <time>2020-11-15T15:27:34Z</time>
      </trkpt>
      <trkpt lat="-40.3043440" lon="-71.3851550">
        <ele>1004.1</ele>
        <time>2020-11-15T15:27:35Z</time>
      </trkpt>
      <trkpt lat="-40.3044350" lon="-71.3851540">
        <ele>1004.2</ele>
        <time>2020-11-15T15:27:36Z</time>
      </trkpt>
      <trkpt lat="-40.3045270" lon="-71.3851560">
        <ele>1004.4</ele>
        <time>2020-11-15T15:27:37Z</time>
      </trkpt>
      <trkpt lat="-40.3046050" lon="-71.3851470">
        <ele>1004.5</ele>
        <time>2020-11-15T15:27:38Z</time>
      </trkpt>
      <trkpt lat="-40.3046820" lon="-71.3851420">
        <ele>1004.6</ele>
        <time>2020-11-15T15:27:39Z</time>
      </trkpt>
      <trkpt lat="-40.3047510" lon="-71.3851340">
        <ele>1004.7</ele>
        <time>2020-11-15T15:27:40Z</time>
      </trkpt>
      <trkpt lat="-40.3048240" lon="-71.3851240">
        <ele>1004.7</ele>
        <time>2020-11-15T15:27:41Z</time>
      </trkpt>
      <trkpt lat="-40.3049000" lon="-71.3851130">
        <ele>1004.6</ele>
        <time>2020-11-15T15:27:42Z</time>
      </trkpt>
      <trkpt lat="-40.3049770" lon="-71.3850990">
        <ele>1004.6</ele>
        <time>2020-11-15T15:27:43Z</time>
      </trkpt>
      <trkpt lat="-40.3050530" lon="-71.3850830">
        <ele>1004.5</ele>
        <time>2020-11-15T15:27:44Z</time>
      </trkpt>
      <trkpt lat="-40.3051290" lon="-71.3850630">
        <ele>1004.3</ele>
        <time>2020-11-15T15:27:45Z</time>
      </trkpt>
      <trkpt lat="-40.3052040" lon="-71.3850410">
        <ele>1004.2</ele>
        <time>2020-11-15T15:27:46Z</time>
      </trkpt>
      <trkpt lat="-40.3052780" lon="-71.3850170">
        <ele>1004.0</ele>
        <time>2020-11-15T15:27:47Z</time>
      </trkpt>
      <trkpt lat="-40.3053540" lon="-71.3849920">
        <ele>1003.8</ele>
        <time>2020-11-15T15:27:48Z</time>
      </trkpt>
      <trkpt lat="-40.3054310" lon="-71.3849640">
        <ele>1003.5</ele>
        <time>2020-11-15T15:27:49Z</time>
      </trkpt>
      <trkpt lat="-40.3055090" lon="-71.3849330">
        <ele>1003.2</ele>
        <time>2020-11-15T15:27:50Z</time>
      </trkpt>
      <trkpt lat="-40.3055870" lon="-71.3848980">
        <ele>1003.0</ele>
        <time>2020-11-15T15:27:51Z</time>
      </trkpt>
      <trkpt lat="-40.3056600" lon="-71.3848580">
        <ele>1002.6</ele>
        <time>2020-11-15T15:27:52Z</time>
      </trkpt>
      <trkpt lat="-40.3057330" lon="-71.3848150">
        <ele>1002.3</ele>
        <time>2020-11-15T15:27:53Z</time>
      </trkpt>
      <trkpt lat="-40.3058080" lon="-71.3847700">
        <ele>1001.9</ele>
        <time>2020-11-15T15:27:54Z</time>
      </trkpt>
      <trkpt lat="-40.3058820" lon="-71.3847240">
        <ele>1001.6</ele>
        <time>2020-11-15T15:27:55Z</time>
      </trkpt>
      <trkpt lat="-40.3059580" lon="-71.3846750">
        <ele>1001.1</ele>
        <time>2020-11-15T15:27:56Z</time>
      </trkpt>
      <trkpt lat="-40.3060330" lon="-71.3846230">
        <ele>1000.7</ele>
        <time>2020-11-15T15:27:57Z</time>
      </trkpt>
      <trkpt lat="-40.3061110" lon="-71.3845730">
        <ele>1000.2</ele>
        <time>2020-11-15T15:27:58Z</time>
      </trkpt>
      <trkpt lat="-40.3061880" lon="-71.3845120">
        <ele>999.7</ele>
        <time>2020-11-15T15:27:59Z</time>
      </trkpt>
      <trkpt lat="-40.3062620" lon="-71.3844460">
        <ele>999.2</ele>
        <time>2020-11-15T15:28:00Z</time>
      </trkpt>
      <trkpt lat="-40.3063380" lon="-71.3843770">
        <ele>998.7</ele>
        <time>2020-11-15T15:28:01Z</time>
      </trkpt>
      <trkpt lat="-40.3064130" lon="-71.3843030">
        <ele>998.2</ele>
        <time>2020-11-15T15:28:02Z</time>
      </trkpt>
      <trkpt lat="-40.3064910" lon="-71.3842310">
        <ele>997.7</ele>
        <time>2020-11-15T15:28:03Z</time>
      </trkpt>
      <trkpt lat="-40.3065660" lon="-71.3841520">
        <ele>997.2</ele>
        <time>2020-11-15T15:28:04Z</time>
      </trkpt>
      <trkpt lat="-40.3066420" lon="-71.3840710">
        <ele>996.6</ele>
        <time>2020-11-15T15:28:05Z</time>
      </trkpt>
      <trkpt lat="-40.3067220" lon="-71.3839960">
        <ele>996.0</ele>
        <time>2020-11-15T15:28:06Z</time>
      </trkpt>
      <trkpt lat="-40.3068050" lon="-71.3839290">
        <ele>995.5</ele>
        <time>2020-11-15T15:28:07Z</time>
      </trkpt>
      <trkpt lat="-40.3068880" lon="-71.3838640">
        <ele>995.0</ele>
        <time>2020-11-15T15:28:08Z</time>
      </trkpt>
      <trkpt lat="-40.3069760" lon="-71.3838040">
        <ele>994.4</ele>
        <time>2020-11-15T15:28:09Z</time>
      </trkpt>
      <trkpt lat="-40.3070620" lon="-71.3837410">
        <ele>993.9</ele>
        <time>2020-11-15T15:28:10Z</time>
      </trkpt>
      <trkpt lat="-40.3071540" lon="-71.3836900">
        <ele>993.3</ele>
        <time>2020-11-15T15:28:11Z</time>
      </trkpt>
      <trkpt lat="-40.3072480" lon="-71.3836410">
        <ele>992.7</ele>
        <time>2020-11-15T15:28:12Z</time>
      </trkpt>
      <trkpt lat="-40.3073420" lon="-71.3835930">
        <ele>992.1</ele>
        <time>2020-11-15T15:28:13Z</time>
      </trkpt>
      <trkpt lat="-40.3074360" lon="-71.3835420">
        <ele>991.5</ele>
        <time>2020-11-15T15:28:14Z</time>
      </trkpt>
      <trkpt lat="-40.3075330" lon="-71.3834910">
        <ele>990.9</ele>
        <time>2020-11-15T15:28:15Z</time>
      </trkpt>
      <trkpt lat="-40.3076310" lon="-71.3834430">
        <ele>990.2</ele>
        <time>2020-11-15T15:28:16Z</time>
      </trkpt>
      <trkpt lat="-40.3077310" lon="-71.3833940">
        <ele>989.7</ele>
        <time>2020-11-15T15:28:17Z</time>
      </trkpt>
      <trkpt lat="-40.3078310" lon="-71.3833450">
        <ele>989.1</ele>
        <time>2020-11-15T15:28:18Z</time>
      </trkpt>
      <trkpt lat="-40.3079320" lon="-71.3832940">
        <ele>988.4</ele>
        <time>2020-11-15T15:28:19Z</time>
      </trkpt>
      <trkpt lat="-40.3080360" lon="-71.3832410">
        <ele>987.8</ele>
        <time>2020-11-15T15:28:20Z</time>
      </trkpt>
      <trkpt lat="-40.3081410" lon="-71.3831850">
        <ele>987.1</ele>
        <time>2020-11-15T15:28:21Z</time>
      </trkpt>
      <trkpt lat="-40.3082450" lon="-71.3831290">
        <ele>986.5</ele>
        <time>2020-11-15T15:28:22Z</time>
      </trkpt>
      <trkpt lat="-40.3083500" lon="-71.3830740">
        <ele>986.0</ele>
        <time>2020-11-15T15:28:23Z</time>
      </trkpt>
      <trkpt lat="-40.3084540" lon="-71.3830120">
        <ele>985.6</ele>
        <time>2020-11-15T15:28:24Z</time>
      </trkpt>
      <trkpt lat="-40.3085560" lon="-71.3829480">
        <ele>985.2</ele>
        <time>2020-11-15T15:28:25Z</time>
      </trkpt>
      <trkpt lat="-40.3086610" lon="-71.3828880">
        <ele>985.0</ele>
        <time>2020-11-15T15:28:26Z</time>
      </trkpt>
      <trkpt lat="-40.3087690" lon="-71.3828270">
        <ele>984.8</ele>
        <time>2020-11-15T15:28:27Z</time>
      </trkpt>
      <trkpt lat="-40.3088760" lon="-71.3827630">
        <ele>984.6</ele>
        <time>2020-11-15T15:28:28Z</time>
      </trkpt>
      <trkpt lat="-40.3089830" lon="-71.3827010">
        <ele>984.6</ele>
        <time>2020-11-15T15:28:29Z</time>
      </trkpt>
      <trkpt lat="-40.3090900" lon="-71.3826420">
        <ele>984.5</ele>
        <time>2020-11-15T15:28:30Z</time>
      </trkpt>
      <trkpt lat="-40.3091960" lon="-71.3825820">
        <ele>984.4</ele>
        <time>2020-11-15T15:28:31Z</time>
      </trkpt>
      <trkpt lat="-40.3093000" lon="-71.3825240">
        <ele>984.3</ele>
        <time>2020-11-15T15:28:32Z</time>
      </trkpt>
      <trkpt lat="-40.3094040" lon="-71.3824690">
        <ele>984.3</ele>
        <time>2020-11-15T15:28:33Z</time>
      </trkpt>
      <trkpt lat="-40.3095040" lon="-71.3824140">
        <ele>984.3</ele>
        <time>2020-11-15T15:28:34Z</time>
      </trkpt>
      <trkpt lat="-40.3096030" lon="-71.3823660">
        <ele>984.2</ele>
        <time>2020-11-15T15:28:35Z</time>
      </trkpt>
      <trkpt lat="-40.3097010" lon="-71.3823210">
        <ele>984.2</ele>
        <time>2020-11-15T15:28:36Z</time>
      </trkpt>
      <trkpt lat="-40.3097960" lon="-71.3822790">
        <ele>984.2</ele>
        <time>2020-11-15T15:28:37Z</time>
      </trkpt>
      <trkpt lat="-40.3098890" lon="-71.3822410">
        <ele>984.1</ele>
        <time>2020-11-15T15:28:38Z</time>
      </trkpt>
      <trkpt lat="-40.3099810" lon="-71.3822060">
        <ele>984.1</ele>
        <time>2020-11-15T15:28:39Z</time>
      </trkpt>
      <trkpt lat="-40.3100710" lon="-71.3821680">
        <ele>984.2</ele>
        <time>2020-11-15T15:28:40Z</time>
      </trkpt>
      <trkpt lat="-40.3101580" lon="-71.3821280">
        <ele>984.2</ele>
        <time>2020-11-15T15:28:41Z</time>
      </trkpt>
      <trkpt lat="-40.3102450" lon="-71.3820890">
        <ele>984.2</ele>
        <time>2020-11-15T15:28:42Z</time>
      </trkpt>
      <trkpt lat="-40.3103330" lon="-71.3820530">
        <ele>984.2</ele>
        <time>2020-11-15T15:28:43Z</time>
      </trkpt>
      <trkpt lat="-40.3104190" lon="-71.3820190">
        <ele>984.2</ele>
        <time>2020-11-15T15:28:44Z</time>
      </trkpt>
      <trkpt lat="-40.3105050" lon="-71.3819870">
        <ele>984.2</ele>
        <time>2020-11-15T15:28:45Z</time>
      </trkpt>
      <trkpt lat="-40.3105920" lon="-71.3819560">
        <ele>984.2</ele>
        <time>2020-11-15T15:28:46Z</time>
      </trkpt>
      <trkpt lat="-40.3106780" lon="-71.3819230">
        <ele>984.2</ele>
        <time>2020-11-15T15:28:47Z</time>
      </trkpt>
      <trkpt lat="-40.3107670" lon="-71.3818970">
        <ele>984.2</ele>
        <time>2020-11-15T15:28:48Z</time>
      </trkpt>
      <trkpt lat="-40.3108570" lon="-71.3818760">
        <ele>984.1</ele>
        <time>2020-11-15T15:28:49Z</time>
      </trkpt>
      <trkpt lat="-40.3109470" lon="-71.3818600">
        <ele>984.0</ele>
        <time>2020-11-15T15:28:50Z</time>
      </trkpt>
      <trkpt lat="-40.3110370" lon="-71.3818530">
        <ele>983.9</ele>
        <time>2020-11-15T15:28:51Z</time>
      </trkpt>
      <trkpt lat="-40.3111280" lon="-71.3818510">
        <ele>983.8</ele>
        <time>2020-11-15T15:28:52Z</time>
      </trkpt>
      <trkpt lat="-40.3112180" lon="-71.3818520">
        <ele>983.6</ele>
        <time>2020-11-15T15:28:53Z</time>
      </trkpt>
      <trkpt lat="-40.3113090" lon="-71.3818570">
        <ele>983.3</ele>
        <time>2020-11-15T15:28:54Z</time>
      </trkpt>
      <trkpt lat="-40.3113990" lon="-71.3818650">
        <ele>982.9</ele>
        <time>2020-11-15T15:28:55Z</time>
      </trkpt>
      <trkpt lat="-40.3114910" lon="-71.3818800">
        <ele>982.5</ele>
        <time>2020-11-15T15:28:56Z</time>
      </trkpt>
      <trkpt lat="-40.3115850" lon="-71.3818980">
        <ele>982.0</ele>
        <time>2020-11-15T15:28:57Z</time>
      </trkpt>
      <trkpt lat="-40.3116800" lon="-71.3819180">
        <ele>981.5</ele>
        <time>2020-11-15T15:28:58Z</time>
      </trkpt>
      <trkpt lat="-40.3117770" lon="-71.3819360">
        <ele>980.9</ele>
        <time>2020-11-15T15:28:59Z</time>
      </trkpt>
      <trkpt lat="-40.3118760" lon="-71.3819500">
        <ele>980.3</ele>
        <time>2020-11-15T15:29:00Z</time>
      </trkpt>
      <trkpt lat="-40.3119790" lon="-71.3819590">
        <ele>979.7</ele>
        <time>2020-11-15T15:29:01Z</time>
      </trkpt>
      <trkpt lat="-40.3120830" lon="-71.3819590">
        <ele>979.1</ele>
        <time>2020-11-15T15:29:02Z</time>
      </trkpt>
      <trkpt lat="-40.3121910" lon="-71.3819480">
        <ele>978.5</ele>
        <time>2020-11-15T15:29:03Z</time>
      </trkpt>
      <trkpt lat="-40.3122990" lon="-71.3819270">
        <ele>978.0</ele>
        <time>2020-11-15T15:29:04Z</time>
      </trkpt>
      <trkpt lat="-40.3124060" lon="-71.3818990">
        <ele>977.4</ele>
        <time>2020-11-15T15:29:05Z</time>
      </trkpt>
      <trkpt lat="-40.3125110" lon="-71.3818530">
        <ele>976.8</ele>
        <time>2020-11-15T15:29:06Z</time>
      </trkpt>
      <trkpt lat="-40.3126140" lon="-71.3817950">
        <ele>976.2</ele>
        <time>2020-11-15T15:29:07Z</time>
      </trkpt>
      <trkpt lat="-40.3127170" lon="-71.3817300">
        <ele>975.6</ele>
        <time>2020-11-15T15:29:08Z</time>
      </trkpt>
      <trkpt lat="-40.3128210" lon="-71.3816620">
        <ele>975.0</ele>
        <time>2020-11-15T15:29:09Z</time>
      </trkpt>
      <trkpt lat="-40.3129300" lon="-71.3815970">
        <ele>974.3</ele>
        <time>2020-11-15T15:29:10Z</time>
      </trkpt>
      <trkpt lat="-40.3130410" lon="-71.3815350">
        <ele>973.6</ele>
        <time>2020-11-15T15:29:11Z</time>
      </trkpt>
      <trkpt lat="-40.3131550" lon="-71.3814760">
        <ele>972.9</ele>
        <time>2020-11-15T15:29:12Z</time>
      </trkpt>
      <trkpt lat="-40.3132710" lon="-71.3814200">
        <ele>972.2</ele>
        <time>2020-11-15T15:29:13Z</time>
      </trkpt>
      <trkpt lat="-40.3133900" lon="-71.3813720">
        <ele>971.5</ele>
        <time>2020-11-15T15:29:14Z</time>
      </trkpt>
      <trkpt lat="-40.3135090" lon="-71.3813230">
        <ele>970.7</ele>
        <time>2020-11-15T15:29:15Z</time>
      </trkpt>
      <trkpt lat="-40.3136320" lon="-71.3812820">
        <ele>970.0</ele>
        <time>2020-11-15T15:29:16Z</time>
      </trkpt>
      <trkpt lat="-40.3137580" lon="-71.3812460">
        <ele>969.2</ele>
        <time>2020-11-15T15:29:17Z</time>
      </trkpt>
      <trkpt lat="-40.3138850" lon="-71.3812170">
        <ele>968.4</ele>
        <time>2020-11-15T15:29:18Z</time>
      </trkpt>
      <trkpt lat="-40.3140140" lon="-71.3811900">
        <ele>967.6</ele>
        <time>2020-11-15T15:29:19Z</time>
      </trkpt>
      <trkpt lat="-40.3141430" lon="-71.3811640">
        <ele>966.9</ele>
        <time>2020-11-15T15:29:20Z</time>
      </trkpt>
      <trkpt lat="-40.3142720" lon="-71.3811370">
        <ele>966.1</ele>
        <time>2020-11-15T15:29:21Z</time>
      </trkpt>
      <trkpt lat="-40.3144030" lon="-71.3811120">
        <ele>965.3</ele>
        <time>2020-11-15T15:29:22Z</time>
      </trkpt>
      <trkpt lat="-40.3145350" lon="-71.3810890">
        <ele>964.5</ele>
        <time>2020-11-15T15:29:23Z</time>
      </trkpt>
      <trkpt lat="-40.3146670" lon="-71.3810690">
        <ele>963.7</ele>
        <time>2020-11-15T15:29:24Z</time>
      </trkpt>
      <trkpt lat="-40.3147990" lon="-71.3810530">
        <ele>963.0</ele>
        <time>2020-11-15T15:29:25Z</time>
      </trkpt>
      <trkpt lat="-40.3149330" lon="-71.3810500">
        <ele>962.4</ele>
        <time>2020-11-15T15:29:26Z</time>
      </trkpt>
      <trkpt lat="-40.3150660" lon="-71.3810590">
        <ele>961.8</ele>
        <time>2020-11-15T15:29:27Z</time>
      </trkpt>
      <trkpt lat="-40.3151990" lon="-71.3810800">
        <ele>961.3</ele>
        <time>2020-11-15T15:29:28Z</time>
      </trkpt>
      <trkpt lat="-40.3153290" lon="-71.3811110">
        <ele>961.0</ele>
        <time>2020-11-15T15:29:29Z</time>
      </trkpt>
      <trkpt lat="-40.3154550" lon="-71.3811500">
        <ele>960.7</ele>
        <time>2020-11-15T15:29:30Z</time>
      </trkpt>
      <trkpt lat="-40.3155770" lon="-71.3811990">
        <ele>960.5</ele>
        <time>2020-11-15T15:29:31Z</time>
      </trkpt>
      <trkpt lat="-40.3156950" lon="-71.3812530">
        <ele>960.5</ele>
        <time>2020-11-15T15:29:32Z</time>
      </trkpt>
      <trkpt lat="-40.3158100" lon="-71.3813080">
        <ele>960.6</ele>
        <time>2020-11-15T15:29:33Z</time>
      </trkpt>
      <trkpt lat="-40.3159200" lon="-71.3813670">
        <ele>960.8</ele>
        <time>2020-11-15T15:29:34Z</time>
      </trkpt>
      <trkpt lat="-40.3160240" lon="-71.3814310">
        <ele>961.0</ele>
        <time>2020-11-15T15:29:35Z</time>
      </trkpt>
      <trkpt lat="-40.3161240" lon="-71.3814960">
        <ele>961.0</ele>
        <time>2020-11-15T15:29:36Z</time>
      </trkpt>
      <trkpt lat="-40.3162190" lon="-71.3815600">
        <ele>961.0</ele>
        <time>2020-11-15T15:29:37Z</time>
      </trkpt>
      <trkpt lat="-40.3163120" lon="-71.3816250">
        <ele>961.1</ele>
        <time>2020-11-15T15:29:38Z</time>
      </trkpt>
      <trkpt lat="-40.3164000" lon="-71.3816890">
        <ele>961.1</ele>
        <time>2020-11-15T15:29:39Z</time>
      </trkpt>
      <trkpt lat="-40.3164850" lon="-71.3817520">
        <ele>961.1</ele>
        <time>2020-11-15T15:29:40Z</time>
      </trkpt>
      <trkpt lat="-40.3165680" lon="-71.3818130">
        <ele>961.1</ele>
        <time>2020-11-15T15:29:41Z</time>
      </trkpt>
      <trkpt lat="-40.3166490" lon="-71.3818710">
        <ele>961.2</ele>
        <time>2020-11-15T15:29:42Z</time>
      </trkpt>
      <trkpt lat="-40.3167290" lon="-71.3819240">
        <ele>961.2</ele>
        <time>2020-11-15T15:29:43Z</time>
      </trkpt>
      <trkpt lat="-40.3168060" lon="-71.3819740">
        <ele>961.3</ele>
        <time>2020-11-15T15:29:44Z</time>
      </trkpt>
      <trkpt lat="-40.3168810" lon="-71.3820230">
        <ele>961.5</ele>
        <time>2020-11-15T15:29:45Z</time>
      </trkpt>
      <trkpt lat="-40.3169520" lon="-71.3820720">
        <ele>961.7</ele>
        <time>2020-11-15T15:29:46Z</time>
      </trkpt>
      <trkpt lat="-40.3170200" lon="-71.3821180">
        <ele>961.9</ele>
        <time>2020-11-15T15:29:47Z</time>
      </trkpt>
      <trkpt lat="-40.3170850" lon="-71.3821600">
        <ele>962.1</ele>
        <time>2020-11-15T15:29:48Z</time>
      </trkpt>
      <trkpt lat="-40.3171470" lon="-71.3821980">
        <ele>962.3</ele>
        <time>2020-11-15T15:29:49Z</time>
      </trkpt>
      <trkpt lat="-40.3172050" lon="-71.3822330">
        <ele>962.4</ele>
        <time>2020-11-15T15:29:50Z</time>
      </trkpt>
      <trkpt lat="-40.3172580" lon="-71.3822690">
        <ele>962.6</ele>
        <time>2020-11-15T15:29:51Z</time>
      </trkpt>
      <trkpt lat="-40.3173070" lon="-71.3823050">
        <ele>962.8</ele>
        <time>2020-11-15T15:29:52Z</time>
      </trkpt>
      <trkpt lat="-40.3173520" lon="-71.3823410">
        <ele>962.9</ele>
        <time>2020-11-15T15:29:53Z</time>
      </trkpt>
      <trkpt lat="-40.3173950" lon="-71.3823780">
        <ele>963.0</ele>
        <time>2020-11-15T15:29:54Z</time>
      </trkpt>
      <trkpt lat="-40.3174360" lon="-71.3824160">
        <ele>963.2</ele>
        <time>2020-11-15T15:29:55Z</time>
      </trkpt>
      <trkpt lat="-40.3174770" lon="-71.3824500">
        <ele>963.3</ele>
        <time>2020-11-15T15:29:56Z</time>
      </trkpt>
      <trkpt lat="-40.3175180" lon="-71.3824790">
        <ele>963.4</ele>
        <time>2020-11-15T15:29:57Z</time>
      </trkpt>
      <trkpt lat="-40.3175600" lon="-71.3825070">
        <ele>963.4</ele>
        <time>2020-11-15T15:29:58Z</time>
      </trkpt>
      <trkpt lat="-40.3176030" lon="-71.3825370">
        <ele>963.5</ele>
        <time>2020-11-15T15:29:59Z</time>
      </trkpt>
      <trkpt lat="-40.3176480" lon="-71.3825670">
        <ele>963.6</ele>
        <time>2020-11-15T15:30:00Z</time>
      </trkpt>
      <trkpt lat="-40.3176930" lon="-71.3825970">
        <ele>963.6</ele>
        <time>2020-11-15T15:30:01Z</time>
      </trkpt>
      <trkpt lat="-40.3177410" lon="-71.3826270">
        <ele>963.6</ele>
        <time>2020-11-15T15:30:02Z</time>
      </trkpt>
      <trkpt lat="-40.3177900" lon="-71.3826580">
        <ele>963.7</ele>
        <time>2020-11-15T15:30:03Z</time>
      </trkpt>
      <trkpt lat="-40.3178410" lon="-71.3826910">
        <ele>963.7</ele>
        <time>2020-11-15T15:30:04Z</time>
      </trkpt>
      <trkpt lat="-40.3178960" lon="-71.3827200">
        <ele>963.7</ele>
        <time>2020-11-15T15:30:05Z</time>
      </trkpt>
      <trkpt lat="-40.3179520" lon="-71.3827500">
        <ele>963.7</ele>
        <time>2020-11-15T15:30:06Z</time>
      </trkpt>
      <trkpt lat="-40.3180060" lon="-71.3827850">
        <ele>963.7</ele>
        <time>2020-11-15T15:30:07Z</time>
      </trkpt>
      <trkpt lat="-40.3180590" lon="-71.3828220">
        <ele>963.6</ele>
        <time>2020-11-15T15:30:08Z</time>
      </trkpt>
      <trkpt lat="-40.3181160" lon="-71.3828580">
        <ele>963.5</ele>
        <time>2020-11-15T15:30:09Z</time>
      </trkpt>
      <trkpt lat="-40.3181740" lon="-71.3828920">
        <ele>963.4</ele>
        <time>2020-11-15T15:30:10Z</time>
      </trkpt>
      <trkpt lat="-40.3182330" lon="-71.3829280">
        <ele>963.3</ele>
        <time>2020-11-15T15:30:11Z</time>
      </trkpt>
      <trkpt lat="-40.3182940" lon="-71.3829640">
        <ele>963.2</ele>
        <time>2020-11-15T15:30:12Z</time>
      </trkpt>
      <trkpt lat="-40.3183560" lon="-71.3830010">
        <ele>963.0</ele>
        <time>2020-11-15T15:30:13Z</time>
      </trkpt>
      <trkpt lat="-40.3184180" lon="-71.3830390">
        <ele>962.9</ele>
        <time>2020-11-15T15:30:14Z</time>
      </trkpt>
      <trkpt lat="-40.3184810" lon="-71.3830780">
        <ele>962.8</ele>
        <time>2020-11-15T15:30:15Z</time>
      </trkpt>
      <trkpt lat="-40.3185440" lon="-71.3831190">
        <ele>962.8</ele>
        <time>2020-11-15T15:30:16Z</time>
      </trkpt>
      <trkpt lat="-40.3186060" lon="-71.3831610">
        <ele>962.8</ele>
        <time>2020-11-15T15:30:17Z</time>
      </trkpt>
      <trkpt lat="-40.3186690" lon="-71.3832040">
        <ele>962.9</ele>
        <time>2020-11-15T15:30:18Z</time>
      </trkpt>
      <trkpt lat="-40.3187320" lon="-71.3832450">
        <ele>962.9</ele>
        <time>2020-11-15T15:30:19Z</time>
      </trkpt>
      <trkpt lat="-40.3187950" lon="-71.3832850">
        <ele>963.0</ele>
        <time>2020-11-15T15:30:20Z</time>
      </trkpt>
      <trkpt lat="-40.3188580" lon="-71.3833250">
        <ele>963.1</ele>
        <time>2020-11-15T15:30:21Z</time>
      </trkpt>
      <trkpt lat="-40.3189210" lon="-71.3833630">
        <ele>963.3</ele>
        <time>2020-11-15T15:30:22Z</time>
      </trkpt>
      <trkpt lat="-40.3189840" lon="-71.3833990">
        <ele>963.4</ele>
        <time>2020-11-15T15:30:23Z</time>
      </trkpt>
      <trkpt lat="-40.3190440" lon="-71.3834330">
        <ele>963.6</ele>
        <time>2020-11-15T15:30:24Z</time>
      </trkpt>
      <trkpt lat="-40.3191030" lon="-71.3834670">
        <ele>963.8</ele>
        <time>2020-11-15T15:30:25Z</time>
      </trkpt>
      <trkpt lat="-40.3191590" lon="-71.3835010">
        <ele>963.9</ele>
        <time>2020-11-15T15:30:26Z</time>
      </trkpt>
      <trkpt lat="-40.3192160" lon="-71.3835310">
        <ele>964.0</ele>
        <time>2020-11-15T15:30:27Z</time>
      </trkpt>
      <trkpt lat="-40.3192720" lon="-71.3835570">
        <ele>964.1</ele>
        <time>2020-11-15T15:30:28Z</time>
      </trkpt>
      <trkpt lat="-40.3193260" lon="-71.3835810">
        <ele>964.2</ele>
        <time>2020-11-15T15:30:29Z</time>
      </trkpt>
      <trkpt lat="-40.3193810" lon="-71.3836040">
        <ele>964.3</ele>
        <time>2020-11-15T15:30:30Z</time>
      </trkpt>
      <trkpt lat="-40.3194330" lon="-71.3836290">
        <ele>964.4</ele>
        <time>2020-11-15T15:30:31Z</time>
      </trkpt>
      <trkpt lat="-40.3194850" lon="-71.3836550">
        <ele>964.5</ele>
        <time>2020-11-15T15:30:32Z</time>
      </trkpt>
      <trkpt lat="-40.3195350" lon="-71.3836790">
        <ele>964.6</ele>
        <time>2020-11-15T15:30:33Z</time>
      </trkpt>
      <trkpt lat="-40.3195860" lon="-71.3837040">
        <ele>964.7</ele>
        <time>2020-11-15T15:30:34Z</time>
      </trkpt>
      <trkpt lat="-40.3196370" lon="-71.3837290">
        <ele>964.8</ele>
        <time>2020-11-15T15:30:35Z</time>
      </trkpt>
      <trkpt lat="-40.3196880" lon="-71.3837540">
        <ele>964.9</ele>
        <time>2020-11-15T15:30:36Z</time>
      </trkpt>
      <trkpt lat="-40.3197410" lon="-71.3837770">
        <ele>965.0</ele>
        <time>2020-11-15T15:30:37Z</time>
      </trkpt>
      <trkpt lat="-40.3197940" lon="-71.3838000">
        <ele>965.0</ele>
        <time>2020-11-15T15:30:38Z</time>
      </trkpt>
      <trkpt lat="-40.3198480" lon="-71.3838200">
        <ele>965.1</ele>
        <time>2020-11-15T15:30:39Z</time>
      </trkpt>
      <trkpt lat="-40.3199020" lon="-71.3838390">
        <ele>965.1</ele>
        <time>2020-11-15T15:30:40Z</time>
      </trkpt>
      <trkpt lat="-40.3199510" lon="-71.3838550">
        <ele>965.2</ele>
        <time>2020-11-15T15:30:41Z</time>
      </trkpt>
      <trkpt lat="-40.3199990" lon="-71.3838720">
        <ele>965.2</ele>
        <time>2020-11-15T15:30:42Z</time>
      </trkpt>
      <trkpt lat="-40.3200490" lon="-71.3838900">
        <ele>965.2</ele>
        <time>2020-11-15T15:30:43Z</time>
      </trkpt>
      <trkpt lat="-40.3201000" lon="-71.3839040">
        <ele>965.3</ele>
        <time>2020-11-15T15:30:44Z</time>
      </trkpt>
      <trkpt lat="-40.3201510" lon="-71.3839190">
        <ele>965.3</ele>
        <time>2020-11-15T15:30:45Z</time>
      </trkpt>
      <trkpt lat="-40.3202040" lon="-71.3839350">
        <ele>965.3</ele>
        <time>2020-11-15T15:30:46Z</time>
      </trkpt>
      <trkpt lat="-40.3202560" lon="-71.3839500">
        <ele>965.3</ele>
        <time>2020-11-15T15:30:47Z</time>
      </trkpt>
      <trkpt lat="-40.3203100" lon="-71.3839620">
        <ele>965.3</ele>
        <time>2020-11-15T15:30:48Z</time>
      </trkpt>
      <trkpt lat="-40.3203680" lon="-71.3839750">
        <ele>965.4</ele>
        <time>2020-11-15T15:30:49Z</time>
      </trkpt>
      <trkpt lat="-40.3204240" lon="-71.3839890">
        <ele>965.4</ele>
        <time>2020-11-15T15:30:50Z</time>
      </trkpt>
      <trkpt lat="-40.3204820" lon="-71.3840000">
        <ele>965.4</ele>
        <time>2020-11-15T15:30:51Z</time>
      </trkpt>
      <trkpt lat="-40.3205390" lon="-71.3840080">
        <ele>965.4</ele>
        <time>2020-11-15T15:30:52Z</time>
      </trkpt>
      <trkpt lat="-40.3205950" lon="-71.3840090">
        <ele>965.4</ele>
        <time>2020-11-15T15:30:53Z</time>
      </trkpt>
      <trkpt lat="-40.3206520" lon="-71.3840150">
        <ele>965.4</ele>
        <time>2020-11-15T15:30:54Z</time>
      </trkpt>
      <trkpt lat="-40.3207110" lon="-71.3840180">
        <ele>965.4</ele>
        <time>2020-11-15T15:30:55Z</time>
      </trkpt>
      <trkpt lat="-40.3207700" lon="-71.3840210">
        <ele>965.4</ele>
        <time>2020-11-15T15:30:56Z</time>
      </trkpt>
      <trkpt lat="-40.3208300" lon="-71.3840230">
        <ele>965.4</ele>
        <time>2020-11-15T15:30:57Z</time>
      </trkpt>
      <trkpt lat="-40.3208900" lon="-71.3840240">
        <ele>965.4</ele>
        <time>2020-11-15T15:30:58Z</time>
      </trkpt>
      <trkpt lat="-40.3209480" lon="-71.3840240">
        <ele>965.3</ele>
        <time>2020-11-15T15:30:59Z</time>
      </trkpt>
      <trkpt lat="-40.3210030" lon="-71.3840220">
        <ele>965.3</ele>
        <time>2020-11-15T15:31:00Z</time>
      </trkpt>
      <trkpt lat="-40.3210580" lon="-71.3840220">
        <ele>965.3</ele>
        <time>2020-11-15T15:31:01Z</time>
      </trkpt>
      <trkpt lat="-40.3211130" lon="-71.3840220">
        <ele>965.2</ele>
        <time>2020-11-15T15:31:02Z</time>
      </trkpt>
      <trkpt lat="-40.3211690" lon="-71.3840220">
        <ele>965.2</ele>
        <time>2020-11-15T15:31:03Z</time>
      </trkpt>
      <trkpt lat="-40.3212260" lon="-71.3840210">
        <ele>965.2</ele>
        <time>2020-11-15T15:31:04Z</time>
      </trkpt>
      <trkpt lat="-40.3212810" lon="-71.3840180">
        <ele>965.2</ele>
        <time>2020-11-15T15:31:05Z</time>
      </trkpt>
      <trkpt lat="-40.3213400" lon="-71.3840140">
        <ele>965.2</ele>
        <time>2020-11-15T15:31:06Z</time>
      </trkpt>
      <trkpt lat="-40.3213980" lon="-71.3840110">
        <ele>965.2</ele>
        <time>2020-11-15T15:31:07Z</time>
      </trkpt>
      <trkpt lat="-40.3214510" lon="-71.3840100">
        <ele>965.2</ele>
        <time>2020-11-15T15:31:08Z</time>
      </trkpt>
      <trkpt lat="-40.3215090" lon="-71.3840100">
        <ele>965.3</ele>
        <time>2020-11-15T15:31:09Z</time>
      </trkpt>
      <trkpt lat="-40.3215660" lon="-71.3840060">
        <ele>965.3</ele>
        <time>2020-11-15T15:31:10Z</time>
      </trkpt>
      <trkpt lat="-40.3216220" lon="-71.3840030">
        <ele>965.3</ele>
        <time>2020-11-15T15:31:11Z</time>
      </trkpt>
      <trkpt lat="-40.3216780" lon="-71.3839970">
        <ele>965.3</ele>
        <time>2020-11-15T15:31:12Z</time>
      </trkpt>
      <trkpt lat="-40.3217320" lon="-71.3839950">
        <ele>965.3</ele>
        <time>2020-11-15T15:31:13Z</time>
      </trkpt>
      <trkpt lat="-40.3217870" lon="-71.3839930">
        <ele>965.3</ele>
        <time>2020-11-15T15:31:14Z</time>
      </trkpt>
      <trkpt lat="-40.3218430" lon="-71.3839940">
        <ele>965.4</ele>
        <time>2020-11-15T15:31:15Z</time>
      </trkpt>
      <trkpt lat="-40.3219010" lon="-71.3839940">
        <ele>965.4</ele>
        <time>2020-11-15T15:31:16Z</time>
      </trkpt>
      <trkpt lat="-40.3219580" lon="-71.3839950">
        <ele>965.4</ele>
        <time>2020-11-15T15:31:17Z</time>
      </trkpt>
      <trkpt lat="-40.3220140" lon="-71.3839960">
        <ele>965.5</ele>
        <time>2020-11-15T15:31:18Z</time>
      </trkpt>
      <trkpt lat="-40.3220700" lon="-71.3839960">
        <ele>965.5</ele>
        <time>2020-11-15T15:31:19Z</time>
      </trkpt>
      <trkpt lat="-40.3221250" lon="-71.3839910">
        <ele>965.6</ele>
        <time>2020-11-15T15:31:20Z</time>
      </trkpt>
      <trkpt lat="-40.3221810" lon="-71.3839850">
        <ele>965.6</ele>
        <time>2020-11-15T15:31:21Z</time>
      </trkpt>
      <trkpt lat="-40.3222390" lon="-71.3839750">
        <ele>965.7</ele>
        <time>2020-11-15T15:31:22Z</time>
      </trkpt>
      <trkpt lat="-40.3222990" lon="-71.3839700">
        <ele>965.8</ele>
        <time>2020-11-15T15:31:23Z</time>
      </trkpt>
      <trkpt lat="-40.3223590" lon="-71.3839640">
        <ele>965.9</ele>
        <time>2020-11-15T15:31:24Z</time>
      </trkpt>
      <trkpt lat="-40.3224170" lon="-71.3839630">
        <ele>966.0</ele>
        <time>2020-11-15T15:31:25Z</time>
      </trkpt>
      <trkpt lat="-40.3224750" lon="-71.3839590">
        <ele>966.2</ele>
        <time>2020-11-15T15:31:26Z</time>
      </trkpt>
      <trkpt lat="-40.3225320" lon="-71.3839550">
        <ele>966.3</ele>
        <time>2020-11-15T15:31:27Z</time>
      </trkpt>
      <trkpt lat="-40.3225890" lon="-71.3839510">
        <ele>966.5</ele>
        <time>2020-11-15T15:31:28Z</time>
      </trkpt>
      <trkpt lat="-40.3226440" lon="-71.3839450">
        <ele>966.7</ele>
        <time>2020-11-15T15:31:29Z</time>
      </trkpt>
      <trkpt lat="-40.3226990" lon="-71.3839390">
        <ele>966.9</ele>
        <time>2020-11-15T15:31:30Z</time>
      </trkpt>
      <trkpt lat="-40.3227530" lon="-71.3839350">
        <ele>967.2</ele>
        <time>2020-11-15T15:31:31Z</time>
      </trkpt>
      <trkpt lat="-40.3228040" lon="-71.3839350">
        <ele>967.5</ele>
        <time>2020-11-15T15:31:32Z</time>
      </trkpt>
      <trkpt lat="-40.3228550" lon="-71.3839360">
        <ele>967.8</ele>
        <time>2020-11-15T15:31:33Z</time>
      </trkpt>
      <trkpt lat="-40.3229040" lon="-71.3839350">
        <ele>968.1</ele>
        <time>2020-11-15T15:31:34Z</time>
      </trkpt>
      <trkpt lat="-40.3229530" lon="-71.3839350">
        <ele>968.4</ele>
        <time>2020-11-15T15:31:35Z</time>
      </trkpt>
      <trkpt lat="-40.3229990" lon="-71.3839330">
        <ele>968.7</ele>
        <time>2020-11-15T15:31:36Z</time>
      </trkpt>
      <trkpt lat="-40.3230420" lon="-71.3839270">
        <ele>969.0</ele>
        <time>2020-11-15T15:31:37Z</time>
      </trkpt>
      <trkpt lat="-40.3230870" lon="-71.3839230">
        <ele>969.3</ele>
        <time>2020-11-15T15:31:38Z</time>
      </trkpt>
      <trkpt lat="-40.3231330" lon="-71.3839190">
        <ele>969.7</ele>
        <time>2020-11-15T15:31:39Z</time>
      </trkpt>
      <trkpt lat="-40.3231780" lon="-71.3839160">
        <ele>970.0</ele>
        <time>2020-11-15T15:31:40Z</time>
      </trkpt>
      <trkpt lat="-40.3232240" lon="-71.3839080">
        <ele>970.3</ele>
        <time>2020-11-15T15:31:41Z</time>
      </trkpt>
      <trkpt lat="-40.3232700" lon="-71.3839020">
        <ele>970.7</ele>
        <time>2020-11-15T15:31:42Z</time>
      </trkpt>
      <trkpt lat="-40.3233160" lon="-71.3839020">
        <ele>971.0</ele>
        <time>2020-11-15T15:31:43Z</time>
      </trkpt>
      <trkpt lat="-40.3233590" lon="-71.3839010">
        <ele>971.3</ele>
        <time>2020-11-15T15:31:44Z</time>
      </trkpt>
      <trkpt lat="-40.3234030" lon="-71.3838980">
        <ele>971.7</ele>
        <time>2020-11-15T15:31:45Z</time>
      </trkpt>
      <trkpt lat="-40.3234420" lon="-71.3838920">
        <ele>972.0</ele>
        <time>2020-11-15T15:31:46Z</time>
      </trkpt>
      <trkpt lat="-40.3234800" lon="-71.3838910">
        <ele>972.3</ele>
        <time>2020-11-15T15:31:47Z</time>
      </trkpt>
      <trkpt lat="-40.3235180" lon="-71.3838900">
        <ele>972.6</ele>
        <time>2020-11-15T15:31:48Z</time>
      </trkpt>
      <trkpt lat="-40.3235550" lon="-71.3838880">
        <ele>972.8</ele>
        <time>2020-11-15T15:31:49Z</time>
      </trkpt>
      <trkpt lat="-40.3235920" lon="-71.3838850">
        <ele>973.1</ele>
        <time>2020-11-15T15:31:50Z</time>
      </trkpt>
      <trkpt lat="-40.3236280" lon="-71.3838870">
        <ele>973.4</ele>
        <time>2020-11-15T15:31:51Z</time>
      </trkpt>
      <trkpt lat="-40.3236620" lon="-71.3838870">
        <ele>973.7</ele>
        <time>2020-11-15T15:31:52Z</time>
      </trkpt>
      <trkpt lat="-40.3236970" lon="-71.3838850">
        <ele>974.0</ele>
        <time>2020-11-15T15:31:53Z</time>
      </trkpt>
      <trkpt lat="-40.3237330" lon="-71.3838820">
        <ele>974.3</ele>
        <time>2020-11-15T15:31:54Z</time>
      </trkpt>
      <trkpt lat="-40.3237680" lon="-71.3838820">
        <ele>974.6</ele>
        <time>2020-11-15T15:31:55Z</time>
      </trkpt>
      <trkpt lat="-40.3238030" lon="-71.3838820">
        <ele>974.9</ele>
        <time>2020-11-15T15:31:56Z</time>
      </trkpt>
      <trkpt lat="-40.3238390" lon="-71.3838800">
        <ele>975.1</ele>
        <time>2020-11-15T15:31:57Z</time>
      </trkpt>
      <trkpt lat="-40.3238740" lon="-71.3838780">
        <ele>975.4</ele>
        <time>2020-11-15T15:31:58Z</time>
      </trkpt>
      <trkpt lat="-40.3239070" lon="-71.3838780">
        <ele>975.7</ele>
        <time>2020-11-15T15:31:59Z</time>
      </trkpt>
      <trkpt lat="-40.3239400" lon="-71.3838750">
        <ele>976.0</ele>
        <time>2020-11-15T15:32:00Z</time>
      </trkpt>
      <trkpt lat="-40.3239730" lon="-71.3838730">
        <ele>976.2</ele>
        <time>2020-11-15T15:32:01Z</time>
      </trkpt>
      <trkpt lat="-40.3240050" lon="-71.3838700">
        <ele>976.5</ele>
        <time>2020-11-15T15:32:02Z</time>
      </trkpt>
      <trkpt lat="-40.3240360" lon="-71.3838720">
        <ele>976.7</ele>
        <time>2020-11-15T15:32:03Z</time>
      </trkpt>
      <trkpt lat="-40.3240650" lon="-71.3838730">
        <ele>977.0</ele>
        <time>2020-11-15T15:32:04Z</time>
      </trkpt>
      <trkpt lat="-40.3240930" lon="-71.3838630">
        <ele>977.2</ele>
        <time>2020-11-15T15:32:05Z</time>
      </trkpt>
      <trkpt lat="-40.3241230" lon="-71.3838580">
        <ele>977.4</ele>
        <time>2020-11-15T15:32:06Z</time>
      </trkpt>
      <trkpt lat="-40.3241530" lon="-71.3838580">
        <ele>977.7</ele>
        <time>2020-11-15T15:32:07Z</time>
      </trkpt>
      <trkpt lat="-40.3241820" lon="-71.3838620">
        <ele>977.9</ele>
        <time>2020-11-15T15:32:08Z</time>
      </trkpt>
      <trkpt lat="-40.3242100" lon="-71.3838690">
        <ele>978.1</ele>
        <time>2020-11-15T15:32:09Z</time>
      </trkpt>
      <trkpt lat="-40.3242370" lon="-71.3838740">
        <ele>978.4</ele>
        <time>2020-11-15T15:32:10Z</time>
      </trkpt>
      <trkpt lat="-40.3242650" lon="-71.3838780">
        <ele>978.6</ele>
        <time>2020-11-15T15:32:11Z</time>
      </trkpt>
      <trkpt lat="-40.3242930" lon="-71.3838820">
        <ele>978.8</ele>
        <time>2020-11-15T15:32:12Z</time>
      </trkpt>
      <trkpt lat="-40.3243210" lon="-71.3838840">
        <ele>979.0</ele>
        <time>2020-11-15T15:32:13Z</time>
      </trkpt>
      <trkpt lat="-40.3243480" lon="-71.3838860">
        <ele>979.2</ele>
        <time>2020-11-15T15:32:14Z</time>
      </trkpt>
      <trkpt lat="-40.3243760" lon="-71.3838880">
        <ele>979.5</ele>
        <time>2020-11-15T15:32:15Z</time>
      </trkpt>
      <trkpt lat="-40.3244040" lon="-71.3838930">
        <ele>979.7</ele>
        <time>2020-11-15T15:32:16Z</time>
      </trkpt>
      <trkpt lat="-40.3244320" lon="-71.3838990">
        <ele>979.9</ele>
        <time>2020-11-15T15:32:17Z</time>
      </trkpt>
      <trkpt lat="-40.3244610" lon="-71.3839050">
        <ele>980.1</ele>
        <time>2020-11-15T15:32:18Z</time>
      </trkpt>
      <trkpt lat="-40.3244900" lon="-71.3839120">
        <ele>980.4</ele>
        <time>2020-11-15T15:32:19Z</time>
      </trkpt>
      <trkpt lat="-40.3245180" lon="-71.3839200">
        <ele>980.6</ele>
        <time>2020-11-15T15:32:20Z</time>
      </trkpt>
      <trkpt lat="-40.3245470" lon="-71.3839270">
        <ele>980.8</ele>
        <time>2020-11-15T15:32:21Z</time>
      </trkpt>
      <trkpt lat="-40.3245760" lon="-71.3839330">
        <ele>981.0</ele>
        <time>2020-11-15T15:32:22Z</time>
      </trkpt>
      <trkpt lat="-40.3246040" lon="-71.3839340">
        <ele>981.2</ele>
        <time>2020-11-15T15:32:23Z</time>
      </trkpt>
      <trkpt lat="-40.3246330" lon="-71.3839370">
        <ele>981.4</ele>
        <time>2020-11-15T15:32:24Z</time>
      </trkpt>
      <trkpt lat="-40.3246600" lon="-71.3839490">
        <ele>981.6</ele>
        <time>2020-11-15T15:32:25Z</time>
      </trkpt>
      <trkpt lat="-40.3246860" lon="-71.3839610">
        <ele>981.8</ele>
        <time>2020-11-15T15:32:26Z</time>
      </trkpt>
      <trkpt lat="-40.3247120" lon="-71.3839730">
        <ele>982.0</ele>
        <time>2020-11-15T15:32:27Z</time>
      </trkpt>
      <trkpt lat="-40.3247380" lon="-71.3839850">
        <ele>982.2</ele>
        <time>2020-11-15T15:32:28Z</time>
      </trkpt>
      <trkpt lat="-40.3247630" lon="-71.3839990">
        <ele>982.4</ele>
        <time>2020-11-15T15:32:29Z</time>
      </trkpt>
      <trkpt lat="-40.3247870" lon="-71.3840110">
        <ele>982.6</ele>
        <time>2020-11-15T15:32:30Z</time>
      </trkpt>
      <trkpt lat="-40.3248120" lon="-71.3840230">
        <ele>982.8</ele>
        <time>2020-11-15T15:32:31Z</time>
      </trkpt>
      <trkpt lat="-40.3248390" lon="-71.3840360">
        <ele>983.0</ele>
        <time>2020-11-15T15:32:32Z</time>
      </trkpt>
      <trkpt lat="-40.3248680" lon="-71.3840520">
        <ele>983.2</ele>
        <time>2020-11-15T15:32:33Z</time>
      </trkpt>
      <trkpt lat="-40.3248990" lon="-71.3840720">
        <ele>983.5</ele>
        <time>2020-11-15T15:32:34Z</time>
      </trkpt>
      <trkpt lat="-40.3249320" lon="-71.3840920">
        <ele>983.8</ele>
        <time>2020-11-15T15:32:35Z</time>
      </trkpt>
      <trkpt lat="-40.3249640" lon="-71.3841110">
        <ele>984.1</ele>
        <time>2020-11-15T15:32:36Z</time>
      </trkpt>
      <trkpt lat="-40.3249940" lon="-71.3841280">
        <ele>984.4</ele>
        <time>2020-11-15T15:32:37Z</time>
      </trkpt>
      <trkpt lat="-40.3250230" lon="-71.3841430">
        <ele>984.6</ele>
        <time>2020-11-15T15:32:38Z</time>
      </trkpt>
      <trkpt lat="-40.3250500" lon="-71.3841570">
        <ele>984.8</ele>
        <time>2020-11-15T15:32:39Z</time>
      </trkpt>
      <trkpt lat="-40.3250770" lon="-71.3841730">
        <ele>985.1</ele>
        <time>2020-11-15T15:32:40Z</time>
      </trkpt>
      <trkpt lat="-40.3251030" lon="-71.3841890">
        <ele>985.3</ele>
        <time>2020-11-15T15:32:41Z</time>
      </trkpt>
      <trkpt lat="-40.3251280" lon="-71.3842050">
        <ele>985.6</ele>
        <time>2020-11-15T15:32:42Z</time>
      </trkpt>
      <trkpt lat="-40.3251530" lon="-71.3842200">
        <ele>985.8</ele>
        <time>2020-11-15T15:32:43Z</time>
      </trkpt>
      <trkpt lat="-40.3251770" lon="-71.3842350">
        <ele>986.0</ele>
        <time>2020-11-15T15:32:44Z</time>
      </trkpt>
      <trkpt lat="-40.3252010" lon="-71.3842490">
        <ele>986.3</ele>
        <time>2020-11-15T15:32:45Z</time>
      </trkpt>
      <trkpt lat="-40.3252250" lon="-71.3842640">
        <ele>986.5</ele>
        <time>2020-11-15T15:32:46Z</time>
      </trkpt>
      <trkpt lat="-40.3252480" lon="-71.3842790">
        <ele>986.7</ele>
        <time>2020-11-15T15:32:47Z</time>
      </trkpt>
      <trkpt lat="-40.3252710" lon="-71.3842940">
        <ele>986.9</ele>
        <time>2020-11-15T15:32:48Z</time>
      </trkpt>
      <trkpt lat="-40.3252940" lon="-71.3843100">
        <ele>987.1</ele>
        <time>2020-11-15T15:32:49Z</time>
      </trkpt>
      <trkpt lat="-40.3253160" lon="-71.3843260">
        <ele>987.3</ele>
        <time>2020-11-15T15:32:50Z</time>
      </trkpt>
      <trkpt lat="-40.3253390" lon="-71.3843420">
        <ele>987.6</ele>
        <time>2020-11-15T15:32:51Z</time>
      </trkpt>
      <trkpt lat="-40.3253630" lon="-71.3843600">
        <ele>987.8</ele>
        <time>2020-11-15T15:32:52Z</time>
      </trkpt>
      <trkpt lat="-40.3253860" lon="-71.3843780">
        <ele>988.0</ele>
        <time>2020-11-15T15:32:53Z</time>
      </trkpt>
      <trkpt lat="-40.3254100" lon="-71.3843950">
        <ele>988.2</ele>
        <time>2020-11-15T15:32:54Z</time>
      </trkpt>
      <trkpt lat="-40.3254340" lon="-71.3844130">
        <ele>988.4</ele>
        <time>2020-11-15T15:32:55Z</time>
      </trkpt>
      <trkpt lat="-40.3254570" lon="-71.3844310">
        <ele>988.6</ele>
        <time>2020-11-15T15:32:56Z</time>
      </trkpt>
      <trkpt lat="-40.3254800" lon="-71.3844490">
        <ele>988.8</ele>
        <time>2020-11-15T15:32:57Z</time>
      </trkpt>
      <trkpt lat="-40.3255030" lon="-71.3844660">
        <ele>989.1</ele>
        <time>2020-11-15T15:32:58Z</time>
      </trkpt>
      <trkpt lat="-40.3255250" lon="-71.3844830">
        <ele>989.3</ele>
        <time>2020-11-15T15:32:59Z</time>
      </trkpt>
      <trkpt lat="-40.3255470" lon="-71.3845010">
        <ele>989.5</ele>
        <time>2020-11-15T15:33:00Z</time>
      </trkpt>
      <trkpt lat="-40.3255680" lon="-71.3845210">
        <ele>989.7</ele>
        <time>2020-11-15T15:33:01Z</time>
      </trkpt>
      <trkpt lat="-40.3255880" lon="-71.3845390">
        <ele>989.9</ele>
        <time>2020-11-15T15:33:02Z</time>
      </trkpt>
      <trkpt lat="-40.3256100" lon="-71.3845580">
        <ele>990.1</ele>
        <time>2020-11-15T15:33:03Z</time>
      </trkpt>
      <trkpt lat="-40.3256320" lon="-71.3845760">
        <ele>990.3</ele>
        <time>2020-11-15T15:33:04Z</time>
      </trkpt>
      <trkpt lat="-40.3256560" lon="-71.3845920">
        <ele>990.5</ele>
        <time>2020-11-15T15:33:05Z</time>
      </trkpt>
      <trkpt lat="-40.3256770" lon="-71.3846100">
        <ele>990.7</ele>
        <time>2020-11-15T15:33:06Z</time>
      </trkpt>
      <trkpt lat="-40.3256960" lon="-71.3846300">
        <ele>990.9</ele>
        <time>2020-11-15T15:33:07Z</time>
      </trkpt>
      <trkpt lat="-40.3257150" lon="-71.3846510">
        <ele>991.1</ele>
        <time>2020-11-15T15:33:08Z</time>
      </trkpt>
      <trkpt lat="-40.3257350" lon="-71.3846710">
        <ele>991.3</ele>
        <time>2020-11-15T15:33:09Z</time>
      </trkpt>
      <trkpt lat="-40.3257540" lon="-71.3846910">
        <ele>991.5</ele>
        <time>2020-11-15T15:33:10Z</time>
      </trkpt>
      <trkpt lat="-40.3257730" lon="-71.3847140">
        <ele>991.7</ele>
        <time>2020-11-15T15:33:11Z</time>
      </trkpt>
      <trkpt lat="-40.3257910" lon="-71.3847370">
        <ele>991.9</ele>
        <time>2020-11-15T15:33:12Z</time>
      </trkpt>
      <trkpt lat="-40.3258110" lon="-71.3847590">
        <ele>992.1</ele>
        <time>2020-11-15T15:33:13Z</time>
      </trkpt>
      <trkpt lat="-40.3258300" lon="-71.3847830">
        <ele>992.3</ele>
        <time>2020-11-15T15:33:14Z</time>
      </trkpt>
      <trkpt lat="-40.3258490" lon="-71.3848080">
        <ele>992.6</ele>
        <time>2020-11-15T15:33:15Z</time>
      </trkpt>
      <trkpt lat="-40.3258640" lon="-71.3848340">
        <ele>992.8</ele>
        <time>2020-11-15T15:33:16Z</time>
      </trkpt>
      <trkpt lat="-40.3258820" lon="-71.3848590">
        <ele>993.0</ele>
        <time>2020-11-15T15:33:17Z</time>
      </trkpt>
      <trkpt lat="-40.3259010" lon="-71.3848840">
        <ele>993.2</ele>
        <time>2020-11-15T15:33:18Z</time>
      </trkpt>
      <trkpt lat="-40.3259200" lon="-71.3849070">
        <ele>993.4</ele>
        <time>2020-11-15T15:33:19Z</time>
      </trkpt>
      <trkpt lat="-40.3259390" lon="-71.3849320">
        <ele>993.6</ele>
        <time>2020-11-15T15:33:20Z</time>
      </trkpt>
      <trkpt lat="-40.3259550" lon="-71.3849570">
        <ele>993.8</ele>
        <time>2020-11-15T15:33:21Z</time>
      </trkpt>
      <trkpt lat="-40.3259720" lon="-71.3849840">
        <ele>994.0</ele>
        <time>2020-11-15T15:33:22Z</time>
      </trkpt>
      <trkpt lat="-40.3259870" lon="-71.3850110">
        <ele>994.2</ele>
        <time>2020-11-15T15:33:23Z</time>
      </trkpt>
      <trkpt lat="-40.3260020" lon="-71.3850370">
        <ele>994.3</ele>
        <time>2020-11-15T15:33:24Z</time>
      </trkpt>
      <trkpt lat="-40.3260150" lon="-71.3850650">
        <ele>994.5</ele>
        <time>2020-11-15T15:33:25Z</time>
      </trkpt>
      <trkpt lat="-40.3260300" lon="-71.3850940">
        <ele>994.7</ele>
        <time>2020-11-15T15:33:26Z</time>
      </trkpt>
      <trkpt lat="-40.3260450" lon="-71.3851230">
        <ele>994.9</ele>
        <time>2020-11-15T15:33:27Z</time>
      </trkpt>
      <trkpt lat="-40.3260610" lon="-71.3851530">
        <ele>995.1</ele>
        <time>2020-11-15T15:33:28Z</time>
      </trkpt>
      <trkpt lat="-40.3260790" lon="-71.3851810">
        <ele>995.2</ele>
        <time>2020-11-15T15:33:29Z</time>
      </trkpt>
      <trkpt lat="-40.3260950" lon="-71.3852100">
        <ele>995.4</ele>
        <time>2020-11-15T15:33:30Z</time>
      </trkpt>
      <trkpt lat="-40.3261100" lon="-71.3852400">
        <ele>995.6</ele>
        <time>2020-11-15T15:33:31Z</time>
      </trkpt>
      <trkpt lat="-40.3261260" lon="-71.3852680">
        <ele>995.7</ele>
        <time>2020-11-15T15:33:32Z</time>
      </trkpt>
      <trkpt lat="-40.3261410" lon="-71.3852930">
        <ele>995.9</ele>
        <time>2020-11-15T15:33:33Z</time>
      </trkpt>
      <trkpt lat="-40.3261530" lon="-71.3853180">
        <ele>996.0</ele>
        <time>2020-11-15T15:33:34Z</time>
      </trkpt>
      <trkpt lat="-40.3261670" lon="-71.3853450">
        <ele>996.2</ele>
        <time>2020-11-15T15:33:35Z</time>
      </trkpt>
      <trkpt lat="-40.3261810" lon="-71.3853740">
        <ele>996.4</ele>
        <time>2020-11-15T15:33:36Z</time>
      </trkpt>
      <trkpt lat="-40.3261930" lon="-71.3854060">
        <ele>996.5</ele>
        <time>2020-11-15T15:33:37Z</time>
      </trkpt>
      <trkpt lat="-40.3262050" lon="-71.3854350">
        <ele>996.7</ele>
        <time>2020-11-15T15:33:38Z</time>
      </trkpt>
      <trkpt lat="-40.3262180" lon="-71.3854640">
        <ele>996.9</ele>
        <time>2020-11-15T15:33:39Z</time>
      </trkpt>
      <trkpt lat="-40.3262340" lon="-71.3854930">
        <ele>997.1</ele>
        <time>2020-11-15T15:33:40Z</time>
      </trkpt>
      <trkpt lat="-40.3262480" lon="-71.3855230">
        <ele>997.3</ele>
        <time>2020-11-15T15:33:41Z</time>
      </trkpt>
      <trkpt lat="-40.3262630" lon="-71.3855540">
        <ele>997.5</ele>
        <time>2020-11-15T15:33:42Z</time>
      </trkpt>
      <trkpt lat="-40.3262730" lon="-71.3855860">
        <ele>997.7</ele>
        <time>2020-11-15T15:33:43Z</time>
      </trkpt>
      <trkpt lat="-40.3262850" lon="-71.3856180">
        <ele>997.9</ele>
        <time>2020-11-15T15:33:44Z</time>
      </trkpt>
      <trkpt lat="-40.3262990" lon="-71.3856490">
        <ele>998.1</ele>
        <time>2020-11-15T15:33:45Z</time>
      </trkpt>
      <trkpt lat="-40.3263110" lon="-71.3856800">
        <ele>998.3</ele>
        <time>2020-11-15T15:33:46Z</time>
      </trkpt>
      <trkpt lat="-40.3263190" lon="-71.3857090">
        <ele>998.5</ele>
        <time>2020-11-15T15:33:47Z</time>
      </trkpt>
      <trkpt lat="-40.3263290" lon="-71.3857400">
        <ele>998.7</ele>
        <time>2020-11-15T15:33:48Z</time>
      </trkpt>
      <trkpt lat="-40.3263400" lon="-71.3857720">
        <ele>998.9</ele>
        <time>2020-11-15T15:33:49Z</time>
      </trkpt>
      <trkpt lat="-40.3263510" lon="-71.3858030">
        <ele>999.1</ele>
        <time>2020-11-15T15:33:50Z</time>
      </trkpt>
      <trkpt lat="-40.3263620" lon="-71.3858330">
        <ele>999.3</ele>
        <time>2020-11-15T15:33:51Z</time>
      </trkpt>
      <trkpt lat="-40.3263680" lon="-71.3858650">
        <ele>999.5</ele>
        <time>2020-11-15T15:33:52Z</time>
      </trkpt>
      <trkpt lat="-40.3263750" lon="-71.3859000">
        <ele>999.8</ele>
        <time>2020-11-15T15:33:53Z</time>
      </trkpt>
      <trkpt lat="-40.3263820" lon="-71.3859340">
        <ele>1000.0</ele>
        <time>2020-11-15T15:33:54Z</time>
      </trkpt>
      <trkpt lat="-40.3263910" lon="-71.3859660">
        <ele>1000.2</ele>
        <time>2020-11-15T15:33:55Z</time>
      </trkpt>
      <trkpt lat="-40.3264020" lon="-71.3859990">
        <ele>1000.4</ele>
        <time>2020-11-15T15:33:56Z</time>
      </trkpt>
      <trkpt lat="-40.3264120" lon="-71.3860340">
        <ele>1000.7</ele>
        <time>2020-11-15T15:33:57Z</time>
      </trkpt>
      <trkpt lat="-40.3264240" lon="-71.3860680">
        <ele>1000.9</ele>
        <time>2020-11-15T15:33:58Z</time>
      </trkpt>
      <trkpt lat="-40.3264330" lon="-71.3861040">
        <ele>1001.1</ele>
        <time>2020-11-15T15:33:59Z</time>
      </trkpt>
      <trkpt lat="-40.3264420" lon="-71.3861400">
        <ele>1001.4</ele>
        <time>2020-11-15T15:34:00Z</time>
      </trkpt>
      <trkpt lat="-40.3264470" lon="-71.3861730">
        <ele>1001.6</ele>
        <time>2020-11-15T15:34:01Z</time>
      </trkpt>
      <trkpt lat="-40.3264530" lon="-71.3862050">
        <ele>1001.8</ele>
        <time>2020-11-15T15:34:02Z</time>
      </trkpt>
      <trkpt lat="-40.3264590" lon="-71.3862410">
        <ele>1002.0</ele>
        <time>2020-11-15T15:34:03Z</time>
      </trkpt>
      <trkpt lat="-40.3264640" lon="-71.3862840">
        <ele>1002.2</ele>
        <time>2020-11-15T15:34:04Z</time>
      </trkpt>
      <trkpt lat="-40.3264690" lon="-71.3863300">
        <ele>1002.5</ele>
        <time>2020-11-15T15:34:05Z</time>
      </trkpt>
      <trkpt lat="-40.3264780" lon="-71.3863760">
        <ele>1002.8</ele>
        <time>2020-11-15T15:34:06Z</time>
      </trkpt>
      <trkpt lat="-40.3264860" lon="-71.3864210">
        <ele>1003.1</ele>
        <time>2020-11-15T15:34:07Z</time>
      </trkpt>
      <trkpt lat="-40.3264950" lon="-71.3864640">
        <ele>1003.4</ele>
        <time>2020-11-15T15:34:08Z</time>
      </trkpt>
      <trkpt lat="-40.3265010" lon="-71.3865040">
        <ele>1003.7</ele>
        <time>2020-11-15T15:34:09Z</time>
      </trkpt>
      <trkpt lat="-40.3265060" lon="-71.3865420">
        <ele>1003.9</ele>
        <time>2020-11-15T15:34:10Z</time>
      </trkpt>
      <trkpt lat="-40.3265140" lon="-71.3865800">
        <ele>1004.2</ele>
        <time>2020-11-15T15:34:11Z</time>
      </trkpt>
      <trkpt lat="-40.3265230" lon="-71.3866150">
        <ele>1004.4</ele>
        <time>2020-11-15T15:34:12Z</time>
      </trkpt>
      <trkpt lat="-40.3265280" lon="-71.3866500">
        <ele>1004.6</ele>
        <time>2020-11-15T15:34:13Z</time>
      </trkpt>
      <trkpt lat="-40.3265330" lon="-71.3866850">
        <ele>1004.9</ele>
        <time>2020-11-15T15:34:14Z</time>
      </trkpt>
      <trkpt lat="-40.3265390" lon="-71.3867200">
        <ele>1005.1</ele>
        <time>2020-11-15T15:34:15Z</time>
      </trkpt>
      <trkpt lat="-40.3265450" lon="-71.3867550">
        <ele>1005.3</ele>
        <time>2020-11-15T15:34:16Z</time>
      </trkpt>
      <trkpt lat="-40.3265480" lon="-71.3867910">
        <ele>1005.6</ele>
        <time>2020-11-15T15:34:17Z</time>
      </trkpt>
      <trkpt lat="-40.3265550" lon="-71.3868260">
        <ele>1005.8</ele>
        <time>2020-11-15T15:34:18Z</time>
      </trkpt>
      <trkpt lat="-40.3265610" lon="-71.3868630">
        <ele>1006.0</ele>
        <time>2020-11-15T15:34:19Z</time>
      </trkpt>
      <trkpt lat="-40.3265650" lon="-71.3868990">
        <ele>1006.3</ele>
        <time>2020-11-15T15:34:20Z</time>
      </trkpt>
      <trkpt lat="-40.3265700" lon="-71.3869350">
        <ele>1006.5</ele>
        <time>2020-11-15T15:34:21Z</time>
      </trkpt>
      <trkpt lat="-40.3265740" lon="-71.3869700">
        <ele>1006.7</ele>
        <time>2020-11-15T15:34:22Z</time>
      </trkpt>
      <trkpt lat="-40.3265780" lon="-71.3870040">
        <ele>1006.9</ele>
        <time>2020-11-15T15:34:23Z</time>
      </trkpt>
      <trkpt lat="-40.3265820" lon="-71.3870410">
        <ele>1007.2</ele>
        <time>2020-11-15T15:34:24Z</time>
      </trkpt>
      <trkpt lat="-40.3265840" lon="-71.3870780">
        <ele>1007.4</ele>
        <time>2020-11-15T15:34:25Z</time>
      </trkpt>
      <trkpt lat="-40.3265870" lon="-71.3871150">
        <ele>1007.6</ele>
        <time>2020-11-15T15:34:26Z</time>
      </trkpt>
      <trkpt lat="-40.3265900" lon="-71.3871540">
        <ele>1007.9</ele>
        <time>2020-11-15T15:34:27Z</time>
      </trkpt>
      <trkpt lat="-40.3265940" lon="-71.3871910">
        <ele>1008.1</ele>
        <time>2020-11-15T15:34:28Z</time>
      </trkpt>
      <trkpt lat="-40.3265980" lon="-71.3872250">
        <ele>1008.3</ele>
        <time>2020-11-15T15:34:29Z</time>
      </trkpt>
      <trkpt lat="-40.3266010" lon="-71.3872610">
        <ele>1008.6</ele>
        <time>2020-11-15T15:34:30Z</time>
      </trkpt>
      <trkpt lat="-40.3266040" lon="-71.3872970">
        <ele>1008.8</ele>
        <time>2020-11-15T15:34:31Z</time>
      </trkpt>
      <trkpt lat="-40.3266060" lon="-71.3873320">
        <ele>1009.0</ele>
        <time>2020-11-15T15:34:32Z</time>
      </trkpt>
      <trkpt lat="-40.3266070" lon="-71.3873670">
        <ele>1009.2</ele>
        <time>2020-11-15T15:34:33Z</time>
      </trkpt>
      <trkpt lat="-40.3266110" lon="-71.3874030">
        <ele>1009.5</ele>
        <time>2020-11-15T15:34:34Z</time>
      </trkpt>
      <trkpt lat="-40.3266120" lon="-71.3874400">
        <ele>1009.7</ele>
        <time>2020-11-15T15:34:35Z</time>
      </trkpt>
      <trkpt lat="-40.3266150" lon="-71.3874770">
        <ele>1009.9</ele>
        <time>2020-11-15T15:34:36Z</time>
      </trkpt>
      <trkpt lat="-40.3266150" lon="-71.3875140">
        <ele>1010.1</ele>
        <time>2020-11-15T15:34:37Z</time>
      </trkpt>
      <trkpt lat="-40.3266160" lon="-71.3875510">
        <ele>1010.4</ele>
        <time>2020-11-15T15:34:38Z</time>
      </trkpt>
      <trkpt lat="-40.3266150" lon="-71.3875870">
        <ele>1010.6</ele>
        <time>2020-11-15T15:34:39Z</time>
      </trkpt>
      <trkpt lat="-40.3266160" lon="-71.3876220">
        <ele>1010.8</ele>
        <time>2020-11-15T15:34:40Z</time>
      </trkpt>
      <trkpt lat="-40.3266170" lon="-71.3876600">
        <ele>1011.0</ele>
        <time>2020-11-15T15:34:41Z</time>
      </trkpt>
      <trkpt lat="-40.3266200" lon="-71.3876960">
        <ele>1011.3</ele>
        <time>2020-11-15T15:34:42Z</time>
      </trkpt>
      <trkpt lat="-40.3266200" lon="-71.3877330">
        <ele>1011.5</ele>
        <time>2020-11-15T15:34:43Z</time>
      </trkpt>
      <trkpt lat="-40.3266210" lon="-71.3877710">
        <ele>1011.7</ele>
        <time>2020-11-15T15:34:44Z</time>
      </trkpt>
      <trkpt lat="-40.3266230" lon="-71.3878070">
        <ele>1011.9</ele>
        <time>2020-11-15T15:34:45Z</time>
      </trkpt>
      <trkpt lat="-40.3266240" lon="-71.3878440">
        <ele>1012.1</ele>
        <time>2020-11-15T15:34:46Z</time>
      </trkpt>
      <trkpt lat="-40.3266210" lon="-71.3878800">
        <ele>1012.3</ele>
        <time>2020-11-15T15:34:47Z</time>
      </trkpt>
      <trkpt lat="-40.3266200" lon="-71.3879150">
        <ele>1012.5</ele>
        <time>2020-11-15T15:34:48Z</time>
      </trkpt>
      <trkpt lat="-40.3266220" lon="-71.3879510">
        <ele>1012.7</ele>
        <time>2020-11-15T15:34:49Z</time>
      </trkpt>
      <trkpt lat="-40.3266210" lon="-71.3879850">
        <ele>1012.9</ele>
        <time>2020-11-15T15:34:50Z</time>
      </trkpt>
      <trkpt lat="-40.3266210" lon="-71.3880200">
        <ele>1013.0</ele>
        <time>2020-11-15T15:34:51Z</time>
      </trkpt>
      <trkpt lat="-40.3266220" lon="-71.3880560">
        <ele>1013.2</ele>
        <time>2020-11-15T15:34:52Z</time>
      </trkpt>
      <trkpt lat="-40.3266190" lon="-71.3880920">
        <ele>1013.4</ele>
        <time>2020-11-15T15:34:53Z</time>
      </trkpt>
      <trkpt lat="-40.3266150" lon="-71.3881280">
        <ele>1013.5</ele>
        <time>2020-11-15T15:34:54Z</time>
      </trkpt>
      <trkpt lat="-40.3266090" lon="-71.3881630">
        <ele>1013.7</ele>
        <time>2020-11-15T15:34:55Z</time>
      </trkpt>
      <trkpt lat="-40.3266030" lon="-71.3881990">
        <ele>1013.9</ele>
        <time>2020-11-15T15:34:56Z</time>
      </trkpt>
      <trkpt lat="-40.3266000" lon="-71.3882370">
        <ele>1014.0</ele>
        <time>2020-11-15T15:34:57Z</time>
      </trkpt>
      <trkpt lat="-40.3265940" lon="-71.3882720">
        <ele>1014.2</ele>
        <time>2020-11-15T15:34:58Z</time>
      </trkpt>
      <trkpt lat="-40.3265870" lon="-71.3883070">
        <ele>1014.4</ele>
        <time>2020-11-15T15:34:59Z</time>
      </trkpt>
      <trkpt lat="-40.3265840" lon="-71.3883420">
        <ele>1014.5</ele>
        <time>2020-11-15T15:35:00Z</time>
      </trkpt>
      <trkpt lat="-40.3265790" lon="-71.3883770">
        <ele>1014.6</ele>
        <time>2020-11-15T15:35:01Z</time>
      </trkpt>
      <trkpt lat="-40.3265720" lon="-71.3884130">
        <ele>1014.8</ele>
        <time>2020-11-15T15:35:02Z</time>
      </trkpt>
      <trkpt lat="-40.3265640" lon="-71.3884500">
        <ele>1014.9</ele>
        <time>2020-11-15T15:35:03Z</time>
      </trkpt>
      <trkpt lat="-40.3265560" lon="-71.3884870">
        <ele>1015.1</ele>
        <time>2020-11-15T15:35:04Z</time>
      </trkpt>
      <trkpt lat="-40.3265510" lon="-71.3885230">
        <ele>1015.2</ele>
        <time>2020-11-15T15:35:05Z</time>
      </trkpt>
      <trkpt lat="-40.3265440" lon="-71.3885580">
        <ele>1015.3</ele>
        <time>2020-11-15T15:35:06Z</time>
      </trkpt>
      <trkpt lat="-40.3265370" lon="-71.3885930">
        <ele>1015.4</ele>
        <time>2020-11-15T15:35:07Z</time>
      </trkpt>
      <trkpt lat="-40.3265320" lon="-71.3886270">
        <ele>1015.5</ele>
        <time>2020-11-15T15:35:08Z</time>
      </trkpt>
      <trkpt lat="-40.3265270" lon="-71.3886610">
        <ele>1015.6</ele>
        <time>2020-11-15T15:35:09Z</time>
      </trkpt>
      <trkpt lat="-40.3265190" lon="-71.3886940">
        <ele>1015.7</ele>
        <time>2020-11-15T15:35:10Z</time>
      </trkpt>
      <trkpt lat="-40.3265030" lon="-71.3887240">
        <ele>1015.7</ele>
        <time>2020-11-15T15:35:11Z</time>
      </trkpt>
      <trkpt lat="-40.3264920" lon="-71.3887570">
        <ele>1015.8</ele>
        <time>2020-11-15T15:35:12Z</time>
      </trkpt>
      <trkpt lat="-40.3264830" lon="-71.3887920">
        <ele>1015.9</ele>
        <time>2020-11-15T15:35:13Z</time>
      </trkpt>
      <trkpt lat="-40.3264770" lon="-71.3888280">
        <ele>1015.9</ele>
        <time>2020-11-15T15:35:14Z</time>
      </trkpt>
      <trkpt lat="-40.3264710" lon="-71.3888650">
        <ele>1016.0</ele>
        <time>2020-11-15T15:35:15Z</time>
      </trkpt>
      <trkpt lat="-40.3264640" lon="-71.3889040">
        <ele>1016.0</ele>
        <time>2020-11-15T15:35:16Z</time>
      </trkpt>
      <trkpt lat="-40.3264500" lon="-71.3889430">
        <ele>1016.0</ele>
        <time>2020-11-15T15:35:17Z</time>
      </trkpt>
      <trkpt lat="-40.3264320" lon="-71.3889840">
        <ele>1016.1</ele>
        <time>2020-11-15T15:35:18Z</time>
      </trkpt>
      <trkpt lat="-40.3264190" lon="-71.3890280">
        <ele>1016.1</ele>
        <time>2020-11-15T15:35:19Z</time>
      </trkpt>
      <trkpt lat="-40.3264080" lon="-71.3890740">
        <ele>1016.1</ele>
        <time>2020-11-15T15:35:20Z</time>
      </trkpt>
      <trkpt lat="-40.3263980" lon="-71.3891220">
        <ele>1016.1</ele>
        <time>2020-11-15T15:35:21Z</time>
      </trkpt>
      <trkpt lat="-40.3263880" lon="-71.3891700">
        <ele>1016.1</ele>
        <time>2020-11-15T15:35:22Z</time>
      </trkpt>
      <trkpt lat="-40.3263770" lon="-71.3892180">
        <ele>1016.1</ele>
        <time>2020-11-15T15:35:23Z</time>
      </trkpt>
      <trkpt lat="-40.3263650" lon="-71.3892670">
        <ele>1016.0</ele>
        <time>2020-11-15T15:35:24Z</time>
      </trkpt>
      <trkpt lat="-40.3263530" lon="-71.3893170">
        <ele>1016.0</ele>
        <time>2020-11-15T15:35:25Z</time>
      </trkpt>
      <trkpt lat="-40.3263420" lon="-71.3893680">
        <ele>1015.9</ele>
        <time>2020-11-15T15:35:26Z</time>
      </trkpt>
      <trkpt lat="-40.3263310" lon="-71.3894190">
        <ele>1015.8</ele>
        <time>2020-11-15T15:35:27Z</time>
      </trkpt>
      <trkpt lat="-40.3263180" lon="-71.3894710">
        <ele>1015.7</ele>
        <time>2020-11-15T15:35:28Z</time>
      </trkpt>
      <trkpt lat="-40.3263030" lon="-71.3895230">
        <ele>1015.6</ele>
        <time>2020-11-15T15:35:29Z</time>
      </trkpt>
      <trkpt lat="-40.3262900" lon="-71.3895780">
        <ele>1015.4</ele>
        <time>2020-11-15T15:35:30Z</time>
      </trkpt>
      <trkpt lat="-40.3262790" lon="-71.3896360">
        <ele>1015.2</ele>
        <time>2020-11-15T15:35:31Z</time>
      </trkpt>
      <trkpt lat="-40.3262680" lon="-71.3896970">
        <ele>1015.0</ele>
        <time>2020-11-15T15:35:32Z</time>
      </trkpt>
      <trkpt lat="-40.3262540" lon="-71.3897590">
        <ele>1014.8</ele>
        <time>2020-11-15T15:35:33Z</time>
      </trkpt>
      <trkpt lat="-40.3262360" lon="-71.3898220">
        <ele>1014.5</ele>
        <time>2020-11-15T15:35:34Z</time>
      </trkpt>
      <trkpt lat="-40.3262180" lon="-71.3898880">
        <ele>1014.3</ele>
        <time>2020-11-15T15:35:35Z</time>
      </trkpt>
      <trkpt lat="-40.3262030" lon="-71.3899580">
        <ele>1014.0</ele>
        <time>2020-11-15T15:35:36Z</time>
      </trkpt>
      <trkpt lat="-40.3261880" lon="-71.3900310">
        <ele>1013.7</ele>
        <time>2020-11-15T15:35:37Z</time>
      </trkpt>
      <trkpt lat="-40.3261710" lon="-71.3901070">
        <ele>1013.4</ele>
        <time>2020-11-15T15:35:38Z</time>
      </trkpt>
      <trkpt lat="-40.3261520" lon="-71.3901840">
        <ele>1013.1</ele>
        <time>2020-11-15T15:35:39Z</time>
      </trkpt>
      <trkpt lat="-40.3261340" lon="-71.3902630">
        <ele>1012.7</ele>
        <time>2020-11-15T15:35:40Z</time>
      </trkpt>
      <trkpt lat="-40.3261150" lon="-71.3903440">
        <ele>1012.4</ele>
        <time>2020-11-15T15:35:41Z</time>
      </trkpt>
      <trkpt lat="-40.3260980" lon="-71.3904290">
        <ele>1012.1</ele>
        <time>2020-11-15T15:35:42Z</time>
      </trkpt>
      <trkpt lat="-40.3260800" lon="-71.3905160">
        <ele>1011.7</ele>
        <time>2020-11-15T15:35:43Z</time>
      </trkpt>
      <trkpt lat="-40.3260600" lon="-71.3906050">
        <ele>1011.3</ele>
        <time>2020-11-15T15:35:44Z</time>
      </trkpt>
      <trkpt lat="-40.3260390" lon="-71.3906940">
        <ele>1010.9</ele>
        <time>2020-11-15T15:35:45Z</time>
      </trkpt>
      <trkpt lat="-40.3260170" lon="-71.3907840">
        <ele>1010.5</ele>
        <time>2020-11-15T15:35:46Z</time>
      </trkpt>
      <trkpt lat="-40.3259940" lon="-71.3908740">
        <ele>1010.2</ele>
        <time>2020-11-15T15:35:47Z</time>
      </trkpt>
      <trkpt lat="-40.3259730" lon="-71.3909650">
        <ele>1009.8</ele>
        <time>2020-11-15T15:35:48Z</time>
      </trkpt>
      <trkpt lat="-40.3259550" lon="-71.3910580">
        <ele>1009.4</ele>
        <time>2020-11-15T15:35:49Z</time>
      </trkpt>
      <trkpt lat="-40.3259390" lon="-71.3911530">
        <ele>1009.1</ele>
        <time>2020-11-15T15:35:50Z</time>
      </trkpt>
      <trkpt lat="-40.3259220" lon="-71.3912470">
        <ele>1008.8</ele>
        <time>2020-11-15T15:35:51Z</time>
      </trkpt>
      <trkpt lat="-40.3259030" lon="-71.3913410">
        <ele>1008.5</ele>
        <time>2020-11-15T15:35:52Z</time>
      </trkpt>
      <trkpt lat="-40.3258860" lon="-71.3914340">
        <ele>1008.3</ele>
        <time>2020-11-15T15:35:53Z</time>
      </trkpt>
      <trkpt lat="-40.3258720" lon="-71.3915270">
        <ele>1008.1</ele>
        <time>2020-11-15T15:35:54Z</time>
      </trkpt>
      <trkpt lat="-40.3258610" lon="-71.3916200">
        <ele>1007.9</ele>
        <time>2020-11-15T15:35:55Z</time>
      </trkpt>
      <trkpt lat="-40.3258520" lon="-71.3917120">
        <ele>1007.8</ele>
        <time>2020-11-15T15:35:56Z</time>
      </trkpt>
      <trkpt lat="-40.3258460" lon="-71.3918020">
        <ele>1007.7</ele>
        <time>2020-11-15T15:35:57Z</time>
      </trkpt>
      <trkpt lat="-40.3258420" lon="-71.3918890">
        <ele>1007.7</ele>
        <time>2020-11-15T15:35:58Z</time>
      </trkpt>
      <trkpt lat="-40.3258430" lon="-71.3919740">
        <ele>1007.6</ele>
        <time>2020-11-15T15:35:59Z</time>
      </trkpt>
      <trkpt lat="-40.3258450" lon="-71.3920570">
        <ele>1007.6</ele>
        <time>2020-11-15T15:36:00Z</time>
      </trkpt>
      <trkpt lat="-40.3258500" lon="-71.3921360">
        <ele>1007.5</ele>
        <time>2020-11-15T15:36:01Z</time>
      </trkpt>
      <trkpt lat="-40.3258580" lon="-71.3922120">
        <ele>1007.5</ele>
        <time>2020-11-15T15:36:02Z</time>
      </trkpt>
      <trkpt lat="-40.3258660" lon="-71.3922860">
        <ele>1007.4</ele>
        <time>2020-11-15T15:36:03Z</time>
      </trkpt>
      <trkpt lat="-40.3258760" lon="-71.3923580">
        <ele>1007.4</ele>
        <time>2020-11-15T15:36:04Z</time>
      </trkpt>
      <trkpt lat="-40.3258890" lon="-71.3924260">
        <ele>1007.4</ele>
        <time>2020-11-15T15:36:05Z</time>
      </trkpt>
      <trkpt lat="-40.3259030" lon="-71.3924930">
        <ele>1007.4</ele>
        <time>2020-11-15T15:36:06Z</time>
      </trkpt>
      <trkpt lat="-40.3259190" lon="-71.3925600">
        <ele>1007.4</ele>
        <time>2020-11-15T15:36:07Z</time>
      </trkpt>
      <trkpt lat="-40.3259350" lon="-71.3926280">
        <ele>1007.4</ele>
        <time>2020-11-15T15:36:08Z</time>
      </trkpt>
      <trkpt lat="-40.3259520" lon="-71.3926960">
        <ele>1007.4</ele>
        <time>2020-11-15T15:36:09Z</time>
      </trkpt>
      <trkpt lat="-40.3259720" lon="-71.3927630">
        <ele>1007.4</ele>
        <time>2020-11-15T15:36:10Z</time>
      </trkpt>
      <trkpt lat="-40.3259930" lon="-71.3928290">
        <ele>1007.4</ele>
        <time>2020-11-15T15:36:11Z</time>
      </trkpt>
      <trkpt lat="-40.3260170" lon="-71.3928920">
        <ele>1007.4</ele>
        <time>2020-11-15T15:36:12Z</time>
      </trkpt>
      <trkpt lat="-40.3260460" lon="-71.3929510">
        <ele>1007.4</ele>
        <time>2020-11-15T15:36:13Z</time>
      </trkpt>
      <trkpt lat="-40.3260770" lon="-71.3930030">
        <ele>1007.4</ele>
        <time>2020-11-15T15:36:14Z</time>
      </trkpt>
      <trkpt lat="-40.3261090" lon="-71.3930590">
        <ele>1007.5</ele>
        <time>2020-11-15T15:36:15Z</time>
      </trkpt>
      <trkpt lat="-40.3261360" lon="-71.3931170">
        <ele>1007.5</ele>
        <time>2020-11-15T15:36:16Z</time>
      </trkpt>
      <trkpt lat="-40.3261620" lon="-71.3931740">
        <ele>1007.5</ele>
        <time>2020-11-15T15:36:17Z</time>
      </trkpt>
      <trkpt lat="-40.3261930" lon="-71.3932280">
        <ele>1007.5</ele>
        <time>2020-11-15T15:36:18Z</time>
      </trkpt>
      <trkpt lat="-40.3262260" lon="-71.3932780">
        <ele>1007.5</ele>
        <time>2020-11-15T15:36:19Z</time>
      </trkpt>
      <trkpt lat="-40.3262600" lon="-71.3933260">
        <ele>1007.5</ele>
        <time>2020-11-15T15:36:20Z</time>
      </trkpt>
      <trkpt lat="-40.3262930" lon="-71.3933740">
        <ele>1007.5</ele>
        <time>2020-11-15T15:36:21Z</time>
      </trkpt>
      <trkpt lat="-40.3263220" lon="-71.3934200">
        <ele>1007.6</ele>
        <time>2020-11-15T15:36:22Z</time>
      </trkpt>
      <trkpt lat="-40.3263500" lon="-71.3934630">
        <ele>1007.6</ele>
        <time>2020-11-15T15:36:23Z</time>
      </trkpt>
      <trkpt lat="-40.3263800" lon="-71.3935020">
        <ele>1007.7</ele>
        <time>2020-11-15T15:36:24Z</time>
      </trkpt>
      <trkpt lat="-40.3264090" lon="-71.3935380">
        <ele>1007.7</ele>
        <time>2020-11-15T15:36:25Z</time>
      </trkpt>
      <trkpt lat="-40.3264360" lon="-71.3935770">
        <ele>1007.8</ele>
        <time>2020-11-15T15:36:26Z</time>
      </trkpt>
      <trkpt lat="-40.3264630" lon="-71.3936140">
        <ele>1007.8</ele>
        <time>2020-11-15T15:36:27Z</time>
      </trkpt>
      <trkpt lat="-40.3264910" lon="-71.3936480">
        <ele>1007.9</ele>
        <time>2020-11-15T15:36:28Z</time>
      </trkpt>
      <trkpt lat="-40.3265200" lon="-71.3936810">
        <ele>1008.0</ele>
        <time>2020-11-15T15:36:29Z</time>
      </trkpt>
      <trkpt lat="-40.3265480" lon="-71.3937140">
        <ele>1008.1</ele>
        <time>2020-11-15T15:36:30Z</time>
      </trkpt>
      <trkpt lat="-40.3265770" lon="-71.3937440">
        <ele>1008.2</ele>
        <time>2020-11-15T15:36:31Z</time>
      </trkpt>
      <trkpt lat="-40.3266050" lon="-71.3937720">
        <ele>1008.3</ele>
        <time>2020-11-15T15:36:32Z</time>
      </trkpt>
      <trkpt lat="-40.3266310" lon="-71.3938010">
        <ele>1008.4</ele>
        <time>2020-11-15T15:36:33Z</time>
      </trkpt>
      <trkpt lat="-40.3266580" lon="-71.3938310">
        <ele>1008.5</ele>
        <time>2020-11-15T15:36:34Z</time>
      </trkpt>
      <trkpt lat="-40.3266840" lon="-71.3938590">
        <ele>1008.6</ele>
        <time>2020-11-15T15:36:35Z</time>
      </trkpt>
      <trkpt lat="-40.3267110" lon="-71.3938870">
        <ele>1008.7</ele>
        <time>2020-11-15T15:36:36Z</time>
      </trkpt>
      <trkpt lat="-40.3267400" lon="-71.3939150">
        <ele>1008.8</ele>
        <time>2020-11-15T15:36:37Z</time>
      </trkpt>
      <trkpt lat="-40.3267670" lon="-71.3939450">
        <ele>1009.0</ele>
        <time>2020-11-15T15:36:38Z</time>
      </trkpt>
      <trkpt lat="-40.3267950" lon="-71.3939730">
        <ele>1009.1</ele>
        <time>2020-11-15T15:36:39Z</time>
      </trkpt>
      <trkpt lat="-40.3268220" lon="-71.3940000">
        <ele>1009.2</ele>
        <time>2020-11-15T15:36:40Z</time>
      </trkpt>
      <trkpt lat="-40.3268480" lon="-71.3940280">
        <ele>1009.3</ele>
        <time>2020-11-15T15:36:41Z</time>
      </trkpt>
      <trkpt lat="-40.3268700" lon="-71.3940530">
        <ele>1009.4</ele>
        <time>2020-11-15T15:36:42Z</time>
      </trkpt>
      <trkpt lat="-40.3268940" lon="-71.3940780">
        <ele>1009.5</ele>
        <time>2020-11-15T15:36:43Z</time>
      </trkpt>
      <trkpt lat="-40.3269180" lon="-71.3941030">
        <ele>1009.6</ele>
        <time>2020-11-15T15:36:44Z</time>
      </trkpt>
      <trkpt lat="-40.3269420" lon="-71.3941270">
        <ele>1009.7</ele>
        <time>2020-11-15T15:36:45Z</time>
      </trkpt>
      <trkpt lat="-40.3269660" lon="-71.3941520">
        <ele>1009.8</ele>
        <time>2020-11-15T15:36:46Z</time>
      </trkpt>
      <trkpt lat="-40.3269900" lon="-71.3941740">
        <ele>1010.0</ele>
        <time>2020-11-15T15:36:47Z</time>
      </trkpt>
      <trkpt lat="-40.3270150" lon="-71.3941990">
        <ele>1010.1</ele>
        <time>2020-11-15T15:36:48Z</time>
      </trkpt>
      <trkpt lat="-40.3270400" lon="-71.3942250">
        <ele>1010.2</ele>
        <time>2020-11-15T15:36:49Z</time>
      </trkpt>
      <trkpt lat="-40.3270650" lon="-71.3942520">
        <ele>1010.3</ele>
        <time>2020-11-15T15:36:50Z</time>
      </trkpt>
      <trkpt lat="-40.3270920" lon="-71.3942790">
        <ele>1010.4</ele>
        <time>2020-11-15T15:36:51Z</time>
      </trkpt>
      <trkpt lat="-40.3271170" lon="-71.3943050">
        <ele>1010.6</ele>
        <time>2020-11-15T15:36:52Z</time>
      </trkpt>
      <trkpt lat="-40.3271440" lon="-71.3943330">
        <ele>1010.7</ele>
        <time>2020-11-15T15:36:53Z</time>
      </trkpt>
      <trkpt lat="-40.3271710" lon="-71.3943610">
        <ele>1010.8</ele>
        <time>2020-11-15T15:36:54Z</time>
      </trkpt>
      <trkpt lat="-40.3272050" lon="-71.3943890">
        <ele>1011.0</ele>
        <time>2020-11-15T15:36:55Z</time>
      </trkpt>
      <trkpt lat="-40.3272330" lon="-71.3944190">
        <ele>1011.2</ele>
        <time>2020-11-15T15:36:56Z</time>
      </trkpt>
      <trkpt lat="-40.3272600" lon="-71.3944510">
        <ele>1011.3</ele>
        <time>2020-11-15T15:36:57Z</time>
      </trkpt>
      <trkpt lat="-40.3272900" lon="-71.3944820">
        <ele>1011.5</ele>
        <time>2020-11-15T15:36:58Z</time>
      </trkpt>
      <trkpt lat="-40.3273230" lon="-71.3945120">
        <ele>1011.7</ele>
        <time>2020-11-15T15:36:59Z</time>
      </trkpt>
      <trkpt lat="-40.3273500" lon="-71.3945460">
        <ele>1011.8</ele>
        <time>2020-11-15T15:37:00Z</time>
      </trkpt>
      <trkpt lat="-40.3273790" lon="-71.3945750">
        <ele>1012.0</ele>
        <time>2020-11-15T15:37:01Z</time>
      </trkpt>
      <trkpt lat="-40.3274040" lon="-71.3946000">
        <ele>1012.2</ele>
        <time>2020-11-15T15:37:02Z</time>
      </trkpt>
      <trkpt lat="-40.3274330" lon="-71.3946250">
        <ele>1012.3</ele>
        <time>2020-11-15T15:37:03Z</time>
      </trkpt>
      <trkpt lat="-40.3274640" lon="-71.3946510">
        <ele>1012.5</ele>
        <time>2020-11-15T15:37:04Z</time>
      </trkpt>
      <trkpt lat="-40.3274930" lon="-71.3946770">
        <ele>1012.7</ele>
        <time>2020-11-15T15:37:05Z</time>
      </trkpt>
      <trkpt lat="-40.3275250" lon="-71.3947060">
        <ele>1012.9</ele>
        <time>2020-11-15T15:37:06Z</time>
      </trkpt>
      <trkpt lat="-40.3275560" lon="-71.3947380">
        <ele>1013.1</ele>
        <time>2020-11-15T15:37:07Z</time>
      </trkpt>
      <trkpt lat="-40.3275860" lon="-71.3947700">
        <ele>1013.2</ele>
        <time>2020-11-15T15:37:08Z</time>
      </trkpt>
      <trkpt lat="-40.3276130" lon="-71.3948020">
        <ele>1013.4</ele>
        <time>2020-11-15T15:37:09Z</time>
      </trkpt>
      <trkpt lat="-40.3276400" lon="-71.3948330">
        <ele>1013.6</ele>
        <time>2020-11-15T15:37:10Z</time>
      </trkpt>
      <trkpt lat="-40.3276660" lon="-71.3948630">
        <ele>1013.7</ele>
        <time>2020-11-15T15:37:11Z</time>
      </trkpt>
      <trkpt lat="-40.3276920" lon="-71.3948940">
        <ele>1013.9</ele>
        <time>2020-11-15T15:37:12Z</time>
      </trkpt>
      <trkpt lat="-40.3277190" lon="-71.3949270">
        <ele>1014.0</ele>
        <time>2020-11-15T15:37:13Z</time>
      </trkpt>
      <trkpt lat="-40.3277450" lon="-71.3949590">
        <ele>1014.2</ele>
        <time>2020-11-15T15:37:14Z</time>
      </trkpt>
      <trkpt lat="-40.3277720" lon="-71.3949900">
        <ele>1014.3</ele>
        <time>2020-11-15T15:37:15Z</time>
      </trkpt>
      <trkpt lat="-40.3278000" lon="-71.3950220">
        <ele>1014.5</ele>
        <time>2020-11-15T15:37:16Z</time>
      </trkpt>
      <trkpt lat="-40.3278290" lon="-71.3950570">
        <ele>1014.6</ele>
        <time>2020-11-15T15:37:17Z</time>
      </trkpt>
      <trkpt lat="-40.3278580" lon="-71.3950940">
        <ele>1014.8</ele>
        <time>2020-11-15T15:37:18Z</time>
      </trkpt>
      <trkpt lat="-40.3278880" lon="-71.3951280">
        <ele>1015.0</ele>
        <time>2020-11-15T15:37:19Z</time>
      </trkpt>
      <trkpt lat="-40.3279150" lon="-71.3951580">
        <ele>1015.1</ele>
        <time>2020-11-15T15:37:20Z</time>
      </trkpt>
      <trkpt lat="-40.3279430" lon="-71.3951880">
        <ele>1015.2</ele>
        <time>2020-11-15T15:37:21Z</time>
      </trkpt>
      <trkpt lat="-40.3279680" lon="-71.3952240">
        <ele>1015.4</ele>
        <time>2020-11-15T15:37:22Z</time>
      </trkpt>
      <trkpt lat="-40.3279930" lon="-71.3952610">
        <ele>1015.5</ele>
        <time>2020-11-15T15:37:23Z</time>
      </trkpt>
      <trkpt lat="-40.3280170" lon="-71.3952990">
        <ele>1015.7</ele>
        <time>2020-11-15T15:37:24Z</time>
      </trkpt>
      <trkpt lat="-40.3280430" lon="-71.3953350">
        <ele>1015.8</ele>
        <time>2020-11-15T15:37:25Z</time>
      </trkpt>
      <trkpt lat="-40.3280670" lon="-71.3953700">
        <ele>1016.0</ele>
        <time>2020-11-15T15:37:26Z</time>
      </trkpt>
      <trkpt lat="-40.3280830" lon="-71.3954060">
        <ele>1016.1</ele>
        <time>2020-11-15T15:37:27Z</time>
      </trkpt>
      <trkpt lat="-40.3280980" lon="-71.3954440">
        <ele>1016.2</ele>
        <time>2020-11-15T15:37:28Z</time>
      </trkpt>
      <trkpt lat="-40.3281170" lon="-71.3954830">
        <ele>1016.4</ele>
        <time>2020-11-15T15:37:29Z</time>
      </trkpt>
      <trkpt lat="-40.3281350" lon="-71.3955230">
        <ele>1016.5</ele>
        <time>2020-11-15T15:37:30Z</time>
      </trkpt>
      <trkpt lat="-40.3281570" lon="-71.3955620">
        <ele>1016.7</ele>
        <time>2020-11-15T15:37:31Z</time>
      </trkpt>
      <trkpt lat="-40.3281800" lon="-71.3955990">
        <ele>1016.8</ele>
        <time>2020-11-15T15:37:32Z</time>
      </trkpt>
      <trkpt lat="-40.3282010" lon="-71.3956360">
        <ele>1017.0</ele>
        <time>2020-11-15T15:37:33Z</time>
      </trkpt>
      <trkpt lat="-40.3282220" lon="-71.3956750">
        <ele>1017.1</ele>
        <time>2020-11-15T15:37:34Z</time>
      </trkpt>
      <trkpt lat="-40.3282420" lon="-71.3957140">
        <ele>1017.3</ele>
        <time>2020-11-15T15:37:35Z</time>
      </trkpt>
      <trkpt lat="-40.3282600" lon="-71.3957540">
        <ele>1017.5</ele>
        <time>2020-11-15T15:37:36Z</time>
      </trkpt>
      <trkpt lat="-40.3282740" lon="-71.3957950">
        <ele>1017.6</ele>
        <time>2020-11-15T15:37:37Z</time>
      </trkpt>
      <trkpt lat="-40.3282870" lon="-71.3958370">
        <ele>1017.8</ele>
        <time>2020-11-15T15:37:38Z</time>
      </trkpt>
      <trkpt lat="-40.3283050" lon="-71.3958790">
        <ele>1017.9</ele>
        <time>2020-11-15T15:37:39Z</time>
      </trkpt>
      <trkpt lat="-40.3283190" lon="-71.3959190">
        <ele>1018.0</ele>
        <time>2020-11-15T15:37:40Z</time>
      </trkpt>
      <trkpt lat="-40.3283340" lon="-71.3959590">
        <ele>1018.2</ele>
        <time>2020-11-15T15:37:41Z</time>
      </trkpt>
      <trkpt lat="-40.3283470" lon="-71.3959990">
        <ele>1018.3</ele>
        <time>2020-11-15T15:37:42Z</time>
      </trkpt>
      <trkpt lat="-40.3283610" lon="-71.3960400">
        <ele>1018.4</ele>
        <time>2020-11-15T15:37:43Z</time>
      </trkpt>
      <trkpt lat="-40.3283750" lon="-71.3960830">
        <ele>1018.6</ele>
        <time>2020-11-15T15:37:44Z</time>
      </trkpt>
      <trkpt lat="-40.3283870" lon="-71.3961260">
        <ele>1018.7</ele>
        <time>2020-11-15T15:37:45Z</time>
      </trkpt>
      <trkpt lat="-40.3284010" lon="-71.3961700">
        <ele>1018.8</ele>
        <time>2020-11-15T15:37:46Z</time>
      </trkpt>
      <trkpt lat="-40.3284150" lon="-71.3962120">
        <ele>1018.9</ele>
        <time>2020-11-15T15:37:47Z</time>
      </trkpt>
      <trkpt lat="-40.3284280" lon="-71.3962530">
        <ele>1019.1</ele>
        <time>2020-11-15T15:37:48Z</time>
      </trkpt>
      <trkpt lat="-40.3284420" lon="-71.3962950">
        <ele>1019.2</ele>
        <time>2020-11-15T15:37:49Z</time>
      </trkpt>
      <trkpt lat="-40.3284530" lon="-71.3963370">
        <ele>1019.3</ele>
        <time>2020-11-15T15:37:50Z</time>
      </trkpt>
      <trkpt lat="-40.3284650" lon="-71.3963790">
        <ele>1019.4</ele>
        <time>2020-11-15T15:37:51Z</time>
      </trkpt>
      <trkpt lat="-40.3284770" lon="-71.3964210">
        <ele>1019.5</ele>
        <time>2020-11-15T15:37:52Z</time>
      </trkpt>
      <trkpt lat="-40.3284880" lon="-71.3964640">
        <ele>1019.7</ele>
        <time>2020-11-15T15:37:53Z</time>
      </trkpt>
      <trkpt lat="-40.3284980" lon="-71.3965050">
        <ele>1019.8</ele>
        <time>2020-11-15T15:37:54Z</time>
      </trkpt>
      <trkpt lat="-40.3285070" lon="-71.3965450">
        <ele>1019.9</ele>
        <time>2020-11-15T15:37:55Z</time>
      </trkpt>
      <trkpt lat="-40.3285160" lon="-71.3965830">
        <ele>1020.0</ele>
        <time>2020-11-15T15:37:56Z</time>
      </trkpt>
      <trkpt lat="-40.3285260" lon="-71.3966230">
        <ele>1020.1</ele>
        <time>2020-11-15T15:37:57Z</time>
      </trkpt>
      <trkpt lat="-40.3285360" lon="-71.3966640">
        <ele>1020.1</ele>
        <time>2020-11-15T15:37:58Z</time>
      </trkpt>
      <trkpt lat="-40.3285450" lon="-71.3967040">
        <ele>1020.2</ele>
        <time>2020-11-15T15:37:59Z</time>
      </trkpt>
      <trkpt lat="-40.3285550" lon="-71.3967460">
        <ele>1020.3</ele>
        <time>2020-11-15T15:38:00Z</time>
      </trkpt>
      <trkpt lat="-40.3285650" lon="-71.3967900">
        <ele>1020.4</ele>
        <time>2020-11-15T15:38:01Z</time>
      </trkpt>
      <trkpt lat="-40.3285740" lon="-71.3968340">
        <ele>1020.5</ele>
        <time>2020-11-15T15:38:02Z</time>
      </trkpt>
      <trkpt lat="-40.3285830" lon="-71.3968780">
        <ele>1020.6</ele>
        <time>2020-11-15T15:38:03Z</time>
      </trkpt>
      <trkpt lat="-40.3285930" lon="-71.3969220">
        <ele>1020.7</ele>
        <time>2020-11-15T15:38:04Z</time>
      </trkpt>
      <trkpt lat="-40.3286050" lon="-71.3969670">
        <ele>1020.8</ele>
        <time>2020-11-15T15:38:05Z</time>
      </trkpt>
      <trkpt lat="-40.3286170" lon="-71.3970120">
        <ele>1020.8</ele>
        <time>2020-11-15T15:38:06Z</time>
      </trkpt>
      <trkpt lat="-40.3286280" lon="-71.3970540">
        <ele>1020.9</ele>
        <time>2020-11-15T15:38:07Z</time>
      </trkpt>
      <trkpt lat="-40.3286370" lon="-71.3970960">
        <ele>1020.9</ele>
        <time>2020-11-15T15:38:08Z</time>
      </trkpt>
      <trkpt lat="-40.3286450" lon="-71.3971380">
        <ele>1020.9</ele>
        <time>2020-11-15T15:38:09Z</time>
      </trkpt>
      <trkpt lat="-40.3286530" lon="-71.3971800">
        <ele>1020.9</ele>
        <time>2020-11-15T15:38:10Z</time>
      </trkpt>
      <trkpt lat="-40.3286620" lon="-71.3972230">
        <ele>1021.0</ele>
        <time>2020-11-15T15:38:11Z</time>
      </trkpt>
      <trkpt lat="-40.3286710" lon="-71.3972680">
        <ele>1021.0</ele>
        <time>2020-11-15T15:38:12Z</time>
      </trkpt>
      <trkpt lat="-40.3286810" lon="-71.3973150">
        <ele>1021.0</ele>
        <time>2020-11-15T15:38:13Z</time>
      </trkpt>
      <trkpt lat="-40.3286930" lon="-71.3973620">
        <ele>1021.0</ele>
        <time>2020-11-15T15:38:14Z</time>
      </trkpt>
      <trkpt lat="-40.3287050" lon="-71.3974090">
        <ele>1021.0</ele>
        <time>2020-11-15T15:38:15Z</time>
      </trkpt>
      <trkpt lat="-40.3287170" lon="-71.3974560">
        <ele>1021.0</ele>
        <time>2020-11-15T15:38:16Z</time>
      </trkpt>
      <trkpt lat="-40.3287290" lon="-71.3975040">
        <ele>1021.0</ele>
        <time>2020-11-15T15:38:17Z</time>
      </trkpt>
      <trkpt lat="-40.3287400" lon="-71.3975520">
        <ele>1021.0</ele>
        <time>2020-11-15T15:38:18Z</time>
      </trkpt>
      <trkpt lat="-40.3287510" lon="-71.3976020">
        <ele>1021.0</ele>
        <time>2020-11-15T15:38:19Z</time>
      </trkpt>
      <trkpt lat="-40.3287620" lon="-71.3976530">
        <ele>1021.0</ele>
        <time>2020-11-15T15:38:20Z</time>
      </trkpt>
      <trkpt lat="-40.3287730" lon="-71.3977030">
        <ele>1021.0</ele>
        <time>2020-11-15T15:38:21Z</time>
      </trkpt>
      <trkpt lat="-40.3287880" lon="-71.3977530">
        <ele>1020.9</ele>
        <time>2020-11-15T15:38:22Z</time>
      </trkpt>
      <trkpt lat="-40.3288030" lon="-71.3978020">
        <ele>1020.9</ele>
        <time>2020-11-15T15:38:23Z</time>
      </trkpt>
      <trkpt lat="-40.3288170" lon="-71.3978510">
        <ele>1020.8</ele>
        <time>2020-11-15T15:38:24Z</time>
      </trkpt>
      <trkpt lat="-40.3288300" lon="-71.3979020">
        <ele>1020.8</ele>
        <time>2020-11-15T15:38:25Z</time>
      </trkpt>
      <trkpt lat="-40.3288400" lon="-71.3979540">
        <ele>1020.7</ele>
        <time>2020-11-15T15:38:26Z</time>
      </trkpt>
      <trkpt lat="-40.3288500" lon="-71.3980070">
        <ele>1020.6</ele>
        <time>2020-11-15T15:38:27Z</time>
      </trkpt>
      <trkpt lat="-40.3288630" lon="-71.3980580">
        <ele>1020.6</ele>
        <time>2020-11-15T15:38:28Z</time>
      </trkpt>
      <trkpt lat="-40.3288780" lon="-71.3981110">
        <ele>1020.5</ele>
        <time>2020-11-15T15:38:29Z</time>
      </trkpt>
      <trkpt lat="-40.3288920" lon="-71.3981640">
        <ele>1020.4</ele>
        <time>2020-11-15T15:38:30Z</time>
      </trkpt>
      <trkpt lat="-40.3289070" lon="-71.3982200">
        <ele>1020.3</ele>
        <time>2020-11-15T15:38:31Z</time>
      </trkpt>
      <trkpt lat="-40.3289210" lon="-71.3982790">
        <ele>1020.2</ele>
        <time>2020-11-15T15:38:32Z</time>
      </trkpt>
      <trkpt lat="-40.3289340" lon="-71.3983400">
        <ele>1020.1</ele>
        <time>2020-11-15T15:38:33Z</time>
      </trkpt>
      <trkpt lat="-40.3289490" lon="-71.3984030">
        <ele>1019.9</ele>
        <time>2020-11-15T15:38:34Z</time>
      </trkpt>
      <trkpt lat="-40.3289660" lon="-71.3984670">
        <ele>1019.7</ele>
        <time>2020-11-15T15:38:35Z</time>
      </trkpt>
      <trkpt lat="-40.3289820" lon="-71.3985320">
        <ele>1019.6</ele>
        <time>2020-11-15T15:38:36Z</time>
      </trkpt>
      <trkpt lat="-40.3289970" lon="-71.3985990">
        <ele>1019.4</ele>
        <time>2020-11-15T15:38:37Z</time>
      </trkpt>
      <trkpt lat="-40.3290120" lon="-71.3986670">
        <ele>1019.2</ele>
        <time>2020-11-15T15:38:38Z</time>
      </trkpt>
      <trkpt lat="-40.3290280" lon="-71.3987370">
        <ele>1019.0</ele>
        <time>2020-11-15T15:38:39Z</time>
      </trkpt>
      <trkpt lat="-40.3290460" lon="-71.3988070">
        <ele>1018.8</ele>
        <time>2020-11-15T15:38:40Z</time>
      </trkpt>
      <trkpt lat="-40.3290650" lon="-71.3988770">
        <ele>1018.6</ele>
        <time>2020-11-15T15:38:41Z</time>
      </trkpt>
      <trkpt lat="-40.3290810" lon="-71.3989460">
        <ele>1018.5</ele>
        <time>2020-11-15T15:38:42Z</time>
      </trkpt>
      <trkpt lat="-40.3290970" lon="-71.3990170">
        <ele>1018.3</ele>
        <time>2020-11-15T15:38:43Z</time>
      </trkpt>
      <trkpt lat="-40.3291130" lon="-71.3990890">
        <ele>1018.1</ele>
        <time>2020-11-15T15:38:44Z</time>
      </trkpt>
      <trkpt lat="-40.3291300" lon="-71.3991630">
        <ele>1017.9</ele>
        <time>2020-11-15T15:38:45Z</time>
      </trkpt>
      <trkpt lat="-40.3291460" lon="-71.3992390">
        <ele>1017.8</ele>
        <time>2020-11-15T15:38:46Z</time>
      </trkpt>
      <trkpt lat="-40.3291610" lon="-71.3993180">
        <ele>1017.6</ele>
        <time>2020-11-15T15:38:47Z</time>
      </trkpt>
      <trkpt lat="-40.3291800" lon="-71.3993970">
        <ele>1017.5</ele>
        <time>2020-11-15T15:38:48Z</time>
      </trkpt>
      <trkpt lat="-40.3291980" lon="-71.3994770">
        <ele>1017.4</ele>
        <time>2020-11-15T15:38:49Z</time>
      </trkpt>
      <trkpt lat="-40.3292140" lon="-71.3995570">
        <ele>1017.3</ele>
        <time>2020-11-15T15:38:50Z</time>
      </trkpt>
      <trkpt lat="-40.3292300" lon="-71.3996380">
        <ele>1017.2</ele>
        <time>2020-11-15T15:38:51Z</time>
      </trkpt>
      <trkpt lat="-40.3292460" lon="-71.3997200">
        <ele>1017.1</ele>
        <time>2020-11-15T15:38:52Z</time>
      </trkpt>
      <trkpt lat="-40.3292600" lon="-71.3998020">
        <ele>1017.0</ele>
        <time>2020-11-15T15:38:53Z</time>
      </trkpt>
      <trkpt lat="-40.3292750" lon="-71.3998840">
        <ele>1017.0</ele>
        <time>2020-11-15T15:38:54Z</time>
      </trkpt>
      <trkpt lat="-40.3292880" lon="-71.3999650">
        <ele>1016.9</ele>
        <time>2020-11-15T15:38:55Z</time>
      </trkpt>
      <trkpt lat="-40.3292980" lon="-71.4000470">
        <ele>1016.9</ele>
        <time>2020-11-15T15:38:56Z</time>
      </trkpt>
      <trkpt lat="-40.3293090" lon="-71.4001270">
        <ele>1016.9</ele>
        <time>2020-11-15T15:38:57Z</time>
      </trkpt>
      <trkpt lat="-40.3293170" lon="-71.4002070">
        <ele>1016.9</ele>
        <time>2020-11-15T15:38:58Z</time>
      </trkpt>
      <trkpt lat="-40.3293250" lon="-71.4002840">
        <ele>1016.9</ele>
        <time>2020-11-15T15:38:59Z</time>
      </trkpt>
      <trkpt lat="-40.3293340" lon="-71.4003610">
        <ele>1016.9</ele>
        <time>2020-11-15T15:39:00Z</time>
      </trkpt>
      <trkpt lat="-40.3293420" lon="-71.4004390">
        <ele>1016.9</ele>
        <time>2020-11-15T15:39:01Z</time>
      </trkpt>
      <trkpt lat="-40.3293500" lon="-71.4005150">
        <ele>1016.9</ele>
        <time>2020-11-15T15:39:02Z</time>
      </trkpt>
      <trkpt lat="-40.3293560" lon="-71.4005900">
        <ele>1016.9</ele>
        <time>2020-11-15T15:39:03Z</time>
      </trkpt>
      <trkpt lat="-40.3293640" lon="-71.4006680">
        <ele>1016.9</ele>
        <time>2020-11-15T15:39:04Z</time>
      </trkpt>
      <trkpt lat="-40.3293710" lon="-71.4007450">
        <ele>1017.0</ele>
        <time>2020-11-15T15:39:05Z</time>
      </trkpt>
      <trkpt lat="-40.3293760" lon="-71.4008200">
        <ele>1017.0</ele>
        <time>2020-11-15T15:39:06Z</time>
      </trkpt>
      <trkpt lat="-40.3293840" lon="-71.4008950">
        <ele>1017.1</ele>
        <time>2020-11-15T15:39:07Z</time>
      </trkpt>
      <trkpt lat="-40.3293880" lon="-71.4009710">
        <ele>1017.2</ele>
        <time>2020-11-15T15:39:08Z</time>
      </trkpt>
      <trkpt lat="-40.3293950" lon="-71.4010460">
        <ele>1017.3</ele>
        <time>2020-11-15T15:39:09Z</time>
      </trkpt>
      <trkpt lat="-40.3294010" lon="-71.4011210">
        <ele>1017.5</ele>
        <time>2020-11-15T15:39:10Z</time>
      </trkpt>
      <trkpt lat="-40.3294040" lon="-71.4011970">
        <ele>1017.6</ele>
        <time>2020-11-15T15:39:11Z</time>
      </trkpt>
      <trkpt lat="-40.3294040" lon="-71.4012720">
        <ele>1017.8</ele>
        <time>2020-11-15T15:39:12Z</time>
      </trkpt>
      <trkpt lat="-40.3294070" lon="-71.4013460">
        <ele>1018.1</ele>
        <time>2020-11-15T15:39:13Z</time>
      </trkpt>
      <trkpt lat="-40.3294120" lon="-71.4014180">
        <ele>1018.3</ele>
        <time>2020-11-15T15:39:14Z</time>
      </trkpt>
      <trkpt lat="-40.3294170" lon="-71.4014880">
        <ele>1018.6</ele>
        <time>2020-11-15T15:39:15Z</time>
      </trkpt>
      <trkpt lat="-40.3294200" lon="-71.4015560">
        <ele>1018.8</ele>
        <time>2020-11-15T15:39:16Z</time>
      </trkpt>
      <trkpt lat="-40.3294250" lon="-71.4016200">
        <ele>1019.1</ele>
        <time>2020-11-15T15:39:17Z</time>
      </trkpt>
      <trkpt lat="-40.3294300" lon="-71.4016820">
        <ele>1019.4</ele>
        <time>2020-11-15T15:39:18Z</time>
      </trkpt>
      <trkpt lat="-40.3294370" lon="-71.4017420">
        <ele>1019.7</ele>
        <time>2020-11-15T15:39:19Z</time>
      </trkpt>
      <trkpt lat="-40.3294440" lon="-71.4018020">
        <ele>1019.9</ele>
        <time>2020-11-15T15:39:20Z</time>
      </trkpt>
      <trkpt lat="-40.3294500" lon="-71.4018610">
        <ele>1020.2</ele>
        <time>2020-11-15T15:39:21Z</time>
      </trkpt>
      <trkpt lat="-40.3294560" lon="-71.4019170">
        <ele>1020.5</ele>
        <time>2020-11-15T15:39:22Z</time>
      </trkpt>
      <trkpt lat="-40.3294600" lon="-71.4019730">
        <ele>1020.8</ele>
        <time>2020-11-15T15:39:23Z</time>
      </trkpt>
      <trkpt lat="-40.3294620" lon="-71.4020280">
        <ele>1021.1</ele>
        <time>2020-11-15T15:39:24Z</time>
      </trkpt>
      <trkpt lat="-40.3294630" lon="-71.4020830">
        <ele>1021.4</ele>
        <time>2020-11-15T15:39:25Z</time>
      </trkpt>
      <trkpt lat="-40.3294680" lon="-71.4021380">
        <ele>1021.7</ele>
        <time>2020-11-15T15:39:26Z</time>
      </trkpt>
      <trkpt lat="-40.3294720" lon="-71.4021930">
        <ele>1022.0</ele>
        <time>2020-11-15T15:39:27Z</time>
      </trkpt>
      <trkpt lat="-40.3294750" lon="-71.4022470">
        <ele>1022.3</ele>
        <time>2020-11-15T15:39:28Z</time>
      </trkpt>
      <trkpt lat="-40.3294780" lon="-71.4023000">
        <ele>1022.6</ele>
        <time>2020-11-15T15:39:29Z</time>
      </trkpt>
      <trkpt lat="-40.3294810" lon="-71.4023530">
        <ele>1022.8</ele>
        <time>2020-11-15T15:39:30Z</time>
      </trkpt>
      <trkpt lat="-40.3294860" lon="-71.4024070">
        <ele>1023.1</ele>
        <time>2020-11-15T15:39:31Z</time>
      </trkpt>
      <trkpt lat="-40.3294880" lon="-71.4024610">
        <ele>1023.4</ele>
        <time>2020-11-15T15:39:32Z</time>
      </trkpt>
      <trkpt lat="-40.3294900" lon="-71.4025140">
        <ele>1023.6</ele>
        <time>2020-11-15T15:39:33Z</time>
      </trkpt>
      <trkpt lat="-40.3294920" lon="-71.4025660">
        <ele>1023.8</ele>
        <time>2020-11-15T15:39:34Z</time>
      </trkpt>
      <trkpt lat="-40.3294950" lon="-71.4026170">
        <ele>1024.1</ele>
        <time>2020-11-15T15:39:35Z</time>
      </trkpt>
      <trkpt lat="-40.3294970" lon="-71.4026690">
        <ele>1024.3</ele>
        <time>2020-11-15T15:39:36Z</time>
      </trkpt>
      <trkpt lat="-40.3295010" lon="-71.4027190">
        <ele>1024.5</ele>
        <time>2020-11-15T15:39:37Z</time>
      </trkpt>
      <trkpt lat="-40.3295040" lon="-71.4027690">
        <ele>1024.8</ele>
        <time>2020-11-15T15:39:38Z</time>
      </trkpt>
      <trkpt lat="-40.3295010" lon="-71.4028200">
        <ele>1025.0</ele>
        <time>2020-11-15T15:39:39Z</time>
      </trkpt>
      <trkpt lat="-40.3295010" lon="-71.4028700">
        <ele>1025.2</ele>
        <time>2020-11-15T15:39:40Z</time>
      </trkpt>
      <trkpt lat="-40.3294990" lon="-71.4029210">
        <ele>1025.4</ele>
        <time>2020-11-15T15:39:41Z</time>
      </trkpt>
      <trkpt lat="-40.3294980" lon="-71.4029710">
        <ele>1025.6</ele>
        <time>2020-11-15T15:39:42Z</time>
      </trkpt>
      <trkpt lat="-40.3294980" lon="-71.4030200">
        <ele>1025.7</ele>
        <time>2020-11-15T15:39:43Z</time>
      </trkpt>
      <trkpt lat="-40.3294990" lon="-71.4030670">
        <ele>1025.9</ele>
        <time>2020-11-15T15:39:44Z</time>
      </trkpt>
      <trkpt lat="-40.3295040" lon="-71.4031150">
        <ele>1026.1</ele>
        <time>2020-11-15T15:39:45Z</time>
      </trkpt>
      <trkpt lat="-40.3295060" lon="-71.4031630">
        <ele>1026.2</ele>
        <time>2020-11-15T15:39:46Z</time>
      </trkpt>
      <trkpt lat="-40.3295060" lon="-71.4032110">
        <ele>1026.3</ele>
        <time>2020-11-15T15:39:47Z</time>
      </trkpt>
      <trkpt lat="-40.3295080" lon="-71.4032580">
        <ele>1026.5</ele>
        <time>2020-11-15T15:39:48Z</time>
      </trkpt>
      <trkpt lat="-40.3295110" lon="-71.4033050">
        <ele>1026.6</ele>
        <time>2020-11-15T15:39:49Z</time>
      </trkpt>
      <trkpt lat="-40.3295130" lon="-71.4033520">
        <ele>1026.7</ele>
        <time>2020-11-15T15:39:50Z</time>
      </trkpt>
      <trkpt lat="-40.3295160" lon="-71.4033980">
        <ele>1026.8</ele>
        <time>2020-11-15T15:39:51Z</time>
      </trkpt>
      <trkpt lat="-40.3295180" lon="-71.4034430">
        <ele>1026.9</ele>
        <time>2020-11-15T15:39:52Z</time>
      </trkpt>
      <trkpt lat="-40.3295200" lon="-71.4034890">
        <ele>1027.0</ele>
        <time>2020-11-15T15:39:53Z</time>
      </trkpt>
      <trkpt lat="-40.3295200" lon="-71.4035360">
        <ele>1027.1</ele>
        <time>2020-11-15T15:39:54Z</time>
      </trkpt>
      <trkpt lat="-40.3295220" lon="-71.4035830">
        <ele>1027.2</ele>
        <time>2020-11-15T15:39:55Z</time>
      </trkpt>
      <trkpt lat="-40.3295230" lon="-71.4036290">
        <ele>1027.3</ele>
        <time>2020-11-15T15:39:56Z</time>
      </trkpt>
      <trkpt lat="-40.3295250" lon="-71.4036760">
        <ele>1027.4</ele>
        <time>2020-11-15T15:39:57Z</time>
      </trkpt>
      <trkpt lat="-40.3295240" lon="-71.4037240">
        <ele>1027.4</ele>
        <time>2020-11-15T15:39:58Z</time>
      </trkpt>
      <trkpt lat="-40.3295240" lon="-71.4037730">
        <ele>1027.5</ele>
        <time>2020-11-15T15:39:59Z</time>
      </trkpt>
      <trkpt lat="-40.3295250" lon="-71.4038220">
        <ele>1027.6</ele>
        <time>2020-11-15T15:40:00Z</time>
      </trkpt>
      <trkpt lat="-40.3295270" lon="-71.4038710">
        <ele>1027.6</ele>
        <time>2020-11-15T15:40:01Z</time>
      </trkpt>
      <trkpt lat="-40.3295300" lon="-71.4039220">
        <ele>1027.6</ele>
        <time>2020-11-15T15:40:02Z</time>
      </trkpt>
      <trkpt lat="-40.3295350" lon="-71.4039720">
        <ele>1027.6</ele>
        <time>2020-11-15T15:40:03Z</time>
      </trkpt>
      <trkpt lat="-40.3295400" lon="-71.4040240">
        <ele>1027.7</ele>
        <time>2020-11-15T15:40:04Z</time>
      </trkpt>
      <trkpt lat="-40.3295450" lon="-71.4040760">
        <ele>1027.7</ele>
        <time>2020-11-15T15:40:05Z</time>
      </trkpt>
      <trkpt lat="-40.3295510" lon="-71.4041290">
        <ele>1027.7</ele>
        <time>2020-11-15T15:40:06Z</time>
      </trkpt>
      <trkpt lat="-40.3295540" lon="-71.4041810">
        <ele>1027.7</ele>
        <time>2020-11-15T15:40:07Z</time>
      </trkpt>
      <trkpt lat="-40.3295530" lon="-71.4042360">
        <ele>1027.7</ele>
        <time>2020-11-15T15:40:08Z</time>
      </trkpt>
      <trkpt lat="-40.3295560" lon="-71.4042910">
        <ele>1027.7</ele>
        <time>2020-11-15T15:40:09Z</time>
      </trkpt>
      <trkpt lat="-40.3295600" lon="-71.4043470">
        <ele>1027.8</ele>
        <time>2020-11-15T15:40:10Z</time>
      </trkpt>
      <trkpt lat="-40.3295610" lon="-71.4044030">
        <ele>1027.8</ele>
        <time>2020-11-15T15:40:11Z</time>
      </trkpt>
      <trkpt lat="-40.3295640" lon="-71.4044600">
        <ele>1027.8</ele>
        <time>2020-11-15T15:40:12Z</time>
      </trkpt>
      <trkpt lat="-40.3295680" lon="-71.4045160">
        <ele>1027.8</ele>
        <time>2020-11-15T15:40:13Z</time>
      </trkpt>
      <trkpt lat="-40.3295720" lon="-71.4045720">
        <ele>1027.8</ele>
        <time>2020-11-15T15:40:14Z</time>
      </trkpt>
      <trkpt lat="-40.3295760" lon="-71.4046280">
        <ele>1027.8</ele>
        <time>2020-11-15T15:40:15Z</time>
      </trkpt>
      <trkpt lat="-40.3295770" lon="-71.4046870">
        <ele>1027.8</ele>
        <time>2020-11-15T15:40:16Z</time>
      </trkpt>
      <trkpt lat="-40.3295810" lon="-71.4047450">
        <ele>1027.8</ele>
        <time>2020-11-15T15:40:17Z</time>
      </trkpt>
      <trkpt lat="-40.3295830" lon="-71.4048020">
        <ele>1027.9</ele>
        <time>2020-11-15T15:40:18Z</time>
      </trkpt>
      <trkpt lat="-40.3295870" lon="-71.4048580">
        <ele>1027.9</ele>
        <time>2020-11-15T15:40:19Z</time>
      </trkpt>
      <trkpt lat="-40.3295900" lon="-71.4049160">
        <ele>1027.9</ele>
        <time>2020-11-15T15:40:20Z</time>
      </trkpt>
      <trkpt lat="-40.3295930" lon="-71.4049730">
        <ele>1027.9</ele>
        <time>2020-11-15T15:40:21Z</time>
      </trkpt>
      <trkpt lat="-40.3295960" lon="-71.4050300">
        <ele>1028.0</ele>
        <time>2020-11-15T15:40:22Z</time>
      </trkpt>
      <trkpt lat="-40.3295940" lon="-71.4050880">
        <ele>1028.0</ele>
        <time>2020-11-15T15:40:23Z</time>
      </trkpt>
      <trkpt lat="-40.3295920" lon="-71.4051460">
        <ele>1028.0</ele>
        <time>2020-11-15T15:40:24Z</time>
      </trkpt>
      <trkpt lat="-40.3295930" lon="-71.4052030">
        <ele>1028.1</ele>
        <time>2020-11-15T15:40:25Z</time>
      </trkpt>
      <trkpt lat="-40.3295920" lon="-71.4052610">
        <ele>1028.1</ele>
        <time>2020-11-15T15:40:26Z</time>
      </trkpt>
      <trkpt lat="-40.3295910" lon="-71.4053210">
        <ele>1028.2</ele>
        <time>2020-11-15T15:40:27Z</time>
      </trkpt>
      <trkpt lat="-40.3295900" lon="-71.4053790">
        <ele>1028.3</ele>
        <time>2020-11-15T15:40:28Z</time>
      </trkpt>
      <trkpt lat="-40.3295900" lon="-71.4054370">
        <ele>1028.3</ele>
        <time>2020-11-15T15:40:29Z</time>
      </trkpt>
      <trkpt lat="-40.3295910" lon="-71.4054940">
        <ele>1028.4</ele>
        <time>2020-11-15T15:40:30Z</time>
      </trkpt>
      <trkpt lat="-40.3295920" lon="-71.4055520">
        <ele>1028.5</ele>
        <time>2020-11-15T15:40:31Z</time>
      </trkpt>
      <trkpt lat="-40.3295940" lon="-71.4056130">
        <ele>1028.6</ele>
        <time>2020-11-15T15:40:32Z</time>
      </trkpt>
      <trkpt lat="-40.3295960" lon="-71.4056750">
        <ele>1028.7</ele>
        <time>2020-11-15T15:40:33Z</time>
      </trkpt>
      <trkpt lat="-40.3296000" lon="-71.4057370">
        <ele>1028.8</ele>
        <time>2020-11-15T15:40:34Z</time>
      </trkpt>
      <trkpt lat="-40.3296040" lon="-71.4057990">
        <ele>1028.9</ele>
        <time>2020-11-15T15:40:35Z</time>
      </trkpt>
      <trkpt lat="-40.3296090" lon="-71.4058600">
        <ele>1029.1</ele>
        <time>2020-11-15T15:40:36Z</time>
      </trkpt>
      <trkpt lat="-40.3296120" lon="-71.4059220">
        <ele>1029.2</ele>
        <time>2020-11-15T15:40:37Z</time>
      </trkpt>
      <trkpt lat="-40.3296160" lon="-71.4059840">
        <ele>1029.3</ele>
        <time>2020-11-15T15:40:38Z</time>
      </trkpt>
      <trkpt lat="-40.3296190" lon="-71.4060440">
        <ele>1029.4</ele>
        <time>2020-11-15T15:40:39Z</time>
      </trkpt>
      <trkpt lat="-40.3296210" lon="-71.4061030">
        <ele>1029.6</ele>
        <time>2020-11-15T15:40:40Z</time>
      </trkpt>
      <trkpt lat="-40.3296230" lon="-71.4061620">
        <ele>1029.7</ele>
        <time>2020-11-15T15:40:41Z</time>
      </trkpt>
      <trkpt lat="-40.3296260" lon="-71.4062210">
        <ele>1029.9</ele>
        <time>2020-11-15T15:40:42Z</time>
      </trkpt>
      <trkpt lat="-40.3296300" lon="-71.4062820">
        <ele>1030.1</ele>
        <time>2020-11-15T15:40:43Z</time>
      </trkpt>
      <trkpt lat="-40.3296330" lon="-71.4063450">
        <ele>1030.2</ele>
        <time>2020-11-15T15:40:44Z</time>
      </trkpt>
      <trkpt lat="-40.3296360" lon="-71.4064070">
        <ele>1030.4</ele>
        <time>2020-11-15T15:40:45Z</time>
      </trkpt>
      <trkpt lat="-40.3296400" lon="-71.4064680">
        <ele>1030.6</ele>
        <time>2020-11-15T15:40:46Z</time>
      </trkpt>
      <trkpt lat="-40.3296450" lon="-71.4065310">
        <ele>1030.8</ele>
        <time>2020-11-15T15:40:47Z</time>
      </trkpt>
      <trkpt lat="-40.3296480" lon="-71.4065940">
        <ele>1030.9</ele>
        <time>2020-11-15T15:40:48Z</time>
      </trkpt>
      <trkpt lat="-40.3296510" lon="-71.4066570">
        <ele>1031.2</ele>
        <time>2020-11-15T15:40:49Z</time>
      </trkpt>
      <trkpt lat="-40.3296550" lon="-71.4067200">
        <ele>1031.4</ele>
        <time>2020-11-15T15:40:50Z</time>
      </trkpt>
      <trkpt lat="-40.3296560" lon="-71.4067820">
        <ele>1031.6</ele>
        <time>2020-11-15T15:40:51Z</time>
      </trkpt>
      <trkpt lat="-40.3296590" lon="-71.4068430">
        <ele>1031.9</ele>
        <time>2020-11-15T15:40:52Z</time>
      </trkpt>
      <trkpt lat="-40.3296650" lon="-71.4069040">
        <ele>1032.2</ele>
        <time>2020-11-15T15:40:53Z</time>
      </trkpt>
      <trkpt lat="-40.3296710" lon="-71.4069650">
        <ele>1032.4</ele>
        <time>2020-11-15T15:40:54Z</time>
      </trkpt>
      <trkpt lat="-40.3296750" lon="-71.4070250">
        <ele>1032.7</ele>
        <time>2020-11-15T15:40:55Z</time>
      </trkpt>
      <trkpt lat="-40.3296780" lon="-71.4070830">
        <ele>1033.0</ele>
        <time>2020-11-15T15:40:56Z</time>
      </trkpt>
      <trkpt lat="-40.3296810" lon="-71.4071400">
        <ele>1033.2</ele>
        <time>2020-11-15T15:40:57Z</time>
      </trkpt>
      <trkpt lat="-40.3296870" lon="-71.4071980">
        <ele>1033.5</ele>
        <time>2020-11-15T15:40:58Z</time>
      </trkpt>
      <trkpt lat="-40.3296920" lon="-71.4072560">
        <ele>1033.7</ele>
        <time>2020-11-15T15:40:59Z</time>
      </trkpt>
      <trkpt lat="-40.3296970" lon="-71.4073110">
        <ele>1033.9</ele>
        <time>2020-11-15T15:41:00Z</time>
      </trkpt>
      <trkpt lat="-40.3296990" lon="-71.4073650">
        <ele>1034.2</ele>
        <time>2020-11-15T15:41:01Z</time>
      </trkpt>
      <trkpt lat="-40.3297030" lon="-71.4074180">
        <ele>1034.4</ele>
        <time>2020-11-15T15:41:02Z</time>
      </trkpt>
      <trkpt lat="-40.3297080" lon="-71.4074710">
        <ele>1034.6</ele>
        <time>2020-11-15T15:41:03Z</time>
      </trkpt>
      <trkpt lat="-40.3297130" lon="-71.4075230">
        <ele>1034.9</ele>
        <time>2020-11-15T15:41:04Z</time>
      </trkpt>
      <trkpt lat="-40.3297170" lon="-71.4075750">
        <ele>1035.1</ele>
        <time>2020-11-15T15:41:05Z</time>
      </trkpt>
      <trkpt lat="-40.3297230" lon="-71.4076270">
        <ele>1035.3</ele>
        <time>2020-11-15T15:41:06Z</time>
      </trkpt>
      <trkpt lat="-40.3297280" lon="-71.4076770">
        <ele>1035.5</ele>
        <time>2020-11-15T15:41:07Z</time>
      </trkpt>
      <trkpt lat="-40.3297350" lon="-71.4077270">
        <ele>1035.8</ele>
        <time>2020-11-15T15:41:08Z</time>
      </trkpt>
      <trkpt lat="-40.3297420" lon="-71.4077770">
        <ele>1036.0</ele>
        <time>2020-11-15T15:41:09Z</time>
      </trkpt>
      <trkpt lat="-40.3297490" lon="-71.4078250">
        <ele>1036.2</ele>
        <time>2020-11-15T15:41:10Z</time>
      </trkpt>
      <trkpt lat="-40.3297550" lon="-71.4078720">
        <ele>1036.4</ele>
        <time>2020-11-15T15:41:11Z</time>
      </trkpt>
      <trkpt lat="-40.3297580" lon="-71.4079170">
        <ele>1036.6</ele>
        <time>2020-11-15T15:41:12Z</time>
      </trkpt>
      <trkpt lat="-40.3297610" lon="-71.4079610">
        <ele>1036.7</ele>
        <time>2020-11-15T15:41:13Z</time>
      </trkpt>
      <trkpt lat="-40.3297630" lon="-71.4080060">
        <ele>1036.9</ele>
        <time>2020-11-15T15:41:14Z</time>
      </trkpt>
      <trkpt lat="-40.3297680" lon="-71.4080520">
        <ele>1037.1</ele>
        <time>2020-11-15T15:41:15Z</time>
      </trkpt>
      <trkpt lat="-40.3297730" lon="-71.4080970">
        <ele>1037.3</ele>
        <time>2020-11-15T15:41:16Z</time>
      </trkpt>
      <trkpt lat="-40.3297770" lon="-71.4081430">
        <ele>1037.4</ele>
        <time>2020-11-15T15:41:17Z</time>
      </trkpt>
      <trkpt lat="-40.3297810" lon="-71.4081900">
        <ele>1037.6</ele>
        <time>2020-11-15T15:41:18Z</time>
      </trkpt>
      <trkpt lat="-40.3297850" lon="-71.4082360">
        <ele>1037.8</ele>
        <time>2020-11-15T15:41:19Z</time>
      </trkpt>
      <trkpt lat="-40.3297870" lon="-71.4082800">
        <ele>1038.0</ele>
        <time>2020-11-15T15:41:20Z</time>
      </trkpt>
      <trkpt lat="-40.3297900" lon="-71.4083240">
        <ele>1038.1</ele>
        <time>2020-11-15T15:41:21Z</time>
      </trkpt>
      <trkpt lat="-40.3297930" lon="-71.4083680">
        <ele>1038.3</ele>
        <time>2020-11-15T15:41:22Z</time>
      </trkpt>
      <trkpt lat="-40.3297970" lon="-71.4084140">
        <ele>1038.5</ele>
        <time>2020-11-15T15:41:23Z</time>
      </trkpt>
      <trkpt lat="-40.3298010" lon="-71.4084580">
        <ele>1038.6</ele>
        <time>2020-11-15T15:41:24Z</time>
      </trkpt>
      <trkpt lat="-40.3298080" lon="-71.4085020">
        <ele>1038.8</ele>
        <time>2020-11-15T15:41:25Z</time>
      </trkpt>
      <trkpt lat="-40.3298150" lon="-71.4085470">
        <ele>1038.9</ele>
        <time>2020-11-15T15:41:26Z</time>
      </trkpt>
      <trkpt lat="-40.3298220" lon="-71.4085920">
        <ele>1039.1</ele>
        <time>2020-11-15T15:41:27Z</time>
      </trkpt>
      <trkpt lat="-40.3298250" lon="-71.4086390">
        <ele>1039.2</ele>
        <time>2020-11-15T15:41:28Z</time>
      </trkpt>
      <trkpt lat="-40.3298290" lon="-71.4086860">
        <ele>1039.4</ele>
        <time>2020-11-15T15:41:29Z</time>
      </trkpt>
      <trkpt lat="-40.3298330" lon="-71.4087320">
        <ele>1039.5</ele>
        <time>2020-11-15T15:41:30Z</time>
      </trkpt>
      <trkpt lat="-40.3298380" lon="-71.4087790">
        <ele>1039.6</ele>
        <time>2020-11-15T15:41:31Z</time>
      </trkpt>
      <trkpt lat="-40.3298480" lon="-71.4088240">
        <ele>1039.7</ele>
        <time>2020-11-15T15:41:32Z</time>
      </trkpt>
      <trkpt lat="-40.3298520" lon="-71.4088700">
        <ele>1039.7</ele>
        <time>2020-11-15T15:41:33Z</time>
      </trkpt>
      <trkpt lat="-40.3298580" lon="-71.4089180">
        <ele>1039.8</ele>
        <time>2020-11-15T15:41:34Z</time>
      </trkpt>
      <trkpt lat="-40.3298590" lon="-71.4089670">
        <ele>1039.9</ele>
        <time>2020-11-15T15:41:35Z</time>
      </trkpt>
      <trkpt lat="-40.3298630" lon="-71.4090190">
        <ele>1039.9</ele>
        <time>2020-11-15T15:41:36Z</time>
      </trkpt>
      <trkpt lat="-40.3298680" lon="-71.4090700">
        <ele>1039.9</ele>
        <time>2020-11-15T15:41:37Z</time>
      </trkpt>
      <trkpt lat="-40.3298740" lon="-71.4091220">
        <ele>1040.0</ele>
        <time>2020-11-15T15:41:38Z</time>
      </trkpt>
      <trkpt lat="-40.3298780" lon="-71.4091760">
        <ele>1040.0</ele>
        <time>2020-11-15T15:41:39Z</time>
      </trkpt>
      <trkpt lat="-40.3298830" lon="-71.4092330">
        <ele>1040.0</ele>
        <time>2020-11-15T15:41:40Z</time>
      </trkpt>
      <trkpt lat="-40.3298880" lon="-71.4092900">
        <ele>1040.0</ele>
        <time>2020-11-15T15:41:41Z</time>
      </trkpt>
      <trkpt lat="-40.3298890" lon="-71.4093480">
        <ele>1039.9</ele>
        <time>2020-11-15T15:41:42Z</time>
      </trkpt>
      <trkpt lat="-40.3298930" lon="-71.4094070">
        <ele>1039.9</ele>
        <time>2020-11-15T15:41:43Z</time>
      </trkpt>
      <trkpt lat="-40.3299010" lon="-71.4094680">
        <ele>1039.8</ele>
        <time>2020-11-15T15:41:44Z</time>
      </trkpt>
      <trkpt lat="-40.3299120" lon="-71.4095290">
        <ele>1039.7</ele>
        <time>2020-11-15T15:41:45Z</time>
      </trkpt>
      <trkpt lat="-40.3299220" lon="-71.4095920">
        <ele>1039.6</ele>
        <time>2020-11-15T15:41:46Z</time>
      </trkpt>
      <trkpt lat="-40.3299300" lon="-71.4096580">
        <ele>1039.5</ele>
        <time>2020-11-15T15:41:47Z</time>
      </trkpt>
      <trkpt lat="-40.3299380" lon="-71.4097250">
        <ele>1039.3</ele>
        <time>2020-11-15T15:41:48Z</time>
      </trkpt>
      <trkpt lat="-40.3299490" lon="-71.4097940">
        <ele>1039.1</ele>
        <time>2020-11-15T15:41:49Z</time>
      </trkpt>
      <trkpt lat="-40.3299620" lon="-71.4098640">
        <ele>1038.9</ele>
        <time>2020-11-15T15:41:50Z</time>
      </trkpt>
      <trkpt lat="-40.3299750" lon="-71.4099350">
        <ele>1038.7</ele>
        <time>2020-11-15T15:41:51Z</time>
      </trkpt>
      <trkpt lat="-40.3299890" lon="-71.4100060">
        <ele>1038.5</ele>
        <time>2020-11-15T15:41:52Z</time>
      </trkpt>
      <trkpt lat="-40.3300050" lon="-71.4100800">
        <ele>1038.2</ele>
        <time>2020-11-15T15:41:53Z</time>
      </trkpt>
      <trkpt lat="-40.3300200" lon="-71.4101570">
        <ele>1037.9</ele>
        <time>2020-11-15T15:41:54Z</time>
      </trkpt>
      <trkpt lat="-40.3300350" lon="-71.4102380">
        <ele>1037.6</ele>
        <time>2020-11-15T15:41:55Z</time>
      </trkpt>
      <trkpt lat="-40.3300530" lon="-71.4103240">
        <ele>1037.3</ele>
        <time>2020-11-15T15:41:56Z</time>
      </trkpt>
      <trkpt lat="-40.3300710" lon="-71.4104130">
        <ele>1037.0</ele>
        <time>2020-11-15T15:41:57Z</time>
      </trkpt>
      <trkpt lat="-40.3300890" lon="-71.4105050">
        <ele>1036.6</ele>
        <time>2020-11-15T15:41:58Z</time>
      </trkpt>
      <trkpt lat="-40.3301070" lon="-71.4105980">
        <ele>1036.3</ele>
        <time>2020-11-15T15:41:59Z</time>
      </trkpt>
      <trkpt lat="-40.3301270" lon="-71.4106920">
        <ele>1035.9</ele>
        <time>2020-11-15T15:42:00Z</time>
      </trkpt>
      <trkpt lat="-40.3301470" lon="-71.4107890">
        <ele>1035.5</ele>
        <time>2020-11-15T15:42:01Z</time>
      </trkpt>
      <trkpt lat="-40.3301640" lon="-71.4108880">
        <ele>1035.1</ele>
        <time>2020-11-15T15:42:02Z</time>
      </trkpt>
      <trkpt lat="-40.3301830" lon="-71.4109900">
        <ele>1034.7</ele>
        <time>2020-11-15T15:42:03Z</time>
      </trkpt>
      <trkpt lat="-40.3302030" lon="-71.4110960">
        <ele>1034.3</ele>
        <time>2020-11-15T15:42:04Z</time>
      </trkpt>
      <trkpt lat="-40.3302220" lon="-71.4112010">
        <ele>1033.8</ele>
        <time>2020-11-15T15:42:05Z</time>
      </trkpt>
      <trkpt lat="-40.3302410" lon="-71.4113070">
        <ele>1033.4</ele>
        <time>2020-11-15T15:42:06Z</time>
      </trkpt>
      <trkpt lat="-40.3302630" lon="-71.4114130">
        <ele>1033.0</ele>
        <time>2020-11-15T15:42:07Z</time>
      </trkpt>
      <trkpt lat="-40.3302830" lon="-71.4115210">
        <ele>1032.6</ele>
        <time>2020-11-15T15:42:08Z</time>
      </trkpt>
      <trkpt lat="-40.3303020" lon="-71.4116310">
        <ele>1032.1</ele>
        <time>2020-11-15T15:42:09Z</time>
      </trkpt>
      <trkpt lat="-40.3303230" lon="-71.4117420">
        <ele>1031.7</ele>
        <time>2020-11-15T15:42:10Z</time>
      </trkpt>
      <trkpt lat="-40.3303430" lon="-71.4118530">
        <ele>1031.3</ele>
        <time>2020-11-15T15:42:11Z</time>
      </trkpt>
      <trkpt lat="-40.3303640" lon="-71.4119640">
        <ele>1030.9</ele>
        <time>2020-11-15T15:42:12Z</time>
      </trkpt>
      <trkpt lat="-40.3303850" lon="-71.4120760">
        <ele>1030.5</ele>
        <time>2020-11-15T15:42:13Z</time>
      </trkpt>
      <trkpt lat="-40.3304070" lon="-71.4121890">
        <ele>1030.1</ele>
        <time>2020-11-15T15:42:14Z</time>
      </trkpt>
      <trkpt lat="-40.3304300" lon="-71.4123050">
        <ele>1029.7</ele>
        <time>2020-11-15T15:42:15Z</time>
      </trkpt>
      <trkpt lat="-40.3304550" lon="-71.4124220">
        <ele>1029.4</ele>
        <time>2020-11-15T15:42:16Z</time>
      </trkpt>
      <trkpt lat="-40.3304780" lon="-71.4125400">
        <ele>1029.2</ele>
        <time>2020-11-15T15:42:17Z</time>
      </trkpt>
      <trkpt lat="-40.3304980" lon="-71.4126590">
        <ele>1029.0</ele>
        <time>2020-11-15T15:42:18Z</time>
      </trkpt>
      <trkpt lat="-40.3305210" lon="-71.4127800">
        <ele>1028.9</ele>
        <time>2020-11-15T15:42:19Z</time>
      </trkpt>
      <trkpt lat="-40.3305440" lon="-71.4128990">
        <ele>1028.9</ele>
        <time>2020-11-15T15:42:20Z</time>
      </trkpt>
      <trkpt lat="-40.3305680" lon="-71.4130150">
        <ele>1029.1</ele>
        <time>2020-11-15T15:42:21Z</time>
      </trkpt>
      <trkpt lat="-40.3305880" lon="-71.4131300">
        <ele>1029.3</ele>
        <time>2020-11-15T15:42:22Z</time>
      </trkpt>
      <trkpt lat="-40.3306050" lon="-71.4132420">
        <ele>1029.5</ele>
        <time>2020-11-15T15:42:23Z</time>
      </trkpt>
      <trkpt lat="-40.3306230" lon="-71.4133500">
        <ele>1029.8</ele>
        <time>2020-11-15T15:42:24Z</time>
      </trkpt>
      <trkpt lat="-40.3306390" lon="-71.4134540">
        <ele>1030.2</ele>
        <time>2020-11-15T15:42:25Z</time>
      </trkpt>
      <trkpt lat="-40.3306560" lon="-71.4135500">
        <ele>1030.6</ele>
        <time>2020-11-15T15:42:26Z</time>
      </trkpt>
      <trkpt lat="-40.3306710" lon="-71.4136410">
        <ele>1031.0</ele>
        <time>2020-11-15T15:42:27Z</time>
      </trkpt>
      <trkpt lat="-40.3306840" lon="-71.4137280">
        <ele>1031.4</ele>
        <time>2020-11-15T15:42:28Z</time>
      </trkpt>
      <trkpt lat="-40.3306970" lon="-71.4138070">
        <ele>1031.8</ele>
        <time>2020-11-15T15:42:29Z</time>
      </trkpt>
      <trkpt lat="-40.3307090" lon="-71.4138810">
        <ele>1032.2</ele>
        <time>2020-11-15T15:42:30Z</time>
      </trkpt>
      <trkpt lat="-40.3307220" lon="-71.4139520">
        <ele>1032.5</ele>
        <time>2020-11-15T15:42:31Z</time>
      </trkpt>
      <trkpt lat="-40.3307330" lon="-71.4140190">
        <ele>1032.9</ele>
        <time>2020-11-15T15:42:32Z</time>
      </trkpt>
      <trkpt lat="-40.3307470" lon="-71.4140820">
        <ele>1033.3</ele>
        <time>2020-11-15T15:42:33Z</time>
      </trkpt>
      <trkpt lat="-40.3307610" lon="-71.4141440">
        <ele>1033.7</ele>
        <time>2020-11-15T15:42:34Z</time>
      </trkpt>
      <trkpt lat="-40.3307740" lon="-71.4142030">
        <ele>1034.0</ele>
        <time>2020-11-15T15:42:35Z</time>
      </trkpt>
      <trkpt lat="-40.3307840" lon="-71.4142610">
        <ele>1034.4</ele>
        <time>2020-11-15T15:42:36Z</time>
      </trkpt>
      <trkpt lat="-40.3307920" lon="-71.4143170">
        <ele>1034.7</ele>
        <time>2020-11-15T15:42:37Z</time>
      </trkpt>
      <trkpt lat="-40.3307990" lon="-71.4143720">
        <ele>1035.0</ele>
        <time>2020-11-15T15:42:38Z</time>
      </trkpt>
      <trkpt lat="-40.3308060" lon="-71.4144230">
        <ele>1035.4</ele>
        <time>2020-11-15T15:42:39Z</time>
      </trkpt>
      <trkpt lat="-40.3308150" lon="-71.4144720">
        <ele>1035.7</ele>
        <time>2020-11-15T15:42:40Z</time>
      </trkpt>
      <trkpt lat="-40.3308220" lon="-71.4145230">
        <ele>1036.0</ele>
        <time>2020-11-15T15:42:41Z</time>
      </trkpt>
      <trkpt lat="-40.3308300" lon="-71.4145730">
        <ele>1036.3</ele>
        <time>2020-11-15T15:42:42Z</time>
      </trkpt>
      <trkpt lat="-40.3308390" lon="-71.4146230">
        <ele>1036.6</ele>
        <time>2020-11-15T15:42:43Z</time>
      </trkpt>
      <trkpt lat="-40.3308470" lon="-71.4146740">
        <ele>1036.9</ele>
        <time>2020-11-15T15:42:44Z</time>
      </trkpt>
      <trkpt lat="-40.3308540" lon="-71.4147240">
        <ele>1037.1</ele>
        <time>2020-11-15T15:42:45Z</time>
      </trkpt>
      <trkpt lat="-40.3308630" lon="-71.4147720">
        <ele>1037.4</ele>
        <time>2020-11-15T15:42:46Z</time>
      </trkpt>
      <trkpt lat="-40.3308700" lon="-71.4148190">
        <ele>1037.7</ele>
        <time>2020-11-15T15:42:47Z</time>
      </trkpt>
      <trkpt lat="-40.3308800" lon="-71.4148660">
        <ele>1037.9</ele>
        <time>2020-11-15T15:42:48Z</time>
      </trkpt>
      <trkpt lat="-40.3308890" lon="-71.4149140">
        <ele>1038.2</ele>
        <time>2020-11-15T15:42:49Z</time>
      </trkpt>
      <trkpt lat="-40.3308960" lon="-71.4149630">
        <ele>1038.4</ele>
        <time>2020-11-15T15:42:50Z</time>
      </trkpt>
      <trkpt lat="-40.3309060" lon="-71.4150110">
        <ele>1038.7</ele>
        <time>2020-11-15T15:42:51Z</time>
      </trkpt>
      <trkpt lat="-40.3309170" lon="-71.4150610">
        <ele>1038.9</ele>
        <time>2020-11-15T15:42:52Z</time>
      </trkpt>
      <trkpt lat="-40.3309280" lon="-71.4151120">
        <ele>1039.2</ele>
        <time>2020-11-15T15:42:53Z</time>
      </trkpt>
      <trkpt lat="-40.3309410" lon="-71.4151660">
        <ele>1039.5</ele>
        <time>2020-11-15T15:42:54Z</time>
      </trkpt>
      <trkpt lat="-40.3309560" lon="-71.4152210">
        <ele>1039.7</ele>
        <time>2020-11-15T15:42:55Z</time>
      </trkpt>
      <trkpt lat="-40.3309720" lon="-71.4152740">
        <ele>1039.9</ele>
        <time>2020-11-15T15:42:56Z</time>
      </trkpt>
      <trkpt lat="-40.3309860" lon="-71.4153280">
        <ele>1040.1</ele>
        <time>2020-11-15T15:42:57Z</time>
      </trkpt>
      <trkpt lat="-40.3310030" lon="-71.4153800">
        <ele>1040.3</ele>
        <time>2020-11-15T15:42:58Z</time>
      </trkpt>
      <trkpt lat="-40.3310220" lon="-71.4154300">
        <ele>1040.5</ele>
        <time>2020-11-15T15:42:59Z</time>
      </trkpt>
      <trkpt lat="-40.3310410" lon="-71.4154790">
        <ele>1040.7</ele>
        <time>2020-11-15T15:43:00Z</time>
      </trkpt>
      <trkpt lat="-40.3310630" lon="-71.4155280">
        <ele>1040.9</ele>
        <time>2020-11-15T15:43:01Z</time>
      </trkpt>
      <trkpt lat="-40.3310830" lon="-71.4155780">
        <ele>1041.0</ele>
        <time>2020-11-15T15:43:02Z</time>
      </trkpt>
      <trkpt lat="-40.3311100" lon="-71.4156270">
        <ele>1041.2</ele>
        <time>2020-11-15T15:43:03Z</time>
      </trkpt>
      <trkpt lat="-40.3311340" lon="-71.4156710">
        <ele>1041.3</ele>
        <time>2020-11-15T15:43:04Z</time>
      </trkpt>
      <trkpt lat="-40.3311580" lon="-71.4157110">
        <ele>1041.4</ele>
        <time>2020-11-15T15:43:05Z</time>
      </trkpt>
      <trkpt lat="-40.3311830" lon="-71.4157500">
        <ele>1041.5</ele>
        <time>2020-11-15T15:43:06Z</time>
      </trkpt>
      <trkpt lat="-40.3312080" lon="-71.4157880">
        <ele>1041.5</ele>
        <time>2020-11-15T15:43:07Z</time>
      </trkpt>
      <trkpt lat="-40.3312330" lon="-71.4158260">
        <ele>1041.6</ele>
        <time>2020-11-15T15:43:08Z</time>
      </trkpt>
      <trkpt lat="-40.3312580" lon="-71.4158660">
        <ele>1041.6</ele>
        <time>2020-11-15T15:43:09Z</time>
      </trkpt>
      <trkpt lat="-40.3312850" lon="-71.4159030">
        <ele>1041.6</ele>
        <time>2020-11-15T15:43:10Z</time>
      </trkpt>
      <trkpt lat="-40.3313140" lon="-71.4159400">
        <ele>1041.6</ele>
        <time>2020-11-15T15:43:11Z</time>
      </trkpt>
      <trkpt lat="-40.3313430" lon="-71.4159740">
        <ele>1041.6</ele>
        <time>2020-11-15T15:43:12Z</time>
      </trkpt>
      <trkpt lat="-40.3313740" lon="-71.4160060">
        <ele>1041.6</ele>
        <time>2020-11-15T15:43:13Z</time>
      </trkpt>
      <trkpt lat="-40.3314050" lon="-71.4160390">
        <ele>1041.5</ele>
        <time>2020-11-15T15:43:14Z</time>
      </trkpt>
      <trkpt lat="-40.3314380" lon="-71.4160700">
        <ele>1041.5</ele>
        <time>2020-11-15T15:43:15Z</time>
      </trkpt>
      <trkpt lat="-40.3314740" lon="-71.4161030">
        <ele>1041.4</ele>
        <time>2020-11-15T15:43:16Z</time>
      </trkpt>
      <trkpt lat="-40.3315120" lon="-71.4161400">
        <ele>1041.3</ele>
        <time>2020-11-15T15:43:17Z</time>
      </trkpt>
      <trkpt lat="-40.3315500" lon="-71.4161770">
        <ele>1041.2</ele>
        <time>2020-11-15T15:43:18Z</time>
      </trkpt>
      <trkpt lat="-40.3315890" lon="-71.4162130">
        <ele>1041.1</ele>
        <time>2020-11-15T15:43:19Z</time>
      </trkpt>
      <trkpt lat="-40.3316300" lon="-71.4162470">
        <ele>1041.0</ele>
        <time>2020-11-15T15:43:20Z</time>
      </trkpt>
      <trkpt lat="-40.3316760" lon="-71.4162770">
        <ele>1040.9</ele>
        <time>2020-11-15T15:43:21Z</time>
      </trkpt>
      <trkpt lat="-40.3317220" lon="-71.4163090">
        <ele>1040.8</ele>
        <time>2020-11-15T15:43:22Z</time>
      </trkpt>
      <trkpt lat="-40.3317690" lon="-71.4163450">
        <ele>1040.6</ele>
        <time>2020-11-15T15:43:23Z</time>
      </trkpt>
      <trkpt lat="-40.3318150" lon="-71.4163810">
        <ele>1040.5</ele>
        <time>2020-11-15T15:43:24Z</time>
      </trkpt>
      <trkpt lat="-40.3318630" lon="-71.4164180">
        <ele>1040.4</ele>
        <time>2020-11-15T15:43:25Z</time>
      </trkpt>
      <trkpt lat="-40.3319130" lon="-71.4164540">
        <ele>1040.2</ele>
        <time>2020-11-15T15:43:26Z</time>
      </trkpt>
      <trkpt lat="-40.3319610" lon="-71.4164890">
        <ele>1040.1</ele>
        <time>2020-11-15T15:43:27Z</time>
      </trkpt>
      <trkpt lat="-40.3320110" lon="-71.4165260">
        <ele>1040.0</ele>
        <time>2020-11-15T15:43:28Z</time>
      </trkpt>
      <trkpt lat="-40.3320600" lon="-71.4165600">
        <ele>1039.9</ele>
        <time>2020-11-15T15:43:29Z</time>
      </trkpt>
      <trkpt lat="-40.3321080" lon="-71.4165950">
        <ele>1039.8</ele>
        <time>2020-11-15T15:43:30Z</time>
      </trkpt>
      <trkpt lat="-40.3321550" lon="-71.4166340">
        <ele>1039.8</ele>
        <time>2020-11-15T15:43:31Z</time>
      </trkpt>
      <trkpt lat="-40.3322010" lon="-71.4166740">
        <ele>1039.8</ele>
        <time>2020-11-15T15:43:32Z</time>
      </trkpt>
      <trkpt lat="-40.3322440" lon="-71.4167170">
        <ele>1039.8</ele>
        <time>2020-11-15T15:43:33Z</time>
      </trkpt>
      <trkpt lat="-40.3322850" lon="-71.4167600">
        <ele>1039.8</ele>
        <time>2020-11-15T15:43:34Z</time>
      </trkpt>
      <trkpt lat="-40.3323230" lon="-71.4168020">
        <ele>1039.8</ele>
        <time>2020-11-15T15:43:35Z</time>
      </trkpt>
      <trkpt lat="-40.3323620" lon="-71.4168370">
        <ele>1039.9</ele>
        <time>2020-11-15T15:43:36Z</time>
      </trkpt>
      <trkpt lat="-40.3323960" lon="-71.4168730">
        <ele>1039.9</ele>
        <time>2020-11-15T15:43:37Z</time>
      </trkpt>
      <trkpt lat="-40.3324260" lon="-71.4169100">
        <ele>1040.0</ele>
        <time>2020-11-15T15:43:38Z</time>
      </trkpt>
      <trkpt lat="-40.3324530" lon="-71.4169470">
        <ele>1040.1</ele>
        <time>2020-11-15T15:43:39Z</time>
      </trkpt>
      <trkpt lat="-40.3324780" lon="-71.4169820">
        <ele>1040.1</ele>
        <time>2020-11-15T15:43:40Z</time>
      </trkpt>
      <trkpt lat="-40.3324980" lon="-71.4170180">
        <ele>1040.2</ele>
        <time>2020-11-15T15:43:41Z</time>
      </trkpt>
      <trkpt lat="-40.3325180" lon="-71.4170510">
        <ele>1040.3</ele>
        <time>2020-11-15T15:43:42Z</time>
      </trkpt>
      <trkpt lat="-40.3325360" lon="-71.4170830">
        <ele>1040.4</ele>
        <time>2020-11-15T15:43:43Z</time>
      </trkpt>
      <trkpt lat="-40.3325520" lon="-71.4171110">
        <ele>1040.4</ele>
        <time>2020-11-15T15:43:44Z</time>
      </trkpt>
      <trkpt lat="-40.3325680" lon="-71.4171360">
        <ele>1040.5</ele>
        <time>2020-11-15T15:43:45Z</time>
      </trkpt>
      <trkpt lat="-40.3325780" lon="-71.4171620">
        <ele>1040.5</ele>
        <time>2020-11-15T15:43:46Z</time>
      </trkpt>
      <trkpt lat="-40.3325870" lon="-71.4171860">
        <ele>1040.6</ele>
        <time>2020-11-15T15:43:47Z</time>
      </trkpt>
      <trkpt lat="-40.3325900" lon="-71.4172070">
        <ele>1040.6</ele>
        <time>2020-11-15T15:43:48Z</time>
      </trkpt>
      <trkpt lat="-40.3325980" lon="-71.4172260">
        <ele>1040.7</ele>
        <time>2020-11-15T15:43:49Z</time>
      </trkpt>
      <trkpt lat="-40.3326030" lon="-71.4172460">
        <ele>1040.7</ele>
        <time>2020-11-15T15:43:50Z</time>
      </trkpt>
      <trkpt lat="-40.3326110" lon="-71.4172670">
        <ele>1040.8</ele>
        <time>2020-11-15T15:43:51Z</time>
      </trkpt>
      <trkpt lat="-40.3326170" lon="-71.4172900">
        <ele>1040.8</ele>
        <time>2020-11-15T15:43:52Z</time>
      </trkpt>
      <trkpt lat="-40.3326280" lon="-71.4173150">
        <ele>1040.8</ele>
        <time>2020-11-15T15:43:53Z</time>
      </trkpt>
      <trkpt lat="-40.3326410" lon="-71.4173420">
        <ele>1040.9</ele>
        <time>2020-11-15T15:43:54Z</time>
      </trkpt>
      <trkpt lat="-40.3326570" lon="-71.4173680">
        <ele>1040.9</ele>
        <time>2020-11-15T15:43:55Z</time>
      </trkpt>
      <trkpt lat="-40.3326700" lon="-71.4173990">
        <ele>1040.9</ele>
        <time>2020-11-15T15:43:56Z</time>
      </trkpt>
      <trkpt lat="-40.3326840" lon="-71.4174320">
        <ele>1041.0</ele>
        <time>2020-11-15T15:43:57Z</time>
      </trkpt>
      <trkpt lat="-40.3326990" lon="-71.4174610">
        <ele>1041.0</ele>
        <time>2020-11-15T15:43:58Z</time>
      </trkpt>
      <trkpt lat="-40.3327150" lon="-71.4174890">
        <ele>1041.0</ele>
        <time>2020-11-15T15:43:59Z</time>
      </trkpt>
      <trkpt lat="-40.3327300" lon="-71.4175170">
        <ele>1041.0</ele>
        <time>2020-11-15T15:44:00Z</time>
      </trkpt>
      <trkpt lat="-40.3327470" lon="-71.4175450">
        <ele>1041.1</ele>
        <time>2020-11-15T15:44:01Z</time>
      </trkpt>
      <trkpt lat="-40.3327620" lon="-71.4175730">
        <ele>1041.1</ele>
        <time>2020-11-15T15:44:02Z</time>
      </trkpt>
      <trkpt lat="-40.3327790" lon="-71.4175980">
        <ele>1041.1</ele>
        <time>2020-11-15T15:44:03Z</time>
      </trkpt>
      <trkpt lat="-40.3327930" lon="-71.4176230">
        <ele>1041.1</ele>
        <time>2020-11-15T15:44:04Z</time>
      </trkpt>
      <trkpt lat="-40.3328080" lon="-71.4176470">
        <ele>1041.1</ele>
        <time>2020-11-15T15:44:05Z</time>
      </trkpt>
      <trkpt lat="-40.3328250" lon="-71.4176710">
        <ele>1041.0</ele>
        <time>2020-11-15T15:44:06Z</time>
      </trkpt>
      <trkpt lat="-40.3328430" lon="-71.4176940">
        <ele>1041.0</ele>
        <time>2020-11-15T15:44:07Z</time>
      </trkpt>
      <trkpt lat="-40.3328620" lon="-71.4177150">
        <ele>1041.0</ele>
        <time>2020-11-15T15:44:08Z</time>
      </trkpt>
      <trkpt lat="-40.3328810" lon="-71.4177350">
        <ele>1041.0</ele>
        <time>2020-11-15T15:44:09Z</time>
      </trkpt>
      <trkpt lat="-40.3329010" lon="-71.4177560">
        <ele>1040.9</ele>
        <time>2020-11-15T15:44:10Z</time>
      </trkpt>
      <trkpt lat="-40.3329170" lon="-71.4177790">
        <ele>1040.9</ele>
        <time>2020-11-15T15:44:11Z</time>
      </trkpt>
      <trkpt lat="-40.3329370" lon="-71.4177940">
        <ele>1040.9</ele>
        <time>2020-11-15T15:44:12Z</time>
      </trkpt>
      <trkpt lat="-40.3329580" lon="-71.4178070">
        <ele>1040.8</ele>
        <time>2020-11-15T15:44:13Z</time>
      </trkpt>
      <trkpt lat="-40.3329750" lon="-71.4178290">
        <ele>1040.8</ele>
        <time>2020-11-15T15:44:14Z</time>
      </trkpt>
      <trkpt lat="-40.3329930" lon="-71.4178430">
        <ele>1040.8</ele>
        <time>2020-11-15T15:44:15Z</time>
      </trkpt>
      <trkpt lat="-40.3330110" lon="-71.4178530">
        <ele>1040.7</ele>
        <time>2020-11-15T15:44:16Z</time>
      </trkpt>
      <trkpt lat="-40.3330300" lon="-71.4178620">
        <ele>1040.7</ele>
        <time>2020-11-15T15:44:17Z</time>
      </trkpt>
      <trkpt lat="-40.3330510" lon="-71.4178700">
        <ele>1040.6</ele>
        <time>2020-11-15T15:44:18Z</time>
      </trkpt>
      <trkpt lat="-40.3330720" lon="-71.4178800">
        <ele>1040.6</ele>
        <time>2020-11-15T15:44:19Z</time>
      </trkpt>
      <trkpt lat="-40.3330920" lon="-71.4178930">
        <ele>1040.5</ele>
        <time>2020-11-15T15:44:20Z</time>
      </trkpt>
      <trkpt lat="-40.3331100" lon="-71.4179100">
        <ele>1040.5</ele>
        <time>2020-11-15T15:44:21Z</time>
      </trkpt>
      <trkpt lat="-40.3331260" lon="-71.4179270">
        <ele>1040.4</ele>
        <time>2020-11-15T15:44:22Z</time>
      </trkpt>
      <trkpt lat="-40.3331380" lon="-71.4179420">
        <ele>1040.4</ele>
        <time>2020-11-15T15:44:23Z</time>
      </trkpt>
      <trkpt lat="-40.3331450" lon="-71.4179500">
        <ele>1040.4</ele>
        <time>2020-11-15T15:44:24Z</time>
      </trkpt>
      <trkpt lat="-40.3331470" lon="-71.4179510">
        <ele>1040.4</ele>
        <time>2020-11-15T15:44:25Z</time>
      </trkpt>
      <trkpt lat="-40.3331470" lon="-71.4179520">
        <ele>1040.4</ele>
        <time>2020-11-15T15:44:26Z</time>
      </trkpt>
      <trkpt lat="-40.3331480" lon="-71.4179530">
        <ele>1040.4</ele>
        <time>2020-11-15T15:44:27Z</time>
      </trkpt>
      <trkpt lat="-40.3331480" lon="-71.4179550">
        <ele>1040.4</ele>
        <time>2020-11-15T15:44:28Z</time>
      </trkpt>
      <trkpt lat="-40.3331440" lon="-71.4179490">
        <ele>1040.4</ele>
        <time>2020-11-15T15:44:29Z</time>
      </trkpt>
      <trkpt lat="-40.3331430" lon="-71.4179480">
        <ele>1040.4</ele>
        <time>2020-11-15T15:44:30Z</time>
      </trkpt>
      <trkpt lat="-40.3331430" lon="-71.4179440">
        <ele>1040.4</ele>
        <time>2020-11-15T15:44:31Z</time>
      </trkpt>
      <trkpt lat="-40.3331420" lon="-71.4179430">
        <ele>1040.4</ele>
        <time>2020-11-15T15:44:32Z</time>
      </trkpt>
      <trkpt lat="-40.3331430" lon="-71.4179430">
        <ele>1040.4</ele>
        <time>2020-11-15T15:44:33Z</time>
      </trkpt>
      <trkpt lat="-40.3331450" lon="-71.4179420">
        <ele>1040.4</ele>
        <time>2020-11-15T15:44:34Z</time>
      </trkpt>
      <trkpt lat="-40.3331430" lon="-71.4179430">
        <ele>1040.4</ele>
        <time>2020-11-15T15:44:35Z</time>
      </trkpt>
      <trkpt lat="-40.3331470" lon="-71.4179510">
        <ele>1040.5</ele>
        <time>2020-11-15T15:44:36Z</time>
      </trkpt>
      <trkpt lat="-40.3331470" lon="-71.4179530">
        <ele>1040.5</ele>
        <time>2020-11-15T15:44:37Z</time>
      </trkpt>
      <trkpt lat="-40.3331470" lon="-71.4179520">
        <ele>1040.5</ele>
        <time>2020-11-15T15:44:38Z</time>
      </trkpt>
      <trkpt lat="-40.3331490" lon="-71.4179520">
        <ele>1040.5</ele>
        <time>2020-11-15T15:44:39Z</time>
      </trkpt>
      <trkpt lat="-40.3331490" lon="-71.4179520">
        <ele>1040.5</ele>
        <time>2020-11-15T15:44:40Z</time>
      </trkpt>
      <trkpt lat="-40.3331470" lon="-71.4179540">
        <ele>1040.5</ele>
        <time>2020-11-15T15:44:41Z</time>
      </trkpt>
      <trkpt lat="-40.3331450" lon="-71.4179550">
        <ele>1040.5</ele>
        <time>2020-11-15T15:44:42Z</time>
      </trkpt>
      <trkpt lat="-40.3331420" lon="-71.4179520">
        <ele>1040.5</ele>
        <time>2020-11-15T15:44:43Z</time>
      </trkpt>
      <trkpt lat="-40.3331380" lon="-71.4179540">
        <ele>1040.5</ele>
        <time>2020-11-15T15:44:44Z</time>
      </trkpt>
      <trkpt lat="-40.3331370" lon="-71.4179550">
        <ele>1040.5</ele>
        <time>2020-11-15T15:44:45Z</time>
      </trkpt>
      <trkpt lat="-40.3331350" lon="-71.4179550">
        <ele>1040.5</ele>
        <time>2020-11-15T15:44:46Z</time>
      </trkpt>
      <trkpt lat="-40.3331350" lon="-71.4179540">
        <ele>1040.5</ele>
        <time>2020-11-15T15:44:47Z</time>
      </trkpt>
      <trkpt lat="-40.3331350" lon="-71.4179540">
        <ele>1040.5</ele>
        <time>2020-11-15T15:44:48Z</time>
      </trkpt>
      <trkpt lat="-40.3331350" lon="-71.4179550">
        <ele>1040.5</ele>
        <time>2020-11-15T15:44:49Z</time>
      </trkpt>
      <trkpt lat="-40.3331330" lon="-71.4179560">
        <ele>1040.5</ele>
        <time>2020-11-15T15:44:50Z</time>
      </trkpt>
      <trkpt lat="-40.3331290" lon="-71.4179580">
        <ele>1040.5</ele>
        <time>2020-11-15T15:44:51Z</time>
      </trkpt>
      <trkpt lat="-40.3331280" lon="-71.4179580">
        <ele>1040.5</ele>
        <time>2020-11-15T15:44:52Z</time>
      </trkpt>
      <trkpt lat="-40.3331280" lon="-71.4179580">
        <ele>1040.5</ele>
        <time>2020-11-15T15:44:53Z</time>
      </trkpt>
      <trkpt lat="-40.3331280" lon="-71.4179590">
        <ele>1040.5</ele>
        <time>2020-11-15T15:44:54Z</time>
      </trkpt>
      <trkpt lat="-40.3331280" lon="-71.4179570">
        <ele>1040.5</ele>
        <time>2020-11-15T15:44:55Z</time>
      </trkpt>
      <trkpt lat="-40.3331280" lon="-71.4179580">
        <ele>1040.5</ele>
        <time>2020-11-15T15:44:56Z</time>
      </trkpt>
      <trkpt lat="-40.3331260" lon="-71.4179570">
        <ele>1040.5</ele>
        <time>2020-11-15T15:44:57Z</time>
      </trkpt>
      <trkpt lat="-40.3331260" lon="-71.4179560">
        <ele>1040.5</ele>
        <time>2020-11-15T15:44:58Z</time>
      </trkpt>
      <trkpt lat="-40.3331250" lon="-71.4179580">
        <ele>1040.5</ele>
        <time>2020-11-15T15:44:59Z</time>
      </trkpt>
      <trkpt lat="-40.3331230" lon="-71.4179590">
        <ele>1040.5</ele>
        <time>2020-11-15T15:45:00Z</time>
      </trkpt>
      <trkpt lat="-40.3331200" lon="-71.4179600">
        <ele>1040.5</ele>
        <time>2020-11-15T15:45:01Z</time>
      </trkpt>
      <trkpt lat="-40.3331190" lon="-71.4179610">
        <ele>1040.5</ele>
        <time>2020-11-15T15:45:02Z</time>
      </trkpt>
      <trkpt lat="-40.3331180" lon="-71.4179630">
        <ele>1040.5</ele>
        <time>2020-11-15T15:45:03Z</time>
      </trkpt>
      <trkpt lat="-40.3331190" lon="-71.4179650">
        <ele>1040.5</ele>
        <time>2020-11-15T15:45:04Z</time>
      </trkpt>
      <trkpt lat="-40.3331180" lon="-71.4179640">
        <ele>1040.5</ele>
        <time>2020-11-15T15:45:05Z</time>
      </trkpt>
      <trkpt lat="-40.3331180" lon="-71.4179630">
        <ele>1040.5</ele>
        <time>2020-11-15T15:45:06Z</time>
      </trkpt>
      <trkpt lat="-40.3331160" lon="-71.4179620">
        <ele>1040.5</ele>
        <time>2020-11-15T15:45:07Z</time>
      </trkpt>
      <trkpt lat="-40.3331160" lon="-71.4179610">
        <ele>1040.5</ele>
        <time>2020-11-15T15:45:08Z</time>
      </trkpt>
      <trkpt lat="-40.3331150" lon="-71.4179590">
        <ele>1040.5</ele>
        <time>2020-11-15T15:45:09Z</time>
      </trkpt>
      <trkpt lat="-40.3331140" lon="-71.4179570">
        <ele>1040.5</ele>
        <time>2020-11-15T15:45:10Z</time>
      </trkpt>
      <trkpt lat="-40.3331140" lon="-71.4179580">
        <ele>1040.5</ele>
        <time>2020-11-15T15:45:11Z</time>
      </trkpt>
      <trkpt lat="-40.3331130" lon="-71.4179570">
        <ele>1040.5</ele>
        <time>2020-11-15T15:45:12Z</time>
      </trkpt>
      <trkpt lat="-40.3331110" lon="-71.4179540">
        <ele>1040.5</ele>
        <time>2020-11-15T15:45:13Z</time>
      </trkpt>
      <trkpt lat="-40.3331100" lon="-71.4179550">
        <ele>1040.5</ele>
        <time>2020-11-15T15:45:14Z</time>
      </trkpt>
      <trkpt lat="-40.3331150" lon="-71.4179590">
        <ele>1040.5</ele>
        <time>2020-11-15T15:45:15Z</time>
      </trkpt>
      <trkpt lat="-40.3331190" lon="-71.4179610">
        <ele>1040.5</ele>
        <time>2020-11-15T15:45:16Z</time>
      </trkpt>
      <trkpt lat="-40.3331200" lon="-71.4179600">
        <ele>1040.6</ele>
        <time>2020-11-15T15:45:17Z</time>
      </trkpt>
      <trkpt lat="-40.3331210" lon="-71.4179600">
        <ele>1040.6</ele>
        <time>2020-11-15T15:45:18Z</time>
      </trkpt>
      <trkpt lat="-40.3331190" lon="-71.4179580">
        <ele>1040.6</ele>
        <time>2020-11-15T15:45:19Z</time>
      </trkpt>
      <trkpt lat="-40.3331200" lon="-71.4179590">
        <ele>1040.6</ele>
        <time>2020-11-15T15:45:20Z</time>
      </trkpt>
      <trkpt lat="-40.3331200" lon="-71.4179590">
        <ele>1040.6</ele>
        <time>2020-11-15T15:45:21Z</time>
      </trkpt>
      <trkpt lat="-40.3331200" lon="-71.4179560">
        <ele>1040.6</ele>
        <time>2020-11-15T15:45:22Z</time>
      </trkpt>
      <trkpt lat="-40.3331220" lon="-71.4179540">
        <ele>1040.6</ele>
        <time>2020-11-15T15:45:23Z</time>
      </trkpt>
      <trkpt lat="-40.3331220" lon="-71.4179520">
        <ele>1040.6</ele>
        <time>2020-11-15T15:45:24Z</time>
      </trkpt>
      <trkpt lat="-40.3331210" lon="-71.4179490">
        <ele>1040.6</ele>
        <time>2020-11-15T15:45:25Z</time>
      </trkpt>
      <trkpt lat="-40.3331220" lon="-71.4179490">
        <ele>1040.6</ele>
        <time>2020-11-15T15:45:26Z</time>
      </trkpt>
      <trkpt lat="-40.3331210" lon="-71.4179510">
        <ele>1040.6</ele>
        <time>2020-11-15T15:45:27Z</time>
      </trkpt>
      <trkpt lat="-40.3331210" lon="-71.4179520">
        <ele>1040.6</ele>
        <time>2020-11-15T15:45:28Z</time>
      </trkpt>
      <trkpt lat="-40.3331210" lon="-71.4179510">
        <ele>1040.6</ele>
        <time>2020-11-15T15:45:29Z</time>
      </trkpt>
      <trkpt lat="-40.3331230" lon="-71.4179520">
        <ele>1040.6</ele>
        <time>2020-11-15T15:45:30Z</time>
      </trkpt>
      <trkpt lat="-40.3331220" lon="-71.4179540">
        <ele>1040.6</ele>
        <time>2020-11-15T15:45:31Z</time>
      </trkpt>
      <trkpt lat="-40.3331240" lon="-71.4179530">
        <ele>1040.6</ele>
        <time>2020-11-15T15:45:32Z</time>
      </trkpt>
      <trkpt lat="-40.3331240" lon="-71.4179530">
        <ele>1040.6</ele>
        <time>2020-11-15T15:45:33Z</time>
      </trkpt>
      <trkpt lat="-40.3331260" lon="-71.4179540">
        <ele>1040.6</ele>
        <time>2020-11-15T15:45:34Z</time>
      </trkpt>
      <trkpt lat="-40.3331270" lon="-71.4179540">
        <ele>1040.6</ele>
        <time>2020-11-15T15:45:35Z</time>
      </trkpt>
      <trkpt lat="-40.3331280" lon="-71.4179530">
        <ele>1040.6</ele>
        <time>2020-11-15T15:45:36Z</time>
      </trkpt>
      <trkpt lat="-40.3331300" lon="-71.4179520">
        <ele>1040.6</ele>
        <time>2020-11-15T15:45:37Z</time>
      </trkpt>
      <trkpt lat="-40.3331300" lon="-71.4179500">
        <ele>1040.6</ele>
        <time>2020-11-15T15:45:38Z</time>
      </trkpt>
      <trkpt lat="-40.3331310" lon="-71.4179500">
        <ele>1040.6</ele>
        <time>2020-11-15T15:45:39Z</time>
      </trkpt>
      <trkpt lat="-40.3331320" lon="-71.4179500">
        <ele>1040.6</ele>
        <time>2020-11-15T15:45:40Z</time>
      </trkpt>
      <trkpt lat="-40.3331340" lon="-71.4179490">
        <ele>1040.6</ele>
        <time>2020-11-15T15:45:41Z</time>
      </trkpt>
      <trkpt lat="-40.3331360" lon="-71.4179490">
        <ele>1040.6</ele>
        <time>2020-11-15T15:45:42Z</time>
      </trkpt>
      <trkpt lat="-40.3331390" lon="-71.4179480">
        <ele>1040.6</ele>
        <time>2020-11-15T15:45:43Z</time>
      </trkpt>
      <trkpt lat="-40.3331410" lon="-71.4179480">
        <ele>1040.6</ele>
        <time>2020-11-15T15:45:44Z</time>
      </trkpt>
      <trkpt lat="-40.3331410" lon="-71.4179530">
        <ele>1040.6</ele>
        <time>2020-11-15T15:45:45Z</time>
      </trkpt>
      <trkpt lat="-40.3331400" lon="-71.4179560">
        <ele>1040.6</ele>
        <time>2020-11-15T15:45:46Z</time>
      </trkpt>
      <trkpt lat="-40.3331390" lon="-71.4179590">
        <ele>1040.6</ele>
        <time>2020-11-15T15:45:47Z</time>
      </trkpt>
      <trkpt lat="-40.3331410" lon="-71.4179620">
        <ele>1040.6</ele>
        <time>2020-11-15T15:45:48Z</time>
      </trkpt>
      <trkpt lat="-40.3331400" lon="-71.4179580">
        <ele>1040.6</ele>
        <time>2020-11-15T15:45:49Z</time>
      </trkpt>
      <trkpt lat="-40.3331410" lon="-71.4179580">
        <ele>1040.6</ele>
        <time>2020-11-15T15:45:50Z</time>
      </trkpt>
      <trkpt lat="-40.3331410" lon="-71.4179570">
        <ele>1040.6</ele>
        <time>2020-11-15T15:45:51Z</time>
      </trkpt>
      <trkpt lat="-40.3331410" lon="-71.4179580">
        <ele>1040.6</ele>
        <time>2020-11-15T15:45:52Z</time>
      </trkpt>
      <trkpt lat="-40.3331400" lon="-71.4179570">
        <ele>1040.6</ele>
        <time>2020-11-15T15:45:53Z</time>
      </trkpt>
      <trkpt lat="-40.3331400" lon="-71.4179570">
        <ele>1040.6</ele>
        <time>2020-11-15T15:45:54Z</time>
      </trkpt>
      <trkpt lat="-40.3331420" lon="-71.4179560">
        <ele>1040.6</ele>
        <time>2020-11-15T15:45:55Z</time>
      </trkpt>
      <trkpt lat="-40.3331430" lon="-71.4179550">
        <ele>1040.6</ele>
        <time>2020-11-15T15:45:56Z</time>
      </trkpt>
      <trkpt lat="-40.3331430" lon="-71.4179550">
        <ele>1040.6</ele>
        <time>2020-11-15T15:45:57Z</time>
      </trkpt>
      <trkpt lat="-40.3331430" lon="-71.4179540">
        <ele>1040.6</ele>
        <time>2020-11-15T15:45:58Z</time>
      </trkpt>
      <trkpt lat="-40.3331440" lon="-71.4179520">
        <ele>1040.6</ele>
        <time>2020-11-15T15:45:59Z</time>
      </trkpt>
      <trkpt lat="-40.3331440" lon="-71.4179520">
        <ele>1040.6</ele>
        <time>2020-11-15T15:46:00Z</time>
      </trkpt>
      <trkpt lat="-40.3331430" lon="-71.4179530">
        <ele>1040.6</ele>
        <time>2020-11-15T15:46:01Z</time>
      </trkpt>
      <trkpt lat="-40.3331460" lon="-71.4179520">
        <ele>1040.6</ele>
        <time>2020-11-15T15:46:02Z</time>
      </trkpt>
      <trkpt lat="-40.3331460" lon="-71.4179520">
        <ele>1040.6</ele>
        <time>2020-11-15T15:46:03Z</time>
      </trkpt>
      <trkpt lat="-40.3331470" lon="-71.4179520">
        <ele>1040.7</ele>
        <time>2020-11-15T15:46:04Z</time>
      </trkpt>
      <trkpt lat="-40.3331490" lon="-71.4179520">
        <ele>1040.7</ele>
        <time>2020-11-15T15:46:05Z</time>
      </trkpt>
      <trkpt lat="-40.3331470" lon="-71.4179530">
        <ele>1040.7</ele>
        <time>2020-11-15T15:46:06Z</time>
      </trkpt>
      <trkpt lat="-40.3331460" lon="-71.4179550">
        <ele>1040.7</ele>
        <time>2020-11-15T15:46:07Z</time>
      </trkpt>
      <trkpt lat="-40.3331480" lon="-71.4179550">
        <ele>1040.7</ele>
        <time>2020-11-15T15:46:08Z</time>
      </trkpt>
      <trkpt lat="-40.3331490" lon="-71.4179570">
        <ele>1040.7</ele>
        <time>2020-11-15T15:46:09Z</time>
      </trkpt>
      <trkpt lat="-40.3331490" lon="-71.4179580">
        <ele>1040.7</ele>
        <time>2020-11-15T15:46:10Z</time>
      </trkpt>
      <trkpt lat="-40.3331510" lon="-71.4179590">
        <ele>1040.7</ele>
        <time>2020-11-15T15:46:11Z</time>
      </trkpt>
      <trkpt lat="-40.3331510" lon="-71.4179600">
        <ele>1040.7</ele>
        <time>2020-11-15T15:46:12Z</time>
      </trkpt>
      <trkpt lat="-40.3331520" lon="-71.4179620">
        <ele>1040.7</ele>
        <time>2020-11-15T15:46:13Z</time>
      </trkpt>
      <trkpt lat="-40.3331530" lon="-71.4179630">
        <ele>1040.7</ele>
        <time>2020-11-15T15:46:14Z</time>
      </trkpt>
      <trkpt lat="-40.3331530" lon="-71.4179630">
        <ele>1040.7</ele>
        <time>2020-11-15T15:46:15Z</time>
      </trkpt>
      <trkpt lat="-40.3331520" lon="-71.4179620">
        <ele>1040.7</ele>
        <time>2020-11-15T15:46:16Z</time>
      </trkpt>
      <trkpt lat="-40.3331520" lon="-71.4179610">
        <ele>1040.7</ele>
        <time>2020-11-15T15:46:17Z</time>
      </trkpt>
      <trkpt lat="-40.3331530" lon="-71.4179610">
        <ele>1040.7</ele>
        <time>2020-11-15T15:46:18Z</time>
      </trkpt>
      <trkpt lat="-40.3331530" lon="-71.4179590">
        <ele>1040.7</ele>
        <time>2020-11-15T15:46:19Z</time>
      </trkpt>
      <trkpt lat="-40.3331490" lon="-71.4179560">
        <ele>1040.7</ele>
        <time>2020-11-15T15:46:20Z</time>
      </trkpt>
      <trkpt lat="-40.3331500" lon="-71.4179540">
        <ele>1040.7</ele>
        <time>2020-11-15T15:46:21Z</time>
      </trkpt>
      <trkpt lat="-40.3331490" lon="-71.4179530">
        <ele>1040.7</ele>
        <time>2020-11-15T15:46:22Z</time>
      </trkpt>
      <trkpt lat="-40.3331470" lon="-71.4179520">
        <ele>1040.7</ele>
        <time>2020-11-15T15:46:23Z</time>
      </trkpt>
      <trkpt lat="-40.3331460" lon="-71.4179530">
        <ele>1040.7</ele>
        <time>2020-11-15T15:46:24Z</time>
      </trkpt>
      <trkpt lat="-40.3331470" lon="-71.4179520">
        <ele>1040.7</ele>
        <time>2020-11-15T15:46:25Z</time>
      </trkpt>
      <trkpt lat="-40.3331460" lon="-71.4179510">
        <ele>1040.7</ele>
        <time>2020-11-15T15:46:26Z</time>
      </trkpt>
      <trkpt lat="-40.3331510" lon="-71.4179510">
        <ele>1040.7</ele>
        <time>2020-11-15T15:46:27Z</time>
      </trkpt>
      <trkpt lat="-40.3331580" lon="-71.4179530">
        <ele>1040.7</ele>
        <time>2020-11-15T15:46:28Z</time>
      </trkpt>
      <trkpt lat="-40.3331580" lon="-71.4179550">
        <ele>1040.7</ele>
        <time>2020-11-15T15:46:29Z</time>
      </trkpt>
      <trkpt lat="-40.3331610" lon="-71.4179550">
        <ele>1040.7</ele>
        <time>2020-11-15T15:46:30Z</time>
      </trkpt>
      <trkpt lat="-40.3331640" lon="-71.4179560">
        <ele>1040.7</ele>
        <time>2020-11-15T15:46:31Z</time>
      </trkpt>
      <trkpt lat="-40.3331630" lon="-71.4179570">
        <ele>1040.7</ele>
        <time>2020-11-15T15:46:32Z</time>
      </trkpt>
      <trkpt lat="-40.3331640" lon="-71.4179580">
        <ele>1040.7</ele>
        <time>2020-11-15T15:46:33Z</time>
      </trkpt>
      <trkpt lat="-40.3331640" lon="-71.4179600">
        <ele>1040.7</ele>
        <time>2020-11-15T15:46:34Z</time>
      </trkpt>
      <trkpt lat="-40.3331650" lon="-71.4179610">
        <ele>1040.7</ele>
        <time>2020-11-15T15:46:35Z</time>
      </trkpt>
      <trkpt lat="-40.3331680" lon="-71.4179630">
        <ele>1040.7</ele>
        <time>2020-11-15T15:46:36Z</time>
      </trkpt>
      <trkpt lat="-40.3331650" lon="-71.4179660">
        <ele>1040.7</ele>
        <time>2020-11-15T15:46:37Z</time>
      </trkpt>
      <trkpt lat="-40.3331640" lon="-71.4179690">
        <ele>1040.7</ele>
        <time>2020-11-15T15:46:38Z</time>
      </trkpt>
      <trkpt lat="-40.3331670" lon="-71.4179680">
        <ele>1040.7</ele>
        <time>2020-11-15T15:46:39Z</time>
      </trkpt>
      <trkpt lat="-40.3331660" lon="-71.4179690">
        <ele>1040.7</ele>
        <time>2020-11-15T15:46:40Z</time>
      </trkpt>
      <trkpt lat="-40.3331650" lon="-71.4179710">
        <ele>1040.7</ele>
        <time>2020-11-15T15:46:41Z</time>
      </trkpt>
      <trkpt lat="-40.3331650" lon="-71.4179720">
        <ele>1040.7</ele>
        <time>2020-11-15T15:46:42Z</time>
      </trkpt>
      <trkpt lat="-40.3331640" lon="-71.4179720">
        <ele>1040.8</ele>
        <time>2020-11-15T15:46:43Z</time>
      </trkpt>
      <trkpt lat="-40.3331640" lon="-71.4179720">
        <ele>1040.8</ele>
        <time>2020-11-15T15:46:44Z</time>
      </trkpt>
      <trkpt lat="-40.3331640" lon="-71.4179750">
        <ele>1040.8</ele>
        <time>2020-11-15T15:46:45Z</time>
      </trkpt>
      <trkpt lat="-40.3331630" lon="-71.4179730">
        <ele>1040.8</ele>
        <time>2020-11-15T15:46:46Z</time>
      </trkpt>
      <trkpt lat="-40.3331620" lon="-71.4179720">
        <ele>1040.8</ele>
        <time>2020-11-15T15:46:47Z</time>
      </trkpt>
      <trkpt lat="-40.3331600" lon="-71.4179710">
        <ele>1040.8</ele>
        <time>2020-11-15T15:46:48Z</time>
      </trkpt>
      <trkpt lat="-40.3331600" lon="-71.4179700">
        <ele>1040.8</ele>
        <time>2020-11-15T15:46:49Z</time>
      </trkpt>
      <trkpt lat="-40.3331600" lon="-71.4179710">
        <ele>1040.8</ele>
        <time>2020-11-15T15:46:50Z</time>
      </trkpt>
      <trkpt lat="-40.3331550" lon="-71.4179710">
        <ele>1040.8</ele>
        <time>2020-11-15T15:46:51Z</time>
      </trkpt>
      <trkpt lat="-40.3331510" lon="-71.4179710">
        <ele>1040.8</ele>
        <time>2020-11-15T15:46:52Z</time>
      </trkpt>
      <trkpt lat="-40.3331470" lon="-71.4179730">
        <ele>1040.8</ele>
        <time>2020-11-15T15:46:53Z</time>
      </trkpt>
      <trkpt lat="-40.3331420" lon="-71.4179750">
        <ele>1040.8</ele>
        <time>2020-11-15T15:46:54Z</time>
      </trkpt>
      <trkpt lat="-40.3331380" lon="-71.4179720">
        <ele>1040.8</ele>
        <time>2020-11-15T15:46:55Z</time>
      </trkpt>
      <trkpt lat="-40.3331380" lon="-71.4179680">
        <ele>1040.8</ele>
        <time>2020-11-15T15:46:56Z</time>
      </trkpt>
      <trkpt lat="-40.3331350" lon="-71.4179640">
        <ele>1040.8</ele>
        <time>2020-11-15T15:46:57Z</time>
      </trkpt>
      <trkpt lat="-40.3331340" lon="-71.4179620">
        <ele>1040.8</ele>
        <time>2020-11-15T15:46:58Z</time>
      </trkpt>
      <trkpt lat="-40.3331360" lon="-71.4179610">
        <ele>1040.8</ele>
        <time>2020-11-15T15:46:59Z</time>
      </trkpt>
      <trkpt lat="-40.3331340" lon="-71.4179620">
        <ele>1040.8</ele>
        <time>2020-11-15T15:47:00Z</time>
      </trkpt>
      <trkpt lat="-40.3331340" lon="-71.4179620">
        <ele>1040.8</ele>
        <time>2020-11-15T15:47:01Z</time>
      </trkpt>
      <trkpt lat="-40.3331340" lon="-71.4179620">
        <ele>1040.8</ele>
        <time>2020-11-15T15:47:02Z</time>
      </trkpt>
      <trkpt lat="-40.3331340" lon="-71.4179610">
        <ele>1040.8</ele>
        <time>2020-11-15T15:47:03Z</time>
      </trkpt>
      <trkpt lat="-40.3331340" lon="-71.4179620">
        <ele>1040.8</ele>
        <time>2020-11-15T15:47:04Z</time>
      </trkpt>
      <trkpt lat="-40.3331330" lon="-71.4179610">
        <ele>1040.8</ele>
        <time>2020-11-15T15:47:05Z</time>
      </trkpt>
      <trkpt lat="-40.3331330" lon="-71.4179620">
        <ele>1040.8</ele>
        <time>2020-11-15T15:47:06Z</time>
      </trkpt>
      <trkpt lat="-40.3331330" lon="-71.4179620">
        <ele>1040.8</ele>
        <time>2020-11-15T15:47:07Z</time>
      </trkpt>
      <trkpt lat="-40.3331320" lon="-71.4179630">
        <ele>1040.8</ele>
        <time>2020-11-15T15:47:08Z</time>
      </trkpt>
      <trkpt lat="-40.3331310" lon="-71.4179620">
        <ele>1040.8</ele>
        <time>2020-11-15T15:47:09Z</time>
      </trkpt>
      <trkpt lat="-40.3331320" lon="-71.4179620">
        <ele>1040.8</ele>
        <time>2020-11-15T15:47:10Z</time>
      </trkpt>
      <trkpt lat="-40.3331310" lon="-71.4179610">
        <ele>1040.8</ele>
        <time>2020-11-15T15:47:11Z</time>
      </trkpt>
      <trkpt lat="-40.3331310" lon="-71.4179610">
        <ele>1040.8</ele>
        <time>2020-11-15T15:47:12Z</time>
      </trkpt>
      <trkpt lat="-40.3331310" lon="-71.4179600">
        <ele>1040.8</ele>
        <time>2020-11-15T15:47:13Z</time>
      </trkpt>
      <trkpt lat="-40.3331310" lon="-71.4179600">
        <ele>1040.8</ele>
        <time>2020-11-15T15:47:14Z</time>
      </trkpt>
      <trkpt lat="-40.3331290" lon="-71.4179620">
        <ele>1040.8</ele>
        <time>2020-11-15T15:47:15Z</time>
      </trkpt>
      <trkpt lat="-40.3331290" lon="-71.4179640">
        <ele>1040.8</ele>
        <time>2020-11-15T15:47:16Z</time>
      </trkpt>
      <trkpt lat="-40.3331270" lon="-71.4179640">
        <ele>1040.8</ele>
        <time>2020-11-15T15:47:17Z</time>
      </trkpt>
      <trkpt lat="-40.3331260" lon="-71.4179640">
        <ele>1040.8</ele>
        <time>2020-11-15T15:47:18Z</time>
      </trkpt>
      <trkpt lat="-40.3331250" lon="-71.4179640">
        <ele>1040.8</ele>
        <time>2020-11-15T15:47:19Z</time>
      </trkpt>
      <trkpt lat="-40.3331240" lon="-71.4179650">
        <ele>1040.8</ele>
        <time>2020-11-15T15:47:20Z</time>
      </trkpt>
      <trkpt lat="-40.3331230" lon="-71.4179660">
        <ele>1040.8</ele>
        <time>2020-11-15T15:47:21Z</time>
      </trkpt>
      <trkpt lat="-40.3331220" lon="-71.4179670">
        <ele>1040.8</ele>
        <time>2020-11-15T15:47:22Z</time>
      </trkpt>
      <trkpt lat="-40.3331210" lon="-71.4179660">
        <ele>1040.8</ele>
        <time>2020-11-15T15:47:23Z</time>
      </trkpt>
      <trkpt lat="-40.3331200" lon="-71.4179640">
        <ele>1040.8</ele>
        <time>2020-11-15T15:47:24Z</time>
      </trkpt>
      <trkpt lat="-40.3331200" lon="-71.4179600">
        <ele>1040.8</ele>
        <time>2020-11-15T15:47:25Z</time>
      </trkpt>
      <trkpt lat="-40.3331190" lon="-71.4179600">
        <ele>1040.8</ele>
        <time>2020-11-15T15:47:26Z</time>
      </trkpt>
      <trkpt lat="-40.3331180" lon="-71.4179640">
        <ele>1040.8</ele>
        <time>2020-11-15T15:47:27Z</time>
      </trkpt>
      <trkpt lat="-40.3331170" lon="-71.4179660">
        <ele>1040.8</ele>
        <time>2020-11-15T15:47:28Z</time>
      </trkpt>
      <trkpt lat="-40.3331180" lon="-71.4179680">
        <ele>1040.8</ele>
        <time>2020-11-15T15:47:29Z</time>
      </trkpt>
      <trkpt lat="-40.3331200" lon="-71.4179680">
        <ele>1040.9</ele>
        <time>2020-11-15T15:47:30Z</time>
      </trkpt>
      <trkpt lat="-40.3331210" lon="-71.4179660">
        <ele>1040.9</ele>
        <time>2020-11-15T15:47:31Z</time>
      </trkpt>
      <trkpt lat="-40.3331220" lon="-71.4179680">
        <ele>1040.9</ele>
        <time>2020-11-15T15:47:32Z</time>
      </trkpt>
      <trkpt lat="-40.3331230" lon="-71.4179670">
        <ele>1040.9</ele>
        <time>2020-11-15T15:47:33Z</time>
      </trkpt>
      <trkpt lat="-40.3331220" lon="-71.4179680">
        <ele>1040.9</ele>
        <time>2020-11-15T15:47:34Z</time>
      </trkpt>
      <trkpt lat="-40.3331220" lon="-71.4179680">
        <ele>1040.9</ele>
        <time>2020-11-15T15:47:35Z</time>
      </trkpt>
      <trkpt lat="-40.3331220" lon="-71.4179670">
        <ele>1040.9</ele>
        <time>2020-11-15T15:47:36Z</time>
      </trkpt>
      <trkpt lat="-40.3331210" lon="-71.4179650">
        <ele>1040.9</ele>
        <time>2020-11-15T15:47:37Z</time>
      </trkpt>
      <trkpt lat="-40.3331210" lon="-71.4179660">
        <ele>1040.9</ele>
        <time>2020-11-15T15:47:38Z</time>
      </trkpt>
      <trkpt lat="-40.3331210" lon="-71.4179670">
        <ele>1040.9</ele>
        <time>2020-11-15T15:47:39Z</time>
      </trkpt>
      <trkpt lat="-40.3331230" lon="-71.4179710">
        <ele>1040.9</ele>
        <time>2020-11-15T15:47:40Z</time>
      </trkpt>
      <trkpt lat="-40.3331240" lon="-71.4179730">
        <ele>1040.9</ele>
        <time>2020-11-15T15:47:41Z</time>
      </trkpt>
      <trkpt lat="-40.3331250" lon="-71.4179730">
        <ele>1040.9</ele>
        <time>2020-11-15T15:47:42Z</time>
      </trkpt>
      <trkpt lat="-40.3331260" lon="-71.4179730">
        <ele>1040.9</ele>
        <time>2020-11-15T15:47:43Z</time>
      </trkpt>
      <trkpt lat="-40.3331260" lon="-71.4179720">
        <ele>1040.9</ele>
        <time>2020-11-15T15:47:44Z</time>
      </trkpt>
      <trkpt lat="-40.3331250" lon="-71.4179700">
        <ele>1040.9</ele>
        <time>2020-11-15T15:47:45Z</time>
      </trkpt>
      <trkpt lat="-40.3331240" lon="-71.4179690">
        <ele>1040.9</ele>
        <time>2020-11-15T15:47:46Z</time>
      </trkpt>
      <trkpt lat="-40.3331230" lon="-71.4179690">
        <ele>1040.9</ele>
        <time>2020-11-15T15:47:47Z</time>
      </trkpt>
      <trkpt lat="-40.3331230" lon="-71.4179690">
        <ele>1040.9</ele>
        <time>2020-11-15T15:47:48Z</time>
      </trkpt>
      <trkpt lat="-40.3331230" lon="-71.4179680">
        <ele>1040.9</ele>
        <time>2020-11-15T15:47:49Z</time>
      </trkpt>
      <trkpt lat="-40.3331210" lon="-71.4179700">
        <ele>1040.9</ele>
        <time>2020-11-15T15:47:50Z</time>
      </trkpt>
      <trkpt lat="-40.3331230" lon="-71.4179700">
        <ele>1040.9</ele>
        <time>2020-11-15T15:47:51Z</time>
      </trkpt>
      <trkpt lat="-40.3331230" lon="-71.4179700">
        <ele>1040.9</ele>
        <time>2020-11-15T15:47:52Z</time>
      </trkpt>
      <trkpt lat="-40.3331230" lon="-71.4179700">
        <ele>1040.9</ele>
        <time>2020-11-15T15:47:53Z</time>
      </trkpt>
      <trkpt lat="-40.3331230" lon="-71.4179690">
        <ele>1040.9</ele>
        <time>2020-11-15T15:47:54Z</time>
      </trkpt>
      <trkpt lat="-40.3331230" lon="-71.4179690">
        <ele>1040.9</ele>
        <time>2020-11-15T15:47:55Z</time>
      </trkpt>
      <trkpt lat="-40.3331230" lon="-71.4179690">
        <ele>1040.9</ele>
        <time>2020-11-15T15:47:56Z</time>
      </trkpt>
      <trkpt lat="-40.3331240" lon="-71.4179690">
        <ele>1040.9</ele>
        <time>2020-11-15T15:47:57Z</time>
      </trkpt>
      <trkpt lat="-40.3331250" lon="-71.4179680">
        <ele>1040.9</ele>
        <time>2020-11-15T15:47:58Z</time>
      </trkpt>
      <trkpt lat="-40.3331250" lon="-71.4179670">
        <ele>1040.9</ele>
        <time>2020-11-15T15:47:59Z</time>
      </trkpt>
      <trkpt lat="-40.3331260" lon="-71.4179650">
        <ele>1040.9</ele>
        <time>2020-11-15T15:48:00Z</time>
      </trkpt>
      <trkpt lat="-40.3331260" lon="-71.4179640">
        <ele>1040.9</ele>
        <time>2020-11-15T15:48:01Z</time>
      </trkpt>
      <trkpt lat="-40.3331270" lon="-71.4179640">
        <ele>1040.9</ele>
        <time>2020-11-15T15:48:02Z</time>
      </trkpt>
      <trkpt lat="-40.3331260" lon="-71.4179680">
        <ele>1040.9</ele>
        <time>2020-11-15T15:48:03Z</time>
      </trkpt>
      <trkpt lat="-40.3331250" lon="-71.4179690">
        <ele>1040.9</ele>
        <time>2020-11-15T15:48:04Z</time>
      </trkpt>
      <trkpt lat="-40.3331250" lon="-71.4179690">
        <ele>1040.9</ele>
        <time>2020-11-15T15:48:05Z</time>
      </trkpt>
      <trkpt lat="-40.3331240" lon="-71.4179690">
        <ele>1040.9</ele>
        <time>2020-11-15T15:48:06Z</time>
      </trkpt>
      <trkpt lat="-40.3331250" lon="-71.4179730">
        <ele>1040.9</ele>
        <time>2020-11-15T15:48:07Z</time>
      </trkpt>
      <trkpt lat="-40.3331240" lon="-71.4179730">
        <ele>1040.9</ele>
        <time>2020-11-15T15:48:08Z</time>
      </trkpt>
      <trkpt lat="-40.3331240" lon="-71.4179740">
        <ele>1040.9</ele>
        <time>2020-11-15T15:48:09Z</time>
      </trkpt>
      <trkpt lat="-40.3331230" lon="-71.4179740">
        <ele>1040.9</ele>
        <time>2020-11-15T15:48:10Z</time>
      </trkpt>
      <trkpt lat="-40.3331210" lon="-71.4179730">
        <ele>1040.9</ele>
        <time>2020-11-15T15:48:11Z</time>
      </trkpt>
      <trkpt lat="-40.3331190" lon="-71.4179740">
        <ele>1040.9</ele>
        <time>2020-11-15T15:48:12Z</time>
      </trkpt>
      <trkpt lat="-40.3331170" lon="-71.4179740">
        <ele>1040.9</ele>
        <time>2020-11-15T15:48:13Z</time>
      </trkpt>
      <trkpt lat="-40.3331160" lon="-71.4179740">
        <ele>1040.9</ele>
        <time>2020-11-15T15:48:14Z</time>
      </trkpt>
      <trkpt lat="-40.3331160" lon="-71.4179700">
        <ele>1040.9</ele>
        <time>2020-11-15T15:48:15Z</time>
      </trkpt>
      <trkpt lat="-40.3331120" lon="-71.4179670">
        <ele>1040.9</ele>
        <time>2020-11-15T15:48:16Z</time>
      </trkpt>
      <trkpt lat="-40.3331110" lon="-71.4179640">
        <ele>1040.9</ele>
        <time>2020-11-15T15:48:17Z</time>
      </trkpt>
      <trkpt lat="-40.3331120" lon="-71.4179630">
        <ele>1040.9</ele>
        <time>2020-11-15T15:48:18Z</time>
      </trkpt>
      <trkpt lat="-40.3331110" lon="-71.4179610">
        <ele>1040.9</ele>
        <time>2020-11-15T15:48:19Z</time>
      </trkpt>
      <trkpt lat="-40.3331090" lon="-71.4179620">
        <ele>1040.9</ele>
        <time>2020-11-15T15:48:20Z</time>
      </trkpt>
      <trkpt lat="-40.3331070" lon="-71.4179590">
        <ele>1040.9</ele>
        <time>2020-11-15T15:48:21Z</time>
      </trkpt>
      <trkpt lat="-40.3331020" lon="-71.4179550">
        <ele>1040.9</ele>
        <time>2020-11-15T15:48:22Z</time>
      </trkpt>
      <trkpt lat="-40.3331010" lon="-71.4179550">
        <ele>1040.9</ele>
        <time>2020-11-15T15:48:23Z</time>
      </trkpt>
      <trkpt lat="-40.3331030" lon="-71.4179540">
        <ele>1040.9</ele>
        <time>2020-11-15T15:48:24Z</time>
      </trkpt>
      <trkpt lat="-40.3330980" lon="-71.4179530">
        <ele>1040.9</ele>
        <time>2020-11-15T15:48:25Z</time>
      </trkpt>
      <trkpt lat="-40.3330960" lon="-71.4179550">
        <ele>1040.9</ele>
        <time>2020-11-15T15:48:26Z</time>
      </trkpt>
      <trkpt lat="-40.3330950" lon="-71.4179560">
        <ele>1040.9</ele>
        <time>2020-11-15T15:48:27Z</time>
      </trkpt>
      <trkpt lat="-40.3330940" lon="-71.4179560">
        <ele>1040.9</ele>
        <time>2020-11-15T15:48:28Z</time>
      </trkpt>
      <trkpt lat="-40.3330930" lon="-71.4179560">
        <ele>1040.9</ele>
        <time>2020-11-15T15:48:29Z</time>
      </trkpt>
      <trkpt lat="-40.3330930" lon="-71.4179560">
        <ele>1040.9</ele>
        <time>2020-11-15T15:48:30Z</time>
      </trkpt>
      <trkpt lat="-40.3330910" lon="-71.4179550">
        <ele>1040.9</ele>
        <time>2020-11-15T15:48:31Z</time>
      </trkpt>
      <trkpt lat="-40.3330910" lon="-71.4179550">
        <ele>1040.9</ele>
        <time>2020-11-15T15:48:32Z</time>
      </trkpt>
      <trkpt lat="-40.3330920" lon="-71.4179550">
        <ele>1040.9</ele>
        <time>2020-11-15T15:48:33Z</time>
      </trkpt>
      <trkpt lat="-40.3330920" lon="-71.4179550">
        <ele>1040.9</ele>
        <time>2020-11-15T15:48:34Z</time>
      </trkpt>
      <trkpt lat="-40.3330920" lon="-71.4179550">
        <ele>1040.9</ele>
        <time>2020-11-15T15:48:35Z</time>
      </trkpt>
      <trkpt lat="-40.3330920" lon="-71.4179570">
        <ele>1040.9</ele>
        <time>2020-11-15T15:48:36Z</time>
      </trkpt>
      <trkpt lat="-40.3330940" lon="-71.4179600">
        <ele>1040.9</ele>
        <time>2020-11-15T15:48:37Z</time>
      </trkpt>
      <trkpt lat="-40.3330950" lon="-71.4179600">
        <ele>1040.9</ele>
        <time>2020-11-15T15:48:38Z</time>
      </trkpt>
      <trkpt lat="-40.3330940" lon="-71.4179610">
        <ele>1040.9</ele>
        <time>2020-11-15T15:48:39Z</time>
      </trkpt>
      <trkpt lat="-40.3330940" lon="-71.4179610">
        <ele>1040.9</ele>
        <time>2020-11-15T15:48:40Z</time>
      </trkpt>
      <trkpt lat="-40.3330940" lon="-71.4179620">
        <ele>1040.9</ele>
        <time>2020-11-15T15:48:41Z</time>
      </trkpt>
      <trkpt lat="-40.3330940" lon="-71.4179620">
        <ele>1040.9</ele>
        <time>2020-11-15T15:48:42Z</time>
      </trkpt>
      <trkpt lat="-40.3330920" lon="-71.4179640">
        <ele>1040.9</ele>
        <time>2020-11-15T15:48:43Z</time>
      </trkpt>
      <trkpt lat="-40.3330920" lon="-71.4179630">
        <ele>1040.9</ele>
        <time>2020-11-15T15:48:44Z</time>
      </trkpt>
      <trkpt lat="-40.3330930" lon="-71.4179620">
        <ele>1040.9</ele>
        <time>2020-11-15T15:48:45Z</time>
      </trkpt>
      <trkpt lat="-40.3330930" lon="-71.4179630">
        <ele>1040.9</ele>
        <time>2020-11-15T15:48:46Z</time>
      </trkpt>
      <trkpt lat="-40.3330950" lon="-71.4179630">
        <ele>1040.9</ele>
        <time>2020-11-15T15:48:47Z</time>
      </trkpt>
      <trkpt lat="-40.3330980" lon="-71.4179660">
        <ele>1041.0</ele>
        <time>2020-11-15T15:48:48Z</time>
      </trkpt>
      <trkpt lat="-40.3331000" lon="-71.4179660">
        <ele>1041.0</ele>
        <time>2020-11-15T15:48:49Z</time>
      </trkpt>
      <trkpt lat="-40.3331010" lon="-71.4179660">
        <ele>1041.0</ele>
        <time>2020-11-15T15:48:50Z</time>
      </trkpt>
      <trkpt lat="-40.3331030" lon="-71.4179680">
        <ele>1041.0</ele>
        <time>2020-11-15T15:48:51Z</time>
      </trkpt>
      <trkpt lat="-40.3331020" lon="-71.4179660">
        <ele>1041.0</ele>
        <time>2020-11-15T15:48:52Z</time>
      </trkpt>
      <trkpt lat="-40.3330980" lon="-71.4179600">
        <ele>1041.0</ele>
        <time>2020-11-15T15:48:53Z</time>
      </trkpt>
      <trkpt lat="-40.3330920" lon="-71.4179470">
        <ele>1041.0</ele>
        <time>2020-11-15T15:48:54Z</time>
      </trkpt>
      <trkpt lat="-40.3330840" lon="-71.4179330">
        <ele>1041.0</ele>
        <time>2020-11-15T15:48:55Z</time>
      </trkpt>
      <trkpt lat="-40.3330740" lon="-71.4179170">
        <ele>1041.0</ele>
        <time>2020-11-15T15:48:56Z</time>
      </trkpt>
      <trkpt lat="-40.3330610" lon="-71.4178990">
        <ele>1041.0</ele>
        <time>2020-11-15T15:48:57Z</time>
      </trkpt>
      <trkpt lat="-40.3330460" lon="-71.4178790">
        <ele>1041.0</ele>
        <time>2020-11-15T15:48:58Z</time>
      </trkpt>
      <trkpt lat="-40.3330290" lon="-71.4178590">
        <ele>1041.0</ele>
        <time>2020-11-15T15:48:59Z</time>
      </trkpt>
      <trkpt lat="-40.3330110" lon="-71.4178330">
        <ele>1041.0</ele>
        <time>2020-11-15T15:49:00Z</time>
      </trkpt>
      <trkpt lat="-40.3329940" lon="-71.4178050">
        <ele>1041.1</ele>
        <time>2020-11-15T15:49:01Z</time>
      </trkpt>
      <trkpt lat="-40.3329750" lon="-71.4177790">
        <ele>1041.1</ele>
        <time>2020-11-15T15:49:02Z</time>
      </trkpt>
      <trkpt lat="-40.3329530" lon="-71.4177540">
        <ele>1041.1</ele>
        <time>2020-11-15T15:49:03Z</time>
      </trkpt>
      <trkpt lat="-40.3329280" lon="-71.4177280">
        <ele>1041.1</ele>
        <time>2020-11-15T15:49:04Z</time>
      </trkpt>
      <trkpt lat="-40.3329030" lon="-71.4177000">
        <ele>1041.1</ele>
        <time>2020-11-15T15:49:05Z</time>
      </trkpt>
      <trkpt lat="-40.3328790" lon="-71.4176690">
        <ele>1041.1</ele>
        <time>2020-11-15T15:49:06Z</time>
      </trkpt>
      <trkpt lat="-40.3328530" lon="-71.4176350">
        <ele>1041.0</ele>
        <time>2020-11-15T15:49:07Z</time>
      </trkpt>
      <trkpt lat="-40.3328290" lon="-71.4176000">
        <ele>1041.0</ele>
        <time>2020-11-15T15:49:08Z</time>
      </trkpt>
      <trkpt lat="-40.3328050" lon="-71.4175640">
        <ele>1041.0</ele>
        <time>2020-11-15T15:49:09Z</time>
      </trkpt>
      <trkpt lat="-40.3327800" lon="-71.4175270">
        <ele>1041.0</ele>
        <time>2020-11-15T15:49:10Z</time>
      </trkpt>
      <trkpt lat="-40.3327520" lon="-71.4174910">
        <ele>1041.0</ele>
        <time>2020-11-15T15:49:11Z</time>
      </trkpt>
      <trkpt lat="-40.3327260" lon="-71.4174530">
        <ele>1040.9</ele>
        <time>2020-11-15T15:49:12Z</time>
      </trkpt>
      <trkpt lat="-40.3327010" lon="-71.4174120">
        <ele>1040.9</ele>
        <time>2020-11-15T15:49:13Z</time>
      </trkpt>
      <trkpt lat="-40.3326760" lon="-71.4173720">
        <ele>1040.9</ele>
        <time>2020-11-15T15:49:14Z</time>
      </trkpt>
      <trkpt lat="-40.3326500" lon="-71.4173280">
        <ele>1040.8</ele>
        <time>2020-11-15T15:49:15Z</time>
      </trkpt>
      <trkpt lat="-40.3326260" lon="-71.4172800">
        <ele>1040.8</ele>
        <time>2020-11-15T15:49:16Z</time>
      </trkpt>
      <trkpt lat="-40.3326020" lon="-71.4172320">
        <ele>1040.7</ele>
        <time>2020-11-15T15:49:17Z</time>
      </trkpt>
      <trkpt lat="-40.3325780" lon="-71.4171810">
        <ele>1040.6</ele>
        <time>2020-11-15T15:49:18Z</time>
      </trkpt>
      <trkpt lat="-40.3325560" lon="-71.4171270">
        <ele>1040.5</ele>
        <time>2020-11-15T15:49:19Z</time>
      </trkpt>
      <trkpt lat="-40.3325290" lon="-71.4170750">
        <ele>1040.4</ele>
        <time>2020-11-15T15:49:20Z</time>
      </trkpt>
      <trkpt lat="-40.3324990" lon="-71.4170190">
        <ele>1040.2</ele>
        <time>2020-11-15T15:49:21Z</time>
      </trkpt>
      <trkpt lat="-40.3324660" lon="-71.4169630">
        <ele>1040.1</ele>
        <time>2020-11-15T15:49:22Z</time>
      </trkpt>
      <trkpt lat="-40.3324300" lon="-71.4169090">
        <ele>1040.0</ele>
        <time>2020-11-15T15:49:23Z</time>
      </trkpt>
      <trkpt lat="-40.3323930" lon="-71.4168540">
        <ele>1039.9</ele>
        <time>2020-11-15T15:49:24Z</time>
      </trkpt>
      <trkpt lat="-40.3323550" lon="-71.4168000">
        <ele>1039.8</ele>
        <time>2020-11-15T15:49:25Z</time>
      </trkpt>
      <trkpt lat="-40.3323160" lon="-71.4167420">
        <ele>1039.8</ele>
        <time>2020-11-15T15:49:26Z</time>
      </trkpt>
      <trkpt lat="-40.3322750" lon="-71.4166870">
        <ele>1039.8</ele>
        <time>2020-11-15T15:49:27Z</time>
      </trkpt>
      <trkpt lat="-40.3322300" lon="-71.4166380">
        <ele>1039.8</ele>
        <time>2020-11-15T15:49:28Z</time>
      </trkpt>
      <trkpt lat="-40.3321830" lon="-71.4165920">
        <ele>1039.8</ele>
        <time>2020-11-15T15:49:29Z</time>
      </trkpt>
      <trkpt lat="-40.3321360" lon="-71.4165460">
        <ele>1039.8</ele>
        <time>2020-11-15T15:49:30Z</time>
      </trkpt>
      <trkpt lat="-40.3320870" lon="-71.4165040">
        <ele>1039.9</ele>
        <time>2020-11-15T15:49:31Z</time>
      </trkpt>
      <trkpt lat="-40.3320390" lon="-71.4164630">
        <ele>1040.0</ele>
        <time>2020-11-15T15:49:32Z</time>
      </trkpt>
      <trkpt lat="-40.3319900" lon="-71.4164280">
        <ele>1040.1</ele>
        <time>2020-11-15T15:49:33Z</time>
      </trkpt>
      <trkpt lat="-40.3319440" lon="-71.4163950">
        <ele>1040.2</ele>
        <time>2020-11-15T15:49:34Z</time>
      </trkpt>
      <trkpt lat="-40.3319000" lon="-71.4163600">
        <ele>1040.3</ele>
        <time>2020-11-15T15:49:35Z</time>
      </trkpt>
      <trkpt lat="-40.3318580" lon="-71.4163260">
        <ele>1040.5</ele>
        <time>2020-11-15T15:49:36Z</time>
      </trkpt>
      <trkpt lat="-40.3318130" lon="-71.4162980">
        <ele>1040.6</ele>
        <time>2020-11-15T15:49:37Z</time>
      </trkpt>
      <trkpt lat="-40.3317690" lon="-71.4162650">
        <ele>1040.7</ele>
        <time>2020-11-15T15:49:38Z</time>
      </trkpt>
      <trkpt lat="-40.3317250" lon="-71.4162340">
        <ele>1040.8</ele>
        <time>2020-11-15T15:49:39Z</time>
      </trkpt>
      <trkpt lat="-40.3316800" lon="-71.4162030">
        <ele>1041.0</ele>
        <time>2020-11-15T15:49:40Z</time>
      </trkpt>
      <trkpt lat="-40.3316360" lon="-71.4161720">
        <ele>1041.1</ele>
        <time>2020-11-15T15:49:41Z</time>
      </trkpt>
      <trkpt lat="-40.3315910" lon="-71.4161380">
        <ele>1041.2</ele>
        <time>2020-11-15T15:49:42Z</time>
      </trkpt>
      <trkpt lat="-40.3315460" lon="-71.4161050">
        <ele>1041.3</ele>
        <time>2020-11-15T15:49:43Z</time>
      </trkpt>
      <trkpt lat="-40.3315030" lon="-71.4160660">
        <ele>1041.4</ele>
        <time>2020-11-15T15:49:44Z</time>
      </trkpt>
      <trkpt lat="-40.3314590" lon="-71.4160270">
        <ele>1041.5</ele>
        <time>2020-11-15T15:49:45Z</time>
      </trkpt>
      <trkpt lat="-40.3314160" lon="-71.4159880">
        <ele>1041.6</ele>
        <time>2020-11-15T15:49:46Z</time>
      </trkpt>
      <trkpt lat="-40.3313730" lon="-71.4159490">
        <ele>1041.6</ele>
        <time>2020-11-15T15:49:47Z</time>
      </trkpt>
      <trkpt lat="-40.3313310" lon="-71.4159080">
        <ele>1041.6</ele>
        <time>2020-11-15T15:49:48Z</time>
      </trkpt>
      <trkpt lat="-40.3312910" lon="-71.4158630">
        <ele>1041.6</ele>
        <time>2020-11-15T15:49:49Z</time>
      </trkpt>
      <trkpt lat="-40.3312540" lon="-71.4158150">
        <ele>1041.6</ele>
        <time>2020-11-15T15:49:50Z</time>
      </trkpt>
      <trkpt lat="-40.3312150" lon="-71.4157710">
        <ele>1041.5</ele>
        <time>2020-11-15T15:49:51Z</time>
      </trkpt>
      <trkpt lat="-40.3311780" lon="-71.4157220">
        <ele>1041.5</ele>
        <time>2020-11-15T15:49:52Z</time>
      </trkpt>
      <trkpt lat="-40.3311430" lon="-71.4156700">
        <ele>1041.3</ele>
        <time>2020-11-15T15:49:53Z</time>
      </trkpt>
      <trkpt lat="-40.3311080" lon="-71.4156140">
        <ele>1041.2</ele>
        <time>2020-11-15T15:49:54Z</time>
      </trkpt>
      <trkpt lat="-40.3310730" lon="-71.4155520">
        <ele>1041.0</ele>
        <time>2020-11-15T15:49:55Z</time>
      </trkpt>
      <trkpt lat="-40.3310400" lon="-71.4154830">
        <ele>1040.7</ele>
        <time>2020-11-15T15:49:56Z</time>
      </trkpt>
      <trkpt lat="-40.3310100" lon="-71.4154120">
        <ele>1040.5</ele>
        <time>2020-11-15T15:49:57Z</time>
      </trkpt>
      <trkpt lat="-40.3309850" lon="-71.4153360">
        <ele>1040.2</ele>
        <time>2020-11-15T15:49:58Z</time>
      </trkpt>
      <trkpt lat="-40.3309580" lon="-71.4152560">
        <ele>1039.9</ele>
        <time>2020-11-15T15:49:59Z</time>
      </trkpt>
      <trkpt lat="-40.3309330" lon="-71.4151710">
        <ele>1039.5</ele>
        <time>2020-11-15T15:50:00Z</time>
      </trkpt>
      <trkpt lat="-40.3309070" lon="-71.4150820">
        <ele>1039.0</ele>
        <time>2020-11-15T15:50:01Z</time>
      </trkpt>
      <trkpt lat="-40.3308850" lon="-71.4149900">
        <ele>1038.6</ele>
        <time>2020-11-15T15:50:02Z</time>
      </trkpt>
      <trkpt lat="-40.3308660" lon="-71.4148920">
        <ele>1038.0</ele>
        <time>2020-11-15T15:50:03Z</time>
      </trkpt>
      <trkpt lat="-40.3308470" lon="-71.4147910">
        <ele>1037.5</ele>
        <time>2020-11-15T15:50:04Z</time>
      </trkpt>
      <trkpt lat="-40.3308260" lon="-71.4146860">
        <ele>1036.9</ele>
        <time>2020-11-15T15:50:05Z</time>
      </trkpt>
      <trkpt lat="-40.3308060" lon="-71.4145770">
        <ele>1036.3</ele>
        <time>2020-11-15T15:50:06Z</time>
      </trkpt>
      <trkpt lat="-40.3307810" lon="-71.4144710">
        <ele>1035.6</ele>
        <time>2020-11-15T15:50:07Z</time>
      </trkpt>
      <trkpt lat="-40.3307590" lon="-71.4143610">
        <ele>1034.9</ele>
        <time>2020-11-15T15:50:08Z</time>
      </trkpt>
      <trkpt lat="-40.3307370" lon="-71.4142460">
        <ele>1034.2</ele>
        <time>2020-11-15T15:50:09Z</time>
      </trkpt>
      <trkpt lat="-40.3307150" lon="-71.4141270">
        <ele>1033.5</ele>
        <time>2020-11-15T15:50:10Z</time>
      </trkpt>
      <trkpt lat="-40.3306910" lon="-71.4140010">
        <ele>1032.8</ele>
        <time>2020-11-15T15:50:11Z</time>
      </trkpt>
      <trkpt lat="-40.3306680" lon="-71.4138720">
        <ele>1032.1</ele>
        <time>2020-11-15T15:50:12Z</time>
      </trkpt>
      <trkpt lat="-40.3306450" lon="-71.4137390">
        <ele>1031.4</ele>
        <time>2020-11-15T15:50:13Z</time>
      </trkpt>
      <trkpt lat="-40.3306210" lon="-71.4136040">
        <ele>1030.8</ele>
        <time>2020-11-15T15:50:14Z</time>
      </trkpt>
      <trkpt lat="-40.3305990" lon="-71.4134670">
        <ele>1030.2</ele>
        <time>2020-11-15T15:50:15Z</time>
      </trkpt>
      <trkpt lat="-40.3305750" lon="-71.4133280">
        <ele>1029.7</ele>
        <time>2020-11-15T15:50:16Z</time>
      </trkpt>
      <trkpt lat="-40.3305490" lon="-71.4131880">
        <ele>1029.4</ele>
        <time>2020-11-15T15:50:17Z</time>
      </trkpt>
      <trkpt lat="-40.3305260" lon="-71.4130480">
        <ele>1029.1</ele>
        <time>2020-11-15T15:50:18Z</time>
      </trkpt>
      <trkpt lat="-40.3305020" lon="-71.4129100">
        <ele>1028.9</ele>
        <time>2020-11-15T15:50:19Z</time>
      </trkpt>
      <trkpt lat="-40.3304800" lon="-71.4127720">
        <ele>1028.9</ele>
        <time>2020-11-15T15:50:20Z</time>
      </trkpt>
      <trkpt lat="-40.3304580" lon="-71.4126390">
        <ele>1029.0</ele>
        <time>2020-11-15T15:50:21Z</time>
      </trkpt>
      <trkpt lat="-40.3304350" lon="-71.4125080">
        <ele>1029.2</ele>
        <time>2020-11-15T15:50:22Z</time>
      </trkpt>
      <trkpt lat="-40.3304120" lon="-71.4123820">
        <ele>1029.5</ele>
        <time>2020-11-15T15:50:23Z</time>
      </trkpt>
      <trkpt lat="-40.3303910" lon="-71.4122620">
        <ele>1029.9</ele>
        <time>2020-11-15T15:50:24Z</time>
      </trkpt>
      <trkpt lat="-40.3303710" lon="-71.4121490">
        <ele>1030.2</ele>
        <time>2020-11-15T15:50:25Z</time>
      </trkpt>
      <trkpt lat="-40.3303510" lon="-71.4120400">
        <ele>1030.6</ele>
        <time>2020-11-15T15:50:26Z</time>
      </trkpt>
      <trkpt lat="-40.3303320" lon="-71.4119350">
        <ele>1031.0</ele>
        <time>2020-11-15T15:50:27Z</time>
      </trkpt>
      <trkpt lat="-40.3303140" lon="-71.4118320">
        <ele>1031.4</ele>
        <time>2020-11-15T15:50:28Z</time>
      </trkpt>
      <trkpt lat="-40.3302970" lon="-71.4117300">
        <ele>1031.8</ele>
        <time>2020-11-15T15:50:29Z</time>
      </trkpt>
      <trkpt lat="-40.3302800" lon="-71.4116270">
        <ele>1032.2</ele>
        <time>2020-11-15T15:50:30Z</time>
      </trkpt>
      <trkpt lat="-40.3302620" lon="-71.4115250">
        <ele>1032.6</ele>
        <time>2020-11-15T15:50:31Z</time>
      </trkpt>
      <trkpt lat="-40.3302450" lon="-71.4114250">
        <ele>1033.0</ele>
        <time>2020-11-15T15:50:32Z</time>
      </trkpt>
      <trkpt lat="-40.3302280" lon="-71.4113270">
        <ele>1033.4</ele>
        <time>2020-11-15T15:50:33Z</time>
      </trkpt>
      <trkpt lat="-40.3302120" lon="-71.4112310">
        <ele>1033.7</ele>
        <time>2020-11-15T15:50:34Z</time>
      </trkpt>
      <trkpt lat="-40.3301970" lon="-71.4111370">
        <ele>1034.1</ele>
        <time>2020-11-15T15:50:35Z</time>
      </trkpt>
      <trkpt lat="-40.3301800" lon="-71.4110460">
        <ele>1034.5</ele>
        <time>2020-11-15T15:50:36Z</time>
      </trkpt>
      <trkpt lat="-40.3301620" lon="-71.4109570">
        <ele>1034.8</ele>
        <time>2020-11-15T15:50:37Z</time>
      </trkpt>
      <trkpt lat="-40.3301450" lon="-71.4108690">
        <ele>1035.2</ele>
        <time>2020-11-15T15:50:38Z</time>
      </trkpt>
      <trkpt lat="-40.3301280" lon="-71.4107810">
        <ele>1035.6</ele>
        <time>2020-11-15T15:50:39Z</time>
      </trkpt>
      <trkpt lat="-40.3301130" lon="-71.4106970">
        <ele>1035.9</ele>
        <time>2020-11-15T15:50:40Z</time>
      </trkpt>
      <trkpt lat="-40.3300960" lon="-71.4106150">
        <ele>1036.2</ele>
        <time>2020-11-15T15:50:41Z</time>
      </trkpt>
      <trkpt lat="-40.3300790" lon="-71.4105330">
        <ele>1036.6</ele>
        <time>2020-11-15T15:50:42Z</time>
      </trkpt>
      <trkpt lat="-40.3300620" lon="-71.4104500">
        <ele>1036.9</ele>
        <time>2020-11-15T15:50:43Z</time>
      </trkpt>
      <trkpt lat="-40.3300490" lon="-71.4103700">
        <ele>1037.2</ele>
        <time>2020-11-15T15:50:44Z</time>
      </trkpt>
      <trkpt lat="-40.3300350" lon="-71.4102890">
        <ele>1037.5</ele>
        <time>2020-11-15T15:50:45Z</time>
      </trkpt>
      <trkpt lat="-40.3300260" lon="-71.4102090">
        <ele>1037.7</ele>
        <time>2020-11-15T15:50:46Z</time>
      </trkpt>
      <trkpt lat="-40.3300150" lon="-71.4101300">
        <ele>1038.0</ele>
        <time>2020-11-15T15:50:47Z</time>
      </trkpt>
      <trkpt lat="-40.3300030" lon="-71.4100510">
        <ele>1038.3</ele>
        <time>2020-11-15T15:50:48Z</time>
      </trkpt>
      <trkpt lat="-40.3299900" lon="-71.4099720">
        <ele>1038.6</ele>
        <time>2020-11-15T15:50:49Z</time>
      </trkpt>
      <trkpt lat="-40.3299780" lon="-71.4098960">
        <ele>1038.8</ele>
        <time>2020-11-15T15:50:50Z</time>
      </trkpt>
      <trkpt lat="-40.3299650" lon="-71.4098220">
        <ele>1039.0</ele>
        <time>2020-11-15T15:50:51Z</time>
      </trkpt>
      <trkpt lat="-40.3299550" lon="-71.4097500">
        <ele>1039.2</ele>
        <time>2020-11-15T15:50:52Z</time>
      </trkpt>
      <trkpt lat="-40.3299460" lon="-71.4096800">
        <ele>1039.4</ele>
        <time>2020-11-15T15:50:53Z</time>
      </trkpt>
      <trkpt lat="-40.3299380" lon="-71.4096120">
        <ele>1039.5</ele>
        <time>2020-11-15T15:50:54Z</time>
      </trkpt>
      <trkpt lat="-40.3299300" lon="-71.4095440">
        <ele>1039.7</ele>
        <time>2020-11-15T15:50:55Z</time>
      </trkpt>
      <trkpt lat="-40.3299220" lon="-71.4094750">
        <ele>1039.8</ele>
        <time>2020-11-15T15:50:56Z</time>
      </trkpt>
      <trkpt lat="-40.3299150" lon="-71.4094080">
        <ele>1039.9</ele>
        <time>2020-11-15T15:50:57Z</time>
      </trkpt>
      <trkpt lat="-40.3299090" lon="-71.4093420">
        <ele>1039.9</ele>
        <time>2020-11-15T15:50:58Z</time>
      </trkpt>
      <trkpt lat="-40.3299010" lon="-71.4092760">
        <ele>1040.0</ele>
        <time>2020-11-15T15:50:59Z</time>
      </trkpt>
      <trkpt lat="-40.3298930" lon="-71.4092110">
        <ele>1040.0</ele>
        <time>2020-11-15T15:51:00Z</time>
      </trkpt>
      <trkpt lat="-40.3298850" lon="-71.4091440">
        <ele>1040.0</ele>
        <time>2020-11-15T15:51:01Z</time>
      </trkpt>
      <trkpt lat="-40.3298770" lon="-71.4090750">
        <ele>1039.9</ele>
        <time>2020-11-15T15:51:02Z</time>
      </trkpt>
      <trkpt lat="-40.3298700" lon="-71.4090050">
        <ele>1039.9</ele>
        <time>2020-11-15T15:51:03Z</time>
      </trkpt>
      <trkpt lat="-40.3298620" lon="-71.4089320">
        <ele>1039.8</ele>
        <time>2020-11-15T15:51:04Z</time>
      </trkpt>
      <trkpt lat="-40.3298540" lon="-71.4088590">
        <ele>1039.7</ele>
        <time>2020-11-15T15:51:05Z</time>
      </trkpt>
      <trkpt lat="-40.3298450" lon="-71.4087830">
        <ele>1039.6</ele>
        <time>2020-11-15T15:51:06Z</time>
      </trkpt>
      <trkpt lat="-40.3298380" lon="-71.4087030">
        <ele>1039.4</ele>
        <time>2020-11-15T15:51:07Z</time>
      </trkpt>
      <trkpt lat="-40.3298310" lon="-71.4086170">
        <ele>1039.2</ele>
        <time>2020-11-15T15:51:08Z</time>
      </trkpt>
      <trkpt lat="-40.3298250" lon="-71.4085300">
        <ele>1038.9</ele>
        <time>2020-11-15T15:51:09Z</time>
      </trkpt>
      <trkpt lat="-40.3298180" lon="-71.4084420">
        <ele>1038.6</ele>
        <time>2020-11-15T15:51:10Z</time>
      </trkpt>
      <trkpt lat="-40.3298090" lon="-71.4083500">
        <ele>1038.3</ele>
        <time>2020-11-15T15:51:11Z</time>
      </trkpt>
      <trkpt lat="-40.3298010" lon="-71.4082560">
        <ele>1037.9</ele>
        <time>2020-11-15T15:51:12Z</time>
      </trkpt>
      <trkpt lat="-40.3297930" lon="-71.4081580">
        <ele>1037.5</ele>
        <time>2020-11-15T15:51:13Z</time>
      </trkpt>
      <trkpt lat="-40.3297860" lon="-71.4080550">
        <ele>1037.1</ele>
        <time>2020-11-15T15:51:14Z</time>
      </trkpt>
      <trkpt lat="-40.3297790" lon="-71.4079490">
        <ele>1036.7</ele>
        <time>2020-11-15T15:51:15Z</time>
      </trkpt>
      <trkpt lat="-40.3297720" lon="-71.4078400">
        <ele>1036.3</ele>
        <time>2020-11-15T15:51:16Z</time>
      </trkpt>
      <trkpt lat="-40.3297640" lon="-71.4077300">
        <ele>1035.8</ele>
        <time>2020-11-15T15:51:17Z</time>
      </trkpt>
      <trkpt lat="-40.3297560" lon="-71.4076190">
        <ele>1035.3</ele>
        <time>2020-11-15T15:51:18Z</time>
      </trkpt>
      <trkpt lat="-40.3297480" lon="-71.4075060">
        <ele>1034.8</ele>
        <time>2020-11-15T15:51:19Z</time>
      </trkpt>
      <trkpt lat="-40.3297400" lon="-71.4073900">
        <ele>1034.3</ele>
        <time>2020-11-15T15:51:20Z</time>
      </trkpt>
      <trkpt lat="-40.3297340" lon="-71.4072690">
        <ele>1033.8</ele>
        <time>2020-11-15T15:51:21Z</time>
      </trkpt>
      <trkpt lat="-40.3297280" lon="-71.4071460">
        <ele>1033.3</ele>
        <time>2020-11-15T15:51:22Z</time>
      </trkpt>
      <trkpt lat="-40.3297210" lon="-71.4070200">
        <ele>1032.7</ele>
        <time>2020-11-15T15:51:23Z</time>
      </trkpt>
      <trkpt lat="-40.3297140" lon="-71.4068900">
        <ele>1032.1</ele>
        <time>2020-11-15T15:51:24Z</time>
      </trkpt>
      <trkpt lat="-40.3297060" lon="-71.4067590">
        <ele>1031.6</ele>
        <time>2020-11-15T15:51:25Z</time>
      </trkpt>
      <trkpt lat="-40.3296990" lon="-71.4066220">
        <ele>1031.1</ele>
        <time>2020-11-15T15:51:26Z</time>
      </trkpt>
      <trkpt lat="-40.3296920" lon="-71.4064830">
        <ele>1030.6</ele>
        <time>2020-11-15T15:51:27Z</time>
      </trkpt>
      <trkpt lat="-40.3296850" lon="-71.4063480">
        <ele>1030.2</ele>
        <time>2020-11-15T15:51:28Z</time>
      </trkpt>
      <trkpt lat="-40.3296760" lon="-71.4062070">
        <ele>1029.8</ele>
        <time>2020-11-15T15:51:29Z</time>
      </trkpt>
      <trkpt lat="-40.3296680" lon="-71.4060640">
        <ele>1029.5</ele>
        <time>2020-11-15T15:51:30Z</time>
      </trkpt>
      <trkpt lat="-40.3296610" lon="-71.4059240">
        <ele>1029.2</ele>
        <time>2020-11-15T15:51:31Z</time>
      </trkpt>
      <trkpt lat="-40.3296520" lon="-71.4057860">
        <ele>1028.9</ele>
        <time>2020-11-15T15:51:32Z</time>
      </trkpt>
      <trkpt lat="-40.3296430" lon="-71.4056460">
        <ele>1028.7</ele>
        <time>2020-11-15T15:51:33Z</time>
      </trkpt>
      <trkpt lat="-40.3296360" lon="-71.4055060">
        <ele>1028.4</ele>
        <time>2020-11-15T15:51:34Z</time>
      </trkpt>
      <trkpt lat="-40.3296300" lon="-71.4053660">
        <ele>1028.2</ele>
        <time>2020-11-15T15:51:35Z</time>
      </trkpt>
      <trkpt lat="-40.3296210" lon="-71.4052270">
        <ele>1028.1</ele>
        <time>2020-11-15T15:51:36Z</time>
      </trkpt>
      <trkpt lat="-40.3296130" lon="-71.4050880">
        <ele>1028.0</ele>
        <time>2020-11-15T15:51:37Z</time>
      </trkpt>
      <trkpt lat="-40.3296070" lon="-71.4049520">
        <ele>1027.9</ele>
        <time>2020-11-15T15:51:38Z</time>
      </trkpt>
      <trkpt lat="-40.3295990" lon="-71.4048170">
        <ele>1027.9</ele>
        <time>2020-11-15T15:51:39Z</time>
      </trkpt>
      <trkpt lat="-40.3295920" lon="-71.4046840">
        <ele>1027.8</ele>
        <time>2020-11-15T15:51:40Z</time>
      </trkpt>
      <trkpt lat="-40.3295840" lon="-71.4045520">
        <ele>1027.8</ele>
        <time>2020-11-15T15:51:41Z</time>
      </trkpt>
      <trkpt lat="-40.3295790" lon="-71.4044250">
        <ele>1027.8</ele>
        <time>2020-11-15T15:51:42Z</time>
      </trkpt>
      <trkpt lat="-40.3295740" lon="-71.4043010">
        <ele>1027.8</ele>
        <time>2020-11-15T15:51:43Z</time>
      </trkpt>
      <trkpt lat="-40.3295690" lon="-71.4041770">
        <ele>1027.7</ele>
        <time>2020-11-15T15:51:44Z</time>
      </trkpt>
      <trkpt lat="-40.3295620" lon="-71.4040550">
        <ele>1027.7</ele>
        <time>2020-11-15T15:51:45Z</time>
      </trkpt>
      <trkpt lat="-40.3295570" lon="-71.4039310">
        <ele>1027.6</ele>
        <time>2020-11-15T15:51:46Z</time>
      </trkpt>
      <trkpt lat="-40.3295540" lon="-71.4038080">
        <ele>1027.5</ele>
        <time>2020-11-15T15:51:47Z</time>
      </trkpt>
      <trkpt lat="-40.3295470" lon="-71.4036850">
        <ele>1027.4</ele>
        <time>2020-11-15T15:51:48Z</time>
      </trkpt>
      <trkpt lat="-40.3295410" lon="-71.4035620">
        <ele>1027.1</ele>
        <time>2020-11-15T15:51:49Z</time>
      </trkpt>
      <trkpt lat="-40.3295330" lon="-71.4034360">
        <ele>1026.9</ele>
        <time>2020-11-15T15:51:50Z</time>
      </trkpt>
      <trkpt lat="-40.3295290" lon="-71.4033080">
        <ele>1026.6</ele>
        <time>2020-11-15T15:51:51Z</time>
      </trkpt>
      <trkpt lat="-40.3295220" lon="-71.4031790">
        <ele>1026.3</ele>
        <time>2020-11-15T15:51:52Z</time>
      </trkpt>
      <trkpt lat="-40.3295160" lon="-71.4030480">
        <ele>1025.9</ele>
        <time>2020-11-15T15:51:53Z</time>
      </trkpt>
      <trkpt lat="-40.3295100" lon="-71.4029150">
        <ele>1025.4</ele>
        <time>2020-11-15T15:51:54Z</time>
      </trkpt>
      <trkpt lat="-40.3295030" lon="-71.4027790">
        <ele>1024.8</ele>
        <time>2020-11-15T15:51:55Z</time>
      </trkpt>
      <trkpt lat="-40.3294940" lon="-71.4026390">
        <ele>1024.2</ele>
        <time>2020-11-15T15:51:56Z</time>
      </trkpt>
      <trkpt lat="-40.3294870" lon="-71.4024970">
        <ele>1023.5</ele>
        <time>2020-11-15T15:51:57Z</time>
      </trkpt>
      <trkpt lat="-40.3294820" lon="-71.4023530">
        <ele>1022.9</ele>
        <time>2020-11-15T15:51:58Z</time>
      </trkpt>
      <trkpt lat="-40.3294770" lon="-71.4022050">
        <ele>1022.1</ele>
        <time>2020-11-15T15:51:59Z</time>
      </trkpt>
      <trkpt lat="-40.3294720" lon="-71.4020540">
        <ele>1021.3</ele>
        <time>2020-11-15T15:52:00Z</time>
      </trkpt>
      <trkpt lat="-40.3294640" lon="-71.4018990">
        <ele>1020.5</ele>
        <time>2020-11-15T15:52:01Z</time>
      </trkpt>
      <trkpt lat="-40.3294560" lon="-71.4017410">
        <ele>1019.7</ele>
        <time>2020-11-15T15:52:02Z</time>
      </trkpt>
      <trkpt lat="-40.3294470" lon="-71.4015800">
        <ele>1019.0</ele>
        <time>2020-11-15T15:52:03Z</time>
      </trkpt>
      <trkpt lat="-40.3294390" lon="-71.4014170">
        <ele>1018.3</ele>
        <time>2020-11-15T15:52:04Z</time>
      </trkpt>
      <trkpt lat="-40.3294330" lon="-71.4012520">
        <ele>1017.8</ele>
        <time>2020-11-15T15:52:05Z</time>
      </trkpt>
      <trkpt lat="-40.3294250" lon="-71.4010870">
        <ele>1017.4</ele>
        <time>2020-11-15T15:52:06Z</time>
      </trkpt>
      <trkpt lat="-40.3294180" lon="-71.4009230">
        <ele>1017.2</ele>
        <time>2020-11-15T15:52:07Z</time>
      </trkpt>
      <trkpt lat="-40.3294080" lon="-71.4007620">
        <ele>1017.0</ele>
        <time>2020-11-15T15:52:08Z</time>
      </trkpt>
      <trkpt lat="-40.3293960" lon="-71.4006050">
        <ele>1016.9</ele>
        <time>2020-11-15T15:52:09Z</time>
      </trkpt>
      <trkpt lat="-40.3293830" lon="-71.4004500">
        <ele>1016.9</ele>
        <time>2020-11-15T15:52:10Z</time>
      </trkpt>
      <trkpt lat="-40.3293670" lon="-71.4003000">
        <ele>1016.9</ele>
        <time>2020-11-15T15:52:11Z</time>
      </trkpt>
      <trkpt lat="-40.3293510" lon="-71.4001500">
        <ele>1016.9</ele>
        <time>2020-11-15T15:52:12Z</time>
      </trkpt>
      <trkpt lat="-40.3293330" lon="-71.4000060">
        <ele>1016.9</ele>
        <time>2020-11-15T15:52:13Z</time>
      </trkpt>
      <trkpt lat="-40.3293130" lon="-71.3998640">
        <ele>1017.0</ele>
        <time>2020-11-15T15:52:14Z</time>
      </trkpt>
      <trkpt lat="-40.3292910" lon="-71.3997250">
        <ele>1017.1</ele>
        <time>2020-11-15T15:52:15Z</time>
      </trkpt>
      <trkpt lat="-40.3292670" lon="-71.3995870">
        <ele>1017.2</ele>
        <time>2020-11-15T15:52:16Z</time>
      </trkpt>
      <trkpt lat="-40.3292420" lon="-71.3994500">
        <ele>1017.4</ele>
        <time>2020-11-15T15:52:17Z</time>
      </trkpt>
      <trkpt lat="-40.3292150" lon="-71.3993180">
        <ele>1017.6</ele>
        <time>2020-11-15T15:52:18Z</time>
      </trkpt>
      <trkpt lat="-40.3291850" lon="-71.3991920">
        <ele>1017.8</ele>
        <time>2020-11-15T15:52:19Z</time>
      </trkpt>
      <trkpt lat="-40.3291550" lon="-71.3990700">
        <ele>1018.1</ele>
        <time>2020-11-15T15:52:20Z</time>
      </trkpt>
      <trkpt lat="-40.3291260" lon="-71.3989500">
        <ele>1018.4</ele>
        <time>2020-11-15T15:52:21Z</time>
      </trkpt>
      <trkpt lat="-40.3290970" lon="-71.3988320">
        <ele>1018.7</ele>
        <time>2020-11-15T15:52:22Z</time>
      </trkpt>
      <trkpt lat="-40.3290710" lon="-71.3987140">
        <ele>1019.0</ele>
        <time>2020-11-15T15:52:23Z</time>
      </trkpt>
      <trkpt lat="-40.3290470" lon="-71.3985990">
        <ele>1019.3</ele>
        <time>2020-11-15T15:52:24Z</time>
      </trkpt>
      <trkpt lat="-40.3290230" lon="-71.3984880">
        <ele>1019.6</ele>
        <time>2020-11-15T15:52:25Z</time>
      </trkpt>
      <trkpt lat="-40.3289980" lon="-71.3983800">
        <ele>1019.9</ele>
        <time>2020-11-15T15:52:26Z</time>
      </trkpt>
      <trkpt lat="-40.3289750" lon="-71.3982740">
        <ele>1020.2</ele>
        <time>2020-11-15T15:52:27Z</time>
      </trkpt>
      <trkpt lat="-40.3289510" lon="-71.3981720">
        <ele>1020.4</ele>
        <time>2020-11-15T15:52:28Z</time>
      </trkpt>
      <trkpt lat="-40.3289270" lon="-71.3980710">
        <ele>1020.5</ele>
        <time>2020-11-15T15:52:29Z</time>
      </trkpt>
      <trkpt lat="-40.3289020" lon="-71.3979720">
        <ele>1020.7</ele>
        <time>2020-11-15T15:52:30Z</time>
      </trkpt>
      <trkpt lat="-40.3288780" lon="-71.3978740">
        <ele>1020.8</ele>
        <time>2020-11-15T15:52:31Z</time>
      </trkpt>
      <trkpt lat="-40.3288540" lon="-71.3977770">
        <ele>1020.9</ele>
        <time>2020-11-15T15:52:32Z</time>
      </trkpt>
      <trkpt lat="-40.3288300" lon="-71.3976810">
        <ele>1021.0</ele>
        <time>2020-11-15T15:52:33Z</time>
      </trkpt>
      <trkpt lat="-40.3288060" lon="-71.3975860">
        <ele>1021.0</ele>
        <time>2020-11-15T15:52:34Z</time>
      </trkpt>
      <trkpt lat="-40.3287800" lon="-71.3974900">
        <ele>1021.0</ele>
        <time>2020-11-15T15:52:35Z</time>
      </trkpt>
      <trkpt lat="-40.3287540" lon="-71.3973950">
        <ele>1021.0</ele>
        <time>2020-11-15T15:52:36Z</time>
      </trkpt>
      <trkpt lat="-40.3287280" lon="-71.3972990">
        <ele>1021.0</ele>
        <time>2020-11-15T15:52:37Z</time>
      </trkpt>
      <trkpt lat="-40.3287040" lon="-71.3972000">
        <ele>1021.0</ele>
        <time>2020-11-15T15:52:38Z</time>
      </trkpt>
      <trkpt lat="-40.3286790" lon="-71.3971000">
        <ele>1020.9</ele>
        <time>2020-11-15T15:52:39Z</time>
      </trkpt>
      <trkpt lat="-40.3286530" lon="-71.3969980">
        <ele>1020.8</ele>
        <time>2020-11-15T15:52:40Z</time>
      </trkpt>
      <trkpt lat="-40.3286280" lon="-71.3968950">
        <ele>1020.7</ele>
        <time>2020-11-15T15:52:41Z</time>
      </trkpt>
      <trkpt lat="-40.3286010" lon="-71.3967900">
        <ele>1020.5</ele>
        <time>2020-11-15T15:52:42Z</time>
      </trkpt>
      <trkpt lat="-40.3285750" lon="-71.3966820">
        <ele>1020.2</ele>
        <time>2020-11-15T15:52:43Z</time>
      </trkpt>
      <trkpt lat="-40.3285490" lon="-71.3965720">
        <ele>1020.0</ele>
        <time>2020-11-15T15:52:44Z</time>
      </trkpt>
      <trkpt lat="-40.3285240" lon="-71.3964590">
        <ele>1019.7</ele>
        <time>2020-11-15T15:52:45Z</time>
      </trkpt>
      <trkpt lat="-40.3284960" lon="-71.3963460">
        <ele>1019.4</ele>
        <time>2020-11-15T15:52:46Z</time>
      </trkpt>
      <trkpt lat="-40.3284660" lon="-71.3962300">
        <ele>1019.1</ele>
        <time>2020-11-15T15:52:47Z</time>
      </trkpt>
      <trkpt lat="-40.3284340" lon="-71.3961130">
        <ele>1018.7</ele>
        <time>2020-11-15T15:52:48Z</time>
      </trkpt>
      <trkpt lat="-40.3283980" lon="-71.3959980">
        <ele>1018.4</ele>
        <time>2020-11-15T15:52:49Z</time>
      </trkpt>
      <trkpt lat="-40.3283590" lon="-71.3958820">
        <ele>1018.0</ele>
        <time>2020-11-15T15:52:50Z</time>
      </trkpt>
      <trkpt lat="-40.3283170" lon="-71.3957650">
        <ele>1017.6</ele>
        <time>2020-11-15T15:52:51Z</time>
      </trkpt>
      <trkpt lat="-40.3282710" lon="-71.3956490">
        <ele>1017.2</ele>
        <time>2020-11-15T15:52:52Z</time>
      </trkpt>
      <trkpt lat="-40.3282170" lon="-71.3955380">
        <ele>1016.7</ele>
        <time>2020-11-15T15:52:53Z</time>
      </trkpt>
      <trkpt lat="-40.3281570" lon="-71.3954280">
        <ele>1016.3</ele>
        <time>2020-11-15T15:52:54Z</time>
      </trkpt>
      <trkpt lat="-40.3280950" lon="-71.3953210">
        <ele>1015.9</ele>
        <time>2020-11-15T15:52:55Z</time>
      </trkpt>
      <trkpt lat="-40.3280280" lon="-71.3952170">
        <ele>1015.5</ele>
        <time>2020-11-15T15:52:56Z</time>
      </trkpt>
      <trkpt lat="-40.3279590" lon="-71.3951140">
        <ele>1015.1</ele>
        <time>2020-11-15T15:52:57Z</time>
      </trkpt>
      <trkpt lat="-40.3278850" lon="-71.3950180">
        <ele>1014.7</ele>
        <time>2020-11-15T15:52:58Z</time>
      </trkpt>
      <trkpt lat="-40.3278090" lon="-71.3949250">
        <ele>1014.3</ele>
        <time>2020-11-15T15:52:59Z</time>
      </trkpt>
      <trkpt lat="-40.3277300" lon="-71.3948350">
        <ele>1013.8</ele>
        <time>2020-11-15T15:53:00Z</time>
      </trkpt>
      <trkpt lat="-40.3276480" lon="-71.3947470">
        <ele>1013.4</ele>
        <time>2020-11-15T15:53:01Z</time>
      </trkpt>
      <trkpt lat="-40.3275650" lon="-71.3946580">
        <ele>1012.9</ele>
        <time>2020-11-15T15:53:02Z</time>
      </trkpt>
      <trkpt lat="-40.3274810" lon="-71.3945710">
        <ele>1012.3</ele>
        <time>2020-11-15T15:53:03Z</time>
      </trkpt>
      <trkpt lat="-40.3273980" lon="-71.3944850">
        <ele>1011.8</ele>
        <time>2020-11-15T15:53:04Z</time>
      </trkpt>
      <trkpt lat="-40.3273160" lon="-71.3943980">
        <ele>1011.4</ele>
        <time>2020-11-15T15:53:05Z</time>
      </trkpt>
      <trkpt lat="-40.3272340" lon="-71.3943100">
        <ele>1010.9</ele>
        <time>2020-11-15T15:53:06Z</time>
      </trkpt>
      <trkpt lat="-40.3271510" lon="-71.3942220">
        <ele>1010.5</ele>
        <time>2020-11-15T15:53:07Z</time>
      </trkpt>
      <trkpt lat="-40.3270670" lon="-71.3941340">
        <ele>1010.1</ele>
        <time>2020-11-15T15:53:08Z</time>
      </trkpt>
      <trkpt lat="-40.3269840" lon="-71.3940480">
        <ele>1009.7</ele>
        <time>2020-11-15T15:53:09Z</time>
      </trkpt>
      <trkpt lat="-40.3269000" lon="-71.3939620">
        <ele>1009.3</ele>
        <time>2020-11-15T15:53:10Z</time>
      </trkpt>
      <trkpt lat="-40.3268170" lon="-71.3938740">
        <ele>1008.9</ele>
        <time>2020-11-15T15:53:11Z</time>
      </trkpt>
      <trkpt lat="-40.3267340" lon="-71.3937840">
        <ele>1008.6</ele>
        <time>2020-11-15T15:53:12Z</time>
      </trkpt>
      <trkpt lat="-40.3266520" lon="-71.3936930">
        <ele>1008.2</ele>
        <time>2020-11-15T15:53:13Z</time>
      </trkpt>
      <trkpt lat="-40.3265720" lon="-71.3936040">
        <ele>1008.0</ele>
        <time>2020-11-15T15:53:14Z</time>
      </trkpt>
      <trkpt lat="-40.3264940" lon="-71.3935150">
        <ele>1007.8</ele>
        <time>2020-11-15T15:53:15Z</time>
      </trkpt>
      <trkpt lat="-40.3264180" lon="-71.3934260">
        <ele>1007.6</ele>
        <time>2020-11-15T15:53:16Z</time>
      </trkpt>
      <trkpt lat="-40.3263480" lon="-71.3933340">
        <ele>1007.6</ele>
        <time>2020-11-15T15:53:17Z</time>
      </trkpt>
      <trkpt lat="-40.3262810" lon="-71.3932400">
        <ele>1007.5</ele>
        <time>2020-11-15T15:53:18Z</time>
      </trkpt>
      <trkpt lat="-40.3262170" lon="-71.3931420">
        <ele>1007.5</ele>
        <time>2020-11-15T15:53:19Z</time>
      </trkpt>
      <trkpt lat="-40.3261570" lon="-71.3930400">
        <ele>1007.5</ele>
        <time>2020-11-15T15:53:20Z</time>
      </trkpt>
      <trkpt lat="-40.3261020" lon="-71.3929330">
        <ele>1007.4</ele>
        <time>2020-11-15T15:53:21Z</time>
      </trkpt>
      <trkpt lat="-40.3260540" lon="-71.3928240">
        <ele>1007.4</ele>
        <time>2020-11-15T15:53:22Z</time>
      </trkpt>
      <trkpt lat="-40.3260110" lon="-71.3927120">
        <ele>1007.4</ele>
        <time>2020-11-15T15:53:23Z</time>
      </trkpt>
      <trkpt lat="-40.3259740" lon="-71.3925970">
        <ele>1007.4</ele>
        <time>2020-11-15T15:53:24Z</time>
      </trkpt>
      <trkpt lat="-40.3259420" lon="-71.3924800">
        <ele>1007.4</ele>
        <time>2020-11-15T15:53:25Z</time>
      </trkpt>
      <trkpt lat="-40.3259170" lon="-71.3923620">
        <ele>1007.4</ele>
        <time>2020-11-15T15:53:26Z</time>
      </trkpt>
      <trkpt lat="-40.3258980" lon="-71.3922440">
        <ele>1007.4</ele>
        <time>2020-11-15T15:53:27Z</time>
      </trkpt>
      <trkpt lat="-40.3258860" lon="-71.3921270">
        <ele>1007.5</ele>
        <time>2020-11-15T15:53:28Z</time>
      </trkpt>
      <trkpt lat="-40.3258790" lon="-71.3920080">
        <ele>1007.6</ele>
        <time>2020-11-15T15:53:29Z</time>
      </trkpt>
      <trkpt lat="-40.3258740" lon="-71.3918880">
        <ele>1007.7</ele>
        <time>2020-11-15T15:53:30Z</time>
      </trkpt>
      <trkpt lat="-40.3258740" lon="-71.3917690">
        <ele>1007.7</ele>
        <time>2020-11-15T15:53:31Z</time>
      </trkpt>
      <trkpt lat="-40.3258800" lon="-71.3916520">
        <ele>1007.8</ele>
        <time>2020-11-15T15:53:32Z</time>
      </trkpt>
      <trkpt lat="-40.3258910" lon="-71.3915380">
        <ele>1008.0</ele>
        <time>2020-11-15T15:53:33Z</time>
      </trkpt>
      <trkpt lat="-40.3259060" lon="-71.3914300">
        <ele>1008.2</ele>
        <time>2020-11-15T15:53:34Z</time>
      </trkpt>
      <trkpt lat="-40.3259250" lon="-71.3913270">
        <ele>1008.4</ele>
        <time>2020-11-15T15:53:35Z</time>
      </trkpt>
      <trkpt lat="-40.3259440" lon="-71.3912260">
        <ele>1008.7</ele>
        <time>2020-11-15T15:53:36Z</time>
      </trkpt>
      <trkpt lat="-40.3259600" lon="-71.3911280">
        <ele>1009.1</ele>
        <time>2020-11-15T15:53:37Z</time>
      </trkpt>
      <trkpt lat="-40.3259780" lon="-71.3910340">
        <ele>1009.4</ele>
        <time>2020-11-15T15:53:38Z</time>
      </trkpt>
      <trkpt lat="-40.3259960" lon="-71.3909460">
        <ele>1009.8</ele>
        <time>2020-11-15T15:53:39Z</time>
      </trkpt>
      <trkpt lat="-40.3260150" lon="-71.3908600">
        <ele>1010.1</ele>
        <time>2020-11-15T15:53:40Z</time>
      </trkpt>
      <trkpt lat="-40.3260350" lon="-71.3907740">
        <ele>1010.4</ele>
        <time>2020-11-15T15:53:41Z</time>
      </trkpt>
      <trkpt lat="-40.3260550" lon="-71.3906910">
        <ele>1010.8</ele>
        <time>2020-11-15T15:53:42Z</time>
      </trkpt>
      <trkpt lat="-40.3260730" lon="-71.3906090">
        <ele>1011.1</ele>
        <time>2020-11-15T15:53:43Z</time>
      </trkpt>
      <trkpt lat="-40.3260900" lon="-71.3905290">
        <ele>1011.5</ele>
        <time>2020-11-15T15:53:44Z</time>
      </trkpt>
      <trkpt lat="-40.3261090" lon="-71.3904510">
        <ele>1011.8</ele>
        <time>2020-11-15T15:53:45Z</time>
      </trkpt>
      <trkpt lat="-40.3261260" lon="-71.3903750">
        <ele>1012.2</ele>
        <time>2020-11-15T15:53:46Z</time>
      </trkpt>
      <trkpt lat="-40.3261440" lon="-71.3902990">
        <ele>1012.5</ele>
        <time>2020-11-15T15:53:47Z</time>
      </trkpt>
      <trkpt lat="-40.3261620" lon="-71.3902250">
        <ele>1012.8</ele>
        <time>2020-11-15T15:53:48Z</time>
      </trkpt>
      <trkpt lat="-40.3261800" lon="-71.3901510">
        <ele>1013.1</ele>
        <time>2020-11-15T15:53:49Z</time>
      </trkpt>
      <trkpt lat="-40.3262000" lon="-71.3900810">
        <ele>1013.4</ele>
        <time>2020-11-15T15:53:50Z</time>
      </trkpt>
      <trkpt lat="-40.3262190" lon="-71.3900120">
        <ele>1013.7</ele>
        <time>2020-11-15T15:53:51Z</time>
      </trkpt>
      <trkpt lat="-40.3262370" lon="-71.3899430">
        <ele>1014.0</ele>
        <time>2020-11-15T15:53:52Z</time>
      </trkpt>
      <trkpt lat="-40.3262550" lon="-71.3898740">
        <ele>1014.3</ele>
        <time>2020-11-15T15:53:53Z</time>
      </trkpt>
      <trkpt lat="-40.3262740" lon="-71.3898090">
        <ele>1014.5</ele>
        <time>2020-11-15T15:53:54Z</time>
      </trkpt>
      <trkpt lat="-40.3262930" lon="-71.3897460">
        <ele>1014.8</ele>
        <time>2020-11-15T15:53:55Z</time>
      </trkpt>
      <trkpt lat="-40.3263110" lon="-71.3896820">
        <ele>1015.0</ele>
        <time>2020-11-15T15:53:56Z</time>
      </trkpt>
      <trkpt lat="-40.3263290" lon="-71.3896160">
        <ele>1015.2</ele>
        <time>2020-11-15T15:53:57Z</time>
      </trkpt>
      <trkpt lat="-40.3263460" lon="-71.3895500">
        <ele>1015.5</ele>
        <time>2020-11-15T15:53:58Z</time>
      </trkpt>
      <trkpt lat="-40.3263640" lon="-71.3894850">
        <ele>1015.6</ele>
        <time>2020-11-15T15:53:59Z</time>
      </trkpt>
      <trkpt lat="-40.3263840" lon="-71.3894190">
        <ele>1015.8</ele>
        <time>2020-11-15T15:54:00Z</time>
      </trkpt>
      <trkpt lat="-40.3264050" lon="-71.3893510">
        <ele>1015.9</ele>
        <time>2020-11-15T15:54:01Z</time>
      </trkpt>
      <trkpt lat="-40.3264210" lon="-71.3892810">
        <ele>1016.0</ele>
        <time>2020-11-15T15:54:02Z</time>
      </trkpt>
      <trkpt lat="-40.3264370" lon="-71.3892100">
        <ele>1016.1</ele>
        <time>2020-11-15T15:54:03Z</time>
      </trkpt>
      <trkpt lat="-40.3264550" lon="-71.3891370">
        <ele>1016.1</ele>
        <time>2020-11-15T15:54:04Z</time>
      </trkpt>
      <trkpt lat="-40.3264730" lon="-71.3890630">
        <ele>1016.1</ele>
        <time>2020-11-15T15:54:05Z</time>
      </trkpt>
      <trkpt lat="-40.3264920" lon="-71.3889840">
        <ele>1016.1</ele>
        <time>2020-11-15T15:54:06Z</time>
      </trkpt>
      <trkpt lat="-40.3265100" lon="-71.3889050">
        <ele>1016.0</ele>
        <time>2020-11-15T15:54:07Z</time>
      </trkpt>
      <trkpt lat="-40.3265240" lon="-71.3888240">
        <ele>1015.9</ele>
        <time>2020-11-15T15:54:08Z</time>
      </trkpt>
      <trkpt lat="-40.3265390" lon="-71.3887410">
        <ele>1015.8</ele>
        <time>2020-11-15T15:54:09Z</time>
      </trkpt>
      <trkpt lat="-40.3265530" lon="-71.3886540">
        <ele>1015.6</ele>
        <time>2020-11-15T15:54:10Z</time>
      </trkpt>
      <trkpt lat="-40.3265680" lon="-71.3885630">
        <ele>1015.4</ele>
        <time>2020-11-15T15:54:11Z</time>
      </trkpt>
      <trkpt lat="-40.3265820" lon="-71.3884700">
        <ele>1015.1</ele>
        <time>2020-11-15T15:54:12Z</time>
      </trkpt>
      <trkpt lat="-40.3265960" lon="-71.3883740">
        <ele>1014.7</ele>
        <time>2020-11-15T15:54:13Z</time>
      </trkpt>
      <trkpt lat="-40.3266100" lon="-71.3882730">
        <ele>1014.3</ele>
        <time>2020-11-15T15:54:14Z</time>
      </trkpt>
      <trkpt lat="-40.3266240" lon="-71.3881660">
        <ele>1013.8</ele>
        <time>2020-11-15T15:54:15Z</time>
      </trkpt>
      <trkpt lat="-40.3266330" lon="-71.3880530">
        <ele>1013.3</ele>
        <time>2020-11-15T15:54:16Z</time>
      </trkpt>
      <trkpt lat="-40.3266420" lon="-71.3879350">
        <ele>1012.7</ele>
        <time>2020-11-15T15:54:17Z</time>
      </trkpt>
      <trkpt lat="-40.3266490" lon="-71.3878120">
        <ele>1012.1</ele>
        <time>2020-11-15T15:54:18Z</time>
      </trkpt>
      <trkpt lat="-40.3266520" lon="-71.3876820">
        <ele>1011.3</ele>
        <time>2020-11-15T15:54:19Z</time>
      </trkpt>
      <trkpt lat="-40.3266530" lon="-71.3875450">
        <ele>1010.5</ele>
        <time>2020-11-15T15:54:20Z</time>
      </trkpt>
      <trkpt lat="-40.3266510" lon="-71.3874080">
        <ele>1009.7</ele>
        <time>2020-11-15T15:54:21Z</time>
      </trkpt>
      <trkpt lat="-40.3266470" lon="-71.3872690">
        <ele>1008.8</ele>
        <time>2020-11-15T15:54:22Z</time>
      </trkpt>
      <trkpt lat="-40.3266390" lon="-71.3871260">
        <ele>1007.9</ele>
        <time>2020-11-15T15:54:23Z</time>
      </trkpt>
      <trkpt lat="-40.3266260" lon="-71.3869790">
        <ele>1006.9</ele>
        <time>2020-11-15T15:54:24Z</time>
      </trkpt>
      <trkpt lat="-40.3266100" lon="-71.3868300">
        <ele>1006.0</ele>
        <time>2020-11-15T15:54:25Z</time>
      </trkpt>
      <trkpt lat="-40.3265870" lon="-71.3866790">
        <ele>1005.0</ele>
        <time>2020-11-15T15:54:26Z</time>
      </trkpt>
      <trkpt lat="-40.3265600" lon="-71.3865290">
        <ele>1004.0</ele>
        <time>2020-11-15T15:54:27Z</time>
      </trkpt>
      <trkpt lat="-40.3265280" lon="-71.3863790">
        <ele>1003.0</ele>
        <time>2020-11-15T15:54:28Z</time>
      </trkpt>
      <trkpt lat="-40.3264900" lon="-71.3862260">
        <ele>1002.0</ele>
        <time>2020-11-15T15:54:29Z</time>
      </trkpt>
      <trkpt lat="-40.3264450" lon="-71.3860700">
        <ele>1001.0</ele>
        <time>2020-11-15T15:54:30Z</time>
      </trkpt>
      <trkpt lat="-40.3263990" lon="-71.3859130">
        <ele>999.9</ele>
        <time>2020-11-15T15:54:31Z</time>
      </trkpt>
      <trkpt lat="-40.3263510" lon="-71.3857560">
        <ele>998.8</ele>
        <time>2020-11-15T15:54:32Z</time>
      </trkpt>
      <trkpt lat="-40.3263020" lon="-71.3856000">
        <ele>997.8</ele>
        <time>2020-11-15T15:54:33Z</time>
      </trkpt>
      <trkpt lat="-40.3262460" lon="-71.3854450">
        <ele>996.9</ele>
        <time>2020-11-15T15:54:34Z</time>
      </trkpt>
      <trkpt lat="-40.3261810" lon="-71.3852910">
        <ele>996.0</ele>
        <time>2020-11-15T15:54:35Z</time>
      </trkpt>
      <trkpt lat="-40.3261080" lon="-71.3851420">
        <ele>995.2</ele>
        <time>2020-11-15T15:54:36Z</time>
      </trkpt>
      <trkpt lat="-40.3260240" lon="-71.3850010">
        <ele>994.3</ele>
        <time>2020-11-15T15:54:37Z</time>
      </trkpt>
      <trkpt lat="-40.3259300" lon="-71.3848650">
        <ele>993.2</ele>
        <time>2020-11-15T15:54:38Z</time>
      </trkpt>
      <trkpt lat="-40.3258290" lon="-71.3847360">
        <ele>992.1</ele>
        <time>2020-11-15T15:54:39Z</time>
      </trkpt>
      <trkpt lat="-40.3257220" lon="-71.3846160">
        <ele>990.9</ele>
        <time>2020-11-15T15:54:40Z</time>
      </trkpt>
      <trkpt lat="-40.3256090" lon="-71.3845020">
        <ele>989.8</ele>
        <time>2020-11-15T15:54:41Z</time>
      </trkpt>
      <trkpt lat="-40.3254930" lon="-71.3843920">
        <ele>988.7</ele>
        <time>2020-11-15T15:54:42Z</time>
      </trkpt>
      <trkpt lat="-40.3253720" lon="-71.3842920">
        <ele>987.5</ele>
        <time>2020-11-15T15:54:43Z</time>
      </trkpt>
      <trkpt lat="-40.3252450" lon="-71.3842050">
        <ele>986.3</ele>
        <time>2020-11-15T15:54:44Z</time>
      </trkpt>
      <trkpt lat="-40.3251150" lon="-71.3841280">
        <ele>985.1</ele>
        <time>2020-11-15T15:54:45Z</time>
      </trkpt>
      <trkpt lat="-40.3249840" lon="-71.3840600">
        <ele>984.0</ele>
        <time>2020-11-15T15:54:46Z</time>
      </trkpt>
      <trkpt lat="-40.3248530" lon="-71.3839960">
        <ele>982.9</ele>
        <time>2020-11-15T15:54:47Z</time>
      </trkpt>
      <trkpt lat="-40.3247200" lon="-71.3839400">
        <ele>981.9</ele>
        <time>2020-11-15T15:54:48Z</time>
      </trkpt>
      <trkpt lat="-40.3245860" lon="-71.3838890">
        <ele>980.9</ele>
        <time>2020-11-15T15:54:49Z</time>
      </trkpt>
      <trkpt lat="-40.3244510" lon="-71.3838480">
        <ele>979.8</ele>
        <time>2020-11-15T15:54:50Z</time>
      </trkpt>
      <trkpt lat="-40.3243150" lon="-71.3838200">
        <ele>978.7</ele>
        <time>2020-11-15T15:54:51Z</time>
      </trkpt>
      <trkpt lat="-40.3241790" lon="-71.3837970">
        <ele>977.6</ele>
        <time>2020-11-15T15:54:52Z</time>
      </trkpt>
      <trkpt lat="-40.3240450" lon="-71.3837780">
        <ele>976.5</ele>
        <time>2020-11-15T15:54:53Z</time>
      </trkpt>
      <trkpt lat="-40.3239070" lon="-71.3837710">
        <ele>975.4</ele>
        <time>2020-11-15T15:54:54Z</time>
      </trkpt>
      <trkpt lat="-40.3237700" lon="-71.3837700">
        <ele>974.3</ele>
        <time>2020-11-15T15:54:55Z</time>
      </trkpt>
      <trkpt lat="-40.3236330" lon="-71.3837740">
        <ele>973.2</ele>
        <time>2020-11-15T15:54:56Z</time>
      </trkpt>
      <trkpt lat="-40.3234940" lon="-71.3837780">
        <ele>972.1</ele>
        <time>2020-11-15T15:54:57Z</time>
      </trkpt>
      <trkpt lat="-40.3233570" lon="-71.3837820">
        <ele>971.1</ele>
        <time>2020-11-15T15:54:58Z</time>
      </trkpt>
      <trkpt lat="-40.3232220" lon="-71.3837880">
        <ele>970.1</ele>
        <time>2020-11-15T15:54:59Z</time>
      </trkpt>
      <trkpt lat="-40.3230870" lon="-71.3837990">
        <ele>969.1</ele>
        <time>2020-11-15T15:55:00Z</time>
      </trkpt>
      <trkpt lat="-40.3229500" lon="-71.3838080">
        <ele>968.2</ele>
        <time>2020-11-15T15:55:01Z</time>
      </trkpt>
      <trkpt lat="-40.3228150" lon="-71.3838140">
        <ele>967.4</ele>
        <time>2020-11-15T15:55:02Z</time>
      </trkpt>
      <trkpt lat="-40.3226810" lon="-71.3838220">
        <ele>966.7</ele>
        <time>2020-11-15T15:55:03Z</time>
      </trkpt>
      <trkpt lat="-40.3225500" lon="-71.3838310">
        <ele>966.3</ele>
        <time>2020-11-15T15:55:04Z</time>
      </trkpt>
      <trkpt lat="-40.3224220" lon="-71.3838400">
        <ele>966.0</ele>
        <time>2020-11-15T15:55:05Z</time>
      </trkpt>
      <trkpt lat="-40.3222970" lon="-71.3838470">
        <ele>965.7</ele>
        <time>2020-11-15T15:55:06Z</time>
      </trkpt>
      <trkpt lat="-40.3221760" lon="-71.3838540">
        <ele>965.6</ele>
        <time>2020-11-15T15:55:07Z</time>
      </trkpt>
      <trkpt lat="-40.3220590" lon="-71.3838610">
        <ele>965.5</ele>
        <time>2020-11-15T15:55:08Z</time>
      </trkpt>
      <trkpt lat="-40.3219450" lon="-71.3838660">
        <ele>965.4</ele>
        <time>2020-11-15T15:55:09Z</time>
      </trkpt>
      <trkpt lat="-40.3218320" lon="-71.3838690">
        <ele>965.3</ele>
        <time>2020-11-15T15:55:10Z</time>
      </trkpt>
      <trkpt lat="-40.3217210" lon="-71.3838740">
        <ele>965.3</ele>
        <time>2020-11-15T15:55:11Z</time>
      </trkpt>
      <trkpt lat="-40.3216130" lon="-71.3838800">
        <ele>965.3</ele>
        <time>2020-11-15T15:55:12Z</time>
      </trkpt>
      <trkpt lat="-40.3215080" lon="-71.3838890">
        <ele>965.2</ele>
        <time>2020-11-15T15:55:13Z</time>
      </trkpt>
      <trkpt lat="-40.3214060" lon="-71.3838960">
        <ele>965.2</ele>
        <time>2020-11-15T15:55:14Z</time>
      </trkpt>
      <trkpt lat="-40.3213060" lon="-71.3839020">
        <ele>965.2</ele>
        <time>2020-11-15T15:55:15Z</time>
      </trkpt>
      <trkpt lat="-40.3212090" lon="-71.3839080">
        <ele>965.2</ele>
        <time>2020-11-15T15:55:16Z</time>
      </trkpt>
      <trkpt lat="-40.3211150" lon="-71.3839120">
        <ele>965.3</ele>
        <time>2020-11-15T15:55:17Z</time>
      </trkpt>
      <trkpt lat="-40.3210240" lon="-71.3839160">
        <ele>965.3</ele>
        <time>2020-11-15T15:55:18Z</time>
      </trkpt>
      <trkpt lat="-40.3209380" lon="-71.3839170">
        <ele>965.4</ele>
        <time>2020-11-15T15:55:19Z</time>
      </trkpt>
      <trkpt lat="-40.3208500" lon="-71.3839160">
        <ele>965.4</ele>
        <time>2020-11-15T15:55:20Z</time>
      </trkpt>
      <trkpt lat="-40.3207630" lon="-71.3839100">
        <ele>965.4</ele>
        <time>2020-11-15T15:55:21Z</time>
      </trkpt>
      <trkpt lat="-40.3206740" lon="-71.3839010">
        <ele>965.4</ele>
        <time>2020-11-15T15:55:22Z</time>
      </trkpt>
      <trkpt lat="-40.3205850" lon="-71.3838940">
        <ele>965.4</ele>
        <time>2020-11-15T15:55:23Z</time>
      </trkpt>
      <trkpt lat="-40.3204980" lon="-71.3838850">
        <ele>965.4</ele>
        <time>2020-11-15T15:55:24Z</time>
      </trkpt>
      <trkpt lat="-40.3204150" lon="-71.3838690">
        <ele>965.4</ele>
        <time>2020-11-15T15:55:25Z</time>
      </trkpt>
      <trkpt lat="-40.3203320" lon="-71.3838520">
        <ele>965.3</ele>
        <time>2020-11-15T15:55:26Z</time>
      </trkpt>
      <trkpt lat="-40.3202490" lon="-71.3838320">
        <ele>965.3</ele>
        <time>2020-11-15T15:55:27Z</time>
      </trkpt>
      <trkpt lat="-40.3201640" lon="-71.3838140">
        <ele>965.3</ele>
        <time>2020-11-15T15:55:28Z</time>
      </trkpt>
      <trkpt lat="-40.3200770" lon="-71.3837970">
        <ele>965.2</ele>
        <time>2020-11-15T15:55:29Z</time>
      </trkpt>
      <trkpt lat="-40.3199930" lon="-71.3837750">
        <ele>965.2</ele>
        <time>2020-11-15T15:55:30Z</time>
      </trkpt>
      <trkpt lat="-40.3199040" lon="-71.3837560">
        <ele>965.1</ele>
        <time>2020-11-15T15:55:31Z</time>
      </trkpt>
      <trkpt lat="-40.3198160" lon="-71.3837310">
        <ele>965.0</ele>
        <time>2020-11-15T15:55:32Z</time>
      </trkpt>
      <trkpt lat="-40.3197260" lon="-71.3837070">
        <ele>964.9</ele>
        <time>2020-11-15T15:55:33Z</time>
      </trkpt>
      <trkpt lat="-40.3196370" lon="-71.3836810">
        <ele>964.7</ele>
        <time>2020-11-15T15:55:34Z</time>
      </trkpt>
      <trkpt lat="-40.3195510" lon="-71.3836490">
        <ele>964.6</ele>
        <time>2020-11-15T15:55:35Z</time>
      </trkpt>
      <trkpt lat="-40.3194620" lon="-71.3836150">
        <ele>964.4</ele>
        <time>2020-11-15T15:55:36Z</time>
      </trkpt>
      <trkpt lat="-40.3193710" lon="-71.3835830">
        <ele>964.3</ele>
        <time>2020-11-15T15:55:37Z</time>
      </trkpt>
      <trkpt lat="-40.3192840" lon="-71.3835470">
        <ele>964.1</ele>
        <time>2020-11-15T15:55:38Z</time>
      </trkpt>
      <trkpt lat="-40.3191980" lon="-71.3835080">
        <ele>964.0</ele>
        <time>2020-11-15T15:55:39Z</time>
      </trkpt>
      <trkpt lat="-40.3191130" lon="-71.3834690">
        <ele>963.8</ele>
        <time>2020-11-15T15:55:40Z</time>
      </trkpt>
      <trkpt lat="-40.3190280" lon="-71.3834250">
        <ele>963.5</ele>
        <time>2020-11-15T15:55:41Z</time>
      </trkpt>
      <trkpt lat="-40.3189440" lon="-71.3833750">
        <ele>963.3</ele>
        <time>2020-11-15T15:55:42Z</time>
      </trkpt>
      <trkpt lat="-40.3188610" lon="-71.3833260">
        <ele>963.1</ele>
        <time>2020-11-15T15:55:43Z</time>
      </trkpt>
      <trkpt lat="-40.3187790" lon="-71.3832780">
        <ele>963.0</ele>
        <time>2020-11-15T15:55:44Z</time>
      </trkpt>
      <trkpt lat="-40.3186990" lon="-71.3832270">
        <ele>962.9</ele>
        <time>2020-11-15T15:55:45Z</time>
      </trkpt>
      <trkpt lat="-40.3186220" lon="-71.3831750">
        <ele>962.8</ele>
        <time>2020-11-15T15:55:46Z</time>
      </trkpt>
      <trkpt lat="-40.3185470" lon="-71.3831260">
        <ele>962.8</ele>
        <time>2020-11-15T15:55:47Z</time>
      </trkpt>
      <trkpt lat="-40.3184750" lon="-71.3830770">
        <ele>962.8</ele>
        <time>2020-11-15T15:55:48Z</time>
      </trkpt>
      <trkpt lat="-40.3184050" lon="-71.3830260">
        <ele>963.0</ele>
        <time>2020-11-15T15:55:49Z</time>
      </trkpt>
      <trkpt lat="-40.3183370" lon="-71.3829770">
        <ele>963.1</ele>
        <time>2020-11-15T15:55:50Z</time>
      </trkpt>
      <trkpt lat="-40.3182690" lon="-71.3829290">
        <ele>963.2</ele>
        <time>2020-11-15T15:55:51Z</time>
      </trkpt>
      <trkpt lat="-40.3182030" lon="-71.3828850">
        <ele>963.3</ele>
        <time>2020-11-15T15:55:52Z</time>
      </trkpt>
      <trkpt lat="-40.3181380" lon="-71.3828430">
        <ele>963.5</ele>
        <time>2020-11-15T15:55:53Z</time>
      </trkpt>
      <trkpt lat="-40.3180750" lon="-71.3828020">
        <ele>963.6</ele>
        <time>2020-11-15T15:55:54Z</time>
      </trkpt>
      <trkpt lat="-40.3180130" lon="-71.3827640">
        <ele>963.7</ele>
        <time>2020-11-15T15:55:55Z</time>
      </trkpt>
      <trkpt lat="-40.3179540" lon="-71.3827270">
        <ele>963.7</ele>
        <time>2020-11-15T15:55:56Z</time>
      </trkpt>
      <trkpt lat="-40.3178950" lon="-71.3826890">
        <ele>963.7</ele>
        <time>2020-11-15T15:55:57Z</time>
      </trkpt>
      <trkpt lat="-40.3178390" lon="-71.3826490">
        <ele>963.7</ele>
        <time>2020-11-15T15:55:58Z</time>
      </trkpt>
      <trkpt lat="-40.3177820" lon="-71.3826090">
        <ele>963.6</ele>
        <time>2020-11-15T15:55:59Z</time>
      </trkpt>
      <trkpt lat="-40.3177250" lon="-71.3825710">
        <ele>963.6</ele>
        <time>2020-11-15T15:56:00Z</time>
      </trkpt>
      <trkpt lat="-40.3176680" lon="-71.3825320">
        <ele>963.6</ele>
        <time>2020-11-15T15:56:01Z</time>
      </trkpt>
      <trkpt lat="-40.3176120" lon="-71.3824930">
        <ele>963.5</ele>
        <time>2020-11-15T15:56:02Z</time>
      </trkpt>
      <trkpt lat="-40.3175560" lon="-71.3824540">
        <ele>963.4</ele>
        <time>2020-11-15T15:56:03Z</time>
      </trkpt>
      <trkpt lat="-40.3174970" lon="-71.3824150">
        <ele>963.3</ele>
        <time>2020-11-15T15:56:04Z</time>
      </trkpt>
      <trkpt lat="-40.3174380" lon="-71.3823770">
        <ele>963.1</ele>
        <time>2020-11-15T15:56:05Z</time>
      </trkpt>
      <trkpt lat="-40.3173770" lon="-71.3823360">
        <ele>963.0</ele>
        <time>2020-11-15T15:56:06Z</time>
      </trkpt>
      <trkpt lat="-40.3173140" lon="-71.3822920">
        <ele>962.8</ele>
        <time>2020-11-15T15:56:07Z</time>
      </trkpt>
      <trkpt lat="-40.3172510" lon="-71.3822470">
        <ele>962.6</ele>
        <time>2020-11-15T15:56:08Z</time>
      </trkpt>
      <trkpt lat="-40.3171850" lon="-71.3822040">
        <ele>962.3</ele>
        <time>2020-11-15T15:56:09Z</time>
      </trkpt>
      <trkpt lat="-40.3171160" lon="-71.3821600">
        <ele>962.1</ele>
        <time>2020-11-15T15:56:10Z</time>
      </trkpt>
      <trkpt lat="-40.3170460" lon="-71.3821150">
        <ele>961.9</ele>
        <time>2020-11-15T15:56:11Z</time>
      </trkpt>
      <trkpt lat="-40.3169750" lon="-71.3820720">
        <ele>961.7</ele>
        <time>2020-11-15T15:56:12Z</time>
      </trkpt>
      <trkpt lat="-40.3169030" lon="-71.3820270">
        <ele>961.5</ele>
        <time>2020-11-15T15:56:13Z</time>
      </trkpt>
      <trkpt lat="-40.3168310" lon="-71.3819810">
        <ele>961.4</ele>
        <time>2020-11-15T15:56:14Z</time>
      </trkpt>
      <trkpt lat="-40.3167590" lon="-71.3819350">
        <ele>961.3</ele>
        <time>2020-11-15T15:56:15Z</time>
      </trkpt>
      <trkpt lat="-40.3166860" lon="-71.3818870">
        <ele>961.2</ele>
        <time>2020-11-15T15:56:16Z</time>
      </trkpt>
      <trkpt lat="-40.3166160" lon="-71.3818380">
        <ele>961.1</ele>
        <time>2020-11-15T15:56:17Z</time>
      </trkpt>
      <trkpt lat="-40.3165480" lon="-71.3817870">
        <ele>961.1</ele>
        <time>2020-11-15T15:56:18Z</time>
      </trkpt>
      <trkpt lat="-40.3164820" lon="-71.3817410">
        <ele>961.1</ele>
        <time>2020-11-15T15:56:19Z</time>
      </trkpt>
      <trkpt lat="-40.3164150" lon="-71.3817010">
        <ele>961.1</ele>
        <time>2020-11-15T15:56:20Z</time>
      </trkpt>
      <trkpt lat="-40.3163490" lon="-71.3816630">
        <ele>961.1</ele>
        <time>2020-11-15T15:56:21Z</time>
      </trkpt>
      <trkpt lat="-40.3162840" lon="-71.3816250">
        <ele>961.1</ele>
        <time>2020-11-15T15:56:22Z</time>
      </trkpt>
      <trkpt lat="-40.3162250" lon="-71.3815830">
        <ele>961.0</ele>
        <time>2020-11-15T15:56:23Z</time>
      </trkpt>
      <trkpt lat="-40.3161670" lon="-71.3815460">
        <ele>961.0</ele>
        <time>2020-11-15T15:56:24Z</time>
      </trkpt>
      <trkpt lat="-40.3161110" lon="-71.3815090">
        <ele>961.0</ele>
        <time>2020-11-15T15:56:25Z</time>
      </trkpt>
      <trkpt lat="-40.3160610" lon="-71.3814670">
        <ele>961.0</ele>
        <time>2020-11-15T15:56:26Z</time>
      </trkpt>
      <trkpt lat="-40.3160120" lon="-71.3814280">
        <ele>961.0</ele>
        <time>2020-11-15T15:56:27Z</time>
      </trkpt>
      <trkpt lat="-40.3159630" lon="-71.3813950">
        <ele>960.9</ele>
        <time>2020-11-15T15:56:28Z</time>
      </trkpt>
      <trkpt lat="-40.3159140" lon="-71.3813630">
        <ele>960.8</ele>
        <time>2020-11-15T15:56:29Z</time>
      </trkpt>
      <trkpt lat="-40.3158660" lon="-71.3813330">
        <ele>960.7</ele>
        <time>2020-11-15T15:56:30Z</time>
      </trkpt>
      <trkpt lat="-40.3158200" lon="-71.3813000">
        <ele>960.6</ele>
        <time>2020-11-15T15:56:31Z</time>
      </trkpt>
      <trkpt lat="-40.3157740" lon="-71.3812690">
        <ele>960.6</ele>
        <time>2020-11-15T15:56:32Z</time>
      </trkpt>
      <trkpt lat="-40.3157280" lon="-71.3812380">
        <ele>960.5</ele>
        <time>2020-11-15T15:56:33Z</time>
      </trkpt>
      <trkpt lat="-40.3156820" lon="-71.3812080">
        <ele>960.5</ele>
        <time>2020-11-15T15:56:34Z</time>
      </trkpt>
      <trkpt lat="-40.3156370" lon="-71.3811810">
        <ele>960.5</ele>
        <time>2020-11-15T15:56:35Z</time>
      </trkpt>
      <trkpt lat="-40.3155920" lon="-71.3811590">
        <ele>960.5</ele>
        <time>2020-11-15T15:56:36Z</time>
      </trkpt>
      <trkpt lat="-40.3155450" lon="-71.3811410">
        <ele>960.6</ele>
        <time>2020-11-15T15:56:37Z</time>
      </trkpt>
      <trkpt lat="-40.3155000" lon="-71.3811180">
        <ele>960.6</ele>
        <time>2020-11-15T15:56:38Z</time>
      </trkpt>
      <trkpt lat="-40.3154550" lon="-71.3810980">
        <ele>960.7</ele>
        <time>2020-11-15T15:56:39Z</time>
      </trkpt>
      <trkpt lat="-40.3154100" lon="-71.3810820">
        <ele>960.8</ele>
        <time>2020-11-15T15:56:40Z</time>
      </trkpt>
      <trkpt lat="-40.3153630" lon="-71.3810660">
        <ele>960.9</ele>
        <time>2020-11-15T15:56:41Z</time>
      </trkpt>
      <trkpt lat="-40.3153160" lon="-71.3810490">
        <ele>961.0</ele>
        <time>2020-11-15T15:56:42Z</time>
      </trkpt>
      <trkpt lat="-40.3152690" lon="-71.3810330">
        <ele>961.1</ele>
        <time>2020-11-15T15:56:43Z</time>
      </trkpt>
      <trkpt lat="-40.3152220" lon="-71.3810210">
        <ele>961.3</ele>
        <time>2020-11-15T15:56:44Z</time>
      </trkpt>
      <trkpt lat="-40.3151750" lon="-71.3810120">
        <ele>961.4</ele>
        <time>2020-11-15T15:56:45Z</time>
      </trkpt>
      <trkpt lat="-40.3151290" lon="-71.3810020">
        <ele>961.6</ele>
        <time>2020-11-15T15:56:46Z</time>
      </trkpt>
      <trkpt lat="-40.3150850" lon="-71.3809950">
        <ele>961.7</ele>
        <time>2020-11-15T15:56:47Z</time>
      </trkpt>
      <trkpt lat="-40.3150390" lon="-71.3809890">
        <ele>961.9</ele>
        <time>2020-11-15T15:56:48Z</time>
      </trkpt>
      <trkpt lat="-40.3149930" lon="-71.3809870">
        <ele>962.1</ele>
        <time>2020-11-15T15:56:49Z</time>
      </trkpt>
      <trkpt lat="-40.3149500" lon="-71.3809880">
        <ele>962.3</ele>
        <time>2020-11-15T15:56:50Z</time>
      </trkpt>
      <trkpt lat="-40.3149070" lon="-71.3809900">
        <ele>962.5</ele>
        <time>2020-11-15T15:56:51Z</time>
      </trkpt>
      <trkpt lat="-40.3148660" lon="-71.3809910">
        <ele>962.7</ele>
        <time>2020-11-15T15:56:52Z</time>
      </trkpt>
      <trkpt lat="-40.3148260" lon="-71.3809920">
        <ele>962.9</ele>
        <time>2020-11-15T15:56:53Z</time>
      </trkpt>
      <trkpt lat="-40.3147860" lon="-71.3809930">
        <ele>963.0</ele>
        <time>2020-11-15T15:56:54Z</time>
      </trkpt>
      <trkpt lat="-40.3147460" lon="-71.3809950">
        <ele>963.2</ele>
        <time>2020-11-15T15:56:55Z</time>
      </trkpt>
      <trkpt lat="-40.3147080" lon="-71.3809940">
        <ele>963.4</ele>
        <time>2020-11-15T15:56:56Z</time>
      </trkpt>
      <trkpt lat="-40.3146690" lon="-71.3809970">
        <ele>963.7</ele>
        <time>2020-11-15T15:56:57Z</time>
      </trkpt>
      <trkpt lat="-40.3146290" lon="-71.3810010">
        <ele>963.9</ele>
        <time>2020-11-15T15:56:58Z</time>
      </trkpt>
      <trkpt lat="-40.3145890" lon="-71.3810050">
        <ele>964.1</ele>
        <time>2020-11-15T15:56:59Z</time>
      </trkpt>
      <trkpt lat="-40.3145490" lon="-71.3810090">
        <ele>964.4</ele>
        <time>2020-11-15T15:57:00Z</time>
      </trkpt>
      <trkpt lat="-40.3145090" lon="-71.3810130">
        <ele>964.6</ele>
        <time>2020-11-15T15:57:01Z</time>
      </trkpt>
      <trkpt lat="-40.3144700" lon="-71.3810190">
        <ele>964.8</ele>
        <time>2020-11-15T15:57:02Z</time>
      </trkpt>
      <trkpt lat="-40.3144300" lon="-71.3810250">
        <ele>965.1</ele>
        <time>2020-11-15T15:57:03Z</time>
      </trkpt>
      <trkpt lat="-40.3143900" lon="-71.3810320">
        <ele>965.3</ele>
        <time>2020-11-15T15:57:04Z</time>
      </trkpt>
      <trkpt lat="-40.3143500" lon="-71.3810390">
        <ele>965.6</ele>
        <time>2020-11-15T15:57:05Z</time>
      </trkpt>
      <trkpt lat="-40.3143100" lon="-71.3810470">
        <ele>965.8</ele>
        <time>2020-11-15T15:57:06Z</time>
      </trkpt>
      <trkpt lat="-40.3142710" lon="-71.3810550">
        <ele>966.1</ele>
        <time>2020-11-15T15:57:07Z</time>
      </trkpt>
      <trkpt lat="-40.3142320" lon="-71.3810630">
        <ele>966.3</ele>
        <time>2020-11-15T15:57:08Z</time>
      </trkpt>
      <trkpt lat="-40.3141940" lon="-71.3810720">
        <ele>966.5</ele>
        <time>2020-11-15T15:57:09Z</time>
      </trkpt>
      <trkpt lat="-40.3141560" lon="-71.3810800">
        <ele>966.8</ele>
        <time>2020-11-15T15:57:10Z</time>
      </trkpt>
      <trkpt lat="-40.3141170" lon="-71.3810870">
        <ele>967.0</ele>
        <time>2020-11-15T15:57:11Z</time>
      </trkpt>
      <trkpt lat="-40.3140790" lon="-71.3810950">
        <ele>967.2</ele>
        <time>2020-11-15T15:57:12Z</time>
      </trkpt>
      <trkpt lat="-40.3140420" lon="-71.3811020">
        <ele>967.4</ele>
        <time>2020-11-15T15:57:13Z</time>
      </trkpt>
      <trkpt lat="-40.3140060" lon="-71.3811110">
        <ele>967.6</ele>
        <time>2020-11-15T15:57:14Z</time>
      </trkpt>
      <trkpt lat="-40.3139720" lon="-71.3811210">
        <ele>967.8</ele>
        <time>2020-11-15T15:57:15Z</time>
      </trkpt>
      <trkpt lat="-40.3139380" lon="-71.3811350">
        <ele>968.1</ele>
        <time>2020-11-15T15:57:16Z</time>
      </trkpt>
      <trkpt lat="-40.3139010" lon="-71.3811500">
        <ele>968.3</ele>
        <time>2020-11-15T15:57:17Z</time>
      </trkpt>
      <trkpt lat="-40.3138600" lon="-71.3811560">
        <ele>968.5</ele>
        <time>2020-11-15T15:57:18Z</time>
      </trkpt>
      <trkpt lat="-40.3138210" lon="-71.3811560">
        <ele>968.8</ele>
        <time>2020-11-15T15:57:19Z</time>
      </trkpt>
      <trkpt lat="-40.3137840" lon="-71.3811580">
        <ele>969.0</ele>
        <time>2020-11-15T15:57:20Z</time>
      </trkpt>
      <trkpt lat="-40.3137490" lon="-71.3811630">
        <ele>969.2</ele>
        <time>2020-11-15T15:57:21Z</time>
      </trkpt>
      <trkpt lat="-40.3137140" lon="-71.3811720">
        <ele>969.4</ele>
        <time>2020-11-15T15:57:22Z</time>
      </trkpt>
      <trkpt lat="-40.3136790" lon="-71.3811820">
        <ele>969.7</ele>
        <time>2020-11-15T15:57:23Z</time>
      </trkpt>
      <trkpt lat="-40.3136460" lon="-71.3811900">
        <ele>969.9</ele>
        <time>2020-11-15T15:57:24Z</time>
      </trkpt>
      <trkpt lat="-40.3136130" lon="-71.3811960">
        <ele>970.1</ele>
        <time>2020-11-15T15:57:25Z</time>
      </trkpt>
      <trkpt lat="-40.3135800" lon="-71.3812010">
        <ele>970.3</ele>
        <time>2020-11-15T15:57:26Z</time>
      </trkpt>
      <trkpt lat="-40.3135460" lon="-71.3812090">
        <ele>970.5</ele>
        <time>2020-11-15T15:57:27Z</time>
      </trkpt>
      <trkpt lat="-40.3135110" lon="-71.3812180">
        <ele>970.7</ele>
        <time>2020-11-15T15:57:28Z</time>
      </trkpt>
      <trkpt lat="-40.3134780" lon="-71.3812280">
        <ele>970.9</ele>
        <time>2020-11-15T15:57:29Z</time>
      </trkpt>
      <trkpt lat="-40.3134510" lon="-71.3812370">
        <ele>971.1</ele>
        <time>2020-11-15T15:57:30Z</time>
      </trkpt>
      <trkpt lat="-40.3134270" lon="-71.3812500">
        <ele>971.2</ele>
        <time>2020-11-15T15:57:31Z</time>
      </trkpt>
      <trkpt lat="-40.3134000" lon="-71.3812650">
        <ele>971.4</ele>
        <time>2020-11-15T15:57:32Z</time>
      </trkpt>
      <trkpt lat="-40.3133650" lon="-71.3812820">
        <ele>971.6</ele>
        <time>2020-11-15T15:57:33Z</time>
      </trkpt>
      <trkpt lat="-40.3133330" lon="-71.3812960">
        <ele>971.8</ele>
        <time>2020-11-15T15:57:34Z</time>
      </trkpt>
      <trkpt lat="-40.3132990" lon="-71.3813060">
        <ele>972.0</ele>
        <time>2020-11-15T15:57:35Z</time>
      </trkpt>
      <trkpt lat="-40.3132650" lon="-71.3813130">
        <ele>972.2</ele>
        <time>2020-11-15T15:57:36Z</time>
      </trkpt>
      <trkpt lat="-40.3132330" lon="-71.3813240">
        <ele>972.4</ele>
        <time>2020-11-15T15:57:37Z</time>
      </trkpt>
      <trkpt lat="-40.3132000" lon="-71.3813370">
        <ele>972.6</ele>
        <time>2020-11-15T15:57:38Z</time>
      </trkpt>
      <trkpt lat="-40.3131690" lon="-71.3813510">
        <ele>972.8</ele>
        <time>2020-11-15T15:57:39Z</time>
      </trkpt>
      <trkpt lat="-40.3131380" lon="-71.3813660">
        <ele>973.0</ele>
        <time>2020-11-15T15:57:40Z</time>
      </trkpt>
      <trkpt lat="-40.3131040" lon="-71.3813820">
        <ele>973.2</ele>
        <time>2020-11-15T15:57:41Z</time>
      </trkpt>
      <trkpt lat="-40.3130710" lon="-71.3813980">
        <ele>973.4</ele>
        <time>2020-11-15T15:57:42Z</time>
      </trkpt>
      <trkpt lat="-40.3130380" lon="-71.3814160">
        <ele>973.6</ele>
        <time>2020-11-15T15:57:43Z</time>
      </trkpt>
      <trkpt lat="-40.3130040" lon="-71.3814340">
        <ele>973.8</ele>
        <time>2020-11-15T15:57:44Z</time>
      </trkpt>
      <trkpt lat="-40.3129700" lon="-71.3814520">
        <ele>974.0</ele>
        <time>2020-11-15T15:57:45Z</time>
      </trkpt>
      <trkpt lat="-40.3129380" lon="-71.3814690">
        <ele>974.2</ele>
        <time>2020-11-15T15:57:46Z</time>
      </trkpt>
      <trkpt lat="-40.3129060" lon="-71.3814880">
        <ele>974.4</ele>
        <time>2020-11-15T15:57:47Z</time>
      </trkpt>
      <trkpt lat="-40.3128730" lon="-71.3815080">
        <ele>974.6</ele>
        <time>2020-11-15T15:57:48Z</time>
      </trkpt>
      <trkpt lat="-40.3128400" lon="-71.3815260">
        <ele>974.8</ele>
        <time>2020-11-15T15:57:49Z</time>
      </trkpt>
      <trkpt lat="-40.3128060" lon="-71.3815470">
        <ele>975.0</ele>
        <time>2020-11-15T15:57:50Z</time>
      </trkpt>
      <trkpt lat="-40.3127740" lon="-71.3815690">
        <ele>975.2</ele>
        <time>2020-11-15T15:57:51Z</time>
      </trkpt>
      <trkpt lat="-40.3127440" lon="-71.3815900">
        <ele>975.4</ele>
        <time>2020-11-15T15:57:52Z</time>
      </trkpt>
      <trkpt lat="-40.3127120" lon="-71.3816110">
        <ele>975.6</ele>
        <time>2020-11-15T15:57:53Z</time>
      </trkpt>
      <trkpt lat="-40.3126800" lon="-71.3816320">
        <ele>975.8</ele>
        <time>2020-11-15T15:57:54Z</time>
      </trkpt>
      <trkpt lat="-40.3126470" lon="-71.3816510">
        <ele>976.0</ele>
        <time>2020-11-15T15:57:55Z</time>
      </trkpt>
      <trkpt lat="-40.3126130" lon="-71.3816680">
        <ele>976.2</ele>
        <time>2020-11-15T15:57:56Z</time>
      </trkpt>
      <trkpt lat="-40.3125790" lon="-71.3816870">
        <ele>976.4</ele>
        <time>2020-11-15T15:57:57Z</time>
      </trkpt>
      <trkpt lat="-40.3125450" lon="-71.3817060">
        <ele>976.6</ele>
        <time>2020-11-15T15:57:58Z</time>
      </trkpt>
      <trkpt lat="-40.3125110" lon="-71.3817240">
        <ele>976.8</ele>
        <time>2020-11-15T15:57:59Z</time>
      </trkpt>
      <trkpt lat="-40.3124780" lon="-71.3817430">
        <ele>977.0</ele>
        <time>2020-11-15T15:58:00Z</time>
      </trkpt>
      <trkpt lat="-40.3124450" lon="-71.3817640">
        <ele>977.2</ele>
        <time>2020-11-15T15:58:01Z</time>
      </trkpt>
      <trkpt lat="-40.3124110" lon="-71.3817840">
        <ele>977.4</ele>
        <time>2020-11-15T15:58:02Z</time>
      </trkpt>
      <trkpt lat="-40.3123780" lon="-71.3818020">
        <ele>977.5</ele>
        <time>2020-11-15T15:58:03Z</time>
      </trkpt>
      <trkpt lat="-40.3123450" lon="-71.3818190">
        <ele>977.7</ele>
        <time>2020-11-15T15:58:04Z</time>
      </trkpt>
      <trkpt lat="-40.3123100" lon="-71.3818350">
        <ele>977.9</ele>
        <time>2020-11-15T15:58:05Z</time>
      </trkpt>
      <trkpt lat="-40.3122760" lon="-71.3818480">
        <ele>978.1</ele>
        <time>2020-11-15T15:58:06Z</time>
      </trkpt>
      <trkpt lat="-40.3122410" lon="-71.3818600">
        <ele>978.3</ele>
        <time>2020-11-15T15:58:07Z</time>
      </trkpt>
      <trkpt lat="-40.3122050" lon="-71.3818680">
        <ele>978.5</ele>
        <time>2020-11-15T15:58:08Z</time>
      </trkpt>
      <trkpt lat="-40.3121690" lon="-71.3818750">
        <ele>978.7</ele>
        <time>2020-11-15T15:58:09Z</time>
      </trkpt>
      <trkpt lat="-40.3121330" lon="-71.3818840">
        <ele>978.9</ele>
        <time>2020-11-15T15:58:10Z</time>
      </trkpt>
      <trkpt lat="-40.3120980" lon="-71.3818920">
        <ele>979.1</ele>
        <time>2020-11-15T15:58:11Z</time>
      </trkpt>
      <trkpt lat="-40.3120620" lon="-71.3818960">
        <ele>979.3</ele>
        <time>2020-11-15T15:58:12Z</time>
      </trkpt>
      <trkpt lat="-40.3120260" lon="-71.3818980">
        <ele>979.5</ele>
        <time>2020-11-15T15:58:13Z</time>
      </trkpt>
      <trkpt lat="-40.3119910" lon="-71.3818990">
        <ele>979.7</ele>
        <time>2020-11-15T15:58:14Z</time>
      </trkpt>
      <trkpt lat="-40.3119580" lon="-71.3818970">
        <ele>979.9</ele>
        <time>2020-11-15T15:58:15Z</time>
      </trkpt>
      <trkpt lat="-40.3119240" lon="-71.3818950">
        <ele>980.1</ele>
        <time>2020-11-15T15:58:16Z</time>
      </trkpt>
      <trkpt lat="-40.3118900" lon="-71.3818930">
        <ele>980.3</ele>
        <time>2020-11-15T15:58:17Z</time>
      </trkpt>
      <trkpt lat="-40.3118560" lon="-71.3818920">
        <ele>980.5</ele>
        <time>2020-11-15T15:58:18Z</time>
      </trkpt>
      <trkpt lat="-40.3118230" lon="-71.3818920">
        <ele>980.7</ele>
        <time>2020-11-15T15:58:19Z</time>
      </trkpt>
      <trkpt lat="-40.3117910" lon="-71.3818880">
        <ele>980.9</ele>
        <time>2020-11-15T15:58:20Z</time>
      </trkpt>
      <trkpt lat="-40.3117600" lon="-71.3818810">
        <ele>981.0</ele>
        <time>2020-11-15T15:58:21Z</time>
      </trkpt>
      <trkpt lat="-40.3117280" lon="-71.3818750">
        <ele>981.2</ele>
        <time>2020-11-15T15:58:22Z</time>
      </trkpt>
      <trkpt lat="-40.3116940" lon="-71.3818690">
        <ele>981.4</ele>
        <time>2020-11-15T15:58:23Z</time>
      </trkpt>
      <trkpt lat="-40.3116600" lon="-71.3818610">
        <ele>981.6</ele>
        <time>2020-11-15T15:58:24Z</time>
      </trkpt>
      <trkpt lat="-40.3116260" lon="-71.3818550">
        <ele>981.8</ele>
        <time>2020-11-15T15:58:25Z</time>
      </trkpt>
      <trkpt lat="-40.3115920" lon="-71.3818490">
        <ele>982.0</ele>
        <time>2020-11-15T15:58:26Z</time>
      </trkpt>
      <trkpt lat="-40.3115570" lon="-71.3818430">
        <ele>982.2</ele>
        <time>2020-11-15T15:58:27Z</time>
      </trkpt>
      <trkpt lat="-40.3115220" lon="-71.3818360">
        <ele>982.4</ele>
        <time>2020-11-15T15:58:28Z</time>
      </trkpt>
      <trkpt lat="-40.3114860" lon="-71.3818280">
        <ele>982.5</ele>
        <time>2020-11-15T15:58:29Z</time>
      </trkpt>
      <trkpt lat="-40.3114510" lon="-71.3818190">
        <ele>982.7</ele>
        <time>2020-11-15T15:58:30Z</time>
      </trkpt>
      <trkpt lat="-40.3114140" lon="-71.3818110">
        <ele>982.9</ele>
        <time>2020-11-15T15:58:31Z</time>
      </trkpt>
      <trkpt lat="-40.3113790" lon="-71.3818060">
        <ele>983.1</ele>
        <time>2020-11-15T15:58:32Z</time>
      </trkpt>
      <trkpt lat="-40.3113440" lon="-71.3818010">
        <ele>983.2</ele>
        <time>2020-11-15T15:58:33Z</time>
      </trkpt>
      <trkpt lat="-40.3113110" lon="-71.3817970">
        <ele>983.3</ele>
        <time>2020-11-15T15:58:34Z</time>
      </trkpt>
      <trkpt lat="-40.3112780" lon="-71.3817920">
        <ele>983.4</ele>
        <time>2020-11-15T15:58:35Z</time>
      </trkpt>
      <trkpt lat="-40.3112460" lon="-71.3817870">
        <ele>983.5</ele>
        <time>2020-11-15T15:58:36Z</time>
      </trkpt>
      <trkpt lat="-40.3112120" lon="-71.3817820">
        <ele>983.6</ele>
        <time>2020-11-15T15:58:37Z</time>
      </trkpt>
      <trkpt lat="-40.3111780" lon="-71.3817790">
        <ele>983.7</ele>
        <time>2020-11-15T15:58:38Z</time>
      </trkpt>
      <trkpt lat="-40.3111450" lon="-71.3817770">
        <ele>983.8</ele>
        <time>2020-11-15T15:58:39Z</time>
      </trkpt>
      <trkpt lat="-40.3111120" lon="-71.3817770">
        <ele>983.8</ele>
        <time>2020-11-15T15:58:40Z</time>
      </trkpt>
      <trkpt lat="-40.3110810" lon="-71.3817740">
        <ele>983.9</ele>
        <time>2020-11-15T15:58:41Z</time>
      </trkpt>
      <trkpt lat="-40.3110470" lon="-71.3817730">
        <ele>983.9</ele>
        <time>2020-11-15T15:58:42Z</time>
      </trkpt>
      <trkpt lat="-40.3110150" lon="-71.3817710">
        <ele>983.9</ele>
        <time>2020-11-15T15:58:43Z</time>
      </trkpt>
      <trkpt lat="-40.3109800" lon="-71.3817720">
        <ele>984.0</ele>
        <time>2020-11-15T15:58:44Z</time>
      </trkpt>
      <trkpt lat="-40.3109400" lon="-71.3817750">
        <ele>984.0</ele>
        <time>2020-11-15T15:58:45Z</time>
      </trkpt>
      <trkpt lat="-40.3109010" lon="-71.3817830">
        <ele>984.1</ele>
        <time>2020-11-15T15:58:46Z</time>
      </trkpt>
      <trkpt lat="-40.3108630" lon="-71.3817900">
        <ele>984.1</ele>
        <time>2020-11-15T15:58:47Z</time>
      </trkpt>
      <trkpt lat="-40.3108240" lon="-71.3817990">
        <ele>984.1</ele>
        <time>2020-11-15T15:58:48Z</time>
      </trkpt>
      <trkpt lat="-40.3107880" lon="-71.3818090">
        <ele>984.1</ele>
        <time>2020-11-15T15:58:49Z</time>
      </trkpt>
      <trkpt lat="-40.3107520" lon="-71.3818180">
        <ele>984.2</ele>
        <time>2020-11-15T15:58:50Z</time>
      </trkpt>
      <trkpt lat="-40.3107100" lon="-71.3818330">
        <ele>984.2</ele>
        <time>2020-11-15T15:58:51Z</time>
      </trkpt>
      <trkpt lat="-40.3106700" lon="-71.3818490">
        <ele>984.2</ele>
        <time>2020-11-15T15:58:52Z</time>
      </trkpt>
      <trkpt lat="-40.3106310" lon="-71.3818580">
        <ele>984.2</ele>
        <time>2020-11-15T15:58:53Z</time>
      </trkpt>
      <trkpt lat="-40.3105930" lon="-71.3818670">
        <ele>984.2</ele>
        <time>2020-11-15T15:58:54Z</time>
      </trkpt>
      <trkpt lat="-40.3105580" lon="-71.3818780">
        <ele>984.2</ele>
        <time>2020-11-15T15:58:55Z</time>
      </trkpt>
      <trkpt lat="-40.3105230" lon="-71.3818910">
        <ele>984.2</ele>
        <time>2020-11-15T15:58:56Z</time>
      </trkpt>
      <trkpt lat="-40.3104860" lon="-71.3819040">
        <ele>984.2</ele>
        <time>2020-11-15T15:58:57Z</time>
      </trkpt>
      <trkpt lat="-40.3104440" lon="-71.3819180">
        <ele>984.2</ele>
        <time>2020-11-15T15:58:58Z</time>
      </trkpt>
      <trkpt lat="-40.3104060" lon="-71.3819340">
        <ele>984.2</ele>
        <time>2020-11-15T15:58:59Z</time>
      </trkpt>
      <trkpt lat="-40.3103640" lon="-71.3819510">
        <ele>984.2</ele>
        <time>2020-11-15T15:59:00Z</time>
      </trkpt>
      <trkpt lat="-40.3103200" lon="-71.3819690">
        <ele>984.2</ele>
        <time>2020-11-15T15:59:01Z</time>
      </trkpt>
      <trkpt lat="-40.3102730" lon="-71.3819890">
        <ele>984.2</ele>
        <time>2020-11-15T15:59:02Z</time>
      </trkpt>
      <trkpt lat="-40.3102270" lon="-71.3820100">
        <ele>984.2</ele>
        <time>2020-11-15T15:59:03Z</time>
      </trkpt>
      <trkpt lat="-40.3101800" lon="-71.3820350">
        <ele>984.2</ele>
        <time>2020-11-15T15:59:04Z</time>
      </trkpt>
      <trkpt lat="-40.3101300" lon="-71.3820560">
        <ele>984.2</ele>
        <time>2020-11-15T15:59:05Z</time>
      </trkpt>
      <trkpt lat="-40.3100820" lon="-71.3820750">
        <ele>984.2</ele>
        <time>2020-11-15T15:59:06Z</time>
      </trkpt>
      <trkpt lat="-40.3100360" lon="-71.3820950">
        <ele>984.2</ele>
        <time>2020-11-15T15:59:07Z</time>
      </trkpt>
      <trkpt lat="-40.3099890" lon="-71.3821170">
        <ele>984.1</ele>
        <time>2020-11-15T15:59:08Z</time>
      </trkpt>
      <trkpt lat="-40.3099400" lon="-71.3821400">
        <ele>984.1</ele>
        <time>2020-11-15T15:59:09Z</time>
      </trkpt>
      <trkpt lat="-40.3098920" lon="-71.3821640">
        <ele>984.1</ele>
        <time>2020-11-15T15:59:10Z</time>
      </trkpt>
      <trkpt lat="-40.3098440" lon="-71.3821860">
        <ele>984.1</ele>
        <time>2020-11-15T15:59:11Z</time>
      </trkpt>
      <trkpt lat="-40.3097940" lon="-71.3822090">
        <ele>984.2</ele>
        <time>2020-11-15T15:59:12Z</time>
      </trkpt>
      <trkpt lat="-40.3097410" lon="-71.3822300">
        <ele>984.2</ele>
        <time>2020-11-15T15:59:13Z</time>
      </trkpt>
      <trkpt lat="-40.3096900" lon="-71.3822500">
        <ele>984.2</ele>
        <time>2020-11-15T15:59:14Z</time>
      </trkpt>
      <trkpt lat="-40.3096370" lon="-71.3822730">
        <ele>984.2</ele>
        <time>2020-11-15T15:59:15Z</time>
      </trkpt>
      <trkpt lat="-40.3095870" lon="-71.3822990">
        <ele>984.2</ele>
        <time>2020-11-15T15:59:16Z</time>
      </trkpt>
      <trkpt lat="-40.3095350" lon="-71.3823250">
        <ele>984.3</ele>
        <time>2020-11-15T15:59:17Z</time>
      </trkpt>
      <trkpt lat="-40.3094810" lon="-71.3823500">
        <ele>984.3</ele>
        <time>2020-11-15T15:59:18Z</time>
      </trkpt>
      <trkpt lat="-40.3094280" lon="-71.3823720">
        <ele>984.3</ele>
        <time>2020-11-15T15:59:19Z</time>
      </trkpt>
      <trkpt lat="-40.3093750" lon="-71.3823950">
        <ele>984.3</ele>
        <time>2020-11-15T15:59:20Z</time>
      </trkpt>
      <trkpt lat="-40.3093250" lon="-71.3824170">
        <ele>984.3</ele>
        <time>2020-11-15T15:59:21Z</time>
      </trkpt>
      <trkpt lat="-40.3092710" lon="-71.3824430">
        <ele>984.3</ele>
        <time>2020-11-15T15:59:22Z</time>
      </trkpt>
      <trkpt lat="-40.3092210" lon="-71.3824620">
        <ele>984.4</ele>
        <time>2020-11-15T15:59:23Z</time>
      </trkpt>
      <trkpt lat="-40.3091660" lon="-71.3824900">
        <ele>984.4</ele>
        <time>2020-11-15T15:59:24Z</time>
      </trkpt>
      <trkpt lat="-40.3091080" lon="-71.3825200">
        <ele>984.5</ele>
        <time>2020-11-15T15:59:25Z</time>
      </trkpt>
      <trkpt lat="-40.3090490" lon="-71.3825510">
        <ele>984.5</ele>
        <time>2020-11-15T15:59:26Z</time>
      </trkpt>
      <trkpt lat="-40.3089910" lon="-71.3825810">
        <ele>984.5</ele>
        <time>2020-11-15T15:59:27Z</time>
      </trkpt>
      <trkpt lat="-40.3089330" lon="-71.3826120">
        <ele>984.6</ele>
        <time>2020-11-15T15:59:28Z</time>
      </trkpt>
      <trkpt lat="-40.3088780" lon="-71.3826420">
        <ele>984.6</ele>
        <time>2020-11-15T15:59:29Z</time>
      </trkpt>
      <trkpt lat="-40.3088240" lon="-71.3826690">
        <ele>984.7</ele>
        <time>2020-11-15T15:59:30Z</time>
      </trkpt>
      <trkpt lat="-40.3087690" lon="-71.3826970">
        <ele>984.7</ele>
        <time>2020-11-15T15:59:31Z</time>
      </trkpt>
      <trkpt lat="-40.3087130" lon="-71.3827260">
        <ele>984.8</ele>
        <time>2020-11-15T15:59:32Z</time>
      </trkpt>
      <trkpt lat="-40.3086580" lon="-71.3827550">
        <ele>984.9</ele>
        <time>2020-11-15T15:59:33Z</time>
      </trkpt>
      <trkpt lat="-40.3086030" lon="-71.3827840">
        <ele>985.0</ele>
        <time>2020-11-15T15:59:34Z</time>
      </trkpt>
      <trkpt lat="-40.3085480" lon="-71.3828120">
        <ele>985.1</ele>
        <time>2020-11-15T15:59:35Z</time>
      </trkpt>
      <trkpt lat="-40.3084950" lon="-71.3828370">
        <ele>985.3</ele>
        <time>2020-11-15T15:59:36Z</time>
      </trkpt>
      <trkpt lat="-40.3084440" lon="-71.3828630">
        <ele>985.5</ele>
        <time>2020-11-15T15:59:37Z</time>
      </trkpt>
      <trkpt lat="-40.3083930" lon="-71.3828900">
        <ele>985.7</ele>
        <time>2020-11-15T15:59:38Z</time>
      </trkpt>
      <trkpt lat="-40.3083450" lon="-71.3829140">
        <ele>985.9</ele>
        <time>2020-11-15T15:59:39Z</time>
      </trkpt>
      <trkpt lat="-40.3082990" lon="-71.3829370">
        <ele>986.1</ele>
        <time>2020-11-15T15:59:40Z</time>
      </trkpt>
      <trkpt lat="-40.3082550" lon="-71.3829570">
        <ele>986.3</ele>
        <time>2020-11-15T15:59:41Z</time>
      </trkpt>
      <trkpt lat="-40.3082120" lon="-71.3829780">
        <ele>986.5</ele>
        <time>2020-11-15T15:59:42Z</time>
      </trkpt>
      <trkpt lat="-40.3081710" lon="-71.3830000">
        <ele>986.7</ele>
        <time>2020-11-15T15:59:43Z</time>
      </trkpt>
      <trkpt lat="-40.3081310" lon="-71.3830240">
        <ele>986.9</ele>
        <time>2020-11-15T15:59:44Z</time>
      </trkpt>
      <trkpt lat="-40.3080930" lon="-71.3830450">
        <ele>987.1</ele>
        <time>2020-11-15T15:59:45Z</time>
      </trkpt>
      <trkpt lat="-40.3080550" lon="-71.3830680">
        <ele>987.3</ele>
        <time>2020-11-15T15:59:46Z</time>
      </trkpt>
      <trkpt lat="-40.3080150" lon="-71.3830890">
        <ele>987.6</ele>
        <time>2020-11-15T15:59:47Z</time>
      </trkpt>
      <trkpt lat="-40.3079760" lon="-71.3831130">
        <ele>987.9</ele>
        <time>2020-11-15T15:59:48Z</time>
      </trkpt>
      <trkpt lat="-40.3079360" lon="-71.3831340">
        <ele>988.1</ele>
        <time>2020-11-15T15:59:49Z</time>
      </trkpt>
      <trkpt lat="-40.3078970" lon="-71.3831550">
        <ele>988.4</ele>
        <time>2020-11-15T15:59:50Z</time>
      </trkpt>
      <trkpt lat="-40.3078590" lon="-71.3831720">
        <ele>988.6</ele>
        <time>2020-11-15T15:59:51Z</time>
      </trkpt>
      <trkpt lat="-40.3078220" lon="-71.3831930">
        <ele>988.9</ele>
        <time>2020-11-15T15:59:52Z</time>
      </trkpt>
      <trkpt lat="-40.3077870" lon="-71.3832120">
        <ele>989.1</ele>
        <time>2020-11-15T15:59:53Z</time>
      </trkpt>
      <trkpt lat="-40.3077530" lon="-71.3832300">
        <ele>989.3</ele>
        <time>2020-11-15T15:59:54Z</time>
      </trkpt>
      <trkpt lat="-40.3077150" lon="-71.3832520">
        <ele>989.5</ele>
        <time>2020-11-15T15:59:55Z</time>
      </trkpt>
      <trkpt lat="-40.3076810" lon="-71.3832720">
        <ele>989.7</ele>
        <time>2020-11-15T15:59:56Z</time>
      </trkpt>
      <trkpt lat="-40.3076460" lon="-71.3832940">
        <ele>989.9</ele>
        <time>2020-11-15T15:59:57Z</time>
      </trkpt>
      <trkpt lat="-40.3076110" lon="-71.3833130">
        <ele>990.1</ele>
        <time>2020-11-15T15:59:58Z</time>
      </trkpt>
      <trkpt lat="-40.3075770" lon="-71.3833310">
        <ele>990.3</ele>
        <time>2020-11-15T15:59:59Z</time>
      </trkpt>
      <trkpt lat="-40.3075440" lon="-71.3833470">
        <ele>990.5</ele>
        <time>2020-11-15T16:00:00Z</time>
      </trkpt>
      <trkpt lat="-40.3075100" lon="-71.3833620">
        <ele>990.7</ele>
        <time>2020-11-15T16:00:01Z</time>
      </trkpt>
      <trkpt lat="-40.3074760" lon="-71.3833810">
        <ele>991.0</ele>
        <time>2020-11-15T16:00:02Z</time>
      </trkpt>
      <trkpt lat="-40.3074400" lon="-71.3833990">
        <ele>991.2</ele>
        <time>2020-11-15T16:00:03Z</time>
      </trkpt>
      <trkpt lat="-40.3074060" lon="-71.3834180">
        <ele>991.4</ele>
        <time>2020-11-15T16:00:04Z</time>
      </trkpt>
      <trkpt lat="-40.3073720" lon="-71.3834410">
        <ele>991.6</ele>
        <time>2020-11-15T16:00:05Z</time>
      </trkpt>
      <trkpt lat="-40.3073380" lon="-71.3834610">
        <ele>991.9</ele>
        <time>2020-11-15T16:00:06Z</time>
      </trkpt>
      <trkpt lat="-40.3073030" lon="-71.3834810">
        <ele>992.1</ele>
        <time>2020-11-15T16:00:07Z</time>
      </trkpt>
      <trkpt lat="-40.3072690" lon="-71.3835000">
        <ele>992.3</ele>
        <time>2020-11-15T16:00:08Z</time>
      </trkpt>
      <trkpt lat="-40.3072380" lon="-71.3835200">
        <ele>992.5</ele>
        <time>2020-11-15T16:00:09Z</time>
      </trkpt>
      <trkpt lat="-40.3072070" lon="-71.3835440">
        <ele>992.8</ele>
        <time>2020-11-15T16:00:10Z</time>
      </trkpt>
      <trkpt lat="-40.3071730" lon="-71.3835680">
        <ele>993.0</ele>
        <time>2020-11-15T16:00:11Z</time>
      </trkpt>
      <trkpt lat="-40.3071390" lon="-71.3835890">
        <ele>993.2</ele>
        <time>2020-11-15T16:00:12Z</time>
      </trkpt>
      <trkpt lat="-40.3071050" lon="-71.3836140">
        <ele>993.4</ele>
        <time>2020-11-15T16:00:13Z</time>
      </trkpt>
      <trkpt lat="-40.3070730" lon="-71.3836420">
        <ele>993.6</ele>
        <time>2020-11-15T16:00:14Z</time>
      </trkpt>
      <trkpt lat="-40.3070420" lon="-71.3836680">
        <ele>993.9</ele>
        <time>2020-11-15T16:00:15Z</time>
      </trkpt>
      <trkpt lat="-40.3070100" lon="-71.3836890">
        <ele>994.0</ele>
        <time>2020-11-15T16:00:16Z</time>
      </trkpt>
      <trkpt lat="-40.3069770" lon="-71.3837060">
        <ele>994.2</ele>
        <time>2020-11-15T16:00:17Z</time>
      </trkpt>
      <trkpt lat="-40.3069470" lon="-71.3837250">
        <ele>994.4</ele>
        <time>2020-11-15T16:00:18Z</time>
      </trkpt>
      <trkpt lat="-40.3069180" lon="-71.3837450">
        <ele>994.6</ele>
        <time>2020-11-15T16:00:19Z</time>
      </trkpt>
      <trkpt lat="-40.3068870" lon="-71.3837680">
        <ele>994.8</ele>
        <time>2020-11-15T16:00:20Z</time>
      </trkpt>
      <trkpt lat="-40.3068550" lon="-71.3837890">
        <ele>995.0</ele>
        <time>2020-11-15T16:00:21Z</time>
      </trkpt>
      <trkpt lat="-40.3068230" lon="-71.3838090">
        <ele>995.2</ele>
        <time>2020-11-15T16:00:22Z</time>
      </trkpt>
      <trkpt lat="-40.3067910" lon="-71.3838300">
        <ele>995.4</ele>
        <time>2020-11-15T16:00:23Z</time>
      </trkpt>
      <trkpt lat="-40.3067610" lon="-71.3838540">
        <ele>995.6</ele>
        <time>2020-11-15T16:00:24Z</time>
      </trkpt>
      <trkpt lat="-40.3067320" lon="-71.3838780">
        <ele>995.8</ele>
        <time>2020-11-15T16:00:25Z</time>
      </trkpt>
      <trkpt lat="-40.3067020" lon="-71.3839020">
        <ele>996.0</ele>
        <time>2020-11-15T16:00:26Z</time>
      </trkpt>
      <trkpt lat="-40.3066730" lon="-71.3839260">
        <ele>996.2</ele>
        <time>2020-11-15T16:00:27Z</time>
      </trkpt>
      <trkpt lat="-40.3066440" lon="-71.3839490">
        <ele>996.4</ele>
        <time>2020-11-15T16:00:28Z</time>
      </trkpt>
      <trkpt lat="-40.3066150" lon="-71.3839770">
        <ele>996.6</ele>
        <time>2020-11-15T16:00:29Z</time>
      </trkpt>
      <trkpt lat="-40.3065860" lon="-71.3840020">
        <ele>996.8</ele>
        <time>2020-11-15T16:00:30Z</time>
      </trkpt>
      <trkpt lat="-40.3065570" lon="-71.3840250">
        <ele>997.0</ele>
        <time>2020-11-15T16:00:31Z</time>
      </trkpt>
      <trkpt lat="-40.3065270" lon="-71.3840550">
        <ele>997.2</ele>
        <time>2020-11-15T16:00:32Z</time>
      </trkpt>
      <trkpt lat="-40.3064990" lon="-71.3840830">
        <ele>997.4</ele>
        <time>2020-11-15T16:00:33Z</time>
      </trkpt>
      <trkpt lat="-40.3064720" lon="-71.3841120">
        <ele>997.6</ele>
        <time>2020-11-15T16:00:34Z</time>
      </trkpt>
      <trkpt lat="-40.3064440" lon="-71.3841400">
        <ele>997.7</ele>
        <time>2020-11-15T16:00:35Z</time>
      </trkpt>
      <trkpt lat="-40.3064150" lon="-71.3841660">
        <ele>997.9</ele>
        <time>2020-11-15T16:00:36Z</time>
      </trkpt>
      <trkpt lat="-40.3063870" lon="-71.3841910">
        <ele>998.1</ele>
        <time>2020-11-15T16:00:37Z</time>
      </trkpt>
      <trkpt lat="-40.3063600" lon="-71.3842150">
        <ele>998.3</ele>
        <time>2020-11-15T16:00:38Z</time>
      </trkpt>
      <trkpt lat="-40.3063340" lon="-71.3842400">
        <ele>998.4</ele>
        <time>2020-11-15T16:00:39Z</time>
      </trkpt>
      <trkpt lat="-40.3063060" lon="-71.3842690">
        <ele>998.6</ele>
        <time>2020-11-15T16:00:40Z</time>
      </trkpt>
      <trkpt lat="-40.3062770" lon="-71.3842950">
        <ele>998.8</ele>
        <time>2020-11-15T16:00:41Z</time>
      </trkpt>
      <trkpt lat="-40.3062470" lon="-71.3843220">
        <ele>999.0</ele>
        <time>2020-11-15T16:00:42Z</time>
      </trkpt>
      <trkpt lat="-40.3062170" lon="-71.3843510">
        <ele>999.2</ele>
        <time>2020-11-15T16:00:43Z</time>
      </trkpt>
      <trkpt lat="-40.3061870" lon="-71.3843800">
        <ele>999.4</ele>
        <time>2020-11-15T16:00:44Z</time>
      </trkpt>
      <trkpt lat="-40.3061580" lon="-71.3844060">
        <ele>999.6</ele>
        <time>2020-11-15T16:00:45Z</time>
      </trkpt>
      <trkpt lat="-40.3061280" lon="-71.3844330">
        <ele>999.8</ele>
        <time>2020-11-15T16:00:46Z</time>
      </trkpt>
      <trkpt lat="-40.3060990" lon="-71.3844590">
        <ele>1000.0</ele>
        <time>2020-11-15T16:00:47Z</time>
      </trkpt>
      <trkpt lat="-40.3060690" lon="-71.3844860">
        <ele>1000.2</ele>
        <time>2020-11-15T16:00:48Z</time>
      </trkpt>
      <trkpt lat="-40.3060390" lon="-71.3845120">
        <ele>1000.4</ele>
        <time>2020-11-15T16:00:49Z</time>
      </trkpt>
      <trkpt lat="-40.3060090" lon="-71.3845380">
        <ele>1000.6</ele>
        <time>2020-11-15T16:00:50Z</time>
      </trkpt>
      <trkpt lat="-40.3059790" lon="-71.3845640">
        <ele>1000.8</ele>
        <time>2020-11-15T16:00:51Z</time>
      </trkpt>
      <trkpt lat="-40.3059490" lon="-71.3845880">
        <ele>1001.0</ele>
        <time>2020-11-15T16:00:52Z</time>
      </trkpt>
      <trkpt lat="-40.3059180" lon="-71.3846120">
        <ele>1001.2</ele>
        <time>2020-11-15T16:00:53Z</time>
      </trkpt>
      <trkpt lat="-40.3058870" lon="-71.3846360">
        <ele>1001.4</ele>
        <time>2020-11-15T16:00:54Z</time>
      </trkpt>
      <trkpt lat="-40.3058560" lon="-71.3846610">
        <ele>1001.6</ele>
        <time>2020-11-15T16:00:55Z</time>
      </trkpt>
      <trkpt lat="-40.3058260" lon="-71.3846850">
        <ele>1001.8</ele>
        <time>2020-11-15T16:00:56Z</time>
      </trkpt>
      <trkpt lat="-40.3057950" lon="-71.3847090">
        <ele>1001.9</ele>
        <time>2020-11-15T16:00:57Z</time>
      </trkpt>
      <trkpt lat="-40.3057650" lon="-71.3847330">
        <ele>1002.1</ele>
        <time>2020-11-15T16:00:58Z</time>
      </trkpt>
      <trkpt lat="-40.3057330" lon="-71.3847560">
        <ele>1002.2</ele>
        <time>2020-11-15T16:00:59Z</time>
      </trkpt>
      <trkpt lat="-40.3057010" lon="-71.3847770">
        <ele>1002.4</ele>
        <time>2020-11-15T16:01:00Z</time>
      </trkpt>
      <trkpt lat="-40.3056680" lon="-71.3847990">
        <ele>1002.6</ele>
        <time>2020-11-15T16:01:01Z</time>
      </trkpt>
      <trkpt lat="-40.3056350" lon="-71.3848190">
        <ele>1002.7</ele>
        <time>2020-11-15T16:01:02Z</time>
      </trkpt>
      <trkpt lat="-40.3056030" lon="-71.3848380">
        <ele>1002.8</ele>
        <time>2020-11-15T16:01:03Z</time>
      </trkpt>
      <trkpt lat="-40.3055700" lon="-71.3848580">
        <ele>1003.0</ele>
        <time>2020-11-15T16:01:04Z</time>
      </trkpt>
      <trkpt lat="-40.3055360" lon="-71.3848770">
        <ele>1003.1</ele>
        <time>2020-11-15T16:01:05Z</time>
      </trkpt>
      <trkpt lat="-40.3055030" lon="-71.3848920">
        <ele>1003.2</ele>
        <time>2020-11-15T16:01:06Z</time>
      </trkpt>
      <trkpt lat="-40.3054690" lon="-71.3849070">
        <ele>1003.4</ele>
        <time>2020-11-15T16:01:07Z</time>
      </trkpt>
      <trkpt lat="-40.3054360" lon="-71.3849220">
        <ele>1003.5</ele>
        <time>2020-11-15T16:01:08Z</time>
      </trkpt>
      <trkpt lat="-40.3054000" lon="-71.3849380">
        <ele>1003.6</ele>
        <time>2020-11-15T16:01:09Z</time>
      </trkpt>
      <trkpt lat="-40.3053650" lon="-71.3849550">
        <ele>1003.7</ele>
        <time>2020-11-15T16:01:10Z</time>
      </trkpt>
      <trkpt lat="-40.3053300" lon="-71.3849710">
        <ele>1003.8</ele>
        <time>2020-11-15T16:01:11Z</time>
      </trkpt>
      <trkpt lat="-40.3052930" lon="-71.3849870">
        <ele>1004.0</ele>
        <time>2020-11-15T16:01:12Z</time>
      </trkpt>
      <trkpt lat="-40.3052540" lon="-71.3850030">
        <ele>1004.1</ele>
        <time>2020-11-15T16:01:13Z</time>
      </trkpt>
      <trkpt lat="-40.3052150" lon="-71.3850180">
        <ele>1004.2</ele>
        <time>2020-11-15T16:01:14Z</time>
      </trkpt>
      <trkpt lat="-40.3051770" lon="-71.3850300">
        <ele>1004.2</ele>
        <time>2020-11-15T16:01:15Z</time>
      </trkpt>
      <trkpt lat="-40.3051390" lon="-71.3850430">
        <ele>1004.3</ele>
        <time>2020-11-15T16:01:16Z</time>
      </trkpt>
      <trkpt lat="-40.3050990" lon="-71.3850540">
        <ele>1004.4</ele>
        <time>2020-11-15T16:01:17Z</time>
      </trkpt>
      <trkpt lat="-40.3050580" lon="-71.3850640">
        <ele>1004.5</ele>
        <time>2020-11-15T16:01:18Z</time>
      </trkpt>
      <trkpt lat="-40.3050170" lon="-71.3850710">
        <ele>1004.5</ele>
        <time>2020-11-15T16:01:19Z</time>
      </trkpt>
      <trkpt lat="-40.3049750" lon="-71.3850800">
        <ele>1004.6</ele>
        <time>2020-11-15T16:01:20Z</time>
      </trkpt>
      <trkpt lat="-40.3049330" lon="-71.3850920">
        <ele>1004.6</ele>
        <time>2020-11-15T16:01:21Z</time>
      </trkpt>
      <trkpt lat="-40.3048920" lon="-71.3851020">
        <ele>1004.7</ele>
        <time>2020-11-15T16:01:22Z</time>
      </trkpt>
      <trkpt lat="-40.3048490" lon="-71.3851110">
        <ele>1004.7</ele>
        <time>2020-11-15T16:01:23Z</time>
      </trkpt>
      <trkpt lat="-40.3048030" lon="-71.3851190">
        <ele>1004.7</ele>
        <time>2020-11-15T16:01:24Z</time>
      </trkpt>
      <trkpt lat="-40.3047540" lon="-71.3851230">
        <ele>1004.7</ele>
        <time>2020-11-15T16:01:25Z</time>
      </trkpt>
      <trkpt lat="-40.3047040" lon="-71.3851300">
        <ele>1004.6</ele>
        <time>2020-11-15T16:01:26Z</time>
      </trkpt>
      <trkpt lat="-40.3046520" lon="-71.3851350">
        <ele>1004.6</ele>
        <time>2020-11-15T16:01:27Z</time>
      </trkpt>
      <trkpt lat="-40.3046010" lon="-71.3851370">
        <ele>1004.5</ele>
        <time>2020-11-15T16:01:28Z</time>
      </trkpt>
      <trkpt lat="-40.3045500" lon="-71.3851390">
        <ele>1004.4</ele>
        <time>2020-11-15T16:01:29Z</time>
      </trkpt>
      <trkpt lat="-40.3044980" lon="-71.3851420">
        <ele>1004.3</ele>
        <time>2020-11-15T16:01:30Z</time>
      </trkpt>
      <trkpt lat="-40.3044440" lon="-71.3851430">
        <ele>1004.3</ele>
        <time>2020-11-15T16:01:31Z</time>
      </trkpt>
      <trkpt lat="-40.3043890" lon="-71.3851420">
        <ele>1004.1</ele>
        <time>2020-11-15T16:01:32Z</time>
      </trkpt>
      <trkpt lat="-40.3043330" lon="-71.3851430">
        <ele>1004.0</ele>
        <time>2020-11-15T16:01:33Z</time>
      </trkpt>
      <trkpt lat="-40.3042770" lon="-71.3851440">
        <ele>1003.9</ele>
        <time>2020-11-15T16:01:34Z</time>
      </trkpt>
      <trkpt lat="-40.3042200" lon="-71.3851460">
        <ele>1003.8</ele>
        <time>2020-11-15T16:01:35Z</time>
      </trkpt>
      <trkpt lat="-40.3041630" lon="-71.3851470">
        <ele>1003.6</ele>
        <time>2020-11-15T16:01:36Z</time>
      </trkpt>
      <trkpt lat="-40.3041050" lon="-71.3851490">
        <ele>1003.5</ele>
        <time>2020-11-15T16:01:37Z</time>
      </trkpt>
      <trkpt lat="-40.3040450" lon="-71.3851490">
        <ele>1003.5</ele>
        <time>2020-11-15T16:01:38Z</time>
      </trkpt>
      <trkpt lat="-40.3039860" lon="-71.3851490">
        <ele>1003.4</ele>
        <time>2020-11-15T16:01:39Z</time>
      </trkpt>
      <trkpt lat="-40.3039240" lon="-71.3851570">
        <ele>1003.3</ele>
        <time>2020-11-15T16:01:40Z</time>
      </trkpt>
      <trkpt lat="-40.3038610" lon="-71.3851670">
        <ele>1003.2</ele>
        <time>2020-11-15T16:01:41Z</time>
      </trkpt>
      <trkpt lat="-40.3038000" lon="-71.3851800">
        <ele>1003.1</ele>
        <time>2020-11-15T16:01:42Z</time>
      </trkpt>
      <trkpt lat="-40.3037400" lon="-71.3851940">
        <ele>1003.0</ele>
        <time>2020-11-15T16:01:43Z</time>
      </trkpt>
      <trkpt lat="-40.3036780" lon="-71.3852160">
        <ele>1002.8</ele>
        <time>2020-11-15T16:01:44Z</time>
      </trkpt>
      <trkpt lat="-40.3036190" lon="-71.3852360">
        <ele>1002.8</ele>
        <time>2020-11-15T16:01:45Z</time>
      </trkpt>
      <trkpt lat="-40.3035600" lon="-71.3852610">
        <ele>1002.7</ele>
        <time>2020-11-15T16:01:46Z</time>
      </trkpt>
      <trkpt lat="-40.3035050" lon="-71.3852870">
        <ele>1002.7</ele>
        <time>2020-11-15T16:01:47Z</time>
      </trkpt>
      <trkpt lat="-40.3034540" lon="-71.3853170">
        <ele>1002.8</ele>
        <time>2020-11-15T16:01:48Z</time>
      </trkpt>
      <trkpt lat="-40.3034020" lon="-71.3853590">
        <ele>1002.8</ele>
        <time>2020-11-15T16:01:49Z</time>
      </trkpt>
      <trkpt lat="-40.3033510" lon="-71.3854110">
        <ele>1002.9</ele>
        <time>2020-11-15T16:01:50Z</time>
      </trkpt>
      <trkpt lat="-40.3033030" lon="-71.3854590">
        <ele>1003.0</ele>
        <time>2020-11-15T16:01:51Z</time>
      </trkpt>
      <trkpt lat="-40.3032590" lon="-71.3855100">
        <ele>1003.2</ele>
        <time>2020-11-15T16:01:52Z</time>
      </trkpt>
      <trkpt lat="-40.3032180" lon="-71.3855600">
        <ele>1003.3</ele>
        <time>2020-11-15T16:01:53Z</time>
      </trkpt>
      <trkpt lat="-40.3031760" lon="-71.3856130">
        <ele>1003.5</ele>
        <time>2020-11-15T16:01:54Z</time>
      </trkpt>
      <trkpt lat="-40.3031360" lon="-71.3856650">
        <ele>1003.7</ele>
        <time>2020-11-15T16:01:55Z</time>
      </trkpt>
      <trkpt lat="-40.3030960" lon="-71.3857190">
        <ele>1004.0</ele>
        <time>2020-11-15T16:01:56Z</time>
      </trkpt>
      <trkpt lat="-40.3030600" lon="-71.3857710">
        <ele>1004.2</ele>
        <time>2020-11-15T16:01:57Z</time>
      </trkpt>
      <trkpt lat="-40.3030260" lon="-71.3858240">
        <ele>1004.4</ele>
        <time>2020-11-15T16:01:58Z</time>
      </trkpt>
      <trkpt lat="-40.3029930" lon="-71.3858750">
        <ele>1004.7</ele>
        <time>2020-11-15T16:01:59Z</time>
      </trkpt>
      <trkpt lat="-40.3029570" lon="-71.3859320">
        <ele>1004.9</ele>
        <time>2020-11-15T16:02:00Z</time>
      </trkpt>
      <trkpt lat="-40.3029200" lon="-71.3859820">
        <ele>1005.2</ele>
        <time>2020-11-15T16:02:01Z</time>
      </trkpt>
      <trkpt lat="-40.3028850" lon="-71.3860310">
        <ele>1005.4</ele>
        <time>2020-11-15T16:02:02Z</time>
      </trkpt>
      <trkpt lat="-40.3028510" lon="-71.3860810">
        <ele>1005.7</ele>
        <time>2020-11-15T16:02:03Z</time>
      </trkpt>
      <trkpt lat="-40.3028180" lon="-71.3861310">
        <ele>1005.9</ele>
        <time>2020-11-15T16:02:04Z</time>
      </trkpt>
      <trkpt lat="-40.3027850" lon="-71.3861860">
        <ele>1006.2</ele>
        <time>2020-11-15T16:02:05Z</time>
      </trkpt>
      <trkpt lat="-40.3027510" lon="-71.3862380">
        <ele>1006.4</ele>
        <time>2020-11-15T16:02:06Z</time>
      </trkpt>
      <trkpt lat="-40.3027170" lon="-71.3862870">
        <ele>1006.7</ele>
        <time>2020-11-15T16:02:07Z</time>
      </trkpt>
      <trkpt lat="-40.3026830" lon="-71.3863340">
        <ele>1007.0</ele>
        <time>2020-11-15T16:02:08Z</time>
      </trkpt>
      <trkpt lat="-40.3026490" lon="-71.3863790">
        <ele>1007.2</ele>
        <time>2020-11-15T16:02:09Z</time>
      </trkpt>
      <trkpt lat="-40.3026170" lon="-71.3864260">
        <ele>1007.5</ele>
        <time>2020-11-15T16:02:10Z</time>
      </trkpt>
      <trkpt lat="-40.3025890" lon="-71.3864710">
        <ele>1007.7</ele>
        <time>2020-11-15T16:02:11Z</time>
      </trkpt>
      <trkpt lat="-40.3025610" lon="-71.3865160">
        <ele>1008.0</ele>
        <time>2020-11-15T16:02:12Z</time>
      </trkpt>
      <trkpt lat="-40.3025310" lon="-71.3865590">
        <ele>1008.2</ele>
        <time>2020-11-15T16:02:13Z</time>
      </trkpt>
      <trkpt lat="-40.3025010" lon="-71.3865980">
        <ele>1008.4</ele>
        <time>2020-11-15T16:02:14Z</time>
      </trkpt>
      <trkpt lat="-40.3024730" lon="-71.3866410">
        <ele>1008.6</ele>
        <time>2020-11-15T16:02:15Z</time>
      </trkpt>
      <trkpt lat="-40.3024440" lon="-71.3866820">
        <ele>1008.8</ele>
        <time>2020-11-15T16:02:16Z</time>
      </trkpt>
      <trkpt lat="-40.3024160" lon="-71.3867230">
        <ele>1009.0</ele>
        <time>2020-11-15T16:02:17Z</time>
      </trkpt>
      <trkpt lat="-40.3023880" lon="-71.3867630">
        <ele>1009.2</ele>
        <time>2020-11-15T16:02:18Z</time>
      </trkpt>
      <trkpt lat="-40.3023590" lon="-71.3868020">
        <ele>1009.5</ele>
        <time>2020-11-15T16:02:19Z</time>
      </trkpt>
      <trkpt lat="-40.3023310" lon="-71.3868410">
        <ele>1009.7</ele>
        <time>2020-11-15T16:02:20Z</time>
      </trkpt>
      <trkpt lat="-40.3023010" lon="-71.3868780">
        <ele>1009.9</ele>
        <time>2020-11-15T16:02:21Z</time>
      </trkpt>
      <trkpt lat="-40.3022670" lon="-71.3869130">
        <ele>1010.1</ele>
        <time>2020-11-15T16:02:22Z</time>
      </trkpt>
      <trkpt lat="-40.3022370" lon="-71.3869480">
        <ele>1010.4</ele>
        <time>2020-11-15T16:02:23Z</time>
      </trkpt>
      <trkpt lat="-40.3022060" lon="-71.3869840">
        <ele>1010.6</ele>
        <time>2020-11-15T16:02:24Z</time>
      </trkpt>
      <trkpt lat="-40.3021770" lon="-71.3870200">
        <ele>1010.9</ele>
        <time>2020-11-15T16:02:25Z</time>
      </trkpt>
      <trkpt lat="-40.3021480" lon="-71.3870560">
        <ele>1011.2</ele>
        <time>2020-11-15T16:02:26Z</time>
      </trkpt>
      <trkpt lat="-40.3021180" lon="-71.3870890">
        <ele>1011.4</ele>
        <time>2020-11-15T16:02:27Z</time>
      </trkpt>
      <trkpt lat="-40.3020850" lon="-71.3871200">
        <ele>1011.7</ele>
        <time>2020-11-15T16:02:28Z</time>
      </trkpt>
      <trkpt lat="-40.3020520" lon="-71.3871500">
        <ele>1011.9</ele>
        <time>2020-11-15T16:02:29Z</time>
      </trkpt>
      <trkpt lat="-40.3020210" lon="-71.3871780">
        <ele>1012.2</ele>
        <time>2020-11-15T16:02:30Z</time>
      </trkpt>
      <trkpt lat="-40.3019890" lon="-71.3872080">
        <ele>1012.4</ele>
        <time>2020-11-15T16:02:31Z</time>
      </trkpt>
      <trkpt lat="-40.3019540" lon="-71.3872350">
        <ele>1012.6</ele>
        <time>2020-11-15T16:02:32Z</time>
      </trkpt>
      <trkpt lat="-40.3019200" lon="-71.3872640">
        <ele>1012.9</ele>
        <time>2020-11-15T16:02:33Z</time>
      </trkpt>
      <trkpt lat="-40.3018870" lon="-71.3872930">
        <ele>1013.1</ele>
        <time>2020-11-15T16:02:34Z</time>
      </trkpt>
      <trkpt lat="-40.3018550" lon="-71.3873170">
        <ele>1013.4</ele>
        <time>2020-11-15T16:02:35Z</time>
      </trkpt>
      <trkpt lat="-40.3018220" lon="-71.3873410">
        <ele>1013.6</ele>
        <time>2020-11-15T16:02:36Z</time>
      </trkpt>
      <trkpt lat="-40.3017880" lon="-71.3873660">
        <ele>1013.9</ele>
        <time>2020-11-15T16:02:37Z</time>
      </trkpt>
      <trkpt lat="-40.3017550" lon="-71.3873910">
        <ele>1014.1</ele>
        <time>2020-11-15T16:02:38Z</time>
      </trkpt>
      <trkpt lat="-40.3017220" lon="-71.3874150">
        <ele>1014.4</ele>
        <time>2020-11-15T16:02:39Z</time>
      </trkpt>
      <trkpt lat="-40.3016880" lon="-71.3874370">
        <ele>1014.6</ele>
        <time>2020-11-15T16:02:40Z</time>
      </trkpt>
      <trkpt lat="-40.3016550" lon="-71.3874600">
        <ele>1014.9</ele>
        <time>2020-11-15T16:02:41Z</time>
      </trkpt>
      <trkpt lat="-40.3016220" lon="-71.3874840">
        <ele>1015.1</ele>
        <time>2020-11-15T16:02:42Z</time>
      </trkpt>
      <trkpt lat="-40.3015880" lon="-71.3875080">
        <ele>1015.4</ele>
        <time>2020-11-15T16:02:43Z</time>
      </trkpt>
      <trkpt lat="-40.3015550" lon="-71.3875280">
        <ele>1015.6</ele>
        <time>2020-11-15T16:02:44Z</time>
      </trkpt>
      <trkpt lat="-40.3015230" lon="-71.3875420">
        <ele>1015.8</ele>
        <time>2020-11-15T16:02:45Z</time>
      </trkpt>
      <trkpt lat="-40.3014880" lon="-71.3875600">
        <ele>1016.1</ele>
        <time>2020-11-15T16:02:46Z</time>
      </trkpt>
      <trkpt lat="-40.3014550" lon="-71.3875790">
        <ele>1016.2</ele>
        <time>2020-11-15T16:02:47Z</time>
      </trkpt>
      <trkpt lat="-40.3014230" lon="-71.3875910">
        <ele>1016.4</ele>
        <time>2020-11-15T16:02:48Z</time>
      </trkpt>
      <trkpt lat="-40.3013930" lon="-71.3876020">
        <ele>1016.6</ele>
        <time>2020-11-15T16:02:49Z</time>
      </trkpt>
      <trkpt lat="-40.3013620" lon="-71.3876180">
        <ele>1016.8</ele>
        <time>2020-11-15T16:02:50Z</time>
      </trkpt>
      <trkpt lat="-40.3013320" lon="-71.3876320">
        <ele>1017.0</ele>
        <time>2020-11-15T16:02:51Z</time>
      </trkpt>
      <trkpt lat="-40.3013000" lon="-71.3876430">
        <ele>1017.2</ele>
        <time>2020-11-15T16:02:52Z</time>
      </trkpt>
      <trkpt lat="-40.3012710" lon="-71.3876550">
        <ele>1017.4</ele>
        <time>2020-11-15T16:02:53Z</time>
      </trkpt>
      <trkpt lat="-40.3012420" lon="-71.3876690">
        <ele>1017.6</ele>
        <time>2020-11-15T16:02:54Z</time>
      </trkpt>
      <trkpt lat="-40.3012130" lon="-71.3876830">
        <ele>1017.8</ele>
        <time>2020-11-15T16:02:55Z</time>
      </trkpt>
      <trkpt lat="-40.3011830" lon="-71.3876940">
        <ele>1018.0</ele>
        <time>2020-11-15T16:02:56Z</time>
      </trkpt>
      <trkpt lat="-40.3011520" lon="-71.3877100">
        <ele>1018.2</ele>
        <time>2020-11-15T16:02:57Z</time>
      </trkpt>
      <trkpt lat="-40.3011190" lon="-71.3877270">
        <ele>1018.5</ele>
        <time>2020-11-15T16:02:58Z</time>
      </trkpt>
      <trkpt lat="-40.3010870" lon="-71.3877410">
        <ele>1018.7</ele>
        <time>2020-11-15T16:02:59Z</time>
      </trkpt>
      <trkpt lat="-40.3010550" lon="-71.3877540">
        <ele>1018.9</ele>
        <time>2020-11-15T16:03:00Z</time>
      </trkpt>
      <trkpt lat="-40.3010220" lon="-71.3877680">
        <ele>1019.1</ele>
        <time>2020-11-15T16:03:01Z</time>
      </trkpt>
      <trkpt lat="-40.3009910" lon="-71.3877790">
        <ele>1019.3</ele>
        <time>2020-11-15T16:03:02Z</time>
      </trkpt>
      <trkpt lat="-40.3009600" lon="-71.3877950">
        <ele>1019.5</ele>
        <time>2020-11-15T16:03:03Z</time>
      </trkpt>
      <trkpt lat="-40.3009290" lon="-71.3878090">
        <ele>1019.7</ele>
        <time>2020-11-15T16:03:04Z</time>
      </trkpt>
      <trkpt lat="-40.3008970" lon="-71.3878210">
        <ele>1019.9</ele>
        <time>2020-11-15T16:03:05Z</time>
      </trkpt>
      <trkpt lat="-40.3008660" lon="-71.3878370">
        <ele>1020.1</ele>
        <time>2020-11-15T16:03:06Z</time>
      </trkpt>
      <trkpt lat="-40.3008380" lon="-71.3878470">
        <ele>1020.3</ele>
        <time>2020-11-15T16:03:07Z</time>
      </trkpt>
      <trkpt lat="-40.3008070" lon="-71.3878640">
        <ele>1020.5</ele>
        <time>2020-11-15T16:03:08Z</time>
      </trkpt>
      <trkpt lat="-40.3007770" lon="-71.3878800">
        <ele>1020.7</ele>
        <time>2020-11-15T16:03:09Z</time>
      </trkpt>
      <trkpt lat="-40.3007490" lon="-71.3878970">
        <ele>1020.9</ele>
        <time>2020-11-15T16:03:10Z</time>
      </trkpt>
      <trkpt lat="-40.3007200" lon="-71.3879140">
        <ele>1021.1</ele>
        <time>2020-11-15T16:03:11Z</time>
      </trkpt>
      <trkpt lat="-40.3006900" lon="-71.3879310">
        <ele>1021.3</ele>
        <time>2020-11-15T16:03:12Z</time>
      </trkpt>
      <trkpt lat="-40.3006580" lon="-71.3879470">
        <ele>1021.5</ele>
        <time>2020-11-15T16:03:13Z</time>
      </trkpt>
      <trkpt lat="-40.3006260" lon="-71.3879650">
        <ele>1021.7</ele>
        <time>2020-11-15T16:03:14Z</time>
      </trkpt>
      <trkpt lat="-40.3005960" lon="-71.3879800">
        <ele>1021.9</ele>
        <time>2020-11-15T16:03:15Z</time>
      </trkpt>
      <trkpt lat="-40.3005650" lon="-71.3879940">
        <ele>1022.1</ele>
        <time>2020-11-15T16:03:16Z</time>
      </trkpt>
      <trkpt lat="-40.3005350" lon="-71.3880040">
        <ele>1022.2</ele>
        <time>2020-11-15T16:03:17Z</time>
      </trkpt>
      <trkpt lat="-40.3005050" lon="-71.3880180">
        <ele>1022.4</ele>
        <time>2020-11-15T16:03:18Z</time>
      </trkpt>
      <trkpt lat="-40.3004790" lon="-71.3880300">
        <ele>1022.6</ele>
        <time>2020-11-15T16:03:19Z</time>
      </trkpt>
      <trkpt lat="-40.3004500" lon="-71.3880460">
        <ele>1022.8</ele>
        <time>2020-11-15T16:03:20Z</time>
      </trkpt>
      <trkpt lat="-40.3004210" lon="-71.3880570">
        <ele>1023.0</ele>
        <time>2020-11-15T16:03:21Z</time>
      </trkpt>
      <trkpt lat="-40.3003910" lon="-71.3880720">
        <ele>1023.2</ele>
        <time>2020-11-15T16:03:22Z</time>
      </trkpt>
      <trkpt lat="-40.3003610" lon="-71.3880870">
        <ele>1023.4</ele>
        <time>2020-11-15T16:03:23Z</time>
      </trkpt>
      <trkpt lat="-40.3003310" lon="-71.3881040">
        <ele>1023.6</ele>
        <time>2020-11-15T16:03:24Z</time>
      </trkpt>
      <trkpt lat="-40.3003000" lon="-71.3881140">
        <ele>1023.8</ele>
        <time>2020-11-15T16:03:25Z</time>
      </trkpt>
      <trkpt lat="-40.3002690" lon="-71.3881260">
        <ele>1024.0</ele>
        <time>2020-11-15T16:03:26Z</time>
      </trkpt>
      <trkpt lat="-40.3002390" lon="-71.3881380">
        <ele>1024.1</ele>
        <time>2020-11-15T16:03:27Z</time>
      </trkpt>
      <trkpt lat="-40.3002080" lon="-71.3881520">
        <ele>1024.3</ele>
        <time>2020-11-15T16:03:28Z</time>
      </trkpt>
      <trkpt lat="-40.3001770" lon="-71.3881650">
        <ele>1024.5</ele>
        <time>2020-11-15T16:03:29Z</time>
      </trkpt>
      <trkpt lat="-40.3001470" lon="-71.3881750">
        <ele>1024.6</ele>
        <time>2020-11-15T16:03:30Z</time>
      </trkpt>
      <trkpt lat="-40.3001140" lon="-71.3881920">
        <ele>1024.8</ele>
        <time>2020-11-15T16:03:31Z</time>
      </trkpt>
      <trkpt lat="-40.3000810" lon="-71.3882050">
        <ele>1025.0</ele>
        <time>2020-11-15T16:03:32Z</time>
      </trkpt>
      <trkpt lat="-40.3000480" lon="-71.3882180">
        <ele>1025.1</ele>
        <time>2020-11-15T16:03:33Z</time>
      </trkpt>
      <trkpt lat="-40.3000150" lon="-71.3882280">
        <ele>1025.2</ele>
        <time>2020-11-15T16:03:34Z</time>
      </trkpt>
      <trkpt lat="-40.2999830" lon="-71.3882370">
        <ele>1025.4</ele>
        <time>2020-11-15T16:03:35Z</time>
      </trkpt>
      <trkpt lat="-40.2999510" lon="-71.3882440">
        <ele>1025.5</ele>
        <time>2020-11-15T16:03:36Z</time>
      </trkpt>
      <trkpt lat="-40.2999200" lon="-71.3882490">
        <ele>1025.6</ele>
        <time>2020-11-15T16:03:37Z</time>
      </trkpt>
      <trkpt lat="-40.2998890" lon="-71.3882530">
        <ele>1025.7</ele>
        <time>2020-11-15T16:03:38Z</time>
      </trkpt>
      <trkpt lat="-40.2998560" lon="-71.3882580">
        <ele>1025.8</ele>
        <time>2020-11-15T16:03:39Z</time>
      </trkpt>
      <trkpt lat="-40.2998220" lon="-71.3882600">
        <ele>1025.9</ele>
        <time>2020-11-15T16:03:40Z</time>
      </trkpt>
      <trkpt lat="-40.2997880" lon="-71.3882600">
        <ele>1026.0</ele>
        <time>2020-11-15T16:03:41Z</time>
      </trkpt>
      <trkpt lat="-40.2997550" lon="-71.3882570">
        <ele>1026.0</ele>
        <time>2020-11-15T16:03:42Z</time>
      </trkpt>
      <trkpt lat="-40.2997220" lon="-71.3882550">
        <ele>1026.1</ele>
        <time>2020-11-15T16:03:43Z</time>
      </trkpt>
      <trkpt lat="-40.2996870" lon="-71.3882530">
        <ele>1026.2</ele>
        <time>2020-11-15T16:03:44Z</time>
      </trkpt>
      <trkpt lat="-40.2996530" lon="-71.3882480">
        <ele>1026.2</ele>
        <time>2020-11-15T16:03:45Z</time>
      </trkpt>
      <trkpt lat="-40.2996170" lon="-71.3882420">
        <ele>1026.2</ele>
        <time>2020-11-15T16:03:46Z</time>
      </trkpt>
      <trkpt lat="-40.2995820" lon="-71.3882330">
        <ele>1026.3</ele>
        <time>2020-11-15T16:03:47Z</time>
      </trkpt>
      <trkpt lat="-40.2995480" lon="-71.3882200">
        <ele>1026.3</ele>
        <time>2020-11-15T16:03:48Z</time>
      </trkpt>
      <trkpt lat="-40.2995150" lon="-71.3882020">
        <ele>1026.3</ele>
        <time>2020-11-15T16:03:49Z</time>
      </trkpt>
      <trkpt lat="-40.2994800" lon="-71.3881830">
        <ele>1026.4</ele>
        <time>2020-11-15T16:03:50Z</time>
      </trkpt>
      <trkpt lat="-40.2994460" lon="-71.3881670">
        <ele>1026.4</ele>
        <time>2020-11-15T16:03:51Z</time>
      </trkpt>
      <trkpt lat="-40.2994090" lon="-71.3881490">
        <ele>1026.4</ele>
        <time>2020-11-15T16:03:52Z</time>
      </trkpt>
      <trkpt lat="-40.2993760" lon="-71.3881290">
        <ele>1026.4</ele>
        <time>2020-11-15T16:03:53Z</time>
      </trkpt>
      <trkpt lat="-40.2993420" lon="-71.3881120">
        <ele>1026.4</ele>
        <time>2020-11-15T16:03:54Z</time>
      </trkpt>
      <trkpt lat="-40.2993080" lon="-71.3880900">
        <ele>1026.5</ele>
        <time>2020-11-15T16:03:55Z</time>
      </trkpt>
      <trkpt lat="-40.2992750" lon="-71.3880660">
        <ele>1026.5</ele>
        <time>2020-11-15T16:03:56Z</time>
      </trkpt>
      <trkpt lat="-40.2992410" lon="-71.3880430">
        <ele>1026.5</ele>
        <time>2020-11-15T16:03:57Z</time>
      </trkpt>
      <trkpt lat="-40.2992070" lon="-71.3880180">
        <ele>1026.5</ele>
        <time>2020-11-15T16:03:58Z</time>
      </trkpt>
      <trkpt lat="-40.2991750" lon="-71.3879900">
        <ele>1026.6</ele>
        <time>2020-11-15T16:03:59Z</time>
      </trkpt>
      <trkpt lat="-40.2991440" lon="-71.3879600">
        <ele>1026.6</ele>
        <time>2020-11-15T16:04:00Z</time>
      </trkpt>
      <trkpt lat="-40.2991120" lon="-71.3879310">
        <ele>1026.7</ele>
        <time>2020-11-15T16:04:01Z</time>
      </trkpt>
      <trkpt lat="-40.2990800" lon="-71.3879030">
        <ele>1026.7</ele>
        <time>2020-11-15T16:04:02Z</time>
      </trkpt>
      <trkpt lat="-40.2990490" lon="-71.3878730">
        <ele>1026.8</ele>
        <time>2020-11-15T16:04:03Z</time>
      </trkpt>
      <trkpt lat="-40.2990210" lon="-71.3878410">
        <ele>1026.8</ele>
        <time>2020-11-15T16:04:04Z</time>
      </trkpt>
      <trkpt lat="-40.2989920" lon="-71.3878090">
        <ele>1026.9</ele>
        <time>2020-11-15T16:04:05Z</time>
      </trkpt>
      <trkpt lat="-40.2989650" lon="-71.3877760">
        <ele>1027.0</ele>
        <time>2020-11-15T16:04:06Z</time>
      </trkpt>
      <trkpt lat="-40.2989400" lon="-71.3877400">
        <ele>1027.1</ele>
        <time>2020-11-15T16:04:07Z</time>
      </trkpt>
      <trkpt lat="-40.2989140" lon="-71.3877070">
        <ele>1027.2</ele>
        <time>2020-11-15T16:04:08Z</time>
      </trkpt>
      <trkpt lat="-40.2988900" lon="-71.3876720">
        <ele>1027.3</ele>
        <time>2020-11-15T16:04:09Z</time>
      </trkpt>
      <trkpt lat="-40.2988680" lon="-71.3876340">
        <ele>1027.4</ele>
        <time>2020-11-15T16:04:10Z</time>
      </trkpt>
      <trkpt lat="-40.2988460" lon="-71.3875970">
        <ele>1027.6</ele>
        <time>2020-11-15T16:04:11Z</time>
      </trkpt>
      <trkpt lat="-40.2988250" lon="-71.3875590">
        <ele>1027.7</ele>
        <time>2020-11-15T16:04:12Z</time>
      </trkpt>
      <trkpt lat="-40.2988030" lon="-71.3875220">
        <ele>1027.9</ele>
        <time>2020-11-15T16:04:13Z</time>
      </trkpt>
      <trkpt lat="-40.2987840" lon="-71.3874840">
        <ele>1028.1</ele>
        <time>2020-11-15T16:04:14Z</time>
      </trkpt>
      <trkpt lat="-40.2987660" lon="-71.3874470">
        <ele>1028.3</ele>
        <time>2020-11-15T16:04:15Z</time>
      </trkpt>
      <trkpt lat="-40.2987470" lon="-71.3874090">
        <ele>1028.4</ele>
        <time>2020-11-15T16:04:16Z</time>
      </trkpt>
      <trkpt lat="-40.2987260" lon="-71.3873710">
        <ele>1028.7</ele>
        <time>2020-11-15T16:04:17Z</time>
      </trkpt>
      <trkpt lat="-40.2987060" lon="-71.3873350">
        <ele>1028.9</ele>
        <time>2020-11-15T16:04:18Z</time>
      </trkpt>
      <trkpt lat="-40.2986890" lon="-71.3872980">
        <ele>1029.1</ele>
        <time>2020-11-15T16:04:19Z</time>
      </trkpt>
      <trkpt lat="-40.2986730" lon="-71.3872600">
        <ele>1029.3</ele>
        <time>2020-11-15T16:04:20Z</time>
      </trkpt>
      <trkpt lat="-40.2986560" lon="-71.3872220">
        <ele>1029.5</ele>
        <time>2020-11-15T16:04:21Z</time>
      </trkpt>
      <trkpt lat="-40.2986400" lon="-71.3871820">
        <ele>1029.8</ele>
        <time>2020-11-15T16:04:22Z</time>
      </trkpt>
      <trkpt lat="-40.2986230" lon="-71.3871430">
        <ele>1030.0</ele>
        <time>2020-11-15T16:04:23Z</time>
      </trkpt>
      <trkpt lat="-40.2986070" lon="-71.3871050">
        <ele>1030.2</ele>
        <time>2020-11-15T16:04:24Z</time>
      </trkpt>
      <trkpt lat="-40.2985910" lon="-71.3870650">
        <ele>1030.4</ele>
        <time>2020-11-15T16:04:25Z</time>
      </trkpt>
      <trkpt lat="-40.2985750" lon="-71.3870260">
        <ele>1030.6</ele>
        <time>2020-11-15T16:04:26Z</time>
      </trkpt>
      <trkpt lat="-40.2985610" lon="-71.3869860">
        <ele>1030.8</ele>
        <time>2020-11-15T16:04:27Z</time>
      </trkpt>
      <trkpt lat="-40.2985450" lon="-71.3869480">
        <ele>1031.0</ele>
        <time>2020-11-15T16:04:28Z</time>
      </trkpt>
      <trkpt lat="-40.2985290" lon="-71.3869090">
        <ele>1031.2</ele>
        <time>2020-11-15T16:04:29Z</time>
      </trkpt>
      <trkpt lat="-40.2985140" lon="-71.3868720">
        <ele>1031.4</ele>
        <time>2020-11-15T16:04:30Z</time>
      </trkpt>
      <trkpt lat="-40.2985010" lon="-71.3868330">
        <ele>1031.6</ele>
        <time>2020-11-15T16:04:31Z</time>
      </trkpt>
      <trkpt lat="-40.2984840" lon="-71.3867950">
        <ele>1031.8</ele>
        <time>2020-11-15T16:04:32Z</time>
      </trkpt>
      <trkpt lat="-40.2984680" lon="-71.3867580">
        <ele>1032.0</ele>
        <time>2020-11-15T16:04:33Z</time>
      </trkpt>
      <trkpt lat="-40.2984560" lon="-71.3867170">
        <ele>1032.2</ele>
        <time>2020-11-15T16:04:34Z</time>
      </trkpt>
      <trkpt lat="-40.2984410" lon="-71.3866790">
        <ele>1032.4</ele>
        <time>2020-11-15T16:04:35Z</time>
      </trkpt>
      <trkpt lat="-40.2984210" lon="-71.3866470">
        <ele>1032.6</ele>
        <time>2020-11-15T16:04:36Z</time>
      </trkpt>
      <trkpt lat="-40.2984060" lon="-71.3866090">
        <ele>1032.8</ele>
        <time>2020-11-15T16:04:37Z</time>
      </trkpt>
      <trkpt lat="-40.2983880" lon="-71.3865740">
        <ele>1033.0</ele>
        <time>2020-11-15T16:04:38Z</time>
      </trkpt>
      <trkpt lat="-40.2983710" lon="-71.3865370">
        <ele>1033.2</ele>
        <time>2020-11-15T16:04:39Z</time>
      </trkpt>
      <trkpt lat="-40.2983530" lon="-71.3864990">
        <ele>1033.5</ele>
        <time>2020-11-15T16:04:40Z</time>
      </trkpt>
      <trkpt lat="-40.2983360" lon="-71.3864620">
        <ele>1033.7</ele>
        <time>2020-11-15T16:04:41Z</time>
      </trkpt>
      <trkpt lat="-40.2983170" lon="-71.3864260">
        <ele>1033.9</ele>
        <time>2020-11-15T16:04:42Z</time>
      </trkpt>
      <trkpt lat="-40.2982980" lon="-71.3863890">
        <ele>1034.1</ele>
        <time>2020-11-15T16:04:43Z</time>
      </trkpt>
      <trkpt lat="-40.2982780" lon="-71.3863530">
        <ele>1034.3</ele>
        <time>2020-11-15T16:04:44Z</time>
      </trkpt>
      <trkpt lat="-40.2982570" lon="-71.3863180">
        <ele>1034.5</ele>
        <time>2020-11-15T16:04:45Z</time>
      </trkpt>
      <trkpt lat="-40.2982360" lon="-71.3862830">
        <ele>1034.8</ele>
        <time>2020-11-15T16:04:46Z</time>
      </trkpt>
      <trkpt lat="-40.2982150" lon="-71.3862500">
        <ele>1035.0</ele>
        <time>2020-11-15T16:04:47Z</time>
      </trkpt>
      <trkpt lat="-40.2981940" lon="-71.3862180">
        <ele>1035.2</ele>
        <time>2020-11-15T16:04:48Z</time>
      </trkpt>
      <trkpt lat="-40.2981720" lon="-71.3861860">
        <ele>1035.4</ele>
        <time>2020-11-15T16:04:49Z</time>
      </trkpt>
      <trkpt lat="-40.2981500" lon="-71.3861530">
        <ele>1035.6</ele>
        <time>2020-11-15T16:04:50Z</time>
      </trkpt>
      <trkpt lat="-40.2981240" lon="-71.3861240">
        <ele>1035.8</ele>
        <time>2020-11-15T16:04:51Z</time>
      </trkpt>
      <trkpt lat="-40.2981010" lon="-71.3860930">
        <ele>1036.0</ele>
        <time>2020-11-15T16:04:52Z</time>
      </trkpt>
      <trkpt lat="-40.2980790" lon="-71.3860620">
        <ele>1036.2</ele>
        <time>2020-11-15T16:04:53Z</time>
      </trkpt>
      <trkpt lat="-40.2980560" lon="-71.3860310">
        <ele>1036.4</ele>
        <time>2020-11-15T16:04:54Z</time>
      </trkpt>
      <trkpt lat="-40.2980320" lon="-71.3860020">
        <ele>1036.6</ele>
        <time>2020-11-15T16:04:55Z</time>
      </trkpt>
      <trkpt lat="-40.2980070" lon="-71.3859760">
        <ele>1036.8</ele>
        <time>2020-11-15T16:04:56Z</time>
      </trkpt>
      <trkpt lat="-40.2979810" lon="-71.3859520">
        <ele>1037.0</ele>
        <time>2020-11-15T16:04:57Z</time>
      </trkpt>
      <trkpt lat="-40.2979580" lon="-71.3859270">
        <ele>1037.2</ele>
        <time>2020-11-15T16:04:58Z</time>
      </trkpt>
      <trkpt lat="-40.2979330" lon="-71.3859020">
        <ele>1037.4</ele>
        <time>2020-11-15T16:04:59Z</time>
      </trkpt>
      <trkpt lat="-40.2979100" lon="-71.3858760">
        <ele>1037.5</ele>
        <time>2020-11-15T16:05:00Z</time>
      </trkpt>
      <trkpt lat="-40.2978850" lon="-71.3858510">
        <ele>1037.7</ele>
        <time>2020-11-15T16:05:01Z</time>
      </trkpt>
      <trkpt lat="-40.2978600" lon="-71.3858270">
        <ele>1037.9</ele>
        <time>2020-11-15T16:05:02Z</time>
      </trkpt>
      <trkpt lat="-40.2978330" lon="-71.3858050">
        <ele>1038.1</ele>
        <time>2020-11-15T16:05:03Z</time>
      </trkpt>
      <trkpt lat="-40.2978080" lon="-71.3857800">
        <ele>1038.3</ele>
        <time>2020-11-15T16:05:04Z</time>
      </trkpt>
      <trkpt lat="-40.2977810" lon="-71.3857570">
        <ele>1038.5</ele>
        <time>2020-11-15T16:05:05Z</time>
      </trkpt>
      <trkpt lat="-40.2977560" lon="-71.3857310">
        <ele>1038.7</ele>
        <time>2020-11-15T16:05:06Z</time>
      </trkpt>
      <trkpt lat="-40.2977300" lon="-71.3857080">
        <ele>1038.8</ele>
        <time>2020-11-15T16:05:07Z</time>
      </trkpt>
      <trkpt lat="-40.2977020" lon="-71.3856880">
        <ele>1039.0</ele>
        <time>2020-11-15T16:05:08Z</time>
      </trkpt>
      <trkpt lat="-40.2976730" lon="-71.3856660">
        <ele>1039.2</ele>
        <time>2020-11-15T16:05:09Z</time>
      </trkpt>
      <trkpt lat="-40.2976460" lon="-71.3856450">
        <ele>1039.4</ele>
        <time>2020-11-15T16:05:10Z</time>
      </trkpt>
      <trkpt lat="-40.2976180" lon="-71.3856230">
        <ele>1039.6</ele>
        <time>2020-11-15T16:05:11Z</time>
      </trkpt>
      <trkpt lat="-40.2975920" lon="-71.3856020">
        <ele>1039.8</ele>
        <time>2020-11-15T16:05:12Z</time>
      </trkpt>
      <trkpt lat="-40.2975630" lon="-71.3855850">
        <ele>1039.9</ele>
        <time>2020-11-15T16:05:13Z</time>
      </trkpt>
      <trkpt lat="-40.2975360" lon="-71.3855650">
        <ele>1040.1</ele>
        <time>2020-11-15T16:05:14Z</time>
      </trkpt>
      <trkpt lat="-40.2975100" lon="-71.3855450">
        <ele>1040.3</ele>
        <time>2020-11-15T16:05:15Z</time>
      </trkpt>
      <trkpt lat="-40.2974820" lon="-71.3855260">
        <ele>1040.5</ele>
        <time>2020-11-15T16:05:16Z</time>
      </trkpt>
      <trkpt lat="-40.2974560" lon="-71.3855060">
        <ele>1040.6</ele>
        <time>2020-11-15T16:05:17Z</time>
      </trkpt>
      <trkpt lat="-40.2974290" lon="-71.3854870">
        <ele>1040.8</ele>
        <time>2020-11-15T16:05:18Z</time>
      </trkpt>
      <trkpt lat="-40.2974030" lon="-71.3854680">
        <ele>1041.0</ele>
        <time>2020-11-15T16:05:19Z</time>
      </trkpt>
      <trkpt lat="-40.2973750" lon="-71.3854530">
        <ele>1041.1</ele>
        <time>2020-11-15T16:05:20Z</time>
      </trkpt>
      <trkpt lat="-40.2973470" lon="-71.3854350">
        <ele>1041.3</ele>
        <time>2020-11-15T16:05:21Z</time>
      </trkpt>
      <trkpt lat="-40.2973170" lon="-71.3854190">
        <ele>1041.5</ele>
        <time>2020-11-15T16:05:22Z</time>
      </trkpt>
      <trkpt lat="-40.2972880" lon="-71.3854020">
        <ele>1041.7</ele>
        <time>2020-11-15T16:05:23Z</time>
      </trkpt>
      <trkpt lat="-40.2972580" lon="-71.3853870">
        <ele>1041.9</ele>
        <time>2020-11-15T16:05:24Z</time>
      </trkpt>
      <trkpt lat="-40.2972300" lon="-71.3853710">
        <ele>1042.1</ele>
        <time>2020-11-15T16:05:25Z</time>
      </trkpt>
      <trkpt lat="-40.2972040" lon="-71.3853530">
        <ele>1042.2</ele>
        <time>2020-11-15T16:05:26Z</time>
      </trkpt>
      <trkpt lat="-40.2971750" lon="-71.3853380">
        <ele>1042.4</ele>
        <time>2020-11-15T16:05:27Z</time>
      </trkpt>
      <trkpt lat="-40.2971450" lon="-71.3853250">
        <ele>1042.6</ele>
        <time>2020-11-15T16:05:28Z</time>
      </trkpt>
      <trkpt lat="-40.2971160" lon="-71.3853100">
        <ele>1042.8</ele>
        <time>2020-11-15T16:05:29Z</time>
      </trkpt>
      <trkpt lat="-40.2970850" lon="-71.3852960">
        <ele>1043.0</ele>
        <time>2020-11-15T16:05:30Z</time>
      </trkpt>
      <trkpt lat="-40.2970560" lon="-71.3852830">
        <ele>1043.2</ele>
        <time>2020-11-15T16:05:31Z</time>
      </trkpt>
      <trkpt lat="-40.2970290" lon="-71.3852680">
        <ele>1043.4</ele>
        <time>2020-11-15T16:05:32Z</time>
      </trkpt>
      <trkpt lat="-40.2970010" lon="-71.3852520">
        <ele>1043.6</ele>
        <time>2020-11-15T16:05:33Z</time>
      </trkpt>
      <trkpt lat="-40.2969740" lon="-71.3852360">
        <ele>1043.8</ele>
        <time>2020-11-15T16:05:34Z</time>
      </trkpt>
      <trkpt lat="-40.2969480" lon="-71.3852200">
        <ele>1044.0</ele>
        <time>2020-11-15T16:05:35Z</time>
      </trkpt>
      <trkpt lat="-40.2969180" lon="-71.3852050">
        <ele>1044.2</ele>
        <time>2020-11-15T16:05:36Z</time>
      </trkpt>
      <trkpt lat="-40.2968890" lon="-71.3851910">
        <ele>1044.4</ele>
        <time>2020-11-15T16:05:37Z</time>
      </trkpt>
      <trkpt lat="-40.2968610" lon="-71.3851750">
        <ele>1044.6</ele>
        <time>2020-11-15T16:05:38Z</time>
      </trkpt>
      <trkpt lat="-40.2968320" lon="-71.3851590">
        <ele>1044.8</ele>
        <time>2020-11-15T16:05:39Z</time>
      </trkpt>
      <trkpt lat="-40.2968030" lon="-71.3851430">
        <ele>1045.0</ele>
        <time>2020-11-15T16:05:40Z</time>
      </trkpt>
      <trkpt lat="-40.2967760" lon="-71.3851260">
        <ele>1045.2</ele>
        <time>2020-11-15T16:05:41Z</time>
      </trkpt>
      <trkpt lat="-40.2967490" lon="-71.3851080">
        <ele>1045.4</ele>
        <time>2020-11-15T16:05:42Z</time>
      </trkpt>
      <trkpt lat="-40.2967220" lon="-71.3850900">
        <ele>1045.5</ele>
        <time>2020-11-15T16:05:43Z</time>
      </trkpt>
      <trkpt lat="-40.2966920" lon="-71.3850750">
        <ele>1045.7</ele>
        <time>2020-11-15T16:05:44Z</time>
      </trkpt>
      <trkpt lat="-40.2966630" lon="-71.3850590">
        <ele>1046.0</ele>
        <time>2020-11-15T16:05:45Z</time>
      </trkpt>
      <trkpt lat="-40.2966330" lon="-71.3850450">
        <ele>1046.2</ele>
        <time>2020-11-15T16:05:46Z</time>
      </trkpt>
      <trkpt lat="-40.2966040" lon="-71.3850300">
        <ele>1046.4</ele>
        <time>2020-11-15T16:05:47Z</time>
      </trkpt>
      <trkpt lat="-40.2965730" lon="-71.3850160">
        <ele>1046.6</ele>
        <time>2020-11-15T16:05:48Z</time>
      </trkpt>
      <trkpt lat="-40.2965420" lon="-71.3850020">
        <ele>1046.8</ele>
        <time>2020-11-15T16:05:49Z</time>
      </trkpt>
      <trkpt lat="-40.2965130" lon="-71.3849870">
        <ele>1047.0</ele>
        <time>2020-11-15T16:05:50Z</time>
      </trkpt>
      <trkpt lat="-40.2964840" lon="-71.3849720">
        <ele>1047.2</ele>
        <time>2020-11-15T16:05:51Z</time>
      </trkpt>
      <trkpt lat="-40.2964540" lon="-71.3849560">
        <ele>1047.4</ele>
        <time>2020-11-15T16:05:52Z</time>
      </trkpt>
      <trkpt lat="-40.2964230" lon="-71.3849400">
        <ele>1047.6</ele>
        <time>2020-11-15T16:05:53Z</time>
      </trkpt>
      <trkpt lat="-40.2963930" lon="-71.3849260">
        <ele>1047.8</ele>
        <time>2020-11-15T16:05:54Z</time>
      </trkpt>
      <trkpt lat="-40.2963610" lon="-71.3849130">
        <ele>1048.0</ele>
        <time>2020-11-15T16:05:55Z</time>
      </trkpt>
      <trkpt lat="-40.2963290" lon="-71.3848980">
        <ele>1048.3</ele>
        <time>2020-11-15T16:05:56Z</time>
      </trkpt>
      <trkpt lat="-40.2962990" lon="-71.3848820">
        <ele>1048.5</ele>
        <time>2020-11-15T16:05:57Z</time>
      </trkpt>
      <trkpt lat="-40.2962690" lon="-71.3848670">
        <ele>1048.7</ele>
        <time>2020-11-15T16:05:58Z</time>
      </trkpt>
      <trkpt lat="-40.2962390" lon="-71.3848520">
        <ele>1048.9</ele>
        <time>2020-11-15T16:05:59Z</time>
      </trkpt>
      <trkpt lat="-40.2962100" lon="-71.3848380">
        <ele>1049.1</ele>
        <time>2020-11-15T16:06:00Z</time>
      </trkpt>
      <trkpt lat="-40.2961810" lon="-71.3848220">
        <ele>1049.3</ele>
        <time>2020-11-15T16:06:01Z</time>
      </trkpt>
      <trkpt lat="-40.2961510" lon="-71.3848080">
        <ele>1049.5</ele>
        <time>2020-11-15T16:06:02Z</time>
      </trkpt>
      <trkpt lat="-40.2961220" lon="-71.3847920">
        <ele>1049.6</ele>
        <time>2020-11-15T16:06:03Z</time>
      </trkpt>
      <trkpt lat="-40.2960950" lon="-71.3847760">
        <ele>1049.8</ele>
        <time>2020-11-15T16:06:04Z</time>
      </trkpt>
      <trkpt lat="-40.2960680" lon="-71.3847610">
        <ele>1050.0</ele>
        <time>2020-11-15T16:06:05Z</time>
      </trkpt>
      <trkpt lat="-40.2960390" lon="-71.3847470">
        <ele>1050.2</ele>
        <time>2020-11-15T16:06:06Z</time>
      </trkpt>
      <trkpt lat="-40.2960090" lon="-71.3847340">
        <ele>1050.4</ele>
        <time>2020-11-15T16:06:07Z</time>
      </trkpt>
      <trkpt lat="-40.2959800" lon="-71.3847200">
        <ele>1050.6</ele>
        <time>2020-11-15T16:06:08Z</time>
      </trkpt>
      <trkpt lat="-40.2959500" lon="-71.3847060">
        <ele>1050.8</ele>
        <time>2020-11-15T16:06:09Z</time>
      </trkpt>
      <trkpt lat="-40.2959210" lon="-71.3846910">
        <ele>1051.0</ele>
        <time>2020-11-15T16:06:10Z</time>
      </trkpt>
      <trkpt lat="-40.2958920" lon="-71.3846780">
        <ele>1051.2</ele>
        <time>2020-11-15T16:06:11Z</time>
      </trkpt>
      <trkpt lat="-40.2958620" lon="-71.3846650">
        <ele>1051.4</ele>
        <time>2020-11-15T16:06:12Z</time>
      </trkpt>
      <trkpt lat="-40.2958320" lon="-71.3846500">
        <ele>1051.6</ele>
        <time>2020-11-15T16:06:13Z</time>
      </trkpt>
      <trkpt lat="-40.2958040" lon="-71.3846360">
        <ele>1051.8</ele>
        <time>2020-11-15T16:06:14Z</time>
      </trkpt>
      <trkpt lat="-40.2957750" lon="-71.3846240">
        <ele>1052.0</ele>
        <time>2020-11-15T16:06:15Z</time>
      </trkpt>
      <trkpt lat="-40.2957450" lon="-71.3846130">
        <ele>1052.2</ele>
        <time>2020-11-15T16:06:16Z</time>
      </trkpt>
      <trkpt lat="-40.2957150" lon="-71.3846020">
        <ele>1052.4</ele>
        <time>2020-11-15T16:06:17Z</time>
      </trkpt>
      <trkpt lat="-40.2956850" lon="-71.3845910">
        <ele>1052.6</ele>
        <time>2020-11-15T16:06:18Z</time>
      </trkpt>
      <trkpt lat="-40.2956560" lon="-71.3845790">
        <ele>1052.7</ele>
        <time>2020-11-15T16:06:19Z</time>
      </trkpt>
      <trkpt lat="-40.2956250" lon="-71.3845680">
        <ele>1052.9</ele>
        <time>2020-11-15T16:06:20Z</time>
      </trkpt>
      <trkpt lat="-40.2955950" lon="-71.3845560">
        <ele>1053.1</ele>
        <time>2020-11-15T16:06:21Z</time>
      </trkpt>
      <trkpt lat="-40.2955660" lon="-71.3845440">
        <ele>1053.3</ele>
        <time>2020-11-15T16:06:22Z</time>
      </trkpt>
      <trkpt lat="-40.2955350" lon="-71.3845340">
        <ele>1053.5</ele>
        <time>2020-11-15T16:06:23Z</time>
      </trkpt>
      <trkpt lat="-40.2955050" lon="-71.3845240">
        <ele>1053.6</ele>
        <time>2020-11-15T16:06:24Z</time>
      </trkpt>
      <trkpt lat="-40.2954750" lon="-71.3845150">
        <ele>1053.8</ele>
        <time>2020-11-15T16:06:25Z</time>
      </trkpt>
      <trkpt lat="-40.2954450" lon="-71.3845050">
        <ele>1053.9</ele>
        <time>2020-11-15T16:06:26Z</time>
      </trkpt>
      <trkpt lat="-40.2954150" lon="-71.3844950">
        <ele>1054.1</ele>
        <time>2020-11-15T16:06:27Z</time>
      </trkpt>
      <trkpt lat="-40.2953850" lon="-71.3844870">
        <ele>1054.2</ele>
        <time>2020-11-15T16:06:28Z</time>
      </trkpt>
      <trkpt lat="-40.2953540" lon="-71.3844800">
        <ele>1054.3</ele>
        <time>2020-11-15T16:06:29Z</time>
      </trkpt>
      <trkpt lat="-40.2953220" lon="-71.3844730">
        <ele>1054.5</ele>
        <time>2020-11-15T16:06:30Z</time>
      </trkpt>
      <trkpt lat="-40.2952900" lon="-71.3844640">
        <ele>1054.6</ele>
        <time>2020-11-15T16:06:31Z</time>
      </trkpt>
      <trkpt lat="-40.2952580" lon="-71.3844560">
        <ele>1054.7</ele>
        <time>2020-11-15T16:06:32Z</time>
      </trkpt>
      <trkpt lat="-40.2952260" lon="-71.3844480">
        <ele>1054.8</ele>
        <time>2020-11-15T16:06:33Z</time>
      </trkpt>
      <trkpt lat="-40.2951930" lon="-71.3844400">
        <ele>1054.9</ele>
        <time>2020-11-15T16:06:34Z</time>
      </trkpt>
      <trkpt lat="-40.2951620" lon="-71.3844320">
        <ele>1055.0</ele>
        <time>2020-11-15T16:06:35Z</time>
      </trkpt>
      <trkpt lat="-40.2951300" lon="-71.3844230">
        <ele>1055.1</ele>
        <time>2020-11-15T16:06:36Z</time>
      </trkpt>
      <trkpt lat="-40.2950970" lon="-71.3844150">
        <ele>1055.2</ele>
        <time>2020-11-15T16:06:37Z</time>
      </trkpt>
      <trkpt lat="-40.2950650" lon="-71.3844070">
        <ele>1055.3</ele>
        <time>2020-11-15T16:06:38Z</time>
      </trkpt>
      <trkpt lat="-40.2950310" lon="-71.3843980">
        <ele>1055.4</ele>
        <time>2020-11-15T16:06:39Z</time>
      </trkpt>
      <trkpt lat="-40.2949980" lon="-71.3843900">
        <ele>1055.5</ele>
        <time>2020-11-15T16:06:40Z</time>
      </trkpt>
      <trkpt lat="-40.2949630" lon="-71.3843810">
        <ele>1055.5</ele>
        <time>2020-11-15T16:06:41Z</time>
      </trkpt>
      <trkpt lat="-40.2949290" lon="-71.3843730">
        <ele>1055.6</ele>
        <time>2020-11-15T16:06:42Z</time>
      </trkpt>
      <trkpt lat="-40.2948930" lon="-71.3843650">
        <ele>1055.7</ele>
        <time>2020-11-15T16:06:43Z</time>
      </trkpt>
      <trkpt lat="-40.2948570" lon="-71.3843570">
        <ele>1055.8</ele>
        <time>2020-11-15T16:06:44Z</time>
      </trkpt>
      <trkpt lat="-40.2948200" lon="-71.3843480">
        <ele>1055.9</ele>
        <time>2020-11-15T16:06:45Z</time>
      </trkpt>
      <trkpt lat="-40.2947850" lon="-71.3843380">
        <ele>1055.9</ele>
        <time>2020-11-15T16:06:46Z</time>
      </trkpt>
      <trkpt lat="-40.2947520" lon="-71.3843280">
        <ele>1056.0</ele>
        <time>2020-11-15T16:06:47Z</time>
      </trkpt>
      <trkpt lat="-40.2947180" lon="-71.3843170">
        <ele>1056.1</ele>
        <time>2020-11-15T16:06:48Z</time>
      </trkpt>
      <trkpt lat="-40.2946830" lon="-71.3843080">
        <ele>1056.2</ele>
        <time>2020-11-15T16:06:49Z</time>
      </trkpt>
      <trkpt lat="-40.2946480" lon="-71.3842980">
        <ele>1056.3</ele>
        <time>2020-11-15T16:06:50Z</time>
      </trkpt>
      <trkpt lat="-40.2946130" lon="-71.3842880">
        <ele>1056.4</ele>
        <time>2020-11-15T16:06:51Z</time>
      </trkpt>
      <trkpt lat="-40.2945800" lon="-71.3842790">
        <ele>1056.5</ele>
        <time>2020-11-15T16:06:52Z</time>
      </trkpt>
      <trkpt lat="-40.2945480" lon="-71.3842680">
        <ele>1056.6</ele>
        <time>2020-11-15T16:06:53Z</time>
      </trkpt>
      <trkpt lat="-40.2945140" lon="-71.3842590">
        <ele>1056.7</ele>
        <time>2020-11-15T16:06:54Z</time>
      </trkpt>
      <trkpt lat="-40.2944820" lon="-71.3842500">
        <ele>1056.8</ele>
        <time>2020-11-15T16:06:55Z</time>
      </trkpt>
      <trkpt lat="-40.2944510" lon="-71.3842390">
        <ele>1056.9</ele>
        <time>2020-11-15T16:06:56Z</time>
      </trkpt>
      <trkpt lat="-40.2944180" lon="-71.3842300">
        <ele>1057.0</ele>
        <time>2020-11-15T16:06:57Z</time>
      </trkpt>
      <trkpt lat="-40.2943860" lon="-71.3842230">
        <ele>1057.2</ele>
        <time>2020-11-15T16:06:58Z</time>
      </trkpt>
      <trkpt lat="-40.2943560" lon="-71.3842130">
        <ele>1057.3</ele>
        <time>2020-11-15T16:06:59Z</time>
      </trkpt>
      <trkpt lat="-40.2943240" lon="-71.3842050">
        <ele>1057.4</ele>
        <time>2020-11-15T16:07:00Z</time>
      </trkpt>
      <trkpt lat="-40.2942920" lon="-71.3841970">
        <ele>1057.6</ele>
        <time>2020-11-15T16:07:01Z</time>
      </trkpt>
      <trkpt lat="-40.2942590" lon="-71.3841910">
        <ele>1057.7</ele>
        <time>2020-11-15T16:07:02Z</time>
      </trkpt>
      <trkpt lat="-40.2942280" lon="-71.3841840">
        <ele>1057.9</ele>
        <time>2020-11-15T16:07:03Z</time>
      </trkpt>
      <trkpt lat="-40.2941980" lon="-71.3841770">
        <ele>1058.0</ele>
        <time>2020-11-15T16:07:04Z</time>
      </trkpt>
      <trkpt lat="-40.2941680" lon="-71.3841680">
        <ele>1058.2</ele>
        <time>2020-11-15T16:07:05Z</time>
      </trkpt>
      <trkpt lat="-40.2941350" lon="-71.3841610">
        <ele>1058.4</ele>
        <time>2020-11-15T16:07:06Z</time>
      </trkpt>
      <trkpt lat="-40.2941030" lon="-71.3841540">
        <ele>1058.6</ele>
        <time>2020-11-15T16:07:07Z</time>
      </trkpt>
      <trkpt lat="-40.2940700" lon="-71.3841480">
        <ele>1058.7</ele>
        <time>2020-11-15T16:07:08Z</time>
      </trkpt>
      <trkpt lat="-40.2940380" lon="-71.3841420">
        <ele>1058.9</ele>
        <time>2020-11-15T16:07:09Z</time>
      </trkpt>
      <trkpt lat="-40.2940060" lon="-71.3841360">
        <ele>1059.1</ele>
        <time>2020-11-15T16:07:10Z</time>
      </trkpt>
      <trkpt lat="-40.2939750" lon="-71.3841310">
        <ele>1059.3</ele>
        <time>2020-11-15T16:07:11Z</time>
      </trkpt>
      <trkpt lat="-40.2939430" lon="-71.3841270">
        <ele>1059.4</ele>
        <time>2020-11-15T16:07:12Z</time>
      </trkpt>
      <trkpt lat="-40.2939100" lon="-71.3841210">
        <ele>1059.6</ele>
        <time>2020-11-15T16:07:13Z</time>
      </trkpt>
      <trkpt lat="-40.2938800" lon="-71.3841150">
        <ele>1059.8</ele>
        <time>2020-11-15T16:07:14Z</time>
      </trkpt>
      <trkpt lat="-40.2938500" lon="-71.3841090">
        <ele>1060.0</ele>
        <time>2020-11-15T16:07:15Z</time>
      </trkpt>
      <trkpt lat="-40.2938190" lon="-71.3841050">
        <ele>1060.1</ele>
        <time>2020-11-15T16:07:16Z</time>
      </trkpt>
      <trkpt lat="-40.2937870" lon="-71.3841010">
        <ele>1060.3</ele>
        <time>2020-11-15T16:07:17Z</time>
      </trkpt>
      <trkpt lat="-40.2937550" lon="-71.3840990">
        <ele>1060.5</ele>
        <time>2020-11-15T16:07:18Z</time>
      </trkpt>
      <trkpt lat="-40.2937240" lon="-71.3840960">
        <ele>1060.6</ele>
        <time>2020-11-15T16:07:19Z</time>
      </trkpt>
      <trkpt lat="-40.2936920" lon="-71.3840930">
        <ele>1060.8</ele>
        <time>2020-11-15T16:07:20Z</time>
      </trkpt>
      <trkpt lat="-40.2936600" lon="-71.3840920">
        <ele>1061.0</ele>
        <time>2020-11-15T16:07:21Z</time>
      </trkpt>
      <trkpt lat="-40.2936270" lon="-71.3840930">
        <ele>1061.2</ele>
        <time>2020-11-15T16:07:22Z</time>
      </trkpt>
      <trkpt lat="-40.2935950" lon="-71.3840930">
        <ele>1061.4</ele>
        <time>2020-11-15T16:07:23Z</time>
      </trkpt>
      <trkpt lat="-40.2935630" lon="-71.3840930">
        <ele>1061.6</ele>
        <time>2020-11-15T16:07:24Z</time>
      </trkpt>
      <trkpt lat="-40.2935310" lon="-71.3840910">
        <ele>1061.7</ele>
        <time>2020-11-15T16:07:25Z</time>
      </trkpt>
      <trkpt lat="-40.2934990" lon="-71.3840900">
        <ele>1061.9</ele>
        <time>2020-11-15T16:07:26Z</time>
      </trkpt>
      <trkpt lat="-40.2934660" lon="-71.3840880">
        <ele>1062.1</ele>
        <time>2020-11-15T16:07:27Z</time>
      </trkpt>
      <trkpt lat="-40.2934330" lon="-71.3840860">
        <ele>1062.3</ele>
        <time>2020-11-15T16:07:28Z</time>
      </trkpt>
      <trkpt lat="-40.2934000" lon="-71.3840890">
        <ele>1062.4</ele>
        <time>2020-11-15T16:07:29Z</time>
      </trkpt>
      <trkpt lat="-40.2933680" lon="-71.3840920">
        <ele>1062.6</ele>
        <time>2020-11-15T16:07:30Z</time>
      </trkpt>
      <trkpt lat="-40.2933360" lon="-71.3840950">
        <ele>1062.8</ele>
        <time>2020-11-15T16:07:31Z</time>
      </trkpt>
      <trkpt lat="-40.2933040" lon="-71.3840980">
        <ele>1062.9</ele>
        <time>2020-11-15T16:07:32Z</time>
      </trkpt>
      <trkpt lat="-40.2932730" lon="-71.3841020">
        <ele>1063.1</ele>
        <time>2020-11-15T16:07:33Z</time>
      </trkpt>
      <trkpt lat="-40.2932410" lon="-71.3841050">
        <ele>1063.3</ele>
        <time>2020-11-15T16:07:34Z</time>
      </trkpt>
      <trkpt lat="-40.2932070" lon="-71.3841100">
        <ele>1063.4</ele>
        <time>2020-11-15T16:07:35Z</time>
      </trkpt>
      <trkpt lat="-40.2931750" lon="-71.3841110">
        <ele>1063.6</ele>
        <time>2020-11-15T16:07:36Z</time>
      </trkpt>
      <trkpt lat="-40.2931440" lon="-71.3841160">
        <ele>1063.8</ele>
        <time>2020-11-15T16:07:37Z</time>
      </trkpt>
      <trkpt lat="-40.2931110" lon="-71.3841230">
        <ele>1064.0</ele>
        <time>2020-11-15T16:07:38Z</time>
      </trkpt>
      <trkpt lat="-40.2930790" lon="-71.3841280">
        <ele>1064.1</ele>
        <time>2020-11-15T16:07:39Z</time>
      </trkpt>
      <trkpt lat="-40.2930480" lon="-71.3841340">
        <ele>1064.3</ele>
        <time>2020-11-15T16:07:40Z</time>
      </trkpt>
      <trkpt lat="-40.2930150" lon="-71.3841440">
        <ele>1064.5</ele>
        <time>2020-11-15T16:07:41Z</time>
      </trkpt>
      <trkpt lat="-40.2929830" lon="-71.3841520">
        <ele>1064.6</ele>
        <time>2020-11-15T16:07:42Z</time>
      </trkpt>
      <trkpt lat="-40.2929520" lon="-71.3841600">
        <ele>1064.8</ele>
        <time>2020-11-15T16:07:43Z</time>
      </trkpt>
      <trkpt lat="-40.2929220" lon="-71.3841690">
        <ele>1065.0</ele>
        <time>2020-11-15T16:07:44Z</time>
      </trkpt>
      <trkpt lat="-40.2928880" lon="-71.3841790">
        <ele>1065.2</ele>
        <time>2020-11-15T16:07:45Z</time>
      </trkpt>
      <trkpt lat="-40.2928560" lon="-71.3841870">
        <ele>1065.3</ele>
        <time>2020-11-15T16:07:46Z</time>
      </trkpt>
      <trkpt lat="-40.2928250" lon="-71.3841940">
        <ele>1065.5</ele>
        <time>2020-11-15T16:07:47Z</time>
      </trkpt>
      <trkpt lat="-40.2927950" lon="-71.3842030">
        <ele>1065.7</ele>
        <time>2020-11-15T16:07:48Z</time>
      </trkpt>
      <trkpt lat="-40.2927650" lon="-71.3842130">
        <ele>1065.8</ele>
        <time>2020-11-15T16:07:49Z</time>
      </trkpt>
      <trkpt lat="-40.2927350" lon="-71.3842240">
        <ele>1066.0</ele>
        <time>2020-11-15T16:07:50Z</time>
      </trkpt>
      <trkpt lat="-40.2927060" lon="-71.3842370">
        <ele>1066.1</ele>
        <time>2020-11-15T16:07:51Z</time>
      </trkpt>
      <trkpt lat="-40.2926740" lon="-71.3842460">
        <ele>1066.3</ele>
        <time>2020-11-15T16:07:52Z</time>
      </trkpt>
      <trkpt lat="-40.2926430" lon="-71.3842560">
        <ele>1066.5</ele>
        <time>2020-11-15T16:07:53Z</time>
      </trkpt>
      <trkpt lat="-40.2926120" lon="-71.3842680">
        <ele>1066.6</ele>
        <time>2020-11-15T16:07:54Z</time>
      </trkpt>
      <trkpt lat="-40.2925810" lon="-71.3842790">
        <ele>1066.8</ele>
        <time>2020-11-15T16:07:55Z</time>
      </trkpt>
      <trkpt lat="-40.2925500" lon="-71.3842900">
        <ele>1066.9</ele>
        <time>2020-11-15T16:07:56Z</time>
      </trkpt>
      <trkpt lat="-40.2925200" lon="-71.3843000">
        <ele>1067.1</ele>
        <time>2020-11-15T16:07:57Z</time>
      </trkpt>
      <trkpt lat="-40.2924900" lon="-71.3843090">
        <ele>1067.3</ele>
        <time>2020-11-15T16:07:58Z</time>
      </trkpt>
      <trkpt lat="-40.2924610" lon="-71.3843190">
        <ele>1067.4</ele>
        <time>2020-11-15T16:07:59Z</time>
      </trkpt>
      <trkpt lat="-40.2924300" lon="-71.3843280">
        <ele>1067.6</ele>
        <time>2020-11-15T16:08:00Z</time>
      </trkpt>
      <trkpt lat="-40.2924000" lon="-71.3843390">
        <ele>1067.8</ele>
        <time>2020-11-15T16:08:01Z</time>
      </trkpt>
      <trkpt lat="-40.2923720" lon="-71.3843490">
        <ele>1067.9</ele>
        <time>2020-11-15T16:08:02Z</time>
      </trkpt>
      <trkpt lat="-40.2923420" lon="-71.3843600">
        <ele>1068.1</ele>
        <time>2020-11-15T16:08:03Z</time>
      </trkpt>
      <trkpt lat="-40.2923110" lon="-71.3843710">
        <ele>1068.3</ele>
        <time>2020-11-15T16:08:04Z</time>
      </trkpt>
      <trkpt lat="-40.2922790" lon="-71.3843820">
        <ele>1068.5</ele>
        <time>2020-11-15T16:08:05Z</time>
      </trkpt>
      <trkpt lat="-40.2922490" lon="-71.3843950">
        <ele>1068.6</ele>
        <time>2020-11-15T16:08:06Z</time>
      </trkpt>
      <trkpt lat="-40.2922200" lon="-71.3844050">
        <ele>1068.8</ele>
        <time>2020-11-15T16:08:07Z</time>
      </trkpt>
      <trkpt lat="-40.2921900" lon="-71.3844160">
        <ele>1069.0</ele>
        <time>2020-11-15T16:08:08Z</time>
      </trkpt>
      <trkpt lat="-40.2921590" lon="-71.3844280">
        <ele>1069.1</ele>
        <time>2020-11-15T16:08:09Z</time>
      </trkpt>
      <trkpt lat="-40.2921300" lon="-71.3844390">
        <ele>1069.3</ele>
        <time>2020-11-15T16:08:10Z</time>
      </trkpt>
      <trkpt lat="-40.2921000" lon="-71.3844490">
        <ele>1069.5</ele>
        <time>2020-11-15T16:08:11Z</time>
      </trkpt>
      <trkpt lat="-40.2920710" lon="-71.3844610">
        <ele>1069.6</ele>
        <time>2020-11-15T16:08:12Z</time>
      </trkpt>
      <trkpt lat="-40.2920400" lon="-71.3844720">
        <ele>1069.8</ele>
        <time>2020-11-15T16:08:13Z</time>
      </trkpt>
      <trkpt lat="-40.2920100" lon="-71.3844830">
        <ele>1069.9</ele>
        <time>2020-11-15T16:08:14Z</time>
      </trkpt>
      <trkpt lat="-40.2919820" lon="-71.3844960">
        <ele>1070.1</ele>
        <time>2020-11-15T16:08:15Z</time>
      </trkpt>
      <trkpt lat="-40.2919530" lon="-71.3845090">
        <ele>1070.3</ele>
        <time>2020-11-15T16:08:16Z</time>
      </trkpt>
      <trkpt lat="-40.2919230" lon="-71.3845230">
        <ele>1070.4</ele>
        <time>2020-11-15T16:08:17Z</time>
      </trkpt>
      <trkpt lat="-40.2918930" lon="-71.3845350">
        <ele>1070.6</ele>
        <time>2020-11-15T16:08:18Z</time>
      </trkpt>
      <trkpt lat="-40.2918630" lon="-71.3845470">
        <ele>1070.8</ele>
        <time>2020-11-15T16:08:19Z</time>
      </trkpt>
      <trkpt lat="-40.2918350" lon="-71.3845580">
        <ele>1071.0</ele>
        <time>2020-11-15T16:08:20Z</time>
      </trkpt>
      <trkpt lat="-40.2918070" lon="-71.3845680">
        <ele>1071.2</ele>
        <time>2020-11-15T16:08:21Z</time>
      </trkpt>
      <trkpt lat="-40.2917780" lon="-71.3845790">
        <ele>1071.4</ele>
        <time>2020-11-15T16:08:22Z</time>
      </trkpt>
      <trkpt lat="-40.2917470" lon="-71.3845910">
        <ele>1071.6</ele>
        <time>2020-11-15T16:08:23Z</time>
      </trkpt>
      <trkpt lat="-40.2917190" lon="-71.3846000">
        <ele>1071.7</ele>
        <time>2020-11-15T16:08:24Z</time>
      </trkpt>
      <trkpt lat="-40.2916900" lon="-71.3846100">
        <ele>1071.9</ele>
        <time>2020-11-15T16:08:25Z</time>
      </trkpt>
      <trkpt lat="-40.2916600" lon="-71.3846210">
        <ele>1072.1</ele>
        <time>2020-11-15T16:08:26Z</time>
      </trkpt>
      <trkpt lat="-40.2916290" lon="-71.3846320">
        <ele>1072.3</ele>
        <time>2020-11-15T16:08:27Z</time>
      </trkpt>
      <trkpt lat="-40.2915960" lon="-71.3846400">
        <ele>1072.5</ele>
        <time>2020-11-15T16:08:28Z</time>
      </trkpt>
      <trkpt lat="-40.2915640" lon="-71.3846470">
        <ele>1072.7</ele>
        <time>2020-11-15T16:08:29Z</time>
      </trkpt>
      <trkpt lat="-40.2915310" lon="-71.3846570">
        <ele>1072.9</ele>
        <time>2020-11-15T16:08:30Z</time>
      </trkpt>
      <trkpt lat="-40.2914980" lon="-71.3846680">
        <ele>1073.1</ele>
        <time>2020-11-15T16:08:31Z</time>
      </trkpt>
      <trkpt lat="-40.2914670" lon="-71.3846760">
        <ele>1073.3</ele>
        <time>2020-11-15T16:08:32Z</time>
      </trkpt>
      <trkpt lat="-40.2914360" lon="-71.3846840">
        <ele>1073.5</ele>
        <time>2020-11-15T16:08:33Z</time>
      </trkpt>
      <trkpt lat="-40.2914080" lon="-71.3846950">
        <ele>1073.7</ele>
        <time>2020-11-15T16:08:34Z</time>
      </trkpt>
      <trkpt lat="-40.2913780" lon="-71.3847050">
        <ele>1073.9</ele>
        <time>2020-11-15T16:08:35Z</time>
      </trkpt>
      <trkpt lat="-40.2913470" lon="-71.3847160">
        <ele>1074.1</ele>
        <time>2020-11-15T16:08:36Z</time>
      </trkpt>
      <trkpt lat="-40.2913170" lon="-71.3847280">
        <ele>1074.3</ele>
        <time>2020-11-15T16:08:37Z</time>
      </trkpt>
      <trkpt lat="-40.2912880" lon="-71.3847390">
        <ele>1074.5</ele>
        <time>2020-11-15T16:08:38Z</time>
      </trkpt>
      <trkpt lat="-40.2912600" lon="-71.3847480">
        <ele>1074.7</ele>
        <time>2020-11-15T16:08:39Z</time>
      </trkpt>
      <trkpt lat="-40.2912310" lon="-71.3847570">
        <ele>1074.9</ele>
        <time>2020-11-15T16:08:40Z</time>
      </trkpt>
      <trkpt lat="-40.2911990" lon="-71.3847700">
        <ele>1075.1</ele>
        <time>2020-11-15T16:08:41Z</time>
      </trkpt>
      <trkpt lat="-40.2911690" lon="-71.3847820">
        <ele>1075.3</ele>
        <time>2020-11-15T16:08:42Z</time>
      </trkpt>
      <trkpt lat="-40.2911390" lon="-71.3847930">
        <ele>1075.5</ele>
        <time>2020-11-15T16:08:43Z</time>
      </trkpt>
      <trkpt lat="-40.2911100" lon="-71.3848030">
        <ele>1075.7</ele>
        <time>2020-11-15T16:08:44Z</time>
      </trkpt>
      <trkpt lat="-40.2910800" lon="-71.3848110">
        <ele>1075.9</ele>
        <time>2020-11-15T16:08:45Z</time>
      </trkpt>
      <trkpt lat="-40.2910490" lon="-71.3848190">
        <ele>1076.1</ele>
        <time>2020-11-15T16:08:46Z</time>
      </trkpt>
      <trkpt lat="-40.2910180" lon="-71.3848300">
        <ele>1076.3</ele>
        <time>2020-11-15T16:08:47Z</time>
      </trkpt>
      <trkpt lat="-40.2909880" lon="-71.3848410">
        <ele>1076.5</ele>
        <time>2020-11-15T16:08:48Z</time>
      </trkpt>
      <trkpt lat="-40.2909570" lon="-71.3848520">
        <ele>1076.7</ele>
        <time>2020-11-15T16:08:49Z</time>
      </trkpt>
      <trkpt lat="-40.2909280" lon="-71.3848640">
        <ele>1076.9</ele>
        <time>2020-11-15T16:08:50Z</time>
      </trkpt>
      <trkpt lat="-40.2908970" lon="-71.3848750">
        <ele>1077.1</ele>
        <time>2020-11-15T16:08:51Z</time>
      </trkpt>
      <trkpt lat="-40.2908680" lon="-71.3848860">
        <ele>1077.3</ele>
        <time>2020-11-15T16:08:52Z</time>
      </trkpt>
      <trkpt lat="-40.2908390" lon="-71.3848960">
        <ele>1077.5</ele>
        <time>2020-11-15T16:08:53Z</time>
      </trkpt>
      <trkpt lat="-40.2908100" lon="-71.3849080">
        <ele>1077.7</ele>
        <time>2020-11-15T16:08:54Z</time>
      </trkpt>
      <trkpt lat="-40.2907800" lon="-71.3849200">
        <ele>1077.8</ele>
        <time>2020-11-15T16:08:55Z</time>
      </trkpt>
      <trkpt lat="-40.2907510" lon="-71.3849260">
        <ele>1078.0</ele>
        <time>2020-11-15T16:08:56Z</time>
      </trkpt>
      <trkpt lat="-40.2907220" lon="-71.3849370">
        <ele>1078.2</ele>
        <time>2020-11-15T16:08:57Z</time>
      </trkpt>
      <trkpt lat="-40.2906940" lon="-71.3849500">
        <ele>1078.4</ele>
        <time>2020-11-15T16:08:58Z</time>
      </trkpt>
      <trkpt lat="-40.2906650" lon="-71.3849640">
        <ele>1078.5</ele>
        <time>2020-11-15T16:08:59Z</time>
      </trkpt>
      <trkpt lat="-40.2906360" lon="-71.3849830">
        <ele>1078.7</ele>
        <time>2020-11-15T16:09:00Z</time>
      </trkpt>
      <trkpt lat="-40.2906080" lon="-71.3850010">
        <ele>1078.9</ele>
        <time>2020-11-15T16:09:01Z</time>
      </trkpt>
      <trkpt lat="-40.2905780" lon="-71.3850190">
        <ele>1079.1</ele>
        <time>2020-11-15T16:09:02Z</time>
      </trkpt>
      <trkpt lat="-40.2905490" lon="-71.3850380">
        <ele>1079.3</ele>
        <time>2020-11-15T16:09:03Z</time>
      </trkpt>
      <trkpt lat="-40.2905210" lon="-71.3850590">
        <ele>1079.5</ele>
        <time>2020-11-15T16:09:04Z</time>
      </trkpt>
      <trkpt lat="-40.2904930" lon="-71.3850810">
        <ele>1079.7</ele>
        <time>2020-11-15T16:09:05Z</time>
      </trkpt>
      <trkpt lat="-40.2904640" lon="-71.3851030">
        <ele>1079.9</ele>
        <time>2020-11-15T16:09:06Z</time>
      </trkpt>
      <trkpt lat="-40.2904370" lon="-71.3851260">
        <ele>1080.1</ele>
        <time>2020-11-15T16:09:07Z</time>
      </trkpt>
      <trkpt lat="-40.2904120" lon="-71.3851480">
        <ele>1080.3</ele>
        <time>2020-11-15T16:09:08Z</time>
      </trkpt>
      <trkpt lat="-40.2903850" lon="-71.3851710">
        <ele>1080.5</ele>
        <time>2020-11-15T16:09:09Z</time>
      </trkpt>
      <trkpt lat="-40.2903610" lon="-71.3851950">
        <ele>1080.7</ele>
        <time>2020-11-15T16:09:10Z</time>
      </trkpt>
      <trkpt lat="-40.2903360" lon="-71.3852180">
        <ele>1080.9</ele>
        <time>2020-11-15T16:09:11Z</time>
      </trkpt>
      <trkpt lat="-40.2903100" lon="-71.3852440">
        <ele>1081.1</ele>
        <time>2020-11-15T16:09:12Z</time>
      </trkpt>
      <trkpt lat="-40.2902820" lon="-71.3852680">
        <ele>1081.3</ele>
        <time>2020-11-15T16:09:13Z</time>
      </trkpt>
      <trkpt lat="-40.2902570" lon="-71.3852920">
        <ele>1081.5</ele>
        <time>2020-11-15T16:09:14Z</time>
      </trkpt>
      <trkpt lat="-40.2902300" lon="-71.3853170">
        <ele>1081.7</ele>
        <time>2020-11-15T16:09:15Z</time>
      </trkpt>
      <trkpt lat="-40.2902050" lon="-71.3853450">
        <ele>1081.9</ele>
        <time>2020-11-15T16:09:16Z</time>
      </trkpt>
      <trkpt lat="-40.2901800" lon="-71.3853720">
        <ele>1082.1</ele>
        <time>2020-11-15T16:09:17Z</time>
      </trkpt>
      <trkpt lat="-40.2901560" lon="-71.3853980">
        <ele>1082.3</ele>
        <time>2020-11-15T16:09:18Z</time>
      </trkpt>
      <trkpt lat="-40.2901330" lon="-71.3854260">
        <ele>1082.5</ele>
        <time>2020-11-15T16:09:19Z</time>
      </trkpt>
      <trkpt lat="-40.2901100" lon="-71.3854570">
        <ele>1082.7</ele>
        <time>2020-11-15T16:09:20Z</time>
      </trkpt>
      <trkpt lat="-40.2900860" lon="-71.3854870">
        <ele>1082.9</ele>
        <time>2020-11-15T16:09:21Z</time>
      </trkpt>
      <trkpt lat="-40.2900630" lon="-71.3855180">
        <ele>1083.2</ele>
        <time>2020-11-15T16:09:22Z</time>
      </trkpt>
      <trkpt lat="-40.2900430" lon="-71.3855480">
        <ele>1083.3</ele>
        <time>2020-11-15T16:09:23Z</time>
      </trkpt>
      <trkpt lat="-40.2900210" lon="-71.3855810">
        <ele>1083.6</ele>
        <time>2020-11-15T16:09:24Z</time>
      </trkpt>
      <trkpt lat="-40.2899980" lon="-71.3856150">
        <ele>1083.8</ele>
        <time>2020-11-15T16:09:25Z</time>
      </trkpt>
      <trkpt lat="-40.2899770" lon="-71.3856490">
        <ele>1084.0</ele>
        <time>2020-11-15T16:09:26Z</time>
      </trkpt>
      <trkpt lat="-40.2899570" lon="-71.3856840">
        <ele>1084.2</ele>
        <time>2020-11-15T16:09:27Z</time>
      </trkpt>
      <trkpt lat="-40.2899390" lon="-71.3857200">
        <ele>1084.4</ele>
        <time>2020-11-15T16:09:28Z</time>
      </trkpt>
      <trkpt lat="-40.2899200" lon="-71.3857550">
        <ele>1084.6</ele>
        <time>2020-11-15T16:09:29Z</time>
      </trkpt>
      <trkpt lat="-40.2899010" lon="-71.3857910">
        <ele>1084.8</ele>
        <time>2020-11-15T16:09:30Z</time>
      </trkpt>
      <trkpt lat="-40.2898820" lon="-71.3858270">
        <ele>1085.0</ele>
        <time>2020-11-15T16:09:31Z</time>
      </trkpt>
      <trkpt lat="-40.2898660" lon="-71.3858630">
        <ele>1085.2</ele>
        <time>2020-11-15T16:09:32Z</time>
      </trkpt>
      <trkpt lat="-40.2898500" lon="-71.3858990">
        <ele>1085.4</ele>
        <time>2020-11-15T16:09:33Z</time>
      </trkpt>
      <trkpt lat="-40.2898310" lon="-71.3859360">
        <ele>1085.6</ele>
        <time>2020-11-15T16:09:34Z</time>
      </trkpt>
      <trkpt lat="-40.2898140" lon="-71.3859730">
        <ele>1085.8</ele>
        <time>2020-11-15T16:09:35Z</time>
      </trkpt>
      <trkpt lat="-40.2898000" lon="-71.3860100">
        <ele>1086.0</ele>
        <time>2020-11-15T16:09:36Z</time>
      </trkpt>
      <trkpt lat="-40.2897840" lon="-71.3860450">
        <ele>1086.2</ele>
        <time>2020-11-15T16:09:37Z</time>
      </trkpt>
      <trkpt lat="-40.2897670" lon="-71.3860800">
        <ele>1086.4</ele>
        <time>2020-11-15T16:09:38Z</time>
      </trkpt>
      <trkpt lat="-40.2897520" lon="-71.3861160">
        <ele>1086.6</ele>
        <time>2020-11-15T16:09:39Z</time>
      </trkpt>
      <trkpt lat="-40.2897370" lon="-71.3861510">
        <ele>1086.7</ele>
        <time>2020-11-15T16:09:40Z</time>
      </trkpt>
      <trkpt lat="-40.2897190" lon="-71.3861870">
        <ele>1087.0</ele>
        <time>2020-11-15T16:09:41Z</time>
      </trkpt>
      <trkpt lat="-40.2897010" lon="-71.3862240">
        <ele>1087.2</ele>
        <time>2020-11-15T16:09:42Z</time>
      </trkpt>
      <trkpt lat="-40.2896840" lon="-71.3862620">
        <ele>1087.4</ele>
        <time>2020-11-15T16:09:43Z</time>
      </trkpt>
      <trkpt lat="-40.2896670" lon="-71.3863020">
        <ele>1087.6</ele>
        <time>2020-11-15T16:09:44Z</time>
      </trkpt>
      <trkpt lat="-40.2896470" lon="-71.3863430">
        <ele>1087.8</ele>
        <time>2020-11-15T16:09:45Z</time>
      </trkpt>
      <trkpt lat="-40.2896300" lon="-71.3863820">
        <ele>1088.0</ele>
        <time>2020-11-15T16:09:46Z</time>
      </trkpt>
      <trkpt lat="-40.2896090" lon="-71.3864200">
        <ele>1088.3</ele>
        <time>2020-11-15T16:09:47Z</time>
      </trkpt>
      <trkpt lat="-40.2895880" lon="-71.3864570">
        <ele>1088.5</ele>
        <time>2020-11-15T16:09:48Z</time>
      </trkpt>
      <trkpt lat="-40.2895680" lon="-71.3864930">
        <ele>1088.7</ele>
        <time>2020-11-15T16:09:49Z</time>
      </trkpt>
      <trkpt lat="-40.2895490" lon="-71.3865290">
        <ele>1088.9</ele>
        <time>2020-11-15T16:09:50Z</time>
      </trkpt>
      <trkpt lat="-40.2895280" lon="-71.3865660">
        <ele>1089.1</ele>
        <time>2020-11-15T16:09:51Z</time>
      </trkpt>
      <trkpt lat="-40.2895070" lon="-71.3866020">
        <ele>1089.4</ele>
        <time>2020-11-15T16:09:52Z</time>
      </trkpt>
      <trkpt lat="-40.2894870" lon="-71.3866370">
        <ele>1089.6</ele>
        <time>2020-11-15T16:09:53Z</time>
      </trkpt>
      <trkpt lat="-40.2894690" lon="-71.3866750">
        <ele>1089.8</ele>
        <time>2020-11-15T16:09:54Z</time>
      </trkpt>
      <trkpt lat="-40.2894530" lon="-71.3867110">
        <ele>1090.0</ele>
        <time>2020-11-15T16:09:55Z</time>
      </trkpt>
      <trkpt lat="-40.2894340" lon="-71.3867480">
        <ele>1090.2</ele>
        <time>2020-11-15T16:09:56Z</time>
      </trkpt>
      <trkpt lat="-40.2894130" lon="-71.3867830">
        <ele>1090.4</ele>
        <time>2020-11-15T16:09:57Z</time>
      </trkpt>
      <trkpt lat="-40.2893920" lon="-71.3868150">
        <ele>1090.6</ele>
        <time>2020-11-15T16:09:58Z</time>
      </trkpt>
      <trkpt lat="-40.2893700" lon="-71.3868500">
        <ele>1090.8</ele>
        <time>2020-11-15T16:09:59Z</time>
      </trkpt>
      <trkpt lat="-40.2893490" lon="-71.3868850">
        <ele>1091.0</ele>
        <time>2020-11-15T16:10:00Z</time>
      </trkpt>
      <trkpt lat="-40.2893290" lon="-71.3869200">
        <ele>1091.3</ele>
        <time>2020-11-15T16:10:01Z</time>
      </trkpt>
      <trkpt lat="-40.2893090" lon="-71.3869530">
        <ele>1091.5</ele>
        <time>2020-11-15T16:10:02Z</time>
      </trkpt>
      <trkpt lat="-40.2892900" lon="-71.3869890">
        <ele>1091.7</ele>
        <time>2020-11-15T16:10:03Z</time>
      </trkpt>
      <trkpt lat="-40.2892720" lon="-71.3870240">
        <ele>1091.9</ele>
        <time>2020-11-15T16:10:04Z</time>
      </trkpt>
      <trkpt lat="-40.2892520" lon="-71.3870590">
        <ele>1092.1</ele>
        <time>2020-11-15T16:10:05Z</time>
      </trkpt>
      <trkpt lat="-40.2892320" lon="-71.3870970">
        <ele>1092.3</ele>
        <time>2020-11-15T16:10:06Z</time>
      </trkpt>
      <trkpt lat="-40.2892140" lon="-71.3871340">
        <ele>1092.5</ele>
        <time>2020-11-15T16:10:07Z</time>
      </trkpt>
      <trkpt lat="-40.2891950" lon="-71.3871700">
        <ele>1092.7</ele>
        <time>2020-11-15T16:10:08Z</time>
      </trkpt>
      <trkpt lat="-40.2891770" lon="-71.3872050">
        <ele>1092.9</ele>
        <time>2020-11-15T16:10:09Z</time>
      </trkpt>
      <trkpt lat="-40.2891590" lon="-71.3872410">
        <ele>1093.1</ele>
        <time>2020-11-15T16:10:10Z</time>
      </trkpt>
      <trkpt lat="-40.2891400" lon="-71.3872780">
        <ele>1093.3</ele>
        <time>2020-11-15T16:10:11Z</time>
      </trkpt>
      <trkpt lat="-40.2891210" lon="-71.3873160">
        <ele>1093.5</ele>
        <time>2020-11-15T16:10:12Z</time>
      </trkpt>
      <trkpt lat="-40.2891020" lon="-71.3873560">
        <ele>1093.7</ele>
        <time>2020-11-15T16:10:13Z</time>
      </trkpt>
      <trkpt lat="-40.2890830" lon="-71.3873960">
        <ele>1094.0</ele>
        <time>2020-11-15T16:10:14Z</time>
      </trkpt>
      <trkpt lat="-40.2890650" lon="-71.3874350">
        <ele>1094.2</ele>
        <time>2020-11-15T16:10:15Z</time>
      </trkpt>
      <trkpt lat="-40.2890480" lon="-71.3874750">
        <ele>1094.4</ele>
        <time>2020-11-15T16:10:16Z</time>
      </trkpt>
      <trkpt lat="-40.2890300" lon="-71.3875130">
        <ele>1094.6</ele>
        <time>2020-11-15T16:10:17Z</time>
      </trkpt>
      <trkpt lat="-40.2890120" lon="-71.3875500">
        <ele>1094.8</ele>
        <time>2020-11-15T16:10:18Z</time>
      </trkpt>
      <trkpt lat="-40.2889940" lon="-71.3875900">
        <ele>1095.0</ele>
        <time>2020-11-15T16:10:19Z</time>
      </trkpt>
      <trkpt lat="-40.2889770" lon="-71.3876310">
        <ele>1095.2</ele>
        <time>2020-11-15T16:10:20Z</time>
      </trkpt>
      <trkpt lat="-40.2889590" lon="-71.3876680">
        <ele>1095.4</ele>
        <time>2020-11-15T16:10:21Z</time>
      </trkpt>
      <trkpt lat="-40.2889390" lon="-71.3877040">
        <ele>1095.7</ele>
        <time>2020-11-15T16:10:22Z</time>
      </trkpt>
      <trkpt lat="-40.2889200" lon="-71.3877410">
        <ele>1095.9</ele>
        <time>2020-11-15T16:10:23Z</time>
      </trkpt>
      <trkpt lat="-40.2889000" lon="-71.3877770">
        <ele>1096.1</ele>
        <time>2020-11-15T16:10:24Z</time>
      </trkpt>
      <trkpt lat="-40.2888800" lon="-71.3878150">
        <ele>1096.3</ele>
        <time>2020-11-15T16:10:25Z</time>
      </trkpt>
      <trkpt lat="-40.2888610" lon="-71.3878520">
        <ele>1096.5</ele>
        <time>2020-11-15T16:10:26Z</time>
      </trkpt>
      <trkpt lat="-40.2888420" lon="-71.3878900">
        <ele>1096.7</ele>
        <time>2020-11-15T16:10:27Z</time>
      </trkpt>
      <trkpt lat="-40.2888230" lon="-71.3879280">
        <ele>1097.0</ele>
        <time>2020-11-15T16:10:28Z</time>
      </trkpt>
      <trkpt lat="-40.2888050" lon="-71.3879660">
        <ele>1097.2</ele>
        <time>2020-11-15T16:10:29Z</time>
      </trkpt>
      <trkpt lat="-40.2887870" lon="-71.3880050">
        <ele>1097.4</ele>
        <time>2020-11-15T16:10:30Z</time>
      </trkpt>
      <trkpt lat="-40.2887670" lon="-71.3880450">
        <ele>1097.7</ele>
        <time>2020-11-15T16:10:31Z</time>
      </trkpt>
      <trkpt lat="-40.2887480" lon="-71.3880830">
        <ele>1097.9</ele>
        <time>2020-11-15T16:10:32Z</time>
      </trkpt>
      <trkpt lat="-40.2887260" lon="-71.3881220">
        <ele>1098.2</ele>
        <time>2020-11-15T16:10:33Z</time>
      </trkpt>
      <trkpt lat="-40.2887060" lon="-71.3881610">
        <ele>1098.4</ele>
        <time>2020-11-15T16:10:34Z</time>
      </trkpt>
      <trkpt lat="-40.2886860" lon="-71.3881990">
        <ele>1098.6</ele>
        <time>2020-11-15T16:10:35Z</time>
      </trkpt>
      <trkpt lat="-40.2886680" lon="-71.3882350">
        <ele>1098.8</ele>
        <time>2020-11-15T16:10:36Z</time>
      </trkpt>
      <trkpt lat="-40.2886510" lon="-71.3882700">
        <ele>1098.9</ele>
        <time>2020-11-15T16:10:37Z</time>
      </trkpt>
      <trkpt lat="-40.2886350" lon="-71.3883030">
        <ele>1099.1</ele>
        <time>2020-11-15T16:10:38Z</time>
      </trkpt>
      <trkpt lat="-40.2886180" lon="-71.3883330">
        <ele>1099.2</ele>
        <time>2020-11-15T16:10:39Z</time>
      </trkpt>
      <trkpt lat="-40.2886030" lon="-71.3883620">
        <ele>1099.3</ele>
        <time>2020-11-15T16:10:40Z</time>
      </trkpt>
      <trkpt lat="-40.2885880" lon="-71.3883880">
        <ele>1099.4</ele>
        <time>2020-11-15T16:10:41Z</time>
      </trkpt>
      <trkpt lat="-40.2885750" lon="-71.3884110">
        <ele>1099.5</ele>
        <time>2020-11-15T16:10:42Z</time>
      </trkpt>
      <trkpt lat="-40.2885640" lon="-71.3884330">
        <ele>1099.6</ele>
        <time>2020-11-15T16:10:43Z</time>
      </trkpt>
      <trkpt lat="-40.2885570" lon="-71.3884550">
        <ele>1099.7</ele>
        <time>2020-11-15T16:10:44Z</time>
      </trkpt>
      <trkpt lat="-40.2885500" lon="-71.3884760">
        <ele>1099.8</ele>
        <time>2020-11-15T16:10:45Z</time>
      </trkpt>
      <trkpt lat="-40.2885420" lon="-71.3884930">
        <ele>1099.8</ele>
        <time>2020-11-15T16:10:46Z</time>
      </trkpt>
      <trkpt lat="-40.2885360" lon="-71.3885080">
        <ele>1099.8</ele>
        <time>2020-11-15T16:10:47Z</time>
      </trkpt>
      <trkpt lat="-40.2885300" lon="-71.3885200">
        <ele>1099.9</ele>
        <time>2020-11-15T16:10:48Z</time>
      </trkpt>
      <trkpt lat="-40.2885260" lon="-71.3885240">
        <ele>1099.9</ele>
        <time>2020-11-15T16:10:49Z</time>
      </trkpt>
      <trkpt lat="-40.2885220" lon="-71.3885220">
        <ele>1099.9</ele>
        <time>2020-11-15T16:10:50Z</time>
      </trkpt>
      <trkpt lat="-40.2885190" lon="-71.3885210">
        <ele>1099.9</ele>
        <time>2020-11-15T16:10:51Z</time>
      </trkpt>
      <trkpt lat="-40.2885200" lon="-71.3885210">
        <ele>1099.9</ele>
        <time>2020-11-15T16:10:52Z</time>
      </trkpt>
      <trkpt lat="-40.2885230" lon="-71.3885220">
        <ele>1099.9</ele>
        <time>2020-11-15T16:10:53Z</time>
      </trkpt>
      <trkpt lat="-40.2885240" lon="-71.3885230">
        <ele>1099.9</ele>
        <time>2020-11-15T16:10:54Z</time>
      </trkpt>
      <trkpt lat="-40.2885250" lon="-71.3885230">
        <ele>1099.9</ele>
        <time>2020-11-15T16:10:55Z</time>
      </trkpt>
      <trkpt lat="-40.2885250" lon="-71.3885250">
        <ele>1099.9</ele>
        <time>2020-11-15T16:10:56Z</time>
      </trkpt>
      <trkpt lat="-40.2885250" lon="-71.3885240">
        <ele>1099.9</ele>
        <time>2020-11-15T16:10:57Z</time>
      </trkpt>
      <trkpt lat="-40.2885230" lon="-71.3885220">
        <ele>1099.9</ele>
        <time>2020-11-15T16:10:58Z</time>
      </trkpt>
      <trkpt lat="-40.2885240" lon="-71.3885150">
        <ele>1100.0</ele>
        <time>2020-11-15T16:10:59Z</time>
      </trkpt>
      <trkpt lat="-40.2885260" lon="-71.3885150">
        <ele>1100.0</ele>
        <time>2020-11-15T16:11:00Z</time>
      </trkpt>
      <trkpt lat="-40.2885280" lon="-71.3885170">
        <ele>1100.0</ele>
        <time>2020-11-15T16:11:01Z</time>
      </trkpt>
      <trkpt lat="-40.2885290" lon="-71.3885170">
        <ele>1100.0</ele>
        <time>2020-11-15T16:11:02Z</time>
      </trkpt>
      <trkpt lat="-40.2885320" lon="-71.3885160">
        <ele>1100.0</ele>
        <time>2020-11-15T16:11:03Z</time>
      </trkpt>
      <trkpt lat="-40.2885330" lon="-71.3885140">
        <ele>1100.0</ele>
        <time>2020-11-15T16:11:04Z</time>
      </trkpt>
      <trkpt lat="-40.2885350" lon="-71.3885130">
        <ele>1100.0</ele>
        <time>2020-11-15T16:11:05Z</time>
      </trkpt>
      <trkpt lat="-40.2885340" lon="-71.3885110">
        <ele>1100.0</ele>
        <time>2020-11-15T16:11:06Z</time>
      </trkpt>
      <trkpt lat="-40.2885350" lon="-71.3885090">
        <ele>1100.0</ele>
        <time>2020-11-15T16:11:07Z</time>
      </trkpt>
      <trkpt lat="-40.2885370" lon="-71.3885100">
        <ele>1100.0</ele>
        <time>2020-11-15T16:11:08Z</time>
      </trkpt>
      <trkpt lat="-40.2885380" lon="-71.3885090">
        <ele>1100.0</ele>
        <time>2020-11-15T16:11:09Z</time>
      </trkpt>
      <trkpt lat="-40.2885400" lon="-71.3885110">
        <ele>1100.0</ele>
        <time>2020-11-15T16:11:10Z</time>
      </trkpt>
      <trkpt lat="-40.2885410" lon="-71.3885130">
        <ele>1100.0</ele>
        <time>2020-11-15T16:11:11Z</time>
      </trkpt>
      <trkpt lat="-40.2885420" lon="-71.3885200">
        <ele>1100.0</ele>
        <time>2020-11-15T16:11:12Z</time>
      </trkpt>
      <trkpt lat="-40.2885450" lon="-71.3885190">
        <ele>1100.0</ele>
        <time>2020-11-15T16:11:13Z</time>
      </trkpt>
      <trkpt lat="-40.2885450" lon="-71.3885240">
        <ele>1100.0</ele>
        <time>2020-11-15T16:11:14Z</time>
      </trkpt>
      <trkpt lat="-40.2885380" lon="-71.3885150">
        <ele>1100.1</ele>
        <time>2020-11-15T16:11:15Z</time>
      </trkpt>
      <trkpt lat="-40.2885380" lon="-71.3885150">
        <ele>1100.1</ele>
        <time>2020-11-15T16:11:16Z</time>
      </trkpt>
      <trkpt lat="-40.2885390" lon="-71.3885130">
        <ele>1100.1</ele>
        <time>2020-11-15T16:11:17Z</time>
      </trkpt>
      <trkpt lat="-40.2885410" lon="-71.3885080">
        <ele>1100.1</ele>
        <time>2020-11-15T16:11:18Z</time>
      </trkpt>
      <trkpt lat="-40.2885400" lon="-71.3885070">
        <ele>1100.1</ele>
        <time>2020-11-15T16:11:19Z</time>
      </trkpt>
      <trkpt lat="-40.2885400" lon="-71.3885080">
        <ele>1100.1</ele>
        <time>2020-11-15T16:11:20Z</time>
      </trkpt>
      <trkpt lat="-40.2885390" lon="-71.3885090">
        <ele>1100.1</ele>
        <time>2020-11-15T16:11:21Z</time>
      </trkpt>
      <trkpt lat="-40.2885400" lon="-71.3885110">
        <ele>1100.1</ele>
        <time>2020-11-15T16:11:22Z</time>
      </trkpt>
      <trkpt lat="-40.2885410" lon="-71.3885120">
        <ele>1100.1</ele>
        <time>2020-11-15T16:11:23Z</time>
      </trkpt>
      <trkpt lat="-40.2885440" lon="-71.3885110">
        <ele>1100.1</ele>
        <time>2020-11-15T16:11:24Z</time>
      </trkpt>
      <trkpt lat="-40.2885450" lon="-71.3885100">
        <ele>1100.1</ele>
        <time>2020-11-15T16:11:25Z</time>
      </trkpt>
      <trkpt lat="-40.2885450" lon="-71.3885100">
        <ele>1100.1</ele>
        <time>2020-11-15T16:11:26Z</time>
      </trkpt>
      <trkpt lat="-40.2885450" lon="-71.3885100">
        <ele>1100.1</ele>
        <time>2020-11-15T16:11:27Z</time>
      </trkpt>
      <trkpt lat="-40.2885310" lon="-71.3885140">
        <ele>1100.1</ele>
        <time>2020-11-15T16:11:28Z</time>
      </trkpt>
      <trkpt lat="-40.2885310" lon="-71.3885100">
        <ele>1100.1</ele>
        <time>2020-11-15T16:11:29Z</time>
      </trkpt>
      <trkpt lat="-40.2885320" lon="-71.3885120">
        <ele>1100.1</ele>
        <time>2020-11-15T16:11:30Z</time>
      </trkpt>
      <trkpt lat="-40.2885320" lon="-71.3885120">
        <ele>1100.1</ele>
        <time>2020-11-15T16:11:31Z</time>
      </trkpt>
      <trkpt lat="-40.2885320" lon="-71.3885140">
        <ele>1100.1</ele>
        <time>2020-11-15T16:11:32Z</time>
      </trkpt>
      <trkpt lat="-40.2885330" lon="-71.3885160">
        <ele>1100.1</ele>
        <time>2020-11-15T16:11:33Z</time>
      </trkpt>
      <trkpt lat="-40.2885360" lon="-71.3885180">
        <ele>1100.2</ele>
        <time>2020-11-15T16:11:34Z</time>
      </trkpt>
      <trkpt lat="-40.2885390" lon="-71.3885170">
        <ele>1100.2</ele>
        <time>2020-11-15T16:11:35Z</time>
      </trkpt>
      <trkpt lat="-40.2885420" lon="-71.3885170">
        <ele>1100.2</ele>
        <time>2020-11-15T16:11:36Z</time>
      </trkpt>
      <trkpt lat="-40.2885410" lon="-71.3885180">
        <ele>1100.2</ele>
        <time>2020-11-15T16:11:37Z</time>
      </trkpt>
      <trkpt lat="-40.2885400" lon="-71.3885180">
        <ele>1100.2</ele>
        <time>2020-11-15T16:11:38Z</time>
      </trkpt>
      <trkpt lat="-40.2885400" lon="-71.3885130">
        <ele>1100.2</ele>
        <time>2020-11-15T16:11:39Z</time>
      </trkpt>
      <trkpt lat="-40.2885420" lon="-71.3885140">
        <ele>1100.2</ele>
        <time>2020-11-15T16:11:40Z</time>
      </trkpt>
      <trkpt lat="-40.2885440" lon="-71.3885140">
        <ele>1100.2</ele>
        <time>2020-11-15T16:11:41Z</time>
      </trkpt>
      <trkpt lat="-40.2885460" lon="-71.3885160">
        <ele>1100.2</ele>
        <time>2020-11-15T16:11:42Z</time>
      </trkpt>
      <trkpt lat="-40.2885440" lon="-71.3885180">
        <ele>1100.2</ele>
        <time>2020-11-15T16:11:43Z</time>
      </trkpt>
      <trkpt lat="-40.2885420" lon="-71.3885180">
        <ele>1100.2</ele>
        <time>2020-11-15T16:11:44Z</time>
      </trkpt>
      <trkpt lat="-40.2885420" lon="-71.3885150">
        <ele>1100.2</ele>
        <time>2020-11-15T16:11:45Z</time>
      </trkpt>
      <trkpt lat="-40.2885420" lon="-71.3885140">
        <ele>1100.2</ele>
        <time>2020-11-15T16:11:46Z</time>
      </trkpt>
      <trkpt lat="-40.2885430" lon="-71.3885130">
        <ele>1100.2</ele>
        <time>2020-11-15T16:11:47Z</time>
      </trkpt>
      <trkpt lat="-40.2885420" lon="-71.3885150">
        <ele>1100.2</ele>
        <time>2020-11-15T16:11:48Z</time>
      </trkpt>
      <trkpt lat="-40.2885450" lon="-71.3885180">
        <ele>1100.2</ele>
        <time>2020-11-15T16:11:49Z</time>
      </trkpt>
      <trkpt lat="-40.2885440" lon="-71.3885190">
        <ele>1100.2</ele>
        <time>2020-11-15T16:11:50Z</time>
      </trkpt>
      <trkpt lat="-40.2885420" lon="-71.3885190">
        <ele>1100.2</ele>
        <time>2020-11-15T16:11:51Z</time>
      </trkpt>
      <trkpt lat="-40.2885430" lon="-71.3885210">
        <ele>1100.2</ele>
        <time>2020-11-15T16:11:52Z</time>
      </trkpt>
      <trkpt lat="-40.2885400" lon="-71.3885220">
        <ele>1100.2</ele>
        <time>2020-11-15T16:11:53Z</time>
      </trkpt>
      <trkpt lat="-40.2885420" lon="-71.3885230">
        <ele>1100.2</ele>
        <time>2020-11-15T16:11:54Z</time>
      </trkpt>
      <trkpt lat="-40.2885440" lon="-71.3885250">
        <ele>1100.2</ele>
        <time>2020-11-15T16:11:55Z</time>
      </trkpt>
      <trkpt lat="-40.2885470" lon="-71.3885240">
        <ele>1100.2</ele>
        <time>2020-11-15T16:11:56Z</time>
      </trkpt>
      <trkpt lat="-40.2885480" lon="-71.3885230">
        <ele>1100.2</ele>
        <time>2020-11-15T16:11:57Z</time>
      </trkpt>
      <trkpt lat="-40.2885480" lon="-71.3885230">
        <ele>1100.2</ele>
        <time>2020-11-15T16:11:58Z</time>
      </trkpt>
      <trkpt lat="-40.2885510" lon="-71.3885230">
        <ele>1100.2</ele>
        <time>2020-11-15T16:11:59Z</time>
      </trkpt>
      <trkpt lat="-40.2885560" lon="-71.3885230">
        <ele>1100.3</ele>
        <time>2020-11-15T16:12:00Z</time>
      </trkpt>
      <trkpt lat="-40.2885580" lon="-71.3885250">
        <ele>1100.3</ele>
        <time>2020-11-15T16:12:01Z</time>
      </trkpt>
      <trkpt lat="-40.2885580" lon="-71.3885270">
        <ele>1100.3</ele>
        <time>2020-11-15T16:12:02Z</time>
      </trkpt>
      <trkpt lat="-40.2885590" lon="-71.3885290">
        <ele>1100.3</ele>
        <time>2020-11-15T16:12:03Z</time>
      </trkpt>
      <trkpt lat="-40.2885600" lon="-71.3885270">
        <ele>1100.3</ele>
        <time>2020-11-15T16:12:04Z</time>
      </trkpt>
      <trkpt lat="-40.2885600" lon="-71.3885270">
        <ele>1100.3</ele>
        <time>2020-11-15T16:12:05Z</time>
      </trkpt>
      <trkpt lat="-40.2885600" lon="-71.3885250">
        <ele>1100.3</ele>
        <time>2020-11-15T16:12:06Z</time>
      </trkpt>
      <trkpt lat="-40.2885610" lon="-71.3885250">
        <ele>1100.3</ele>
        <time>2020-11-15T16:12:07Z</time>
      </trkpt>
      <trkpt lat="-40.2885630" lon="-71.3885250">
        <ele>1100.3</ele>
        <time>2020-11-15T16:12:08Z</time>
      </trkpt>
      <trkpt lat="-40.2885680" lon="-71.3885250">
        <ele>1100.3</ele>
        <time>2020-11-15T16:12:09Z</time>
      </trkpt>
      <trkpt lat="-40.2885700" lon="-71.3885230">
        <ele>1100.3</ele>
        <time>2020-11-15T16:12:10Z</time>
      </trkpt>
      <trkpt lat="-40.2885750" lon="-71.3885200">
        <ele>1100.3</ele>
        <time>2020-11-15T16:12:11Z</time>
      </trkpt>
      <trkpt lat="-40.2885690" lon="-71.3885150">
        <ele>1100.3</ele>
        <time>2020-11-15T16:12:12Z</time>
      </trkpt>
      <trkpt lat="-40.2885670" lon="-71.3885130">
        <ele>1100.3</ele>
        <time>2020-11-15T16:12:13Z</time>
      </trkpt>
      <trkpt lat="-40.2885650" lon="-71.3885100">
        <ele>1100.3</ele>
        <time>2020-11-15T16:12:14Z</time>
      </trkpt>
      <trkpt lat="-40.2885640" lon="-71.3885080">
        <ele>1100.3</ele>
        <time>2020-11-15T16:12:15Z</time>
      </trkpt>
      <trkpt lat="-40.2885640" lon="-71.3885070">
        <ele>1100.3</ele>
        <time>2020-11-15T16:12:16Z</time>
      </trkpt>
      <trkpt lat="-40.2885630" lon="-71.3885070">
        <ele>1100.3</ele>
        <time>2020-11-15T16:12:17Z</time>
      </trkpt>
      <trkpt lat="-40.2885620" lon="-71.3885060">
        <ele>1100.3</ele>
        <time>2020-11-15T16:12:18Z</time>
      </trkpt>
      <trkpt lat="-40.2885610" lon="-71.3885030">
        <ele>1100.3</ele>
        <time>2020-11-15T16:12:19Z</time>
      </trkpt>
      <trkpt lat="-40.2885610" lon="-71.3885050">
        <ele>1100.3</ele>
        <time>2020-11-15T16:12:20Z</time>
      </trkpt>
      <trkpt lat="-40.2885640" lon="-71.3885100">
        <ele>1100.3</ele>
        <time>2020-11-15T16:12:21Z</time>
      </trkpt>
      <trkpt lat="-40.2885620" lon="-71.3885170">
        <ele>1100.3</ele>
        <time>2020-11-15T16:12:22Z</time>
      </trkpt>
      <trkpt lat="-40.2885570" lon="-71.3885200">
        <ele>1100.3</ele>
        <time>2020-11-15T16:12:23Z</time>
      </trkpt>
      <trkpt lat="-40.2885570" lon="-71.3885190">
        <ele>1100.3</ele>
        <time>2020-11-15T16:12:24Z</time>
      </trkpt>
      <trkpt lat="-40.2885530" lon="-71.3885190">
        <ele>1100.3</ele>
        <time>2020-11-15T16:12:25Z</time>
      </trkpt>
      <trkpt lat="-40.2885500" lon="-71.3885250">
        <ele>1100.4</ele>
        <time>2020-11-15T16:12:26Z</time>
      </trkpt>
      <trkpt lat="-40.2885480" lon="-71.3885390">
        <ele>1100.4</ele>
        <time>2020-11-15T16:12:27Z</time>
      </trkpt>
      <trkpt lat="-40.2885430" lon="-71.3885500">
        <ele>1100.4</ele>
        <time>2020-11-15T16:12:28Z</time>
      </trkpt>
      <trkpt lat="-40.2885310" lon="-71.3885690">
        <ele>1100.4</ele>
        <time>2020-11-15T16:12:29Z</time>
      </trkpt>
      <trkpt lat="-40.2885230" lon="-71.3885870">
        <ele>1100.4</ele>
        <time>2020-11-15T16:12:30Z</time>
      </trkpt>
      <trkpt lat="-40.2885090" lon="-71.3886040">
        <ele>1100.4</ele>
        <time>2020-11-15T16:12:31Z</time>
      </trkpt>
      <trkpt lat="-40.2884900" lon="-71.3886230">
        <ele>1100.4</ele>
        <time>2020-11-15T16:12:32Z</time>
      </trkpt>
      <trkpt lat="-40.2884720" lon="-71.3886480">
        <ele>1100.4</ele>
        <time>2020-11-15T16:12:33Z</time>
      </trkpt>
      <trkpt lat="-40.2884520" lon="-71.3886750">
        <ele>1100.4</ele>
        <time>2020-11-15T16:12:34Z</time>
      </trkpt>
      <trkpt lat="-40.2884320" lon="-71.3887020">
        <ele>1100.3</ele>
        <time>2020-11-15T16:12:35Z</time>
      </trkpt>
      <trkpt lat="-40.2884150" lon="-71.3887270">
        <ele>1100.3</ele>
        <time>2020-11-15T16:12:36Z</time>
      </trkpt>
      <trkpt lat="-40.2883980" lon="-71.3887530">
        <ele>1100.3</ele>
        <time>2020-11-15T16:12:37Z</time>
      </trkpt>
      <trkpt lat="-40.2883780" lon="-71.3887820">
        <ele>1100.2</ele>
        <time>2020-11-15T16:12:38Z</time>
      </trkpt>
      <trkpt lat="-40.2883540" lon="-71.3888130">
        <ele>1100.2</ele>
        <time>2020-11-15T16:12:39Z</time>
      </trkpt>
      <trkpt lat="-40.2883260" lon="-71.3888460">
        <ele>1100.1</ele>
        <time>2020-11-15T16:12:40Z</time>
      </trkpt>
      <trkpt lat="-40.2882960" lon="-71.3888830">
        <ele>1100.0</ele>
        <time>2020-11-15T16:12:41Z</time>
      </trkpt>
      <trkpt lat="-40.2882650" lon="-71.3889210">
        <ele>1099.9</ele>
        <time>2020-11-15T16:12:42Z</time>
      </trkpt>
      <trkpt lat="-40.2882340" lon="-71.3889580">
        <ele>1099.8</ele>
        <time>2020-11-15T16:12:43Z</time>
      </trkpt>
      <trkpt lat="-40.2882000" lon="-71.3889920">
        <ele>1099.6</ele>
        <time>2020-11-15T16:12:44Z</time>
      </trkpt>
      <trkpt lat="-40.2881670" lon="-71.3890220">
        <ele>1099.5</ele>
        <time>2020-11-15T16:12:45Z</time>
      </trkpt>
      <trkpt lat="-40.2881320" lon="-71.3890520">
        <ele>1099.3</ele>
        <time>2020-11-15T16:12:46Z</time>
      </trkpt>
      <trkpt lat="-40.2880960" lon="-71.3890820">
        <ele>1099.1</ele>
        <time>2020-11-15T16:12:47Z</time>
      </trkpt>
      <trkpt lat="-40.2880570" lon="-71.3891110">
        <ele>1098.8</ele>
        <time>2020-11-15T16:12:48Z</time>
      </trkpt>
      <trkpt lat="-40.2880160" lon="-71.3891370">
        <ele>1098.5</ele>
        <time>2020-11-15T16:12:49Z</time>
      </trkpt>
      <trkpt lat="-40.2879690" lon="-71.3891590">
        <ele>1098.2</ele>
        <time>2020-11-15T16:12:50Z</time>
      </trkpt>
      <trkpt lat="-40.2879210" lon="-71.3891810">
        <ele>1097.9</ele>
        <time>2020-11-15T16:12:51Z</time>
      </trkpt>
      <trkpt lat="-40.2878690" lon="-71.3891980">
        <ele>1097.5</ele>
        <time>2020-11-15T16:12:52Z</time>
      </trkpt>
      <trkpt lat="-40.2878100" lon="-71.3892090">
        <ele>1097.1</ele>
        <time>2020-11-15T16:12:53Z</time>
      </trkpt>
      <trkpt lat="-40.2877480" lon="-71.3892140">
        <ele>1096.6</ele>
        <time>2020-11-15T16:12:54Z</time>
      </trkpt>
      <trkpt lat="-40.2876810" lon="-71.3892160">
        <ele>1096.1</ele>
        <time>2020-11-15T16:12:55Z</time>
      </trkpt>
      <trkpt lat="-40.2876130" lon="-71.3892120">
        <ele>1095.6</ele>
        <time>2020-11-15T16:12:56Z</time>
      </trkpt>
      <trkpt lat="-40.2875410" lon="-71.3892040">
        <ele>1095.1</ele>
        <time>2020-11-15T16:12:57Z</time>
      </trkpt>
      <trkpt lat="-40.2874670" lon="-71.3891860">
        <ele>1094.5</ele>
        <time>2020-11-15T16:12:58Z</time>
      </trkpt>
      <trkpt lat="-40.2873920" lon="-71.3891620">
        <ele>1093.9</ele>
        <time>2020-11-15T16:12:59Z</time>
      </trkpt>
      <trkpt lat="-40.2873160" lon="-71.3891410">
        <ele>1093.4</ele>
        <time>2020-11-15T16:13:00Z</time>
      </trkpt>
      <trkpt lat="-40.2872400" lon="-71.3891220">
        <ele>1092.8</ele>
        <time>2020-11-15T16:13:01Z</time>
      </trkpt>
      <trkpt lat="-40.2871610" lon="-71.3891030">
        <ele>1092.3</ele>
        <time>2020-11-15T16:13:02Z</time>
      </trkpt>
      <trkpt lat="-40.2870790" lon="-71.3890780">
        <ele>1091.7</ele>
        <time>2020-11-15T16:13:03Z</time>
      </trkpt>
      <trkpt lat="-40.2869950" lon="-71.3890510">
        <ele>1091.1</ele>
        <time>2020-11-15T16:13:04Z</time>
      </trkpt>
      <trkpt lat="-40.2869080" lon="-71.3890250">
        <ele>1090.5</ele>
        <time>2020-11-15T16:13:05Z</time>
      </trkpt>
      <trkpt lat="-40.2868190" lon="-71.3890020">
        <ele>1089.9</ele>
        <time>2020-11-15T16:13:06Z</time>
      </trkpt>
      <trkpt lat="-40.2867270" lon="-71.3889810">
        <ele>1089.2</ele>
        <time>2020-11-15T16:13:07Z</time>
      </trkpt>
      <trkpt lat="-40.2866290" lon="-71.3889680">
        <ele>1088.6</ele>
        <time>2020-11-15T16:13:08Z</time>
      </trkpt>
      <trkpt lat="-40.2865300" lon="-71.3889600">
        <ele>1088.0</ele>
        <time>2020-11-15T16:13:09Z</time>
      </trkpt>
      <trkpt lat="-40.2864280" lon="-71.3889560">
        <ele>1087.5</ele>
        <time>2020-11-15T16:13:10Z</time>
      </trkpt>
      <trkpt lat="-40.2863250" lon="-71.3889620">
        <ele>1087.2</ele>
        <time>2020-11-15T16:13:11Z</time>
      </trkpt>
      <trkpt lat="-40.2862230" lon="-71.3889770">
        <ele>1086.9</ele>
        <time>2020-11-15T16:13:12Z</time>
      </trkpt>
      <trkpt lat="-40.2861210" lon="-71.3889980">
        <ele>1086.7</ele>
        <time>2020-11-15T16:13:13Z</time>
      </trkpt>
      <trkpt lat="-40.2860200" lon="-71.3890270">
        <ele>1086.6</ele>
        <time>2020-11-15T16:13:14Z</time>
      </trkpt>
      <trkpt lat="-40.2859200" lon="-71.3890570">
        <ele>1086.5</ele>
        <time>2020-11-15T16:13:15Z</time>
      </trkpt>
      <trkpt lat="-40.2858250" lon="-71.3890910">
        <ele>1086.5</ele>
        <time>2020-11-15T16:13:16Z</time>
      </trkpt>
      <trkpt lat="-40.2857330" lon="-71.3891230">
        <ele>1086.5</ele>
        <time>2020-11-15T16:13:17Z</time>
      </trkpt>
      <trkpt lat="-40.2856390" lon="-71.3891560">
        <ele>1086.5</ele>
        <time>2020-11-15T16:13:18Z</time>
      </trkpt>
      <trkpt lat="-40.2855480" lon="-71.3891870">
        <ele>1086.5</ele>
        <time>2020-11-15T16:13:19Z</time>
      </trkpt>
      <trkpt lat="-40.2854560" lon="-71.3892190">
        <ele>1086.5</ele>
        <time>2020-11-15T16:13:20Z</time>
      </trkpt>
      <trkpt lat="-40.2853640" lon="-71.3892520">
        <ele>1086.6</ele>
        <time>2020-11-15T16:13:21Z</time>
      </trkpt>
      <trkpt lat="-40.2852750" lon="-71.3892800">
        <ele>1086.7</ele>
        <time>2020-11-15T16:13:22Z</time>
      </trkpt>
      <trkpt lat="-40.2851860" lon="-71.3893060">
        <ele>1086.8</ele>
        <time>2020-11-15T16:13:23Z</time>
      </trkpt>
      <trkpt lat="-40.2850980" lon="-71.3893300">
        <ele>1086.8</ele>
        <time>2020-11-15T16:13:24Z</time>
      </trkpt>
      <trkpt lat="-40.2850120" lon="-71.3893510">
        <ele>1086.9</ele>
        <time>2020-11-15T16:13:25Z</time>
      </trkpt>
      <trkpt lat="-40.2849260" lon="-71.3893690">
        <ele>1086.9</ele>
        <time>2020-11-15T16:13:26Z</time>
      </trkpt>
      <trkpt lat="-40.2848420" lon="-71.3893840">
        <ele>1087.0</ele>
        <time>2020-11-15T16:13:27Z</time>
      </trkpt>
      <trkpt lat="-40.2847610" lon="-71.3893990">
        <ele>1087.0</ele>
        <time>2020-11-15T16:13:28Z</time>
      </trkpt>
      <trkpt lat="-40.2846800" lon="-71.3894130">
        <ele>1087.1</ele>
        <time>2020-11-15T16:13:29Z</time>
      </trkpt>
      <trkpt lat="-40.2846010" lon="-71.3894240">
        <ele>1087.2</ele>
        <time>2020-11-15T16:13:30Z</time>
      </trkpt>
      <trkpt lat="-40.2845190" lon="-71.3894320">
        <ele>1087.4</ele>
        <time>2020-11-15T16:13:31Z</time>
      </trkpt>
      <trkpt lat="-40.2844400" lon="-71.3894340">
        <ele>1087.5</ele>
        <time>2020-11-15T16:13:32Z</time>
      </trkpt>
      <trkpt lat="-40.2843610" lon="-71.3894350">
        <ele>1087.7</ele>
        <time>2020-11-15T16:13:33Z</time>
      </trkpt>
      <trkpt lat="-40.2842840" lon="-71.3894370">
        <ele>1087.9</ele>
        <time>2020-11-15T16:13:34Z</time>
      </trkpt>
      <trkpt lat="-40.2842100" lon="-71.3894360">
        <ele>1088.1</ele>
        <time>2020-11-15T16:13:35Z</time>
      </trkpt>
      <trkpt lat="-40.2841380" lon="-71.3894360">
        <ele>1088.3</ele>
        <time>2020-11-15T16:13:36Z</time>
      </trkpt>
      <trkpt lat="-40.2840670" lon="-71.3894340">
        <ele>1088.5</ele>
        <time>2020-11-15T16:13:37Z</time>
      </trkpt>
      <trkpt lat="-40.2839990" lon="-71.3894300">
        <ele>1088.7</ele>
        <time>2020-11-15T16:13:38Z</time>
      </trkpt>
      <trkpt lat="-40.2839320" lon="-71.3894250">
        <ele>1088.9</ele>
        <time>2020-11-15T16:13:39Z</time>
      </trkpt>
      <trkpt lat="-40.2838670" lon="-71.3894210">
        <ele>1089.1</ele>
        <time>2020-11-15T16:13:40Z</time>
      </trkpt>
      <trkpt lat="-40.2838010" lon="-71.3894170">
        <ele>1089.3</ele>
        <time>2020-11-15T16:13:41Z</time>
      </trkpt>
      <trkpt lat="-40.2837390" lon="-71.3894100">
        <ele>1089.5</ele>
        <time>2020-11-15T16:13:42Z</time>
      </trkpt>
      <trkpt lat="-40.2836760" lon="-71.3894020">
        <ele>1089.7</ele>
        <time>2020-11-15T16:13:43Z</time>
      </trkpt>
      <trkpt lat="-40.2836130" lon="-71.3893940">
        <ele>1089.9</ele>
        <time>2020-11-15T16:13:44Z</time>
      </trkpt>
      <trkpt lat="-40.2835500" lon="-71.3893870">
        <ele>1090.1</ele>
        <time>2020-11-15T16:13:45Z</time>
      </trkpt>
      <trkpt lat="-40.2834850" lon="-71.3893810">
        <ele>1090.3</ele>
        <time>2020-11-15T16:13:46Z</time>
      </trkpt>
      <trkpt lat="-40.2834210" lon="-71.3893770">
        <ele>1090.5</ele>
        <time>2020-11-15T16:13:47Z</time>
      </trkpt>
      <trkpt lat="-40.2833590" lon="-71.3893710">
        <ele>1090.6</ele>
        <time>2020-11-15T16:13:48Z</time>
      </trkpt>
      <trkpt lat="-40.2832990" lon="-71.3893680">
        <ele>1090.8</ele>
        <time>2020-11-15T16:13:49Z</time>
      </trkpt>
      <trkpt lat="-40.2832370" lon="-71.3893660">
        <ele>1091.0</ele>
        <time>2020-11-15T16:13:50Z</time>
      </trkpt>
      <trkpt lat="-40.2831780" lon="-71.3893590">
        <ele>1091.2</ele>
        <time>2020-11-15T16:13:51Z</time>
      </trkpt>
      <trkpt lat="-40.2831190" lon="-71.3893550">
        <ele>1091.4</ele>
        <time>2020-11-15T16:13:52Z</time>
      </trkpt>
      <trkpt lat="-40.2830580" lon="-71.3893510">
        <ele>1091.7</ele>
        <time>2020-11-15T16:13:53Z</time>
      </trkpt>
      <trkpt lat="-40.2830000" lon="-71.3893470">
        <ele>1092.0</ele>
        <time>2020-11-15T16:13:54Z</time>
      </trkpt>
      <trkpt lat="-40.2829430" lon="-71.3893410">
        <ele>1092.2</ele>
        <time>2020-11-15T16:13:55Z</time>
      </trkpt>
      <trkpt lat="-40.2828860" lon="-71.3893350">
        <ele>1092.5</ele>
        <time>2020-11-15T16:13:56Z</time>
      </trkpt>
      <trkpt lat="-40.2828300" lon="-71.3893310">
        <ele>1092.8</ele>
        <time>2020-11-15T16:13:57Z</time>
      </trkpt>
      <trkpt lat="-40.2827760" lon="-71.3893270">
        <ele>1093.1</ele>
        <time>2020-11-15T16:13:58Z</time>
      </trkpt>
      <trkpt lat="-40.2827200" lon="-71.3893260">
        <ele>1093.4</ele>
        <time>2020-11-15T16:13:59Z</time>
      </trkpt>
      <trkpt lat="-40.2826650" lon="-71.3893250">
        <ele>1093.7</ele>
        <time>2020-11-15T16:14:00Z</time>
      </trkpt>
      <trkpt lat="-40.2826140" lon="-71.3893210">
        <ele>1093.9</ele>
        <time>2020-11-15T16:14:01Z</time>
      </trkpt>
      <trkpt lat="-40.2825630" lon="-71.3893170">
        <ele>1094.2</ele>
        <time>2020-11-15T16:14:02Z</time>
      </trkpt>
      <trkpt lat="-40.2825130" lon="-71.3893140">
        <ele>1094.4</ele>
        <time>2020-11-15T16:14:03Z</time>
      </trkpt>
      <trkpt lat="-40.2824630" lon="-71.3893130">
        <ele>1094.6</ele>
        <time>2020-11-15T16:14:04Z</time>
      </trkpt>
      <trkpt lat="-40.2824130" lon="-71.3893090">
        <ele>1094.8</ele>
        <time>2020-11-15T16:14:05Z</time>
      </trkpt>
      <trkpt lat="-40.2823620" lon="-71.3893040">
        <ele>1094.9</ele>
        <time>2020-11-15T16:14:06Z</time>
      </trkpt>
      <trkpt lat="-40.2823100" lon="-71.3892980">
        <ele>1095.1</ele>
        <time>2020-11-15T16:14:07Z</time>
      </trkpt>
      <trkpt lat="-40.2822580" lon="-71.3892940">
        <ele>1095.3</ele>
        <time>2020-11-15T16:14:08Z</time>
      </trkpt>
      <trkpt lat="-40.2822060" lon="-71.3892910">
        <ele>1095.4</ele>
        <time>2020-11-15T16:14:09Z</time>
      </trkpt>
      <trkpt lat="-40.2821540" lon="-71.3892890">
        <ele>1095.5</ele>
        <time>2020-11-15T16:14:10Z</time>
      </trkpt>
      <trkpt lat="-40.2821030" lon="-71.3892870">
        <ele>1095.5</ele>
        <time>2020-11-15T16:14:11Z</time>
      </trkpt>
      <trkpt lat="-40.2820500" lon="-71.3892880">
        <ele>1095.5</ele>
        <time>2020-11-15T16:14:12Z</time>
      </trkpt>
      <trkpt lat="-40.2819960" lon="-71.3892890">
        <ele>1095.5</ele>
        <time>2020-11-15T16:14:13Z</time>
      </trkpt>
      <trkpt lat="-40.2819430" lon="-71.3892860">
        <ele>1095.5</ele>
        <time>2020-11-15T16:14:14Z</time>
      </trkpt>
      <trkpt lat="-40.2818880" lon="-71.3892830">
        <ele>1095.4</ele>
        <time>2020-11-15T16:14:15Z</time>
      </trkpt>
      <trkpt lat="-40.2818300" lon="-71.3892820">
        <ele>1095.3</ele>
        <time>2020-11-15T16:14:16Z</time>
      </trkpt>
      <trkpt lat="-40.2817690" lon="-71.3892800">
        <ele>1095.2</ele>
        <time>2020-11-15T16:14:17Z</time>
      </trkpt>
      <trkpt lat="-40.2817060" lon="-71.3892790">
        <ele>1095.0</ele>
        <time>2020-11-15T16:14:18Z</time>
      </trkpt>
      <trkpt lat="-40.2816410" lon="-71.3892740">
        <ele>1094.7</ele>
        <time>2020-11-15T16:14:19Z</time>
      </trkpt>
      <trkpt lat="-40.2815720" lon="-71.3892690">
        <ele>1094.4</ele>
        <time>2020-11-15T16:14:20Z</time>
      </trkpt>
      <trkpt lat="-40.2815000" lon="-71.3892680">
        <ele>1094.1</ele>
        <time>2020-11-15T16:14:21Z</time>
      </trkpt>
      <trkpt lat="-40.2814250" lon="-71.3892660">
        <ele>1093.7</ele>
        <time>2020-11-15T16:14:22Z</time>
      </trkpt>
      <trkpt lat="-40.2813470" lon="-71.3892620">
        <ele>1093.2</ele>
        <time>2020-11-15T16:14:23Z</time>
      </trkpt>
      <trkpt lat="-40.2812650" lon="-71.3892570">
        <ele>1092.7</ele>
        <time>2020-11-15T16:14:24Z</time>
      </trkpt>
      <trkpt lat="-40.2811790" lon="-71.3892510">
        <ele>1092.1</ele>
        <time>2020-11-15T16:14:25Z</time>
      </trkpt>
      <trkpt lat="-40.2810880" lon="-71.3892450">
        <ele>1091.5</ele>
        <time>2020-11-15T16:14:26Z</time>
      </trkpt>
      <trkpt lat="-40.2809920" lon="-71.3892390">
        <ele>1090.8</ele>
        <time>2020-11-15T16:14:27Z</time>
      </trkpt>
      <trkpt lat="-40.2808930" lon="-71.3892340">
        <ele>1090.1</ele>
        <time>2020-11-15T16:14:28Z</time>
      </trkpt>
      <trkpt lat="-40.2807920" lon="-71.3892270">
        <ele>1089.4</ele>
        <time>2020-11-15T16:14:29Z</time>
      </trkpt>
      <trkpt lat="-40.2806870" lon="-71.3892190">
        <ele>1088.7</ele>
        <time>2020-11-15T16:14:30Z</time>
      </trkpt>
      <trkpt lat="-40.2805810" lon="-71.3892110">
        <ele>1088.1</ele>
        <time>2020-11-15T16:14:31Z</time>
      </trkpt>
      <trkpt lat="-40.2804730" lon="-71.3892050">
        <ele>1087.6</ele>
        <time>2020-11-15T16:14:32Z</time>
      </trkpt>
      <trkpt lat="-40.2803660" lon="-71.3891950">
        <ele>1087.1</ele>
        <time>2020-11-15T16:14:33Z</time>
      </trkpt>
      <trkpt lat="-40.2802600" lon="-71.3891870">
        <ele>1086.6</ele>
        <time>2020-11-15T16:14:34Z</time>
      </trkpt>
      <trkpt lat="-40.2801550" lon="-71.3891800">
        <ele>1086.4</ele>
        <time>2020-11-15T16:14:35Z</time>
      </trkpt>
      <trkpt lat="-40.2800520" lon="-71.3891720">
        <ele>1086.3</ele>
        <time>2020-11-15T16:14:36Z</time>
      </trkpt>
      <trkpt lat="-40.2799540" lon="-71.3891630">
        <ele>1086.3</ele>
        <time>2020-11-15T16:14:37Z</time>
      </trkpt>
      <trkpt lat="-40.2798560" lon="-71.3891570">
        <ele>1086.5</ele>
        <time>2020-11-15T16:14:38Z</time>
      </trkpt>
      <trkpt lat="-40.2797600" lon="-71.3891510">
        <ele>1086.7</ele>
        <time>2020-11-15T16:14:39Z</time>
      </trkpt>
      <trkpt lat="-40.2796720" lon="-71.3891440">
        <ele>1086.9</ele>
        <time>2020-11-15T16:14:40Z</time>
      </trkpt>
      <trkpt lat="-40.2795870" lon="-71.3891360">
        <ele>1087.2</ele>
        <time>2020-11-15T16:14:41Z</time>
      </trkpt>
      <trkpt lat="-40.2795010" lon="-71.3891310">
        <ele>1087.5</ele>
        <time>2020-11-15T16:14:42Z</time>
      </trkpt>
      <trkpt lat="-40.2794190" lon="-71.3891250">
        <ele>1087.8</ele>
        <time>2020-11-15T16:14:43Z</time>
      </trkpt>
      <trkpt lat="-40.2793400" lon="-71.3891210">
        <ele>1088.1</ele>
        <time>2020-11-15T16:14:44Z</time>
      </trkpt>
      <trkpt lat="-40.2792610" lon="-71.3891150">
        <ele>1088.5</ele>
        <time>2020-11-15T16:14:45Z</time>
      </trkpt>
      <trkpt lat="-40.2791860" lon="-71.3891090">
        <ele>1088.8</ele>
        <time>2020-11-15T16:14:46Z</time>
      </trkpt>
      <trkpt lat="-40.2791120" lon="-71.3891060">
        <ele>1089.1</ele>
        <time>2020-11-15T16:14:47Z</time>
      </trkpt>
      <trkpt lat="-40.2790380" lon="-71.3891030">
        <ele>1089.4</ele>
        <time>2020-11-15T16:14:48Z</time>
      </trkpt>
      <trkpt lat="-40.2789700" lon="-71.3890960">
        <ele>1089.6</ele>
        <time>2020-11-15T16:14:49Z</time>
      </trkpt>
      <trkpt lat="-40.2789030" lon="-71.3890930">
        <ele>1089.8</ele>
        <time>2020-11-15T16:14:50Z</time>
      </trkpt>
      <trkpt lat="-40.2788360" lon="-71.3890930">
        <ele>1090.0</ele>
        <time>2020-11-15T16:14:51Z</time>
      </trkpt>
      <trkpt lat="-40.2787750" lon="-71.3890910">
        <ele>1090.2</ele>
        <time>2020-11-15T16:14:52Z</time>
      </trkpt>
      <trkpt lat="-40.2787180" lon="-71.3890860">
        <ele>1090.4</ele>
        <time>2020-11-15T16:14:53Z</time>
      </trkpt>
      <trkpt lat="-40.2786620" lon="-71.3890790">
        <ele>1090.6</ele>
        <time>2020-11-15T16:14:54Z</time>
      </trkpt>
      <trkpt lat="-40.2786080" lon="-71.3890750">
        <ele>1090.8</ele>
        <time>2020-11-15T16:14:55Z</time>
      </trkpt>
      <trkpt lat="-40.2785540" lon="-71.3890720">
        <ele>1091.0</ele>
        <time>2020-11-15T16:14:56Z</time>
      </trkpt>
      <trkpt lat="-40.2785000" lon="-71.3890710">
        <ele>1091.3</ele>
        <time>2020-11-15T16:14:57Z</time>
      </trkpt>
      <trkpt lat="-40.2784500" lon="-71.3890680">
        <ele>1091.5</ele>
        <time>2020-11-15T16:14:58Z</time>
      </trkpt>
      <trkpt lat="-40.2784010" lon="-71.3890660">
        <ele>1091.7</ele>
        <time>2020-11-15T16:14:59Z</time>
      </trkpt>
      <trkpt lat="-40.2783520" lon="-71.3890620">
        <ele>1092.0</ele>
        <time>2020-11-15T16:15:00Z</time>
      </trkpt>
      <trkpt lat="-40.2783040" lon="-71.3890580">
        <ele>1092.2</ele>
        <time>2020-11-15T16:15:01Z</time>
      </trkpt>
      <trkpt lat="-40.2782580" lon="-71.3890540">
        <ele>1092.5</ele>
        <time>2020-11-15T16:15:02Z</time>
      </trkpt>
      <trkpt lat="-40.2782110" lon="-71.3890520">
        <ele>1092.7</ele>
        <time>2020-11-15T16:15:03Z</time>
      </trkpt>
      <trkpt lat="-40.2781640" lon="-71.3890470">
        <ele>1093.0</ele>
        <time>2020-11-15T16:15:04Z</time>
      </trkpt>
      <trkpt lat="-40.2781180" lon="-71.3890430">
        <ele>1093.3</ele>
        <time>2020-11-15T16:15:05Z</time>
      </trkpt>
      <trkpt lat="-40.2780730" lon="-71.3890380">
        <ele>1093.6</ele>
        <time>2020-11-15T16:15:06Z</time>
      </trkpt>
      <trkpt lat="-40.2780260" lon="-71.3890350">
        <ele>1093.9</ele>
        <time>2020-11-15T16:15:07Z</time>
      </trkpt>
      <trkpt lat="-40.2779810" lon="-71.3890310">
        <ele>1094.2</ele>
        <time>2020-11-15T16:15:08Z</time>
      </trkpt>
      <trkpt lat="-40.2779320" lon="-71.3890300">
        <ele>1094.5</ele>
        <time>2020-11-15T16:15:09Z</time>
      </trkpt>
      <trkpt lat="-40.2778830" lon="-71.3890270">
        <ele>1094.8</ele>
        <time>2020-11-15T16:15:10Z</time>
      </trkpt>
      <trkpt lat="-40.2778340" lon="-71.3890240">
        <ele>1095.1</ele>
        <time>2020-11-15T16:15:11Z</time>
      </trkpt>
      <trkpt lat="-40.2777850" lon="-71.3890210">
        <ele>1095.4</ele>
        <time>2020-11-15T16:15:12Z</time>
      </trkpt>
      <trkpt lat="-40.2777380" lon="-71.3890160">
        <ele>1095.6</ele>
        <time>2020-11-15T16:15:13Z</time>
      </trkpt>
      <trkpt lat="-40.2776910" lon="-71.3890120">
        <ele>1095.9</ele>
        <time>2020-11-15T16:15:14Z</time>
      </trkpt>
      <trkpt lat="-40.2776450" lon="-71.3890080">
        <ele>1096.2</ele>
        <time>2020-11-15T16:15:15Z</time>
      </trkpt>
      <trkpt lat="-40.2775970" lon="-71.3890040">
        <ele>1096.4</ele>
        <time>2020-11-15T16:15:16Z</time>
      </trkpt>
      <trkpt lat="-40.2775500" lon="-71.3890000">
        <ele>1096.7</ele>
        <time>2020-11-15T16:15:17Z</time>
      </trkpt>
      <trkpt lat="-40.2775020" lon="-71.3889950">
        <ele>1097.0</ele>
        <time>2020-11-15T16:15:18Z</time>
      </trkpt>
      <trkpt lat="-40.2774530" lon="-71.3889930">
        <ele>1097.3</ele>
        <time>2020-11-15T16:15:19Z</time>
      </trkpt>
      <trkpt lat="-40.2774070" lon="-71.3889910">
        <ele>1097.6</ele>
        <time>2020-11-15T16:15:20Z</time>
      </trkpt>
      <trkpt lat="-40.2773610" lon="-71.3889900">
        <ele>1097.8</ele>
        <time>2020-11-15T16:15:21Z</time>
      </trkpt>
      <trkpt lat="-40.2773170" lon="-71.3889880">
        <ele>1098.1</ele>
        <time>2020-11-15T16:15:22Z</time>
      </trkpt>
      <trkpt lat="-40.2772750" lon="-71.3889830">
        <ele>1098.3</ele>
        <time>2020-11-15T16:15:23Z</time>
      </trkpt>
      <trkpt lat="-40.2772320" lon="-71.3889780">
        <ele>1098.5</ele>
        <time>2020-11-15T16:15:24Z</time>
      </trkpt>
      <trkpt lat="-40.2771880" lon="-71.3889740">
        <ele>1098.8</ele>
        <time>2020-11-15T16:15:25Z</time>
      </trkpt>
      <trkpt lat="-40.2771450" lon="-71.3889710">
        <ele>1099.0</ele>
        <time>2020-11-15T16:15:26Z</time>
      </trkpt>
      <trkpt lat="-40.2771010" lon="-71.3889710">
        <ele>1099.2</ele>
        <time>2020-11-15T16:15:27Z</time>
      </trkpt>
      <trkpt lat="-40.2770600" lon="-71.3889710">
        <ele>1099.4</ele>
        <time>2020-11-15T16:15:28Z</time>
      </trkpt>
      <trkpt lat="-40.2770180" lon="-71.3889700">
        <ele>1099.6</ele>
        <time>2020-11-15T16:15:29Z</time>
      </trkpt>
      <trkpt lat="-40.2769770" lon="-71.3889690">
        <ele>1099.8</ele>
        <time>2020-11-15T16:15:30Z</time>
      </trkpt>
      <trkpt lat="-40.2769370" lon="-71.3889690">
        <ele>1100.0</ele>
        <time>2020-11-15T16:15:31Z</time>
      </trkpt>
      <trkpt lat="-40.2768970" lon="-71.3889690">
        <ele>1100.2</ele>
        <time>2020-11-15T16:15:32Z</time>
      </trkpt>
      <trkpt lat="-40.2768590" lon="-71.3889650">
        <ele>1100.4</ele>
        <time>2020-11-15T16:15:33Z</time>
      </trkpt>
      <trkpt lat="-40.2768200" lon="-71.3889640">
        <ele>1100.5</ele>
        <time>2020-11-15T16:15:34Z</time>
      </trkpt>
      <trkpt lat="-40.2767810" lon="-71.3889630">
        <ele>1100.7</ele>
        <time>2020-11-15T16:15:35Z</time>
      </trkpt>
      <trkpt lat="-40.2767440" lon="-71.3889600">
        <ele>1100.9</ele>
        <time>2020-11-15T16:15:36Z</time>
      </trkpt>
      <trkpt lat="-40.2767090" lon="-71.3889590">
        <ele>1101.1</ele>
        <time>2020-11-15T16:15:37Z</time>
      </trkpt>
      <trkpt lat="-40.2766750" lon="-71.3889560">
        <ele>1101.3</ele>
        <time>2020-11-15T16:15:38Z</time>
      </trkpt>
      <trkpt lat="-40.2766390" lon="-71.3889520">
        <ele>1101.4</ele>
        <time>2020-11-15T16:15:39Z</time>
      </trkpt>
      <trkpt lat="-40.2766020" lon="-71.3889510">
        <ele>1101.6</ele>
        <time>2020-11-15T16:15:40Z</time>
      </trkpt>
      <trkpt lat="-40.2765660" lon="-71.3889460">
        <ele>1101.8</ele>
        <time>2020-11-15T16:15:41Z</time>
      </trkpt>
      <trkpt lat="-40.2765330" lon="-71.3889370">
        <ele>1102.0</ele>
        <time>2020-11-15T16:15:42Z</time>
      </trkpt>
      <trkpt lat="-40.2764990" lon="-71.3889290">
        <ele>1102.1</ele>
        <time>2020-11-15T16:15:43Z</time>
      </trkpt>
      <trkpt lat="-40.2764640" lon="-71.3889220">
        <ele>1102.3</ele>
        <time>2020-11-15T16:15:44Z</time>
      </trkpt>
      <trkpt lat="-40.2764300" lon="-71.3889150">
        <ele>1102.4</ele>
        <time>2020-11-15T16:15:45Z</time>
      </trkpt>
      <trkpt lat="-40.2763950" lon="-71.3889070">
        <ele>1102.5</ele>
        <time>2020-11-15T16:15:46Z</time>
      </trkpt>
      <trkpt lat="-40.2763600" lon="-71.3889020">
        <ele>1102.7</ele>
        <time>2020-11-15T16:15:47Z</time>
      </trkpt>
      <trkpt lat="-40.2763240" lon="-71.3888960">
        <ele>1102.7</ele>
        <time>2020-11-15T16:15:48Z</time>
      </trkpt>
      <trkpt lat="-40.2762860" lon="-71.3888900">
        <ele>1102.8</ele>
        <time>2020-11-15T16:15:49Z</time>
      </trkpt>
      <trkpt lat="-40.2762460" lon="-71.3888840">
        <ele>1102.9</ele>
        <time>2020-11-15T16:15:50Z</time>
      </trkpt>
      <trkpt lat="-40.2762070" lon="-71.3888790">
        <ele>1103.0</ele>
        <time>2020-11-15T16:15:51Z</time>
      </trkpt>
      <trkpt lat="-40.2761670" lon="-71.3888750">
        <ele>1103.1</ele>
        <time>2020-11-15T16:15:52Z</time>
      </trkpt>
      <trkpt lat="-40.2761250" lon="-71.3888720">
        <ele>1103.1</ele>
        <time>2020-11-15T16:15:53Z</time>
      </trkpt>
      <trkpt lat="-40.2760820" lon="-71.3888720">
        <ele>1103.2</ele>
        <time>2020-11-15T16:15:54Z</time>
      </trkpt>
      <trkpt lat="-40.2760390" lon="-71.3888690">
        <ele>1103.3</ele>
        <time>2020-11-15T16:15:55Z</time>
      </trkpt>
      <trkpt lat="-40.2759950" lon="-71.3888680">
        <ele>1103.3</ele>
        <time>2020-11-15T16:15:56Z</time>
      </trkpt>
      <trkpt lat="-40.2759490" lon="-71.3888660">
        <ele>1103.3</ele>
        <time>2020-11-15T16:15:57Z</time>
      </trkpt>
      <trkpt lat="-40.2759030" lon="-71.3888630">
        <ele>1103.3</ele>
        <time>2020-11-15T16:15:58Z</time>
      </trkpt>
      <trkpt lat="-40.2758550" lon="-71.3888620">
        <ele>1103.2</ele>
        <time>2020-11-15T16:15:59Z</time>
      </trkpt>
      <trkpt lat="-40.2758060" lon="-71.3888590">
        <ele>1103.2</ele>
        <time>2020-11-15T16:16:00Z</time>
      </trkpt>
      <trkpt lat="-40.2757540" lon="-71.3888570">
        <ele>1103.2</ele>
        <time>2020-11-15T16:16:01Z</time>
      </trkpt>
      <trkpt lat="-40.2757000" lon="-71.3888570">
        <ele>1103.1</ele>
        <time>2020-11-15T16:16:02Z</time>
      </trkpt>
      <trkpt lat="-40.2756450" lon="-71.3888570">
        <ele>1103.0</ele>
        <time>2020-11-15T16:16:03Z</time>
      </trkpt>
      <trkpt lat="-40.2755900" lon="-71.3888550">
        <ele>1102.9</ele>
        <time>2020-11-15T16:16:04Z</time>
      </trkpt>
      <trkpt lat="-40.2755340" lon="-71.3888540">
        <ele>1102.7</ele>
        <time>2020-11-15T16:16:05Z</time>
      </trkpt>
      <trkpt lat="-40.2754750" lon="-71.3888520">
        <ele>1102.6</ele>
        <time>2020-11-15T16:16:06Z</time>
      </trkpt>
      <trkpt lat="-40.2754120" lon="-71.3888490">
        <ele>1102.3</ele>
        <time>2020-11-15T16:16:07Z</time>
      </trkpt>
      <trkpt lat="-40.2753460" lon="-71.3888480">
        <ele>1102.1</ele>
        <time>2020-11-15T16:16:08Z</time>
      </trkpt>
      <trkpt lat="-40.2752800" lon="-71.3888440">
        <ele>1101.8</ele>
        <time>2020-11-15T16:16:09Z</time>
      </trkpt>
      <trkpt lat="-40.2752090" lon="-71.3888400">
        <ele>1101.4</ele>
        <time>2020-11-15T16:16:10Z</time>
      </trkpt>
      <trkpt lat="-40.2751340" lon="-71.3888360">
        <ele>1101.0</ele>
        <time>2020-11-15T16:16:11Z</time>
      </trkpt>
      <trkpt lat="-40.2750540" lon="-71.3888320">
        <ele>1100.5</ele>
        <time>2020-11-15T16:16:12Z</time>
      </trkpt>
      <trkpt lat="-40.2749710" lon="-71.3888290">
        <ele>1100.0</ele>
        <time>2020-11-15T16:16:13Z</time>
      </trkpt>
      <trkpt lat="-40.2748850" lon="-71.3888270">
        <ele>1099.5</ele>
        <time>2020-11-15T16:16:14Z</time>
      </trkpt>
      <trkpt lat="-40.2747980" lon="-71.3888240">
        <ele>1099.0</ele>
        <time>2020-11-15T16:16:15Z</time>
      </trkpt>
      <trkpt lat="-40.2747090" lon="-71.3888180">
        <ele>1098.6</ele>
        <time>2020-11-15T16:16:16Z</time>
      </trkpt>
      <trkpt lat="-40.2746180" lon="-71.3888130">
        <ele>1098.1</ele>
        <time>2020-11-15T16:16:17Z</time>
      </trkpt>
      <trkpt lat="-40.2745280" lon="-71.3888060">
        <ele>1097.8</ele>
        <time>2020-11-15T16:16:18Z</time>
      </trkpt>
      <trkpt lat="-40.2744390" lon="-71.3887960">
        <ele>1097.5</ele>
        <time>2020-11-15T16:16:19Z</time>
      </trkpt>
      <trkpt lat="-40.2743500" lon="-71.3887880">
        <ele>1097.3</ele>
        <time>2020-11-15T16:16:20Z</time>
      </trkpt>
      <trkpt lat="-40.2742600" lon="-71.3887840">
        <ele>1097.1</ele>
        <time>2020-11-15T16:16:21Z</time>
      </trkpt>
      <trkpt lat="-40.2741710" lon="-71.3887780">
        <ele>1097.0</ele>
        <time>2020-11-15T16:16:22Z</time>
      </trkpt>
      <trkpt lat="-40.2740820" lon="-71.3887760">
        <ele>1096.9</ele>
        <time>2020-11-15T16:16:23Z</time>
      </trkpt>
      <trkpt lat="-40.2739950" lon="-71.3887730">
        <ele>1096.9</ele>
        <time>2020-11-15T16:16:24Z</time>
      </trkpt>
      <trkpt lat="-40.2739130" lon="-71.3887650">
        <ele>1097.0</ele>
        <time>2020-11-15T16:16:25Z</time>
      </trkpt>
      <trkpt lat="-40.2738340" lon="-71.3887560">
        <ele>1097.2</ele>
        <time>2020-11-15T16:16:26Z</time>
      </trkpt>
      <trkpt lat="-40.2737570" lon="-71.3887490">
        <ele>1097.3</ele>
        <time>2020-11-15T16:16:27Z</time>
      </trkpt>
      <trkpt lat="-40.2736830" lon="-71.3887450">
        <ele>1097.6</ele>
        <time>2020-11-15T16:16:28Z</time>
      </trkpt>
      <trkpt lat="-40.2736110" lon="-71.3887400">
        <ele>1097.8</ele>
        <time>2020-11-15T16:16:29Z</time>
      </trkpt>
      <trkpt lat="-40.2735420" lon="-71.3887330">
        <ele>1098.0</ele>
        <time>2020-11-15T16:16:30Z</time>
      </trkpt>
      <trkpt lat="-40.2734720" lon="-71.3887300">
        <ele>1098.2</ele>
        <time>2020-11-15T16:16:31Z</time>
      </trkpt>
      <trkpt lat="-40.2734010" lon="-71.3887240">
        <ele>1098.4</ele>
        <time>2020-11-15T16:16:32Z</time>
      </trkpt>
      <trkpt lat="-40.2733290" lon="-71.3887190">
        <ele>1098.6</ele>
        <time>2020-11-15T16:16:33Z</time>
      </trkpt>
      <trkpt lat="-40.2732570" lon="-71.3887140">
        <ele>1098.8</ele>
        <time>2020-11-15T16:16:34Z</time>
      </trkpt>
      <trkpt lat="-40.2731850" lon="-71.3887110">
        <ele>1099.0</ele>
        <time>2020-11-15T16:16:35Z</time>
      </trkpt>
      <trkpt lat="-40.2731120" lon="-71.3887060">
        <ele>1099.2</ele>
        <time>2020-11-15T16:16:36Z</time>
      </trkpt>
      <trkpt lat="-40.2730410" lon="-71.3887030">
        <ele>1099.4</ele>
        <time>2020-11-15T16:16:37Z</time>
      </trkpt>
      <trkpt lat="-40.2729700" lon="-71.3886980">
        <ele>1099.7</ele>
        <time>2020-11-15T16:16:38Z</time>
      </trkpt>
      <trkpt lat="-40.2729020" lon="-71.3886940">
        <ele>1099.9</ele>
        <time>2020-11-15T16:16:39Z</time>
      </trkpt>
      <trkpt lat="-40.2728330" lon="-71.3886920">
        <ele>1100.1</ele>
        <time>2020-11-15T16:16:40Z</time>
      </trkpt>
      <trkpt lat="-40.2727610" lon="-71.3886910">
        <ele>1100.2</ele>
        <time>2020-11-15T16:16:41Z</time>
      </trkpt>
      <trkpt lat="-40.2726920" lon="-71.3886890">
        <ele>1100.4</ele>
        <time>2020-11-15T16:16:42Z</time>
      </trkpt>
      <trkpt lat="-40.2726220" lon="-71.3886880">
        <ele>1100.5</ele>
        <time>2020-11-15T16:16:43Z</time>
      </trkpt>
      <trkpt lat="-40.2725520" lon="-71.3886850">
        <ele>1100.6</ele>
        <time>2020-11-15T16:16:44Z</time>
      </trkpt>
      <trkpt lat="-40.2724820" lon="-71.3886830">
        <ele>1100.6</ele>
        <time>2020-11-15T16:16:45Z</time>
      </trkpt>
      <trkpt lat="-40.2724120" lon="-71.3886800">
        <ele>1100.6</ele>
        <time>2020-11-15T16:16:46Z</time>
      </trkpt>
      <trkpt lat="-40.2723410" lon="-71.3886780">
        <ele>1100.6</ele>
        <time>2020-11-15T16:16:47Z</time>
      </trkpt>
      <trkpt lat="-40.2722710" lon="-71.3886750">
        <ele>1100.5</ele>
        <time>2020-11-15T16:16:48Z</time>
      </trkpt>
      <trkpt lat="-40.2722000" lon="-71.3886710">
        <ele>1100.5</ele>
        <time>2020-11-15T16:16:49Z</time>
      </trkpt>
      <trkpt lat="-40.2721300" lon="-71.3886660">
        <ele>1100.4</ele>
        <time>2020-11-15T16:16:50Z</time>
      </trkpt>
      <trkpt lat="-40.2720600" lon="-71.3886630">
        <ele>1100.3</ele>
        <time>2020-11-15T16:16:51Z</time>
      </trkpt>
      <trkpt lat="-40.2719880" lon="-71.3886610">
        <ele>1100.2</ele>
        <time>2020-11-15T16:16:52Z</time>
      </trkpt>
      <trkpt lat="-40.2719150" lon="-71.3886640">
        <ele>1100.1</ele>
        <time>2020-11-15T16:16:53Z</time>
      </trkpt>
      <trkpt lat="-40.2718390" lon="-71.3886670">
        <ele>1100.1</ele>
        <time>2020-11-15T16:16:54Z</time>
      </trkpt>
      <trkpt lat="-40.2717640" lon="-71.3886650">
        <ele>1100.0</ele>
        <time>2020-11-15T16:16:55Z</time>
      </trkpt>
      <trkpt lat="-40.2716900" lon="-71.3886580">
        <ele>1100.0</ele>
        <time>2020-11-15T16:16:56Z</time>
      </trkpt>
      <trkpt lat="-40.2716160" lon="-71.3886520">
        <ele>1099.9</ele>
        <time>2020-11-15T16:16:57Z</time>
      </trkpt>
      <trkpt lat="-40.2715430" lon="-71.3886450">
        <ele>1099.9</ele>
        <time>2020-11-15T16:16:58Z</time>
      </trkpt>
      <trkpt lat="-40.2714690" lon="-71.3886420">
        <ele>1099.9</ele>
        <time>2020-11-15T16:16:59Z</time>
      </trkpt>
      <trkpt lat="-40.2713960" lon="-71.3886390">
        <ele>1099.9</ele>
        <time>2020-11-15T16:17:00Z</time>
      </trkpt>
      <trkpt lat="-40.2713240" lon="-71.3886320">
        <ele>1100.0</ele>
        <time>2020-11-15T16:17:01Z</time>
      </trkpt>
      <trkpt lat="-40.2712520" lon="-71.3886240">
        <ele>1100.1</ele>
        <time>2020-11-15T16:17:02Z</time>
      </trkpt>
      <trkpt lat="-40.2711820" lon="-71.3886170">
        <ele>1100.2</ele>
        <time>2020-11-15T16:17:03Z</time>
      </trkpt>
      <trkpt lat="-40.2711130" lon="-71.3886090">
        <ele>1100.4</ele>
        <time>2020-11-15T16:17:04Z</time>
      </trkpt>
      <trkpt lat="-40.2710440" lon="-71.3885980">
        <ele>1100.5</ele>
        <time>2020-11-15T16:17:05Z</time>
      </trkpt>
      <trkpt lat="-40.2709760" lon="-71.3885860">
        <ele>1100.7</ele>
        <time>2020-11-15T16:17:06Z</time>
      </trkpt>
      <trkpt lat="-40.2709110" lon="-71.3885750">
        <ele>1101.0</ele>
        <time>2020-11-15T16:17:07Z</time>
      </trkpt>
      <trkpt lat="-40.2708490" lon="-71.3885690">
        <ele>1101.3</ele>
        <time>2020-11-15T16:17:08Z</time>
      </trkpt>
      <trkpt lat="-40.2707910" lon="-71.3885630">
        <ele>1101.5</ele>
        <time>2020-11-15T16:17:09Z</time>
      </trkpt>
      <trkpt lat="-40.2707340" lon="-71.3885580">
        <ele>1101.8</ele>
        <time>2020-11-15T16:17:10Z</time>
      </trkpt>
      <trkpt lat="-40.2706810" lon="-71.3885550">
        <ele>1102.1</ele>
        <time>2020-11-15T16:17:11Z</time>
      </trkpt>
      <trkpt lat="-40.2706290" lon="-71.3885500">
        <ele>1102.3</ele>
        <time>2020-11-15T16:17:12Z</time>
      </trkpt>
      <trkpt lat="-40.2705770" lon="-71.3885480">
        <ele>1102.6</ele>
        <time>2020-11-15T16:17:13Z</time>
      </trkpt>
      <trkpt lat="-40.2705260" lon="-71.3885460">
        <ele>1102.9</ele>
        <time>2020-11-15T16:17:14Z</time>
      </trkpt>
      <trkpt lat="-40.2704790" lon="-71.3885410">
        <ele>1103.2</ele>
        <time>2020-11-15T16:17:15Z</time>
      </trkpt>
      <trkpt lat="-40.2704330" lon="-71.3885360">
        <ele>1103.5</ele>
        <time>2020-11-15T16:17:16Z</time>
      </trkpt>
      <trkpt lat="-40.2703910" lon="-71.3885310">
        <ele>1103.8</ele>
        <time>2020-11-15T16:17:17Z</time>
      </trkpt>
      <trkpt lat="-40.2703460" lon="-71.3885290">
        <ele>1104.1</ele>
        <time>2020-11-15T16:17:18Z</time>
      </trkpt>
      <trkpt lat="-40.2703020" lon="-71.3885260">
        <ele>1104.4</ele>
        <time>2020-11-15T16:17:19Z</time>
      </trkpt>
      <trkpt lat="-40.2702560" lon="-71.3885220">
        <ele>1104.7</ele>
        <time>2020-11-15T16:17:20Z</time>
      </trkpt>
      <trkpt lat="-40.2702110" lon="-71.3885170">
        <ele>1105.0</ele>
        <time>2020-11-15T16:17:21Z</time>
      </trkpt>
      <trkpt lat="-40.2701680" lon="-71.3885150">
        <ele>1105.2</ele>
        <time>2020-11-15T16:17:22Z</time>
      </trkpt>
      <trkpt lat="-40.2701260" lon="-71.3885130">
        <ele>1105.5</ele>
        <time>2020-11-15T16:17:23Z</time>
      </trkpt>
      <trkpt lat="-40.2700860" lon="-71.3885100">
        <ele>1105.8</ele>
        <time>2020-11-15T16:17:24Z</time>
      </trkpt>
      <trkpt lat="-40.2700520" lon="-71.3885000">
        <ele>1106.0</ele>
        <time>2020-11-15T16:17:25Z</time>
      </trkpt>
      <trkpt lat="-40.2700150" lon="-71.3884960">
        <ele>1106.3</ele>
        <time>2020-11-15T16:17:26Z</time>
      </trkpt>
      <trkpt lat="-40.2699740" lon="-71.3884940">
        <ele>1106.5</ele>
        <time>2020-11-15T16:17:27Z</time>
      </trkpt>
      <trkpt lat="-40.2699370" lon="-71.3884910">
        <ele>1106.8</ele>
        <time>2020-11-15T16:17:28Z</time>
      </trkpt>
      <trkpt lat="-40.2698990" lon="-71.3884930">
        <ele>1107.0</ele>
        <time>2020-11-15T16:17:29Z</time>
      </trkpt>
      <trkpt lat="-40.2698590" lon="-71.3884920">
        <ele>1107.3</ele>
        <time>2020-11-15T16:17:30Z</time>
      </trkpt>
      <trkpt lat="-40.2698220" lon="-71.3884870">
        <ele>1107.5</ele>
        <time>2020-11-15T16:17:31Z</time>
      </trkpt>
      <trkpt lat="-40.2697840" lon="-71.3884840">
        <ele>1107.8</ele>
        <time>2020-11-15T16:17:32Z</time>
      </trkpt>
      <trkpt lat="-40.2697460" lon="-71.3884820">
        <ele>1108.0</ele>
        <time>2020-11-15T16:17:33Z</time>
      </trkpt>
      <trkpt lat="-40.2697070" lon="-71.3884790">
        <ele>1108.3</ele>
        <time>2020-11-15T16:17:34Z</time>
      </trkpt>
      <trkpt lat="-40.2696690" lon="-71.3884730">
        <ele>1108.5</ele>
        <time>2020-11-15T16:17:35Z</time>
      </trkpt>
      <trkpt lat="-40.2696340" lon="-71.3884680">
        <ele>1108.8</ele>
        <time>2020-11-15T16:17:36Z</time>
      </trkpt>
      <trkpt lat="-40.2695980" lon="-71.3884610">
        <ele>1109.0</ele>
        <time>2020-11-15T16:17:37Z</time>
      </trkpt>
      <trkpt lat="-40.2695620" lon="-71.3884500">
        <ele>1109.2</ele>
        <time>2020-11-15T16:17:38Z</time>
      </trkpt>
      <trkpt lat="-40.2695270" lon="-71.3884360">
        <ele>1109.4</ele>
        <time>2020-11-15T16:17:39Z</time>
      </trkpt>
      <trkpt lat="-40.2694920" lon="-71.3884200">
        <ele>1109.6</ele>
        <time>2020-11-15T16:17:40Z</time>
      </trkpt>
      <trkpt lat="-40.2694550" lon="-71.3884040">
        <ele>1109.9</ele>
        <time>2020-11-15T16:17:41Z</time>
      </trkpt>
      <trkpt lat="-40.2694180" lon="-71.3883870">
        <ele>1110.1</ele>
        <time>2020-11-15T16:17:42Z</time>
      </trkpt>
      <trkpt lat="-40.2693790" lon="-71.3883710">
        <ele>1110.3</ele>
        <time>2020-11-15T16:17:43Z</time>
      </trkpt>
      <trkpt lat="-40.2693410" lon="-71.3883500">
        <ele>1110.5</ele>
        <time>2020-11-15T16:17:44Z</time>
      </trkpt>
      <trkpt lat="-40.2693020" lon="-71.3883280">
        <ele>1110.7</ele>
        <time>2020-11-15T16:17:45Z</time>
      </trkpt>
      <trkpt lat="-40.2692660" lon="-71.3883060">
        <ele>1110.9</ele>
        <time>2020-11-15T16:17:46Z</time>
      </trkpt>
      <trkpt lat="-40.2692300" lon="-71.3882840">
        <ele>1111.1</ele>
        <time>2020-11-15T16:17:47Z</time>
      </trkpt>
      <trkpt lat="-40.2691950" lon="-71.3882630">
        <ele>1111.3</ele>
        <time>2020-11-15T16:17:48Z</time>
      </trkpt>
      <trkpt lat="-40.2691620" lon="-71.3882420">
        <ele>1111.5</ele>
        <time>2020-11-15T16:17:49Z</time>
      </trkpt>
      <trkpt lat="-40.2691270" lon="-71.3882200">
        <ele>1111.6</ele>
        <time>2020-11-15T16:17:50Z</time>
      </trkpt>
      <trkpt lat="-40.2690910" lon="-71.3881980">
        <ele>1111.8</ele>
        <time>2020-11-15T16:17:51Z</time>
      </trkpt>
      <trkpt lat="-40.2690570" lon="-71.3881750">
        <ele>1111.9</ele>
        <time>2020-11-15T16:17:52Z</time>
      </trkpt>
      <trkpt lat="-40.2690220" lon="-71.3881520">
        <ele>1112.0</ele>
        <time>2020-11-15T16:17:53Z</time>
      </trkpt>
      <trkpt lat="-40.2689850" lon="-71.3881280">
        <ele>1112.1</ele>
        <time>2020-11-15T16:17:54Z</time>
      </trkpt>
      <trkpt lat="-40.2689480" lon="-71.3881030">
        <ele>1112.3</ele>
        <time>2020-11-15T16:17:55Z</time>
      </trkpt>
      <trkpt lat="-40.2689110" lon="-71.3880760">
        <ele>1112.4</ele>
        <time>2020-11-15T16:17:56Z</time>
      </trkpt>
      <trkpt lat="-40.2688730" lon="-71.3880500">
        <ele>1112.5</ele>
        <time>2020-11-15T16:17:57Z</time>
      </trkpt>
      <trkpt lat="-40.2688350" lon="-71.3880240">
        <ele>1112.6</ele>
        <time>2020-11-15T16:17:58Z</time>
      </trkpt>
      <trkpt lat="-40.2687990" lon="-71.3879980">
        <ele>1112.7</ele>
        <time>2020-11-15T16:17:59Z</time>
      </trkpt>
      <trkpt lat="-40.2687600" lon="-71.3879720">
        <ele>1112.8</ele>
        <time>2020-11-15T16:18:00Z</time>
      </trkpt>
      <trkpt lat="-40.2687200" lon="-71.3879440">
        <ele>1112.8</ele>
        <time>2020-11-15T16:18:01Z</time>
      </trkpt>
      <trkpt lat="-40.2686790" lon="-71.3879140">
        <ele>1112.9</ele>
        <time>2020-11-15T16:18:02Z</time>
      </trkpt>
      <trkpt lat="-40.2686370" lon="-71.3878830">
        <ele>1112.9</ele>
        <time>2020-11-15T16:18:03Z</time>
      </trkpt>
      <trkpt lat="-40.2685930" lon="-71.3878520">
        <ele>1112.9</ele>
        <time>2020-11-15T16:18:04Z</time>
      </trkpt>
      <trkpt lat="-40.2685480" lon="-71.3878210">
        <ele>1112.9</ele>
        <time>2020-11-15T16:18:05Z</time>
      </trkpt>
      <trkpt lat="-40.2685010" lon="-71.3877890">
        <ele>1112.9</ele>
        <time>2020-11-15T16:18:06Z</time>
      </trkpt>
      <trkpt lat="-40.2684540" lon="-71.3877560">
        <ele>1112.8</ele>
        <time>2020-11-15T16:18:07Z</time>
      </trkpt>
      <trkpt lat="-40.2684080" lon="-71.3877220">
        <ele>1112.8</ele>
        <time>2020-11-15T16:18:08Z</time>
      </trkpt>
      <trkpt lat="-40.2683610" lon="-71.3876880">
        <ele>1112.7</ele>
        <time>2020-11-15T16:18:09Z</time>
      </trkpt>
      <trkpt lat="-40.2683110" lon="-71.3876530">
        <ele>1112.7</ele>
        <time>2020-11-15T16:18:10Z</time>
      </trkpt>
      <trkpt lat="-40.2682590" lon="-71.3876180">
        <ele>1112.6</ele>
        <time>2020-11-15T16:18:11Z</time>
      </trkpt>
      <trkpt lat="-40.2682040" lon="-71.3875820">
        <ele>1112.4</ele>
        <time>2020-11-15T16:18:12Z</time>
      </trkpt>
      <trkpt lat="-40.2681470" lon="-71.3875400">
        <ele>1112.2</ele>
        <time>2020-11-15T16:18:13Z</time>
      </trkpt>
      <trkpt lat="-40.2680900" lon="-71.3874980">
        <ele>1112.0</ele>
        <time>2020-11-15T16:18:14Z</time>
      </trkpt>
      <trkpt lat="-40.2680310" lon="-71.3874580">
        <ele>1111.8</ele>
        <time>2020-11-15T16:18:15Z</time>
      </trkpt>
      <trkpt lat="-40.2679720" lon="-71.3874170">
        <ele>1111.6</ele>
        <time>2020-11-15T16:18:16Z</time>
      </trkpt>
      <trkpt lat="-40.2679110" lon="-71.3873780">
        <ele>1111.3</ele>
        <time>2020-11-15T16:18:17Z</time>
      </trkpt>
      <trkpt lat="-40.2678460" lon="-71.3873370">
        <ele>1111.0</ele>
        <time>2020-11-15T16:18:18Z</time>
      </trkpt>
      <trkpt lat="-40.2677810" lon="-71.3872930">
        <ele>1110.6</ele>
        <time>2020-11-15T16:18:19Z</time>
      </trkpt>
      <trkpt lat="-40.2677150" lon="-71.3872440">
        <ele>1110.3</ele>
        <time>2020-11-15T16:18:20Z</time>
      </trkpt>
      <trkpt lat="-40.2676450" lon="-71.3871950">
        <ele>1109.9</ele>
        <time>2020-11-15T16:18:21Z</time>
      </trkpt>
      <trkpt lat="-40.2675750" lon="-71.3871440">
        <ele>1109.6</ele>
        <time>2020-11-15T16:18:22Z</time>
      </trkpt>
      <trkpt lat="-40.2675020" lon="-71.3870930">
        <ele>1109.2</ele>
        <time>2020-11-15T16:18:23Z</time>
      </trkpt>
      <trkpt lat="-40.2674270" lon="-71.3870410">
        <ele>1109.0</ele>
        <time>2020-11-15T16:18:24Z</time>
      </trkpt>
      <trkpt lat="-40.2673510" lon="-71.3869910">
        <ele>1108.7</ele>
        <time>2020-11-15T16:18:25Z</time>
      </trkpt>
      <trkpt lat="-40.2672740" lon="-71.3869380">
        <ele>1108.6</ele>
        <time>2020-11-15T16:18:26Z</time>
      </trkpt>
      <trkpt lat="-40.2671980" lon="-71.3868860">
        <ele>1108.4</ele>
        <time>2020-11-15T16:18:27Z</time>
      </trkpt>
      <trkpt lat="-40.2671220" lon="-71.3868360">
        <ele>1108.4</ele>
        <time>2020-11-15T16:18:28Z</time>
      </trkpt>
      <trkpt lat="-40.2670470" lon="-71.3867860">
        <ele>1108.3</ele>
        <time>2020-11-15T16:18:29Z</time>
      </trkpt>
      <trkpt lat="-40.2669750" lon="-71.3867310">
        <ele>1108.3</ele>
        <time>2020-11-15T16:18:30Z</time>
      </trkpt>
      <trkpt lat="-40.2669020" lon="-71.3866790">
        <ele>1108.3</ele>
        <time>2020-11-15T16:18:31Z</time>
      </trkpt>
      <trkpt lat="-40.2668300" lon="-71.3866280">
        <ele>1108.4</ele>
        <time>2020-11-15T16:18:32Z</time>
      </trkpt>
      <trkpt lat="-40.2667580" lon="-71.3865800">
        <ele>1108.4</ele>
        <time>2020-11-15T16:18:33Z</time>
      </trkpt>
      <trkpt lat="-40.2666860" lon="-71.3865330">
        <ele>1108.5</ele>
        <time>2020-11-15T16:18:34Z</time>
      </trkpt>
      <trkpt lat="-40.2666140" lon="-71.3864880">
        <ele>1108.6</ele>
        <time>2020-11-15T16:18:35Z</time>
      </trkpt>
      <trkpt lat="-40.2665420" lon="-71.3864450">
        <ele>1108.7</ele>
        <time>2020-11-15T16:18:36Z</time>
      </trkpt>
      <trkpt lat="-40.2664680" lon="-71.3864030">
        <ele>1108.8</ele>
        <time>2020-11-15T16:18:37Z</time>
      </trkpt>
      <trkpt lat="-40.2663920" lon="-71.3863640">
        <ele>1108.9</ele>
        <time>2020-11-15T16:18:38Z</time>
      </trkpt>
      <trkpt lat="-40.2663150" lon="-71.3863250">
        <ele>1109.0</ele>
        <time>2020-11-15T16:18:39Z</time>
      </trkpt>
      <trkpt lat="-40.2662370" lon="-71.3862890">
        <ele>1109.2</ele>
        <time>2020-11-15T16:18:40Z</time>
      </trkpt>
      <trkpt lat="-40.2661610" lon="-71.3862520">
        <ele>1109.3</ele>
        <time>2020-11-15T16:18:41Z</time>
      </trkpt>
      <trkpt lat="-40.2660850" lon="-71.3862190">
        <ele>1109.4</ele>
        <time>2020-11-15T16:18:42Z</time>
      </trkpt>
      <trkpt lat="-40.2660100" lon="-71.3861900">
        <ele>1109.5</ele>
        <time>2020-11-15T16:18:43Z</time>
      </trkpt>
      <trkpt lat="-40.2659350" lon="-71.3861640">
        <ele>1109.6</ele>
        <time>2020-11-15T16:18:44Z</time>
      </trkpt>
      <trkpt lat="-40.2658610" lon="-71.3861380">
        <ele>1109.7</ele>
        <time>2020-11-15T16:18:45Z</time>
      </trkpt>
      <trkpt lat="-40.2657880" lon="-71.3861150">
        <ele>1109.8</ele>
        <time>2020-11-15T16:18:46Z</time>
      </trkpt>
      <trkpt lat="-40.2657140" lon="-71.3860900">
        <ele>1109.9</ele>
        <time>2020-11-15T16:18:47Z</time>
      </trkpt>
      <trkpt lat="-40.2656410" lon="-71.3860640">
        <ele>1110.0</ele>
        <time>2020-11-15T16:18:48Z</time>
      </trkpt>
      <trkpt lat="-40.2655690" lon="-71.3860400">
        <ele>1110.1</ele>
        <time>2020-11-15T16:18:49Z</time>
      </trkpt>
      <trkpt lat="-40.2654960" lon="-71.3860190">
        <ele>1110.2</ele>
        <time>2020-11-15T16:18:50Z</time>
      </trkpt>
      <trkpt lat="-40.2654240" lon="-71.3860000">
        <ele>1110.2</ele>
        <time>2020-11-15T16:18:51Z</time>
      </trkpt>
      <trkpt lat="-40.2653510" lon="-71.3859820">
        <ele>1110.3</ele>
        <time>2020-11-15T16:18:52Z</time>
      </trkpt>
      <trkpt lat="-40.2652790" lon="-71.3859630">
        <ele>1110.3</ele>
        <time>2020-11-15T16:18:53Z</time>
      </trkpt>
      <trkpt lat="-40.2652060" lon="-71.3859420">
        <ele>1110.4</ele>
        <time>2020-11-15T16:18:54Z</time>
      </trkpt>
      <trkpt lat="-40.2651340" lon="-71.3859210">
        <ele>1110.4</ele>
        <time>2020-11-15T16:18:55Z</time>
      </trkpt>
      <trkpt lat="-40.2650630" lon="-71.3859040">
        <ele>1110.4</ele>
        <time>2020-11-15T16:18:56Z</time>
      </trkpt>
      <trkpt lat="-40.2649910" lon="-71.3858870">
        <ele>1110.5</ele>
        <time>2020-11-15T16:18:57Z</time>
      </trkpt>
      <trkpt lat="-40.2649190" lon="-71.3858690">
        <ele>1110.6</ele>
        <time>2020-11-15T16:18:58Z</time>
      </trkpt>
      <trkpt lat="-40.2648480" lon="-71.3858480">
        <ele>1110.6</ele>
        <time>2020-11-15T16:18:59Z</time>
      </trkpt>
      <trkpt lat="-40.2647750" lon="-71.3858260">
        <ele>1110.6</ele>
        <time>2020-11-15T16:19:00Z</time>
      </trkpt>
      <trkpt lat="-40.2647010" lon="-71.3858060">
        <ele>1110.7</ele>
        <time>2020-11-15T16:19:01Z</time>
      </trkpt>
      <trkpt lat="-40.2646270" lon="-71.3857880">
        <ele>1110.7</ele>
        <time>2020-11-15T16:19:02Z</time>
      </trkpt>
      <trkpt lat="-40.2645530" lon="-71.3857710">
        <ele>1110.7</ele>
        <time>2020-11-15T16:19:03Z</time>
      </trkpt>
      <trkpt lat="-40.2644790" lon="-71.3857520">
        <ele>1110.8</ele>
        <time>2020-11-15T16:19:04Z</time>
      </trkpt>
      <trkpt lat="-40.2644060" lon="-71.3857300">
        <ele>1110.8</ele>
        <time>2020-11-15T16:19:05Z</time>
      </trkpt>
      <trkpt lat="-40.2643340" lon="-71.3857100">
        <ele>1110.8</ele>
        <time>2020-11-15T16:19:06Z</time>
      </trkpt>
      <trkpt lat="-40.2642620" lon="-71.3856910">
        <ele>1110.8</ele>
        <time>2020-11-15T16:19:07Z</time>
      </trkpt>
      <trkpt lat="-40.2641900" lon="-71.3856740">
        <ele>1110.8</ele>
        <time>2020-11-15T16:19:08Z</time>
      </trkpt>
      <trkpt lat="-40.2641200" lon="-71.3856570">
        <ele>1110.8</ele>
        <time>2020-11-15T16:19:09Z</time>
      </trkpt>
      <trkpt lat="-40.2640490" lon="-71.3856400">
        <ele>1110.8</ele>
        <time>2020-11-15T16:19:10Z</time>
      </trkpt>
      <trkpt lat="-40.2639790" lon="-71.3856220">
        <ele>1110.8</ele>
        <time>2020-11-15T16:19:11Z</time>
      </trkpt>
      <trkpt lat="-40.2639090" lon="-71.3856010">
        <ele>1110.9</ele>
        <time>2020-11-15T16:19:12Z</time>
      </trkpt>
      <trkpt lat="-40.2638380" lon="-71.3855810">
        <ele>1110.9</ele>
        <time>2020-11-15T16:19:13Z</time>
      </trkpt>
      <trkpt lat="-40.2637680" lon="-71.3855610">
        <ele>1110.9</ele>
        <time>2020-11-15T16:19:14Z</time>
      </trkpt>
      <trkpt lat="-40.2636960" lon="-71.3855440">
        <ele>1111.0</ele>
        <time>2020-11-15T16:19:15Z</time>
      </trkpt>
      <trkpt lat="-40.2636250" lon="-71.3855260">
        <ele>1111.1</ele>
        <time>2020-11-15T16:19:16Z</time>
      </trkpt>
      <trkpt lat="-40.2635540" lon="-71.3855070">
        <ele>1111.1</ele>
        <time>2020-11-15T16:19:17Z</time>
      </trkpt>
      <trkpt lat="-40.2634810" lon="-71.3854900">
        <ele>1111.2</ele>
        <time>2020-11-15T16:19:18Z</time>
      </trkpt>
      <trkpt lat="-40.2634080" lon="-71.3854750">
        <ele>1111.3</ele>
        <time>2020-11-15T16:19:19Z</time>
      </trkpt>
      <trkpt lat="-40.2633330" lon="-71.3854570">
        <ele>1111.5</ele>
        <time>2020-11-15T16:19:20Z</time>
      </trkpt>
      <trkpt lat="-40.2632570" lon="-71.3854370">
        <ele>1111.6</ele>
        <time>2020-11-15T16:19:21Z</time>
      </trkpt>
      <trkpt lat="-40.2631810" lon="-71.3854200">
        <ele>1111.7</ele>
        <time>2020-11-15T16:19:22Z</time>
      </trkpt>
      <trkpt lat="-40.2631030" lon="-71.3854040">
        <ele>1111.9</ele>
        <time>2020-11-15T16:19:23Z</time>
      </trkpt>
      <trkpt lat="-40.2630290" lon="-71.3853850">
        <ele>1112.0</ele>
        <time>2020-11-15T16:19:24Z</time>
      </trkpt>
      <trkpt lat="-40.2629560" lon="-71.3853660">
        <ele>1112.1</ele>
        <time>2020-11-15T16:19:25Z</time>
      </trkpt>
      <trkpt lat="-40.2628860" lon="-71.3853480">
        <ele>1112.2</ele>
        <time>2020-11-15T16:19:26Z</time>
      </trkpt>
      <trkpt lat="-40.2628170" lon="-71.3853270">
        <ele>1112.4</ele>
        <time>2020-11-15T16:19:27Z</time>
      </trkpt>
      <trkpt lat="-40.2627480" lon="-71.3853070">
        <ele>1112.5</ele>
        <time>2020-11-15T16:19:28Z</time>
      </trkpt>
      <trkpt lat="-40.2626770" lon="-71.3852880">
        <ele>1112.6</ele>
        <time>2020-11-15T16:19:29Z</time>
      </trkpt>
      <trkpt lat="-40.2626070" lon="-71.3852700">
        <ele>1112.8</ele>
        <time>2020-11-15T16:19:30Z</time>
      </trkpt>
      <trkpt lat="-40.2625350" lon="-71.3852540">
        <ele>1112.9</ele>
        <time>2020-11-15T16:19:31Z</time>
      </trkpt>
      <trkpt lat="-40.2624630" lon="-71.3852360">
        <ele>1113.1</ele>
        <time>2020-11-15T16:19:32Z</time>
      </trkpt>
      <trkpt lat="-40.2623890" lon="-71.3852170">
        <ele>1113.2</ele>
        <time>2020-11-15T16:19:33Z</time>
      </trkpt>
      <trkpt lat="-40.2623150" lon="-71.3851990">
        <ele>1113.4</ele>
        <time>2020-11-15T16:19:34Z</time>
      </trkpt>
      <trkpt lat="-40.2622420" lon="-71.3851800">
        <ele>1113.5</ele>
        <time>2020-11-15T16:19:35Z</time>
      </trkpt>
      <trkpt lat="-40.2621680" lon="-71.3851610">
        <ele>1113.6</ele>
        <time>2020-11-15T16:19:36Z</time>
      </trkpt>
      <trkpt lat="-40.2620930" lon="-71.3851420">
        <ele>1113.7</ele>
        <time>2020-11-15T16:19:37Z</time>
      </trkpt>
      <trkpt lat="-40.2620180" lon="-71.3851240">
        <ele>1113.8</ele>
        <time>2020-11-15T16:19:38Z</time>
      </trkpt>
      <trkpt lat="-40.2619460" lon="-71.3851060">
        <ele>1113.9</ele>
        <time>2020-11-15T16:19:39Z</time>
      </trkpt>
      <trkpt lat="-40.2618740" lon="-71.3850870">
        <ele>1114.0</ele>
        <time>2020-11-15T16:19:40Z</time>
      </trkpt>
      <trkpt lat="-40.2618010" lon="-71.3850680">
        <ele>1114.2</ele>
        <time>2020-11-15T16:19:41Z</time>
      </trkpt>
      <trkpt lat="-40.2617270" lon="-71.3850500">
        <ele>1114.3</ele>
        <time>2020-11-15T16:19:42Z</time>
      </trkpt>
      <trkpt lat="-40.2616510" lon="-71.3850330">
        <ele>1114.4</ele>
        <time>2020-11-15T16:19:43Z</time>
      </trkpt>
      <trkpt lat="-40.2615780" lon="-71.3850150">
        <ele>1114.5</ele>
        <time>2020-11-15T16:19:44Z</time>
      </trkpt>
      <trkpt lat="-40.2615050" lon="-71.3849990">
        <ele>1114.6</ele>
        <time>2020-11-15T16:19:45Z</time>
      </trkpt>
      <trkpt lat="-40.2614330" lon="-71.3849820">
        <ele>1114.8</ele>
        <time>2020-11-15T16:19:46Z</time>
      </trkpt>
      <trkpt lat="-40.2613600" lon="-71.3849640">
        <ele>1114.9</ele>
        <time>2020-11-15T16:19:47Z</time>
      </trkpt>
      <trkpt lat="-40.2612870" lon="-71.3849430">
        <ele>1115.0</ele>
        <time>2020-11-15T16:19:48Z</time>
      </trkpt>
      <trkpt lat="-40.2612150" lon="-71.3849220">
        <ele>1115.1</ele>
        <time>2020-11-15T16:19:49Z</time>
      </trkpt>
      <trkpt lat="-40.2611420" lon="-71.3849040">
        <ele>1115.2</ele>
        <time>2020-11-15T16:19:50Z</time>
      </trkpt>
      <trkpt lat="-40.2610700" lon="-71.3848870">
        <ele>1115.3</ele>
        <time>2020-11-15T16:19:51Z</time>
      </trkpt>
      <trkpt lat="-40.2609990" lon="-71.3848680">
        <ele>1115.4</ele>
        <time>2020-11-15T16:19:52Z</time>
      </trkpt>
      <trkpt lat="-40.2609280" lon="-71.3848540">
        <ele>1115.5</ele>
        <time>2020-11-15T16:19:53Z</time>
      </trkpt>
      <trkpt lat="-40.2608560" lon="-71.3848420">
        <ele>1115.6</ele>
        <time>2020-11-15T16:19:54Z</time>
      </trkpt>
      <trkpt lat="-40.2607860" lon="-71.3848270">
        <ele>1115.8</ele>
        <time>2020-11-15T16:19:55Z</time>
      </trkpt>
      <trkpt lat="-40.2607180" lon="-71.3848090">
        <ele>1115.9</ele>
        <time>2020-11-15T16:19:56Z</time>
      </trkpt>
      <trkpt lat="-40.2606510" lon="-71.3847890">
        <ele>1116.0</ele>
        <time>2020-11-15T16:19:57Z</time>
      </trkpt>
      <trkpt lat="-40.2605830" lon="-71.3847720">
        <ele>1116.1</ele>
        <time>2020-11-15T16:19:58Z</time>
      </trkpt>
      <trkpt lat="-40.2605130" lon="-71.3847550">
        <ele>1116.2</ele>
        <time>2020-11-15T16:19:59Z</time>
      </trkpt>
      <trkpt lat="-40.2604410" lon="-71.3847380">
        <ele>1116.4</ele>
        <time>2020-11-15T16:20:00Z</time>
      </trkpt>
      <trkpt lat="-40.2603680" lon="-71.3847180">
        <ele>1116.5</ele>
        <time>2020-11-15T16:20:01Z</time>
      </trkpt>
      <trkpt lat="-40.2602960" lon="-71.3846960">
        <ele>1116.6</ele>
        <time>2020-11-15T16:20:02Z</time>
      </trkpt>
      <trkpt lat="-40.2602240" lon="-71.3846710">
        <ele>1116.8</ele>
        <time>2020-11-15T16:20:03Z</time>
      </trkpt>
      <trkpt lat="-40.2601530" lon="-71.3846500">
        <ele>1116.9</ele>
        <time>2020-11-15T16:20:04Z</time>
      </trkpt>
      <trkpt lat="-40.2600820" lon="-71.3846350">
        <ele>1117.1</ele>
        <time>2020-11-15T16:20:05Z</time>
      </trkpt>
      <trkpt lat="-40.2600120" lon="-71.3846190">
        <ele>1117.2</ele>
        <time>2020-11-15T16:20:06Z</time>
      </trkpt>
      <trkpt lat="-40.2599430" lon="-71.3846020">
        <ele>1117.3</ele>
        <time>2020-11-15T16:20:07Z</time>
      </trkpt>
      <trkpt lat="-40.2598770" lon="-71.3845860">
        <ele>1117.3</ele>
        <time>2020-11-15T16:20:08Z</time>
      </trkpt>
      <trkpt lat="-40.2598130" lon="-71.3845690">
        <ele>1117.4</ele>
        <time>2020-11-15T16:20:09Z</time>
      </trkpt>
      <trkpt lat="-40.2597500" lon="-71.3845490">
        <ele>1117.5</ele>
        <time>2020-11-15T16:20:10Z</time>
      </trkpt>
      <trkpt lat="-40.2596870" lon="-71.3845290">
        <ele>1117.5</ele>
        <time>2020-11-15T16:20:11Z</time>
      </trkpt>
      <trkpt lat="-40.2596220" lon="-71.3845090">
        <ele>1117.6</ele>
        <time>2020-11-15T16:20:12Z</time>
      </trkpt>
      <trkpt lat="-40.2595570" lon="-71.3844890">
        <ele>1117.6</ele>
        <time>2020-11-15T16:20:13Z</time>
      </trkpt>
      <trkpt lat="-40.2594920" lon="-71.3844710">
        <ele>1117.7</ele>
        <time>2020-11-15T16:20:14Z</time>
      </trkpt>
      <trkpt lat="-40.2594250" lon="-71.3844550">
        <ele>1117.8</ele>
        <time>2020-11-15T16:20:15Z</time>
      </trkpt>
      <trkpt lat="-40.2593590" lon="-71.3844390">
        <ele>1117.8</ele>
        <time>2020-11-15T16:20:16Z</time>
      </trkpt>
      <trkpt lat="-40.2592930" lon="-71.3844240">
        <ele>1117.9</ele>
        <time>2020-11-15T16:20:17Z</time>
      </trkpt>
      <trkpt lat="-40.2592280" lon="-71.3844060">
        <ele>1118.0</ele>
        <time>2020-11-15T16:20:18Z</time>
      </trkpt>
      <trkpt lat="-40.2591610" lon="-71.3843880">
        <ele>1118.1</ele>
        <time>2020-11-15T16:20:19Z</time>
      </trkpt>
      <trkpt lat="-40.2590930" lon="-71.3843700">
        <ele>1118.2</ele>
        <time>2020-11-15T16:20:20Z</time>
      </trkpt>
      <trkpt lat="-40.2590250" lon="-71.3843520">
        <ele>1118.3</ele>
        <time>2020-11-15T16:20:21Z</time>
      </trkpt>
      <trkpt lat="-40.2589560" lon="-71.3843350">
        <ele>1118.3</ele>
        <time>2020-11-15T16:20:22Z</time>
      </trkpt>
      <trkpt lat="-40.2588850" lon="-71.3843190">
        <ele>1118.4</ele>
        <time>2020-11-15T16:20:23Z</time>
      </trkpt>
      <trkpt lat="-40.2588140" lon="-71.3843010">
        <ele>1118.5</ele>
        <time>2020-11-15T16:20:24Z</time>
      </trkpt>
      <trkpt lat="-40.2587430" lon="-71.3842850">
        <ele>1118.6</ele>
        <time>2020-11-15T16:20:25Z</time>
      </trkpt>
      <trkpt lat="-40.2586720" lon="-71.3842690">
        <ele>1118.7</ele>
        <time>2020-11-15T16:20:26Z</time>
      </trkpt>
      <trkpt lat="-40.2586030" lon="-71.3842510">
        <ele>1118.7</ele>
        <time>2020-11-15T16:20:27Z</time>
      </trkpt>
      <trkpt lat="-40.2585330" lon="-71.3842330">
        <ele>1118.8</ele>
        <time>2020-11-15T16:20:28Z</time>
      </trkpt>
      <trkpt lat="-40.2584620" lon="-71.3842130">
        <ele>1118.9</ele>
        <time>2020-11-15T16:20:29Z</time>
      </trkpt>
      <trkpt lat="-40.2583900" lon="-71.3841920">
        <ele>1119.0</ele>
        <time>2020-11-15T16:20:30Z</time>
      </trkpt>
      <trkpt lat="-40.2583150" lon="-71.3841750">
        <ele>1119.1</ele>
        <time>2020-11-15T16:20:31Z</time>
      </trkpt>
      <trkpt lat="-40.2582400" lon="-71.3841600">
        <ele>1119.1</ele>
        <time>2020-11-15T16:20:32Z</time>
      </trkpt>
      <trkpt lat="-40.2581660" lon="-71.3841430">
        <ele>1119.2</ele>
        <time>2020-11-15T16:20:33Z</time>
      </trkpt>
      <trkpt lat="-40.2580940" lon="-71.3841220">
        <ele>1119.3</ele>
        <time>2020-11-15T16:20:34Z</time>
      </trkpt>
      <trkpt lat="-40.2580210" lon="-71.3841020">
        <ele>1119.4</ele>
        <time>2020-11-15T16:20:35Z</time>
      </trkpt>
      <trkpt lat="-40.2579510" lon="-71.3840810">
        <ele>1119.4</ele>
        <time>2020-11-15T16:20:36Z</time>
      </trkpt>
      <trkpt lat="-40.2578790" lon="-71.3840650">
        <ele>1119.5</ele>
        <time>2020-11-15T16:20:37Z</time>
      </trkpt>
      <trkpt lat="-40.2578070" lon="-71.3840480">
        <ele>1119.6</ele>
        <time>2020-11-15T16:20:38Z</time>
      </trkpt>
      <trkpt lat="-40.2577340" lon="-71.3840300">
        <ele>1119.7</ele>
        <time>2020-11-15T16:20:39Z</time>
      </trkpt>
      <trkpt lat="-40.2576600" lon="-71.3840120">
        <ele>1119.9</ele>
        <time>2020-11-15T16:20:40Z</time>
      </trkpt>
      <trkpt lat="-40.2575860" lon="-71.3839940">
        <ele>1120.2</ele>
        <time>2020-11-15T16:20:41Z</time>
      </trkpt>
      <trkpt lat="-40.2575120" lon="-71.3839740">
        <ele>1120.4</ele>
        <time>2020-11-15T16:20:42Z</time>
      </trkpt>
      <trkpt lat="-40.2574390" lon="-71.3839540">
        <ele>1120.7</ele>
        <time>2020-11-15T16:20:43Z</time>
      </trkpt>
      <trkpt lat="-40.2573690" lon="-71.3839320">
        <ele>1121.0</ele>
        <time>2020-11-15T16:20:44Z</time>
      </trkpt>
      <trkpt lat="-40.2572980" lon="-71.3839150">
        <ele>1121.3</ele>
        <time>2020-11-15T16:20:45Z</time>
      </trkpt>
      <trkpt lat="-40.2572280" lon="-71.3838990">
        <ele>1121.6</ele>
        <time>2020-11-15T16:20:46Z</time>
      </trkpt>
      <trkpt lat="-40.2571600" lon="-71.3838820">
        <ele>1122.0</ele>
        <time>2020-11-15T16:20:47Z</time>
      </trkpt>
      <trkpt lat="-40.2570940" lon="-71.3838630">
        <ele>1122.3</ele>
        <time>2020-11-15T16:20:48Z</time>
      </trkpt>
      <trkpt lat="-40.2570300" lon="-71.3838410">
        <ele>1122.6</ele>
        <time>2020-11-15T16:20:49Z</time>
      </trkpt>
      <trkpt lat="-40.2569680" lon="-71.3838140">
        <ele>1123.0</ele>
        <time>2020-11-15T16:20:50Z</time>
      </trkpt>
      <trkpt lat="-40.2569090" lon="-71.3837840">
        <ele>1123.3</ele>
        <time>2020-11-15T16:20:51Z</time>
      </trkpt>
      <trkpt lat="-40.2568500" lon="-71.3837600">
        <ele>1123.6</ele>
        <time>2020-11-15T16:20:52Z</time>
      </trkpt>
      <trkpt lat="-40.2567920" lon="-71.3837330">
        <ele>1124.0</ele>
        <time>2020-11-15T16:20:53Z</time>
      </trkpt>
      <trkpt lat="-40.2567370" lon="-71.3837050">
        <ele>1124.3</ele>
        <time>2020-11-15T16:20:54Z</time>
      </trkpt>
      <trkpt lat="-40.2566810" lon="-71.3836810">
        <ele>1124.6</ele>
        <time>2020-11-15T16:20:55Z</time>
      </trkpt>
      <trkpt lat="-40.2566260" lon="-71.3836560">
        <ele>1124.9</ele>
        <time>2020-11-15T16:20:56Z</time>
      </trkpt>
      <trkpt lat="-40.2565710" lon="-71.3836330">
        <ele>1125.2</ele>
        <time>2020-11-15T16:20:57Z</time>
      </trkpt>
      <trkpt lat="-40.2565170" lon="-71.3836130">
        <ele>1125.4</ele>
        <time>2020-11-15T16:20:58Z</time>
      </trkpt>
      <trkpt lat="-40.2564650" lon="-71.3835910">
        <ele>1125.6</ele>
        <time>2020-11-15T16:20:59Z</time>
      </trkpt>
      <trkpt lat="-40.2564160" lon="-71.3835670">
        <ele>1125.8</ele>
        <time>2020-11-15T16:21:00Z</time>
      </trkpt>
      <trkpt lat="-40.2563670" lon="-71.3835480">
        <ele>1125.9</ele>
        <time>2020-11-15T16:21:01Z</time>
      </trkpt>
      <trkpt lat="-40.2563180" lon="-71.3835280">
        <ele>1126.1</ele>
        <time>2020-11-15T16:21:02Z</time>
      </trkpt>
      <trkpt lat="-40.2562700" lon="-71.3835040">
        <ele>1126.3</ele>
        <time>2020-11-15T16:21:03Z</time>
      </trkpt>
      <trkpt lat="-40.2562240" lon="-71.3834780">
        <ele>1126.5</ele>
        <time>2020-11-15T16:21:04Z</time>
      </trkpt>
      <trkpt lat="-40.2561800" lon="-71.3834470">
        <ele>1126.6</ele>
        <time>2020-11-15T16:21:05Z</time>
      </trkpt>
      <trkpt lat="-40.2561370" lon="-71.3834150">
        <ele>1126.8</ele>
        <time>2020-11-15T16:21:06Z</time>
      </trkpt>
      <trkpt lat="-40.2560940" lon="-71.3833840">
        <ele>1127.0</ele>
        <time>2020-11-15T16:21:07Z</time>
      </trkpt>
      <trkpt lat="-40.2560540" lon="-71.3833530">
        <ele>1127.1</ele>
        <time>2020-11-15T16:21:08Z</time>
      </trkpt>
      <trkpt lat="-40.2560110" lon="-71.3833260">
        <ele>1127.2</ele>
        <time>2020-11-15T16:21:09Z</time>
      </trkpt>
      <trkpt lat="-40.2559700" lon="-71.3833000">
        <ele>1127.3</ele>
        <time>2020-11-15T16:21:10Z</time>
      </trkpt>
      <trkpt lat="-40.2559310" lon="-71.3832750">
        <ele>1127.4</ele>
        <time>2020-11-15T16:21:11Z</time>
      </trkpt>
      <trkpt lat="-40.2558950" lon="-71.3832510">
        <ele>1127.4</ele>
        <time>2020-11-15T16:21:12Z</time>
      </trkpt>
      <trkpt lat="-40.2558610" lon="-71.3832260">
        <ele>1127.5</ele>
        <time>2020-11-15T16:21:13Z</time>
      </trkpt>
      <trkpt lat="-40.2558300" lon="-71.3832020">
        <ele>1127.6</ele>
        <time>2020-11-15T16:21:14Z</time>
      </trkpt>
      <trkpt lat="-40.2557970" lon="-71.3831760">
        <ele>1127.6</ele>
        <time>2020-11-15T16:21:15Z</time>
      </trkpt>
      <trkpt lat="-40.2557660" lon="-71.3831510">
        <ele>1127.7</ele>
        <time>2020-11-15T16:21:16Z</time>
      </trkpt>
      <trkpt lat="-40.2557370" lon="-71.3831290">
        <ele>1127.7</ele>
        <time>2020-11-15T16:21:17Z</time>
      </trkpt>
      <trkpt lat="-40.2557090" lon="-71.3831110">
        <ele>1127.7</ele>
        <time>2020-11-15T16:21:18Z</time>
      </trkpt>
      <trkpt lat="-40.2556820" lon="-71.3830920">
        <ele>1127.8</ele>
        <time>2020-11-15T16:21:19Z</time>
      </trkpt>
      <trkpt lat="-40.2556560" lon="-71.3830740">
        <ele>1127.8</ele>
        <time>2020-11-15T16:21:20Z</time>
      </trkpt>
      <trkpt lat="-40.2556310" lon="-71.3830540">
        <ele>1127.8</ele>
        <time>2020-11-15T16:21:21Z</time>
      </trkpt>
      <trkpt lat="-40.2556060" lon="-71.3830330">
        <ele>1127.8</ele>
        <time>2020-11-15T16:21:22Z</time>
      </trkpt>
      <trkpt lat="-40.2555800" lon="-71.3830130">
        <ele>1127.9</ele>
        <time>2020-11-15T16:21:23Z</time>
      </trkpt>
      <trkpt lat="-40.2555530" lon="-71.3829930">
        <ele>1127.9</ele>
        <time>2020-11-15T16:21:24Z</time>
      </trkpt>
      <trkpt lat="-40.2555260" lon="-71.3829720">
        <ele>1127.9</ele>
        <time>2020-11-15T16:21:25Z</time>
      </trkpt>
      <trkpt lat="-40.2555000" lon="-71.3829550">
        <ele>1127.9</ele>
        <time>2020-11-15T16:21:26Z</time>
      </trkpt>
      <trkpt lat="-40.2554760" lon="-71.3829350">
        <ele>1127.9</ele>
        <time>2020-11-15T16:21:27Z</time>
      </trkpt>
      <trkpt lat="-40.2554530" lon="-71.3829170">
        <ele>1127.9</ele>
        <time>2020-11-15T16:21:28Z</time>
      </trkpt>
      <trkpt lat="-40.2554300" lon="-71.3829020">
        <ele>1127.9</ele>
        <time>2020-11-15T16:21:29Z</time>
      </trkpt>
      <trkpt lat="-40.2554080" lon="-71.3828880">
        <ele>1128.0</ele>
        <time>2020-11-15T16:21:30Z</time>
      </trkpt>
      <trkpt lat="-40.2553880" lon="-71.3828700">
        <ele>1128.0</ele>
        <time>2020-11-15T16:21:31Z</time>
      </trkpt>
      <trkpt lat="-40.2553690" lon="-71.3828450">
        <ele>1128.0</ele>
        <time>2020-11-15T16:21:32Z</time>
      </trkpt>
      <trkpt lat="-40.2553490" lon="-71.3828190">
        <ele>1128.0</ele>
        <time>2020-11-15T16:21:33Z</time>
      </trkpt>
      <trkpt lat="-40.2553240" lon="-71.3827970">
        <ele>1127.9</ele>
        <time>2020-11-15T16:21:34Z</time>
      </trkpt>
      <trkpt lat="-40.2552980" lon="-71.3827740">
        <ele>1127.9</ele>
        <time>2020-11-15T16:21:35Z</time>
      </trkpt>
      <trkpt lat="-40.2552710" lon="-71.3827480">
        <ele>1127.9</ele>
        <time>2020-11-15T16:21:36Z</time>
      </trkpt>
      <trkpt lat="-40.2552440" lon="-71.3827160">
        <ele>1127.9</ele>
        <time>2020-11-15T16:21:37Z</time>
      </trkpt>
      <trkpt lat="-40.2552170" lon="-71.3826840">
        <ele>1127.9</ele>
        <time>2020-11-15T16:21:38Z</time>
      </trkpt>
      <trkpt lat="-40.2551870" lon="-71.3826520">
        <ele>1127.8</ele>
        <time>2020-11-15T16:21:39Z</time>
      </trkpt>
      <trkpt lat="-40.2551570" lon="-71.3826160">
        <ele>1127.8</ele>
        <time>2020-11-15T16:21:40Z</time>
      </trkpt>
      <trkpt lat="-40.2551250" lon="-71.3825790">
        <ele>1127.8</ele>
        <time>2020-11-15T16:21:41Z</time>
      </trkpt>
      <trkpt lat="-40.2550930" lon="-71.3825410">
        <ele>1127.7</ele>
        <time>2020-11-15T16:21:42Z</time>
      </trkpt>
      <trkpt lat="-40.2550620" lon="-71.3825020">
        <ele>1127.7</ele>
        <time>2020-11-15T16:21:43Z</time>
      </trkpt>
      <trkpt lat="-40.2550310" lon="-71.3824650">
        <ele>1127.6</ele>
        <time>2020-11-15T16:21:44Z</time>
      </trkpt>
      <trkpt lat="-40.2549980" lon="-71.3824270">
        <ele>1127.6</ele>
        <time>2020-11-15T16:21:45Z</time>
      </trkpt>
      <trkpt lat="-40.2549640" lon="-71.3823870">
        <ele>1127.5</ele>
        <time>2020-11-15T16:21:46Z</time>
      </trkpt>
      <trkpt lat="-40.2549290" lon="-71.3823450">
        <ele>1127.5</ele>
        <time>2020-11-15T16:21:47Z</time>
      </trkpt>
      <trkpt lat="-40.2548930" lon="-71.3823060">
        <ele>1127.4</ele>
        <time>2020-11-15T16:21:48Z</time>
      </trkpt>
      <trkpt lat="-40.2548550" lon="-71.3822680">
        <ele>1127.4</ele>
        <time>2020-11-15T16:21:49Z</time>
      </trkpt>
      <trkpt lat="-40.2548170" lon="-71.3822270">
        <ele>1127.4</ele>
        <time>2020-11-15T16:21:50Z</time>
      </trkpt>
      <trkpt lat="-40.2547800" lon="-71.3821840">
        <ele>1127.4</ele>
        <time>2020-11-15T16:21:51Z</time>
      </trkpt>
      <trkpt lat="-40.2547430" lon="-71.3821460">
        <ele>1127.3</ele>
        <time>2020-11-15T16:21:52Z</time>
      </trkpt>
      <trkpt lat="-40.2547050" lon="-71.3821080">
        <ele>1127.4</ele>
        <time>2020-11-15T16:21:53Z</time>
      </trkpt>
      <trkpt lat="-40.2546720" lon="-71.3820670">
        <ele>1127.4</ele>
        <time>2020-11-15T16:21:54Z</time>
      </trkpt>
      <trkpt lat="-40.2546380" lon="-71.3820270">
        <ele>1127.4</ele>
        <time>2020-11-15T16:21:55Z</time>
      </trkpt>
      <trkpt lat="-40.2546020" lon="-71.3819870">
        <ele>1127.5</ele>
        <time>2020-11-15T16:21:56Z</time>
      </trkpt>
      <trkpt lat="-40.2545660" lon="-71.3819500">
        <ele>1127.6</ele>
        <time>2020-11-15T16:21:57Z</time>
      </trkpt>
      <trkpt lat="-40.2545330" lon="-71.3819140">
        <ele>1127.7</ele>
        <time>2020-11-15T16:21:58Z</time>
      </trkpt>
      <trkpt lat="-40.2544990" lon="-71.3818780">
        <ele>1127.9</ele>
        <time>2020-11-15T16:21:59Z</time>
      </trkpt>
      <trkpt lat="-40.2544660" lon="-71.3818420">
        <ele>1128.0</ele>
        <time>2020-11-15T16:22:00Z</time>
      </trkpt>
      <trkpt lat="-40.2544330" lon="-71.3818070">
        <ele>1128.2</ele>
        <time>2020-11-15T16:22:01Z</time>
      </trkpt>
      <trkpt lat="-40.2544000" lon="-71.3817710">
        <ele>1128.3</ele>
        <time>2020-11-15T16:22:02Z</time>
      </trkpt>
      <trkpt lat="-40.2543660" lon="-71.3817350">
        <ele>1128.5</ele>
        <time>2020-11-15T16:22:03Z</time>
      </trkpt>
      <trkpt lat="-40.2543340" lon="-71.3817000">
        <ele>1128.6</ele>
        <time>2020-11-15T16:22:04Z</time>
      </trkpt>
      <trkpt lat="-40.2543030" lon="-71.3816630">
        <ele>1128.8</ele>
        <time>2020-11-15T16:22:05Z</time>
      </trkpt>
      <trkpt lat="-40.2542720" lon="-71.3816250">
        <ele>1129.0</ele>
        <time>2020-11-15T16:22:06Z</time>
      </trkpt>
      <trkpt lat="-40.2542400" lon="-71.3815900">
        <ele>1129.1</ele>
        <time>2020-11-15T16:22:07Z</time>
      </trkpt>
      <trkpt lat="-40.2542100" lon="-71.3815560">
        <ele>1129.3</ele>
        <time>2020-11-15T16:22:08Z</time>
      </trkpt>
      <trkpt lat="-40.2541810" lon="-71.3815230">
        <ele>1129.5</ele>
        <time>2020-11-15T16:22:09Z</time>
      </trkpt>
      <trkpt lat="-40.2541510" lon="-71.3814880">
        <ele>1129.7</ele>
        <time>2020-11-15T16:22:10Z</time>
      </trkpt>
      <trkpt lat="-40.2541190" lon="-71.3814540">
        <ele>1129.8</ele>
        <time>2020-11-15T16:22:11Z</time>
      </trkpt>
      <trkpt lat="-40.2540880" lon="-71.3814180">
        <ele>1130.0</ele>
        <time>2020-11-15T16:22:12Z</time>
      </trkpt>
      <trkpt lat="-40.2540570" lon="-71.3813800">
        <ele>1130.2</ele>
        <time>2020-11-15T16:22:13Z</time>
      </trkpt>
      <trkpt lat="-40.2540250" lon="-71.3813440">
        <ele>1130.4</ele>
        <time>2020-11-15T16:22:14Z</time>
      </trkpt>
      <trkpt lat="-40.2539930" lon="-71.3813090">
        <ele>1130.6</ele>
        <time>2020-11-15T16:22:15Z</time>
      </trkpt>
      <trkpt lat="-40.2539630" lon="-71.3812740">
        <ele>1130.8</ele>
        <time>2020-11-15T16:22:16Z</time>
      </trkpt>
      <trkpt lat="-40.2539340" lon="-71.3812380">
        <ele>1131.0</ele>
        <time>2020-11-15T16:22:17Z</time>
      </trkpt>
      <trkpt lat="-40.2539060" lon="-71.3812000">
        <ele>1131.2</ele>
        <time>2020-11-15T16:22:18Z</time>
      </trkpt>
      <trkpt lat="-40.2538770" lon="-71.3811630">
        <ele>1131.4</ele>
        <time>2020-11-15T16:22:19Z</time>
      </trkpt>
      <trkpt lat="-40.2538450" lon="-71.3811290">
        <ele>1131.6</ele>
        <time>2020-11-15T16:22:20Z</time>
      </trkpt>
      <trkpt lat="-40.2538120" lon="-71.3810950">
        <ele>1131.9</ele>
        <time>2020-11-15T16:22:21Z</time>
      </trkpt>
      <trkpt lat="-40.2537810" lon="-71.3810590">
        <ele>1132.1</ele>
        <time>2020-11-15T16:22:22Z</time>
      </trkpt>
      <trkpt lat="-40.2537510" lon="-71.3810250">
        <ele>1132.3</ele>
        <time>2020-11-15T16:22:23Z</time>
      </trkpt>
      <trkpt lat="-40.2537190" lon="-71.3809900">
        <ele>1132.5</ele>
        <time>2020-11-15T16:22:24Z</time>
      </trkpt>
      <trkpt lat="-40.2536890" lon="-71.3809530">
        <ele>1132.7</ele>
        <time>2020-11-15T16:22:25Z</time>
      </trkpt>
      <trkpt lat="-40.2536590" lon="-71.3809180">
        <ele>1132.9</ele>
        <time>2020-11-15T16:22:26Z</time>
      </trkpt>
      <trkpt lat="-40.2536290" lon="-71.3808870">
        <ele>1133.1</ele>
        <time>2020-11-15T16:22:27Z</time>
      </trkpt>
      <trkpt lat="-40.2536000" lon="-71.3808540">
        <ele>1133.3</ele>
        <time>2020-11-15T16:22:28Z</time>
      </trkpt>
      <trkpt lat="-40.2535710" lon="-71.3808240">
        <ele>1133.5</ele>
        <time>2020-11-15T16:22:29Z</time>
      </trkpt>
      <trkpt lat="-40.2535420" lon="-71.3807940">
        <ele>1133.7</ele>
        <time>2020-11-15T16:22:30Z</time>
      </trkpt>
      <trkpt lat="-40.2535110" lon="-71.3807640">
        <ele>1133.9</ele>
        <time>2020-11-15T16:22:31Z</time>
      </trkpt>
      <trkpt lat="-40.2534810" lon="-71.3807320">
        <ele>1134.1</ele>
        <time>2020-11-15T16:22:32Z</time>
      </trkpt>
      <trkpt lat="-40.2534520" lon="-71.3806990">
        <ele>1134.2</ele>
        <time>2020-11-15T16:22:33Z</time>
      </trkpt>
      <trkpt lat="-40.2534240" lon="-71.3806650">
        <ele>1134.4</ele>
        <time>2020-11-15T16:22:34Z</time>
      </trkpt>
      <trkpt lat="-40.2533950" lon="-71.3806310">
        <ele>1134.6</ele>
        <time>2020-11-15T16:22:35Z</time>
      </trkpt>
      <trkpt lat="-40.2533660" lon="-71.3805990">
        <ele>1134.7</ele>
        <time>2020-11-15T16:22:36Z</time>
      </trkpt>
      <trkpt lat="-40.2533350" lon="-71.3805670">
        <ele>1134.9</ele>
        <time>2020-11-15T16:22:37Z</time>
      </trkpt>
      <trkpt lat="-40.2533040" lon="-71.3805380">
        <ele>1135.0</ele>
        <time>2020-11-15T16:22:38Z</time>
      </trkpt>
      <trkpt lat="-40.2532740" lon="-71.3805070">
        <ele>1135.2</ele>
        <time>2020-11-15T16:22:39Z</time>
      </trkpt>
      <trkpt lat="-40.2532440" lon="-71.3804730">
        <ele>1135.3</ele>
        <time>2020-11-15T16:22:40Z</time>
      </trkpt>
      <trkpt lat="-40.2532140" lon="-71.3804390">
        <ele>1135.5</ele>
        <time>2020-11-15T16:22:41Z</time>
      </trkpt>
      <trkpt lat="-40.2531820" lon="-71.3804090">
        <ele>1135.6</ele>
        <time>2020-11-15T16:22:42Z</time>
      </trkpt>
      <trkpt lat="-40.2531510" lon="-71.3803780">
        <ele>1135.7</ele>
        <time>2020-11-15T16:22:43Z</time>
      </trkpt>
      <trkpt lat="-40.2531210" lon="-71.3803470">
        <ele>1135.8</ele>
        <time>2020-11-15T16:22:44Z</time>
      </trkpt>
      <trkpt lat="-40.2530910" lon="-71.3803140">
        <ele>1135.9</ele>
        <time>2020-11-15T16:22:45Z</time>
      </trkpt>
      <trkpt lat="-40.2530610" lon="-71.3802790">
        <ele>1136.0</ele>
        <time>2020-11-15T16:22:46Z</time>
      </trkpt>
      <trkpt lat="-40.2530310" lon="-71.3802450">
        <ele>1136.1</ele>
        <time>2020-11-15T16:22:47Z</time>
      </trkpt>
      <trkpt lat="-40.2529990" lon="-71.3802120">
        <ele>1136.2</ele>
        <time>2020-11-15T16:22:48Z</time>
      </trkpt>
      <trkpt lat="-40.2529670" lon="-71.3801790">
        <ele>1136.2</ele>
        <time>2020-11-15T16:22:49Z</time>
      </trkpt>
      <trkpt lat="-40.2529350" lon="-71.3801440">
        <ele>1136.3</ele>
        <time>2020-11-15T16:22:50Z</time>
      </trkpt>
      <trkpt lat="-40.2529030" lon="-71.3801080">
        <ele>1136.4</ele>
        <time>2020-11-15T16:22:51Z</time>
      </trkpt>
      <trkpt lat="-40.2528730" lon="-71.3800710">
        <ele>1136.4</ele>
        <time>2020-11-15T16:22:52Z</time>
      </trkpt>
      <trkpt lat="-40.2528410" lon="-71.3800340">
        <ele>1136.5</ele>
        <time>2020-11-15T16:22:53Z</time>
      </trkpt>
      <trkpt lat="-40.2528070" lon="-71.3799980">
        <ele>1136.5</ele>
        <time>2020-11-15T16:22:54Z</time>
      </trkpt>
      <trkpt lat="-40.2527730" lon="-71.3799610">
        <ele>1136.6</ele>
        <time>2020-11-15T16:22:55Z</time>
      </trkpt>
      <trkpt lat="-40.2527390" lon="-71.3799230">
        <ele>1136.7</ele>
        <time>2020-11-15T16:22:56Z</time>
      </trkpt>
      <trkpt lat="-40.2527070" lon="-71.3798850">
        <ele>1136.8</ele>
        <time>2020-11-15T16:22:57Z</time>
      </trkpt>
      <trkpt lat="-40.2526740" lon="-71.3798480">
        <ele>1136.9</ele>
        <time>2020-11-15T16:22:58Z</time>
      </trkpt>
      <trkpt lat="-40.2526420" lon="-71.3798120">
        <ele>1137.1</ele>
        <time>2020-11-15T16:22:59Z</time>
      </trkpt>
      <trkpt lat="-40.2526090" lon="-71.3797770">
        <ele>1137.2</ele>
        <time>2020-11-15T16:23:00Z</time>
      </trkpt>
      <trkpt lat="-40.2525750" lon="-71.3797440">
        <ele>1137.4</ele>
        <time>2020-11-15T16:23:01Z</time>
      </trkpt>
      <trkpt lat="-40.2525390" lon="-71.3797120">
        <ele>1137.5</ele>
        <time>2020-11-15T16:23:02Z</time>
      </trkpt>
      <trkpt lat="-40.2525040" lon="-71.3796800">
        <ele>1137.7</ele>
        <time>2020-11-15T16:23:03Z</time>
      </trkpt>
      <trkpt lat="-40.2524690" lon="-71.3796480">
        <ele>1137.9</ele>
        <time>2020-11-15T16:23:04Z</time>
      </trkpt>
      <trkpt lat="-40.2524330" lon="-71.3796220">
        <ele>1138.1</ele>
        <time>2020-11-15T16:23:05Z</time>
      </trkpt>
      <trkpt lat="-40.2524000" lon="-71.3795940">
        <ele>1138.2</ele>
        <time>2020-11-15T16:23:06Z</time>
      </trkpt>
      <trkpt lat="-40.2523680" lon="-71.3795670">
        <ele>1138.4</ele>
        <time>2020-11-15T16:23:07Z</time>
      </trkpt>
      <trkpt lat="-40.2523360" lon="-71.3795390">
        <ele>1138.6</ele>
        <time>2020-11-15T16:23:08Z</time>
      </trkpt>
      <trkpt lat="-40.2523050" lon="-71.3795130">
        <ele>1138.7</ele>
        <time>2020-11-15T16:23:09Z</time>
      </trkpt>
      <trkpt lat="-40.2522760" lon="-71.3794880">
        <ele>1138.9</ele>
        <time>2020-11-15T16:23:10Z</time>
      </trkpt>
      <trkpt lat="-40.2522480" lon="-71.3794650">
        <ele>1139.0</ele>
        <time>2020-11-15T16:23:11Z</time>
      </trkpt>
      <trkpt lat="-40.2522190" lon="-71.3794430">
        <ele>1139.2</ele>
        <time>2020-11-15T16:23:12Z</time>
      </trkpt>
      <trkpt lat="-40.2521910" lon="-71.3794200">
        <ele>1139.3</ele>
        <time>2020-11-15T16:23:13Z</time>
      </trkpt>
      <trkpt lat="-40.2521640" lon="-71.3793980">
        <ele>1139.5</ele>
        <time>2020-11-15T16:23:14Z</time>
      </trkpt>
      <trkpt lat="-40.2521330" lon="-71.3793780">
        <ele>1139.7</ele>
        <time>2020-11-15T16:23:15Z</time>
      </trkpt>
      <trkpt lat="-40.2521040" lon="-71.3793560">
        <ele>1139.9</ele>
        <time>2020-11-15T16:23:16Z</time>
      </trkpt>
      <trkpt lat="-40.2520740" lon="-71.3793360">
        <ele>1140.0</ele>
        <time>2020-11-15T16:23:17Z</time>
      </trkpt>
      <trkpt lat="-40.2520430" lon="-71.3793160">
        <ele>1140.2</ele>
        <time>2020-11-15T16:23:18Z</time>
      </trkpt>
      <trkpt lat="-40.2520140" lon="-71.3792930">
        <ele>1140.4</ele>
        <time>2020-11-15T16:23:19Z</time>
      </trkpt>
      <trkpt lat="-40.2519860" lon="-71.3792700">
        <ele>1140.6</ele>
        <time>2020-11-15T16:23:20Z</time>
      </trkpt>
      <trkpt lat="-40.2519570" lon="-71.3792510">
        <ele>1140.8</ele>
        <time>2020-11-15T16:23:21Z</time>
      </trkpt>
      <trkpt lat="-40.2519260" lon="-71.3792320">
        <ele>1140.9</ele>
        <time>2020-11-15T16:23:22Z</time>
      </trkpt>
      <trkpt lat="-40.2518960" lon="-71.3792120">
        <ele>1141.1</ele>
        <time>2020-11-15T16:23:23Z</time>
      </trkpt>
      <trkpt lat="-40.2518630" lon="-71.3791950">
        <ele>1141.3</ele>
        <time>2020-11-15T16:23:24Z</time>
      </trkpt>
      <trkpt lat="-40.2518310" lon="-71.3791740">
        <ele>1141.5</ele>
        <time>2020-11-15T16:23:25Z</time>
      </trkpt>
      <trkpt lat="-40.2518000" lon="-71.3791490">
        <ele>1141.7</ele>
        <time>2020-11-15T16:23:26Z</time>
      </trkpt>
      <trkpt lat="-40.2517700" lon="-71.3791290">
        <ele>1141.9</ele>
        <time>2020-11-15T16:23:27Z</time>
      </trkpt>
      <trkpt lat="-40.2517390" lon="-71.3791100">
        <ele>1142.1</ele>
        <time>2020-11-15T16:23:28Z</time>
      </trkpt>
      <trkpt lat="-40.2517070" lon="-71.3790900">
        <ele>1142.3</ele>
        <time>2020-11-15T16:23:29Z</time>
      </trkpt>
      <trkpt lat="-40.2516750" lon="-71.3790680">
        <ele>1142.6</ele>
        <time>2020-11-15T16:23:30Z</time>
      </trkpt>
      <trkpt lat="-40.2516430" lon="-71.3790500">
        <ele>1142.8</ele>
        <time>2020-11-15T16:23:31Z</time>
      </trkpt>
      <trkpt lat="-40.2516100" lon="-71.3790310">
        <ele>1143.0</ele>
        <time>2020-11-15T16:23:32Z</time>
      </trkpt>
      <trkpt lat="-40.2515800" lon="-71.3790080">
        <ele>1143.2</ele>
        <time>2020-11-15T16:23:33Z</time>
      </trkpt>
      <trkpt lat="-40.2515480" lon="-71.3789870">
        <ele>1143.4</ele>
        <time>2020-11-15T16:23:34Z</time>
      </trkpt>
      <trkpt lat="-40.2515160" lon="-71.3789650">
        <ele>1143.6</ele>
        <time>2020-11-15T16:23:35Z</time>
      </trkpt>
      <trkpt lat="-40.2514830" lon="-71.3789420">
        <ele>1143.8</ele>
        <time>2020-11-15T16:23:36Z</time>
      </trkpt>
      <trkpt lat="-40.2514490" lon="-71.3789190">
        <ele>1144.0</ele>
        <time>2020-11-15T16:23:37Z</time>
      </trkpt>
      <trkpt lat="-40.2514140" lon="-71.3788980">
        <ele>1144.2</ele>
        <time>2020-11-15T16:23:38Z</time>
      </trkpt>
      <trkpt lat="-40.2513810" lon="-71.3788730">
        <ele>1144.4</ele>
        <time>2020-11-15T16:23:39Z</time>
      </trkpt>
      <trkpt lat="-40.2513460" lon="-71.3788520">
        <ele>1144.6</ele>
        <time>2020-11-15T16:23:40Z</time>
      </trkpt>
      <trkpt lat="-40.2513120" lon="-71.3788340">
        <ele>1144.8</ele>
        <time>2020-11-15T16:23:41Z</time>
      </trkpt>
      <trkpt lat="-40.2512810" lon="-71.3788140">
        <ele>1145.0</ele>
        <time>2020-11-15T16:23:42Z</time>
      </trkpt>
      <trkpt lat="-40.2512530" lon="-71.3787880">
        <ele>1145.2</ele>
        <time>2020-11-15T16:23:43Z</time>
      </trkpt>
      <trkpt lat="-40.2512230" lon="-71.3787650">
        <ele>1145.4</ele>
        <time>2020-11-15T16:23:44Z</time>
      </trkpt>
      <trkpt lat="-40.2511910" lon="-71.3787460">
        <ele>1145.6</ele>
        <time>2020-11-15T16:23:45Z</time>
      </trkpt>
      <trkpt lat="-40.2511610" lon="-71.3787280">
        <ele>1145.8</ele>
        <time>2020-11-15T16:23:46Z</time>
      </trkpt>
      <trkpt lat="-40.2511320" lon="-71.3787080">
        <ele>1146.0</ele>
        <time>2020-11-15T16:23:47Z</time>
      </trkpt>
      <trkpt lat="-40.2511050" lon="-71.3786870">
        <ele>1146.2</ele>
        <time>2020-11-15T16:23:48Z</time>
      </trkpt>
      <trkpt lat="-40.2510790" lon="-71.3786680">
        <ele>1146.4</ele>
        <time>2020-11-15T16:23:49Z</time>
      </trkpt>
      <trkpt lat="-40.2510540" lon="-71.3786510">
        <ele>1146.6</ele>
        <time>2020-11-15T16:23:50Z</time>
      </trkpt>
      <trkpt lat="-40.2510300" lon="-71.3786320">
        <ele>1146.8</ele>
        <time>2020-11-15T16:23:51Z</time>
      </trkpt>
      <trkpt lat="-40.2510020" lon="-71.3786140">
        <ele>1147.0</ele>
        <time>2020-11-15T16:23:52Z</time>
      </trkpt>
      <trkpt lat="-40.2509770" lon="-71.3785930">
        <ele>1147.2</ele>
        <time>2020-11-15T16:23:53Z</time>
      </trkpt>
      <trkpt lat="-40.2509520" lon="-71.3785700">
        <ele>1147.3</ele>
        <time>2020-11-15T16:23:54Z</time>
      </trkpt>
      <trkpt lat="-40.2509280" lon="-71.3785500">
        <ele>1147.5</ele>
        <time>2020-11-15T16:23:55Z</time>
      </trkpt>
      <trkpt lat="-40.2509020" lon="-71.3785300">
        <ele>1147.7</ele>
        <time>2020-11-15T16:23:56Z</time>
      </trkpt>
      <trkpt lat="-40.2508770" lon="-71.3785100">
        <ele>1147.9</ele>
        <time>2020-11-15T16:23:57Z</time>
      </trkpt>
      <trkpt lat="-40.2508500" lon="-71.3784890">
        <ele>1148.1</ele>
        <time>2020-11-15T16:23:58Z</time>
      </trkpt>
      <trkpt lat="-40.2508230" lon="-71.3784690">
        <ele>1148.3</ele>
        <time>2020-11-15T16:23:59Z</time>
      </trkpt>
      <trkpt lat="-40.2507990" lon="-71.3784480">
        <ele>1148.5</ele>
        <time>2020-11-15T16:24:00Z</time>
      </trkpt>
      <trkpt lat="-40.2507700" lon="-71.3784300">
        <ele>1148.6</ele>
        <time>2020-11-15T16:24:01Z</time>
      </trkpt>
      <trkpt lat="-40.2507410" lon="-71.3784120">
        <ele>1148.8</ele>
        <time>2020-11-15T16:24:02Z</time>
      </trkpt>
      <trkpt lat="-40.2507100" lon="-71.3783940">
        <ele>1149.0</ele>
        <time>2020-11-15T16:24:03Z</time>
      </trkpt>
      <trkpt lat="-40.2506810" lon="-71.3783760">
        <ele>1149.2</ele>
        <time>2020-11-15T16:24:04Z</time>
      </trkpt>
      <trkpt lat="-40.2506530" lon="-71.3783560">
        <ele>1149.4</ele>
        <time>2020-11-15T16:24:05Z</time>
      </trkpt>
      <trkpt lat="-40.2506240" lon="-71.3783390">
        <ele>1149.6</ele>
        <time>2020-11-15T16:24:06Z</time>
      </trkpt>
      <trkpt lat="-40.2505940" lon="-71.3783220">
        <ele>1149.7</ele>
        <time>2020-11-15T16:24:07Z</time>
      </trkpt>
      <trkpt lat="-40.2505630" lon="-71.3783050">
        <ele>1149.9</ele>
        <time>2020-11-15T16:24:08Z</time>
      </trkpt>
      <trkpt lat="-40.2505330" lon="-71.3782880">
        <ele>1150.1</ele>
        <time>2020-11-15T16:24:09Z</time>
      </trkpt>
      <trkpt lat="-40.2505030" lon="-71.3782700">
        <ele>1150.3</ele>
        <time>2020-11-15T16:24:10Z</time>
      </trkpt>
      <trkpt lat="-40.2504720" lon="-71.3782510">
        <ele>1150.5</ele>
        <time>2020-11-15T16:24:11Z</time>
      </trkpt>
      <trkpt lat="-40.2504400" lon="-71.3782330">
        <ele>1150.7</ele>
        <time>2020-11-15T16:24:12Z</time>
      </trkpt>
      <trkpt lat="-40.2504090" lon="-71.3782160">
        <ele>1150.9</ele>
        <time>2020-11-15T16:24:13Z</time>
      </trkpt>
      <trkpt lat="-40.2503800" lon="-71.3781970">
        <ele>1151.1</ele>
        <time>2020-11-15T16:24:14Z</time>
      </trkpt>
      <trkpt lat="-40.2503510" lon="-71.3781770">
        <ele>1151.2</ele>
        <time>2020-11-15T16:24:15Z</time>
      </trkpt>
      <trkpt lat="-40.2503230" lon="-71.3781570">
        <ele>1151.4</ele>
        <time>2020-11-15T16:24:16Z</time>
      </trkpt>
      <trkpt lat="-40.2502930" lon="-71.3781380">
        <ele>1151.6</ele>
        <time>2020-11-15T16:24:17Z</time>
      </trkpt>
      <trkpt lat="-40.2502620" lon="-71.3781210">
        <ele>1151.8</ele>
        <time>2020-11-15T16:24:18Z</time>
      </trkpt>
      <trkpt lat="-40.2502320" lon="-71.3781020">
        <ele>1152.0</ele>
        <time>2020-11-15T16:24:19Z</time>
      </trkpt>
      <trkpt lat="-40.2502010" lon="-71.3780840">
        <ele>1152.2</ele>
        <time>2020-11-15T16:24:20Z</time>
      </trkpt>
      <trkpt lat="-40.2501710" lon="-71.3780670">
        <ele>1152.4</ele>
        <time>2020-11-15T16:24:21Z</time>
      </trkpt>
      <trkpt lat="-40.2501430" lon="-71.3780490">
        <ele>1152.6</ele>
        <time>2020-11-15T16:24:22Z</time>
      </trkpt>
      <trkpt lat="-40.2501140" lon="-71.3780310">
        <ele>1152.8</ele>
        <time>2020-11-15T16:24:23Z</time>
      </trkpt>
      <trkpt lat="-40.2500850" lon="-71.3780130">
        <ele>1153.0</ele>
        <time>2020-11-15T16:24:24Z</time>
      </trkpt>
      <trkpt lat="-40.2500540" lon="-71.3779960">
        <ele>1153.2</ele>
        <time>2020-11-15T16:24:25Z</time>
      </trkpt>
      <trkpt lat="-40.2500250" lon="-71.3779800">
        <ele>1153.4</ele>
        <time>2020-11-15T16:24:26Z</time>
      </trkpt>
      <trkpt lat="-40.2499970" lon="-71.3779590">
        <ele>1153.6</ele>
        <time>2020-11-15T16:24:27Z</time>
      </trkpt>
      <trkpt lat="-40.2499670" lon="-71.3779410">
        <ele>1153.8</ele>
        <time>2020-11-15T16:24:28Z</time>
      </trkpt>
      <trkpt lat="-40.2499380" lon="-71.3779240">
        <ele>1153.9</ele>
        <time>2020-11-15T16:24:29Z</time>
      </trkpt>
      <trkpt lat="-40.2499080" lon="-71.3779050">
        <ele>1154.1</ele>
        <time>2020-11-15T16:24:30Z</time>
      </trkpt>
      <trkpt lat="-40.2498770" lon="-71.3778870">
        <ele>1154.3</ele>
        <time>2020-11-15T16:24:31Z</time>
      </trkpt>
      <trkpt lat="-40.2498480" lon="-71.3778670">
        <ele>1154.5</ele>
        <time>2020-11-15T16:24:32Z</time>
      </trkpt>
      <trkpt lat="-40.2498180" lon="-71.3778470">
        <ele>1154.7</ele>
        <time>2020-11-15T16:24:33Z</time>
      </trkpt>
      <trkpt lat="-40.2497880" lon="-71.3778280">
        <ele>1154.8</ele>
        <time>2020-11-15T16:24:34Z</time>
      </trkpt>
      <trkpt lat="-40.2497580" lon="-71.3778100">
        <ele>1155.0</ele>
        <time>2020-11-15T16:24:35Z</time>
      </trkpt>
      <trkpt lat="-40.2497270" lon="-71.3777920">
        <ele>1155.1</ele>
        <time>2020-11-15T16:24:36Z</time>
      </trkpt>
      <trkpt lat="-40.2496950" lon="-71.3777740">
        <ele>1155.3</ele>
        <time>2020-11-15T16:24:37Z</time>
      </trkpt>
      <trkpt lat="-40.2496660" lon="-71.3777530">
        <ele>1155.4</ele>
        <time>2020-11-15T16:24:38Z</time>
      </trkpt>
      <trkpt lat="-40.2496370" lon="-71.3777320">
        <ele>1155.5</ele>
        <time>2020-11-15T16:24:39Z</time>
      </trkpt>
      <trkpt lat="-40.2496070" lon="-71.3777100">
        <ele>1155.6</ele>
        <time>2020-11-15T16:24:40Z</time>
      </trkpt>
      <trkpt lat="-40.2495760" lon="-71.3776890">
        <ele>1155.7</ele>
        <time>2020-11-15T16:24:41Z</time>
      </trkpt>
      <trkpt lat="-40.2495440" lon="-71.3776700">
        <ele>1155.8</ele>
        <time>2020-11-15T16:24:42Z</time>
      </trkpt>
      <trkpt lat="-40.2495130" lon="-71.3776500">
        <ele>1155.9</ele>
        <time>2020-11-15T16:24:43Z</time>
      </trkpt>
      <trkpt lat="-40.2494820" lon="-71.3776300">
        <ele>1155.9</ele>
        <time>2020-11-15T16:24:44Z</time>
      </trkpt>
      <trkpt lat="-40.2494490" lon="-71.3776090">
        <ele>1156.0</ele>
        <time>2020-11-15T16:24:45Z</time>
      </trkpt>
      <trkpt lat="-40.2494160" lon="-71.3775860">
        <ele>1156.0</ele>
        <time>2020-11-15T16:24:46Z</time>
      </trkpt>
      <trkpt lat="-40.2493810" lon="-71.3775620">
        <ele>1156.0</ele>
        <time>2020-11-15T16:24:47Z</time>
      </trkpt>
      <trkpt lat="-40.2493460" lon="-71.3775400">
        <ele>1156.0</ele>
        <time>2020-11-15T16:24:48Z</time>
      </trkpt>
      <trkpt lat="-40.2493100" lon="-71.3775160">
        <ele>1156.0</ele>
        <time>2020-11-15T16:24:49Z</time>
      </trkpt>
      <trkpt lat="-40.2492730" lon="-71.3774910">
        <ele>1156.0</ele>
        <time>2020-11-15T16:24:50Z</time>
      </trkpt>
      <trkpt lat="-40.2492360" lon="-71.3774670">
        <ele>1156.0</ele>
        <time>2020-11-15T16:24:51Z</time>
      </trkpt>
      <trkpt lat="-40.2491960" lon="-71.3774440">
        <ele>1156.0</ele>
        <time>2020-11-15T16:24:52Z</time>
      </trkpt>
      <trkpt lat="-40.2491570" lon="-71.3774190">
        <ele>1155.9</ele>
        <time>2020-11-15T16:24:53Z</time>
      </trkpt>
      <trkpt lat="-40.2491170" lon="-71.3773910">
        <ele>1155.9</ele>
        <time>2020-11-15T16:24:54Z</time>
      </trkpt>
      <trkpt lat="-40.2490780" lon="-71.3773630">
        <ele>1155.8</ele>
        <time>2020-11-15T16:24:55Z</time>
      </trkpt>
      <trkpt lat="-40.2490320" lon="-71.3773380">
        <ele>1155.7</ele>
        <time>2020-11-15T16:24:56Z</time>
      </trkpt>
      <trkpt lat="-40.2489860" lon="-71.3773090">
        <ele>1155.6</ele>
        <time>2020-11-15T16:24:57Z</time>
      </trkpt>
      <trkpt lat="-40.2489430" lon="-71.3772790">
        <ele>1155.4</ele>
        <time>2020-11-15T16:24:58Z</time>
      </trkpt>
      <trkpt lat="-40.2488970" lon="-71.3772480">
        <ele>1155.3</ele>
        <time>2020-11-15T16:24:59Z</time>
      </trkpt>
      <trkpt lat="-40.2488490" lon="-71.3772150">
        <ele>1155.0</ele>
        <time>2020-11-15T16:25:00Z</time>
      </trkpt>
      <trkpt lat="-40.2487970" lon="-71.3771840">
        <ele>1154.7</ele>
        <time>2020-11-15T16:25:01Z</time>
      </trkpt>
      <trkpt lat="-40.2487430" lon="-71.3771510">
        <ele>1154.4</ele>
        <time>2020-11-15T16:25:02Z</time>
      </trkpt>
      <trkpt lat="-40.2486890" lon="-71.3771150">
        <ele>1154.1</ele>
        <time>2020-11-15T16:25:03Z</time>
      </trkpt>
      <trkpt lat="-40.2486310" lon="-71.3770810">
        <ele>1153.8</ele>
        <time>2020-11-15T16:25:04Z</time>
      </trkpt>
      <trkpt lat="-40.2485720" lon="-71.3770490">
        <ele>1153.5</ele>
        <time>2020-11-15T16:25:05Z</time>
      </trkpt>
      <trkpt lat="-40.2485100" lon="-71.3770170">
        <ele>1153.2</ele>
        <time>2020-11-15T16:25:06Z</time>
      </trkpt>
      <trkpt lat="-40.2484470" lon="-71.3769800">
        <ele>1152.9</ele>
        <time>2020-11-15T16:25:07Z</time>
      </trkpt>
      <trkpt lat="-40.2483850" lon="-71.3769380">
        <ele>1152.6</ele>
        <time>2020-11-15T16:25:08Z</time>
      </trkpt>
      <trkpt lat="-40.2483210" lon="-71.3768960">
        <ele>1152.3</ele>
        <time>2020-11-15T16:25:09Z</time>
      </trkpt>
      <trkpt lat="-40.2482550" lon="-71.3768510">
        <ele>1152.0</ele>
        <time>2020-11-15T16:25:10Z</time>
      </trkpt>
      <trkpt lat="-40.2481880" lon="-71.3768090">
        <ele>1151.7</ele>
        <time>2020-11-15T16:25:11Z</time>
      </trkpt>
      <trkpt lat="-40.2481200" lon="-71.3767710">
        <ele>1151.5</ele>
        <time>2020-11-15T16:25:12Z</time>
      </trkpt>
      <trkpt lat="-40.2480490" lon="-71.3767340">
        <ele>1151.3</ele>
        <time>2020-11-15T16:25:13Z</time>
      </trkpt>
      <trkpt lat="-40.2479810" lon="-71.3766950">
        <ele>1151.1</ele>
        <time>2020-11-15T16:25:14Z</time>
      </trkpt>
      <trkpt lat="-40.2479160" lon="-71.3766520">
        <ele>1151.0</ele>
        <time>2020-11-15T16:25:15Z</time>
      </trkpt>
      <trkpt lat="-40.2478520" lon="-71.3766080">
        <ele>1150.9</ele>
        <time>2020-11-15T16:25:16Z</time>
      </trkpt>
      <trkpt lat="-40.2477880" lon="-71.3765680">
        <ele>1150.8</ele>
        <time>2020-11-15T16:25:17Z</time>
      </trkpt>
      <trkpt lat="-40.2477260" lon="-71.3765270">
        <ele>1150.8</ele>
        <time>2020-11-15T16:25:18Z</time>
      </trkpt>
      <trkpt lat="-40.2476670" lon="-71.3764840">
        <ele>1150.8</ele>
        <time>2020-11-15T16:25:19Z</time>
      </trkpt>
      <trkpt lat="-40.2476120" lon="-71.3764390">
        <ele>1150.9</ele>
        <time>2020-11-15T16:25:20Z</time>
      </trkpt>
      <trkpt lat="-40.2475560" lon="-71.3763950">
        <ele>1151.0</ele>
        <time>2020-11-15T16:25:21Z</time>
      </trkpt>
      <trkpt lat="-40.2475010" lon="-71.3763570">
        <ele>1151.1</ele>
        <time>2020-11-15T16:25:22Z</time>
      </trkpt>
      <trkpt lat="-40.2474470" lon="-71.3763210">
        <ele>1151.2</ele>
        <time>2020-11-15T16:25:23Z</time>
      </trkpt>
      <trkpt lat="-40.2473960" lon="-71.3762890">
        <ele>1151.3</ele>
        <time>2020-11-15T16:25:24Z</time>
      </trkpt>
      <trkpt lat="-40.2473480" lon="-71.3762570">
        <ele>1151.4</ele>
        <time>2020-11-15T16:25:25Z</time>
      </trkpt>
      <trkpt lat="-40.2472990" lon="-71.3762290">
        <ele>1151.5</ele>
        <time>2020-11-15T16:25:26Z</time>
      </trkpt>
      <trkpt lat="-40.2472540" lon="-71.3762020">
        <ele>1151.6</ele>
        <time>2020-11-15T16:25:27Z</time>
      </trkpt>
      <trkpt lat="-40.2472090" lon="-71.3761780">
        <ele>1151.7</ele>
        <time>2020-11-15T16:25:28Z</time>
      </trkpt>
      <trkpt lat="-40.2471650" lon="-71.3761540">
        <ele>1151.8</ele>
        <time>2020-11-15T16:25:29Z</time>
      </trkpt>
      <trkpt lat="-40.2471250" lon="-71.3761300">
        <ele>1151.9</ele>
        <time>2020-11-15T16:25:30Z</time>
      </trkpt>
      <trkpt lat="-40.2470860" lon="-71.3761050">
        <ele>1152.0</ele>
        <time>2020-11-15T16:25:31Z</time>
      </trkpt>
      <trkpt lat="-40.2470490" lon="-71.3760780">
        <ele>1152.1</ele>
        <time>2020-11-15T16:25:32Z</time>
      </trkpt>
      <trkpt lat="-40.2470100" lon="-71.3760510">
        <ele>1152.2</ele>
        <time>2020-11-15T16:25:33Z</time>
      </trkpt>
      <trkpt lat="-40.2469690" lon="-71.3760270">
        <ele>1152.3</ele>
        <time>2020-11-15T16:25:34Z</time>
      </trkpt>
      <trkpt lat="-40.2469290" lon="-71.3760090">
        <ele>1152.4</ele>
        <time>2020-11-15T16:25:35Z</time>
      </trkpt>
      <trkpt lat="-40.2468920" lon="-71.3759890">
        <ele>1152.5</ele>
        <time>2020-11-15T16:25:36Z</time>
      </trkpt>
      <trkpt lat="-40.2468540" lon="-71.3759670">
        <ele>1152.6</ele>
        <time>2020-11-15T16:25:37Z</time>
      </trkpt>
      <trkpt lat="-40.2468180" lon="-71.3759370">
        <ele>1152.7</ele>
        <time>2020-11-15T16:25:38Z</time>
      </trkpt>
      <trkpt lat="-40.2467840" lon="-71.3759080">
        <ele>1152.7</ele>
        <time>2020-11-15T16:25:39Z</time>
      </trkpt>
      <trkpt lat="-40.2467450" lon="-71.3758850">
        <ele>1152.8</ele>
        <time>2020-11-15T16:25:40Z</time>
      </trkpt>
      <trkpt lat="-40.2467040" lon="-71.3758620">
        <ele>1152.9</ele>
        <time>2020-11-15T16:25:41Z</time>
      </trkpt>
      <trkpt lat="-40.2466620" lon="-71.3758400">
        <ele>1153.0</ele>
        <time>2020-11-15T16:25:42Z</time>
      </trkpt>
      <trkpt lat="-40.2466200" lon="-71.3758150">
        <ele>1153.1</ele>
        <time>2020-11-15T16:25:43Z</time>
      </trkpt>
      <trkpt lat="-40.2465810" lon="-71.3757870">
        <ele>1153.2</ele>
        <time>2020-11-15T16:25:44Z</time>
      </trkpt>
      <trkpt lat="-40.2465420" lon="-71.3757610">
        <ele>1153.3</ele>
        <time>2020-11-15T16:25:45Z</time>
      </trkpt>
      <trkpt lat="-40.2465040" lon="-71.3757330">
        <ele>1153.4</ele>
        <time>2020-11-15T16:25:46Z</time>
      </trkpt>
      <trkpt lat="-40.2464680" lon="-71.3757050">
        <ele>1153.5</ele>
        <time>2020-11-15T16:25:47Z</time>
      </trkpt>
      <trkpt lat="-40.2464310" lon="-71.3756780">
        <ele>1153.6</ele>
        <time>2020-11-15T16:25:48Z</time>
      </trkpt>
      <trkpt lat="-40.2463960" lon="-71.3756500">
        <ele>1153.7</ele>
        <time>2020-11-15T16:25:49Z</time>
      </trkpt>
      <trkpt lat="-40.2463600" lon="-71.3756230">
        <ele>1153.8</ele>
        <time>2020-11-15T16:25:50Z</time>
      </trkpt>
      <trkpt lat="-40.2463240" lon="-71.3755940">
        <ele>1153.9</ele>
        <time>2020-11-15T16:25:51Z</time>
      </trkpt>
      <trkpt lat="-40.2462830" lon="-71.3755700">
        <ele>1154.0</ele>
        <time>2020-11-15T16:25:52Z</time>
      </trkpt>
      <trkpt lat="-40.2462400" lon="-71.3755460">
        <ele>1154.1</ele>
        <time>2020-11-15T16:25:53Z</time>
      </trkpt>
      <trkpt lat="-40.2462000" lon="-71.3755180">
        <ele>1154.2</ele>
        <time>2020-11-15T16:25:54Z</time>
      </trkpt>
      <trkpt lat="-40.2461590" lon="-71.3754900">
        <ele>1154.3</ele>
        <time>2020-11-15T16:25:55Z</time>
      </trkpt>
      <trkpt lat="-40.2461190" lon="-71.3754630">
        <ele>1154.5</ele>
        <time>2020-11-15T16:25:56Z</time>
      </trkpt>
      <trkpt lat="-40.2460790" lon="-71.3754360">
        <ele>1154.6</ele>
        <time>2020-11-15T16:25:57Z</time>
      </trkpt>
      <trkpt lat="-40.2460390" lon="-71.3754090">
        <ele>1154.7</ele>
        <time>2020-11-15T16:25:58Z</time>
      </trkpt>
      <trkpt lat="-40.2459980" lon="-71.3753810">
        <ele>1154.9</ele>
        <time>2020-11-15T16:25:59Z</time>
      </trkpt>
      <trkpt lat="-40.2459570" lon="-71.3753520">
        <ele>1155.0</ele>
        <time>2020-11-15T16:26:00Z</time>
      </trkpt>
      <trkpt lat="-40.2459180" lon="-71.3753250">
        <ele>1155.2</ele>
        <time>2020-11-15T16:26:01Z</time>
      </trkpt>
      <trkpt lat="-40.2458810" lon="-71.3752970">
        <ele>1155.3</ele>
        <time>2020-11-15T16:26:02Z</time>
      </trkpt>
      <trkpt lat="-40.2458420" lon="-71.3752710">
        <ele>1155.5</ele>
        <time>2020-11-15T16:26:03Z</time>
      </trkpt>
      <trkpt lat="-40.2458040" lon="-71.3752450">
        <ele>1155.6</ele>
        <time>2020-11-15T16:26:04Z</time>
      </trkpt>
      <trkpt lat="-40.2457660" lon="-71.3752190">
        <ele>1155.8</ele>
        <time>2020-11-15T16:26:05Z</time>
      </trkpt>
      <trkpt lat="-40.2457290" lon="-71.3751920">
        <ele>1156.0</ele>
        <time>2020-11-15T16:26:06Z</time>
      </trkpt>
      <trkpt lat="-40.2456930" lon="-71.3751640">
        <ele>1156.2</ele>
        <time>2020-11-15T16:26:07Z</time>
      </trkpt>
      <trkpt lat="-40.2456560" lon="-71.3751350">
        <ele>1156.4</ele>
        <time>2020-11-15T16:26:08Z</time>
      </trkpt>
      <trkpt lat="-40.2456200" lon="-71.3751080">
        <ele>1156.6</ele>
        <time>2020-11-15T16:26:09Z</time>
      </trkpt>
      <trkpt lat="-40.2455820" lon="-71.3750850">
        <ele>1156.8</ele>
        <time>2020-11-15T16:26:10Z</time>
      </trkpt>
      <trkpt lat="-40.2455460" lon="-71.3750590">
        <ele>1157.0</ele>
        <time>2020-11-15T16:26:11Z</time>
      </trkpt>
      <trkpt lat="-40.2455110" lon="-71.3750350">
        <ele>1157.2</ele>
        <time>2020-11-15T16:26:12Z</time>
      </trkpt>
      <trkpt lat="-40.2454750" lon="-71.3750090">
        <ele>1157.4</ele>
        <time>2020-11-15T16:26:13Z</time>
      </trkpt>
      <trkpt lat="-40.2454390" lon="-71.3749850">
        <ele>1157.7</ele>
        <time>2020-11-15T16:26:14Z</time>
      </trkpt>
      <trkpt lat="-40.2454020" lon="-71.3749600">
        <ele>1157.9</ele>
        <time>2020-11-15T16:26:15Z</time>
      </trkpt>
      <trkpt lat="-40.2453620" lon="-71.3749380">
        <ele>1158.1</ele>
        <time>2020-11-15T16:26:16Z</time>
      </trkpt>
      <trkpt lat="-40.2453240" lon="-71.3749160">
        <ele>1158.4</ele>
        <time>2020-11-15T16:26:17Z</time>
      </trkpt>
      <trkpt lat="-40.2452870" lon="-71.3748900">
        <ele>1158.6</ele>
        <time>2020-11-15T16:26:18Z</time>
      </trkpt>
      <trkpt lat="-40.2452480" lon="-71.3748660">
        <ele>1158.9</ele>
        <time>2020-11-15T16:26:19Z</time>
      </trkpt>
      <trkpt lat="-40.2452070" lon="-71.3748430">
        <ele>1159.1</ele>
        <time>2020-11-15T16:26:20Z</time>
      </trkpt>
      <trkpt lat="-40.2451640" lon="-71.3748210">
        <ele>1159.4</ele>
        <time>2020-11-15T16:26:21Z</time>
      </trkpt>
      <trkpt lat="-40.2451210" lon="-71.3748000">
        <ele>1159.7</ele>
        <time>2020-11-15T16:26:22Z</time>
      </trkpt>
      <trkpt lat="-40.2450810" lon="-71.3747780">
        <ele>1159.9</ele>
        <time>2020-11-15T16:26:23Z</time>
      </trkpt>
      <trkpt lat="-40.2450420" lon="-71.3747560">
        <ele>1160.2</ele>
        <time>2020-11-15T16:26:24Z</time>
      </trkpt>
      <trkpt lat="-40.2450030" lon="-71.3747300">
        <ele>1160.5</ele>
        <time>2020-11-15T16:26:25Z</time>
      </trkpt>
      <trkpt lat="-40.2449650" lon="-71.3747030">
        <ele>1160.7</ele>
        <time>2020-11-15T16:26:26Z</time>
      </trkpt>
      <trkpt lat="-40.2449300" lon="-71.3746780">
        <ele>1161.0</ele>
        <time>2020-11-15T16:26:27Z</time>
      </trkpt>
      <trkpt lat="-40.2448950" lon="-71.3746550">
        <ele>1161.2</ele>
        <time>2020-11-15T16:26:28Z</time>
      </trkpt>
      <trkpt lat="-40.2448600" lon="-71.3746290">
        <ele>1161.4</ele>
        <time>2020-11-15T16:26:29Z</time>
      </trkpt>
      <trkpt lat="-40.2448280" lon="-71.3746020">
        <ele>1161.7</ele>
        <time>2020-11-15T16:26:30Z</time>
      </trkpt>
      <trkpt lat="-40.2447970" lon="-71.3745730">
        <ele>1161.9</ele>
        <time>2020-11-15T16:26:31Z</time>
      </trkpt>
      <trkpt lat="-40.2447660" lon="-71.3745450">
        <ele>1162.1</ele>
        <time>2020-11-15T16:26:32Z</time>
      </trkpt>
      <trkpt lat="-40.2447330" lon="-71.3745210">
        <ele>1162.3</ele>
        <time>2020-11-15T16:26:33Z</time>
      </trkpt>
      <trkpt lat="-40.2447010" lon="-71.3744960">
        <ele>1162.5</ele>
        <time>2020-11-15T16:26:34Z</time>
      </trkpt>
      <trkpt lat="-40.2446730" lon="-71.3744690">
        <ele>1162.7</ele>
        <time>2020-11-15T16:26:35Z</time>
      </trkpt>
      <trkpt lat="-40.2446440" lon="-71.3744410">
        <ele>1162.9</ele>
        <time>2020-11-15T16:26:36Z</time>
      </trkpt>
      <trkpt lat="-40.2446140" lon="-71.3744140">
        <ele>1163.1</ele>
        <time>2020-11-15T16:26:37Z</time>
      </trkpt>
      <trkpt lat="-40.2445840" lon="-71.3743860">
        <ele>1163.3</ele>
        <time>2020-11-15T16:26:38Z</time>
      </trkpt>
      <trkpt lat="-40.2445540" lon="-71.3743590">
        <ele>1163.6</ele>
        <time>2020-11-15T16:26:39Z</time>
      </trkpt>
      <trkpt lat="-40.2445270" lon="-71.3743290">
        <ele>1163.8</ele>
        <time>2020-11-15T16:26:40Z</time>
      </trkpt>
      <trkpt lat="-40.2445030" lon="-71.3742980">
        <ele>1164.0</ele>
        <time>2020-11-15T16:26:41Z</time>
      </trkpt>
      <trkpt lat="-40.2444760" lon="-71.3742680">
        <ele>1164.2</ele>
        <time>2020-11-15T16:26:42Z</time>
      </trkpt>
      <trkpt lat="-40.2444500" lon="-71.3742380">
        <ele>1164.4</ele>
        <time>2020-11-15T16:26:43Z</time>
      </trkpt>
      <trkpt lat="-40.2444220" lon="-71.3742110">
        <ele>1164.6</ele>
        <time>2020-11-15T16:26:44Z</time>
      </trkpt>
      <trkpt lat="-40.2443930" lon="-71.3741820">
        <ele>1164.8</ele>
        <time>2020-11-15T16:26:45Z</time>
      </trkpt>
      <trkpt lat="-40.2443660" lon="-71.3741520">
        <ele>1165.0</ele>
        <time>2020-11-15T16:26:46Z</time>
      </trkpt>
      <trkpt lat="-40.2443380" lon="-71.3741210">
        <ele>1165.3</ele>
        <time>2020-11-15T16:26:47Z</time>
      </trkpt>
      <trkpt lat="-40.2443100" lon="-71.3740890">
        <ele>1165.5</ele>
        <time>2020-11-15T16:26:48Z</time>
      </trkpt>
      <trkpt lat="-40.2442820" lon="-71.3740580">
        <ele>1165.7</ele>
        <time>2020-11-15T16:26:49Z</time>
      </trkpt>
      <trkpt lat="-40.2442540" lon="-71.3740270">
        <ele>1165.9</ele>
        <time>2020-11-15T16:26:50Z</time>
      </trkpt>
      <trkpt lat="-40.2442240" lon="-71.3739970">
        <ele>1166.1</ele>
        <time>2020-11-15T16:26:51Z</time>
      </trkpt>
      <trkpt lat="-40.2441920" lon="-71.3739690">
        <ele>1166.4</ele>
        <time>2020-11-15T16:26:52Z</time>
      </trkpt>
      <trkpt lat="-40.2441620" lon="-71.3739370">
        <ele>1166.6</ele>
        <time>2020-11-15T16:26:53Z</time>
      </trkpt>
      <trkpt lat="-40.2441300" lon="-71.3739030">
        <ele>1166.8</ele>
        <time>2020-11-15T16:26:54Z</time>
      </trkpt>
      <trkpt lat="-40.2441010" lon="-71.3738670">
        <ele>1167.0</ele>
        <time>2020-11-15T16:26:55Z</time>
      </trkpt>
      <trkpt lat="-40.2440710" lon="-71.3738320">
        <ele>1167.2</ele>
        <time>2020-11-15T16:26:56Z</time>
      </trkpt>
      <trkpt lat="-40.2440370" lon="-71.3738010">
        <ele>1167.5</ele>
        <time>2020-11-15T16:26:57Z</time>
      </trkpt>
      <trkpt lat="-40.2440070" lon="-71.3737660">
        <ele>1167.7</ele>
        <time>2020-11-15T16:26:58Z</time>
      </trkpt>
      <trkpt lat="-40.2439770" lon="-71.3737310">
        <ele>1167.9</ele>
        <time>2020-11-15T16:26:59Z</time>
      </trkpt>
      <trkpt lat="-40.2439450" lon="-71.3736990">
        <ele>1168.1</ele>
        <time>2020-11-15T16:27:00Z</time>
      </trkpt>
      <trkpt lat="-40.2439130" lon="-71.3736690">
        <ele>1168.4</ele>
        <time>2020-11-15T16:27:01Z</time>
      </trkpt>
      <trkpt lat="-40.2438830" lon="-71.3736360">
        <ele>1168.6</ele>
        <time>2020-11-15T16:27:02Z</time>
      </trkpt>
      <trkpt lat="-40.2438540" lon="-71.3736040">
        <ele>1168.8</ele>
        <time>2020-11-15T16:27:03Z</time>
      </trkpt>
      <trkpt lat="-40.2438260" lon="-71.3735700">
        <ele>1169.0</ele>
        <time>2020-11-15T16:27:04Z</time>
      </trkpt>
      <trkpt lat="-40.2437970" lon="-71.3735380">
        <ele>1169.2</ele>
        <time>2020-11-15T16:27:05Z</time>
      </trkpt>
      <trkpt lat="-40.2437660" lon="-71.3735090">
        <ele>1169.4</ele>
        <time>2020-11-15T16:27:06Z</time>
      </trkpt>
      <trkpt lat="-40.2437340" lon="-71.3734820">
        <ele>1169.6</ele>
        <time>2020-11-15T16:27:07Z</time>
      </trkpt>
      <trkpt lat="-40.2437050" lon="-71.3734520">
        <ele>1169.8</ele>
        <time>2020-11-15T16:27:08Z</time>
      </trkpt>
      <trkpt lat="-40.2436730" lon="-71.3734220">
        <ele>1170.0</ele>
        <time>2020-11-15T16:27:09Z</time>
      </trkpt>
      <trkpt lat="-40.2436440" lon="-71.3733930">
        <ele>1170.2</ele>
        <time>2020-11-15T16:27:10Z</time>
      </trkpt>
      <trkpt lat="-40.2436130" lon="-71.3733650">
        <ele>1170.4</ele>
        <time>2020-11-15T16:27:11Z</time>
      </trkpt>
      <trkpt lat="-40.2435830" lon="-71.3733340">
        <ele>1170.6</ele>
        <time>2020-11-15T16:27:12Z</time>
      </trkpt>
      <trkpt lat="-40.2435530" lon="-71.3733020">
        <ele>1170.8</ele>
        <time>2020-11-15T16:27:13Z</time>
      </trkpt>
      <trkpt lat="-40.2435230" lon="-71.3732730">
        <ele>1171.0</ele>
        <time>2020-11-15T16:27:14Z</time>
      </trkpt>
      <trkpt lat="-40.2434920" lon="-71.3732460">
        <ele>1171.2</ele>
        <time>2020-11-15T16:27:15Z</time>
      </trkpt>
      <trkpt lat="-40.2434610" lon="-71.3732180">
        <ele>1171.4</ele>
        <time>2020-11-15T16:27:16Z</time>
      </trkpt>
      <trkpt lat="-40.2434300" lon="-71.3731910">
        <ele>1171.6</ele>
        <time>2020-11-15T16:27:17Z</time>
      </trkpt>
      <trkpt lat="-40.2433980" lon="-71.3731620">
        <ele>1171.8</ele>
        <time>2020-11-15T16:27:18Z</time>
      </trkpt>
      <trkpt lat="-40.2433640" lon="-71.3731360">
        <ele>1172.0</ele>
        <time>2020-11-15T16:27:19Z</time>
      </trkpt>
      <trkpt lat="-40.2433310" lon="-71.3731100">
        <ele>1172.2</ele>
        <time>2020-11-15T16:27:20Z</time>
      </trkpt>
      <trkpt lat="-40.2432980" lon="-71.3730850">
        <ele>1172.4</ele>
        <time>2020-11-15T16:27:21Z</time>
      </trkpt>
      <trkpt lat="-40.2432670" lon="-71.3730590">
        <ele>1172.6</ele>
        <time>2020-11-15T16:27:22Z</time>
      </trkpt>
      <trkpt lat="-40.2432360" lon="-71.3730340">
        <ele>1172.8</ele>
        <time>2020-11-15T16:27:23Z</time>
      </trkpt>
      <trkpt lat="-40.2432050" lon="-71.3730110">
        <ele>1172.9</ele>
        <time>2020-11-15T16:27:24Z</time>
      </trkpt>
      <trkpt lat="-40.2431740" lon="-71.3729880">
        <ele>1173.1</ele>
        <time>2020-11-15T16:27:25Z</time>
      </trkpt>
      <trkpt lat="-40.2431420" lon="-71.3729660">
        <ele>1173.2</ele>
        <time>2020-11-15T16:27:26Z</time>
      </trkpt>
      <trkpt lat="-40.2431100" lon="-71.3729450">
        <ele>1173.4</ele>
        <time>2020-11-15T16:27:27Z</time>
      </trkpt>
      <trkpt lat="-40.2430780" lon="-71.3729250">
        <ele>1173.5</ele>
        <time>2020-11-15T16:27:28Z</time>
      </trkpt>
      <trkpt lat="-40.2430450" lon="-71.3729060">
        <ele>1173.7</ele>
        <time>2020-11-15T16:27:29Z</time>
      </trkpt>
      <trkpt lat="-40.2430130" lon="-71.3728850">
        <ele>1173.8</ele>
        <time>2020-11-15T16:27:30Z</time>
      </trkpt>
      <trkpt lat="-40.2429820" lon="-71.3728640">
        <ele>1173.9</ele>
        <time>2020-11-15T16:27:31Z</time>
      </trkpt>
      <trkpt lat="-40.2429520" lon="-71.3728430">
        <ele>1174.1</ele>
        <time>2020-11-15T16:27:32Z</time>
      </trkpt>
      <trkpt lat="-40.2429200" lon="-71.3728240">
        <ele>1174.2</ele>
        <time>2020-11-15T16:27:33Z</time>
      </trkpt>
      <trkpt lat="-40.2428870" lon="-71.3728060">
        <ele>1174.3</ele>
        <time>2020-11-15T16:27:34Z</time>
      </trkpt>
      <trkpt lat="-40.2428540" lon="-71.3727900">
        <ele>1174.4</ele>
        <time>2020-11-15T16:27:35Z</time>
      </trkpt>
      <trkpt lat="-40.2428200" lon="-71.3727750">
        <ele>1174.5</ele>
        <time>2020-11-15T16:27:36Z</time>
      </trkpt>
      <trkpt lat="-40.2427870" lon="-71.3727590">
        <ele>1174.6</ele>
        <time>2020-11-15T16:27:37Z</time>
      </trkpt>
      <trkpt lat="-40.2427540" lon="-71.3727420">
        <ele>1174.7</ele>
        <time>2020-11-15T16:27:38Z</time>
      </trkpt>
      <trkpt lat="-40.2427200" lon="-71.3727240">
        <ele>1174.7</ele>
        <time>2020-11-15T16:27:39Z</time>
      </trkpt>
      <trkpt lat="-40.2426850" lon="-71.3727070">
        <ele>1174.8</ele>
        <time>2020-11-15T16:27:40Z</time>
      </trkpt>
      <trkpt lat="-40.2426510" lon="-71.3726910">
        <ele>1174.9</ele>
        <time>2020-11-15T16:27:41Z</time>
      </trkpt>
      <trkpt lat="-40.2426190" lon="-71.3726760">
        <ele>1174.9</ele>
        <time>2020-11-15T16:27:42Z</time>
      </trkpt>
      <trkpt lat="-40.2425850" lon="-71.3726610">
        <ele>1175.0</ele>
        <time>2020-11-15T16:27:43Z</time>
      </trkpt>
      <trkpt lat="-40.2425520" lon="-71.3726440">
        <ele>1175.0</ele>
        <time>2020-11-15T16:27:44Z</time>
      </trkpt>
      <trkpt lat="-40.2425160" lon="-71.3726300">
        <ele>1175.1</ele>
        <time>2020-11-15T16:27:45Z</time>
      </trkpt>
      <trkpt lat="-40.2424790" lon="-71.3726170">
        <ele>1175.1</ele>
        <time>2020-11-15T16:27:46Z</time>
      </trkpt>
      <trkpt lat="-40.2424430" lon="-71.3726070">
        <ele>1175.1</ele>
        <time>2020-11-15T16:27:47Z</time>
      </trkpt>
      <trkpt lat="-40.2424030" lon="-71.3725990">
        <ele>1175.1</ele>
        <time>2020-11-15T16:27:48Z</time>
      </trkpt>
      <trkpt lat="-40.2423600" lon="-71.3725880">
        <ele>1175.2</ele>
        <time>2020-11-15T16:27:49Z</time>
      </trkpt>
      <trkpt lat="-40.2423160" lon="-71.3725780">
        <ele>1175.2</ele>
        <time>2020-11-15T16:27:50Z</time>
      </trkpt>
      <trkpt lat="-40.2422760" lon="-71.3725640">
        <ele>1175.2</ele>
        <time>2020-11-15T16:27:51Z</time>
      </trkpt>
      <trkpt lat="-40.2422350" lon="-71.3725490">
        <ele>1175.2</ele>
        <time>2020-11-15T16:27:52Z</time>
      </trkpt>
      <trkpt lat="-40.2421920" lon="-71.3725340">
        <ele>1175.2</ele>
        <time>2020-11-15T16:27:53Z</time>
      </trkpt>
      <trkpt lat="-40.2421520" lon="-71.3725180">
        <ele>1175.1</ele>
        <time>2020-11-15T16:27:54Z</time>
      </trkpt>
      <trkpt lat="-40.2421120" lon="-71.3725040">
        <ele>1175.1</ele>
        <time>2020-11-15T16:27:55Z</time>
      </trkpt>
      <trkpt lat="-40.2420710" lon="-71.3724930">
        <ele>1175.1</ele>
        <time>2020-11-15T16:27:56Z</time>
      </trkpt>
      <trkpt lat="-40.2420290" lon="-71.3724820">
        <ele>1175.1</ele>
        <time>2020-11-15T16:27:57Z</time>
      </trkpt>
      <trkpt lat="-40.2419880" lon="-71.3724650">
        <ele>1175.0</ele>
        <time>2020-11-15T16:27:58Z</time>
      </trkpt>
      <trkpt lat="-40.2419430" lon="-71.3724470">
        <ele>1175.0</ele>
        <time>2020-11-15T13:37:18Z</time>
      </trkpt>
      <trkpt lat="-40.2419020" lon="-71.3724320">
        <ele>1175.0</ele>
        <time>2020-11-15T13:37:19Z</time>
      </trkpt>
      <trkpt lat="-40.2418600" lon="-71.3724170">
        <ele>1175.0</ele>
        <time>2020-11-15T13:37:20Z</time>
      </trkpt>
      <trkpt lat="-40.2418160" lon="-71.3724020">
        <ele>1175.0</ele>
        <time>2020-11-15T13:37:21Z</time>
      </trkpt>
      <trkpt lat="-40.2417700" lon="-71.3723880">
        <ele>1175.0</ele>
        <time>2020-11-15T13:37:22Z</time>
      </trkpt>
      <trkpt lat="-40.2417230" lon="-71.3723740">
        <ele>1175.0</ele>
        <time>2020-11-15T13:37:23Z</time>
      </trkpt>
      <trkpt lat="-40.2416770" lon="-71.3723600">
        <ele>1174.9</ele>
        <time>2020-11-15T13:37:25Z</time>
      </trkpt>
      <trkpt lat="-40.2416340" lon="-71.3723460">
        <ele>1174.9</ele>
        <time>2020-11-15T13:37:26Z</time>
      </trkpt>
      <trkpt lat="-40.2415930" lon="-71.3723330">
        <ele>1174.8</ele>
        <time>2020-11-15T13:37:27Z</time>
      </trkpt>
      <trkpt lat="-40.2415520" lon="-71.3723200">
        <ele>1174.7</ele>
        <time>2020-11-15T13:37:28Z</time>
      </trkpt>
      <trkpt lat="-40.2415100" lon="-71.3723070">
        <ele>1174.6</ele>
        <time>2020-11-15T13:37:29Z</time>
      </trkpt>
      <trkpt lat="-40.2414650" lon="-71.3722930">
        <ele>1174.5</ele>
        <time>2020-11-15T13:37:30Z</time>
      </trkpt>
      <trkpt lat="-40.2413640" lon="-71.3722670">
        <ele>1174.2</ele>
        <time>2020-11-15T13:37:31Z</time>
      </trkpt>
      <trkpt lat="-40.2413100" lon="-71.3722560">
        <ele>1174.0</ele>
        <time>2020-11-15T13:37:32Z</time>
      </trkpt>
      <trkpt lat="-40.2412540" lon="-71.3722450">
        <ele>1173.8</ele>
        <time>2020-11-15T13:37:33Z</time>
      </trkpt>
      <trkpt lat="-40.2411960" lon="-71.3722360">
        <ele>1173.5</ele>
        <time>2020-11-15T13:37:35Z</time>
      </trkpt>
      <trkpt lat="-40.2411370" lon="-71.3722290">
        <ele>1173.3</ele>
        <time>2020-11-15T13:37:35Z</time>
      </trkpt>
      <trkpt lat="-40.2410440" lon="-71.3722230">
        <ele>1172.9</ele>
        <time>2020-11-15T13:37:36Z</time>
      </trkpt>
      <trkpt lat="-40.2409500" lon="-71.3722170">
        <ele>1172.4</ele>
        <time>2020-11-15T13:37:37Z</time>
      </trkpt>
      <trkpt lat="-40.2408830" lon="-71.3722140">
        <ele>1172.1</ele>
        <time>2020-11-15T13:37:38Z</time>
      </trkpt>
      <trkpt lat="-40.2408120" lon="-71.3722130">
        <ele>1171.7</ele>
        <time>2020-11-15T13:37:39Z</time>
      </trkpt>
      <trkpt lat="-40.2407380" lon="-71.3722140">
        <ele>1171.2</ele>
        <time>2020-11-15T13:37:40Z</time>
      </trkpt>
      <trkpt lat="-40.2406600" lon="-71.3722170">
        <ele>1170.8</ele>
        <time>2020-11-15T13:37:41Z</time>
      </trkpt>
      <trkpt lat="-40.2405810" lon="-71.3722210">
        <ele>1170.4</ele>
        <time>2020-11-15T13:37:43Z</time>
      </trkpt>
      <trkpt lat="-40.2405030" lon="-71.3722260">
        <ele>1170.1</ele>
        <time>2020-11-15T13:37:44Z</time>
      </trkpt>
      <trkpt lat="-40.2403400" lon="-71.3722400">
        <ele>1169.3</ele>
        <time>2020-11-15T13:37:45Z</time>
      </trkpt>
      <trkpt lat="-40.2402570" lon="-71.3722460">
        <ele>1168.9</ele>
        <time>2020-11-15T13:37:46Z</time>
      </trkpt>
      <trkpt lat="-40.2401740" lon="-71.3722530">
        <ele>1168.5</ele>
        <time>2020-11-15T13:37:47Z</time>
      </trkpt>
      <trkpt lat="-40.2400920" lon="-71.3722610">
        <ele>1168.3</ele>
        <time>2020-11-15T13:37:49Z</time>
      </trkpt>
      <trkpt lat="-40.2400100" lon="-71.3722700">
        <ele>1168.1</ele>
        <time>2020-11-15T13:37:50Z</time>
      </trkpt>
      <trkpt lat="-40.2399270" lon="-71.3722790">
        <ele>1167.9</ele>
        <time>2020-11-15T13:37:51Z</time>
      </trkpt>
      <trkpt lat="-40.2397620" lon="-71.3723010">
        <ele>1167.8</ele>
        <time>2020-11-15T13:37:52Z</time>
      </trkpt>
      <trkpt lat="-40.2396810" lon="-71.3723120">
        <ele>1167.8</ele>
        <time>2020-11-15T13:37:53Z</time>
      </trkpt>
      <trkpt lat="-40.2396020" lon="-71.3723210">
        <ele>1167.7</ele>
        <time>2020-11-15T13:37:54Z</time>
      </trkpt>
      <trkpt lat="-40.2395240" lon="-71.3723310">
        <ele>1167.7</ele>
        <time>2020-11-15T13:37:56Z</time>
      </trkpt>
      <trkpt lat="-40.2394440" lon="-71.3723440">
        <ele>1167.7</ele>
        <time>2020-11-15T13:37:57Z</time>
      </trkpt>
      <trkpt lat="-40.2392860" lon="-71.3723690">
        <ele>1167.7</ele>
        <time>2020-11-15T13:37:58Z</time>
      </trkpt>
      <trkpt lat="-40.2392080" lon="-71.3723820">
        <ele>1167.6</ele>
        <time>2020-11-15T13:37:59Z</time>
      </trkpt>
      <trkpt lat="-40.2391320" lon="-71.3723930">
        <ele>1167.6</ele>
        <time>2020-11-15T13:38:00Z</time>
      </trkpt>
      <trkpt lat="-40.2390550" lon="-71.3724030">
        <ele>1167.6</ele>
        <time>2020-11-15T13:38:02Z</time>
      </trkpt>
      <trkpt lat="-40.2389780" lon="-71.3724140">
        <ele>1167.5</ele>
        <time>2020-11-15T13:38:03Z</time>
      </trkpt>
      <trkpt lat="-40.2388260" lon="-71.3724310">
        <ele>1167.3</ele>
        <time>2020-11-15T13:38:04Z</time>
      </trkpt>
      <trkpt lat="-40.2387500" lon="-71.3724370">
        <ele>1167.1</ele>
        <time>2020-11-15T13:38:06Z</time>
      </trkpt>
      <trkpt lat="-40.2386740" lon="-71.3724420">
        <ele>1166.9</ele>
        <time>2020-11-15T13:38:07Z</time>
      </trkpt>
      <trkpt lat="-40.2385960" lon="-71.3724470">
        <ele>1166.6</ele>
        <time>2020-11-15T13:38:08Z</time>
      </trkpt>
      <trkpt lat="-40.2384360" lon="-71.3724590">
        <ele>1166.1</ele>
        <time>2020-11-15T13:38:09Z</time>
      </trkpt>
      <trkpt lat="-40.2383550" lon="-71.3724650">
        <ele>1165.8</ele>
        <time>2020-11-15T13:38:10Z</time>
      </trkpt>
      <trkpt lat="-40.2382730" lon="-71.3724720">
        <ele>1165.4</ele>
        <time>2020-11-15T13:38:11Z</time>
      </trkpt>
      <trkpt lat="-40.2381900" lon="-71.3724800">
        <ele>1165.1</ele>
        <time>2020-11-15T13:38:12Z</time>
      </trkpt>
      <trkpt lat="-40.2381050" lon="-71.3724900">
        <ele>1164.8</ele>
        <time>2020-11-15T13:38:13Z</time>
      </trkpt>
      <trkpt lat="-40.2380220" lon="-71.3724990">
        <ele>1164.5</ele>
        <time>2020-11-15T13:38:14Z</time>
      </trkpt>
      <trkpt lat="-40.2379390" lon="-71.3725080">
        <ele>1164.2</ele>
        <time>2020-11-15T13:38:15Z</time>
      </trkpt>
      <trkpt lat="-40.2378580" lon="-71.3725150">
        <ele>1163.9</ele>
        <time>2020-11-15T13:38:16Z</time>
      </trkpt>
      <trkpt lat="-40.2377770" lon="-71.3725220">
        <ele>1163.6</ele>
        <time>2020-11-15T13:38:18Z</time>
      </trkpt>
      <trkpt lat="-40.2376950" lon="-71.3725290">
        <ele>1163.3</ele>
        <time>2020-11-15T13:38:19Z</time>
      </trkpt>
      <trkpt lat="-40.2375290" lon="-71.3725420">
        <ele>1162.8</ele>
        <time>2020-11-15T13:38:20Z</time>
      </trkpt>
      <trkpt lat="-40.2374450" lon="-71.3725490">
        <ele>1162.5</ele>
        <time>2020-11-15T13:38:21Z</time>
      </trkpt>
      <trkpt lat="-40.2373600" lon="-71.3725550">
        <ele>1162.2</ele>
        <time>2020-11-15T13:38:22Z</time>
      </trkpt>
      <trkpt lat="-40.2372730" lon="-71.3725620">
        <ele>1162.0</ele>
        <time>2020-11-15T13:38:24Z</time>
      </trkpt>
      <trkpt lat="-40.2371430" lon="-71.3725750">
        <ele>1161.7</ele>
        <time>2020-11-15T13:38:25Z</time>
      </trkpt>
      <trkpt lat="-40.2370120" lon="-71.3725880">
        <ele>1161.5</ele>
        <time>2020-11-15T13:38:26Z</time>
      </trkpt>
      <trkpt lat="-40.2369260" lon="-71.3725960">
        <ele>1161.4</ele>
        <time>2020-11-15T13:38:28Z</time>
      </trkpt>
      <trkpt lat="-40.2368400" lon="-71.3726020">
        <ele>1161.4</ele>
        <time>2020-11-15T13:38:29Z</time>
      </trkpt>
      <trkpt lat="-40.2366710" lon="-71.3726110">
        <ele>1161.4</ele>
        <time>2020-11-15T13:38:30Z</time>
      </trkpt>
      <trkpt lat="-40.2365860" lon="-71.3726130">
        <ele>1161.4</ele>
        <time>2020-11-15T13:38:31Z</time>
      </trkpt>
      <trkpt lat="-40.2365000" lon="-71.3726130">
        <ele>1161.5</ele>
        <time>2020-11-15T13:38:32Z</time>
      </trkpt>
      <trkpt lat="-40.2364140" lon="-71.3726090">
        <ele>1161.5</ele>
        <time>2020-11-15T13:38:33Z</time>
      </trkpt>
      <trkpt lat="-40.2363290" lon="-71.3726020">
        <ele>1161.6</ele>
        <time>2020-11-15T13:38:34Z</time>
      </trkpt>
      <trkpt lat="-40.2362450" lon="-71.3725910">
        <ele>1161.6</ele>
        <time>2020-11-15T13:38:35Z</time>
      </trkpt>
      <trkpt lat="-40.2361630" lon="-71.3725760">
        <ele>1161.7</ele>
        <time>2020-11-15T13:38:36Z</time>
      </trkpt>
      <trkpt lat="-40.2360840" lon="-71.3725570">
        <ele>1161.7</ele>
        <time>2020-11-15T13:38:37Z</time>
      </trkpt>
      <trkpt lat="-40.2360050" lon="-71.3725360">
        <ele>1161.7</ele>
        <time>2020-11-15T13:38:38Z</time>
      </trkpt>
      <trkpt lat="-40.2359260" lon="-71.3725100">
        <ele>1161.7</ele>
        <time>2020-11-15T13:38:39Z</time>
      </trkpt>
      <trkpt lat="-40.2358490" lon="-71.3724810">
        <ele>1161.8</ele>
        <time>2020-11-15T13:38:40Z</time>
      </trkpt>
      <trkpt lat="-40.2357730" lon="-71.3724470">
        <ele>1161.8</ele>
        <time>2020-11-15T13:38:41Z</time>
      </trkpt>
      <trkpt lat="-40.2356990" lon="-71.3724090">
        <ele>1161.8</ele>
        <time>2020-11-15T13:38:42Z</time>
      </trkpt>
      <trkpt lat="-40.2356260" lon="-71.3723680">
        <ele>1161.8</ele>
        <time>2020-11-15T13:38:43Z</time>
      </trkpt>
      <trkpt lat="-40.2355550" lon="-71.3723260">
        <ele>1161.7</ele>
        <time>2020-11-15T13:38:44Z</time>
      </trkpt>
      <trkpt lat="-40.2354840" lon="-71.3722830">
        <ele>1161.7</ele>
        <time>2020-11-15T13:38:45Z</time>
      </trkpt>
      <trkpt lat="-40.2354140" lon="-71.3722370">
        <ele>1161.7</ele>
        <time>2020-11-15T13:38:46Z</time>
      </trkpt>
      <trkpt lat="-40.2353440" lon="-71.3721900">
        <ele>1161.7</ele>
        <time>2020-11-15T13:38:47Z</time>
      </trkpt>
      <trkpt lat="-40.2352760" lon="-71.3721400">
        <ele>1161.7</ele>
        <time>2020-11-15T13:38:48Z</time>
      </trkpt>
      <trkpt lat="-40.2352090" lon="-71.3720870">
        <ele>1161.7</ele>
        <time>2020-11-15T13:38:49Z</time>
      </trkpt>
      <trkpt lat="-40.2351420" lon="-71.3720340">
        <ele>1161.7</ele>
        <time>2020-11-15T13:38:50Z</time>
      </trkpt>
      <trkpt lat="-40.2350760" lon="-71.3719800">
        <ele>1161.7</ele>
        <time>2020-11-15T13:38:51Z</time>
      </trkpt>
      <trkpt lat="-40.2350100" lon="-71.3719260">
        <ele>1161.7</ele>
        <time>2020-11-15T13:38:52Z</time>
      </trkpt>
      <trkpt lat="-40.2349440" lon="-71.3718730">
        <ele>1161.7</ele>
        <time>2020-11-15T13:38:53Z</time>
      </trkpt>
      <trkpt lat="-40.2348780" lon="-71.3718190">
        <ele>1161.7</ele>
        <time>2020-11-15T13:38:54Z</time>
      </trkpt>
      <trkpt lat="-40.2348120" lon="-71.3717650">
        <ele>1161.7</ele>
        <time>2020-11-15T13:38:55Z</time>
      </trkpt>
      <trkpt lat="-40.2347460" lon="-71.3717130">
        <ele>1161.6</ele>
        <time>2020-11-15T13:38:56Z</time>
      </trkpt>
      <trkpt lat="-40.2346790" lon="-71.3716610">
        <ele>1161.6</ele>
        <time>2020-11-15T13:38:57Z</time>
      </trkpt>
      <trkpt lat="-40.2346140" lon="-71.3716100">
        <ele>1161.6</ele>
        <time>2020-11-15T13:38:58Z</time>
      </trkpt>
      <trkpt lat="-40.2345490" lon="-71.3715600">
        <ele>1161.6</ele>
        <time>2020-11-15T13:38:59Z</time>
      </trkpt>
      <trkpt lat="-40.2344830" lon="-71.3715100">
        <ele>1161.7</ele>
        <time>2020-11-15T13:39:00Z</time>
      </trkpt>
      <trkpt lat="-40.2344170" lon="-71.3714600">
        <ele>1161.7</ele>
        <time>2020-11-15T13:39:01Z</time>
      </trkpt>
      <trkpt lat="-40.2343510" lon="-71.3714090">
        <ele>1161.7</ele>
        <time>2020-11-15T13:39:02Z</time>
      </trkpt>
      <trkpt lat="-40.2342860" lon="-71.3713570">
        <ele>1161.7</ele>
        <time>2020-11-15T13:39:03Z</time>
      </trkpt>
      <trkpt lat="-40.2342200" lon="-71.3713050">
        <ele>1161.8</ele>
        <time>2020-11-15T13:39:04Z</time>
      </trkpt>
      <trkpt lat="-40.2341560" lon="-71.3712520">
        <ele>1161.8</ele>
        <time>2020-11-15T13:39:05Z</time>
      </trkpt>
      <trkpt lat="-40.2340910" lon="-71.3711980">
        <ele>1161.8</ele>
        <time>2020-11-15T13:39:06Z</time>
      </trkpt>
      <trkpt lat="-40.2340270" lon="-71.3711440">
        <ele>1161.8</ele>
        <time>2020-11-15T13:39:07Z</time>
      </trkpt>
      <trkpt lat="-40.2339640" lon="-71.3710910">
        <ele>1161.8</ele>
        <time>2020-11-15T13:39:08Z</time>
      </trkpt>
      <trkpt lat="-40.2339010" lon="-71.3710420">
        <ele>1161.8</ele>
        <time>2020-11-15T13:39:09Z</time>
      </trkpt>
      <trkpt lat="-40.2338410" lon="-71.3709930">
        <ele>1161.9</ele>
        <time>2020-11-15T13:39:10Z</time>
      </trkpt>
      <trkpt lat="-40.2337800" lon="-71.3709450">
        <ele>1161.9</ele>
        <time>2020-11-15T13:39:11Z</time>
      </trkpt>
      <trkpt lat="-40.2337220" lon="-71.3708990">
        <ele>1161.9</ele>
        <time>2020-11-15T13:39:12Z</time>
      </trkpt>
      <trkpt lat="-40.2336630" lon="-71.3708540">
        <ele>1161.9</ele>
        <time>2020-11-15T13:39:13Z</time>
      </trkpt>
      <trkpt lat="-40.2336040" lon="-71.3708080">
        <ele>1161.9</ele>
        <time>2020-11-15T13:39:14Z</time>
      </trkpt>
      <trkpt lat="-40.2335480" lon="-71.3707620">
        <ele>1162.0</ele>
        <time>2020-11-15T13:39:15Z</time>
      </trkpt>
      <trkpt lat="-40.2334880" lon="-71.3707160">
        <ele>1162.0</ele>
        <time>2020-11-15T13:39:16Z</time>
      </trkpt>
      <trkpt lat="-40.2334280" lon="-71.3706730">
        <ele>1162.0</ele>
        <time>2020-11-15T13:39:17Z</time>
      </trkpt>
      <trkpt lat="-40.2333670" lon="-71.3706310">
        <ele>1162.0</ele>
        <time>2020-11-15T13:39:18Z</time>
      </trkpt>
      <trkpt lat="-40.2333050" lon="-71.3705900">
        <ele>1162.0</ele>
        <time>2020-11-15T13:39:19Z</time>
      </trkpt>
      <trkpt lat="-40.2332420" lon="-71.3705530">
        <ele>1162.0</ele>
        <time>2020-11-15T13:39:21Z</time>
      </trkpt>
      <trkpt lat="-40.2331770" lon="-71.3705190">
        <ele>1162.0</ele>
        <time>2020-11-15T13:39:23Z</time>
      </trkpt>
      <trkpt lat="-40.2331130" lon="-71.3704850">
        <ele>1162.0</ele>
        <time>2020-11-15T13:39:24Z</time>
      </trkpt>
      <trkpt lat="-40.2329820" lon="-71.3704230">
        <ele>1162.0</ele>
        <time>2020-11-15T13:39:25Z</time>
      </trkpt>
      <trkpt lat="-40.2329160" lon="-71.3703950">
        <ele>1162.0</ele>
        <time>2020-11-15T13:39:26Z</time>
      </trkpt>
      <trkpt lat="-40.2328510" lon="-71.3703700">
        <ele>1162.0</ele>
        <time>2020-11-15T13:39:27Z</time>
      </trkpt>
      <trkpt lat="-40.2327850" lon="-71.3703480">
        <ele>1161.9</ele>
        <time>2020-11-15T13:39:28Z</time>
      </trkpt>
      <trkpt lat="-40.2327200" lon="-71.3703280">
        <ele>1161.9</ele>
        <time>2020-11-15T13:39:29Z</time>
      </trkpt>
      <trkpt lat="-40.2326560" lon="-71.3703120">
        <ele>1161.9</ele>
        <time>2020-11-15T13:39:30Z</time>
      </trkpt>
      <trkpt lat="-40.2325910" lon="-71.3702980">
        <ele>1161.9</ele>
        <time>2020-11-15T13:39:31Z</time>
      </trkpt>
      <trkpt lat="-40.2325270" lon="-71.3702880">
        <ele>1162.0</ele>
        <time>2020-11-15T13:39:32Z</time>
      </trkpt>
      <trkpt lat="-40.2324620" lon="-71.3702800">
        <ele>1162.0</ele>
        <time>2020-11-15T13:39:33Z</time>
      </trkpt>
      <trkpt lat="-40.2323970" lon="-71.3702760">
        <ele>1162.0</ele>
        <time>2020-11-15T13:39:34Z</time>
      </trkpt>
      <trkpt lat="-40.2323310" lon="-71.3702730">
        <ele>1162.0</ele>
        <time>2020-11-15T13:39:35Z</time>
      </trkpt>
      <trkpt lat="-40.2322650" lon="-71.3702730">
        <ele>1162.0</ele>
        <time>2020-11-15T13:39:36Z</time>
      </trkpt>
      <trkpt lat="-40.2321980" lon="-71.3702750">
        <ele>1162.1</ele>
        <time>2020-11-15T13:39:37Z</time>
      </trkpt>
      <trkpt lat="-40.2321310" lon="-71.3702800">
        <ele>1162.1</ele>
        <time>2020-11-15T13:39:38Z</time>
      </trkpt>
      <trkpt lat="-40.2320630" lon="-71.3702880">
        <ele>1162.1</ele>
        <time>2020-11-15T13:39:39Z</time>
      </trkpt>
      <trkpt lat="-40.2319960" lon="-71.3703000">
        <ele>1162.1</ele>
        <time>2020-11-15T13:39:40Z</time>
      </trkpt>
      <trkpt lat="-40.2319290" lon="-71.3703140">
        <ele>1162.2</ele>
        <time>2020-11-15T13:39:41Z</time>
      </trkpt>
      <trkpt lat="-40.2318630" lon="-71.3703300">
        <ele>1162.2</ele>
        <time>2020-11-15T13:39:42Z</time>
      </trkpt>
      <trkpt lat="-40.2317970" lon="-71.3703470">
        <ele>1162.2</ele>
        <time>2020-11-15T13:39:43Z</time>
      </trkpt>
      <trkpt lat="-40.2317320" lon="-71.3703650">
        <ele>1162.3</ele>
        <time>2020-11-15T13:39:44Z</time>
      </trkpt>
      <trkpt lat="-40.2316680" lon="-71.3703860">
        <ele>1162.3</ele>
        <time>2020-11-15T13:39:46Z</time>
      </trkpt>
      <trkpt lat="-40.2315710" lon="-71.3704260">
        <ele>1162.3</ele>
        <time>2020-11-15T13:39:47Z</time>
      </trkpt>
      <trkpt lat="-40.2314730" lon="-71.3704660">
        <ele>1162.3</ele>
        <time>2020-11-15T13:39:48Z</time>
      </trkpt>
      <trkpt lat="-40.2314090" lon="-71.3704960">
        <ele>1162.3</ele>
        <time>2020-11-15T13:39:49Z</time>
      </trkpt>
      <trkpt lat="-40.2313450" lon="-71.3705280">
        <ele>1162.4</ele>
        <time>2020-11-15T13:39:50Z</time>
      </trkpt>
      <trkpt lat="-40.2312820" lon="-71.3705590">
        <ele>1162.4</ele>
        <time>2020-11-15T13:39:51Z</time>
      </trkpt>
      <trkpt lat="-40.2312170" lon="-71.3705920">
        <ele>1162.4</ele>
        <time>2020-11-15T13:39:52Z</time>
      </trkpt>
      <trkpt lat="-40.2311510" lon="-71.3706260">
        <ele>1162.4</ele>
        <time>2020-11-15T13:39:53Z</time>
      </trkpt>
      <trkpt lat="-40.2310830" lon="-71.3706620">
        <ele>1162.4</ele>
        <time>2020-11-15T13:39:54Z</time>
      </trkpt>
      <trkpt lat="-40.2310150" lon="-71.3706980">
        <ele>1162.4</ele>
        <time>2020-11-15T13:39:55Z</time>
      </trkpt>
      <trkpt lat="-40.2309480" lon="-71.3707330">
        <ele>1162.5</ele>
        <time>2020-11-15T13:39:56Z</time>
      </trkpt>
      <trkpt lat="-40.2308810" lon="-71.3707700">
        <ele>1162.5</ele>
        <time>2020-11-15T13:39:57Z</time>
      </trkpt>
      <trkpt lat="-40.2308140" lon="-71.3708060">
        <ele>1162.6</ele>
        <time>2020-11-15T13:39:58Z</time>
      </trkpt>
      <trkpt lat="-40.2307450" lon="-71.3708430">
        <ele>1162.6</ele>
        <time>2020-11-15T13:39:59Z</time>
      </trkpt>
      <trkpt lat="-40.2306760" lon="-71.3708790">
        <ele>1162.6</ele>
        <time>2020-11-15T13:40:00Z</time>
      </trkpt>
      <trkpt lat="-40.2306070" lon="-71.3709150">
        <ele>1162.7</ele>
        <time>2020-11-15T13:40:01Z</time>
      </trkpt>
      <trkpt lat="-40.2305390" lon="-71.3709510">
        <ele>1162.7</ele>
        <time>2020-11-15T13:40:02Z</time>
      </trkpt>
      <trkpt lat="-40.2304710" lon="-71.3709890">
        <ele>1162.8</ele>
        <time>2020-11-15T13:40:03Z</time>
      </trkpt>
      <trkpt lat="-40.2304050" lon="-71.3710270">
        <ele>1162.9</ele>
        <time>2020-11-15T13:40:04Z</time>
      </trkpt>
      <trkpt lat="-40.2303370" lon="-71.3710640">
        <ele>1163.0</ele>
        <time>2020-11-15T13:40:05Z</time>
      </trkpt>
      <trkpt lat="-40.2302690" lon="-71.3711020">
        <ele>1163.0</ele>
        <time>2020-11-15T13:40:06Z</time>
      </trkpt>
      <trkpt lat="-40.2302000" lon="-71.3711380">
        <ele>1163.0</ele>
        <time>2020-11-15T13:40:07Z</time>
      </trkpt>
      <trkpt lat="-40.2301320" lon="-71.3711740">
        <ele>1163.0</ele>
        <time>2020-11-15T13:40:08Z</time>
      </trkpt>
      <trkpt lat="-40.2300620" lon="-71.3712090">
        <ele>1163.0</ele>
        <time>2020-11-15T13:40:09Z</time>
      </trkpt>
      <trkpt lat="-40.2299920" lon="-71.3712430">
        <ele>1163.0</ele>
        <time>2020-11-15T13:40:10Z</time>
      </trkpt>
      <trkpt lat="-40.2299220" lon="-71.3712790">
        <ele>1162.9</ele>
        <time>2020-11-15T13:40:11Z</time>
      </trkpt>
      <trkpt lat="-40.2298520" lon="-71.3713150">
        <ele>1162.9</ele>
        <time>2020-11-15T13:40:12Z</time>
      </trkpt>
      <trkpt lat="-40.2297810" lon="-71.3713510">
        <ele>1162.9</ele>
        <time>2020-11-15T13:40:13Z</time>
      </trkpt>
      <trkpt lat="-40.2297100" lon="-71.3713870">
        <ele>1162.8</ele>
        <time>2020-11-15T13:40:14Z</time>
      </trkpt>
      <trkpt lat="-40.2296400" lon="-71.3714230">
        <ele>1162.7</ele>
        <time>2020-11-15T13:40:15Z</time>
      </trkpt>
      <trkpt lat="-40.2295720" lon="-71.3714580">
        <ele>1162.6</ele>
        <time>2020-11-15T13:40:16Z</time>
      </trkpt>
      <trkpt lat="-40.2295040" lon="-71.3714920">
        <ele>1162.4</ele>
        <time>2020-11-15T13:40:17Z</time>
      </trkpt>
      <trkpt lat="-40.2294370" lon="-71.3715260">
        <ele>1162.3</ele>
        <time>2020-11-15T13:40:18Z</time>
      </trkpt>
      <trkpt lat="-40.2293690" lon="-71.3715610">
        <ele>1162.1</ele>
        <time>2020-11-15T13:40:19Z</time>
      </trkpt>
      <trkpt lat="-40.2293000" lon="-71.3715950">
        <ele>1161.9</ele>
        <time>2020-11-15T13:40:20Z</time>
      </trkpt>
      <trkpt lat="-40.2292290" lon="-71.3716310">
        <ele>1161.7</ele>
        <time>2020-11-15T13:40:21Z</time>
      </trkpt>
      <trkpt lat="-40.2291580" lon="-71.3716660">
        <ele>1161.5</ele>
        <time>2020-11-15T13:40:22Z</time>
      </trkpt>
      <trkpt lat="-40.2290850" lon="-71.3717030">
        <ele>1161.3</ele>
        <time>2020-11-15T13:40:23Z</time>
      </trkpt>
      <trkpt lat="-40.2290110" lon="-71.3717400">
        <ele>1161.0</ele>
        <time>2020-11-15T13:40:24Z</time>
      </trkpt>
      <trkpt lat="-40.2289350" lon="-71.3717820">
        <ele>1160.7</ele>
        <time>2020-11-15T13:40:25Z</time>
      </trkpt>
      <trkpt lat="-40.2288560" lon="-71.3718250">
        <ele>1160.4</ele>
        <time>2020-11-15T13:40:26Z</time>
      </trkpt>
      <trkpt lat="-40.2287740" lon="-71.3718700">
        <ele>1160.1</ele>
        <time>2020-11-15T13:40:27Z</time>
      </trkpt>
      <trkpt lat="-40.2286940" lon="-71.3719150">
        <ele>1159.7</ele>
        <time>2020-11-15T13:40:28Z</time>
      </trkpt>
      <trkpt lat="-40.2286150" lon="-71.3719560">
        <ele>1159.4</ele>
        <time>2020-11-15T13:40:29Z</time>
      </trkpt>
      <trkpt lat="-40.2285370" lon="-71.3719960">
        <ele>1159.1</ele>
        <time>2020-11-15T13:40:30Z</time>
      </trkpt>
      <trkpt lat="-40.2284570" lon="-71.3720380">
        <ele>1158.7</ele>
        <time>2020-11-15T13:40:31Z</time>
      </trkpt>
      <trkpt lat="-40.2283760" lon="-71.3720790">
        <ele>1158.3</ele>
        <time>2020-11-15T13:40:32Z</time>
      </trkpt>
      <trkpt lat="-40.2282940" lon="-71.3721190">
        <ele>1157.9</ele>
        <time>2020-11-15T13:40:33Z</time>
      </trkpt>
      <trkpt lat="-40.2282090" lon="-71.3721590">
        <ele>1157.4</ele>
        <time>2020-11-15T13:40:34Z</time>
      </trkpt>
      <trkpt lat="-40.2281180" lon="-71.3721950">
        <ele>1156.9</ele>
        <time>2020-11-15T13:40:35Z</time>
      </trkpt>
      <trkpt lat="-40.2280250" lon="-71.3722290">
        <ele>1156.4</ele>
        <time>2020-11-15T13:40:36Z</time>
      </trkpt>
      <trkpt lat="-40.2279330" lon="-71.3722570">
        <ele>1155.8</ele>
        <time>2020-11-15T13:40:37Z</time>
      </trkpt>
      <trkpt lat="-40.2278360" lon="-71.3722770">
        <ele>1155.3</ele>
        <time>2020-11-15T13:40:38Z</time>
      </trkpt>
      <trkpt lat="-40.2277320" lon="-71.3722900">
        <ele>1154.7</ele>
        <time>2020-11-15T13:40:39Z</time>
      </trkpt>
      <trkpt lat="-40.2276270" lon="-71.3722990">
        <ele>1154.2</ele>
        <time>2020-11-15T13:40:40Z</time>
      </trkpt>
      <trkpt lat="-40.2275180" lon="-71.3723010">
        <ele>1153.6</ele>
        <time>2020-11-15T13:40:42Z</time>
      </trkpt>
      <trkpt lat="-40.2274040" lon="-71.3722980">
        <ele>1153.0</ele>
        <time>2020-11-15T13:40:43Z</time>
      </trkpt>
      <trkpt lat="-40.2272920" lon="-71.3722850">
        <ele>1152.4</ele>
        <time>2020-11-15T13:40:44Z</time>
      </trkpt>
      <trkpt lat="-40.2271790" lon="-71.3722640">
        <ele>1151.9</ele>
        <time>2020-11-15T13:40:45Z</time>
      </trkpt>
      <trkpt lat="-40.2268510" lon="-71.3721480">
        <ele>1150.5</ele>
        <time>2020-11-15T13:40:48Z</time>
      </trkpt>
      <trkpt lat="-40.2267470" lon="-71.3720970">
        <ele>1150.0</ele>
        <time>2020-11-15T13:40:49Z</time>
      </trkpt>
      <trkpt lat="-40.2266390" lon="-71.3720410">
        <ele>1149.6</ele>
        <time>2020-11-15T13:40:50Z</time>
      </trkpt>
      <trkpt lat="-40.2265370" lon="-71.3719830">
        <ele>1149.2</ele>
        <time>2020-11-15T13:40:51Z</time>
      </trkpt>
      <trkpt lat="-40.2264370" lon="-71.3719210">
        <ele>1148.8</ele>
        <time>2020-11-15T13:40:52Z</time>
      </trkpt>
      <trkpt lat="-40.2262430" lon="-71.3717780">
        <ele>1147.9</ele>
        <time>2020-11-15T13:40:54Z</time>
      </trkpt>
      <trkpt lat="-40.2261520" lon="-71.3716880">
        <ele>1147.4</ele>
        <time>2020-11-15T13:40:55Z</time>
      </trkpt>
      <trkpt lat="-40.2260650" lon="-71.3715920">
        <ele>1146.9</ele>
        <time>2020-11-15T13:40:56Z</time>
      </trkpt>
      <trkpt lat="-40.2259830" lon="-71.3714890">
        <ele>1146.4</ele>
        <time>2020-11-15T13:40:57Z</time>
      </trkpt>
      <trkpt lat="-40.2257630" lon="-71.3711510">
        <ele>1145.2</ele>
        <time>2020-11-15T13:40:59Z</time>
      </trkpt>
      <trkpt lat="-40.2256990" lon="-71.3710280">
        <ele>1144.8</ele>
        <time>2020-11-15T13:41:00Z</time>
      </trkpt>
      <trkpt lat="-40.2256400" lon="-71.3709050">
        <ele>1144.4</ele>
        <time>2020-11-15T13:41:01Z</time>
      </trkpt>
      <trkpt lat="-40.2255780" lon="-71.3707830">
        <ele>1144.0</ele>
        <time>2020-11-15T13:41:02Z</time>
      </trkpt>
      <trkpt lat="-40.2255180" lon="-71.3706600">
        <ele>1143.6</ele>
        <time>2020-11-15T13:41:03Z</time>
      </trkpt>
      <trkpt lat="-40.2254560" lon="-71.3705410">
        <ele>1143.2</ele>
        <time>2020-11-15T13:41:05Z</time>
      </trkpt>
      <trkpt lat="-40.2253940" lon="-71.3704220">
        <ele>1142.8</ele>
        <time>2020-11-15T13:41:06Z</time>
      </trkpt>
      <trkpt lat="-40.2253340" lon="-71.3703050">
        <ele>1142.4</ele>
        <time>2020-11-15T13:41:07Z</time>
      </trkpt>
      <trkpt lat="-40.2252660" lon="-71.3701870">
        <ele>1142.0</ele>
        <time>2020-11-15T13:41:08Z</time>
      </trkpt>
      <trkpt lat="-40.2250450" lon="-71.3698440">
        <ele>1140.8</ele>
        <time>2020-11-15T13:41:10Z</time>
      </trkpt>
      <trkpt lat="-40.2249620" lon="-71.3697330">
        <ele>1140.4</ele>
        <time>2020-11-15T13:41:11Z</time>
      </trkpt>
      <trkpt lat="-40.2248740" lon="-71.3696270">
        <ele>1140.0</ele>
        <time>2020-11-15T13:41:12Z</time>
      </trkpt>
      <trkpt lat="-40.2247880" lon="-71.3695260">
        <ele>1139.7</ele>
        <time>2020-11-15T13:41:14Z</time>
      </trkpt>
      <trkpt lat="-40.2245180" lon="-71.3692590">
        <ele>1138.7</ele>
        <time>2020-11-15T13:41:16Z</time>
      </trkpt>
      <trkpt lat="-40.2244250" lon="-71.3691810">
        <ele>1138.4</ele>
        <time>2020-11-15T13:41:17Z</time>
      </trkpt>
      <trkpt lat="-40.2243300" lon="-71.3691100">
        <ele>1138.0</ele>
        <time>2020-11-15T13:41:18Z</time>
      </trkpt>
      <trkpt lat="-40.2242290" lon="-71.3690460">
        <ele>1137.7</ele>
        <time>2020-11-15T13:41:19Z</time>
      </trkpt>
      <trkpt lat="-40.2241250" lon="-71.3689910">
        <ele>1137.4</ele>
        <time>2020-11-15T13:41:20Z</time>
      </trkpt>
      <trkpt lat="-40.2240220" lon="-71.3689420">
        <ele>1137.0</ele>
        <time>2020-11-15T13:41:21Z</time>
      </trkpt>
      <trkpt lat="-40.2239170" lon="-71.3688940">
        <ele>1136.6</ele>
        <time>2020-11-15T13:41:22Z</time>
      </trkpt>
      <trkpt lat="-40.2238110" lon="-71.3688510">
        <ele>1136.2</ele>
        <time>2020-11-15T13:41:23Z</time>
      </trkpt>
      <trkpt lat="-40.2237040" lon="-71.3688120">
        <ele>1135.9</ele>
        <time>2020-11-15T13:41:24Z</time>
      </trkpt>
      <trkpt lat="-40.2235970" lon="-71.3687760">
        <ele>1135.6</ele>
        <time>2020-11-15T13:41:25Z</time>
      </trkpt>
      <trkpt lat="-40.2234920" lon="-71.3687330">
        <ele>1135.3</ele>
        <time>2020-11-15T13:41:26Z</time>
      </trkpt>
      <trkpt lat="-40.2233880" lon="-71.3686910">
        <ele>1135.0</ele>
        <time>2020-11-15T13:41:27Z</time>
      </trkpt>
      <trkpt lat="-40.2232830" lon="-71.3686470">
        <ele>1134.7</ele>
        <time>2020-11-15T13:41:28Z</time>
      </trkpt>
      <trkpt lat="-40.2231770" lon="-71.3686010">
        <ele>1134.4</ele>
        <time>2020-11-15T13:41:29Z</time>
      </trkpt>
      <trkpt lat="-40.2230690" lon="-71.3685550">
        <ele>1134.0</ele>
        <time>2020-11-15T13:41:30Z</time>
      </trkpt>
      <trkpt lat="-40.2229650" lon="-71.3684970">
        <ele>1133.7</ele>
        <time>2020-11-15T13:41:31Z</time>
      </trkpt>
      <trkpt lat="-40.2228660" lon="-71.3684300">
        <ele>1133.3</ele>
        <time>2020-11-15T13:41:32Z</time>
      </trkpt>
      <trkpt lat="-40.2227720" lon="-71.3683550">
        <ele>1132.9</ele>
        <time>2020-11-15T13:41:33Z</time>
      </trkpt>
      <trkpt lat="-40.2226810" lon="-71.3682720">
        <ele>1132.6</ele>
        <time>2020-11-15T13:41:34Z</time>
      </trkpt>
      <trkpt lat="-40.2225900" lon="-71.3681780">
        <ele>1132.2</ele>
        <time>2020-11-15T13:41:35Z</time>
      </trkpt>
      <trkpt lat="-40.2225060" lon="-71.3680760">
        <ele>1131.8</ele>
        <time>2020-11-15T13:41:37Z</time>
      </trkpt>
      <trkpt lat="-40.2222840" lon="-71.3677550">
        <ele>1130.8</ele>
        <time>2020-11-15T13:41:39Z</time>
      </trkpt>
      <trkpt lat="-40.2222160" lon="-71.3676440">
        <ele>1130.5</ele>
        <time>2020-11-15T13:41:40Z</time>
      </trkpt>
      <trkpt lat="-40.2221490" lon="-71.3675300">
        <ele>1130.1</ele>
        <time>2020-11-15T13:41:42Z</time>
      </trkpt>
      <trkpt lat="-40.2219510" lon="-71.3671900">
        <ele>1129.1</ele>
        <time>2020-11-15T13:41:44Z</time>
      </trkpt>
      <trkpt lat="-40.2218870" lon="-71.3670780">
        <ele>1128.8</ele>
        <time>2020-11-15T13:41:45Z</time>
      </trkpt>
      <trkpt lat="-40.2218210" lon="-71.3669680">
        <ele>1128.4</ele>
        <time>2020-11-15T13:41:46Z</time>
      </trkpt>
      <trkpt lat="-40.2217500" lon="-71.3668570">
        <ele>1128.1</ele>
        <time>2020-11-15T13:41:47Z</time>
      </trkpt>
      <trkpt lat="-40.2216830" lon="-71.3667490">
        <ele>1127.8</ele>
        <time>2020-11-15T13:41:48Z</time>
      </trkpt>
      <trkpt lat="-40.2216130" lon="-71.3666410">
        <ele>1127.5</ele>
        <time>2020-11-15T13:41:49Z</time>
      </trkpt>
      <trkpt lat="-40.2215380" lon="-71.3665350">
        <ele>1127.1</ele>
        <time>2020-11-15T13:41:50Z</time>
      </trkpt>
      <trkpt lat="-40.2214640" lon="-71.3664300">
        <ele>1126.7</ele>
        <time>2020-11-15T13:41:51Z</time>
      </trkpt>
      <trkpt lat="-40.2213920" lon="-71.3663210">
        <ele>1126.3</ele>
        <time>2020-11-15T13:41:51Z</time>
      </trkpt>
      <trkpt lat="-40.2213190" lon="-71.3662170">
        <ele>1125.9</ele>
        <time>2020-11-15T13:41:52Z</time>
      </trkpt>
      <trkpt lat="-40.2212460" lon="-71.3661140">
        <ele>1125.5</ele>
        <time>2020-11-15T13:41:53Z</time>
      </trkpt>
      <trkpt lat="-40.2211700" lon="-71.3660130">
        <ele>1125.1</ele>
        <time>2020-11-15T13:41:54Z</time>
      </trkpt>
      <trkpt lat="-40.2210940" lon="-71.3659080">
        <ele>1124.7</ele>
        <time>2020-11-15T13:41:55Z</time>
      </trkpt>
      <trkpt lat="-40.2210180" lon="-71.3658040">
        <ele>1124.3</ele>
        <time>2020-11-15T13:41:56Z</time>
      </trkpt>
      <trkpt lat="-40.2209400" lon="-71.3657040">
        <ele>1123.9</ele>
        <time>2020-11-15T13:41:57Z</time>
      </trkpt>
      <trkpt lat="-40.2208650" lon="-71.3656020">
        <ele>1123.4</ele>
        <time>2020-11-15T13:41:58Z</time>
      </trkpt>
      <trkpt lat="-40.2207880" lon="-71.3654970">
        <ele>1123.0</ele>
        <time>2020-11-15T13:41:59Z</time>
      </trkpt>
      <trkpt lat="-40.2207150" lon="-71.3653910">
        <ele>1122.5</ele>
        <time>2020-11-15T13:42:00Z</time>
      </trkpt>
      <trkpt lat="-40.2206470" lon="-71.3652770">
        <ele>1122.1</ele>
        <time>2020-11-15T13:42:01Z</time>
      </trkpt>
      <trkpt lat="-40.2205860" lon="-71.3651580">
        <ele>1121.7</ele>
        <time>2020-11-15T13:42:02Z</time>
      </trkpt>
      <trkpt lat="-40.2205320" lon="-71.3650420">
        <ele>1121.3</ele>
        <time>2020-11-15T13:42:03Z</time>
      </trkpt>
      <trkpt lat="-40.2204800" lon="-71.3649190">
        <ele>1120.8</ele>
        <time>2020-11-15T13:42:04Z</time>
      </trkpt>
      <trkpt lat="-40.2204300" lon="-71.3647960">
        <ele>1120.4</ele>
        <time>2020-11-15T13:42:05Z</time>
      </trkpt>
      <trkpt lat="-40.2203770" lon="-71.3646760">
        <ele>1119.9</ele>
        <time>2020-11-15T13:42:06Z</time>
      </trkpt>
      <trkpt lat="-40.2203230" lon="-71.3645590">
        <ele>1119.5</ele>
        <time>2020-11-15T13:42:07Z</time>
      </trkpt>
      <trkpt lat="-40.2202660" lon="-71.3644460">
        <ele>1119.0</ele>
        <time>2020-11-15T13:42:08Z</time>
      </trkpt>
      <trkpt lat="-40.2202070" lon="-71.3643390">
        <ele>1118.6</ele>
        <time>2020-11-15T13:42:09Z</time>
      </trkpt>
      <trkpt lat="-40.2201440" lon="-71.3642350">
        <ele>1118.2</ele>
        <time>2020-11-15T13:42:10Z</time>
      </trkpt>
      <trkpt lat="-40.2200740" lon="-71.3641390">
        <ele>1117.7</ele>
        <time>2020-11-15T13:42:11Z</time>
      </trkpt>
      <trkpt lat="-40.2199940" lon="-71.3640540">
        <ele>1117.3</ele>
        <time>2020-11-15T13:42:12Z</time>
      </trkpt>
      <trkpt lat="-40.2199090" lon="-71.3639800">
        <ele>1116.8</ele>
        <time>2020-11-15T13:42:13Z</time>
      </trkpt>
      <trkpt lat="-40.2198200" lon="-71.3639240">
        <ele>1116.3</ele>
        <time>2020-11-15T13:42:14Z</time>
      </trkpt>
      <trkpt lat="-40.2197280" lon="-71.3638800">
        <ele>1115.6</ele>
        <time>2020-11-15T13:42:15Z</time>
      </trkpt>
      <trkpt lat="-40.2196310" lon="-71.3638420">
        <ele>1114.9</ele>
        <time>2020-11-15T13:42:17Z</time>
      </trkpt>
      <trkpt lat="-40.2193410" lon="-71.3637380">
        <ele>1112.9</ele>
        <time>2020-11-15T13:42:19Z</time>
      </trkpt>
      <trkpt lat="-40.2192420" lon="-71.3636990">
        <ele>1112.2</ele>
        <time>2020-11-15T13:42:21Z</time>
      </trkpt>
      <trkpt lat="-40.2191430" lon="-71.3636540">
        <ele>1111.6</ele>
        <time>2020-11-15T13:42:22Z</time>
      </trkpt>
      <trkpt lat="-40.2189380" lon="-71.3635800">
        <ele>1110.3</ele>
        <time>2020-11-15T13:42:24Z</time>
      </trkpt>
      <trkpt lat="-40.2186020" lon="-71.3635580">
        <ele>1108.2</ele>
        <time>2020-11-15T13:42:26Z</time>
      </trkpt>
      <trkpt lat="-40.2184850" lon="-71.3635820">
        <ele>1107.4</ele>
        <time>2020-11-15T13:42:27Z</time>
      </trkpt>
      <trkpt lat="-40.2183730" lon="-71.3636210">
        <ele>1106.7</ele>
        <time>2020-11-15T13:42:28Z</time>
      </trkpt>
      <trkpt lat="-40.2182580" lon="-71.3636720">
        <ele>1105.9</ele>
        <time>2020-11-15T13:42:30Z</time>
      </trkpt>
      <trkpt lat="-40.2181490" lon="-71.3637390">
        <ele>1105.2</ele>
        <time>2020-11-15T13:42:31Z</time>
      </trkpt>
      <trkpt lat="-40.2180440" lon="-71.3638200">
        <ele>1104.5</ele>
        <time>2020-11-15T13:42:32Z</time>
      </trkpt>
      <trkpt lat="-40.2179430" lon="-71.3639140">
        <ele>1103.9</ele>
        <time>2020-11-15T13:42:33Z</time>
      </trkpt>
      <trkpt lat="-40.2175720" lon="-71.3643340">
        <ele>1101.0</ele>
        <time>2020-11-15T13:42:36Z</time>
      </trkpt>
      <trkpt lat="-40.2174800" lon="-71.3644420">
        <ele>1100.3</ele>
        <time>2020-11-15T13:42:38Z</time>
      </trkpt>
      <trkpt lat="-40.2170890" lon="-71.3647940">
        <ele>1097.5</ele>
        <time>2020-11-15T13:42:41Z</time>
      </trkpt>
      <trkpt lat="-40.2169870" lon="-71.3648580">
        <ele>1096.8</ele>
        <time>2020-11-15T13:42:42Z</time>
      </trkpt>
      <trkpt lat="-40.2168810" lon="-71.3649130">
        <ele>1096.2</ele>
        <time>2020-11-15T13:42:43Z</time>
      </trkpt>
      <trkpt lat="-40.2167720" lon="-71.3649580">
        <ele>1095.5</ele>
        <time>2020-11-15T13:42:44Z</time>
      </trkpt>
      <trkpt lat="-40.2166580" lon="-71.3649890">
        <ele>1094.9</ele>
        <time>2020-11-15T13:42:45Z</time>
      </trkpt>
      <trkpt lat="-40.2165360" lon="-71.3649980">
        <ele>1094.1</ele>
        <time>2020-11-15T13:42:46Z</time>
      </trkpt>
      <trkpt lat="-40.2164170" lon="-71.3649940">
        <ele>1093.4</ele>
        <time>2020-11-15T13:42:47Z</time>
      </trkpt>
      <trkpt lat="-40.2163020" lon="-71.3649800">
        <ele>1092.8</ele>
        <time>2020-11-15T13:42:48Z</time>
      </trkpt>
      <trkpt lat="-40.2161890" lon="-71.3649500">
        <ele>1092.1</ele>
        <time>2020-11-15T13:42:49Z</time>
      </trkpt>
      <trkpt lat="-40.2160790" lon="-71.3649020">
        <ele>1091.4</ele>
        <time>2020-11-15T13:42:50Z</time>
      </trkpt>
      <trkpt lat="-40.2159720" lon="-71.3648400">
        <ele>1090.7</ele>
        <time>2020-11-15T13:42:52Z</time>
      </trkpt>
      <trkpt lat="-40.2158660" lon="-71.3647680">
        <ele>1090.0</ele>
        <time>2020-11-15T13:42:53Z</time>
      </trkpt>
      <trkpt lat="-40.2155160" lon="-71.3643420">
        <ele>1087.6</ele>
        <time>2020-11-15T13:42:56Z</time>
      </trkpt>
      <trkpt lat="-40.2154530" lon="-71.3642110">
        <ele>1086.9</ele>
        <time>2020-11-15T13:42:57Z</time>
      </trkpt>
      <trkpt lat="-40.2153990" lon="-71.3640750">
        <ele>1086.2</ele>
        <time>2020-11-15T13:42:58Z</time>
      </trkpt>
      <trkpt lat="-40.2153480" lon="-71.3639280">
        <ele>1085.5</ele>
        <time>2020-11-15T13:42:59Z</time>
      </trkpt>
      <trkpt lat="-40.2153020" lon="-71.3637760">
        <ele>1084.9</ele>
        <time>2020-11-15T13:43:00Z</time>
      </trkpt>
      <trkpt lat="-40.2152600" lon="-71.3636170">
        <ele>1084.3</ele>
        <time>2020-11-15T13:43:01Z</time>
      </trkpt>
      <trkpt lat="-40.2152210" lon="-71.3634570">
        <ele>1083.6</ele>
        <time>2020-11-15T13:43:02Z</time>
      </trkpt>
      <trkpt lat="-40.2151800" lon="-71.3633000">
        <ele>1082.9</ele>
        <time>2020-11-15T13:43:03Z</time>
      </trkpt>
      <trkpt lat="-40.2151310" lon="-71.3631420">
        <ele>1082.2</ele>
        <time>2020-11-15T13:43:05Z</time>
      </trkpt>
      <trkpt lat="-40.2148760" lon="-71.3625550">
        <ele>1079.9</ele>
        <time>2020-11-15T13:43:08Z</time>
      </trkpt>
      <trkpt lat="-40.2147970" lon="-71.3624300">
        <ele>1079.7</ele>
        <time>2020-11-15T13:43:09Z</time>
      </trkpt>
      <trkpt lat="-40.2147150" lon="-71.3623100">
        <ele>1079.5</ele>
        <time>2020-11-15T13:43:10Z</time>
      </trkpt>
      <trkpt lat="-40.2146270" lon="-71.3622000">
        <ele>1079.3</ele>
        <time>2020-11-15T13:43:11Z</time>
      </trkpt>
      <trkpt lat="-40.2145310" lon="-71.3621010">
        <ele>1079.0</ele>
        <time>2020-11-15T13:43:12Z</time>
      </trkpt>
      <trkpt lat="-40.2144290" lon="-71.3620160">
        <ele>1078.7</ele>
        <time>2020-11-15T13:43:13Z</time>
      </trkpt>
      <trkpt lat="-40.2143210" lon="-71.3619400">
        <ele>1078.3</ele>
        <time>2020-11-15T13:43:14Z</time>
      </trkpt>
      <trkpt lat="-40.2142170" lon="-71.3618690">
        <ele>1077.9</ele>
        <time>2020-11-15T13:43:15Z</time>
      </trkpt>
      <trkpt lat="-40.2141120" lon="-71.3618020">
        <ele>1077.4</ele>
        <time>2020-11-15T13:43:16Z</time>
      </trkpt>
      <trkpt lat="-40.2140030" lon="-71.3617410">
        <ele>1076.9</ele>
        <time>2020-11-15T13:43:17Z</time>
      </trkpt>
      <trkpt lat="-40.2138920" lon="-71.3616840">
        <ele>1076.3</ele>
        <time>2020-11-15T13:43:18Z</time>
      </trkpt>
      <trkpt lat="-40.2137820" lon="-71.3616290">
        <ele>1075.7</ele>
        <time>2020-11-15T13:43:19Z</time>
      </trkpt>
      <trkpt lat="-40.2136710" lon="-71.3615740">
        <ele>1075.1</ele>
        <time>2020-11-15T13:43:20Z</time>
      </trkpt>
      <trkpt lat="-40.2135620" lon="-71.3615150">
        <ele>1074.5</ele>
        <time>2020-11-15T13:43:21Z</time>
      </trkpt>
      <trkpt lat="-40.2134530" lon="-71.3614520">
        <ele>1073.7</ele>
        <time>2020-11-15T13:43:22Z</time>
      </trkpt>
      <trkpt lat="-40.2133430" lon="-71.3613910">
        <ele>1072.9</ele>
        <time>2020-11-15T13:43:23Z</time>
      </trkpt>
      <trkpt lat="-40.2132280" lon="-71.3613300">
        <ele>1072.0</ele>
        <time>2020-11-15T13:43:25Z</time>
      </trkpt>
      <trkpt lat="-40.2127740" lon="-71.3610780">
        <ele>1068.8</ele>
        <time>2020-11-15T13:43:28Z</time>
      </trkpt>
      <trkpt lat="-40.2126670" lon="-71.3610100">
        <ele>1068.1</ele>
        <time>2020-11-15T13:43:29Z</time>
      </trkpt>
      <trkpt lat="-40.2125560" lon="-71.3609400">
        <ele>1067.4</ele>
        <time>2020-11-15T13:43:30Z</time>
      </trkpt>
      <trkpt lat="-40.2124450" lon="-71.3608750">
        <ele>1066.7</ele>
        <time>2020-11-15T13:43:31Z</time>
      </trkpt>
      <trkpt lat="-40.2123340" lon="-71.3608080">
        <ele>1066.1</ele>
        <time>2020-11-15T13:43:32Z</time>
      </trkpt>
      <trkpt lat="-40.2122220" lon="-71.3607400">
        <ele>1065.4</ele>
        <time>2020-11-15T13:43:33Z</time>
      </trkpt>
      <trkpt lat="-40.2121140" lon="-71.3606750">
        <ele>1064.8</ele>
        <time>2020-11-15T13:43:34Z</time>
      </trkpt>
      <trkpt lat="-40.2120050" lon="-71.3606100">
        <ele>1064.2</ele>
        <time>2020-11-15T13:43:35Z</time>
      </trkpt>
      <trkpt lat="-40.2118970" lon="-71.3605460">
        <ele>1063.7</ele>
        <time>2020-11-15T13:43:36Z</time>
      </trkpt>
      <trkpt lat="-40.2117900" lon="-71.3604790">
        <ele>1063.1</ele>
        <time>2020-11-15T13:43:37Z</time>
      </trkpt>
      <trkpt lat="-40.2116880" lon="-71.3604120">
        <ele>1062.6</ele>
        <time>2020-11-15T13:43:38Z</time>
      </trkpt>
      <trkpt lat="-40.2115880" lon="-71.3603420">
        <ele>1062.1</ele>
        <time>2020-11-15T13:43:40Z</time>
      </trkpt>
      <trkpt lat="-40.2114920" lon="-71.3602660">
        <ele>1061.6</ele>
        <time>2020-11-15T13:43:41Z</time>
      </trkpt>
      <trkpt lat="-40.2113990" lon="-71.3601800">
        <ele>1061.0</ele>
        <time>2020-11-15T13:43:42Z</time>
      </trkpt>
      <trkpt lat="-40.2113090" lon="-71.3600840">
        <ele>1060.5</ele>
        <time>2020-11-15T13:43:43Z</time>
      </trkpt>
      <trkpt lat="-40.2110920" lon="-71.3597490">
        <ele>1058.8</ele>
        <time>2020-11-15T13:43:45Z</time>
      </trkpt>
      <trkpt lat="-40.2110300" lon="-71.3596190">
        <ele>1058.2</ele>
        <time>2020-11-15T13:43:46Z</time>
      </trkpt>
      <trkpt lat="-40.2109720" lon="-71.3594840">
        <ele>1057.5</ele>
        <time>2020-11-15T13:43:47Z</time>
      </trkpt>
      <trkpt lat="-40.2109190" lon="-71.3593450">
        <ele>1056.7</ele>
        <time>2020-11-15T13:43:48Z</time>
      </trkpt>
      <trkpt lat="-40.2108670" lon="-71.3592000">
        <ele>1055.9</ele>
        <time>2020-11-15T13:43:49Z</time>
      </trkpt>
      <trkpt lat="-40.2108140" lon="-71.3590500">
        <ele>1055.0</ele>
        <time>2020-11-15T13:43:51Z</time>
      </trkpt>
      <trkpt lat="-40.2107590" lon="-71.3589010">
        <ele>1054.1</ele>
        <time>2020-11-15T13:43:52Z</time>
      </trkpt>
      <trkpt lat="-40.2106980" lon="-71.3587560">
        <ele>1053.2</ele>
        <time>2020-11-15T13:43:53Z</time>
      </trkpt>
      <trkpt lat="-40.2106300" lon="-71.3586130">
        <ele>1052.4</ele>
        <time>2020-11-15T13:43:54Z</time>
      </trkpt>
      <trkpt lat="-40.2105570" lon="-71.3584750">
        <ele>1051.6</ele>
        <time>2020-11-15T13:43:55Z</time>
      </trkpt>
      <trkpt lat="-40.2104750" lon="-71.3583430">
        <ele>1050.7</ele>
        <time>2020-11-15T13:43:56Z</time>
      </trkpt>
      <trkpt lat="-40.2103870" lon="-71.3582140">
        <ele>1049.9</ele>
        <time>2020-11-15T13:43:57Z</time>
      </trkpt>
      <trkpt lat="-40.2102940" lon="-71.3580900">
        <ele>1049.1</ele>
        <time>2020-11-15T13:43:58Z</time>
      </trkpt>
      <trkpt lat="-40.2101930" lon="-71.3579750">
        <ele>1048.3</ele>
        <time>2020-11-15T13:43:59Z</time>
      </trkpt>
      <trkpt lat="-40.2100900" lon="-71.3578710">
        <ele>1047.5</ele>
        <time>2020-11-15T13:44:01Z</time>
      </trkpt>
      <trkpt lat="-40.2096350" lon="-71.3575700">
        <ele>1044.6</ele>
        <time>2020-11-15T13:44:04Z</time>
      </trkpt>
      <trkpt lat="-40.2095100" lon="-71.3575240">
        <ele>1043.8</ele>
        <time>2020-11-15T13:44:05Z</time>
      </trkpt>
      <trkpt lat="-40.2093850" lon="-71.3574870">
        <ele>1043.1</ele>
        <time>2020-11-15T13:44:06Z</time>
      </trkpt>
      <trkpt lat="-40.2092590" lon="-71.3574560">
        <ele>1042.4</ele>
        <time>2020-11-15T13:44:07Z</time>
      </trkpt>
      <trkpt lat="-40.2091320" lon="-71.3574320">
        <ele>1041.7</ele>
        <time>2020-11-15T13:44:08Z</time>
      </trkpt>
      <trkpt lat="-40.2090030" lon="-71.3574110">
        <ele>1041.1</ele>
        <time>2020-11-15T13:44:09Z</time>
      </trkpt>
      <trkpt lat="-40.2088750" lon="-71.3573930">
        <ele>1040.4</ele>
        <time>2020-11-15T13:44:10Z</time>
      </trkpt>
      <trkpt lat="-40.2087470" lon="-71.3573740">
        <ele>1039.8</ele>
        <time>2020-11-15T13:44:11Z</time>
      </trkpt>
      <trkpt lat="-40.2086220" lon="-71.3573570">
        <ele>1039.1</ele>
        <time>2020-11-15T13:44:12Z</time>
      </trkpt>
      <trkpt lat="-40.2085000" lon="-71.3573380">
        <ele>1038.5</ele>
        <time>2020-11-15T13:44:13Z</time>
      </trkpt>
      <trkpt lat="-40.2083760" lon="-71.3573300">
        <ele>1037.8</ele>
        <time>2020-11-15T13:44:14Z</time>
      </trkpt>
      <trkpt lat="-40.2082510" lon="-71.3573280">
        <ele>1037.0</ele>
        <time>2020-11-15T13:44:16Z</time>
      </trkpt>
      <trkpt lat="-40.2077510" lon="-71.3573210">
        <ele>1034.2</ele>
        <time>2020-11-15T13:44:20Z</time>
      </trkpt>
      <trkpt lat="-40.2076250" lon="-71.3573210">
        <ele>1033.5</ele>
        <time>2020-11-15T13:44:21Z</time>
      </trkpt>
      <trkpt lat="-40.2071230" lon="-71.3573310">
        <ele>1030.9</ele>
        <time>2020-11-15T13:44:24Z</time>
      </trkpt>
      <trkpt lat="-40.2069980" lon="-71.3573330">
        <ele>1030.2</ele>
        <time>2020-11-15T13:44:25Z</time>
      </trkpt>
      <trkpt lat="-40.2068720" lon="-71.3573210">
        <ele>1029.6</ele>
        <time>2020-11-15T13:44:26Z</time>
      </trkpt>
      <trkpt lat="-40.2067440" lon="-71.3572940">
        <ele>1029.1</ele>
        <time>2020-11-15T13:44:27Z</time>
      </trkpt>
      <trkpt lat="-40.2066190" lon="-71.3572550">
        <ele>1028.7</ele>
        <time>2020-11-15T13:44:28Z</time>
      </trkpt>
      <trkpt lat="-40.2064990" lon="-71.3572040">
        <ele>1028.0</ele>
        <time>2020-11-15T13:44:29Z</time>
      </trkpt>
      <trkpt lat="-40.2063870" lon="-71.3571430">
        <ele>1027.3</ele>
        <time>2020-11-15T13:44:30Z</time>
      </trkpt>
      <trkpt lat="-40.2062810" lon="-71.3570680">
        <ele>1026.6</ele>
        <time>2020-11-15T13:44:31Z</time>
      </trkpt>
      <trkpt lat="-40.2061780" lon="-71.3569840">
        <ele>1025.9</ele>
        <time>2020-11-15T13:44:32Z</time>
      </trkpt>
      <trkpt lat="-40.2060810" lon="-71.3568860">
        <ele>1025.2</ele>
        <time>2020-11-15T13:44:33Z</time>
      </trkpt>
      <trkpt lat="-40.2059910" lon="-71.3567790">
        <ele>1024.5</ele>
        <time>2020-11-15T13:44:34Z</time>
      </trkpt>
      <trkpt lat="-40.2059090" lon="-71.3566680">
        <ele>1023.8</ele>
        <time>2020-11-15T13:44:35Z</time>
      </trkpt>
      <trkpt lat="-40.2058290" lon="-71.3565530">
        <ele>1023.1</ele>
        <time>2020-11-15T13:44:36Z</time>
      </trkpt>
      <trkpt lat="-40.2057510" lon="-71.3564330">
        <ele>1022.4</ele>
        <time>2020-11-15T13:44:37Z</time>
      </trkpt>
      <trkpt lat="-40.2056720" lon="-71.3563100">
        <ele>1021.6</ele>
        <time>2020-11-15T13:44:38Z</time>
      </trkpt>
      <trkpt lat="-40.2055940" lon="-71.3561830">
        <ele>1020.8</ele>
        <time>2020-11-15T13:44:39Z</time>
      </trkpt>
      <trkpt lat="-40.2055130" lon="-71.3560570">
        <ele>1020.1</ele>
        <time>2020-11-15T13:44:40Z</time>
      </trkpt>
      <trkpt lat="-40.2054260" lon="-71.3559310">
        <ele>1019.3</ele>
        <time>2020-11-15T13:44:41Z</time>
      </trkpt>
      <trkpt lat="-40.2053370" lon="-71.3558100">
        <ele>1018.5</ele>
        <time>2020-11-15T13:44:42Z</time>
      </trkpt>
      <trkpt lat="-40.2052440" lon="-71.3556900">
        <ele>1017.7</ele>
        <time>2020-11-15T13:44:43Z</time>
      </trkpt>
      <trkpt lat="-40.2051430" lon="-71.3555750">
        <ele>1017.0</ele>
        <time>2020-11-15T13:44:44Z</time>
      </trkpt>
      <trkpt lat="-40.2050390" lon="-71.3554690">
        <ele>1016.2</ele>
        <time>2020-11-15T13:44:45Z</time>
      </trkpt>
      <trkpt lat="-40.2049310" lon="-71.3553750">
        <ele>1015.5</ele>
        <time>2020-11-15T13:44:47Z</time>
      </trkpt>
      <trkpt lat="-40.2047900" lon="-71.3552850">
        <ele>1014.8</ele>
        <time>2020-11-15T13:44:48Z</time>
      </trkpt>
      <trkpt lat="-40.2046480" lon="-71.3551950">
        <ele>1014.0</ele>
        <time>2020-11-15T13:44:49Z</time>
      </trkpt>
      <trkpt lat="-40.2045160" lon="-71.3551350">
        <ele>1013.5</ele>
        <time>2020-11-15T13:44:50Z</time>
      </trkpt>
      <trkpt lat="-40.2043870" lon="-71.3550880">
        <ele>1013.1</ele>
        <time>2020-11-15T13:44:51Z</time>
      </trkpt>
      <trkpt lat="-40.2042600" lon="-71.3550520">
        <ele>1012.7</ele>
        <time>2020-11-15T13:44:52Z</time>
      </trkpt>
      <trkpt lat="-40.2041310" lon="-71.3550330">
        <ele>1012.3</ele>
        <time>2020-11-15T13:44:53Z</time>
      </trkpt>
      <trkpt lat="-40.2040060" lon="-71.3550250">
        <ele>1011.9</ele>
        <time>2020-11-15T13:44:54Z</time>
      </trkpt>
      <trkpt lat="-40.2038840" lon="-71.3550270">
        <ele>1011.5</ele>
        <time>2020-11-15T13:44:55Z</time>
      </trkpt>
      <trkpt lat="-40.2037630" lon="-71.3550350">
        <ele>1011.1</ele>
        <time>2020-11-15T13:44:56Z</time>
      </trkpt>
      <trkpt lat="-40.2036420" lon="-71.3550530">
        <ele>1010.7</ele>
        <time>2020-11-15T13:44:57Z</time>
      </trkpt>
      <trkpt lat="-40.2035190" lon="-71.3550860">
        <ele>1010.3</ele>
        <time>2020-11-15T13:44:58Z</time>
      </trkpt>
      <trkpt lat="-40.2033970" lon="-71.3551340">
        <ele>1009.8</ele>
        <time>2020-11-15T13:45:00Z</time>
      </trkpt>
      <trkpt lat="-40.2032800" lon="-71.3551950">
        <ele>1009.3</ele>
        <time>2020-11-15T13:45:01Z</time>
      </trkpt>
      <trkpt lat="-40.2031680" lon="-71.3552650">
        <ele>1008.8</ele>
        <time>2020-11-15T13:45:02Z</time>
      </trkpt>
      <trkpt lat="-40.2030580" lon="-71.3553430">
        <ele>1008.3</ele>
        <time>2020-11-15T13:45:03Z</time>
      </trkpt>
      <trkpt lat="-40.2026720" lon="-71.3557380">
        <ele>1006.6</ele>
        <time>2020-11-15T13:45:06Z</time>
      </trkpt>
      <trkpt lat="-40.2025900" lon="-71.3558550">
        <ele>1006.2</ele>
        <time>2020-11-15T13:45:07Z</time>
      </trkpt>
      <trkpt lat="-40.2025180" lon="-71.3559730">
        <ele>1005.8</ele>
        <time>2020-11-15T13:45:08Z</time>
      </trkpt>
      <trkpt lat="-40.2024520" lon="-71.3560940">
        <ele>1005.4</ele>
        <time>2020-11-15T13:45:09Z</time>
      </trkpt>
      <trkpt lat="-40.2023920" lon="-71.3562190">
        <ele>1005.0</ele>
        <time>2020-11-15T13:45:11Z</time>
      </trkpt>
      <trkpt lat="-40.2023370" lon="-71.3563480">
        <ele>1004.6</ele>
        <time>2020-11-15T13:45:12Z</time>
      </trkpt>
      <trkpt lat="-40.2022900" lon="-71.3564840">
        <ele>1004.2</ele>
        <time>2020-11-15T13:45:13Z</time>
      </trkpt>
      <trkpt lat="-40.2021610" lon="-71.3569010">
        <ele>1002.6</ele>
        <time>2020-11-15T13:45:15Z</time>
      </trkpt>
      <trkpt lat="-40.2021200" lon="-71.3570460">
        <ele>1002.1</ele>
        <time>2020-11-15T13:45:16Z</time>
      </trkpt>
      <trkpt lat="-40.2020790" lon="-71.3571910">
        <ele>1001.4</ele>
        <time>2020-11-15T13:45:18Z</time>
      </trkpt>
      <trkpt lat="-40.2020370" lon="-71.3573340">
        <ele>1000.8</ele>
        <time>2020-11-15T13:45:19Z</time>
      </trkpt>
      <trkpt lat="-40.2019930" lon="-71.3574790">
        <ele>1000.2</ele>
        <time>2020-11-15T13:45:20Z</time>
      </trkpt>
      <trkpt lat="-40.2018130" lon="-71.3580570">
        <ele>997.4</ele>
        <time>2020-11-15T13:45:24Z</time>
      </trkpt>
      <trkpt lat="-40.2017580" lon="-71.3581980">
        <ele>996.7</ele>
        <time>2020-11-15T13:45:25Z</time>
      </trkpt>
      <trkpt lat="-40.2015420" lon="-71.3585980">
        <ele>994.7</ele>
        <time>2020-11-15T13:45:28Z</time>
      </trkpt>
      <trkpt lat="-40.2014170" lon="-71.3587450">
        <ele>993.8</ele>
        <time>2020-11-15T13:45:29Z</time>
      </trkpt>
      <trkpt lat="-40.2012950" lon="-71.3588700">
        <ele>992.9</ele>
        <time>2020-11-15T13:45:30Z</time>
      </trkpt>
      <trkpt lat="-40.2011700" lon="-71.3589710">
        <ele>992.1</ele>
        <time>2020-11-15T13:45:31Z</time>
      </trkpt>
      <trkpt lat="-40.2010400" lon="-71.3590550">
        <ele>991.2</ele>
        <time>2020-11-15T13:45:32Z</time>
      </trkpt>
      <trkpt lat="-40.2009110" lon="-71.3591230">
        <ele>990.4</ele>
        <time>2020-11-15T13:45:34Z</time>
      </trkpt>
      <trkpt lat="-40.2007790" lon="-71.3591800">
        <ele>989.6</ele>
        <time>2020-11-15T13:45:35Z</time>
      </trkpt>
      <trkpt lat="-40.2002640" lon="-71.3593570">
        <ele>986.3</ele>
        <time>2020-11-15T13:45:39Z</time>
      </trkpt>
      <trkpt lat="-40.1999000" lon="-71.3595310">
        <ele>984.0</ele>
        <time>2020-11-15T13:45:42Z</time>
      </trkpt>
      <trkpt lat="-40.1997880" lon="-71.3596010">
        <ele>983.3</ele>
        <time>2020-11-15T13:45:43Z</time>
      </trkpt>
      <trkpt lat="-40.1996760" lon="-71.3596810">
        <ele>982.6</ele>
        <time>2020-11-15T13:45:44Z</time>
      </trkpt>
      <trkpt lat="-40.1992130" lon="-71.3599990">
        <ele>980.4</ele>
        <time>2020-11-15T13:45:47Z</time>
      </trkpt>
      <trkpt lat="-40.1990860" lon="-71.3600600">
        <ele>980.1</ele>
        <time>2020-11-15T13:45:49Z</time>
      </trkpt>
      <trkpt lat="-40.1989560" lon="-71.3601020">
        <ele>979.8</ele>
        <time>2020-11-15T13:45:50Z</time>
      </trkpt>
      <trkpt lat="-40.1988250" lon="-71.3601210">
        <ele>979.7</ele>
        <time>2020-11-15T13:45:51Z</time>
      </trkpt>
      <trkpt lat="-40.1986930" lon="-71.3601160">
        <ele>979.6</ele>
        <time>2020-11-15T13:45:52Z</time>
      </trkpt>
      <trkpt lat="-40.1982370" lon="-71.3599110">
        <ele>979.3</ele>
        <time>2020-11-15T13:45:55Z</time>
      </trkpt>
      <trkpt lat="-40.1981280" lon="-71.3598340">
        <ele>979.2</ele>
        <time>2020-11-15T13:45:56Z</time>
      </trkpt>
      <trkpt lat="-40.1980200" lon="-71.3597510">
        <ele>979.2</ele>
        <time>2020-11-15T13:45:58Z</time>
      </trkpt>
      <trkpt lat="-40.1979150" lon="-71.3596640">
        <ele>979.0</ele>
        <time>2020-11-15T13:45:59Z</time>
      </trkpt>
      <trkpt lat="-40.1978080" lon="-71.3595740">
        <ele>978.8</ele>
        <time>2020-11-15T13:46:00Z</time>
      </trkpt>
      <trkpt lat="-40.1977030" lon="-71.3594810">
        <ele>978.5</ele>
        <time>2020-11-15T13:46:01Z</time>
      </trkpt>
      <trkpt lat="-40.1975990" lon="-71.3593850">
        <ele>978.1</ele>
        <time>2020-11-15T13:46:02Z</time>
      </trkpt>
      <trkpt lat="-40.1971950" lon="-71.3589560">
        <ele>975.6</ele>
        <time>2020-11-15T13:46:05Z</time>
      </trkpt>
      <trkpt lat="-40.1971030" lon="-71.3588380">
        <ele>975.0</ele>
        <time>2020-11-15T13:46:06Z</time>
      </trkpt>
      <trkpt lat="-40.1970160" lon="-71.3587060">
        <ele>974.3</ele>
        <time>2020-11-15T13:46:07Z</time>
      </trkpt>
      <trkpt lat="-40.1969330" lon="-71.3585690">
        <ele>973.5</ele>
        <time>2020-11-15T13:46:08Z</time>
      </trkpt>
      <trkpt lat="-40.1968540" lon="-71.3584270">
        <ele>972.7</ele>
        <time>2020-11-15T13:46:09Z</time>
      </trkpt>
      <trkpt lat="-40.1967820" lon="-71.3582770">
        <ele>972.0</ele>
        <time>2020-11-15T13:46:10Z</time>
      </trkpt>
      <trkpt lat="-40.1965170" lon="-71.3576480">
        <ele>969.0</ele>
        <time>2020-11-15T13:46:14Z</time>
      </trkpt>
      <trkpt lat="-40.1960680" lon="-71.3569680">
        <ele>965.9</ele>
        <time>2020-11-15T13:46:18Z</time>
      </trkpt>
      <trkpt lat="-40.1959560" lon="-71.3568740">
        <ele>965.4</ele>
        <time>2020-11-15T13:46:19Z</time>
      </trkpt>
      <trkpt lat="-40.1958400" lon="-71.3567990">
        <ele>965.0</ele>
        <time>2020-11-15T13:46:21Z</time>
      </trkpt>
      <trkpt lat="-40.1957190" lon="-71.3567430">
        <ele>964.6</ele>
        <time>2020-11-15T13:46:22Z</time>
      </trkpt>
      <trkpt lat="-40.1955940" lon="-71.3567050">
        <ele>964.1</ele>
        <time>2020-11-15T13:46:23Z</time>
      </trkpt>
      <trkpt lat="-40.1950920" lon="-71.3567530">
        <ele>962.3</ele>
        <time>2020-11-15T13:46:27Z</time>
      </trkpt>
      <trkpt lat="-40.1949770" lon="-71.3568150">
        <ele>961.8</ele>
        <time>2020-11-15T13:46:28Z</time>
      </trkpt>
      <trkpt lat="-40.1948670" lon="-71.3568940">
        <ele>961.2</ele>
        <time>2020-11-15T13:46:29Z</time>
      </trkpt>
      <trkpt lat="-40.1947610" lon="-71.3569910">
        <ele>961.0</ele>
        <time>2020-11-15T13:46:30Z</time>
      </trkpt>
      <trkpt lat="-40.1946670" lon="-71.3571030">
        <ele>960.9</ele>
        <time>2020-11-15T13:46:31Z</time>
      </trkpt>
      <trkpt lat="-40.1944150" lon="-71.3576520">
        <ele>960.2</ele>
        <time>2020-11-15T13:46:34Z</time>
      </trkpt>
      <trkpt lat="-40.1943830" lon="-71.3578080">
        <ele>960.1</ele>
        <time>2020-11-15T13:46:35Z</time>
      </trkpt>
      <trkpt lat="-40.1943660" lon="-71.3579600">
        <ele>959.9</ele>
        <time>2020-11-15T13:46:37Z</time>
      </trkpt>
      <trkpt lat="-40.1943600" lon="-71.3581140">
        <ele>959.8</ele>
        <time>2020-11-15T13:46:38Z</time>
      </trkpt>
      <trkpt lat="-40.1943610" lon="-71.3582640">
        <ele>959.6</ele>
        <time>2020-11-15T13:46:39Z</time>
      </trkpt>
      <trkpt lat="-40.1943720" lon="-71.3584130">
        <ele>959.5</ele>
        <time>2020-11-15T13:46:40Z</time>
      </trkpt>
      <trkpt lat="-40.1943880" lon="-71.3585620">
        <ele>959.3</ele>
        <time>2020-11-15T13:46:41Z</time>
      </trkpt>
      <trkpt lat="-40.1944100" lon="-71.3587100">
        <ele>959.1</ele>
        <time>2020-11-15T13:46:42Z</time>
      </trkpt>
      <trkpt lat="-40.1945300" lon="-71.3593010">
        <ele>958.3</ele>
        <time>2020-11-15T13:46:45Z</time>
      </trkpt>
      <trkpt lat="-40.1945660" lon="-71.3594450">
        <ele>958.2</ele>
        <time>2020-11-15T13:46:47Z</time>
      </trkpt>
      <trkpt lat="-40.1946030" lon="-71.3595870">
        <ele>958.0</ele>
        <time>2020-11-15T13:46:48Z</time>
      </trkpt>
      <trkpt lat="-40.1947210" lon="-71.3600000">
        <ele>957.4</ele>
        <time>2020-11-15T13:46:50Z</time>
      </trkpt>
      <trkpt lat="-40.1947600" lon="-71.3601380">
        <ele>957.2</ele>
        <time>2020-11-15T13:46:51Z</time>
      </trkpt>
      <trkpt lat="-40.1948080" lon="-71.3602720">
        <ele>957.0</ele>
        <time>2020-11-15T13:46:52Z</time>
      </trkpt>
      <trkpt lat="-40.1948560" lon="-71.3604060">
        <ele>956.8</ele>
        <time>2020-11-15T13:46:54Z</time>
      </trkpt>
      <trkpt lat="-40.1949060" lon="-71.3605360">
        <ele>956.6</ele>
        <time>2020-11-15T13:46:55Z</time>
      </trkpt>
      <trkpt lat="-40.1949640" lon="-71.3606640">
        <ele>956.4</ele>
        <time>2020-11-15T13:46:56Z</time>
      </trkpt>
      <trkpt lat="-40.1950270" lon="-71.3607860">
        <ele>956.2</ele>
        <time>2020-11-15T13:46:57Z</time>
      </trkpt>
      <trkpt lat="-40.1952510" lon="-71.3611130">
        <ele>955.6</ele>
        <time>2020-11-15T13:46:59Z</time>
      </trkpt>
      <trkpt lat="-40.1953340" lon="-71.3612070">
        <ele>955.3</ele>
        <time>2020-11-15T13:47:00Z</time>
      </trkpt>
      <trkpt lat="-40.1954190" lon="-71.3612970">
        <ele>955.1</ele>
        <time>2020-11-15T13:47:01Z</time>
      </trkpt>
      <trkpt lat="-40.1955060" lon="-71.3613800">
        <ele>954.9</ele>
        <time>2020-11-15T13:47:02Z</time>
      </trkpt>
      <trkpt lat="-40.1955980" lon="-71.3614580">
        <ele>954.7</ele>
        <time>2020-11-15T13:47:03Z</time>
      </trkpt>
      <trkpt lat="-40.1956930" lon="-71.3615330">
        <ele>954.5</ele>
        <time>2020-11-15T13:47:05Z</time>
      </trkpt>
      <trkpt lat="-40.1957880" lon="-71.3616040">
        <ele>954.2</ele>
        <time>2020-11-15T13:47:06Z</time>
      </trkpt>
      <trkpt lat="-40.1958800" lon="-71.3616740">
        <ele>954.0</ele>
        <time>2020-11-15T13:47:07Z</time>
      </trkpt>
      <trkpt lat="-40.1961550" lon="-71.3618990">
        <ele>953.4</ele>
        <time>2020-11-15T13:47:09Z</time>
      </trkpt>
      <trkpt lat="-40.1962450" lon="-71.3619820">
        <ele>953.1</ele>
        <time>2020-11-15T13:47:10Z</time>
      </trkpt>
      <trkpt lat="-40.1963320" lon="-71.3620700">
        <ele>952.8</ele>
        <time>2020-11-15T13:47:11Z</time>
      </trkpt>
      <trkpt lat="-40.1964190" lon="-71.3621640">
        <ele>952.4</ele>
        <time>2020-11-15T13:47:12Z</time>
      </trkpt>
      <trkpt lat="-40.1965050" lon="-71.3622610">
        <ele>951.9</ele>
        <time>2020-11-15T13:47:13Z</time>
      </trkpt>
      <trkpt lat="-40.1965930" lon="-71.3623580">
        <ele>951.3</ele>
        <time>2020-11-15T13:47:15Z</time>
      </trkpt>
      <trkpt lat="-40.1966740" lon="-71.3624610">
        <ele>950.7</ele>
        <time>2020-11-15T13:47:16Z</time>
      </trkpt>
      <trkpt lat="-40.1967480" lon="-71.3625710">
        <ele>950.0</ele>
        <time>2020-11-15T13:47:17Z</time>
      </trkpt>
      <trkpt lat="-40.1968180" lon="-71.3626860">
        <ele>949.4</ele>
        <time>2020-11-15T13:47:18Z</time>
      </trkpt>
      <trkpt lat="-40.1970870" lon="-71.3631790">
        <ele>947.4</ele>
        <time>2020-11-15T13:47:21Z</time>
      </trkpt>
      <trkpt lat="-40.1971500" lon="-71.3633020">
        <ele>947.2</ele>
        <time>2020-11-15T13:47:23Z</time>
      </trkpt>
      <trkpt lat="-40.1972110" lon="-71.3634230">
        <ele>947.0</ele>
        <time>2020-11-15T13:47:24Z</time>
      </trkpt>
      <trkpt lat="-40.1972730" lon="-71.3635440">
        <ele>946.7</ele>
        <time>2020-11-15T13:47:25Z</time>
      </trkpt>
      <trkpt lat="-40.1974560" lon="-71.3639050">
        <ele>946.1</ele>
        <time>2020-11-15T13:47:27Z</time>
      </trkpt>
      <trkpt lat="-40.1975150" lon="-71.3640230">
        <ele>945.9</ele>
        <time>2020-11-15T13:47:28Z</time>
      </trkpt>
      <trkpt lat="-40.1975730" lon="-71.3641410">
        <ele>945.7</ele>
        <time>2020-11-15T13:47:30Z</time>
      </trkpt>
      <trkpt lat="-40.1976300" lon="-71.3642530">
        <ele>945.5</ele>
        <time>2020-11-15T13:47:31Z</time>
      </trkpt>
      <trkpt lat="-40.1976850" lon="-71.3643640">
        <ele>945.4</ele>
        <time>2020-11-15T13:47:32Z</time>
      </trkpt>
      <trkpt lat="-40.1978540" lon="-71.3646810">
        <ele>945.2</ele>
        <time>2020-11-15T13:47:34Z</time>
      </trkpt>
      <trkpt lat="-40.1979100" lon="-71.3647840">
        <ele>945.2</ele>
        <time>2020-11-15T13:47:35Z</time>
      </trkpt>
      <trkpt lat="-40.1979680" lon="-71.3648820">
        <ele>945.1</ele>
        <time>2020-11-15T13:47:37Z</time>
      </trkpt>
      <trkpt lat="-40.1980290" lon="-71.3649800">
        <ele>945.1</ele>
        <time>2020-11-15T13:47:38Z</time>
      </trkpt>
      <trkpt lat="-40.1980920" lon="-71.3650690">
        <ele>945.2</ele>
        <time>2020-11-15T13:47:39Z</time>
      </trkpt>
      <trkpt lat="-40.1981580" lon="-71.3651530">
        <ele>945.3</ele>
        <time>2020-11-15T13:47:40Z</time>
      </trkpt>
      <trkpt lat="-40.1983720" lon="-71.3653650">
        <ele>945.6</ele>
        <time>2020-11-15T13:47:43Z</time>
      </trkpt>
      <trkpt lat="-40.1984470" lon="-71.3654210">
        <ele>945.7</ele>
        <time>2020-11-15T13:47:44Z</time>
      </trkpt>
      <trkpt lat="-40.1985230" lon="-71.3654690">
        <ele>945.8</ele>
        <time>2020-11-15T13:47:45Z</time>
      </trkpt>
      <trkpt lat="-40.1985990" lon="-71.3655120">
        <ele>945.8</ele>
        <time>2020-11-15T13:47:46Z</time>
      </trkpt>
      <trkpt lat="-40.1987550" lon="-71.3655760">
        <ele>945.8</ele>
        <time>2020-11-15T13:47:47Z</time>
      </trkpt>
      <trkpt lat="-40.1988330" lon="-71.3655990">
        <ele>945.8</ele>
        <time>2020-11-15T13:47:48Z</time>
      </trkpt>
      <trkpt lat="-40.1989130" lon="-71.3656180">
        <ele>945.7</ele>
        <time>2020-11-15T13:47:49Z</time>
      </trkpt>
      <trkpt lat="-40.1989930" lon="-71.3656310">
        <ele>945.6</ele>
        <time>2020-11-15T13:47:51Z</time>
      </trkpt>
      <trkpt lat="-40.1990730" lon="-71.3656380">
        <ele>945.4</ele>
        <time>2020-11-15T13:47:52Z</time>
      </trkpt>
      <trkpt lat="-40.1991550" lon="-71.3656390">
        <ele>945.2</ele>
        <time>2020-11-15T13:47:53Z</time>
      </trkpt>
      <trkpt lat="-40.1992380" lon="-71.3656340">
        <ele>944.9</ele>
        <time>2020-11-15T13:47:54Z</time>
      </trkpt>
      <trkpt lat="-40.1993220" lon="-71.3656260">
        <ele>944.5</ele>
        <time>2020-11-15T13:47:55Z</time>
      </trkpt>
      <trkpt lat="-40.1994950" lon="-71.3656020">
        <ele>943.7</ele>
        <time>2020-11-15T13:47:56Z</time>
      </trkpt>
      <trkpt lat="-40.1995870" lon="-71.3655820">
        <ele>943.2</ele>
        <time>2020-11-15T13:47:57Z</time>
      </trkpt>
      <trkpt lat="-40.1996820" lon="-71.3655650">
        <ele>942.7</ele>
        <time>2020-11-15T13:47:58Z</time>
      </trkpt>
      <trkpt lat="-40.1997780" lon="-71.3655530">
        <ele>942.1</ele>
        <time>2020-11-15T13:47:59Z</time>
      </trkpt>
      <trkpt lat="-40.1998750" lon="-71.3655450">
        <ele>941.6</ele>
        <time>2020-11-15T13:48:01Z</time>
      </trkpt>
      <trkpt lat="-40.1999700" lon="-71.3655430">
        <ele>941.0</ele>
        <time>2020-11-15T13:48:02Z</time>
      </trkpt>
      <trkpt lat="-40.2000650" lon="-71.3655460">
        <ele>940.5</ele>
        <time>2020-11-15T13:48:03Z</time>
      </trkpt>
      <trkpt lat="-40.2001540" lon="-71.3655600">
        <ele>939.9</ele>
        <time>2020-11-15T13:48:04Z</time>
      </trkpt>
      <trkpt lat="-40.2002440" lon="-71.3655820">
        <ele>939.4</ele>
        <time>2020-11-15T13:48:05Z</time>
      </trkpt>
      <trkpt lat="-40.2005190" lon="-71.3657040">
        <ele>937.8</ele>
        <time>2020-11-15T13:48:07Z</time>
      </trkpt>
      <trkpt lat="-40.2006100" lon="-71.3657590">
        <ele>937.2</ele>
        <time>2020-11-15T13:48:08Z</time>
      </trkpt>
      <trkpt lat="-40.2006980" lon="-71.3658200">
        <ele>936.7</ele>
        <time>2020-11-15T13:48:09Z</time>
      </trkpt>
      <trkpt lat="-40.2007810" lon="-71.3658870">
        <ele>936.2</ele>
        <time>2020-11-15T13:48:10Z</time>
      </trkpt>
      <trkpt lat="-40.2008640" lon="-71.3659560">
        <ele>935.8</ele>
        <time>2020-11-15T13:48:12Z</time>
      </trkpt>
      <trkpt lat="-40.2009470" lon="-71.3660280">
        <ele>935.5</ele>
        <time>2020-11-15T13:48:13Z</time>
      </trkpt>
      <trkpt lat="-40.2010290" lon="-71.3660970">
        <ele>935.3</ele>
        <time>2020-11-15T13:48:14Z</time>
      </trkpt>
      <trkpt lat="-40.2011120" lon="-71.3661710">
        <ele>935.2</ele>
        <time>2020-11-15T13:48:15Z</time>
      </trkpt>
      <trkpt lat="-40.2013260" lon="-71.3664040">
        <ele>935.0</ele>
        <time>2020-11-15T13:48:17Z</time>
      </trkpt>
      <trkpt lat="-40.2013890" lon="-71.3664840">
        <ele>934.9</ele>
        <time>2020-11-15T13:48:18Z</time>
      </trkpt>
      <trkpt lat="-40.2014470" lon="-71.3665670">
        <ele>934.8</ele>
        <time>2020-11-15T13:48:19Z</time>
      </trkpt>
      <trkpt lat="-40.2014980" lon="-71.3666560">
        <ele>934.7</ele>
        <time>2020-11-15T13:48:22Z</time>
      </trkpt>
      <trkpt lat="-40.2015400" lon="-71.3667500">
        <ele>934.5</ele>
        <time>2020-11-15T13:48:23Z</time>
      </trkpt>
      <trkpt lat="-40.2015710" lon="-71.3668490">
        <ele>934.3</ele>
        <time>2020-11-15T13:48:24Z</time>
      </trkpt>
      <trkpt lat="-40.2016030" lon="-71.3670560">
        <ele>933.9</ele>
        <time>2020-11-15T13:48:25Z</time>
      </trkpt>
      <trkpt lat="-40.2016030" lon="-71.3671640">
        <ele>933.5</ele>
        <time>2020-11-15T13:48:27Z</time>
      </trkpt>
      <trkpt lat="-40.2015950" lon="-71.3672770">
        <ele>933.1</ele>
        <time>2020-11-15T13:48:28Z</time>
      </trkpt>
      <trkpt lat="-40.2015750" lon="-71.3673860">
        <ele>932.6</ele>
        <time>2020-11-15T13:48:29Z</time>
      </trkpt>
      <trkpt lat="-40.2014410" lon="-71.3676960">
        <ele>930.8</ele>
        <time>2020-11-15T13:48:31Z</time>
      </trkpt>
      <trkpt lat="-40.2013780" lon="-71.3677930">
        <ele>930.2</ele>
        <time>2020-11-15T13:48:32Z</time>
      </trkpt>
      <trkpt lat="-40.2013090" lon="-71.3678910">
        <ele>929.5</ele>
        <time>2020-11-15T13:48:33Z</time>
      </trkpt>
      <trkpt lat="-40.2012350" lon="-71.3679910">
        <ele>928.7</ele>
        <time>2020-11-15T13:48:34Z</time>
      </trkpt>
      <trkpt lat="-40.2011570" lon="-71.3680910">
        <ele>928.0</ele>
        <time>2020-11-15T13:48:35Z</time>
      </trkpt>
      <trkpt lat="-40.2010760" lon="-71.3681920">
        <ele>927.3</ele>
        <time>2020-11-15T13:48:36Z</time>
      </trkpt>
      <trkpt lat="-40.2009930" lon="-71.3683000">
        <ele>926.8</ele>
        <time>2020-11-15T13:48:37Z</time>
      </trkpt>
      <trkpt lat="-40.2009130" lon="-71.3684080">
        <ele>926.3</ele>
        <time>2020-11-15T13:48:38Z</time>
      </trkpt>
      <trkpt lat="-40.2008380" lon="-71.3685120">
        <ele>925.6</ele>
        <time>2020-11-15T13:48:39Z</time>
      </trkpt>
      <trkpt lat="-40.2007680" lon="-71.3686210">
        <ele>924.9</ele>
        <time>2020-11-15T13:48:40Z</time>
      </trkpt>
      <trkpt lat="-40.2006980" lon="-71.3687300">
        <ele>924.2</ele>
        <time>2020-11-15T13:48:41Z</time>
      </trkpt>
      <trkpt lat="-40.2006320" lon="-71.3688410">
        <ele>923.6</ele>
        <time>2020-11-15T13:48:42Z</time>
      </trkpt>
      <trkpt lat="-40.2005640" lon="-71.3689510">
        <ele>923.0</ele>
        <time>2020-11-15T13:48:43Z</time>
      </trkpt>
      <trkpt lat="-40.2004890" lon="-71.3690630">
        <ele>922.3</ele>
        <time>2020-11-15T13:48:44Z</time>
      </trkpt>
      <trkpt lat="-40.2004100" lon="-71.3691680">
        <ele>921.7</ele>
        <time>2020-11-15T13:48:45Z</time>
      </trkpt>
      <trkpt lat="-40.2003250" lon="-71.3692670">
        <ele>921.0</ele>
        <time>2020-11-15T13:48:46Z</time>
      </trkpt>
      <trkpt lat="-40.2002380" lon="-71.3693580">
        <ele>920.3</ele>
        <time>2020-11-15T13:48:47Z</time>
      </trkpt>
      <trkpt lat="-40.2001470" lon="-71.3694490">
        <ele>919.6</ele>
        <time>2020-11-15T13:48:49Z</time>
      </trkpt>
      <trkpt lat="-40.2000570" lon="-71.3695350">
        <ele>919.0</ele>
        <time>2020-11-15T13:48:50Z</time>
      </trkpt>
      <trkpt lat="-40.1999650" lon="-71.3696150">
        <ele>918.4</ele>
        <time>2020-11-15T13:48:51Z</time>
      </trkpt>
      <trkpt lat="-40.1997210" lon="-71.3698690">
        <ele>916.7</ele>
        <time>2020-11-15T13:48:53Z</time>
      </trkpt>
      <trkpt lat="-40.1996490" lon="-71.3699650">
        <ele>916.1</ele>
        <time>2020-11-15T13:48:55Z</time>
      </trkpt>
      <trkpt lat="-40.1994430" lon="-71.3703080">
        <ele>914.4</ele>
        <time>2020-11-15T13:48:58Z</time>
      </trkpt>
      <trkpt lat="-40.1993830" lon="-71.3704260">
        <ele>913.8</ele>
        <time>2020-11-15T13:48:59Z</time>
      </trkpt>
      <trkpt lat="-40.1993260" lon="-71.3705530">
        <ele>913.2</ele>
        <time>2020-11-15T13:49:00Z</time>
      </trkpt>
      <trkpt lat="-40.1990540" lon="-71.3710730">
        <ele>910.8</ele>
        <time>2020-11-15T13:49:03Z</time>
      </trkpt>
      <trkpt lat="-40.1989640" lon="-71.3711780">
        <ele>910.3</ele>
        <time>2020-11-15T13:49:05Z</time>
      </trkpt>
      <trkpt lat="-40.1988690" lon="-71.3712650">
        <ele>909.8</ele>
        <time>2020-11-15T13:49:06Z</time>
      </trkpt>
      <trkpt lat="-40.1984560" lon="-71.3715930">
        <ele>907.2</ele>
        <time>2020-11-15T13:49:09Z</time>
      </trkpt>
      <trkpt lat="-40.1983480" lon="-71.3716750">
        <ele>906.5</ele>
        <time>2020-11-15T13:49:11Z</time>
      </trkpt>
      <trkpt lat="-40.1982390" lon="-71.3717550">
        <ele>905.9</ele>
        <time>2020-11-15T13:49:12Z</time>
      </trkpt>
      <trkpt lat="-40.1981270" lon="-71.3718320">
        <ele>905.2</ele>
        <time>2020-11-15T13:49:13Z</time>
      </trkpt>
      <trkpt lat="-40.1976890" lon="-71.3721200">
        <ele>902.4</ele>
        <time>2020-11-15T13:49:16Z</time>
      </trkpt>
      <trkpt lat="-40.1975830" lon="-71.3721810">
        <ele>901.8</ele>
        <time>2020-11-15T13:49:17Z</time>
      </trkpt>
      <trkpt lat="-40.1974770" lon="-71.3722360">
        <ele>901.1</ele>
        <time>2020-11-15T13:49:19Z</time>
      </trkpt>
      <trkpt lat="-40.1973730" lon="-71.3722900">
        <ele>900.5</ele>
        <time>2020-11-15T13:49:20Z</time>
      </trkpt>
      <trkpt lat="-40.1972680" lon="-71.3723440">
        <ele>900.0</ele>
        <time>2020-11-15T13:49:21Z</time>
      </trkpt>
      <trkpt lat="-40.1971660" lon="-71.3724020">
        <ele>899.4</ele>
        <time>2020-11-15T13:49:22Z</time>
      </trkpt>
      <trkpt lat="-40.1970650" lon="-71.3724640">
        <ele>898.8</ele>
        <time>2020-11-15T13:49:23Z</time>
      </trkpt>
      <trkpt lat="-40.1969690" lon="-71.3725360">
        <ele>898.3</ele>
        <time>2020-11-15T13:49:24Z</time>
      </trkpt>
      <trkpt lat="-40.1967020" lon="-71.3727970">
        <ele>897.1</ele>
        <time>2020-11-15T13:49:26Z</time>
      </trkpt>
      <trkpt lat="-40.1966230" lon="-71.3728970">
        <ele>896.8</ele>
        <time>2020-11-15T13:49:27Z</time>
      </trkpt>
      <trkpt lat="-40.1965470" lon="-71.3729960">
        <ele>896.7</ele>
        <time>2020-11-15T13:49:28Z</time>
      </trkpt>
      <trkpt lat="-40.1964740" lon="-71.3730940">
        <ele>896.5</ele>
        <time>2020-11-15T13:49:30Z</time>
      </trkpt>
      <trkpt lat="-40.1964060" lon="-71.3731970">
        <ele>896.4</ele>
        <time>2020-11-15T13:49:31Z</time>
      </trkpt>
      <trkpt lat="-40.1963410" lon="-71.3733010">
        <ele>896.2</ele>
        <time>2020-11-15T13:49:32Z</time>
      </trkpt>
      <trkpt lat="-40.1961440" lon="-71.3736100">
        <ele>895.6</ele>
        <time>2020-11-15T13:49:34Z</time>
      </trkpt>
      <trkpt lat="-40.1960740" lon="-71.3736970">
        <ele>895.4</ele>
        <time>2020-11-15T13:49:35Z</time>
      </trkpt>
      <trkpt lat="-40.1960000" lon="-71.3737800">
        <ele>895.1</ele>
        <time>2020-11-15T13:49:36Z</time>
      </trkpt>
      <trkpt lat="-40.1959210" lon="-71.3738540">
        <ele>894.8</ele>
        <time>2020-11-15T13:49:37Z</time>
      </trkpt>
      <trkpt lat="-40.1958400" lon="-71.3739170">
        <ele>894.4</ele>
        <time>2020-11-15T13:49:39Z</time>
      </trkpt>
      <trkpt lat="-40.1957520" lon="-71.3739690">
        <ele>894.0</ele>
        <time>2020-11-15T13:49:40Z</time>
      </trkpt>
      <trkpt lat="-40.1956500" lon="-71.3739950">
        <ele>893.5</ele>
        <time>2020-11-15T13:49:41Z</time>
      </trkpt>
      <trkpt lat="-40.1953390" lon="-71.3740420">
        <ele>892.1</ele>
        <time>2020-11-15T13:49:43Z</time>
      </trkpt>
      <trkpt lat="-40.1952350" lon="-71.3740550">
        <ele>891.6</ele>
        <time>2020-11-15T13:49:44Z</time>
      </trkpt>
      <trkpt lat="-40.1951320" lon="-71.3740610">
        <ele>891.1</ele>
        <time>2020-11-15T13:49:45Z</time>
      </trkpt>
      <trkpt lat="-40.1950250" lon="-71.3740680">
        <ele>890.5</ele>
        <time>2020-11-15T13:49:47Z</time>
      </trkpt>
      <trkpt lat="-40.1948060" lon="-71.3740840">
        <ele>889.4</ele>
        <time>2020-11-15T13:49:49Z</time>
      </trkpt>
      <trkpt lat="-40.1946950" lon="-71.3740910">
        <ele>888.8</ele>
        <time>2020-11-15T13:49:50Z</time>
      </trkpt>
      <trkpt lat="-40.1945800" lon="-71.3740970">
        <ele>888.2</ele>
        <time>2020-11-15T13:49:51Z</time>
      </trkpt>
      <trkpt lat="-40.1941100" lon="-71.3741180">
        <ele>885.6</ele>
        <time>2020-11-15T13:49:55Z</time>
      </trkpt>
      <trkpt lat="-40.1939910" lon="-71.3741270">
        <ele>885.0</ele>
        <time>2020-11-15T13:49:56Z</time>
      </trkpt>
      <trkpt lat="-40.1938720" lon="-71.3741420">
        <ele>884.5</ele>
        <time>2020-11-15T13:49:57Z</time>
      </trkpt>
      <trkpt lat="-40.1937540" lon="-71.3741620">
        <ele>884.1</ele>
        <time>2020-11-15T13:49:58Z</time>
      </trkpt>
      <trkpt lat="-40.1934200" lon="-71.3742680">
        <ele>882.8</ele>
        <time>2020-11-15T13:50:00Z</time>
      </trkpt>
      <trkpt lat="-40.1933090" lon="-71.3743340">
        <ele>882.4</ele>
        <time>2020-11-15T13:50:01Z</time>
      </trkpt>
      <trkpt lat="-40.1932010" lon="-71.3744090">
        <ele>882.0</ele>
        <time>2020-11-15T13:50:02Z</time>
      </trkpt>
      <trkpt lat="-40.1930990" lon="-71.3744940">
        <ele>881.5</ele>
        <time>2020-11-15T13:50:04Z</time>
      </trkpt>
      <trkpt lat="-40.1927500" lon="-71.3748980">
        <ele>879.7</ele>
        <time>2020-11-15T13:50:07Z</time>
      </trkpt>
      <trkpt lat="-40.1926800" lon="-71.3750200">
        <ele>879.2</ele>
        <time>2020-11-15T13:50:09Z</time>
      </trkpt>
      <trkpt lat="-40.1924850" lon="-71.3753930">
        <ele>877.7</ele>
        <time>2020-11-15T13:50:11Z</time>
      </trkpt>
      <trkpt lat="-40.1924240" lon="-71.3755220">
        <ele>877.3</ele>
        <time>2020-11-15T13:50:13Z</time>
      </trkpt>
      <trkpt lat="-40.1923630" lon="-71.3756510">
        <ele>876.8</ele>
        <time>2020-11-15T13:50:14Z</time>
      </trkpt>
      <trkpt lat="-40.1923020" lon="-71.3757790">
        <ele>876.4</ele>
        <time>2020-11-15T13:50:15Z</time>
      </trkpt>
      <trkpt lat="-40.1922390" lon="-71.3759040">
        <ele>875.9</ele>
        <time>2020-11-15T13:50:16Z</time>
      </trkpt>
      <trkpt lat="-40.1921780" lon="-71.3760300">
        <ele>875.4</ele>
        <time>2020-11-15T13:50:17Z</time>
      </trkpt>
      <trkpt lat="-40.1921180" lon="-71.3761580">
        <ele>874.9</ele>
        <time>2020-11-15T13:50:18Z</time>
      </trkpt>
      <trkpt lat="-40.1919440" lon="-71.3765450">
        <ele>873.5</ele>
        <time>2020-11-15T13:50:20Z</time>
      </trkpt>
      <trkpt lat="-40.1918860" lon="-71.3766750">
        <ele>873.0</ele>
        <time>2020-11-15T13:50:21Z</time>
      </trkpt>
      <trkpt lat="-40.1918260" lon="-71.3768060">
        <ele>872.4</ele>
        <time>2020-11-15T13:50:22Z</time>
      </trkpt>
      <trkpt lat="-40.1917650" lon="-71.3769370">
        <ele>871.9</ele>
        <time>2020-11-15T13:50:23Z</time>
      </trkpt>
      <trkpt lat="-40.1917020" lon="-71.3770670">
        <ele>871.4</ele>
        <time>2020-11-15T13:50:24Z</time>
      </trkpt>
      <trkpt lat="-40.1916370" lon="-71.3771960">
        <ele>870.8</ele>
        <time>2020-11-15T13:50:25Z</time>
      </trkpt>
      <trkpt lat="-40.1915710" lon="-71.3773230">
        <ele>870.3</ele>
        <time>2020-11-15T13:50:26Z</time>
      </trkpt>
      <trkpt lat="-40.1915030" lon="-71.3774480">
        <ele>869.7</ele>
        <time>2020-11-15T13:50:27Z</time>
      </trkpt>
      <trkpt lat="-40.1911980" lon="-71.3779200">
        <ele>867.5</ele>
        <time>2020-11-15T13:50:30Z</time>
      </trkpt>
      <trkpt lat="-40.1911170" lon="-71.3780320">
        <ele>866.9</ele>
        <time>2020-11-15T13:50:31Z</time>
      </trkpt>
      <trkpt lat="-40.1910360" lon="-71.3781410">
        <ele>866.3</ele>
        <time>2020-11-15T13:50:33Z</time>
      </trkpt>
      <trkpt lat="-40.1909540" lon="-71.3782480">
        <ele>865.8</ele>
        <time>2020-11-15T13:50:34Z</time>
      </trkpt>
      <trkpt lat="-40.1908720" lon="-71.3783540">
        <ele>865.3</ele>
        <time>2020-11-15T13:50:35Z</time>
      </trkpt>
      <trkpt lat="-40.1907900" lon="-71.3784600">
        <ele>864.7</ele>
        <time>2020-11-15T13:50:36Z</time>
      </trkpt>
      <trkpt lat="-40.1907090" lon="-71.3785660">
        <ele>864.1</ele>
        <time>2020-11-15T13:50:37Z</time>
      </trkpt>
      <trkpt lat="-40.1906290" lon="-71.3786720">
        <ele>863.6</ele>
        <time>2020-11-15T13:50:38Z</time>
      </trkpt>
      <trkpt lat="-40.1903940" lon="-71.3789940">
        <ele>862.0</ele>
        <time>2020-11-15T13:50:40Z</time>
      </trkpt>
      <trkpt lat="-40.1903190" lon="-71.3791030">
        <ele>861.5</ele>
        <time>2020-11-15T13:50:41Z</time>
      </trkpt>
      <trkpt lat="-40.1902460" lon="-71.3792140">
        <ele>860.9</ele>
        <time>2020-11-15T13:50:43Z</time>
      </trkpt>
      <trkpt lat="-40.1901730" lon="-71.3793280">
        <ele>860.4</ele>
        <time>2020-11-15T13:50:44Z</time>
      </trkpt>
      <trkpt lat="-40.1901020" lon="-71.3794490">
        <ele>859.9</ele>
        <time>2020-11-15T13:50:45Z</time>
      </trkpt>
      <trkpt lat="-40.1900320" lon="-71.3795710">
        <ele>859.4</ele>
        <time>2020-11-15T13:50:46Z</time>
      </trkpt>
      <trkpt lat="-40.1899630" lon="-71.3796920">
        <ele>858.9</ele>
        <time>2020-11-15T13:50:47Z</time>
      </trkpt>
      <trkpt lat="-40.1899020" lon="-71.3798110">
        <ele>858.3</ele>
        <time>2020-11-15T13:50:48Z</time>
      </trkpt>
      <trkpt lat="-40.1897030" lon="-71.3801660">
        <ele>856.8</ele>
        <time>2020-11-15T13:50:50Z</time>
      </trkpt>
      <trkpt lat="-40.1896360" lon="-71.3802820">
        <ele>856.3</ele>
        <time>2020-11-15T13:50:51Z</time>
      </trkpt>
      <trkpt lat="-40.1895670" lon="-71.3804020">
        <ele>855.8</ele>
        <time>2020-11-15T13:50:53Z</time>
      </trkpt>
      <trkpt lat="-40.1894980" lon="-71.3805190">
        <ele>855.3</ele>
        <time>2020-11-15T13:50:54Z</time>
      </trkpt>
      <trkpt lat="-40.1894240" lon="-71.3806370">
        <ele>854.7</ele>
        <time>2020-11-15T13:50:55Z</time>
      </trkpt>
      <trkpt lat="-40.1893540" lon="-71.3807540">
        <ele>854.2</ele>
        <time>2020-11-15T13:50:56Z</time>
      </trkpt>
      <trkpt lat="-40.1892820" lon="-71.3808700">
        <ele>853.8</ele>
        <time>2020-11-15T13:50:57Z</time>
      </trkpt>
      <trkpt lat="-40.1892080" lon="-71.3809860">
        <ele>853.3</ele>
        <time>2020-11-15T13:50:58Z</time>
      </trkpt>
      <trkpt lat="-40.1889040" lon="-71.3814500">
        <ele>850.9</ele>
        <time>2020-11-15T13:51:02Z</time>
      </trkpt>
      <trkpt lat="-40.1888280" lon="-71.3815660">
        <ele>850.5</ele>
        <time>2020-11-15T13:51:03Z</time>
      </trkpt>
      <trkpt lat="-40.1887520" lon="-71.3816810">
        <ele>850.0</ele>
        <time>2020-11-15T13:51:04Z</time>
      </trkpt>
      <trkpt lat="-40.1885190" lon="-71.3820090">
        <ele>849.4</ele>
        <time>2020-11-15T13:51:06Z</time>
      </trkpt>
      <trkpt lat="-40.1884390" lon="-71.3821080">
        <ele>849.2</ele>
        <time>2020-11-15T13:51:07Z</time>
      </trkpt>
      <trkpt lat="-40.1883550" lon="-71.3822080">
        <ele>848.9</ele>
        <time>2020-11-15T13:51:08Z</time>
      </trkpt>
      <trkpt lat="-40.1882700" lon="-71.3823030">
        <ele>848.7</ele>
        <time>2020-11-15T13:51:10Z</time>
      </trkpt>
      <trkpt lat="-40.1880930" lon="-71.3824710">
        <ele>848.3</ele>
        <time>2020-11-15T13:51:12Z</time>
      </trkpt>
      <trkpt lat="-40.1880000" lon="-71.3825460">
        <ele>848.0</ele>
        <time>2020-11-15T13:51:13Z</time>
      </trkpt>
      <trkpt lat="-40.1877100" lon="-71.3827330">
        <ele>846.6</ele>
        <time>2020-11-15T13:51:15Z</time>
      </trkpt>
      <trkpt lat="-40.1876110" lon="-71.3827660">
        <ele>846.0</ele>
        <time>2020-11-15T13:51:16Z</time>
      </trkpt>
      <trkpt lat="-40.1875110" lon="-71.3827930">
        <ele>845.5</ele>
        <time>2020-11-15T13:51:17Z</time>
      </trkpt>
      <trkpt lat="-40.1874090" lon="-71.3828100">
        <ele>844.9</ele>
        <time>2020-11-15T13:51:18Z</time>
      </trkpt>
      <trkpt lat="-40.1873050" lon="-71.3828150">
        <ele>844.3</ele>
        <time>2020-11-15T13:51:19Z</time>
      </trkpt>
      <trkpt lat="-40.1872010" lon="-71.3828190">
        <ele>843.6</ele>
        <time>2020-11-15T13:51:21Z</time>
      </trkpt>
      <trkpt lat="-40.1871010" lon="-71.3828700">
        <ele>843.0</ele>
        <time>2020-11-15T13:51:22Z</time>
      </trkpt>
      <trkpt lat="-40.1869910" lon="-71.3829050">
        <ele>842.4</ele>
        <time>2020-11-15T13:51:23Z</time>
      </trkpt>
      <trkpt lat="-40.1868790" lon="-71.3829310">
        <ele>841.9</ele>
        <time>2020-11-15T13:51:24Z</time>
      </trkpt>
      <trkpt lat="-40.1865490" lon="-71.3830240">
        <ele>839.8</ele>
        <time>2020-11-15T13:51:26Z</time>
      </trkpt>
      <trkpt lat="-40.1864440" lon="-71.3830680">
        <ele>839.1</ele>
        <time>2020-11-15T13:51:27Z</time>
      </trkpt>
      <trkpt lat="-40.1863430" lon="-71.3831130">
        <ele>838.6</ele>
        <time>2020-11-15T13:51:28Z</time>
      </trkpt>
      <trkpt lat="-40.1862410" lon="-71.3831640">
        <ele>837.9</ele>
        <time>2020-11-15T13:51:30Z</time>
      </trkpt>
      <trkpt lat="-40.1861370" lon="-71.3832120">
        <ele>837.2</ele>
        <time>2020-11-15T13:51:31Z</time>
      </trkpt>
      <trkpt lat="-40.1860330" lon="-71.3832500">
        <ele>836.7</ele>
        <time>2020-11-15T13:51:32Z</time>
      </trkpt>
      <trkpt lat="-40.1859270" lon="-71.3832900">
        <ele>836.1</ele>
        <time>2020-11-15T13:51:33Z</time>
      </trkpt>
      <trkpt lat="-40.1858230" lon="-71.3833300">
        <ele>835.4</ele>
        <time>2020-11-15T13:51:34Z</time>
      </trkpt>
      <trkpt lat="-40.1854980" lon="-71.3834380">
        <ele>833.4</ele>
        <time>2020-11-15T13:51:36Z</time>
      </trkpt>
      <trkpt lat="-40.1853880" lon="-71.3834720">
        <ele>832.7</ele>
        <time>2020-11-15T13:51:37Z</time>
      </trkpt>
      <trkpt lat="-40.1852770" lon="-71.3835050">
        <ele>832.1</ele>
        <time>2020-11-15T13:51:38Z</time>
      </trkpt>
      <trkpt lat="-40.1851670" lon="-71.3835390">
        <ele>831.3</ele>
        <time>2020-11-15T13:51:40Z</time>
      </trkpt>
      <trkpt lat="-40.1850550" lon="-71.3835720">
        <ele>830.6</ele>
        <time>2020-11-15T13:51:41Z</time>
      </trkpt>
      <trkpt lat="-40.1849440" lon="-71.3836030">
        <ele>829.9</ele>
        <time>2020-11-15T13:51:42Z</time>
      </trkpt>
      <trkpt lat="-40.1848320" lon="-71.3836300">
        <ele>829.3</ele>
        <time>2020-11-15T13:51:43Z</time>
      </trkpt>
      <trkpt lat="-40.1843550" lon="-71.3837330">
        <ele>826.6</ele>
        <time>2020-11-15T13:51:46Z</time>
      </trkpt>
      <trkpt lat="-40.1842310" lon="-71.3837570">
        <ele>825.9</ele>
        <time>2020-11-15T13:51:47Z</time>
      </trkpt>
      <trkpt lat="-40.1841060" lon="-71.3837800">
        <ele>825.2</ele>
        <time>2020-11-15T13:51:49Z</time>
      </trkpt>
      <trkpt lat="-40.1839820" lon="-71.3838010">
        <ele>824.5</ele>
        <time>2020-11-15T13:51:50Z</time>
      </trkpt>
      <trkpt lat="-40.1838610" lon="-71.3838190">
        <ele>823.9</ele>
        <time>2020-11-15T13:51:51Z</time>
      </trkpt>
      <trkpt lat="-40.1837420" lon="-71.3838380">
        <ele>823.2</ele>
        <time>2020-11-15T13:51:52Z</time>
      </trkpt>
      <trkpt lat="-40.1836220" lon="-71.3838620">
        <ele>822.5</ele>
        <time>2020-11-15T13:51:53Z</time>
      </trkpt>
      <trkpt lat="-40.1831590" lon="-71.3840130">
        <ele>819.6</ele>
        <time>2020-11-15T13:51:56Z</time>
      </trkpt>
      <trkpt lat="-40.1830450" lon="-71.3840770">
        <ele>818.9</ele>
        <time>2020-11-15T13:51:58Z</time>
      </trkpt>
      <trkpt lat="-40.1829340" lon="-71.3841490">
        <ele>818.1</ele>
        <time>2020-11-15T13:51:59Z</time>
      </trkpt>
      <trkpt lat="-40.1825310" lon="-71.3845040">
        <ele>815.2</ele>
        <time>2020-11-15T13:52:02Z</time>
      </trkpt>
      <trkpt lat="-40.1824430" lon="-71.3846070">
        <ele>814.5</ele>
        <time>2020-11-15T13:52:03Z</time>
      </trkpt>
      <trkpt lat="-40.1823620" lon="-71.3847190">
        <ele>813.9</ele>
        <time>2020-11-15T13:52:04Z</time>
      </trkpt>
      <trkpt lat="-40.1822890" lon="-71.3848380">
        <ele>813.2</ele>
        <time>2020-11-15T13:52:06Z</time>
      </trkpt>
      <trkpt lat="-40.1822240" lon="-71.3849640">
        <ele>812.5</ele>
        <time>2020-11-15T13:52:07Z</time>
      </trkpt>
      <trkpt lat="-40.1820120" lon="-71.3855270">
        <ele>809.6</ele>
        <time>2020-11-15T13:52:10Z</time>
      </trkpt>
      <trkpt lat="-40.1819740" lon="-71.3856780">
        <ele>808.7</ele>
        <time>2020-11-15T13:52:11Z</time>
      </trkpt>
      <trkpt lat="-40.1819420" lon="-71.3858310">
        <ele>808.0</ele>
        <time>2020-11-15T13:52:12Z</time>
      </trkpt>
      <trkpt lat="-40.1819160" lon="-71.3859850">
        <ele>807.4</ele>
        <time>2020-11-15T13:52:13Z</time>
      </trkpt>
      <trkpt lat="-40.1818940" lon="-71.3861450">
        <ele>806.7</ele>
        <time>2020-11-15T13:52:14Z</time>
      </trkpt>
      <trkpt lat="-40.1818730" lon="-71.3863070">
        <ele>806.0</ele>
        <time>2020-11-15T13:52:15Z</time>
      </trkpt>
      <trkpt lat="-40.1818550" lon="-71.3864720">
        <ele>805.4</ele>
        <time>2020-11-15T13:52:16Z</time>
      </trkpt>
      <trkpt lat="-40.1818380" lon="-71.3866350">
        <ele>804.8</ele>
        <time>2020-11-15T13:52:17Z</time>
      </trkpt>
      <trkpt lat="-40.1818230" lon="-71.3867960">
        <ele>804.3</ele>
        <time>2020-11-15T13:52:19Z</time>
      </trkpt>
      <trkpt lat="-40.1817820" lon="-71.3872590">
        <ele>803.3</ele>
        <time>2020-11-15T13:52:22Z</time>
      </trkpt>
      <trkpt lat="-40.1817690" lon="-71.3874080">
        <ele>803.0</ele>
        <time>2020-11-15T13:52:23Z</time>
      </trkpt>
      <trkpt lat="-40.1817560" lon="-71.3875540">
        <ele>802.8</ele>
        <time>2020-11-15T13:52:24Z</time>
      </trkpt>
      <trkpt lat="-40.1817180" lon="-71.3879850">
        <ele>802.1</ele>
        <time>2020-11-15T13:52:26Z</time>
      </trkpt>
      <trkpt lat="-40.1817040" lon="-71.3881260">
        <ele>801.8</ele>
        <time>2020-11-15T13:52:27Z</time>
      </trkpt>
      <trkpt lat="-40.1816880" lon="-71.3882670">
        <ele>801.5</ele>
        <time>2020-11-15T13:52:28Z</time>
      </trkpt>
      <trkpt lat="-40.1816700" lon="-71.3884080">
        <ele>801.2</ele>
        <time>2020-11-15T13:52:30Z</time>
      </trkpt>
      <trkpt lat="-40.1816510" lon="-71.3885520">
        <ele>800.7</ele>
        <time>2020-11-15T13:52:31Z</time>
      </trkpt>
      <trkpt lat="-40.1815900" lon="-71.3889870">
        <ele>799.2</ele>
        <time>2020-11-15T13:52:34Z</time>
      </trkpt>
      <trkpt lat="-40.1815690" lon="-71.3891350">
        <ele>798.6</ele>
        <time>2020-11-15T13:52:35Z</time>
      </trkpt>
      <trkpt lat="-40.1814990" lon="-71.3896080">
        <ele>796.9</ele>
        <time>2020-11-15T13:52:38Z</time>
      </trkpt>
      <trkpt lat="-40.1814290" lon="-71.3900720">
        <ele>795.2</ele>
        <time>2020-11-15T13:52:41Z</time>
      </trkpt>
      <trkpt lat="-40.1813820" lon="-71.3904090">
        <ele>793.9</ele>
        <time>2020-11-15T13:52:43Z</time>
      </trkpt>
      <trkpt lat="-40.1813570" lon="-71.3905850">
        <ele>793.3</ele>
        <time>2020-11-15T13:52:44Z</time>
      </trkpt>
      <trkpt lat="-40.1813330" lon="-71.3907490">
        <ele>792.7</ele>
        <time>2020-11-15T13:52:45Z</time>
      </trkpt>
      <trkpt lat="-40.1813100" lon="-71.3909070">
        <ele>792.1</ele>
        <time>2020-11-15T13:52:46Z</time>
      </trkpt>
      <trkpt lat="-40.1812900" lon="-71.3910610">
        <ele>791.6</ele>
        <time>2020-11-15T13:52:47Z</time>
      </trkpt>
      <trkpt lat="-40.1812750" lon="-71.3912100">
        <ele>791.0</ele>
        <time>2020-11-15T13:52:49Z</time>
      </trkpt>
      <trkpt lat="-40.1812670" lon="-71.3913550">
        <ele>790.4</ele>
        <time>2020-11-15T13:52:50Z</time>
      </trkpt>
      <trkpt lat="-40.1812680" lon="-71.3914970">
        <ele>789.8</ele>
        <time>2020-11-15T13:52:52Z</time>
      </trkpt>
      <trkpt lat="-40.1813340" lon="-71.3919050">
        <ele>788.0</ele>
        <time>2020-11-15T13:52:54Z</time>
      </trkpt>
      <trkpt lat="-40.1813720" lon="-71.3920370">
        <ele>787.3</ele>
        <time>2020-11-15T13:52:55Z</time>
      </trkpt>
      <trkpt lat="-40.1814140" lon="-71.3921690">
        <ele>786.6</ele>
        <time>2020-11-15T13:52:56Z</time>
      </trkpt>
      <trkpt lat="-40.1814600" lon="-71.3923000">
        <ele>785.9</ele>
        <time>2020-11-15T13:52:57Z</time>
      </trkpt>
      <trkpt lat="-40.1815110" lon="-71.3924310">
        <ele>785.2</ele>
        <time>2020-11-15T13:52:58Z</time>
      </trkpt>
      <trkpt lat="-40.1815620" lon="-71.3925640">
        <ele>784.5</ele>
        <time>2020-11-15T13:52:59Z</time>
      </trkpt>
      <trkpt lat="-40.1816120" lon="-71.3926990">
        <ele>783.8</ele>
        <time>2020-11-15T13:53:01Z</time>
      </trkpt>
      <trkpt lat="-40.1816590" lon="-71.3928380">
        <ele>783.2</ele>
        <time>2020-11-15T13:53:02Z</time>
      </trkpt>
      <trkpt lat="-40.1817010" lon="-71.3929790">
        <ele>782.5</ele>
        <time>2020-11-15T13:53:03Z</time>
      </trkpt>
      <trkpt lat="-40.1817890" lon="-71.3935840">
        <ele>780.0</ele>
        <time>2020-11-15T13:53:06Z</time>
      </trkpt>
      <trkpt lat="-40.1817970" lon="-71.3937410">
        <ele>779.3</ele>
        <time>2020-11-15T13:53:07Z</time>
      </trkpt>
      <trkpt lat="-40.1818030" lon="-71.3938940">
        <ele>778.7</ele>
        <time>2020-11-15T13:53:09Z</time>
      </trkpt>
      <trkpt lat="-40.1818040" lon="-71.3940460">
        <ele>778.1</ele>
        <time>2020-11-15T13:53:10Z</time>
      </trkpt>
      <trkpt lat="-40.1817980" lon="-71.3941960">
        <ele>777.4</ele>
        <time>2020-11-15T13:53:11Z</time>
      </trkpt>
      <trkpt lat="-40.1817840" lon="-71.3943440">
        <ele>776.8</ele>
        <time>2020-11-15T13:53:12Z</time>
      </trkpt>
      <trkpt lat="-40.1817020" lon="-71.3946650">
        <ele>775.5</ele>
        <time>2020-11-15T13:53:15Z</time>
      </trkpt>
      <trkpt lat="-40.1813750" lon="-71.3951460">
        <ele>772.7</ele>
        <time>2020-11-15T13:53:18Z</time>
      </trkpt>
      <trkpt lat="-40.1812720" lon="-71.3952150">
        <ele>771.9</ele>
        <time>2020-11-15T13:53:19Z</time>
      </trkpt>
      <trkpt lat="-40.1811640" lon="-71.3952630">
        <ele>771.1</ele>
        <time>2020-11-15T13:53:21Z</time>
      </trkpt>
      <trkpt lat="-40.1810530" lon="-71.3952920">
        <ele>770.4</ele>
        <time>2020-11-15T13:53:22Z</time>
      </trkpt>
      <trkpt lat="-40.1807090" lon="-71.3953020">
        <ele>768.0</ele>
        <time>2020-11-15T13:53:24Z</time>
      </trkpt>
      <trkpt lat="-40.1805920" lon="-71.3952910">
        <ele>767.2</ele>
        <time>2020-11-15T13:53:26Z</time>
      </trkpt>
      <trkpt lat="-40.1804740" lon="-71.3952830">
        <ele>766.5</ele>
        <time>2020-11-15T13:53:27Z</time>
      </trkpt>
      <trkpt lat="-40.1801310" lon="-71.3953170">
        <ele>764.7</ele>
        <time>2020-11-15T13:53:29Z</time>
      </trkpt>
      <trkpt lat="-40.1799870" lon="-71.3953670">
        <ele>764.1</ele>
        <time>2020-11-15T13:53:31Z</time>
      </trkpt>
      <trkpt lat="-40.1798560" lon="-71.3954210">
        <ele>763.5</ele>
        <time>2020-11-15T13:53:33Z</time>
      </trkpt>
      <trkpt lat="-40.1793770" lon="-71.3956110">
        <ele>761.1</ele>
        <time>2020-11-15T13:53:36Z</time>
      </trkpt>
      <trkpt lat="-40.1792560" lon="-71.3956310">
        <ele>760.5</ele>
        <time>2020-11-15T13:53:37Z</time>
      </trkpt>
      <trkpt lat="-40.1791340" lon="-71.3956400">
        <ele>759.8</ele>
        <time>2020-11-15T13:53:39Z</time>
      </trkpt>
      <trkpt lat="-40.1790110" lon="-71.3956390">
        <ele>759.1</ele>
        <time>2020-11-15T13:53:40Z</time>
      </trkpt>
      <trkpt lat="-40.1786040" lon="-71.3956220">
        <ele>756.6</ele>
        <time>2020-11-15T13:53:43Z</time>
      </trkpt>
      <trkpt lat="-40.1784540" lon="-71.3956130">
        <ele>755.6</ele>
        <time>2020-11-15T13:53:44Z</time>
      </trkpt>
      <trkpt lat="-40.1783100" lon="-71.3956160">
        <ele>754.6</ele>
        <time>2020-11-15T13:53:45Z</time>
      </trkpt>
      <trkpt lat="-40.1781710" lon="-71.3956280">
        <ele>753.8</ele>
        <time>2020-11-15T13:53:46Z</time>
      </trkpt>
      <trkpt lat="-40.1780360" lon="-71.3956450">
        <ele>753.1</ele>
        <time>2020-11-15T13:53:48Z</time>
      </trkpt>
      <trkpt lat="-40.1779030" lon="-71.3956650">
        <ele>752.2</ele>
        <time>2020-11-15T13:53:49Z</time>
      </trkpt>
      <trkpt lat="-40.1777720" lon="-71.3956870">
        <ele>751.4</ele>
        <time>2020-11-15T13:53:50Z</time>
      </trkpt>
      <trkpt lat="-40.1776410" lon="-71.3957090">
        <ele>750.6</ele>
        <time>2020-11-15T13:53:51Z</time>
      </trkpt>
      <trkpt lat="-40.1775110" lon="-71.3957300">
        <ele>749.7</ele>
        <time>2020-11-15T13:53:52Z</time>
      </trkpt>
      <trkpt lat="-40.1770810" lon="-71.3957900">
        <ele>746.6</ele>
        <time>2020-11-15T13:53:55Z</time>
      </trkpt>
      <trkpt lat="-40.1769220" lon="-71.3958020">
        <ele>745.4</ele>
        <time>2020-11-15T13:53:56Z</time>
      </trkpt>
      <trkpt lat="-40.1767710" lon="-71.3958000">
        <ele>744.3</ele>
        <time>2020-11-15T13:53:58Z</time>
      </trkpt>
      <trkpt lat="-40.1766240" lon="-71.3957810">
        <ele>743.2</ele>
        <time>2020-11-15T13:53:59Z</time>
      </trkpt>
      <trkpt lat="-40.1764830" lon="-71.3957420">
        <ele>742.1</ele>
        <time>2020-11-15T13:54:00Z</time>
      </trkpt>
      <trkpt lat="-40.1756820" lon="-71.3953290">
        <ele>735.1</ele>
        <time>2020-11-15T13:54:06Z</time>
      </trkpt>
      <trkpt lat="-40.1755500" lon="-71.3952520">
        <ele>734.3</ele>
        <time>2020-11-15T13:54:07Z</time>
      </trkpt>
      <trkpt lat="-40.1754200" lon="-71.3951710">
        <ele>733.5</ele>
        <time>2020-11-15T13:54:08Z</time>
      </trkpt>
      <trkpt lat="-40.1747460" lon="-71.3944590">
        <ele>726.6</ele>
        <time>2020-11-15T13:54:13Z</time>
      </trkpt>
      <trkpt lat="-40.1746720" lon="-71.3942890">
        <ele>725.3</ele>
        <time>2020-11-15T13:54:15Z</time>
      </trkpt>
      <trkpt lat="-40.1746160" lon="-71.3941060">
        <ele>724.0</ele>
        <time>2020-11-15T13:54:16Z</time>
      </trkpt>
      <trkpt lat="-40.1745810" lon="-71.3939130">
        <ele>722.6</ele>
        <time>2020-11-15T13:54:17Z</time>
      </trkpt>
      <trkpt lat="-40.1745670" lon="-71.3937170">
        <ele>721.2</ele>
        <time>2020-11-15T13:54:18Z</time>
      </trkpt>
      <trkpt lat="-40.1745700" lon="-71.3935180">
        <ele>719.8</ele>
        <time>2020-11-15T13:54:19Z</time>
      </trkpt>
      <trkpt lat="-40.1745820" lon="-71.3933140">
        <ele>718.5</ele>
        <time>2020-11-15T13:54:20Z</time>
      </trkpt>
      <trkpt lat="-40.1748320" lon="-71.3919400">
        <ele>716.1</ele>
        <time>2020-11-15T13:54:27Z</time>
      </trkpt>
      <trkpt lat="-40.1748860" lon="-71.3917740">
        <ele>716.5</ele>
        <time>2020-11-15T13:54:28Z</time>
      </trkpt>
      <trkpt lat="-40.1749450" lon="-71.3916200">
        <ele>717.0</ele>
        <time>2020-11-15T13:54:29Z</time>
      </trkpt>
      <trkpt lat="-40.1752170" lon="-71.3911190">
        <ele>718.8</ele>
        <time>2020-11-15T13:54:32Z</time>
      </trkpt>
      <trkpt lat="-40.1752870" lon="-71.3910140">
        <ele>719.2</ele>
        <time>2020-11-15T13:54:34Z</time>
      </trkpt>
      <trkpt lat="-40.1754220" lon="-71.3908150">
        <ele>719.9</ele>
        <time>2020-11-15T13:54:36Z</time>
      </trkpt>
      <trkpt lat="-40.1755970" lon="-71.3905320">
        <ele>720.5</ele>
        <time>2020-11-15T13:54:38Z</time>
      </trkpt>
      <trkpt lat="-40.1756470" lon="-71.3904370">
        <ele>720.6</ele>
        <time>2020-11-15T13:54:39Z</time>
      </trkpt>
      <trkpt lat="-40.1756900" lon="-71.3903410">
        <ele>720.6</ele>
        <time>2020-11-15T13:54:39Z</time>
      </trkpt>
      <trkpt lat="-40.1757300" lon="-71.3902430">
        <ele>720.6</ele>
        <time>2020-11-15T13:54:41Z</time>
      </trkpt>
      <trkpt lat="-40.1757620" lon="-71.3901400">
        <ele>720.4</ele>
        <time>2020-11-15T13:54:42Z</time>
      </trkpt>
      <trkpt lat="-40.1758260" lon="-71.3899340">
        <ele>719.9</ele>
        <time>2020-11-15T13:54:44Z</time>
      </trkpt>
      <trkpt lat="-40.1758540" lon="-71.3898240">
        <ele>719.5</ele>
        <time>2020-11-15T13:54:45Z</time>
      </trkpt>
      <trkpt lat="-40.1759310" lon="-71.3894670">
        <ele>717.9</ele>
        <time>2020-11-15T13:54:47Z</time>
      </trkpt>
      <trkpt lat="-40.1759600" lon="-71.3893440">
        <ele>717.3</ele>
        <time>2020-11-15T13:54:48Z</time>
      </trkpt>
      <trkpt lat="-40.1759940" lon="-71.3892210">
        <ele>716.8</ele>
        <time>2020-11-15T13:54:49Z</time>
      </trkpt>
      <trkpt lat="-40.1760310" lon="-71.3890980">
        <ele>716.1</ele>
        <time>2020-11-15T13:54:51Z</time>
      </trkpt>
      <trkpt lat="-40.1760740" lon="-71.3889770">
        <ele>715.5</ele>
        <time>2020-11-15T13:54:52Z</time>
      </trkpt>
      <trkpt lat="-40.1761210" lon="-71.3888580">
        <ele>714.9</ele>
        <time>2020-11-15T13:54:53Z</time>
      </trkpt>
      <trkpt lat="-40.1761730" lon="-71.3887410">
        <ele>714.3</ele>
        <time>2020-11-15T13:54:54Z</time>
      </trkpt>
      <trkpt lat="-40.1763390" lon="-71.3884050">
        <ele>713.1</ele>
        <time>2020-11-15T13:54:56Z</time>
      </trkpt>
      <trkpt lat="-40.1763940" lon="-71.3882950">
        <ele>712.8</ele>
        <time>2020-11-15T13:54:57Z</time>
      </trkpt>
      <trkpt lat="-40.1764480" lon="-71.3881850">
        <ele>712.6</ele>
        <time>2020-11-15T13:54:59Z</time>
      </trkpt>
      <trkpt lat="-40.1765000" lon="-71.3880760">
        <ele>712.5</ele>
        <time>2020-11-15T13:55:00Z</time>
      </trkpt>
      <trkpt lat="-40.1766330" lon="-71.3877360">
        <ele>712.2</ele>
        <time>2020-11-15T13:55:02Z</time>
      </trkpt>
      <trkpt lat="-40.1766730" lon="-71.3876190">
        <ele>712.1</ele>
        <time>2020-11-15T13:55:03Z</time>
      </trkpt>
      <trkpt lat="-40.1767110" lon="-71.3875020">
        <ele>711.9</ele>
        <time>2020-11-15T13:55:05Z</time>
      </trkpt>
      <trkpt lat="-40.1767470" lon="-71.3873820">
        <ele>711.7</ele>
        <time>2020-11-15T13:55:06Z</time>
      </trkpt>
      <trkpt lat="-40.1767830" lon="-71.3872610">
        <ele>711.5</ele>
        <time>2020-11-15T13:55:07Z</time>
      </trkpt>
      <trkpt lat="-40.1768830" lon="-71.3869000">
        <ele>710.5</ele>
        <time>2020-11-15T13:55:09Z</time>
      </trkpt>
      <trkpt lat="-40.1769170" lon="-71.3867800">
        <ele>710.1</ele>
        <time>2020-11-15T13:55:10Z</time>
      </trkpt>
      <trkpt lat="-40.1769500" lon="-71.3866600">
        <ele>709.7</ele>
        <time>2020-11-15T13:55:11Z</time>
      </trkpt>
      <trkpt lat="-40.1769800" lon="-71.3865380">
        <ele>709.2</ele>
        <time>2020-11-15T13:55:12Z</time>
      </trkpt>
      <trkpt lat="-40.1770070" lon="-71.3864110">
        <ele>708.8</ele>
        <time>2020-11-15T13:55:14Z</time>
      </trkpt>
      <trkpt lat="-40.1770310" lon="-71.3862830">
        <ele>708.2</ele>
        <time>2020-11-15T13:55:15Z</time>
      </trkpt>
      <trkpt lat="-40.1770520" lon="-71.3861530">
        <ele>707.8</ele>
        <time>2020-11-15T13:55:16Z</time>
      </trkpt>
      <trkpt lat="-40.1770700" lon="-71.3860220">
        <ele>707.3</ele>
        <time>2020-11-15T13:55:17Z</time>
      </trkpt>
      <trkpt lat="-40.1770970" lon="-71.3857590">
        <ele>706.4</ele>
        <time>2020-11-15T13:55:19Z</time>
      </trkpt>
      <trkpt lat="-40.1771100" lon="-71.3855020">
        <ele>705.6</ele>
        <time>2020-11-15T13:55:21Z</time>
      </trkpt>
      <trkpt lat="-40.1771110" lon="-71.3853740">
        <ele>705.2</ele>
        <time>2020-11-15T13:55:22Z</time>
      </trkpt>
      <trkpt lat="-40.1771100" lon="-71.3852470">
        <ele>705.0</ele>
        <time>2020-11-15T13:55:23Z</time>
      </trkpt>
      <trkpt lat="-40.1770930" lon="-71.3848790">
        <ele>704.6</ele>
        <time>2020-11-15T13:55:26Z</time>
      </trkpt>
      <trkpt lat="-40.1770840" lon="-71.3847600">
        <ele>704.4</ele>
        <time>2020-11-15T13:55:27Z</time>
      </trkpt>
      <trkpt lat="-40.1770760" lon="-71.3846440">
        <ele>704.3</ele>
        <time>2020-11-15T13:55:28Z</time>
      </trkpt>
      <trkpt lat="-40.1770630" lon="-71.3844170">
        <ele>703.9</ele>
        <time>2020-11-15T13:55:29Z</time>
      </trkpt>
      <trkpt lat="-40.1770570" lon="-71.3843060">
        <ele>703.7</ele>
        <time>2020-11-15T13:55:30Z</time>
      </trkpt>
      <trkpt lat="-40.1770500" lon="-71.3841950">
        <ele>703.4</ele>
        <time>2020-11-15T13:55:31Z</time>
      </trkpt>
      <trkpt lat="-40.1770430" lon="-71.3840840">
        <ele>703.0</ele>
        <time>2020-11-15T13:55:32Z</time>
      </trkpt>
      <trkpt lat="-40.1770340" lon="-71.3839710">
        <ele>702.5</ele>
        <time>2020-11-15T13:55:34Z</time>
      </trkpt>
      <trkpt lat="-40.1770240" lon="-71.3838560">
        <ele>702.0</ele>
        <time>2020-11-15T13:55:35Z</time>
      </trkpt>
      <trkpt lat="-40.1770110" lon="-71.3837390">
        <ele>701.5</ele>
        <time>2020-11-15T13:55:36Z</time>
      </trkpt>
      <trkpt lat="-40.1769650" lon="-71.3833630">
        <ele>699.6</ele>
        <time>2020-11-15T13:55:38Z</time>
      </trkpt>
      <trkpt lat="-40.1769430" lon="-71.3831870">
        <ele>698.7</ele>
        <time>2020-11-15T13:55:40Z</time>
      </trkpt>
      <trkpt lat="-40.1769230" lon="-71.3830220">
        <ele>697.9</ele>
        <time>2020-11-15T13:55:41Z</time>
      </trkpt>
      <trkpt lat="-40.1769040" lon="-71.3828670">
        <ele>697.1</ele>
        <time>2020-11-15T13:55:42Z</time>
      </trkpt>
      <trkpt lat="-40.1768850" lon="-71.3827160">
        <ele>696.3</ele>
        <time>2020-11-15T13:55:44Z</time>
      </trkpt>
      <trkpt lat="-40.1768670" lon="-71.3825690">
        <ele>695.5</ele>
        <time>2020-11-15T13:55:45Z</time>
      </trkpt>
      <trkpt lat="-40.1768500" lon="-71.3824230">
        <ele>694.8</ele>
        <time>2020-11-15T13:55:46Z</time>
      </trkpt>
      <trkpt lat="-40.1768360" lon="-71.3822780">
        <ele>694.2</ele>
        <time>2020-11-15T13:55:47Z</time>
      </trkpt>
      <trkpt lat="-40.1768240" lon="-71.3818350">
        <ele>692.1</ele>
        <time>2020-11-15T13:55:49Z</time>
      </trkpt>
      <trkpt lat="-40.1768310" lon="-71.3816850">
        <ele>691.3</ele>
        <time>2020-11-15T13:55:50Z</time>
      </trkpt>
      <trkpt lat="-40.1768490" lon="-71.3814890">
        <ele>690.2</ele>
        <time>2020-11-15T13:55:52Z</time>
      </trkpt>
      <trkpt lat="-40.1768670" lon="-71.3813100">
        <ele>689.2</ele>
        <time>2020-11-15T13:55:53Z</time>
      </trkpt>
      <trkpt lat="-40.1768790" lon="-71.3811420">
        <ele>688.4</ele>
        <time>2020-11-15T13:55:54Z</time>
      </trkpt>
      <trkpt lat="-40.1768830" lon="-71.3809800">
        <ele>687.7</ele>
        <time>2020-11-15T13:55:56Z</time>
      </trkpt>
      <trkpt lat="-40.1768790" lon="-71.3808230">
        <ele>687.3</ele>
        <time>2020-11-15T13:55:57Z</time>
      </trkpt>
      <trkpt lat="-40.1768660" lon="-71.3806710">
        <ele>687.0</ele>
        <time>2020-11-15T13:55:58Z</time>
      </trkpt>
      <trkpt lat="-40.1768450" lon="-71.3805230">
        <ele>687.0</ele>
        <time>2020-11-15T13:55:59Z</time>
      </trkpt>
      <trkpt lat="-40.1767530" lon="-71.3801040">
        <ele>687.6</ele>
        <time>2020-11-15T13:56:01Z</time>
      </trkpt>
      <trkpt lat="-40.1767250" lon="-71.3799690">
        <ele>687.9</ele>
        <time>2020-11-15T13:56:02Z</time>
      </trkpt>
      <trkpt lat="-40.1767030" lon="-71.3798350">
        <ele>688.2</ele>
        <time>2020-11-15T13:56:03Z</time>
      </trkpt>
      <trkpt lat="-40.1766880" lon="-71.3797030">
        <ele>688.4</ele>
        <time>2020-11-15T13:56:04Z</time>
      </trkpt>
      <trkpt lat="-40.1766810" lon="-71.3795730">
        <ele>688.8</ele>
        <time>2020-11-15T13:56:06Z</time>
      </trkpt>
      <trkpt lat="-40.1766780" lon="-71.3794470">
        <ele>689.2</ele>
        <time>2020-11-15T13:56:07Z</time>
      </trkpt>
      <trkpt lat="-40.1766790" lon="-71.3793240">
        <ele>689.7</ele>
        <time>2020-11-15T13:56:08Z</time>
      </trkpt>
      <trkpt lat="-40.1766850" lon="-71.3792040">
        <ele>690.2</ele>
        <time>2020-11-15T13:56:09Z</time>
      </trkpt>
      <trkpt lat="-40.1767100" lon="-71.3788520">
        <ele>691.7</ele>
        <time>2020-11-15T13:56:11Z</time>
      </trkpt>
      <trkpt lat="-40.1767210" lon="-71.3787360">
        <ele>692.2</ele>
        <time>2020-11-15T13:56:12Z</time>
      </trkpt>
      <trkpt lat="-40.1767310" lon="-71.3786230">
        <ele>692.8</ele>
        <time>2020-11-15T13:56:13Z</time>
      </trkpt>
      <trkpt lat="-40.1767410" lon="-71.3785130">
        <ele>693.4</ele>
        <time>2020-11-15T13:56:14Z</time>
      </trkpt>
      <trkpt lat="-40.1767510" lon="-71.3784040">
        <ele>694.0</ele>
        <time>2020-11-15T13:56:15Z</time>
      </trkpt>
      <trkpt lat="-40.1767630" lon="-71.3782990">
        <ele>694.5</ele>
        <time>2020-11-15T13:56:16Z</time>
      </trkpt>
      <trkpt lat="-40.1767750" lon="-71.3781960">
        <ele>695.0</ele>
        <time>2020-11-15T13:56:17Z</time>
      </trkpt>
      <trkpt lat="-40.1767890" lon="-71.3780930">
        <ele>695.5</ele>
        <time>2020-11-15T13:56:18Z</time>
      </trkpt>
      <trkpt lat="-40.1768060" lon="-71.3779910">
        <ele>695.9</ele>
        <time>2020-11-15T13:56:19Z</time>
      </trkpt>
      <trkpt lat="-40.1768250" lon="-71.3778850">
        <ele>696.4</ele>
        <time>2020-11-15T13:56:20Z</time>
      </trkpt>
      <trkpt lat="-40.1768460" lon="-71.3777820">
        <ele>696.8</ele>
        <time>2020-11-15T13:56:21Z</time>
      </trkpt>
      <trkpt lat="-40.1768670" lon="-71.3776820">
        <ele>697.3</ele>
        <time>2020-11-15T13:56:22Z</time>
      </trkpt>
      <trkpt lat="-40.1768870" lon="-71.3775840">
        <ele>697.8</ele>
        <time>2020-11-15T13:56:23Z</time>
      </trkpt>
      <trkpt lat="-40.1769060" lon="-71.3774890">
        <ele>698.3</ele>
        <time>2020-11-15T13:56:24Z</time>
      </trkpt>
      <trkpt lat="-40.1769250" lon="-71.3773970">
        <ele>698.9</ele>
        <time>2020-11-15T13:56:25Z</time>
      </trkpt>
      <trkpt lat="-40.1769440" lon="-71.3773060">
        <ele>699.4</ele>
        <time>2020-11-15T13:56:27Z</time>
      </trkpt>
      <trkpt lat="-40.1769640" lon="-71.3772190">
        <ele>699.8</ele>
        <time>2020-11-15T13:56:28Z</time>
      </trkpt>
      <trkpt lat="-40.1769990" lon="-71.3770810">
        <ele>700.6</ele>
        <time>2020-11-15T13:56:31Z</time>
      </trkpt>
      <trkpt lat="-40.1770390" lon="-71.3769390">
        <ele>701.2</ele>
        <time>2020-11-15T13:56:32Z</time>
      </trkpt>
      <trkpt lat="-40.1770720" lon="-71.3768200">
        <ele>701.9</ele>
        <time>2020-11-15T13:56:33Z</time>
      </trkpt>
      <trkpt lat="-40.1771020" lon="-71.3767200">
        <ele>702.4</ele>
        <time>2020-11-15T13:56:34Z</time>
      </trkpt>
      <trkpt lat="-40.1771280" lon="-71.3766310">
        <ele>702.9</ele>
        <time>2020-11-15T13:56:35Z</time>
      </trkpt>
      <trkpt lat="-40.1771520" lon="-71.3765470">
        <ele>703.4</ele>
        <time>2020-11-15T13:56:36Z</time>
      </trkpt>
      <trkpt lat="-40.1771760" lon="-71.3764690">
        <ele>703.8</ele>
        <time>2020-11-15T13:56:37Z</time>
      </trkpt>
      <trkpt lat="-40.1771990" lon="-71.3763950">
        <ele>704.2</ele>
        <time>2020-11-15T13:56:38Z</time>
      </trkpt>
      <trkpt lat="-40.1772210" lon="-71.3763250">
        <ele>704.6</ele>
        <time>2020-11-15T13:56:39Z</time>
      </trkpt>
      <trkpt lat="-40.1772510" lon="-71.3762370">
        <ele>705.1</ele>
        <time>2020-11-15T13:56:41Z</time>
      </trkpt>
      <trkpt lat="-40.1772780" lon="-71.3761580">
        <ele>705.5</ele>
        <time>2020-11-15T13:56:43Z</time>
      </trkpt>
      <trkpt lat="-40.1773020" lon="-71.3760860">
        <ele>705.9</ele>
        <time>2020-11-15T13:56:44Z</time>
      </trkpt>
      <trkpt lat="-40.1773270" lon="-71.3760210">
        <ele>706.3</ele>
        <time>2020-11-15T13:56:45Z</time>
      </trkpt>
      <trkpt lat="-40.1773740" lon="-71.3759000">
        <ele>707.0</ele>
        <time>2020-11-15T13:56:46Z</time>
      </trkpt>
      <trkpt lat="-40.1773950" lon="-71.3758420">
        <ele>707.3</ele>
        <time>2020-11-15T13:56:47Z</time>
      </trkpt>
      <trkpt lat="-40.1774130" lon="-71.3757830">
        <ele>707.7</ele>
        <time>2020-11-15T13:56:48Z</time>
      </trkpt>
      <trkpt lat="-40.1774270" lon="-71.3757200">
        <ele>708.0</ele>
        <time>2020-11-15T13:56:49Z</time>
      </trkpt>
      <trkpt lat="-40.1774400" lon="-71.3756620">
        <ele>708.2</ele>
        <time>2020-11-15T13:56:50Z</time>
      </trkpt>
      <trkpt lat="-40.1774520" lon="-71.3756070">
        <ele>708.4</ele>
        <time>2020-11-15T13:56:51Z</time>
      </trkpt>
      <trkpt lat="-40.1774630" lon="-71.3755540">
        <ele>708.7</ele>
        <time>2020-11-15T13:56:53Z</time>
      </trkpt>
      <trkpt lat="-40.1774720" lon="-71.3755000">
        <ele>708.9</ele>
        <time>2020-11-15T13:56:54Z</time>
      </trkpt>
      <trkpt lat="-40.1774820" lon="-71.3754450">
        <ele>709.0</ele>
        <time>2020-11-15T13:56:55Z</time>
      </trkpt>
      <trkpt lat="-40.1774930" lon="-71.3753940">
        <ele>709.2</ele>
        <time>2020-11-15T13:56:56Z</time>
      </trkpt>
      <trkpt lat="-40.1775150" lon="-71.3752930">
        <ele>709.5</ele>
        <time>2020-11-15T13:56:57Z</time>
      </trkpt>
      <trkpt lat="-40.1775260" lon="-71.3752420">
        <ele>709.6</ele>
        <time>2020-11-15T13:56:58Z</time>
      </trkpt>
      <trkpt lat="-40.1775370" lon="-71.3751930">
        <ele>709.7</ele>
        <time>2020-11-15T13:56:59Z</time>
      </trkpt>
      <trkpt lat="-40.1775490" lon="-71.3751430">
        <ele>709.8</ele>
        <time>2020-11-15T13:57:01Z</time>
      </trkpt>
      <trkpt lat="-40.1775600" lon="-71.3750920">
        <ele>709.9</ele>
        <time>2020-11-15T13:57:02Z</time>
      </trkpt>
      <trkpt lat="-40.1775720" lon="-71.3750410">
        <ele>710.0</ele>
        <time>2020-11-15T13:57:03Z</time>
      </trkpt>
      <trkpt lat="-40.1775920" lon="-71.3749350">
        <ele>710.1</ele>
        <time>2020-11-15T13:57:04Z</time>
      </trkpt>
      <trkpt lat="-40.1776020" lon="-71.3748830">
        <ele>710.2</ele>
        <time>2020-11-15T13:57:05Z</time>
      </trkpt>
      <trkpt lat="-40.1776110" lon="-71.3748310">
        <ele>710.2</ele>
        <time>2020-11-15T13:57:06Z</time>
      </trkpt>
      <trkpt lat="-40.1776210" lon="-71.3747810">
        <ele>710.2</ele>
        <time>2020-11-15T13:57:07Z</time>
      </trkpt>
      <trkpt lat="-40.1776300" lon="-71.3747310">
        <ele>710.2</ele>
        <time>2020-11-15T13:57:09Z</time>
      </trkpt>
      <trkpt lat="-40.1776390" lon="-71.3746800">
        <ele>710.2</ele>
        <time>2020-11-15T13:57:10Z</time>
      </trkpt>
      <trkpt lat="-40.1776460" lon="-71.3746310">
        <ele>710.2</ele>
        <time>2020-11-15T13:57:11Z</time>
      </trkpt>
      <trkpt lat="-40.1776520" lon="-71.3745810">
        <ele>710.1</ele>
        <time>2020-11-15T13:57:12Z</time>
      </trkpt>
      <trkpt lat="-40.1776640" lon="-71.3744730">
        <ele>710.0</ele>
        <time>2020-11-15T13:57:13Z</time>
      </trkpt>
      <trkpt lat="-40.1776690" lon="-71.3744170">
        <ele>710.0</ele>
        <time>2020-11-15T13:57:14Z</time>
      </trkpt>
      <trkpt lat="-40.1776700" lon="-71.3743620">
        <ele>709.9</ele>
        <time>2020-11-15T13:57:15Z</time>
      </trkpt>
      <trkpt lat="-40.1776680" lon="-71.3743040">
        <ele>709.9</ele>
        <time>2020-11-15T13:57:17Z</time>
      </trkpt>
      <trkpt lat="-40.1776650" lon="-71.3742430">
        <ele>709.8</ele>
        <time>2020-11-15T13:57:18Z</time>
      </trkpt>
      <trkpt lat="-40.1776580" lon="-71.3741810">
        <ele>709.7</ele>
        <time>2020-11-15T13:57:19Z</time>
      </trkpt>
      <trkpt lat="-40.1776510" lon="-71.3741190">
        <ele>709.6</ele>
        <time>2020-11-15T13:57:20Z</time>
      </trkpt>
      <trkpt lat="-40.1776330" lon="-71.3739950">
        <ele>709.3</ele>
        <time>2020-11-15T13:57:22Z</time>
      </trkpt>
      <trkpt lat="-40.1776230" lon="-71.3739330">
        <ele>709.2</ele>
        <time>2020-11-15T13:57:23Z</time>
      </trkpt>
      <trkpt lat="-40.1776130" lon="-71.3738720">
        <ele>709.0</ele>
        <time>2020-11-15T13:57:24Z</time>
      </trkpt>
      <trkpt lat="-40.1776020" lon="-71.3738110">
        <ele>708.8</ele>
        <time>2020-11-15T13:57:25Z</time>
      </trkpt>
      <trkpt lat="-40.1775880" lon="-71.3737480">
        <ele>708.5</ele>
        <time>2020-11-15T13:57:26Z</time>
      </trkpt>
      <trkpt lat="-40.1775730" lon="-71.3736840">
        <ele>708.3</ele>
        <time>2020-11-15T13:57:28Z</time>
      </trkpt>
      <trkpt lat="-40.1775550" lon="-71.3736160">
        <ele>707.9</ele>
        <time>2020-11-15T13:57:29Z</time>
      </trkpt>
      <trkpt lat="-40.1775360" lon="-71.3735450">
        <ele>707.6</ele>
        <time>2020-11-15T13:57:30Z</time>
      </trkpt>
      <trkpt lat="-40.1775140" lon="-71.3734700">
        <ele>707.2</ele>
        <time>2020-11-15T13:57:31Z</time>
      </trkpt>
      <trkpt lat="-40.1774660" lon="-71.3733090">
        <ele>706.4</ele>
        <time>2020-11-15T13:57:32Z</time>
      </trkpt>
      <trkpt lat="-40.1774390" lon="-71.3732240">
        <ele>706.0</ele>
        <time>2020-11-15T13:57:33Z</time>
      </trkpt>
      <trkpt lat="-40.1774100" lon="-71.3731360">
        <ele>705.6</ele>
        <time>2020-11-15T13:57:34Z</time>
      </trkpt>
      <trkpt lat="-40.1773800" lon="-71.3730480">
        <ele>705.1</ele>
        <time>2020-11-15T13:57:35Z</time>
      </trkpt>
      <trkpt lat="-40.1773480" lon="-71.3729580">
        <ele>704.7</ele>
        <time>2020-11-15T13:57:36Z</time>
      </trkpt>
      <trkpt lat="-40.1773150" lon="-71.3728660">
        <ele>704.4</ele>
        <time>2020-11-15T13:57:38Z</time>
      </trkpt>
      <trkpt lat="-40.1772840" lon="-71.3727730">
        <ele>704.1</ele>
        <time>2020-11-15T13:57:39Z</time>
      </trkpt>
      <trkpt lat="-40.1772520" lon="-71.3726800">
        <ele>703.9</ele>
        <time>2020-11-15T13:57:40Z</time>
      </trkpt>
      <trkpt lat="-40.1772200" lon="-71.3725880">
        <ele>703.7</ele>
        <time>2020-11-15T13:57:41Z</time>
      </trkpt>
      <trkpt lat="-40.1771570" lon="-71.3724080">
        <ele>703.5</ele>
        <time>2020-11-15T13:57:42Z</time>
      </trkpt>
      <trkpt lat="-40.1771240" lon="-71.3723200">
        <ele>703.4</ele>
        <time>2020-11-15T13:57:43Z</time>
      </trkpt>
      <trkpt lat="-40.1770920" lon="-71.3722340">
        <ele>703.5</ele>
        <time>2020-11-15T13:57:44Z</time>
      </trkpt>
      <trkpt lat="-40.1770610" lon="-71.3721500">
        <ele>703.6</ele>
        <time>2020-11-15T13:57:46Z</time>
      </trkpt>
      <trkpt lat="-40.1770170" lon="-71.3720250">
        <ele>703.8</ele>
        <time>2020-11-15T13:57:47Z</time>
      </trkpt>
      <trkpt lat="-40.1769720" lon="-71.3719010">
        <ele>704.0</ele>
        <time>2020-11-15T13:57:48Z</time>
      </trkpt>
      <trkpt lat="-40.1769440" lon="-71.3718250">
        <ele>704.1</ele>
        <time>2020-11-15T13:57:49Z</time>
      </trkpt>
      <trkpt lat="-40.1769180" lon="-71.3717540">
        <ele>704.2</ele>
        <time>2020-11-15T13:57:50Z</time>
      </trkpt>
      <trkpt lat="-40.1768940" lon="-71.3716880">
        <ele>704.3</ele>
        <time>2020-11-15T13:57:52Z</time>
      </trkpt>
      <trkpt lat="-40.1768720" lon="-71.3716240">
        <ele>704.3</ele>
        <time>2020-11-15T13:57:53Z</time>
      </trkpt>
      <trkpt lat="-40.1768500" lon="-71.3715620">
        <ele>704.3</ele>
        <time>2020-11-15T13:57:54Z</time>
      </trkpt>
      <trkpt lat="-40.1768090" lon="-71.3714350">
        <ele>704.3</ele>
        <time>2020-11-15T13:57:56Z</time>
      </trkpt>
      <trkpt lat="-40.1767720" lon="-71.3712990">
        <ele>704.1</ele>
        <time>2020-11-15T13:57:57Z</time>
      </trkpt>
      <trkpt lat="-40.1767550" lon="-71.3712310">
        <ele>704.0</ele>
        <time>2020-11-15T13:57:58Z</time>
      </trkpt>
      <trkpt lat="-40.1767390" lon="-71.3711620">
        <ele>703.8</ele>
        <time>2020-11-15T13:57:59Z</time>
      </trkpt>
      <trkpt lat="-40.1767230" lon="-71.3710930">
        <ele>703.6</ele>
        <time>2020-11-15T13:58:01Z</time>
      </trkpt>
      <trkpt lat="-40.1767060" lon="-71.3710210">
        <ele>703.4</ele>
        <time>2020-11-15T13:58:02Z</time>
      </trkpt>
      <trkpt lat="-40.1766890" lon="-71.3709460">
        <ele>703.1</ele>
        <time>2020-11-15T13:58:03Z</time>
      </trkpt>
      <trkpt lat="-40.1766720" lon="-71.3708670">
        <ele>702.7</ele>
        <time>2020-11-15T13:58:04Z</time>
      </trkpt>
      <trkpt lat="-40.1766350" lon="-71.3706980">
        <ele>701.9</ele>
        <time>2020-11-15T13:58:05Z</time>
      </trkpt>
      <trkpt lat="-40.1766130" lon="-71.3706070">
        <ele>701.5</ele>
        <time>2020-11-15T13:58:06Z</time>
      </trkpt>
      <trkpt lat="-40.1765910" lon="-71.3705130">
        <ele>701.0</ele>
        <time>2020-11-15T13:58:07Z</time>
      </trkpt>
      <trkpt lat="-40.1765700" lon="-71.3704160">
        <ele>700.6</ele>
        <time>2020-11-15T13:58:08Z</time>
      </trkpt>
      <trkpt lat="-40.1765470" lon="-71.3703160">
        <ele>700.1</ele>
        <time>2020-11-15T13:58:10Z</time>
      </trkpt>
      <trkpt lat="-40.1765240" lon="-71.3702130">
        <ele>699.6</ele>
        <time>2020-11-15T13:58:11Z</time>
      </trkpt>
      <trkpt lat="-40.1765020" lon="-71.3701080">
        <ele>699.1</ele>
        <time>2020-11-15T13:58:12Z</time>
      </trkpt>
      <trkpt lat="-40.1764800" lon="-71.3700010">
        <ele>698.6</ele>
        <time>2020-11-15T13:58:13Z</time>
      </trkpt>
      <trkpt lat="-40.1764580" lon="-71.3698880">
        <ele>698.1</ele>
        <time>2020-11-15T13:58:14Z</time>
      </trkpt>
      <trkpt lat="-40.1763910" lon="-71.3695410">
        <ele>697.1</ele>
        <time>2020-11-15T13:58:16Z</time>
      </trkpt>
      <trkpt lat="-40.1763760" lon="-71.3694290">
        <ele>696.8</ele>
        <time>2020-11-15T13:58:18Z</time>
      </trkpt>
      <trkpt lat="-40.1763660" lon="-71.3693180">
        <ele>696.6</ele>
        <time>2020-11-15T13:58:19Z</time>
      </trkpt>
      <trkpt lat="-40.1763510" lon="-71.3691010">
        <ele>696.2</ele>
        <time>2020-11-15T13:58:20Z</time>
      </trkpt>
      <trkpt lat="-40.1763450" lon="-71.3689940">
        <ele>696.1</ele>
        <time>2020-11-15T13:58:21Z</time>
      </trkpt>
      <trkpt lat="-40.1763400" lon="-71.3688870">
        <ele>696.0</ele>
        <time>2020-11-15T13:58:22Z</time>
      </trkpt>
      <trkpt lat="-40.1763340" lon="-71.3687790">
        <ele>696.0</ele>
        <time>2020-11-15T13:58:24Z</time>
      </trkpt>
      <trkpt lat="-40.1763270" lon="-71.3686680">
        <ele>696.1</ele>
        <time>2020-11-15T13:58:25Z</time>
      </trkpt>
      <trkpt lat="-40.1763040" lon="-71.3684480">
        <ele>696.5</ele>
        <time>2020-11-15T13:58:26Z</time>
      </trkpt>
      <trkpt lat="-40.1762870" lon="-71.3683410">
        <ele>696.8</ele>
        <time>2020-11-15T13:58:27Z</time>
      </trkpt>
      <trkpt lat="-40.1762640" lon="-71.3682340">
        <ele>697.1</ele>
        <time>2020-11-15T13:58:28Z</time>
      </trkpt>
      <trkpt lat="-40.1762360" lon="-71.3681300">
        <ele>697.5</ele>
        <time>2020-11-15T13:58:29Z</time>
      </trkpt>
      <trkpt lat="-40.1762030" lon="-71.3680300">
        <ele>697.9</ele>
        <time>2020-11-15T13:58:30Z</time>
      </trkpt>
      <trkpt lat="-40.1761660" lon="-71.3679310">
        <ele>698.4</ele>
        <time>2020-11-15T13:58:31Z</time>
      </trkpt>
      <trkpt lat="-40.1761260" lon="-71.3678330">
        <ele>698.8</ele>
        <time>2020-11-15T13:58:32Z</time>
      </trkpt>
      <trkpt lat="-40.1760830" lon="-71.3677380">
        <ele>699.3</ele>
        <time>2020-11-15T13:58:33Z</time>
      </trkpt>
      <trkpt lat="-40.1760400" lon="-71.3676430">
        <ele>699.8</ele>
        <time>2020-11-15T13:58:34Z</time>
      </trkpt>
      <trkpt lat="-40.1759960" lon="-71.3675490">
        <ele>700.3</ele>
        <time>2020-11-15T13:58:35Z</time>
      </trkpt>
      <trkpt lat="-40.1759530" lon="-71.3674570">
        <ele>700.8</ele>
        <time>2020-11-15T13:58:36Z</time>
      </trkpt>
      <trkpt lat="-40.1759110" lon="-71.3673650">
        <ele>701.3</ele>
        <time>2020-11-15T13:58:37Z</time>
      </trkpt>
      <trkpt lat="-40.1758700" lon="-71.3672720">
        <ele>701.8</ele>
        <time>2020-11-15T13:58:38Z</time>
      </trkpt>
      <trkpt lat="-40.1758300" lon="-71.3671800">
        <ele>702.3</ele>
        <time>2020-11-15T13:58:39Z</time>
      </trkpt>
      <trkpt lat="-40.1757930" lon="-71.3670880">
        <ele>702.8</ele>
        <time>2020-11-15T13:58:40Z</time>
      </trkpt>
      <trkpt lat="-40.1757610" lon="-71.3669940">
        <ele>703.4</ele>
        <time>2020-11-15T13:58:41Z</time>
      </trkpt>
      <trkpt lat="-40.1757320" lon="-71.3669010">
        <ele>703.9</ele>
        <time>2020-11-15T13:58:42Z</time>
      </trkpt>
      <trkpt lat="-40.1757030" lon="-71.3668090">
        <ele>704.4</ele>
        <time>2020-11-15T13:58:43Z</time>
      </trkpt>
      <trkpt lat="-40.1756720" lon="-71.3667180">
        <ele>704.9</ele>
        <time>2020-11-15T13:58:44Z</time>
      </trkpt>
      <trkpt lat="-40.1756410" lon="-71.3666310">
        <ele>705.3</ele>
        <time>2020-11-15T13:58:45Z</time>
      </trkpt>
      <trkpt lat="-40.1756090" lon="-71.3665470">
        <ele>705.8</ele>
        <time>2020-11-15T13:58:46Z</time>
      </trkpt>
      <trkpt lat="-40.1755760" lon="-71.3664680">
        <ele>706.2</ele>
        <time>2020-11-15T13:58:47Z</time>
      </trkpt>
      <trkpt lat="-40.1755440" lon="-71.3663940">
        <ele>706.5</ele>
        <time>2020-11-15T13:58:48Z</time>
      </trkpt>
      <trkpt lat="-40.1755130" lon="-71.3663250">
        <ele>706.7</ele>
        <time>2020-11-15T13:58:50Z</time>
      </trkpt>
      <trkpt lat="-40.1754850" lon="-71.3662580">
        <ele>706.9</ele>
        <time>2020-11-15T13:58:51Z</time>
      </trkpt>
      <trkpt lat="-40.1754590" lon="-71.3661960">
        <ele>707.1</ele>
        <time>2020-11-15T13:58:52Z</time>
      </trkpt>
      <trkpt lat="-40.1754100" lon="-71.3660810">
        <ele>707.4</ele>
        <time>2020-11-15T13:58:53Z</time>
      </trkpt>
      <trkpt lat="-40.1753870" lon="-71.3660250">
        <ele>707.5</ele>
        <time>2020-11-15T13:58:54Z</time>
      </trkpt>
      <trkpt lat="-40.1753640" lon="-71.3659710">
        <ele>707.6</ele>
        <time>2020-11-15T13:58:55Z</time>
      </trkpt>
      <trkpt lat="-40.1753400" lon="-71.3659180">
        <ele>707.7</ele>
        <time>2020-11-15T13:58:55Z</time>
      </trkpt>
      <trkpt lat="-40.1753160" lon="-71.3658660">
        <ele>707.8</ele>
        <time>2020-11-15T13:58:56Z</time>
      </trkpt>
      <trkpt lat="-40.1752940" lon="-71.3658140">
        <ele>707.8</ele>
        <time>2020-11-15T13:58:58Z</time>
      </trkpt>
      <trkpt lat="-40.1752700" lon="-71.3657610">
        <ele>707.9</ele>
        <time>2020-11-15T13:58:59Z</time>
      </trkpt>
      <trkpt lat="-40.1752470" lon="-71.3657090">
        <ele>707.9</ele>
        <time>2020-11-15T13:59:00Z</time>
      </trkpt>
      <trkpt lat="-40.1752250" lon="-71.3656570">
        <ele>708.0</ele>
        <time>2020-11-15T13:59:01Z</time>
      </trkpt>
      <trkpt lat="-40.1751810" lon="-71.3655550">
        <ele>707.9</ele>
        <time>2020-11-15T13:59:02Z</time>
      </trkpt>
      <trkpt lat="-40.1751580" lon="-71.3655030">
        <ele>707.9</ele>
        <time>2020-11-15T13:59:03Z</time>
      </trkpt>
      <trkpt lat="-40.1751350" lon="-71.3654520">
        <ele>707.8</ele>
        <time>2020-11-15T13:59:04Z</time>
      </trkpt>
      <trkpt lat="-40.1751120" lon="-71.3654010">
        <ele>707.7</ele>
        <time>2020-11-15T13:59:05Z</time>
      </trkpt>
      <trkpt lat="-40.1750910" lon="-71.3653500">
        <ele>707.6</ele>
        <time>2020-11-15T13:59:06Z</time>
      </trkpt>
      <trkpt lat="-40.1750690" lon="-71.3652990">
        <ele>707.5</ele>
        <time>2020-11-15T13:59:08Z</time>
      </trkpt>
      <trkpt lat="-40.1750470" lon="-71.3652470">
        <ele>707.3</ele>
        <time>2020-11-15T13:59:09Z</time>
      </trkpt>
      <trkpt lat="-40.1750260" lon="-71.3651950">
        <ele>707.2</ele>
        <time>2020-11-15T13:59:10Z</time>
      </trkpt>
      <trkpt lat="-40.1750050" lon="-71.3651420">
        <ele>707.0</ele>
        <time>2020-11-15T13:59:11Z</time>
      </trkpt>
      <trkpt lat="-40.1749610" lon="-71.3650360">
        <ele>706.7</ele>
        <time>2020-11-15T13:59:12Z</time>
      </trkpt>
      <trkpt lat="-40.1749380" lon="-71.3649830">
        <ele>706.5</ele>
        <time>2020-11-15T13:59:13Z</time>
      </trkpt>
      <trkpt lat="-40.1749160" lon="-71.3649290">
        <ele>706.3</ele>
        <time>2020-11-15T13:59:14Z</time>
      </trkpt>
      <trkpt lat="-40.1748940" lon="-71.3648750">
        <ele>706.1</ele>
        <time>2020-11-15T13:59:15Z</time>
      </trkpt>
      <trkpt lat="-40.1748720" lon="-71.3648200">
        <ele>706.0</ele>
        <time>2020-11-15T13:59:16Z</time>
      </trkpt>
      <trkpt lat="-40.1748500" lon="-71.3647650">
        <ele>705.7</ele>
        <time>2020-11-15T13:59:17Z</time>
      </trkpt>
      <trkpt lat="-40.1748280" lon="-71.3647090">
        <ele>705.5</ele>
        <time>2020-11-15T13:59:18Z</time>
      </trkpt>
      <trkpt lat="-40.1748060" lon="-71.3646520">
        <ele>705.3</ele>
        <time>2020-11-15T13:59:19Z</time>
      </trkpt>
      <trkpt lat="-40.1747850" lon="-71.3645950">
        <ele>705.1</ele>
        <time>2020-11-15T13:59:20Z</time>
      </trkpt>
      <trkpt lat="-40.1747650" lon="-71.3645390">
        <ele>704.9</ele>
        <time>2020-11-15T13:59:21Z</time>
      </trkpt>
      <trkpt lat="-40.1747460" lon="-71.3644850">
        <ele>704.7</ele>
        <time>2020-11-15T13:59:22Z</time>
      </trkpt>
      <trkpt lat="-40.1747270" lon="-71.3644320">
        <ele>704.5</ele>
        <time>2020-11-15T13:59:24Z</time>
      </trkpt>
      <trkpt lat="-40.1747090" lon="-71.3643810">
        <ele>704.3</ele>
        <time>2020-11-15T13:59:25Z</time>
      </trkpt>
      <trkpt lat="-40.1746740" lon="-71.3642800">
        <ele>703.9</ele>
        <time>2020-11-15T13:59:26Z</time>
      </trkpt>
      <trkpt lat="-40.1746570" lon="-71.3642300">
        <ele>703.8</ele>
        <time>2020-11-15T13:59:27Z</time>
      </trkpt>
      <trkpt lat="-40.1746400" lon="-71.3641810">
        <ele>703.6</ele>
        <time>2020-11-15T13:59:28Z</time>
      </trkpt>
      <trkpt lat="-40.1746230" lon="-71.3641320">
        <ele>703.5</ele>
        <time>2020-11-15T13:59:30Z</time>
      </trkpt>
      <trkpt lat="-40.1746070" lon="-71.3640850">
        <ele>703.3</ele>
        <time>2020-11-15T13:59:31Z</time>
      </trkpt>
      <trkpt lat="-40.1745730" lon="-71.3639870">
        <ele>702.9</ele>
        <time>2020-11-15T13:59:32Z</time>
      </trkpt>
      <trkpt lat="-40.1745550" lon="-71.3639350">
        <ele>702.7</ele>
        <time>2020-11-15T13:59:33Z</time>
      </trkpt>
      <trkpt lat="-40.1745360" lon="-71.3638800">
        <ele>702.5</ele>
        <time>2020-11-15T13:59:34Z</time>
      </trkpt>
      <trkpt lat="-40.1745150" lon="-71.3638220">
        <ele>702.3</ele>
        <time>2020-11-15T13:59:35Z</time>
      </trkpt>
      <trkpt lat="-40.1744940" lon="-71.3637610">
        <ele>702.0</ele>
        <time>2020-11-15T13:59:36Z</time>
      </trkpt>
      <trkpt lat="-40.1744710" lon="-71.3636990">
        <ele>701.8</ele>
        <time>2020-11-15T13:59:37Z</time>
      </trkpt>
      <trkpt lat="-40.1744480" lon="-71.3636350">
        <ele>701.5</ele>
        <time>2020-11-15T13:59:38Z</time>
      </trkpt>
      <trkpt lat="-40.1744230" lon="-71.3635700">
        <ele>701.2</ele>
        <time>2020-11-15T13:59:39Z</time>
      </trkpt>
      <trkpt lat="-40.1743990" lon="-71.3635030">
        <ele>701.0</ele>
        <time>2020-11-15T13:59:40Z</time>
      </trkpt>
      <trkpt lat="-40.1743750" lon="-71.3634330">
        <ele>700.7</ele>
        <time>2020-11-15T13:59:41Z</time>
      </trkpt>
      <trkpt lat="-40.1743500" lon="-71.3633590">
        <ele>700.4</ele>
        <time>2020-11-15T13:59:42Z</time>
      </trkpt>
      <trkpt lat="-40.1743250" lon="-71.3632830">
        <ele>700.1</ele>
        <time>2020-11-15T13:59:43Z</time>
      </trkpt>
      <trkpt lat="-40.1743000" lon="-71.3632050">
        <ele>699.9</ele>
        <time>2020-11-15T13:59:44Z</time>
      </trkpt>
      <trkpt lat="-40.1742730" lon="-71.3631240">
        <ele>699.6</ele>
        <time>2020-11-15T13:59:45Z</time>
      </trkpt>
      <trkpt lat="-40.1742430" lon="-71.3630410">
        <ele>699.3</ele>
        <time>2020-11-15T13:59:46Z</time>
      </trkpt>
      <trkpt lat="-40.1742110" lon="-71.3629560">
        <ele>699.0</ele>
        <time>2020-11-15T13:59:47Z</time>
      </trkpt>
      <trkpt lat="-40.1741770" lon="-71.3628710">
        <ele>698.7</ele>
        <time>2020-11-15T13:59:48Z</time>
      </trkpt>
      <trkpt lat="-40.1741420" lon="-71.3627860">
        <ele>698.4</ele>
        <time>2020-11-15T13:59:49Z</time>
      </trkpt>
      <trkpt lat="-40.1741060" lon="-71.3627030">
        <ele>698.0</ele>
        <time>2020-11-15T13:59:50Z</time>
      </trkpt>
      <trkpt lat="-40.1740680" lon="-71.3626210">
        <ele>697.7</ele>
        <time>2020-11-15T13:59:51Z</time>
      </trkpt>
      <trkpt lat="-40.1740280" lon="-71.3625390">
        <ele>697.3</ele>
        <time>2020-11-15T13:59:53Z</time>
      </trkpt>
      <trkpt lat="-40.1739640" lon="-71.3624210">
        <ele>696.8</ele>
        <time>2020-11-15T13:59:54Z</time>
      </trkpt>
      <trkpt lat="-40.1738990" lon="-71.3623030">
        <ele>696.2</ele>
        <time>2020-11-15T13:59:55Z</time>
      </trkpt>
      <trkpt lat="-40.1738530" lon="-71.3622300">
        <ele>695.8</ele>
        <time>2020-11-15T13:59:56Z</time>
      </trkpt>
      <trkpt lat="-40.1738060" lon="-71.3621580">
        <ele>695.5</ele>
        <time>2020-11-15T13:59:57Z</time>
      </trkpt>
      <trkpt lat="-40.1737600" lon="-71.3620870">
        <ele>695.2</ele>
        <time>2020-11-15T13:59:58Z</time>
      </trkpt>
      <trkpt lat="-40.1737130" lon="-71.3620170">
        <ele>694.8</ele>
        <time>2020-11-15T13:59:59Z</time>
      </trkpt>
      <trkpt lat="-40.1736630" lon="-71.3619490">
        <ele>694.5</ele>
        <time>2020-11-15T14:00:00Z</time>
      </trkpt>
      <trkpt lat="-40.1736100" lon="-71.3618820">
        <ele>694.1</ele>
        <time>2020-11-15T14:00:01Z</time>
      </trkpt>
      <trkpt lat="-40.1735570" lon="-71.3618150">
        <ele>693.8</ele>
        <time>2020-11-15T14:00:02Z</time>
      </trkpt>
      <trkpt lat="-40.1735030" lon="-71.3617480">
        <ele>693.4</ele>
        <time>2020-11-15T14:00:03Z</time>
      </trkpt>
      <trkpt lat="-40.1734470" lon="-71.3616800">
        <ele>693.0</ele>
        <time>2020-11-15T14:00:04Z</time>
      </trkpt>
      <trkpt lat="-40.1733900" lon="-71.3616130">
        <ele>692.7</ele>
        <time>2020-11-15T14:00:05Z</time>
      </trkpt>
      <trkpt lat="-40.1733320" lon="-71.3615450">
        <ele>692.3</ele>
        <time>2020-11-15T14:00:06Z</time>
      </trkpt>
      <trkpt lat="-40.1732720" lon="-71.3614780">
        <ele>692.0</ele>
        <time>2020-11-15T14:00:07Z</time>
      </trkpt>
      <trkpt lat="-40.1732110" lon="-71.3614120">
        <ele>691.6</ele>
        <time>2020-11-15T14:00:08Z</time>
      </trkpt>
      <trkpt lat="-40.1731480" lon="-71.3613470">
        <ele>691.2</ele>
        <time>2020-11-15T14:00:09Z</time>
      </trkpt>
      <trkpt lat="-40.1730820" lon="-71.3612840">
        <ele>690.8</ele>
        <time>2020-11-15T14:00:10Z</time>
      </trkpt>
      <trkpt lat="-40.1730140" lon="-71.3612230">
        <ele>690.6</ele>
        <time>2020-11-15T14:00:11Z</time>
      </trkpt>
      <trkpt lat="-40.1729430" lon="-71.3611650">
        <ele>690.3</ele>
        <time>2020-11-15T14:00:12Z</time>
      </trkpt>
      <trkpt lat="-40.1728710" lon="-71.3611100">
        <ele>690.0</ele>
        <time>2020-11-15T14:00:13Z</time>
      </trkpt>
      <trkpt lat="-40.1727980" lon="-71.3610580">
        <ele>689.8</ele>
        <time>2020-11-15T14:00:14Z</time>
      </trkpt>
      <trkpt lat="-40.1727240" lon="-71.3610100">
        <ele>689.7</ele>
        <time>2020-11-15T14:00:15Z</time>
      </trkpt>
      <trkpt lat="-40.1726490" lon="-71.3609640">
        <ele>689.6</ele>
        <time>2020-11-15T14:00:16Z</time>
      </trkpt>
      <trkpt lat="-40.1725730" lon="-71.3609200">
        <ele>689.6</ele>
        <time>2020-11-15T14:00:17Z</time>
      </trkpt>
      <trkpt lat="-40.1724970" lon="-71.3608800">
        <ele>689.5</ele>
        <time>2020-11-15T14:00:19Z</time>
      </trkpt>
      <trkpt lat="-40.1723840" lon="-71.3608260">
        <ele>689.5</ele>
        <time>2020-11-15T14:00:20Z</time>
      </trkpt>
      <trkpt lat="-40.1722700" lon="-71.3607720">
        <ele>689.4</ele>
        <time>2020-11-15T14:00:21Z</time>
      </trkpt>
      <trkpt lat="-40.1721960" lon="-71.3607380">
        <ele>689.4</ele>
        <time>2020-11-15T14:00:22Z</time>
      </trkpt>
      <trkpt lat="-40.1721220" lon="-71.3607040">
        <ele>689.4</ele>
        <time>2020-11-15T14:00:23Z</time>
      </trkpt>
      <trkpt lat="-40.1720480" lon="-71.3606710">
        <ele>689.3</ele>
        <time>2020-11-15T14:00:24Z</time>
      </trkpt>
      <trkpt lat="-40.1719760" lon="-71.3606360">
        <ele>689.3</ele>
        <time>2020-11-15T14:00:25Z</time>
      </trkpt>
      <trkpt lat="-40.1719040" lon="-71.3605980">
        <ele>689.3</ele>
        <time>2020-11-15T14:00:26Z</time>
      </trkpt>
      <trkpt lat="-40.1718360" lon="-71.3605560">
        <ele>689.3</ele>
        <time>2020-11-15T14:00:27Z</time>
      </trkpt>
      <trkpt lat="-40.1717670" lon="-71.3605120">
        <ele>689.2</ele>
        <time>2020-11-15T14:00:28Z</time>
      </trkpt>
      <trkpt lat="-40.1717000" lon="-71.3604630">
        <ele>689.2</ele>
        <time>2020-11-15T14:00:29Z</time>
      </trkpt>
      <trkpt lat="-40.1716330" lon="-71.3604100">
        <ele>689.2</ele>
        <time>2020-11-15T14:00:30Z</time>
      </trkpt>
      <trkpt lat="-40.1715660" lon="-71.3603520">
        <ele>689.1</ele>
        <time>2020-11-15T14:00:31Z</time>
      </trkpt>
      <trkpt lat="-40.1714990" lon="-71.3602890">
        <ele>689.1</ele>
        <time>2020-11-15T14:00:32Z</time>
      </trkpt>
      <trkpt lat="-40.1714320" lon="-71.3602220">
        <ele>689.0</ele>
        <time>2020-11-15T14:00:33Z</time>
      </trkpt>
      <trkpt lat="-40.1713670" lon="-71.3601500">
        <ele>688.9</ele>
        <time>2020-11-15T14:00:34Z</time>
      </trkpt>
      <trkpt lat="-40.1713010" lon="-71.3600740">
        <ele>688.9</ele>
        <time>2020-11-15T14:00:35Z</time>
      </trkpt>
      <trkpt lat="-40.1712370" lon="-71.3599940">
        <ele>688.8</ele>
        <time>2020-11-15T14:00:36Z</time>
      </trkpt>
      <trkpt lat="-40.1711730" lon="-71.3599120">
        <ele>688.8</ele>
        <time>2020-11-15T14:00:37Z</time>
      </trkpt>
      <trkpt lat="-40.1711100" lon="-71.3598280">
        <ele>688.7</ele>
        <time>2020-11-15T14:00:38Z</time>
      </trkpt>
      <trkpt lat="-40.1710480" lon="-71.3597440">
        <ele>688.6</ele>
        <time>2020-11-15T14:00:39Z</time>
      </trkpt>
      <trkpt lat="-40.1709850" lon="-71.3596600">
        <ele>688.4</ele>
        <time>2020-11-15T14:00:40Z</time>
      </trkpt>
      <trkpt lat="-40.1709220" lon="-71.3595780">
        <ele>688.3</ele>
        <time>2020-11-15T14:00:41Z</time>
      </trkpt>
      <trkpt lat="-40.1708550" lon="-71.3594990">
        <ele>688.1</ele>
        <time>2020-11-15T14:00:42Z</time>
      </trkpt>
      <trkpt lat="-40.1707860" lon="-71.3594260">
        <ele>687.9</ele>
        <time>2020-11-15T14:00:43Z</time>
      </trkpt>
      <trkpt lat="-40.1707130" lon="-71.3593600">
        <ele>687.7</ele>
        <time>2020-11-15T14:00:44Z</time>
      </trkpt>
      <trkpt lat="-40.1706360" lon="-71.3592960">
        <ele>687.5</ele>
        <time>2020-11-15T14:00:45Z</time>
      </trkpt>
      <trkpt lat="-40.1705570" lon="-71.3592360">
        <ele>687.3</ele>
        <time>2020-11-15T14:00:47Z</time>
      </trkpt>
      <trkpt lat="-40.1704750" lon="-71.3591760">
        <ele>687.0</ele>
        <time>2020-11-15T14:00:48Z</time>
      </trkpt>
      <trkpt lat="-40.1703910" lon="-71.3591190">
        <ele>686.7</ele>
        <time>2020-11-15T14:00:49Z</time>
      </trkpt>
      <trkpt lat="-40.1701350" lon="-71.3589540">
        <ele>685.7</ele>
        <time>2020-11-15T14:00:51Z</time>
      </trkpt>
      <trkpt lat="-40.1700460" lon="-71.3588980">
        <ele>685.3</ele>
        <time>2020-11-15T14:00:53Z</time>
      </trkpt>
      <trkpt lat="-40.1699560" lon="-71.3588390">
        <ele>684.9</ele>
        <time>2020-11-15T14:00:54Z</time>
      </trkpt>
      <trkpt lat="-40.1696780" lon="-71.3586470">
        <ele>683.2</ele>
        <time>2020-11-15T14:00:56Z</time>
      </trkpt>
      <trkpt lat="-40.1695820" lon="-71.3585800">
        <ele>682.5</ele>
        <time>2020-11-15T14:00:57Z</time>
      </trkpt>
      <trkpt lat="-40.1694830" lon="-71.3585100">
        <ele>681.8</ele>
        <time>2020-11-15T14:00:58Z</time>
      </trkpt>
      <trkpt lat="-40.1693820" lon="-71.3584390">
        <ele>681.2</ele>
        <time>2020-11-15T14:01:00Z</time>
      </trkpt>
      <trkpt lat="-40.1692770" lon="-71.3583670">
        <ele>680.5</ele>
        <time>2020-11-15T14:01:01Z</time>
      </trkpt>
      <trkpt lat="-40.1691710" lon="-71.3582940">
        <ele>679.8</ele>
        <time>2020-11-15T14:01:02Z</time>
      </trkpt>
      <trkpt lat="-40.1687300" lon="-71.3579990">
        <ele>676.8</ele>
        <time>2020-11-15T14:01:06Z</time>
      </trkpt>
      <trkpt lat="-40.1686180" lon="-71.3579230">
        <ele>676.1</ele>
        <time>2020-11-15T14:01:07Z</time>
      </trkpt>
      <trkpt lat="-40.1681570" lon="-71.3576370">
        <ele>673.9</ele>
        <time>2020-11-15T14:01:10Z</time>
      </trkpt>
      <trkpt lat="-40.1680370" lon="-71.3575790">
        <ele>673.4</ele>
        <time>2020-11-15T14:01:12Z</time>
      </trkpt>
      <trkpt lat="-40.1678730" lon="-71.3575210">
        <ele>672.9</ele>
        <time>2020-11-15T14:01:14Z</time>
      </trkpt>
      <trkpt lat="-40.1670660" lon="-71.3572940">
        <ele>671.6</ele>
        <time>2020-11-15T14:01:19Z</time>
      </trkpt>
      <trkpt lat="-40.1669460" lon="-71.3572570">
        <ele>671.5</ele>
        <time>2020-11-15T14:01:20Z</time>
      </trkpt>
      <trkpt lat="-40.1668280" lon="-71.3572180">
        <ele>671.3</ele>
        <time>2020-11-15T14:01:21Z</time>
      </trkpt>
      <trkpt lat="-40.1667130" lon="-71.3571750">
        <ele>671.2</ele>
        <time>2020-11-15T14:01:22Z</time>
      </trkpt>
      <trkpt lat="-40.1666010" lon="-71.3571290">
        <ele>671.0</ele>
        <time>2020-11-15T14:01:23Z</time>
      </trkpt>
      <trkpt lat="-40.1664910" lon="-71.3570810">
        <ele>670.8</ele>
        <time>2020-11-15T14:01:24Z</time>
      </trkpt>
      <trkpt lat="-40.1663810" lon="-71.3570310">
        <ele>670.7</ele>
        <time>2020-11-15T14:01:25Z</time>
      </trkpt>
      <trkpt lat="-40.1662710" lon="-71.3569810">
        <ele>670.4</ele>
        <time>2020-11-15T14:01:26Z</time>
      </trkpt>
      <trkpt lat="-40.1661620" lon="-71.3569320">
        <ele>670.2</ele>
        <time>2020-11-15T14:01:27Z</time>
      </trkpt>
      <trkpt lat="-40.1660520" lon="-71.3568850">
        <ele>669.9</ele>
        <time>2020-11-15T14:01:28Z</time>
      </trkpt>
      <trkpt lat="-40.1659400" lon="-71.3568430">
        <ele>669.6</ele>
        <time>2020-11-15T14:01:29Z</time>
      </trkpt>
      <trkpt lat="-40.1658260" lon="-71.3568040">
        <ele>669.1</ele>
        <time>2020-11-15T14:01:30Z</time>
      </trkpt>
      <trkpt lat="-40.1657100" lon="-71.3567690">
        <ele>668.6</ele>
        <time>2020-11-15T14:01:31Z</time>
      </trkpt>
      <trkpt lat="-40.1655900" lon="-71.3567360">
        <ele>668.0</ele>
        <time>2020-11-15T14:01:32Z</time>
      </trkpt>
      <trkpt lat="-40.1654680" lon="-71.3567050">
        <ele>667.4</ele>
        <time>2020-11-15T14:01:33Z</time>
      </trkpt>
      <trkpt lat="-40.1653430" lon="-71.3566750">
        <ele>666.6</ele>
        <time>2020-11-15T14:01:34Z</time>
      </trkpt>
      <trkpt lat="-40.1652160" lon="-71.3566460">
        <ele>665.8</ele>
        <time>2020-11-15T14:01:35Z</time>
      </trkpt>
      <trkpt lat="-40.1650870" lon="-71.3566170">
        <ele>664.9</ele>
        <time>2020-11-15T14:01:36Z</time>
      </trkpt>
      <trkpt lat="-40.1649550" lon="-71.3565860">
        <ele>664.1</ele>
        <time>2020-11-15T14:01:38Z</time>
      </trkpt>
      <trkpt lat="-40.1644140" lon="-71.3564530">
        <ele>660.3</ele>
        <time>2020-11-15T14:01:42Z</time>
      </trkpt>
      <trkpt lat="-40.1642750" lon="-71.3564220">
        <ele>659.4</ele>
        <time>2020-11-15T14:01:43Z</time>
      </trkpt>
      <trkpt lat="-40.1637060" lon="-71.3563830">
        <ele>655.9</ele>
        <time>2020-11-15T14:01:47Z</time>
      </trkpt>
      <trkpt lat="-40.1635730" lon="-71.3564000">
        <ele>654.6</ele>
        <time>2020-11-15T14:01:48Z</time>
      </trkpt>
      <trkpt lat="-40.1634470" lon="-71.3564240">
        <ele>653.5</ele>
        <time>2020-11-15T14:01:49Z</time>
      </trkpt>
      <trkpt lat="-40.1631230" lon="-71.3565350">
        <ele>651.2</ele>
        <time>2020-11-15T14:01:51Z</time>
      </trkpt>
      <trkpt lat="-40.1630310" lon="-71.3565860">
        <ele>650.7</ele>
        <time>2020-11-15T14:01:54Z</time>
      </trkpt>
      <trkpt lat="-40.1627860" lon="-71.3567800">
        <ele>649.4</ele>
        <time>2020-11-15T14:01:57Z</time>
      </trkpt>
      <trkpt lat="-40.1626340" lon="-71.3569240">
        <ele>648.9</ele>
        <time>2020-11-15T14:01:59Z</time>
      </trkpt>
      <trkpt lat="-40.1625590" lon="-71.3569970">
        <ele>648.8</ele>
        <time>2020-11-15T14:02:00Z</time>
      </trkpt>
      <trkpt lat="-40.1623370" lon="-71.3571820">
        <ele>648.5</ele>
        <time>2020-11-15T14:02:02Z</time>
      </trkpt>
      <trkpt lat="-40.1622630" lon="-71.3572290">
        <ele>648.5</ele>
        <time>2020-11-15T14:02:03Z</time>
      </trkpt>
      <trkpt lat="-40.1621900" lon="-71.3572710">
        <ele>648.5</ele>
        <time>2020-11-15T14:02:04Z</time>
      </trkpt>
      <trkpt lat="-40.1621190" lon="-71.3573100">
        <ele>648.5</ele>
        <time>2020-11-15T14:02:05Z</time>
      </trkpt>
      <trkpt lat="-40.1620490" lon="-71.3573480">
        <ele>648.6</ele>
        <time>2020-11-15T14:02:06Z</time>
      </trkpt>
      <trkpt lat="-40.1619820" lon="-71.3573860">
        <ele>648.6</ele>
        <time>2020-11-15T14:02:08Z</time>
      </trkpt>
      <trkpt lat="-40.1619150" lon="-71.3574210">
        <ele>648.6</ele>
        <time>2020-11-15T14:02:09Z</time>
      </trkpt>
      <trkpt lat="-40.1618500" lon="-71.3574570">
        <ele>648.6</ele>
        <time>2020-11-15T14:02:10Z</time>
      </trkpt>
      <trkpt lat="-40.1617860" lon="-71.3574920">
        <ele>648.7</ele>
        <time>2020-11-15T14:02:11Z</time>
      </trkpt>
      <trkpt lat="-40.1617240" lon="-71.3575210">
        <ele>648.7</ele>
        <time>2020-11-15T14:02:12Z</time>
      </trkpt>
      <trkpt lat="-40.1616060" lon="-71.3575350">
        <ele>648.7</ele>
        <time>2020-11-15T14:02:13Z</time>
      </trkpt>
      <trkpt lat="-40.1615550" lon="-71.3575160">
        <ele>648.8</ele>
        <time>2020-11-15T14:02:14Z</time>
      </trkpt>
      <trkpt lat="-40.1615110" lon="-71.3574820">
        <ele>648.8</ele>
        <time>2020-11-15T14:02:15Z</time>
      </trkpt>
      <trkpt lat="-40.1614760" lon="-71.3574350">
        <ele>648.8</ele>
        <time>2020-11-15T14:02:16Z</time>
      </trkpt>
      <trkpt lat="-40.1614470" lon="-71.3573820">
        <ele>648.8</ele>
        <time>2020-11-15T14:02:17Z</time>
      </trkpt>
      <trkpt lat="-40.1614220" lon="-71.3573250">
        <ele>648.8</ele>
        <time>2020-11-15T14:02:18Z</time>
      </trkpt>
      <trkpt lat="-40.1614000" lon="-71.3572680">
        <ele>648.8</ele>
        <time>2020-11-15T14:02:20Z</time>
      </trkpt>
      <trkpt lat="-40.1613810" lon="-71.3572070">
        <ele>648.9</ele>
        <time>2020-11-15T14:02:21Z</time>
      </trkpt>
      <trkpt lat="-40.1613470" lon="-71.3570880">
        <ele>648.9</ele>
        <time>2020-11-15T14:02:22Z</time>
      </trkpt>
      <trkpt lat="-40.1613310" lon="-71.3570290">
        <ele>648.9</ele>
        <time>2020-11-15T14:02:23Z</time>
      </trkpt>
      <trkpt lat="-40.1613130" lon="-71.3569720">
        <ele>648.9</ele>
        <time>2020-11-15T14:02:25Z</time>
      </trkpt>
      <trkpt lat="-40.1612950" lon="-71.3569140">
        <ele>648.9</ele>
        <time>2020-11-15T14:02:26Z</time>
      </trkpt>
      <trkpt lat="-40.1612610" lon="-71.3568010">
        <ele>648.9</ele>
        <time>2020-11-15T14:02:27Z</time>
      </trkpt>
      <trkpt lat="-40.1612460" lon="-71.3567460">
        <ele>648.9</ele>
        <time>2020-11-15T14:02:28Z</time>
      </trkpt>
      <trkpt lat="-40.1612330" lon="-71.3566950">
        <ele>648.9</ele>
        <time>2020-11-15T14:02:29Z</time>
      </trkpt>
      <trkpt lat="-40.1612190" lon="-71.3566460">
        <ele>648.8</ele>
        <time>2020-11-15T14:02:30Z</time>
      </trkpt>
      <trkpt lat="-40.1612040" lon="-71.3565970">
        <ele>648.8</ele>
        <time>2020-11-15T14:02:31Z</time>
      </trkpt>
      <trkpt lat="-40.1611830" lon="-71.3565520">
        <ele>648.8</ele>
        <time>2020-11-15T14:02:32Z</time>
      </trkpt>
      <trkpt lat="-40.1611630" lon="-71.3565040">
        <ele>648.8</ele>
        <time>2020-11-15T14:02:33Z</time>
      </trkpt>
      <trkpt lat="-40.1611450" lon="-71.3564560">
        <ele>648.7</ele>
        <time>2020-11-15T14:02:34Z</time>
      </trkpt>
      <trkpt lat="-40.1611270" lon="-71.3564070">
        <ele>648.7</ele>
        <time>2020-11-15T14:02:35Z</time>
      </trkpt>
      <trkpt lat="-40.1611120" lon="-71.3563570">
        <ele>648.7</ele>
        <time>2020-11-15T14:02:36Z</time>
      </trkpt>
      <trkpt lat="-40.1610960" lon="-71.3563070">
        <ele>648.7</ele>
        <time>2020-11-15T14:02:37Z</time>
      </trkpt>
      <trkpt lat="-40.1610800" lon="-71.3562550">
        <ele>648.7</ele>
        <time>2020-11-15T14:02:38Z</time>
      </trkpt>
      <trkpt lat="-40.1610640" lon="-71.3562040">
        <ele>648.7</ele>
        <time>2020-11-15T14:02:39Z</time>
      </trkpt>
      <trkpt lat="-40.1610500" lon="-71.3561510">
        <ele>648.8</ele>
        <time>2020-11-15T14:02:40Z</time>
      </trkpt>
      <trkpt lat="-40.1610340" lon="-71.3560970">
        <ele>648.8</ele>
        <time>2020-11-15T14:02:41Z</time>
      </trkpt>
      <trkpt lat="-40.1610180" lon="-71.3560430">
        <ele>648.8</ele>
        <time>2020-11-15T14:02:42Z</time>
      </trkpt>
      <trkpt lat="-40.1610010" lon="-71.3559890">
        <ele>648.8</ele>
        <time>2020-11-15T14:02:44Z</time>
      </trkpt>
      <trkpt lat="-40.1609650" lon="-71.3558810">
        <ele>648.9</ele>
        <time>2020-11-15T14:02:45Z</time>
      </trkpt>
      <trkpt lat="-40.1609460" lon="-71.3558280">
        <ele>648.9</ele>
        <time>2020-11-15T14:02:46Z</time>
      </trkpt>
      <trkpt lat="-40.1609290" lon="-71.3557760">
        <ele>648.9</ele>
        <time>2020-11-15T14:02:47Z</time>
      </trkpt>
      <trkpt lat="-40.1609140" lon="-71.3557250">
        <ele>648.9</ele>
        <time>2020-11-15T14:02:48Z</time>
      </trkpt>
      <trkpt lat="-40.1608960" lon="-71.3556740">
        <ele>648.9</ele>
        <time>2020-11-15T14:02:49Z</time>
      </trkpt>
      <trkpt lat="-40.1608760" lon="-71.3556240">
        <ele>648.9</ele>
        <time>2020-11-15T14:02:50Z</time>
      </trkpt>
      <trkpt lat="-40.1608540" lon="-71.3555730">
        <ele>648.9</ele>
        <time>2020-11-15T14:02:51Z</time>
      </trkpt>
      <trkpt lat="-40.1608320" lon="-71.3555210">
        <ele>648.9</ele>
        <time>2020-11-15T14:02:53Z</time>
      </trkpt>
      <trkpt lat="-40.1608120" lon="-71.3554690">
        <ele>648.9</ele>
        <time>2020-11-15T14:02:54Z</time>
      </trkpt>
      <trkpt lat="-40.1607710" lon="-71.3553600">
        <ele>649.0</ele>
        <time>2020-11-15T14:02:55Z</time>
      </trkpt>
      <trkpt lat="-40.1607520" lon="-71.3553040">
        <ele>649.0</ele>
        <time>2020-11-15T14:02:56Z</time>
      </trkpt>
      <trkpt lat="-40.1607340" lon="-71.3552480">
        <ele>649.0</ele>
        <time>2020-11-15T14:02:57Z</time>
      </trkpt>
      <trkpt lat="-40.1607170" lon="-71.3551920">
        <ele>649.0</ele>
        <time>2020-11-15T14:02:58Z</time>
      </trkpt>
      <trkpt lat="-40.1607020" lon="-71.3551360">
        <ele>649.0</ele>
        <time>2020-11-15T14:02:59Z</time>
      </trkpt>
      <trkpt lat="-40.1606880" lon="-71.3550800">
        <ele>649.0</ele>
        <time>2020-11-15T14:03:00Z</time>
      </trkpt>
      <trkpt lat="-40.1606750" lon="-71.3550250">
        <ele>649.0</ele>
        <time>2020-11-15T14:03:01Z</time>
      </trkpt>
      <trkpt lat="-40.1606620" lon="-71.3549730">
        <ele>649.0</ele>
        <time>2020-11-15T14:03:02Z</time>
      </trkpt>
      <trkpt lat="-40.1606490" lon="-71.3549240">
        <ele>649.1</ele>
        <time>2020-11-15T14:03:03Z</time>
      </trkpt>
      <trkpt lat="-40.1606370" lon="-71.3548790">
        <ele>649.1</ele>
        <time>2020-11-15T14:03:04Z</time>
      </trkpt>
      <trkpt lat="-40.1606250" lon="-71.3548360">
        <ele>649.1</ele>
        <time>2020-11-15T14:03:05Z</time>
      </trkpt>
      <trkpt lat="-40.1606100" lon="-71.3547930">
        <ele>649.1</ele>
        <time>2020-11-15T14:03:06Z</time>
      </trkpt>
      <trkpt lat="-40.1605940" lon="-71.3547510">
        <ele>649.1</ele>
        <time>2020-11-15T14:03:07Z</time>
      </trkpt>
      <trkpt lat="-40.1605770" lon="-71.3547100">
        <ele>649.1</ele>
        <time>2020-11-15T14:03:08Z</time>
      </trkpt>
      <trkpt lat="-40.1605610" lon="-71.3546670">
        <ele>649.1</ele>
        <time>2020-11-15T14:03:09Z</time>
      </trkpt>
      <trkpt lat="-40.1605430" lon="-71.3546240">
        <ele>649.2</ele>
        <time>2020-11-15T14:03:10Z</time>
      </trkpt>
      <trkpt lat="-40.1605270" lon="-71.3545810">
        <ele>649.2</ele>
        <time>2020-11-15T14:03:11Z</time>
      </trkpt>
      <trkpt lat="-40.1605090" lon="-71.3545360">
        <ele>649.2</ele>
        <time>2020-11-15T14:03:11Z</time>
      </trkpt>
      <trkpt lat="-40.1604910" lon="-71.3544910">
        <ele>649.2</ele>
        <time>2020-11-15T14:03:13Z</time>
      </trkpt>
      <trkpt lat="-40.1604720" lon="-71.3544460">
        <ele>649.2</ele>
        <time>2020-11-15T14:03:14Z</time>
      </trkpt>
      <trkpt lat="-40.1604410" lon="-71.3543640">
        <ele>649.2</ele>
        <time>2020-11-15T14:03:15Z</time>
      </trkpt>
      <trkpt lat="-40.1604270" lon="-71.3543260">
        <ele>649.2</ele>
        <time>2020-11-15T14:03:16Z</time>
      </trkpt>
      <trkpt lat="-40.1604140" lon="-71.3542900">
        <ele>649.2</ele>
        <time>2020-11-15T14:03:17Z</time>
      </trkpt>
      <trkpt lat="-40.1604030" lon="-71.3542580">
        <ele>649.2</ele>
        <time>2020-11-15T14:03:19Z</time>
      </trkpt>
      <trkpt lat="-40.1603880" lon="-71.3542090">
        <ele>649.2</ele>
        <time>2020-11-15T14:03:21Z</time>
      </trkpt>
      <trkpt lat="-40.1603690" lon="-71.3541740">
        <ele>649.2</ele>
        <time>2020-11-15T14:03:22Z</time>
      </trkpt>
      <trkpt lat="-40.1603540" lon="-71.3541720">
        <ele>649.2</ele>
        <time>2020-11-15T14:03:24Z</time>
      </trkpt>
      <trkpt lat="-40.1603500" lon="-71.3541770">
        <ele>649.2</ele>
        <time>2020-11-15T14:03:26Z</time>
      </trkpt>
      <trkpt lat="-40.1603460" lon="-71.3541810">
        <ele>649.2</ele>
        <time>2020-11-15T14:03:26Z</time>
      </trkpt>
      <trkpt lat="-40.1603470" lon="-71.3541840">
        <ele>649.2</ele>
        <time>2020-11-15T14:03:27Z</time>
      </trkpt>
      <trkpt lat="-40.1603490" lon="-71.3541850">
        <ele>649.2</ele>
        <time>2020-11-15T14:03:29Z</time>
      </trkpt>
      <trkpt lat="-40.1603500" lon="-71.3541840">
        <ele>649.2</ele>
        <time>2020-11-15T14:03:30Z</time>
      </trkpt>
      <trkpt lat="-40.1603350" lon="-71.3541680">
        <ele>649.2</ele>
        <time>2020-11-15T14:03:44Z</time>
      </trkpt>
      <trkpt lat="-40.1603340" lon="-71.3541660">
        <ele>649.2</ele>
        <time>2020-11-15T14:03:45Z</time>
      </trkpt>
      <trkpt lat="-40.1603320" lon="-71.3541620">
        <ele>649.2</ele>
        <time>2020-11-15T14:03:46Z</time>
      </trkpt>
      <trkpt lat="-40.1603280" lon="-71.3541540">
        <ele>649.2</ele>
        <time>2020-11-15T14:03:47Z</time>
      </trkpt>
      <trkpt lat="-40.1603190" lon="-71.3541370">
        <ele>649.2</ele>
        <time>2020-11-15T14:03:48Z</time>
      </trkpt>
      <trkpt lat="-40.1603110" lon="-71.3541160">
        <ele>649.2</ele>
        <time>2020-11-15T14:03:49Z</time>
      </trkpt>
      <trkpt lat="-40.1603030" lon="-71.3540850">
        <ele>649.2</ele>
        <time>2020-11-15T14:03:50Z</time>
      </trkpt>
      <trkpt lat="-40.1602940" lon="-71.3540500">
        <ele>649.2</ele>
        <time>2020-11-15T14:03:51Z</time>
      </trkpt>
      <trkpt lat="-40.1602830" lon="-71.3540110">
        <ele>649.2</ele>
        <time>2020-11-15T14:03:52Z</time>
      </trkpt>
      <trkpt lat="-40.1602720" lon="-71.3539690">
        <ele>649.2</ele>
        <time>2020-11-15T14:03:53Z</time>
      </trkpt>
      <trkpt lat="-40.1602600" lon="-71.3539240">
        <ele>649.2</ele>
        <time>2020-11-15T14:03:54Z</time>
      </trkpt>
      <trkpt lat="-40.1602460" lon="-71.3538780">
        <ele>649.2</ele>
        <time>2020-11-15T14:03:55Z</time>
      </trkpt>
      <trkpt lat="-40.1602340" lon="-71.3538310">
        <ele>649.2</ele>
        <time>2020-11-15T14:03:56Z</time>
      </trkpt>
      <trkpt lat="-40.1602210" lon="-71.3537850">
        <ele>649.3</ele>
        <time>2020-11-15T14:03:57Z</time>
      </trkpt>
      <trkpt lat="-40.1602080" lon="-71.3537400">
        <ele>649.3</ele>
        <time>2020-11-15T14:03:59Z</time>
      </trkpt>
      <trkpt lat="-40.1601800" lon="-71.3536430">
        <ele>649.4</ele>
        <time>2020-11-15T14:04:00Z</time>
      </trkpt>
      <trkpt lat="-40.1601650" lon="-71.3535950">
        <ele>649.4</ele>
        <time>2020-11-15T14:04:01Z</time>
      </trkpt>
      <trkpt lat="-40.1601530" lon="-71.3535480">
        <ele>649.4</ele>
        <time>2020-11-15T14:04:02Z</time>
      </trkpt>
      <trkpt lat="-40.1601420" lon="-71.3535010">
        <ele>649.4</ele>
        <time>2020-11-15T14:04:03Z</time>
      </trkpt>
      <trkpt lat="-40.1601310" lon="-71.3534540">
        <ele>649.4</ele>
        <time>2020-11-15T14:04:04Z</time>
      </trkpt>
      <trkpt lat="-40.1601200" lon="-71.3534060">
        <ele>649.5</ele>
        <time>2020-11-15T14:04:05Z</time>
      </trkpt>
      <trkpt lat="-40.1601100" lon="-71.3533590">
        <ele>649.5</ele>
        <time>2020-11-15T14:04:06Z</time>
      </trkpt>
      <trkpt lat="-40.1600980" lon="-71.3533120">
        <ele>649.5</ele>
        <time>2020-11-15T14:04:07Z</time>
      </trkpt>
      <trkpt lat="-40.1600860" lon="-71.3532640">
        <ele>649.5</ele>
        <time>2020-11-15T14:04:08Z</time>
      </trkpt>
      <trkpt lat="-40.1600710" lon="-71.3532160">
        <ele>649.5</ele>
        <time>2020-11-15T14:04:09Z</time>
      </trkpt>
      <trkpt lat="-40.1600570" lon="-71.3531670">
        <ele>649.5</ele>
        <time>2020-11-15T14:04:10Z</time>
      </trkpt>
      <trkpt lat="-40.1600410" lon="-71.3531180">
        <ele>649.5</ele>
        <time>2020-11-15T14:04:11Z</time>
      </trkpt>
      <trkpt lat="-40.1600250" lon="-71.3530680">
        <ele>649.5</ele>
        <time>2020-11-15T14:04:12Z</time>
      </trkpt>
      <trkpt lat="-40.1600080" lon="-71.3530190">
        <ele>649.6</ele>
        <time>2020-11-15T14:04:13Z</time>
      </trkpt>
      <trkpt lat="-40.1599910" lon="-71.3529690">
        <ele>649.6</ele>
        <time>2020-11-15T14:04:14Z</time>
      </trkpt>
      <trkpt lat="-40.1599740" lon="-71.3529170">
        <ele>649.6</ele>
        <time>2020-11-15T14:04:16Z</time>
      </trkpt>
      <trkpt lat="-40.1599570" lon="-71.3528620">
        <ele>649.7</ele>
        <time>2020-11-15T14:04:17Z</time>
      </trkpt>
      <trkpt lat="-40.1599210" lon="-71.3527520">
        <ele>649.7</ele>
        <time>2020-11-15T14:04:18Z</time>
      </trkpt>
      <trkpt lat="-40.1599030" lon="-71.3526960">
        <ele>649.7</ele>
        <time>2020-11-15T14:04:19Z</time>
      </trkpt>
      <trkpt lat="-40.1598860" lon="-71.3526430">
        <ele>649.7</ele>
        <time>2020-11-15T14:04:20Z</time>
      </trkpt>
      <trkpt lat="-40.1598690" lon="-71.3525890">
        <ele>649.7</ele>
        <time>2020-11-15T14:04:21Z</time>
      </trkpt>
      <trkpt lat="-40.1598490" lon="-71.3525370">
        <ele>649.8</ele>
        <time>2020-11-15T14:04:22Z</time>
      </trkpt>
      <trkpt lat="-40.1598280" lon="-71.3524840">
        <ele>649.8</ele>
        <time>2020-11-15T14:04:23Z</time>
      </trkpt>
      <trkpt lat="-40.1598070" lon="-71.3524320">
        <ele>649.9</ele>
        <time>2020-11-15T14:04:24Z</time>
      </trkpt>
      <trkpt lat="-40.1597850" lon="-71.3523780">
        <ele>649.9</ele>
        <time>2020-11-15T14:04:25Z</time>
      </trkpt>
      <trkpt lat="-40.1597650" lon="-71.3523230">
        <ele>650.0</ele>
        <time>2020-11-15T14:04:27Z</time>
      </trkpt>
      <trkpt lat="-40.1597470" lon="-71.3522680">
        <ele>650.1</ele>
        <time>2020-11-15T14:04:28Z</time>
      </trkpt>
      <trkpt lat="-40.1597160" lon="-71.3521600">
        <ele>650.2</ele>
        <time>2020-11-15T14:04:29Z</time>
      </trkpt>
      <trkpt lat="-40.1597020" lon="-71.3521040">
        <ele>650.2</ele>
        <time>2020-11-15T14:04:30Z</time>
      </trkpt>
      <trkpt lat="-40.1596880" lon="-71.3520490">
        <ele>650.3</ele>
        <time>2020-11-15T14:04:31Z</time>
      </trkpt>
      <trkpt lat="-40.1596710" lon="-71.3519950">
        <ele>650.3</ele>
        <time>2020-11-15T14:04:32Z</time>
      </trkpt>
      <trkpt lat="-40.1596530" lon="-71.3519410">
        <ele>650.4</ele>
        <time>2020-11-15T14:04:33Z</time>
      </trkpt>
      <trkpt lat="-40.1596340" lon="-71.3518870">
        <ele>650.4</ele>
        <time>2020-11-15T14:04:34Z</time>
      </trkpt>
      <trkpt lat="-40.1596140" lon="-71.3518330">
        <ele>650.5</ele>
        <time>2020-11-15T14:04:35Z</time>
      </trkpt>
      <trkpt lat="-40.1595940" lon="-71.3517790">
        <ele>650.6</ele>
        <time>2020-11-15T14:04:36Z</time>
      </trkpt>
      <trkpt lat="-40.1595750" lon="-71.3517230">
        <ele>650.7</ele>
        <time>2020-11-15T14:04:37Z</time>
      </trkpt>
      <trkpt lat="-40.1595570" lon="-71.3516670">
        <ele>650.8</ele>
        <time>2020-11-15T14:04:38Z</time>
      </trkpt>
      <trkpt lat="-40.1595380" lon="-71.3516120">
        <ele>650.9</ele>
        <time>2020-11-15T14:04:39Z</time>
      </trkpt>
      <trkpt lat="-40.1595220" lon="-71.3515550">
        <ele>650.9</ele>
        <time>2020-11-15T14:04:40Z</time>
      </trkpt>
      <trkpt lat="-40.1595050" lon="-71.3515000">
        <ele>651.0</ele>
        <time>2020-11-15T14:04:41Z</time>
      </trkpt>
      <trkpt lat="-40.1594880" lon="-71.3514440">
        <ele>651.1</ele>
        <time>2020-11-15T14:04:42Z</time>
      </trkpt>
      <trkpt lat="-40.1594700" lon="-71.3513890">
        <ele>651.1</ele>
        <time>2020-11-15T14:04:44Z</time>
      </trkpt>
      <trkpt lat="-40.1594310" lon="-71.3512750">
        <ele>651.2</ele>
        <time>2020-11-15T14:04:45Z</time>
      </trkpt>
      <trkpt lat="-40.1594110" lon="-71.3512160">
        <ele>651.3</ele>
        <time>2020-11-15T14:04:46Z</time>
      </trkpt>
      <trkpt lat="-40.1593900" lon="-71.3511570">
        <ele>651.3</ele>
        <time>2020-11-15T14:04:47Z</time>
      </trkpt>
      <trkpt lat="-40.1593690" lon="-71.3510970">
        <ele>651.4</ele>
        <time>2020-11-15T14:04:48Z</time>
      </trkpt>
      <trkpt lat="-40.1593480" lon="-71.3510370">
        <ele>651.4</ele>
        <time>2020-11-15T14:04:49Z</time>
      </trkpt>
      <trkpt lat="-40.1593260" lon="-71.3509770">
        <ele>651.5</ele>
        <time>2020-11-15T14:04:50Z</time>
      </trkpt>
      <trkpt lat="-40.1593040" lon="-71.3509170">
        <ele>651.5</ele>
        <time>2020-11-15T14:04:51Z</time>
      </trkpt>
      <trkpt lat="-40.1592820" lon="-71.3508540">
        <ele>651.5</ele>
        <time>2020-11-15T14:04:53Z</time>
      </trkpt>
      <trkpt lat="-40.1592390" lon="-71.3507260">
        <ele>651.5</ele>
        <time>2020-11-15T14:04:54Z</time>
      </trkpt>
      <trkpt lat="-40.1592170" lon="-71.3506610">
        <ele>651.5</ele>
        <time>2020-11-15T14:04:55Z</time>
      </trkpt>
      <trkpt lat="-40.1591960" lon="-71.3505960">
        <ele>651.5</ele>
        <time>2020-11-15T14:04:56Z</time>
      </trkpt>
      <trkpt lat="-40.1591750" lon="-71.3505290">
        <ele>651.5</ele>
        <time>2020-11-15T14:04:57Z</time>
      </trkpt>
      <trkpt lat="-40.1591540" lon="-71.3504610">
        <ele>651.5</ele>
        <time>2020-11-15T14:04:58Z</time>
      </trkpt>
      <trkpt lat="-40.1591330" lon="-71.3503940">
        <ele>651.6</ele>
        <time>2020-11-15T14:04:59Z</time>
      </trkpt>
      <trkpt lat="-40.1591120" lon="-71.3503270">
        <ele>651.6</ele>
        <time>2020-11-15T14:05:00Z</time>
      </trkpt>
      <trkpt lat="-40.1590900" lon="-71.3502610">
        <ele>651.6</ele>
        <time>2020-11-15T14:05:01Z</time>
      </trkpt>
      <trkpt lat="-40.1590680" lon="-71.3501950">
        <ele>651.6</ele>
        <time>2020-11-15T14:05:02Z</time>
      </trkpt>
      <trkpt lat="-40.1590460" lon="-71.3501290">
        <ele>651.7</ele>
        <time>2020-11-15T14:05:03Z</time>
      </trkpt>
      <trkpt lat="-40.1590240" lon="-71.3500640">
        <ele>651.7</ele>
        <time>2020-11-15T14:05:04Z</time>
      </trkpt>
      <trkpt lat="-40.1590030" lon="-71.3499980">
        <ele>651.7</ele>
        <time>2020-11-15T14:05:05Z</time>
      </trkpt>
      <trkpt lat="-40.1589810" lon="-71.3499310">
        <ele>651.7</ele>
        <time>2020-11-15T14:05:06Z</time>
      </trkpt>
      <trkpt lat="-40.1589590" lon="-71.3498640">
        <ele>651.7</ele>
        <time>2020-11-15T14:05:08Z</time>
      </trkpt>
      <trkpt lat="-40.1589140" lon="-71.3497290">
        <ele>651.7</ele>
        <time>2020-11-15T14:05:09Z</time>
      </trkpt>
      <trkpt lat="-40.1588920" lon="-71.3496600">
        <ele>651.8</ele>
        <time>2020-11-15T14:05:10Z</time>
      </trkpt>
      <trkpt lat="-40.1588690" lon="-71.3495920">
        <ele>651.8</ele>
        <time>2020-11-15T14:05:11Z</time>
      </trkpt>
      <trkpt lat="-40.1588470" lon="-71.3495240">
        <ele>651.8</ele>
        <time>2020-11-15T14:05:12Z</time>
      </trkpt>
      <trkpt lat="-40.1588240" lon="-71.3494570">
        <ele>651.9</ele>
        <time>2020-11-15T14:05:13Z</time>
      </trkpt>
      <trkpt lat="-40.1588010" lon="-71.3493900">
        <ele>651.9</ele>
        <time>2020-11-15T14:05:14Z</time>
      </trkpt>
      <trkpt lat="-40.1587760" lon="-71.3493240">
        <ele>652.0</ele>
        <time>2020-11-15T14:05:16Z</time>
      </trkpt>
      <trkpt lat="-40.1587250" lon="-71.3491930">
        <ele>652.1</ele>
        <time>2020-11-15T14:05:17Z</time>
      </trkpt>
      <trkpt lat="-40.1587000" lon="-71.3491260">
        <ele>652.1</ele>
        <time>2020-11-15T14:05:18Z</time>
      </trkpt>
      <trkpt lat="-40.1586770" lon="-71.3490580">
        <ele>652.2</ele>
        <time>2020-11-15T14:05:19Z</time>
      </trkpt>
      <trkpt lat="-40.1586540" lon="-71.3489890">
        <ele>652.2</ele>
        <time>2020-11-15T14:05:20Z</time>
      </trkpt>
      <trkpt lat="-40.1586310" lon="-71.3489200">
        <ele>652.3</ele>
        <time>2020-11-15T14:05:22Z</time>
      </trkpt>
      <trkpt lat="-40.1586060" lon="-71.3488510">
        <ele>652.3</ele>
        <time>2020-11-15T14:05:23Z</time>
      </trkpt>
      <trkpt lat="-40.1585590" lon="-71.3487150">
        <ele>652.4</ele>
        <time>2020-11-15T14:05:24Z</time>
      </trkpt>
      <trkpt lat="-40.1585380" lon="-71.3486470">
        <ele>652.5</ele>
        <time>2020-11-15T14:05:25Z</time>
      </trkpt>
      <trkpt lat="-40.1585180" lon="-71.3485810">
        <ele>652.5</ele>
        <time>2020-11-15T14:05:26Z</time>
      </trkpt>
      <trkpt lat="-40.1585000" lon="-71.3485140">
        <ele>652.5</ele>
        <time>2020-11-15T14:05:27Z</time>
      </trkpt>
      <trkpt lat="-40.1584810" lon="-71.3484480">
        <ele>652.5</ele>
        <time>2020-11-15T14:05:28Z</time>
      </trkpt>
      <trkpt lat="-40.1584630" lon="-71.3483820">
        <ele>652.5</ele>
        <time>2020-11-15T14:05:29Z</time>
      </trkpt>
      <trkpt lat="-40.1584450" lon="-71.3483150">
        <ele>652.5</ele>
        <time>2020-11-15T14:05:30Z</time>
      </trkpt>
      <trkpt lat="-40.1584260" lon="-71.3482480">
        <ele>652.5</ele>
        <time>2020-11-15T14:05:31Z</time>
      </trkpt>
      <trkpt lat="-40.1584060" lon="-71.3481820">
        <ele>652.5</ele>
        <time>2020-11-15T14:05:32Z</time>
      </trkpt>
      <trkpt lat="-40.1583870" lon="-71.3481150">
        <ele>652.4</ele>
        <time>2020-11-15T14:05:34Z</time>
      </trkpt>
      <trkpt lat="-40.1583490" lon="-71.3479780">
        <ele>652.4</ele>
        <time>2020-11-15T14:05:35Z</time>
      </trkpt>
      <trkpt lat="-40.1583260" lon="-71.3479090">
        <ele>652.3</ele>
        <time>2020-11-15T14:05:36Z</time>
      </trkpt>
      <trkpt lat="-40.1583020" lon="-71.3478390">
        <ele>652.3</ele>
        <time>2020-11-15T14:05:37Z</time>
      </trkpt>
      <trkpt lat="-40.1582770" lon="-71.3477690">
        <ele>652.3</ele>
        <time>2020-11-15T14:05:38Z</time>
      </trkpt>
      <trkpt lat="-40.1582530" lon="-71.3476990">
        <ele>652.3</ele>
        <time>2020-11-15T14:05:39Z</time>
      </trkpt>
      <trkpt lat="-40.1582310" lon="-71.3476310">
        <ele>652.3</ele>
        <time>2020-11-15T14:05:40Z</time>
      </trkpt>
      <trkpt lat="-40.1582120" lon="-71.3475650">
        <ele>652.3</ele>
        <time>2020-11-15T14:05:41Z</time>
      </trkpt>
      <trkpt lat="-40.1581940" lon="-71.3475010">
        <ele>652.3</ele>
        <time>2020-11-15T14:05:42Z</time>
      </trkpt>
      <trkpt lat="-40.1581740" lon="-71.3474380">
        <ele>652.3</ele>
        <time>2020-11-15T14:05:43Z</time>
      </trkpt>
      <trkpt lat="-40.1581540" lon="-71.3473780">
        <ele>652.2</ele>
        <time>2020-11-15T14:05:44Z</time>
      </trkpt>
      <trkpt lat="-40.1581330" lon="-71.3473180">
        <ele>652.2</ele>
        <time>2020-11-15T14:05:45Z</time>
      </trkpt>
      <trkpt lat="-40.1581110" lon="-71.3472610">
        <ele>652.2</ele>
        <time>2020-11-15T14:05:46Z</time>
      </trkpt>
      <trkpt lat="-40.1580870" lon="-71.3472070">
        <ele>652.7</ele>
        <time>2020-11-15T14:05:47Z</time>
      </trkpt>
      <trkpt lat="-40.1580600" lon="-71.3471540">
        <ele>653.5</ele>
        <time>2020-11-15T14:05:48Z</time>
      </trkpt>
      <trkpt lat="-40.1580310" lon="-71.3471020">
        <ele>654.4</ele>
        <time>2020-11-15T14:05:49Z</time>
      </trkpt>
      <trkpt lat="-40.1580000" lon="-71.3470500">
        <ele>655.2</ele>
        <time>2020-11-15T14:05:50Z</time>
      </trkpt>
      <trkpt lat="-40.1579680" lon="-71.3469980">
        <ele>656.1</ele>
        <time>2020-11-15T14:05:51Z</time>
      </trkpt>
      <trkpt lat="-40.1579360" lon="-71.3469460">
        <ele>657.0</ele>
        <time>2020-11-15T14:05:52Z</time>
      </trkpt>
      <trkpt lat="-40.1579060" lon="-71.3468950">
        <ele>657.9</ele>
        <time>2020-11-15T14:05:53Z</time>
      </trkpt>
      <trkpt lat="-40.1578760" lon="-71.3468450">
        <ele>658.7</ele>
        <time>2020-11-15T14:05:54Z</time>
      </trkpt>
      <trkpt lat="-40.1578460" lon="-71.3467950">
        <ele>659.6</ele>
        <time>2020-11-15T14:05:55Z</time>
      </trkpt>
      <trkpt lat="-40.1578150" lon="-71.3467480">
        <ele>660.4</ele>
        <time>2020-11-15T14:05:56Z</time>
      </trkpt>
      <trkpt lat="-40.1577870" lon="-71.3467030">
        <ele>661.2</ele>
        <time>2020-11-15T14:05:57Z</time>
      </trkpt>
      <trkpt lat="-40.1577590" lon="-71.3466570">
        <ele>662.1</ele>
        <time>2020-11-15T14:05:58Z</time>
      </trkpt>
      <trkpt lat="-40.1577340" lon="-71.3466090">
        <ele>662.9</ele>
        <time>2020-11-15T14:05:59Z</time>
      </trkpt>
      <trkpt lat="-40.1577110" lon="-71.3465580">
        <ele>663.7</ele>
        <time>2020-11-15T14:06:00Z</time>
      </trkpt>
      <trkpt lat="-40.1576910" lon="-71.3465070">
        <ele>664.5</ele>
        <time>2020-11-15T14:06:01Z</time>
      </trkpt>
      <trkpt lat="-40.1576720" lon="-71.3464580">
        <ele>665.3</ele>
        <time>2020-11-15T14:06:03Z</time>
      </trkpt>
      <trkpt lat="-40.1576270" lon="-71.3463660">
        <ele>666.9</ele>
        <time>2020-11-15T14:06:04Z</time>
      </trkpt>
      <trkpt lat="-40.1576010" lon="-71.3463250">
        <ele>667.6</ele>
        <time>2020-11-15T14:06:05Z</time>
      </trkpt>
      <trkpt lat="-40.1575750" lon="-71.3462820">
        <ele>668.4</ele>
        <time>2020-11-15T14:06:06Z</time>
      </trkpt>
      <trkpt lat="-40.1575440" lon="-71.3462380">
        <ele>669.3</ele>
        <time>2020-11-15T14:06:07Z</time>
      </trkpt>
      <trkpt lat="-40.1575130" lon="-71.3462010">
        <ele>670.0</ele>
        <time>2020-11-15T14:06:08Z</time>
      </trkpt>
      <trkpt lat="-40.1574800" lon="-71.3461720">
        <ele>670.1</ele>
        <time>2020-11-15T14:06:09Z</time>
      </trkpt>
      <trkpt lat="-40.1574430" lon="-71.3461550">
        <ele>669.4</ele>
        <time>2020-11-15T14:06:10Z</time>
      </trkpt>
      <trkpt lat="-40.1574030" lon="-71.3461460">
        <ele>668.7</ele>
        <time>2020-11-15T14:06:11Z</time>
      </trkpt>
      <trkpt lat="-40.1573630" lon="-71.3461460">
        <ele>667.9</ele>
        <time>2020-11-15T14:06:12Z</time>
      </trkpt>
      <trkpt lat="-40.1573230" lon="-71.3461510">
        <ele>667.2</ele>
        <time>2020-11-15T14:06:13Z</time>
      </trkpt>
      <trkpt lat="-40.1572840" lon="-71.3461610">
        <ele>666.4</ele>
        <time>2020-11-15T14:06:14Z</time>
      </trkpt>
      <trkpt lat="-40.1572450" lon="-71.3461740">
        <ele>665.7</ele>
        <time>2020-11-15T14:06:15Z</time>
      </trkpt>
      <trkpt lat="-40.1572070" lon="-71.3461880">
        <ele>664.9</ele>
        <time>2020-11-15T14:06:17Z</time>
      </trkpt>
      <trkpt lat="-40.1571340" lon="-71.3462230">
        <ele>663.5</ele>
        <time>2020-11-15T14:06:18Z</time>
      </trkpt>
      <trkpt lat="-40.1570970" lon="-71.3462400">
        <ele>662.7</ele>
        <time>2020-11-15T14:06:19Z</time>
      </trkpt>
      <trkpt lat="-40.1570590" lon="-71.3462550">
        <ele>662.0</ele>
        <time>2020-11-15T14:06:20Z</time>
      </trkpt>
      <trkpt lat="-40.1570220" lon="-71.3462720">
        <ele>661.2</ele>
        <time>2020-11-15T14:06:21Z</time>
      </trkpt>
      <trkpt lat="-40.1569860" lon="-71.3462890">
        <ele>660.5</ele>
        <time>2020-11-15T14:06:24Z</time>
      </trkpt>
      <trkpt lat="-40.1569500" lon="-71.3463070">
        <ele>659.8</ele>
        <time>2020-11-15T14:06:25Z</time>
      </trkpt>
      <trkpt lat="-40.1569140" lon="-71.3463240">
        <ele>659.1</ele>
        <time>2020-11-15T14:06:26Z</time>
      </trkpt>
      <trkpt lat="-40.1568440" lon="-71.3463580">
        <ele>657.7</ele>
        <time>2020-11-15T14:06:27Z</time>
      </trkpt>
      <trkpt lat="-40.1568060" lon="-71.3463740">
        <ele>656.9</ele>
        <time>2020-11-15T14:06:29Z</time>
      </trkpt>
      <trkpt lat="-40.1567250" lon="-71.3464130">
        <ele>655.3</ele>
        <time>2020-11-15T14:06:30Z</time>
      </trkpt>
      <trkpt lat="-40.1566840" lon="-71.3464360">
        <ele>654.5</ele>
        <time>2020-11-15T14:06:32Z</time>
      </trkpt>
      <trkpt lat="-40.1566030" lon="-71.3464830">
        <ele>654.5</ele>
        <time>2020-11-15T14:06:33Z</time>
      </trkpt>
      <trkpt lat="-40.1565620" lon="-71.3465080">
        <ele>654.5</ele>
        <time>2020-11-15T14:06:34Z</time>
      </trkpt>
      <trkpt lat="-40.1565210" lon="-71.3465330">
        <ele>654.5</ele>
        <time>2020-11-15T14:06:35Z</time>
      </trkpt>
      <trkpt lat="-40.1564800" lon="-71.3465570">
        <ele>654.5</ele>
        <time>2020-11-15T14:06:36Z</time>
      </trkpt>
      <trkpt lat="-40.1564390" lon="-71.3465800">
        <ele>654.5</ele>
        <time>2020-11-15T14:06:37Z</time>
      </trkpt>
      <trkpt lat="-40.1563990" lon="-71.3466030">
        <ele>654.5</ele>
        <time>2020-11-15T14:06:38Z</time>
      </trkpt>
      <trkpt lat="-40.1563560" lon="-71.3466250">
        <ele>654.6</ele>
        <time>2020-11-15T14:06:39Z</time>
      </trkpt>
      <trkpt lat="-40.1563140" lon="-71.3466480">
        <ele>654.6</ele>
        <time>2020-11-15T14:06:40Z</time>
      </trkpt>
      <trkpt lat="-40.1562710" lon="-71.3466710">
        <ele>654.6</ele>
        <time>2020-11-15T14:06:41Z</time>
      </trkpt>
      <trkpt lat="-40.1562290" lon="-71.3466940">
        <ele>654.7</ele>
        <time>2020-11-15T14:06:42Z</time>
      </trkpt>
      <trkpt lat="-40.1561890" lon="-71.3467190">
        <ele>654.7</ele>
        <time>2020-11-15T14:06:44Z</time>
      </trkpt>
      <trkpt lat="-40.1561030" lon="-71.3467710">
        <ele>654.8</ele>
        <time>2020-11-15T14:06:46Z</time>
      </trkpt>
      <trkpt lat="-40.1560190" lon="-71.3468200">
        <ele>654.8</ele>
        <time>2020-11-15T14:06:47Z</time>
      </trkpt>
      <trkpt lat="-40.1559790" lon="-71.3468410">
        <ele>654.8</ele>
        <time>2020-11-15T14:06:48Z</time>
      </trkpt>
      <trkpt lat="-40.1559410" lon="-71.3468590">
        <ele>654.8</ele>
        <time>2020-11-15T14:06:50Z</time>
      </trkpt>
      <trkpt lat="-40.1559040" lon="-71.3468770">
        <ele>654.8</ele>
        <time>2020-11-15T14:06:51Z</time>
      </trkpt>
      <trkpt lat="-40.1558320" lon="-71.3469110">
        <ele>654.8</ele>
        <time>2020-11-15T14:06:52Z</time>
      </trkpt>
      <trkpt lat="-40.1557980" lon="-71.3469290">
        <ele>654.9</ele>
        <time>2020-11-15T14:06:54Z</time>
      </trkpt>
      <trkpt lat="-40.1557100" lon="-71.3469700">
        <ele>654.9</ele>
        <time>2020-11-15T14:06:56Z</time>
      </trkpt>
      <trkpt lat="-40.1556620" lon="-71.3469930">
        <ele>655.0</ele>
        <time>2020-11-15T14:06:57Z</time>
      </trkpt>
      <trkpt lat="-40.1556160" lon="-71.3470160">
        <ele>654.9</ele>
        <time>2020-11-15T14:06:59Z</time>
      </trkpt>
      <trkpt lat="-40.1555720" lon="-71.3470390">
        <ele>654.9</ele>
        <time>2020-11-15T14:07:00Z</time>
      </trkpt>
      <trkpt lat="-40.1555280" lon="-71.3470620">
        <ele>654.9</ele>
        <time>2020-11-15T14:07:01Z</time>
      </trkpt>
      <trkpt lat="-40.1554450" lon="-71.3471070">
        <ele>654.9</ele>
        <time>2020-11-15T14:07:02Z</time>
      </trkpt>
      <trkpt lat="-40.1554040" lon="-71.3471290">
        <ele>654.9</ele>
        <time>2020-11-15T14:07:03Z</time>
      </trkpt>
      <trkpt lat="-40.1553620" lon="-71.3471520">
        <ele>654.9</ele>
        <time>2020-11-15T14:07:04Z</time>
      </trkpt>
      <trkpt lat="-40.1553210" lon="-71.3471750">
        <ele>654.9</ele>
        <time>2020-11-15T14:07:05Z</time>
      </trkpt>
      <trkpt lat="-40.1552780" lon="-71.3471960">
        <ele>654.9</ele>
        <time>2020-11-15T14:07:06Z</time>
      </trkpt>
      <trkpt lat="-40.1552360" lon="-71.3472170">
        <ele>654.8</ele>
        <time>2020-11-15T14:07:08Z</time>
      </trkpt>
      <trkpt lat="-40.1551950" lon="-71.3472400">
        <ele>654.8</ele>
        <time>2020-11-15T14:07:09Z</time>
      </trkpt>
      <trkpt lat="-40.1551140" lon="-71.3472870">
        <ele>654.9</ele>
        <time>2020-11-15T14:07:10Z</time>
      </trkpt>
      <trkpt lat="-40.1550740" lon="-71.3473110">
        <ele>654.9</ele>
        <time>2020-11-15T14:07:11Z</time>
      </trkpt>
      <trkpt lat="-40.1550330" lon="-71.3473370">
        <ele>654.9</ele>
        <time>2020-11-15T14:07:12Z</time>
      </trkpt>
      <trkpt lat="-40.1549920" lon="-71.3473610">
        <ele>655.0</ele>
        <time>2020-11-15T14:07:13Z</time>
      </trkpt>
      <trkpt lat="-40.1549530" lon="-71.3473840">
        <ele>655.0</ele>
        <time>2020-11-15T14:07:14Z</time>
      </trkpt>
      <trkpt lat="-40.1549150" lon="-71.3474050">
        <ele>655.0</ele>
        <time>2020-11-15T14:07:15Z</time>
      </trkpt>
      <trkpt lat="-40.1548790" lon="-71.3474270">
        <ele>655.1</ele>
        <time>2020-11-15T14:07:16Z</time>
      </trkpt>
      <trkpt lat="-40.1548450" lon="-71.3474470">
        <ele>655.1</ele>
        <time>2020-11-15T14:07:18Z</time>
      </trkpt>
      <trkpt lat="-40.1548130" lon="-71.3474650">
        <ele>655.1</ele>
        <time>2020-11-15T14:07:19Z</time>
      </trkpt>
      <trkpt lat="-40.1547600" lon="-71.3474980">
        <ele>655.1</ele>
        <time>2020-11-15T14:07:20Z</time>
      </trkpt>
      <trkpt lat="-40.1547390" lon="-71.3475190">
        <ele>655.1</ele>
        <time>2020-11-15T14:07:21Z</time>
      </trkpt>
      <trkpt lat="-40.1547240" lon="-71.3475420">
        <ele>655.0</ele>
        <time>2020-11-15T14:07:22Z</time>
      </trkpt>
      <trkpt lat="-40.1547140" lon="-71.3475660">
        <ele>655.0</ele>
        <time>2020-11-15T14:07:24Z</time>
      </trkpt>
      <trkpt lat="-40.1547100" lon="-71.3475900">
        <ele>655.0</ele>
        <time>2020-11-15T14:07:25Z</time>
      </trkpt>
      <trkpt lat="-40.1547100" lon="-71.3476120">
        <ele>655.0</ele>
        <time>2020-11-15T14:07:26Z</time>
      </trkpt>
      <trkpt lat="-40.1547230" lon="-71.3476370">
        <ele>655.0</ele>
        <time>2020-11-15T14:07:27Z</time>
      </trkpt>
      <trkpt lat="-40.1547360" lon="-71.3476440">
        <ele>655.0</ele>
        <time>2020-11-15T14:07:27Z</time>
      </trkpt>
      <trkpt lat="-40.1547500" lon="-71.3476540">
        <ele>655.2</ele>
        <time>2020-11-15T14:07:28Z</time>
      </trkpt>
      <trkpt lat="-40.1547680" lon="-71.3476630">
        <ele>655.2</ele>
        <time>2020-11-15T14:07:29Z</time>
      </trkpt>
      <trkpt lat="-40.1547870" lon="-71.3476750">
        <ele>655.5</ele>
        <time>2020-11-15T14:07:30Z</time>
      </trkpt>
      <trkpt lat="-40.1548080" lon="-71.3476880">
        <ele>655.8</ele>
        <time>2020-11-15T14:07:31Z</time>
      </trkpt>
      <trkpt lat="-40.1548290" lon="-71.3477020">
        <ele>655.8</ele>
        <time>2020-11-15T14:07:32Z</time>
      </trkpt>
      <trkpt lat="-40.1548510" lon="-71.3477150">
        <ele>656.1</ele>
        <time>2020-11-15T14:07:34Z</time>
      </trkpt>
      <trkpt lat="-40.1548730" lon="-71.3477300">
        <ele>656.3</ele>
        <time>2020-11-15T14:07:35Z</time>
      </trkpt>
      <trkpt lat="-40.1549210" lon="-71.3477630">
        <ele>656.6</ele>
        <time>2020-11-15T14:07:36Z</time>
      </trkpt>
      <trkpt lat="-40.1549460" lon="-71.3477790">
        <ele>656.6</ele>
        <time>2020-11-15T14:07:37Z</time>
      </trkpt>
      <trkpt lat="-40.1550040" lon="-71.3478110">
        <ele>656.7</ele>
        <time>2020-11-15T14:07:39Z</time>
      </trkpt>
      <trkpt lat="-40.1550330" lon="-71.3478280">
        <ele>656.7</ele>
        <time>2020-11-15T14:07:40Z</time>
      </trkpt>
      <trkpt lat="-40.1550670" lon="-71.3478430">
        <ele>656.7</ele>
        <time>2020-11-15T14:07:41Z</time>
      </trkpt>
      <trkpt lat="-40.1551050" lon="-71.3478560">
        <ele>656.7</ele>
        <time>2020-11-15T14:07:42Z</time>
      </trkpt>
      <trkpt lat="-40.1551440" lon="-71.3478690">
        <ele>656.7</ele>
        <time>2020-11-15T14:07:44Z</time>
      </trkpt>
      <trkpt lat="-40.1551840" lon="-71.3478830">
        <ele>656.6</ele>
        <time>2020-11-15T14:07:45Z</time>
      </trkpt>
      <trkpt lat="-40.1552640" lon="-71.3479180">
        <ele>656.6</ele>
        <time>2020-11-15T14:07:46Z</time>
      </trkpt>
      <trkpt lat="-40.1553040" lon="-71.3479390">
        <ele>656.3</ele>
        <time>2020-11-15T14:07:47Z</time>
      </trkpt>
      <trkpt lat="-40.1553420" lon="-71.3479610">
        <ele>656.2</ele>
        <time>2020-11-15T14:07:49Z</time>
      </trkpt>
      <trkpt lat="-40.1554170" lon="-71.3480060">
        <ele>655.2</ele>
        <time>2020-11-15T14:07:50Z</time>
      </trkpt>
      <trkpt lat="-40.1554540" lon="-71.3480280">
        <ele>654.9</ele>
        <time>2020-11-15T14:07:51Z</time>
      </trkpt>
      <trkpt lat="-40.1554930" lon="-71.3480490">
        <ele>654.7</ele>
        <time>2020-11-15T14:07:53Z</time>
      </trkpt>
      <trkpt lat="-40.1555680" lon="-71.3480880">
        <ele>654.6</ele>
        <time>2020-11-15T14:07:54Z</time>
      </trkpt>
      <trkpt lat="-40.1556030" lon="-71.3481030">
        <ele>654.3</ele>
        <time>2020-11-15T14:07:55Z</time>
      </trkpt>
      <trkpt lat="-40.1556370" lon="-71.3481170">
        <ele>654.1</ele>
        <time>2020-11-15T14:07:56Z</time>
      </trkpt>
      <trkpt lat="-40.1556710" lon="-71.3481320">
        <ele>654.0</ele>
        <time>2020-11-15T14:07:57Z</time>
      </trkpt>
      <trkpt lat="-40.1557030" lon="-71.3481480">
        <ele>653.9</ele>
        <time>2020-11-15T14:07:58Z</time>
      </trkpt>
      <trkpt lat="-40.1557650" lon="-71.3481830">
        <ele>653.8</ele>
        <time>2020-11-15T14:08:00Z</time>
      </trkpt>
      <trkpt lat="-40.1557940" lon="-71.3482020">
        <ele>653.8</ele>
        <time>2020-11-15T14:08:01Z</time>
      </trkpt>
      <trkpt lat="-40.1558240" lon="-71.3482190">
        <ele>653.9</ele>
        <time>2020-11-15T14:08:02Z</time>
      </trkpt>
      <trkpt lat="-40.1558540" lon="-71.3482350">
        <ele>653.9</ele>
        <time>2020-11-15T14:08:03Z</time>
      </trkpt>
      <trkpt lat="-40.1558820" lon="-71.3482480">
        <ele>653.9</ele>
        <time>2020-11-15T14:08:04Z</time>
      </trkpt>
      <trkpt lat="-40.1559070" lon="-71.3482610">
        <ele>653.9</ele>
        <time>2020-11-15T14:08:05Z</time>
      </trkpt>
      <trkpt lat="-40.1559300" lon="-71.3482750">
        <ele>653.9</ele>
        <time>2020-11-15T14:08:06Z</time>
      </trkpt>
      <trkpt lat="-40.1559520" lon="-71.3482890">
        <ele>653.9</ele>
        <time>2020-11-15T14:08:07Z</time>
      </trkpt>
      <trkpt lat="-40.1559720" lon="-71.3483080">
        <ele>653.9</ele>
        <time>2020-11-15T14:08:08Z</time>
      </trkpt>
      <trkpt lat="-40.1559900" lon="-71.3483330">
        <ele>653.8</ele>
        <time>2020-11-15T14:08:09Z</time>
      </trkpt>
      <trkpt lat="-40.1560040" lon="-71.3483600">
        <ele>653.8</ele>
        <time>2020-11-15T14:08:10Z</time>
      </trkpt>
      <trkpt lat="-40.1560170" lon="-71.3483870">
        <ele>653.8</ele>
        <time>2020-11-15T14:08:11Z</time>
      </trkpt>
      <trkpt lat="-40.1560270" lon="-71.3484110">
        <ele>653.7</ele>
        <time>2020-11-15T14:08:12Z</time>
      </trkpt>
      <trkpt lat="-40.1560360" lon="-71.3484320">
        <ele>653.7</ele>
        <time>2020-11-15T14:08:13Z</time>
      </trkpt>
      <trkpt lat="-40.1560440" lon="-71.3484540">
        <ele>653.7</ele>
        <time>2020-11-15T14:08:14Z</time>
      </trkpt>
      <trkpt lat="-40.1560510" lon="-71.3484740">
        <ele>653.7</ele>
        <time>2020-11-15T14:08:15Z</time>
      </trkpt>
      <trkpt lat="-40.1560600" lon="-71.3484930">
        <ele>653.7</ele>
        <time>2020-11-15T14:08:16Z</time>
      </trkpt>
      <trkpt lat="-40.1560690" lon="-71.3485130">
        <ele>653.7</ele>
        <time>2020-11-15T14:08:17Z</time>
      </trkpt>
      <trkpt lat="-40.1560770" lon="-71.3485340">
        <ele>653.6</ele>
        <time>2020-11-15T14:08:18Z</time>
      </trkpt>
      <trkpt lat="-40.1560850" lon="-71.3485560">
        <ele>653.6</ele>
        <time>2020-11-15T14:08:20Z</time>
      </trkpt>
      <trkpt lat="-40.1561010" lon="-71.3485930">
        <ele>653.6</ele>
        <time>2020-11-15T14:08:21Z</time>
      </trkpt>
      <trkpt lat="-40.1561070" lon="-71.3486120">
        <ele>653.6</ele>
        <time>2020-11-15T14:08:22Z</time>
      </trkpt>
      <trkpt lat="-40.1561080" lon="-71.3486310">
        <ele>653.6</ele>
        <time>2020-11-15T14:08:23Z</time>
      </trkpt>
      <trkpt lat="-40.1561050" lon="-71.3486510">
        <ele>653.6</ele>
        <time>2020-11-15T14:08:24Z</time>
      </trkpt>
      <trkpt lat="-40.1561040" lon="-71.3486760">
        <ele>653.5</ele>
        <time>2020-11-15T14:08:25Z</time>
      </trkpt>
      <trkpt lat="-40.1561050" lon="-71.3487020">
        <ele>653.5</ele>
        <time>2020-11-15T14:08:27Z</time>
      </trkpt>
      <trkpt lat="-40.1561110" lon="-71.3487300">
        <ele>653.5</ele>
        <time>2020-11-15T14:08:28Z</time>
      </trkpt>
      <trkpt lat="-40.1561270" lon="-71.3488020">
        <ele>653.4</ele>
        <time>2020-11-15T14:08:30Z</time>
      </trkpt>
      <trkpt lat="-40.1561730" lon="-71.3488720">
        <ele>653.4</ele>
        <time>2020-11-15T14:08:51Z</time>
      </trkpt>
      <trkpt lat="-40.1561740" lon="-71.3488760">
        <ele>653.4</ele>
        <time>2020-11-15T14:08:52Z</time>
      </trkpt>
      <trkpt lat="-40.1561770" lon="-71.3488870">
        <ele>653.4</ele>
        <time>2020-11-15T14:08:53Z</time>
      </trkpt>
      <trkpt lat="-40.1561830" lon="-71.3489060">
        <ele>653.4</ele>
        <time>2020-11-15T14:08:54Z</time>
      </trkpt>
      <trkpt lat="-40.1561910" lon="-71.3489310">
        <ele>653.3</ele>
        <time>2020-11-15T14:08:55Z</time>
      </trkpt>
      <trkpt lat="-40.1562020" lon="-71.3489580">
        <ele>653.3</ele>
        <time>2020-11-15T14:08:56Z</time>
      </trkpt>
      <trkpt lat="-40.1562160" lon="-71.3489860">
        <ele>653.3</ele>
        <time>2020-11-15T14:08:57Z</time>
      </trkpt>
      <trkpt lat="-40.1562330" lon="-71.3490150">
        <ele>653.3</ele>
        <time>2020-11-15T14:08:58Z</time>
      </trkpt>
      <trkpt lat="-40.1562510" lon="-71.3490450">
        <ele>653.2</ele>
        <time>2020-11-15T14:09:00Z</time>
      </trkpt>
      <trkpt lat="-40.1562680" lon="-71.3490730">
        <ele>653.2</ele>
        <time>2020-11-15T14:09:01Z</time>
      </trkpt>
      <trkpt lat="-40.1562960" lon="-71.3491100">
        <ele>653.2</ele>
        <time>2020-11-15T14:09:02Z</time>
      </trkpt>
      <trkpt lat="-40.1563090" lon="-71.3491130">
        <ele>653.2</ele>
        <time>2020-11-15T14:09:03Z</time>
      </trkpt>
      <trkpt lat="-40.1563150" lon="-71.3491210">
        <ele>653.2</ele>
        <time>2020-11-15T14:09:04Z</time>
      </trkpt>
      <trkpt lat="-40.1563210" lon="-71.3491390">
        <ele>653.2</ele>
        <time>2020-11-15T14:09:05Z</time>
      </trkpt>
      <trkpt lat="-40.1563300" lon="-71.3491700">
        <ele>653.2</ele>
        <time>2020-11-15T14:09:06Z</time>
      </trkpt>
      <trkpt lat="-40.1563410" lon="-71.3492140">
        <ele>653.1</ele>
        <time>2020-11-15T14:09:07Z</time>
      </trkpt>
      <trkpt lat="-40.1563540" lon="-71.3492650">
        <ele>653.1</ele>
        <time>2020-11-15T14:09:08Z</time>
      </trkpt>
      <trkpt lat="-40.1563690" lon="-71.3493200">
        <ele>653.1</ele>
        <time>2020-11-15T14:09:09Z</time>
      </trkpt>
      <trkpt lat="-40.1563840" lon="-71.3493770">
        <ele>653.1</ele>
        <time>2020-11-15T14:09:10Z</time>
      </trkpt>
      <trkpt lat="-40.1563960" lon="-71.3494340">
        <ele>653.0</ele>
        <time>2020-11-15T14:09:11Z</time>
      </trkpt>
      <trkpt lat="-40.1564040" lon="-71.3494910">
        <ele>653.0</ele>
        <time>2020-11-15T14:09:12Z</time>
      </trkpt>
      <trkpt lat="-40.1564010" lon="-71.3495460">
        <ele>652.9</ele>
        <time>2020-11-15T14:09:13Z</time>
      </trkpt>
      <trkpt lat="-40.1563900" lon="-71.3495960">
        <ele>652.9</ele>
        <time>2020-11-15T14:09:15Z</time>
      </trkpt>
      <trkpt lat="-40.1563720" lon="-71.3496400">
        <ele>652.9</ele>
        <time>2020-11-15T14:09:16Z</time>
      </trkpt>
      <trkpt lat="-40.1563160" lon="-71.3497040">
        <ele>652.9</ele>
        <time>2020-11-15T14:09:17Z</time>
      </trkpt>
      <trkpt lat="-40.1562800" lon="-71.3497280">
        <ele>652.8</ele>
        <time>2020-11-15T14:09:18Z</time>
      </trkpt>
      <trkpt lat="-40.1562410" lon="-71.3497530">
        <ele>652.8</ele>
        <time>2020-11-15T14:09:19Z</time>
      </trkpt>
      <trkpt lat="-40.1562000" lon="-71.3497780">
        <ele>652.8</ele>
        <time>2020-11-15T14:09:20Z</time>
      </trkpt>
      <trkpt lat="-40.1561560" lon="-71.3498010">
        <ele>652.8</ele>
        <time>2020-11-15T14:09:22Z</time>
      </trkpt>
      <trkpt lat="-40.1561120" lon="-71.3498240">
        <ele>652.8</ele>
        <time>2020-11-15T14:09:23Z</time>
      </trkpt>
      <trkpt lat="-40.1560190" lon="-71.3498740">
        <ele>652.8</ele>
        <time>2020-11-15T14:09:24Z</time>
      </trkpt>
      <trkpt lat="-40.1559740" lon="-71.3498980">
        <ele>652.8</ele>
        <time>2020-11-15T14:09:26Z</time>
      </trkpt>
      <trkpt lat="-40.1558810" lon="-71.3499470">
        <ele>652.8</ele>
        <time>2020-11-15T14:09:27Z</time>
      </trkpt>
      <trkpt lat="-40.1558340" lon="-71.3499720">
        <ele>652.8</ele>
        <time>2020-11-15T14:09:28Z</time>
      </trkpt>
      <trkpt lat="-40.1557870" lon="-71.3499980">
        <ele>652.8</ele>
        <time>2020-11-15T14:09:29Z</time>
      </trkpt>
      <trkpt lat="-40.1557430" lon="-71.3500210">
        <ele>652.8</ele>
        <time>2020-11-15T14:09:30Z</time>
      </trkpt>
      <trkpt lat="-40.1557000" lon="-71.3500430">
        <ele>652.8</ele>
        <time>2020-11-15T14:09:32Z</time>
      </trkpt>
      <trkpt lat="-40.1556600" lon="-71.3500640">
        <ele>652.7</ele>
        <time>2020-11-15T14:09:33Z</time>
      </trkpt>
      <trkpt lat="-40.1556230" lon="-71.3500830">
        <ele>652.7</ele>
        <time>2020-11-15T14:09:34Z</time>
      </trkpt>
      <trkpt lat="-40.1555490" lon="-71.3501180">
        <ele>652.7</ele>
        <time>2020-11-15T14:09:35Z</time>
      </trkpt>
      <trkpt lat="-40.1555090" lon="-71.3501370">
        <ele>652.7</ele>
        <time>2020-11-15T14:09:36Z</time>
      </trkpt>
      <trkpt lat="-40.1554670" lon="-71.3501570">
        <ele>652.7</ele>
        <time>2020-11-15T14:09:37Z</time>
      </trkpt>
      <trkpt lat="-40.1554230" lon="-71.3501810">
        <ele>652.6</ele>
        <time>2020-11-15T14:09:38Z</time>
      </trkpt>
      <trkpt lat="-40.1553790" lon="-71.3502090">
        <ele>652.5</ele>
        <time>2020-11-15T14:09:39Z</time>
      </trkpt>
      <trkpt lat="-40.1553360" lon="-71.3502380">
        <ele>652.5</ele>
        <time>2020-11-15T14:09:40Z</time>
      </trkpt>
      <trkpt lat="-40.1552910" lon="-71.3502640">
        <ele>652.4</ele>
        <time>2020-11-15T14:09:42Z</time>
      </trkpt>
      <trkpt lat="-40.1552080" lon="-71.3503020">
        <ele>652.2</ele>
        <time>2020-11-15T14:09:44Z</time>
      </trkpt>
      <trkpt lat="-40.1551720" lon="-71.3503150">
        <ele>652.1</ele>
        <time>2020-11-15T14:09:45Z</time>
      </trkpt>
      <trkpt lat="-40.1550880" lon="-71.3503510">
        <ele>652.0</ele>
        <time>2020-11-15T14:09:46Z</time>
      </trkpt>
      <trkpt lat="-40.1550410" lon="-71.3503770">
        <ele>651.9</ele>
        <time>2020-11-15T14:09:47Z</time>
      </trkpt>
      <trkpt lat="-40.1549930" lon="-71.3504060">
        <ele>651.8</ele>
        <time>2020-11-15T14:09:48Z</time>
      </trkpt>
      <trkpt lat="-40.1549440" lon="-71.3504360">
        <ele>651.7</ele>
        <time>2020-11-15T14:09:49Z</time>
      </trkpt>
      <trkpt lat="-40.1548930" lon="-71.3504670">
        <ele>651.7</ele>
        <time>2020-11-15T14:09:50Z</time>
      </trkpt>
      <trkpt lat="-40.1548420" lon="-71.3504990">
        <ele>651.6</ele>
        <time>2020-11-15T14:09:51Z</time>
      </trkpt>
      <trkpt lat="-40.1547920" lon="-71.3505290">
        <ele>651.5</ele>
        <time>2020-11-15T14:09:52Z</time>
      </trkpt>
      <trkpt lat="-40.1547440" lon="-71.3505570">
        <ele>651.5</ele>
        <time>2020-11-15T14:09:53Z</time>
      </trkpt>
      <trkpt lat="-40.1546990" lon="-71.3505820">
        <ele>651.5</ele>
        <time>2020-11-15T14:09:54Z</time>
      </trkpt>
      <trkpt lat="-40.1546570" lon="-71.3506050">
        <ele>651.4</ele>
        <time>2020-11-15T14:09:55Z</time>
      </trkpt>
      <trkpt lat="-40.1546170" lon="-71.3506240">
        <ele>651.4</ele>
        <time>2020-11-15T14:09:57Z</time>
      </trkpt>
      <trkpt lat="-40.1545740" lon="-71.3506450">
        <ele>651.3</ele>
        <time>2020-11-15T14:09:58Z</time>
      </trkpt>
      <trkpt lat="-40.1544730" lon="-71.3506970">
        <ele>651.3</ele>
        <time>2020-11-15T14:09:59Z</time>
      </trkpt>
      <trkpt lat="-40.1544200" lon="-71.3507270">
        <ele>651.2</ele>
        <time>2020-11-15T14:10:00Z</time>
      </trkpt>
      <trkpt lat="-40.1543670" lon="-71.3507580">
        <ele>651.2</ele>
        <time>2020-11-15T14:10:01Z</time>
      </trkpt>
      <trkpt lat="-40.1543160" lon="-71.3507880">
        <ele>651.2</ele>
        <time>2020-11-15T14:10:02Z</time>
      </trkpt>
      <trkpt lat="-40.1542650" lon="-71.3508190">
        <ele>651.1</ele>
        <time>2020-11-15T14:10:03Z</time>
      </trkpt>
      <trkpt lat="-40.1542170" lon="-71.3508490">
        <ele>651.1</ele>
        <time>2020-11-15T14:10:04Z</time>
      </trkpt>
      <trkpt lat="-40.1541720" lon="-71.3508750">
        <ele>651.1</ele>
        <time>2020-11-15T14:10:05Z</time>
      </trkpt>
      <trkpt lat="-40.1541320" lon="-71.3508960">
        <ele>651.0</ele>
        <time>2020-11-15T14:10:06Z</time>
      </trkpt>
      <trkpt lat="-40.1540970" lon="-71.3509120">
        <ele>651.0</ele>
        <time>2020-11-15T14:10:07Z</time>
      </trkpt>
      <trkpt lat="-40.1540450" lon="-71.3509510">
        <ele>651.0</ele>
        <time>2020-11-15T14:10:09Z</time>
      </trkpt>
      <trkpt lat="-40.1540220" lon="-71.3509720">
        <ele>651.0</ele>
        <time>2020-11-15T14:10:10Z</time>
      </trkpt>
      <trkpt lat="-40.1540080" lon="-71.3509990">
        <ele>651.0</ele>
        <time>2020-11-15T14:10:11Z</time>
      </trkpt>
      <trkpt lat="-40.1540010" lon="-71.3510290">
        <ele>651.0</ele>
        <time>2020-11-15T14:10:12Z</time>
      </trkpt>
      <trkpt lat="-40.1539980" lon="-71.3510590">
        <ele>651.0</ele>
        <time>2020-11-15T14:10:13Z</time>
      </trkpt>
      <trkpt lat="-40.1539940" lon="-71.3510860">
        <ele>651.0</ele>
        <time>2020-11-15T14:10:14Z</time>
      </trkpt>
      <trkpt lat="-40.1539840" lon="-71.3511090">
        <ele>651.0</ele>
        <time>2020-11-15T14:10:15Z</time>
      </trkpt>
      <trkpt lat="-40.1539680" lon="-71.3511300">
        <ele>651.0</ele>
        <time>2020-11-15T14:10:17Z</time>
      </trkpt>
      <trkpt lat="-40.1539430" lon="-71.3511700">
        <ele>650.9</ele>
        <time>2020-11-15T14:10:18Z</time>
      </trkpt>
      <trkpt lat="-40.1539360" lon="-71.3511830">
        <ele>650.9</ele>
        <time>2020-11-15T14:10:19Z</time>
      </trkpt>
      <trkpt lat="-40.1539320" lon="-71.3510730">
        <ele>650.9</ele>
        <time>2020-11-15T14:10:42Z</time>
      </trkpt>
      <trkpt lat="-40.1539280" lon="-71.3510510">
        <ele>650.9</ele>
        <time>2020-11-15T14:10:43Z</time>
      </trkpt>
      <trkpt lat="-40.1539260" lon="-71.3510290">
        <ele>650.9</ele>
        <time>2020-11-15T14:10:44Z</time>
      </trkpt>
      <trkpt lat="-40.1539210" lon="-71.3510120">
        <ele>650.9</ele>
        <time>2020-11-15T14:10:46Z</time>
      </trkpt>
      <trkpt lat="-40.1539120" lon="-71.3509780">
        <ele>650.9</ele>
        <time>2020-11-15T14:10:48Z</time>
      </trkpt>
      <trkpt lat="-40.1539050" lon="-71.3509670">
        <ele>650.9</ele>
        <time>2020-11-15T14:10:49Z</time>
      </trkpt>
      <trkpt lat="-40.1539000" lon="-71.3509580">
        <ele>650.9</ele>
        <time>2020-11-15T14:10:50Z</time>
      </trkpt>
      <trkpt lat="-40.1538900" lon="-71.3509440">
        <ele>650.9</ele>
        <time>2020-11-15T14:10:51Z</time>
      </trkpt>
    </trkseg>
  </trk>
</gpx>
